<?xml version="1.0" encoding="UTF-8" standalone="no" ?>
<gpx xmlns="http://www.topografix.com/GPX/1/1" xmlns:xsi="http://www.w3.org/2001/XMLSchema-instance" xsi:schemaLocation="http://www.topografix.com/GPX/1/1 http://www.topografix.com/GPX/1/1/gpx.xsd" version="1.1" creator="VisuGPX - https://www.visugpx.com">
  <metadata>
    <name>Campan Gravel bike</name>
  </metadata>
  <trk>
    <name><![CDATA[Campan Gravel bike]]></name>
    <trkseg>
      <trkpt lat="42.98895" lon="0.22951">
        <ele>803.20001220703</ele>
        <time>2020-07-06T07:15:07.000Z</time>
      </trkpt>
      <trkpt lat="42.98896" lon="0.22953">
        <ele>803.20001220703</ele>
        <time>2020-07-06T07:15:12.000Z</time>
      </trkpt>
      <trkpt lat="42.98907" lon="0.22965">
        <ele>803</ele>
        <time>2020-07-06T07:15:19.000Z</time>
      </trkpt>
      <trkpt lat="42.98918" lon="0.22975">
        <ele>803</ele>
        <time>2020-07-06T07:15:25.000Z</time>
      </trkpt>
      <trkpt lat="42.98921" lon="0.22974">
        <ele>803.20001220703</ele>
        <time>2020-07-06T07:15:27.000Z</time>
      </trkpt>
      <trkpt lat="42.98925" lon="0.2297">
        <ele>803.20001220703</ele>
        <time>2020-07-06T07:15:29.000Z</time>
      </trkpt>
      <trkpt lat="42.98939" lon="0.22956">
        <ele>803.40002441406</ele>
        <time>2020-07-06T07:15:34.000Z</time>
      </trkpt>
      <trkpt lat="42.98964" lon="0.22942">
        <ele>803</ele>
        <time>2020-07-06T07:15:40.000Z</time>
      </trkpt>
      <trkpt lat="42.98997" lon="0.22924">
        <ele>802.20001220703</ele>
        <time>2020-07-06T07:15:47.000Z</time>
      </trkpt>
      <trkpt lat="42.99026" lon="0.22906">
        <ele>801.59997558594</ele>
        <time>2020-07-06T07:15:52.000Z</time>
      </trkpt>
      <trkpt lat="42.9905" lon="0.22888">
        <ele>800.40002441406</ele>
        <time>2020-07-06T07:15:56.000Z</time>
      </trkpt>
      <trkpt lat="42.99061" lon="0.22877">
        <ele>800</ele>
        <time>2020-07-06T07:15:58.000Z</time>
      </trkpt>
      <trkpt lat="42.99071" lon="0.22865">
        <ele>798.79998779297</ele>
        <time>2020-07-06T07:16:00.000Z</time>
      </trkpt>
      <trkpt lat="42.99086" lon="0.22847">
        <ele>797.59997558594</ele>
        <time>2020-07-06T07:16:03.000Z</time>
      </trkpt>
      <trkpt lat="42.99113" lon="0.22818">
        <ele>796.40002441406</ele>
        <time>2020-07-06T07:16:08.000Z</time>
      </trkpt>
      <trkpt lat="42.99126" lon="0.22808">
        <ele>795.79998779297</ele>
        <time>2020-07-06T07:16:10.000Z</time>
      </trkpt>
      <trkpt lat="42.99138" lon="0.228">
        <ele>795</ele>
        <time>2020-07-06T07:16:12.000Z</time>
      </trkpt>
      <trkpt lat="42.99142" lon="0.22796">
        <ele>795</ele>
        <time>2020-07-06T07:16:13.000Z</time>
      </trkpt>
      <trkpt lat="42.99147" lon="0.22788">
        <ele>794.20001220703</ele>
        <time>2020-07-06T07:16:15.000Z</time>
      </trkpt>
      <trkpt lat="42.99149" lon="0.22785">
        <ele>794</ele>
        <time>2020-07-06T07:16:16.000Z</time>
      </trkpt>
      <trkpt lat="42.99149" lon="0.22782">
        <ele>793.59997558594</ele>
        <time>2020-07-06T07:16:17.000Z</time>
      </trkpt>
      <trkpt lat="42.99148" lon="0.2278">
        <ele>793.59997558594</ele>
        <time>2020-07-06T07:16:18.000Z</time>
      </trkpt>
      <trkpt lat="42.99148" lon="0.22777">
        <ele>793.40002441406</ele>
        <time>2020-07-06T07:16:19.000Z</time>
      </trkpt>
      <trkpt lat="42.99148" lon="0.22773">
        <ele>793.40002441406</ele>
        <time>2020-07-06T07:16:22.000Z</time>
      </trkpt>
      <trkpt lat="42.99148" lon="0.22774">
        <ele>793.59997558594</ele>
        <time>2020-07-06T07:16:28.000Z</time>
      </trkpt>
      <trkpt lat="42.99147" lon="0.22771">
        <ele>793.79998779297</ele>
        <time>2020-07-06T07:16:46.000Z</time>
      </trkpt>
      <trkpt lat="42.99139" lon="0.22752">
        <ele>793.79998779297</ele>
        <time>2020-07-06T07:16:51.000Z</time>
      </trkpt>
      <trkpt lat="42.99137" lon="0.22729">
        <ele>793.79998779297</ele>
        <time>2020-07-06T07:16:55.000Z</time>
      </trkpt>
      <trkpt lat="42.99146" lon="0.22704">
        <ele>794</ele>
        <time>2020-07-06T07:17:00.000Z</time>
      </trkpt>
      <trkpt lat="42.99148" lon="0.22699">
        <ele>794.79998779297</ele>
        <time>2020-07-06T07:17:01.000Z</time>
      </trkpt>
      <trkpt lat="42.9915" lon="0.22693">
        <ele>795</ele>
        <time>2020-07-06T07:17:02.000Z</time>
      </trkpt>
      <trkpt lat="42.99157" lon="0.22676">
        <ele>795.79998779297</ele>
        <time>2020-07-06T07:17:05.000Z</time>
      </trkpt>
      <trkpt lat="42.9916" lon="0.2267">
        <ele>795.79998779297</ele>
        <time>2020-07-06T07:17:06.000Z</time>
      </trkpt>
      <trkpt lat="42.99164" lon="0.22664">
        <ele>795.79998779297</ele>
        <time>2020-07-06T07:17:07.000Z</time>
      </trkpt>
      <trkpt lat="42.9917" lon="0.22653">
        <ele>796</ele>
        <time>2020-07-06T07:17:09.000Z</time>
      </trkpt>
      <trkpt lat="42.99179" lon="0.22631">
        <ele>796.20001220703</ele>
        <time>2020-07-06T07:17:13.000Z</time>
      </trkpt>
      <trkpt lat="42.99181" lon="0.22626">
        <ele>796.40002441406</ele>
        <time>2020-07-06T07:17:14.000Z</time>
      </trkpt>
      <trkpt lat="42.99191" lon="0.22606">
        <ele>797.20001220703</ele>
        <time>2020-07-06T07:17:18.000Z</time>
      </trkpt>
      <trkpt lat="42.99202" lon="0.22586">
        <ele>797.79998779297</ele>
        <time>2020-07-06T07:17:22.000Z</time>
      </trkpt>
      <trkpt lat="42.99204" lon="0.22582">
        <ele>798</ele>
        <time>2020-07-06T07:17:23.000Z</time>
      </trkpt>
      <trkpt lat="42.99206" lon="0.22573">
        <ele>798.20001220703</ele>
        <time>2020-07-06T07:17:25.000Z</time>
      </trkpt>
      <trkpt lat="42.99207" lon="0.22562">
        <ele>798.59997558594</ele>
        <time>2020-07-06T07:17:27.000Z</time>
      </trkpt>
      <trkpt lat="42.99202" lon="0.22554">
        <ele>799.20001220703</ele>
        <time>2020-07-06T07:17:29.000Z</time>
      </trkpt>
      <trkpt lat="42.99198" lon="0.22551">
        <ele>799.59997558594</ele>
        <time>2020-07-06T07:17:30.000Z</time>
      </trkpt>
      <trkpt lat="42.99191" lon="0.22545">
        <ele>800.59997558594</ele>
        <time>2020-07-06T07:17:32.000Z</time>
      </trkpt>
      <trkpt lat="42.99181" lon="0.22535">
        <ele>801.59997558594</ele>
        <time>2020-07-06T07:17:35.000Z</time>
      </trkpt>
      <trkpt lat="42.99178" lon="0.22531">
        <ele>802</ele>
        <time>2020-07-06T07:17:36.000Z</time>
      </trkpt>
      <trkpt lat="42.99168" lon="0.2252">
        <ele>803.20001220703</ele>
        <time>2020-07-06T07:17:39.000Z</time>
      </trkpt>
      <trkpt lat="42.9916" lon="0.22514">
        <ele>803.59997558594</ele>
        <time>2020-07-06T07:17:41.000Z</time>
      </trkpt>
      <trkpt lat="42.9915" lon="0.22508">
        <ele>803.79998779297</ele>
        <time>2020-07-06T07:17:43.000Z</time>
      </trkpt>
      <trkpt lat="42.99134" lon="0.22498">
        <ele>803.79998779297</ele>
        <time>2020-07-06T07:17:46.000Z</time>
      </trkpt>
      <trkpt lat="42.99129" lon="0.22494">
        <ele>803.59997558594</ele>
        <time>2020-07-06T07:17:47.000Z</time>
      </trkpt>
      <trkpt lat="42.99124" lon="0.22484">
        <ele>802.79998779297</ele>
        <time>2020-07-06T07:17:49.000Z</time>
      </trkpt>
      <trkpt lat="42.99123" lon="0.22471">
        <ele>802</ele>
        <time>2020-07-06T07:17:51.000Z</time>
      </trkpt>
      <trkpt lat="42.99126" lon="0.22464">
        <ele>801.59997558594</ele>
        <time>2020-07-06T07:17:52.000Z</time>
      </trkpt>
      <trkpt lat="42.99138" lon="0.22442">
        <ele>800.79998779297</ele>
        <time>2020-07-06T07:17:55.000Z</time>
      </trkpt>
      <trkpt lat="42.99142" lon="0.22434">
        <ele>800.59997558594</ele>
        <time>2020-07-06T07:17:56.000Z</time>
      </trkpt>
      <trkpt lat="42.99155" lon="0.22407">
        <ele>799.20001220703</ele>
        <time>2020-07-06T07:17:59.000Z</time>
      </trkpt>
      <trkpt lat="42.99167" lon="0.22376">
        <ele>798</ele>
        <time>2020-07-06T07:18:02.000Z</time>
      </trkpt>
      <trkpt lat="42.99185" lon="0.22332">
        <ele>796.59997558594</ele>
        <time>2020-07-06T07:18:06.000Z</time>
      </trkpt>
      <trkpt lat="42.99194" lon="0.2231">
        <ele>795.40002441406</ele>
        <time>2020-07-06T07:18:08.000Z</time>
      </trkpt>
      <trkpt lat="42.99198" lon="0.22298">
        <ele>795</ele>
        <time>2020-07-06T07:18:09.000Z</time>
      </trkpt>
      <trkpt lat="42.99207" lon="0.22275">
        <ele>794.20001220703</ele>
        <time>2020-07-06T07:18:11.000Z</time>
      </trkpt>
      <trkpt lat="42.99218" lon="0.22237">
        <ele>793</ele>
        <time>2020-07-06T07:18:14.000Z</time>
      </trkpt>
      <trkpt lat="42.9922" lon="0.22223">
        <ele>792.79998779297</ele>
        <time>2020-07-06T07:18:15.000Z</time>
      </trkpt>
      <trkpt lat="42.99227" lon="0.22179">
        <ele>791.79998779297</ele>
        <time>2020-07-06T07:18:18.000Z</time>
      </trkpt>
      <trkpt lat="42.99237" lon="0.22137">
        <ele>790.40002441406</ele>
        <time>2020-07-06T07:18:21.000Z</time>
      </trkpt>
      <trkpt lat="42.99246" lon="0.22109">
        <ele>789.20001220703</ele>
        <time>2020-07-06T07:18:23.000Z</time>
      </trkpt>
      <trkpt lat="42.99255" lon="0.22081">
        <ele>787.79998779297</ele>
        <time>2020-07-06T07:18:25.000Z</time>
      </trkpt>
      <trkpt lat="42.99258" lon="0.22067">
        <ele>787.40002441406</ele>
        <time>2020-07-06T07:18:26.000Z</time>
      </trkpt>
      <trkpt lat="42.99261" lon="0.22052">
        <ele>787.20001220703</ele>
        <time>2020-07-06T07:18:27.000Z</time>
      </trkpt>
      <trkpt lat="42.99262" lon="0.22037">
        <ele>786.20001220703</ele>
        <time>2020-07-06T07:18:28.000Z</time>
      </trkpt>
      <trkpt lat="42.99261" lon="0.22006">
        <ele>785</ele>
        <time>2020-07-06T07:18:30.000Z</time>
      </trkpt>
      <trkpt lat="42.99259" lon="0.21976">
        <ele>784</ele>
        <time>2020-07-06T07:18:32.000Z</time>
      </trkpt>
      <trkpt lat="42.99259" lon="0.21932">
        <ele>782.79998779297</ele>
        <time>2020-07-06T07:18:35.000Z</time>
      </trkpt>
      <trkpt lat="42.99261" lon="0.2186">
        <ele>781.79998779297</ele>
        <time>2020-07-06T07:18:40.000Z</time>
      </trkpt>
      <trkpt lat="42.99262" lon="0.21833">
        <ele>781.20001220703</ele>
        <time>2020-07-06T07:18:42.000Z</time>
      </trkpt>
      <trkpt lat="42.99263" lon="0.21792">
        <ele>780.59997558594</ele>
        <time>2020-07-06T07:18:45.000Z</time>
      </trkpt>
      <trkpt lat="42.99267" lon="0.21726">
        <ele>780</ele>
        <time>2020-07-06T07:18:50.000Z</time>
      </trkpt>
      <trkpt lat="42.99272" lon="0.21684">
        <ele>779.40002441406</ele>
        <time>2020-07-06T07:18:53.000Z</time>
      </trkpt>
      <trkpt lat="42.99277" lon="0.21656">
        <ele>778.20001220703</ele>
        <time>2020-07-06T07:18:55.000Z</time>
      </trkpt>
      <trkpt lat="42.9928" lon="0.21641">
        <ele>777.59997558594</ele>
        <time>2020-07-06T07:18:56.000Z</time>
      </trkpt>
      <trkpt lat="42.99288" lon="0.21613">
        <ele>776.40002441406</ele>
        <time>2020-07-06T07:18:58.000Z</time>
      </trkpt>
      <trkpt lat="42.99298" lon="0.21585">
        <ele>775.40002441406</ele>
        <time>2020-07-06T07:19:00.000Z</time>
      </trkpt>
      <trkpt lat="42.99309" lon="0.21558">
        <ele>774</ele>
        <time>2020-07-06T07:19:02.000Z</time>
      </trkpt>
      <trkpt lat="42.99321" lon="0.21532">
        <ele>773</ele>
        <time>2020-07-06T07:19:04.000Z</time>
      </trkpt>
      <trkpt lat="42.99334" lon="0.21506">
        <ele>771.79998779297</ele>
        <time>2020-07-06T07:19:06.000Z</time>
      </trkpt>
      <trkpt lat="42.99346" lon="0.21479">
        <ele>770.40002441406</ele>
        <time>2020-07-06T07:19:08.000Z</time>
      </trkpt>
      <trkpt lat="42.99363" lon="0.21439">
        <ele>769.20001220703</ele>
        <time>2020-07-06T07:19:11.000Z</time>
      </trkpt>
      <trkpt lat="42.99369" lon="0.21425">
        <ele>768.79998779297</ele>
        <time>2020-07-06T07:19:12.000Z</time>
      </trkpt>
      <trkpt lat="42.9938" lon="0.21398">
        <ele>767.59997558594</ele>
        <time>2020-07-06T07:19:14.000Z</time>
      </trkpt>
      <trkpt lat="42.99391" lon="0.21371">
        <ele>766.59997558594</ele>
        <time>2020-07-06T07:19:16.000Z</time>
      </trkpt>
      <trkpt lat="42.99402" lon="0.21343">
        <ele>765.59997558594</ele>
        <time>2020-07-06T07:19:18.000Z</time>
      </trkpt>
      <trkpt lat="42.99407" lon="0.2133">
        <ele>764.79998779297</ele>
        <time>2020-07-06T07:19:19.000Z</time>
      </trkpt>
      <trkpt lat="42.99416" lon="0.21302">
        <ele>764</ele>
        <time>2020-07-06T07:19:21.000Z</time>
      </trkpt>
      <trkpt lat="42.99427" lon="0.21259">
        <ele>762.59997558594</ele>
        <time>2020-07-06T07:19:24.000Z</time>
      </trkpt>
      <trkpt lat="42.99431" lon="0.21244">
        <ele>762.40002441406</ele>
        <time>2020-07-06T07:19:25.000Z</time>
      </trkpt>
      <trkpt lat="42.99443" lon="0.21201">
        <ele>761.40002441406</ele>
        <time>2020-07-06T07:19:28.000Z</time>
      </trkpt>
      <trkpt lat="42.99455" lon="0.21159">
        <ele>759.59997558594</ele>
        <time>2020-07-06T07:19:31.000Z</time>
      </trkpt>
      <trkpt lat="42.99463" lon="0.21131">
        <ele>759</ele>
        <time>2020-07-06T07:19:33.000Z</time>
      </trkpt>
      <trkpt lat="42.99471" lon="0.21103">
        <ele>758.20001220703</ele>
        <time>2020-07-06T07:19:35.000Z</time>
      </trkpt>
      <trkpt lat="42.9948" lon="0.2106">
        <ele>757.20001220703</ele>
        <time>2020-07-06T07:19:38.000Z</time>
      </trkpt>
      <trkpt lat="42.99483" lon="0.21046">
        <ele>757.20001220703</ele>
        <time>2020-07-06T07:19:39.000Z</time>
      </trkpt>
      <trkpt lat="42.99493" lon="0.21001">
        <ele>756</ele>
        <time>2020-07-06T07:19:42.000Z</time>
      </trkpt>
      <trkpt lat="42.99502" lon="0.20971">
        <ele>755.40002441406</ele>
        <time>2020-07-06T07:19:44.000Z</time>
      </trkpt>
      <trkpt lat="42.99508" lon="0.20956">
        <ele>755</ele>
        <time>2020-07-06T07:19:45.000Z</time>
      </trkpt>
      <trkpt lat="42.99517" lon="0.20943">
        <ele>754.20001220703</ele>
        <time>2020-07-06T07:19:46.000Z</time>
      </trkpt>
      <trkpt lat="42.99526" lon="0.20932">
        <ele>753</ele>
        <time>2020-07-06T07:19:47.000Z</time>
      </trkpt>
      <trkpt lat="42.99536" lon="0.20922">
        <ele>752.20001220703</ele>
        <time>2020-07-06T07:19:48.000Z</time>
      </trkpt>
      <trkpt lat="42.99546" lon="0.20913">
        <ele>751.40002441406</ele>
        <time>2020-07-06T07:19:49.000Z</time>
      </trkpt>
      <trkpt lat="42.99565" lon="0.20894">
        <ele>749</ele>
        <time>2020-07-06T07:19:51.000Z</time>
      </trkpt>
      <trkpt lat="42.99574" lon="0.20883">
        <ele>748</ele>
        <time>2020-07-06T07:19:52.000Z</time>
      </trkpt>
      <trkpt lat="42.99582" lon="0.20871">
        <ele>747.59997558594</ele>
        <time>2020-07-06T07:19:53.000Z</time>
      </trkpt>
      <trkpt lat="42.99593" lon="0.20846">
        <ele>747.40002441406</ele>
        <time>2020-07-06T07:19:55.000Z</time>
      </trkpt>
      <trkpt lat="42.99604" lon="0.20795">
        <ele>747.40002441406</ele>
        <time>2020-07-06T07:19:59.000Z</time>
      </trkpt>
      <trkpt lat="42.99613" lon="0.20745">
        <ele>748.40002441406</ele>
        <time>2020-07-06T07:20:03.000Z</time>
      </trkpt>
      <trkpt lat="42.99621" lon="0.2072">
        <ele>748.59997558594</ele>
        <time>2020-07-06T07:20:05.000Z</time>
      </trkpt>
      <trkpt lat="42.99641" lon="0.20669">
        <ele>748.59997558594</ele>
        <time>2020-07-06T07:20:09.000Z</time>
      </trkpt>
      <trkpt lat="42.99643" lon="0.20658">
        <ele>748.40002441406</ele>
        <time>2020-07-06T07:20:10.000Z</time>
      </trkpt>
      <trkpt lat="42.99645" lon="0.20645">
        <ele>748</ele>
        <time>2020-07-06T07:20:11.000Z</time>
      </trkpt>
      <trkpt lat="42.99644" lon="0.20616">
        <ele>747.40002441406</ele>
        <time>2020-07-06T07:20:13.000Z</time>
      </trkpt>
      <trkpt lat="42.9964" lon="0.20559">
        <ele>746.40002441406</ele>
        <time>2020-07-06T07:20:17.000Z</time>
      </trkpt>
      <trkpt lat="42.99641" lon="0.20544">
        <ele>746.20001220703</ele>
        <time>2020-07-06T07:20:18.000Z</time>
      </trkpt>
      <trkpt lat="42.99643" lon="0.2053">
        <ele>745.79998779297</ele>
        <time>2020-07-06T07:20:19.000Z</time>
      </trkpt>
      <trkpt lat="42.99652" lon="0.20503">
        <ele>745.40002441406</ele>
        <time>2020-07-06T07:20:21.000Z</time>
      </trkpt>
      <trkpt lat="42.99669" lon="0.20465">
        <ele>744.20001220703</ele>
        <time>2020-07-06T07:20:24.000Z</time>
      </trkpt>
      <trkpt lat="42.99688" lon="0.20428">
        <ele>742.59997558594</ele>
        <time>2020-07-06T07:20:27.000Z</time>
      </trkpt>
      <trkpt lat="42.99714" lon="0.20378">
        <ele>741</ele>
        <time>2020-07-06T07:20:31.000Z</time>
      </trkpt>
      <trkpt lat="42.99728" lon="0.20354">
        <ele>740</ele>
        <time>2020-07-06T07:20:33.000Z</time>
      </trkpt>
      <trkpt lat="42.99742" lon="0.20329">
        <ele>738.79998779297</ele>
        <time>2020-07-06T07:20:35.000Z</time>
      </trkpt>
      <trkpt lat="42.99761" lon="0.20292">
        <ele>737.59997558594</ele>
        <time>2020-07-06T07:20:38.000Z</time>
      </trkpt>
      <trkpt lat="42.99789" lon="0.20244">
        <ele>736.59997558594</ele>
        <time>2020-07-06T07:20:42.000Z</time>
      </trkpt>
      <trkpt lat="42.99826" lon="0.20183">
        <ele>735.20001220703</ele>
        <time>2020-07-06T07:20:47.000Z</time>
      </trkpt>
      <trkpt lat="42.99849" lon="0.20146">
        <ele>733.79998779297</ele>
        <time>2020-07-06T07:20:50.000Z</time>
      </trkpt>
      <trkpt lat="42.99862" lon="0.20124">
        <ele>732.59997558594</ele>
        <time>2020-07-06T07:20:52.000Z</time>
      </trkpt>
      <trkpt lat="42.99884" lon="0.20087">
        <ele>731.40002441406</ele>
        <time>2020-07-06T07:20:55.000Z</time>
      </trkpt>
      <trkpt lat="42.99898" lon="0.20062">
        <ele>729.79998779297</ele>
        <time>2020-07-06T07:20:57.000Z</time>
      </trkpt>
      <trkpt lat="42.99911" lon="0.20038">
        <ele>728.79998779297</ele>
        <time>2020-07-06T07:20:59.000Z</time>
      </trkpt>
      <trkpt lat="42.9993" lon="0.20003">
        <ele>727.59997558594</ele>
        <time>2020-07-06T07:21:02.000Z</time>
      </trkpt>
      <trkpt lat="42.99953" lon="0.19956">
        <ele>726.40002441406</ele>
        <time>2020-07-06T07:21:06.000Z</time>
      </trkpt>
      <trkpt lat="42.99958" lon="0.19944">
        <ele>726.40002441406</ele>
        <time>2020-07-06T07:21:07.000Z</time>
      </trkpt>
      <trkpt lat="42.99991" lon="0.19875">
        <ele>725.59997558594</ele>
        <time>2020-07-06T07:21:13.000Z</time>
      </trkpt>
      <trkpt lat="43.00023" lon="0.19827">
        <ele>725.59997558594</ele>
        <time>2020-07-06T07:21:18.000Z</time>
      </trkpt>
      <trkpt lat="43.00053" lon="0.19766">
        <ele>726</ele>
        <time>2020-07-06T07:21:24.000Z</time>
      </trkpt>
      <trkpt lat="43.00064" lon="0.19731">
        <ele>725.79998779297</ele>
        <time>2020-07-06T07:21:27.000Z</time>
      </trkpt>
      <trkpt lat="43.00074" lon="0.1971">
        <ele>725.79998779297</ele>
        <time>2020-07-06T07:21:29.000Z</time>
      </trkpt>
      <trkpt lat="43.00088" lon="0.1969">
        <ele>725.40002441406</ele>
        <time>2020-07-06T07:21:31.000Z</time>
      </trkpt>
      <trkpt lat="43.0011" lon="0.19658">
        <ele>725</ele>
        <time>2020-07-06T07:21:34.000Z</time>
      </trkpt>
      <trkpt lat="43.00133" lon="0.19627">
        <ele>724.59997558594</ele>
        <time>2020-07-06T07:21:37.000Z</time>
      </trkpt>
      <trkpt lat="43.0014" lon="0.19616">
        <ele>723.79998779297</ele>
        <time>2020-07-06T07:21:38.000Z</time>
      </trkpt>
      <trkpt lat="43.00147" lon="0.19604">
        <ele>722.40002441406</ele>
        <time>2020-07-06T07:21:39.000Z</time>
      </trkpt>
      <trkpt lat="43.00151" lon="0.19591">
        <ele>721.59997558594</ele>
        <time>2020-07-06T07:21:40.000Z</time>
      </trkpt>
      <trkpt lat="43.00156" lon="0.19578">
        <ele>720.79998779297</ele>
        <time>2020-07-06T07:21:41.000Z</time>
      </trkpt>
      <trkpt lat="43.00163" lon="0.1955">
        <ele>720</ele>
        <time>2020-07-06T07:21:43.000Z</time>
      </trkpt>
      <trkpt lat="43.00171" lon="0.19523">
        <ele>719.59997558594</ele>
        <time>2020-07-06T07:21:45.000Z</time>
      </trkpt>
      <trkpt lat="43.00176" lon="0.19511">
        <ele>719.20001220703</ele>
        <time>2020-07-06T07:21:46.000Z</time>
      </trkpt>
      <trkpt lat="43.00188" lon="0.19487">
        <ele>718.79998779297</ele>
        <time>2020-07-06T07:21:48.000Z</time>
      </trkpt>
      <trkpt lat="43.00211" lon="0.19451">
        <ele>718.20001220703</ele>
        <time>2020-07-06T07:21:51.000Z</time>
      </trkpt>
      <trkpt lat="43.00226" lon="0.19428">
        <ele>716.59997558594</ele>
        <time>2020-07-06T07:21:53.000Z</time>
      </trkpt>
      <trkpt lat="43.00234" lon="0.19417">
        <ele>716</ele>
        <time>2020-07-06T07:21:54.000Z</time>
      </trkpt>
      <trkpt lat="43.00242" lon="0.19405">
        <ele>715.20001220703</ele>
        <time>2020-07-06T07:21:55.000Z</time>
      </trkpt>
      <trkpt lat="43.00257" lon="0.19381">
        <ele>714</ele>
        <time>2020-07-06T07:21:57.000Z</time>
      </trkpt>
      <trkpt lat="43.0028" lon="0.19346">
        <ele>712.59997558594</ele>
        <time>2020-07-06T07:22:00.000Z</time>
      </trkpt>
      <trkpt lat="43.00288" lon="0.19335">
        <ele>712.20001220703</ele>
        <time>2020-07-06T07:22:01.000Z</time>
      </trkpt>
      <trkpt lat="43.00305" lon="0.19314">
        <ele>711.20001220703</ele>
        <time>2020-07-06T07:22:03.000Z</time>
      </trkpt>
      <trkpt lat="43.0033" lon="0.1928">
        <ele>709.79998779297</ele>
        <time>2020-07-06T07:22:06.000Z</time>
      </trkpt>
      <trkpt lat="43.00347" lon="0.19257">
        <ele>708.79998779297</ele>
        <time>2020-07-06T07:22:08.000Z</time>
      </trkpt>
      <trkpt lat="43.0037" lon="0.19222">
        <ele>707.79998779297</ele>
        <time>2020-07-06T07:22:11.000Z</time>
      </trkpt>
      <trkpt lat="43.00401" lon="0.19176">
        <ele>706.79998779297</ele>
        <time>2020-07-06T07:22:15.000Z</time>
      </trkpt>
      <trkpt lat="43.00408" lon="0.19164">
        <ele>706.59997558594</ele>
        <time>2020-07-06T07:22:16.000Z</time>
      </trkpt>
      <trkpt lat="43.00436" lon="0.19116">
        <ele>705.59997558594</ele>
        <time>2020-07-06T07:22:20.000Z</time>
      </trkpt>
      <trkpt lat="43.0045" lon="0.19094">
        <ele>705</ele>
        <time>2020-07-06T07:22:22.000Z</time>
      </trkpt>
      <trkpt lat="43.00458" lon="0.19083">
        <ele>704.40002441406</ele>
        <time>2020-07-06T07:22:23.000Z</time>
      </trkpt>
      <trkpt lat="43.0049" lon="0.19048">
        <ele>703.79998779297</ele>
        <time>2020-07-06T07:22:27.000Z</time>
      </trkpt>
      <trkpt lat="43.00521" lon="0.19014">
        <ele>703.40002441406</ele>
        <time>2020-07-06T07:22:31.000Z</time>
      </trkpt>
      <trkpt lat="43.00534" lon="0.18995">
        <ele>703.40002441406</ele>
        <time>2020-07-06T07:22:33.000Z</time>
      </trkpt>
      <trkpt lat="43.0054" lon="0.18985">
        <ele>703.40002441406</ele>
        <time>2020-07-06T07:22:34.000Z</time>
      </trkpt>
      <trkpt lat="43.00551" lon="0.18964">
        <ele>703.40002441406</ele>
        <time>2020-07-06T07:22:36.000Z</time>
      </trkpt>
      <trkpt lat="43.00586" lon="0.18905">
        <ele>703.59997558594</ele>
        <time>2020-07-06T07:22:42.000Z</time>
      </trkpt>
      <trkpt lat="43.00593" lon="0.18896">
        <ele>703.59997558594</ele>
        <time>2020-07-06T07:22:43.000Z</time>
      </trkpt>
      <trkpt lat="43.00607" lon="0.18879">
        <ele>703.59997558594</ele>
        <time>2020-07-06T07:22:45.000Z</time>
      </trkpt>
      <trkpt lat="43.00631" lon="0.18855">
        <ele>703.20001220703</ele>
        <time>2020-07-06T07:22:48.000Z</time>
      </trkpt>
      <trkpt lat="43.00658" lon="0.18831">
        <ele>702</ele>
        <time>2020-07-06T07:22:51.000Z</time>
      </trkpt>
      <trkpt lat="43.00685" lon="0.18807">
        <ele>700.59997558594</ele>
        <time>2020-07-06T07:22:54.000Z</time>
      </trkpt>
      <trkpt lat="43.00713" lon="0.18782">
        <ele>699.20001220703</ele>
        <time>2020-07-06T07:22:57.000Z</time>
      </trkpt>
      <trkpt lat="43.00731" lon="0.18764">
        <ele>698.20001220703</ele>
        <time>2020-07-06T07:22:59.000Z</time>
      </trkpt>
      <trkpt lat="43.00758" lon="0.18737">
        <ele>696.79998779297</ele>
        <time>2020-07-06T07:23:02.000Z</time>
      </trkpt>
      <trkpt lat="43.00776" lon="0.18717">
        <ele>695.79998779297</ele>
        <time>2020-07-06T07:23:04.000Z</time>
      </trkpt>
      <trkpt lat="43.00794" lon="0.18698">
        <ele>694.79998779297</ele>
        <time>2020-07-06T07:23:06.000Z</time>
      </trkpt>
      <trkpt lat="43.00803" lon="0.18688">
        <ele>694.20001220703</ele>
        <time>2020-07-06T07:23:07.000Z</time>
      </trkpt>
      <trkpt lat="43.00821" lon="0.18669">
        <ele>693.40002441406</ele>
        <time>2020-07-06T07:23:09.000Z</time>
      </trkpt>
      <trkpt lat="43.00839" lon="0.1865">
        <ele>692.40002441406</ele>
        <time>2020-07-06T07:23:11.000Z</time>
      </trkpt>
      <trkpt lat="43.00866" lon="0.1862">
        <ele>690.79998779297</ele>
        <time>2020-07-06T07:23:14.000Z</time>
      </trkpt>
      <trkpt lat="43.00903" lon="0.1858">
        <ele>689.40002441406</ele>
        <time>2020-07-06T07:23:18.000Z</time>
      </trkpt>
      <trkpt lat="43.0093" lon="0.18549">
        <ele>687.79998779297</ele>
        <time>2020-07-06T07:23:21.000Z</time>
      </trkpt>
      <trkpt lat="43.00963" lon="0.18507">
        <ele>686.40002441406</ele>
        <time>2020-07-06T07:23:25.000Z</time>
      </trkpt>
      <trkpt lat="43.0098" lon="0.18485">
        <ele>686</ele>
        <time>2020-07-06T07:23:27.000Z</time>
      </trkpt>
      <trkpt lat="43.00997" lon="0.18462">
        <ele>685.40002441406</ele>
        <time>2020-07-06T07:23:29.000Z</time>
      </trkpt>
      <trkpt lat="43.01029" lon="0.18418">
        <ele>683.79998779297</ele>
        <time>2020-07-06T07:23:33.000Z</time>
      </trkpt>
      <trkpt lat="43.01062" lon="0.18375">
        <ele>682.40002441406</ele>
        <time>2020-07-06T07:23:37.000Z</time>
      </trkpt>
      <trkpt lat="43.0107" lon="0.18364">
        <ele>682.20001220703</ele>
        <time>2020-07-06T07:23:38.000Z</time>
      </trkpt>
      <trkpt lat="43.01086" lon="0.18341">
        <ele>681.20001220703</ele>
        <time>2020-07-06T07:23:40.000Z</time>
      </trkpt>
      <trkpt lat="43.01123" lon="0.18289">
        <ele>680.20001220703</ele>
        <time>2020-07-06T07:23:45.000Z</time>
      </trkpt>
      <trkpt lat="43.01133" lon="0.18276">
        <ele>680</ele>
        <time>2020-07-06T07:23:46.000Z</time>
      </trkpt>
      <trkpt lat="43.01159" lon="0.18246">
        <ele>678.79998779297</ele>
        <time>2020-07-06T07:23:49.000Z</time>
      </trkpt>
      <trkpt lat="43.01193" lon="0.18207">
        <ele>677.40002441406</ele>
        <time>2020-07-06T07:23:53.000Z</time>
      </trkpt>
      <trkpt lat="43.01202" lon="0.18197">
        <ele>677.20001220703</ele>
        <time>2020-07-06T07:23:54.000Z</time>
      </trkpt>
      <trkpt lat="43.01231" lon="0.18152">
        <ele>676.79998779297</ele>
        <time>2020-07-06T07:23:58.000Z</time>
      </trkpt>
      <trkpt lat="43.01244" lon="0.18127">
        <ele>676.40002441406</ele>
        <time>2020-07-06T07:24:00.000Z</time>
      </trkpt>
      <trkpt lat="43.01266" lon="0.18092">
        <ele>675.20001220703</ele>
        <time>2020-07-06T07:24:03.000Z</time>
      </trkpt>
      <trkpt lat="43.0129" lon="0.18059">
        <ele>674.79998779297</ele>
        <time>2020-07-06T07:24:06.000Z</time>
      </trkpt>
      <trkpt lat="43.01308" lon="0.1804">
        <ele>673.79998779297</ele>
        <time>2020-07-06T07:24:08.000Z</time>
      </trkpt>
      <trkpt lat="43.01345" lon="0.18006">
        <ele>672.40002441406</ele>
        <time>2020-07-06T07:24:12.000Z</time>
      </trkpt>
      <trkpt lat="43.01354" lon="0.17998">
        <ele>672</ele>
        <time>2020-07-06T07:24:13.000Z</time>
      </trkpt>
      <trkpt lat="43.01372" lon="0.17982">
        <ele>671.20001220703</ele>
        <time>2020-07-06T07:24:15.000Z</time>
      </trkpt>
      <trkpt lat="43.01407" lon="0.1795">
        <ele>670.20001220703</ele>
        <time>2020-07-06T07:24:19.000Z</time>
      </trkpt>
      <trkpt lat="43.01424" lon="0.17935">
        <ele>669.40002441406</ele>
        <time>2020-07-06T07:24:21.000Z</time>
      </trkpt>
      <trkpt lat="43.01441" lon="0.1792">
        <ele>669</ele>
        <time>2020-07-06T07:24:23.000Z</time>
      </trkpt>
      <trkpt lat="43.01458" lon="0.17906">
        <ele>668.59997558594</ele>
        <time>2020-07-06T07:24:25.000Z</time>
      </trkpt>
      <trkpt lat="43.01483" lon="0.17884">
        <ele>667.79998779297</ele>
        <time>2020-07-06T07:24:28.000Z</time>
      </trkpt>
      <trkpt lat="43.01491" lon="0.17877">
        <ele>667.59997558594</ele>
        <time>2020-07-06T07:24:29.000Z</time>
      </trkpt>
      <trkpt lat="43.01499" lon="0.17871">
        <ele>667.59997558594</ele>
        <time>2020-07-06T07:24:30.000Z</time>
      </trkpt>
      <trkpt lat="43.01523" lon="0.17854">
        <ele>666.59997558594</ele>
        <time>2020-07-06T07:24:33.000Z</time>
      </trkpt>
      <trkpt lat="43.01529" lon="0.1785">
        <ele>666.59997558594</ele>
        <time>2020-07-06T07:24:34.000Z</time>
      </trkpt>
      <trkpt lat="43.01536" lon="0.17847">
        <ele>666.20001220703</ele>
        <time>2020-07-06T07:24:35.000Z</time>
      </trkpt>
      <trkpt lat="43.01541" lon="0.17844">
        <ele>665.79998779297</ele>
        <time>2020-07-06T07:24:36.000Z</time>
      </trkpt>
      <trkpt lat="43.01547" lon="0.17839">
        <ele>665.59997558594</ele>
        <time>2020-07-06T07:24:37.000Z</time>
      </trkpt>
      <trkpt lat="43.01557" lon="0.17831">
        <ele>665.40002441406</ele>
        <time>2020-07-06T07:24:39.000Z</time>
      </trkpt>
      <trkpt lat="43.0156" lon="0.17828">
        <ele>665.20001220703</ele>
        <time>2020-07-06T07:24:40.000Z</time>
      </trkpt>
      <trkpt lat="43.01563" lon="0.17829">
        <ele>665.20001220703</ele>
        <time>2020-07-06T07:24:41.000Z</time>
      </trkpt>
      <trkpt lat="43.01568" lon="0.17839">
        <ele>665</ele>
        <time>2020-07-06T07:24:43.000Z</time>
      </trkpt>
      <trkpt lat="43.01571" lon="0.17848">
        <ele>665</ele>
        <time>2020-07-06T07:24:45.000Z</time>
      </trkpt>
      <trkpt lat="43.01581" lon="0.17866">
        <ele>665</ele>
        <time>2020-07-06T07:24:50.000Z</time>
      </trkpt>
      <trkpt lat="43.01599" lon="0.17896">
        <ele>665</ele>
        <time>2020-07-06T07:24:56.000Z</time>
      </trkpt>
      <trkpt lat="43.01625" lon="0.17942">
        <ele>665</ele>
        <time>2020-07-06T07:25:03.000Z</time>
      </trkpt>
      <trkpt lat="43.01633" lon="0.17955">
        <ele>664.79998779297</ele>
        <time>2020-07-06T07:25:05.000Z</time>
      </trkpt>
      <trkpt lat="43.01639" lon="0.17958">
        <ele>664.59997558594</ele>
        <time>2020-07-06T07:25:06.000Z</time>
      </trkpt>
      <trkpt lat="43.01645" lon="0.1796">
        <ele>664.59997558594</ele>
        <time>2020-07-06T07:25:07.000Z</time>
      </trkpt>
      <trkpt lat="43.01655" lon="0.17954">
        <ele>664.20001220703</ele>
        <time>2020-07-06T07:25:09.000Z</time>
      </trkpt>
      <trkpt lat="43.01674" lon="0.17935">
        <ele>663.79998779297</ele>
        <time>2020-07-06T07:25:13.000Z</time>
      </trkpt>
      <trkpt lat="43.01678" lon="0.17929">
        <ele>663.79998779297</ele>
        <time>2020-07-06T07:25:14.000Z</time>
      </trkpt>
      <trkpt lat="43.01687" lon="0.17917">
        <ele>663.59997558594</ele>
        <time>2020-07-06T07:25:16.000Z</time>
      </trkpt>
      <trkpt lat="43.01696" lon="0.17906">
        <ele>663.59997558594</ele>
        <time>2020-07-06T07:25:18.000Z</time>
      </trkpt>
      <trkpt lat="43.017" lon="0.179">
        <ele>663.59997558594</ele>
        <time>2020-07-06T07:25:19.000Z</time>
      </trkpt>
      <trkpt lat="43.01705" lon="0.17894">
        <ele>663.40002441406</ele>
        <time>2020-07-06T07:25:20.000Z</time>
      </trkpt>
      <trkpt lat="43.01728" lon="0.17875">
        <ele>663</ele>
        <time>2020-07-06T07:25:24.000Z</time>
      </trkpt>
      <trkpt lat="43.01735" lon="0.17871">
        <ele>662.79998779297</ele>
        <time>2020-07-06T07:25:25.000Z</time>
      </trkpt>
      <trkpt lat="43.01743" lon="0.17867">
        <ele>662.79998779297</ele>
        <time>2020-07-06T07:25:26.000Z</time>
      </trkpt>
      <trkpt lat="43.01751" lon="0.17862">
        <ele>662.40002441406</ele>
        <time>2020-07-06T07:25:27.000Z</time>
      </trkpt>
      <trkpt lat="43.01758" lon="0.17857">
        <ele>662.40002441406</ele>
        <time>2020-07-06T07:25:28.000Z</time>
      </trkpt>
      <trkpt lat="43.01776" lon="0.17839">
        <ele>661.79998779297</ele>
        <time>2020-07-06T07:25:31.000Z</time>
      </trkpt>
      <trkpt lat="43.01783" lon="0.17832">
        <ele>661.59997558594</ele>
        <time>2020-07-06T07:25:32.000Z</time>
      </trkpt>
      <trkpt lat="43.01803" lon="0.17817">
        <ele>661.20001220703</ele>
        <time>2020-07-06T07:25:35.000Z</time>
      </trkpt>
      <trkpt lat="43.01818" lon="0.17809">
        <ele>660.40002441406</ele>
        <time>2020-07-06T07:25:37.000Z</time>
      </trkpt>
      <trkpt lat="43.0184" lon="0.17798">
        <ele>660</ele>
        <time>2020-07-06T07:25:40.000Z</time>
      </trkpt>
      <trkpt lat="43.01856" lon="0.1779">
        <ele>659.79998779297</ele>
        <time>2020-07-06T07:25:42.000Z</time>
      </trkpt>
      <trkpt lat="43.01871" lon="0.1779">
        <ele>659.40002441406</ele>
        <time>2020-07-06T07:25:44.000Z</time>
      </trkpt>
      <trkpt lat="43.01911" lon="0.17809">
        <ele>658.59997558594</ele>
        <time>2020-07-06T07:25:49.000Z</time>
      </trkpt>
      <trkpt lat="43.01929" lon="0.17817">
        <ele>657.79998779297</ele>
        <time>2020-07-06T07:25:51.000Z</time>
      </trkpt>
      <trkpt lat="43.01938" lon="0.17821">
        <ele>657.59997558594</ele>
        <time>2020-07-06T07:25:52.000Z</time>
      </trkpt>
      <trkpt lat="43.01945" lon="0.17829">
        <ele>656.79998779297</ele>
        <time>2020-07-06T07:25:53.000Z</time>
      </trkpt>
      <trkpt lat="43.01957" lon="0.17841">
        <ele>655.40002441406</ele>
        <time>2020-07-06T07:25:55.000Z</time>
      </trkpt>
      <trkpt lat="43.01964" lon="0.17845">
        <ele>654.59997558594</ele>
        <time>2020-07-06T07:25:56.000Z</time>
      </trkpt>
      <trkpt lat="43.01971" lon="0.17844">
        <ele>653.79998779297</ele>
        <time>2020-07-06T07:25:57.000Z</time>
      </trkpt>
      <trkpt lat="43.01975" lon="0.17839">
        <ele>653.40002441406</ele>
        <time>2020-07-06T07:25:58.000Z</time>
      </trkpt>
      <trkpt lat="43.01994" lon="0.1781">
        <ele>652.59997558594</ele>
        <time>2020-07-06T07:26:02.000Z</time>
      </trkpt>
      <trkpt lat="43.02003" lon="0.17797">
        <ele>652.40002441406</ele>
        <time>2020-07-06T07:26:04.000Z</time>
      </trkpt>
      <trkpt lat="43.02043" lon="0.17746">
        <ele>651.59997558594</ele>
        <time>2020-07-06T07:26:11.000Z</time>
      </trkpt>
      <trkpt lat="43.02049" lon="0.17739">
        <ele>651.40002441406</ele>
        <time>2020-07-06T07:26:12.000Z</time>
      </trkpt>
      <trkpt lat="43.02055" lon="0.17731">
        <ele>651</ele>
        <time>2020-07-06T07:26:13.000Z</time>
      </trkpt>
      <trkpt lat="43.02071" lon="0.17706">
        <ele>650.59997558594</ele>
        <time>2020-07-06T07:26:16.000Z</time>
      </trkpt>
      <trkpt lat="43.02077" lon="0.17698">
        <ele>650.59997558594</ele>
        <time>2020-07-06T07:26:17.000Z</time>
      </trkpt>
      <trkpt lat="43.02083" lon="0.17692">
        <ele>650.40002441406</ele>
        <time>2020-07-06T07:26:18.000Z</time>
      </trkpt>
      <trkpt lat="43.02099" lon="0.17681">
        <ele>650</ele>
        <time>2020-07-06T07:26:20.000Z</time>
      </trkpt>
      <trkpt lat="43.02121" lon="0.17665">
        <ele>649.59997558594</ele>
        <time>2020-07-06T07:26:23.000Z</time>
      </trkpt>
      <trkpt lat="43.02137" lon="0.17656">
        <ele>649.40002441406</ele>
        <time>2020-07-06T07:26:25.000Z</time>
      </trkpt>
      <trkpt lat="43.02155" lon="0.17646">
        <ele>649.20001220703</ele>
        <time>2020-07-06T07:26:27.000Z</time>
      </trkpt>
      <trkpt lat="43.02178" lon="0.17633">
        <ele>648.40002441406</ele>
        <time>2020-07-06T07:26:30.000Z</time>
      </trkpt>
      <trkpt lat="43.02188" lon="0.17629">
        <ele>648</ele>
        <time>2020-07-06T07:26:31.000Z</time>
      </trkpt>
      <trkpt lat="43.02226" lon="0.17618">
        <ele>647</ele>
        <time>2020-07-06T07:26:35.000Z</time>
      </trkpt>
      <trkpt lat="43.02235" lon="0.17614">
        <ele>646.79998779297</ele>
        <time>2020-07-06T07:26:36.000Z</time>
      </trkpt>
      <trkpt lat="43.02266" lon="0.17597">
        <ele>645.79998779297</ele>
        <time>2020-07-06T07:26:39.000Z</time>
      </trkpt>
      <trkpt lat="43.02275" lon="0.1759">
        <ele>645.59997558594</ele>
        <time>2020-07-06T07:26:40.000Z</time>
      </trkpt>
      <trkpt lat="43.0231" lon="0.17565">
        <ele>644.20001220703</ele>
        <time>2020-07-06T07:26:44.000Z</time>
      </trkpt>
      <trkpt lat="43.02341" lon="0.17547">
        <ele>643</ele>
        <time>2020-07-06T07:26:48.000Z</time>
      </trkpt>
      <trkpt lat="43.02379" lon="0.17526">
        <ele>643.40002441406</ele>
        <time>2020-07-06T07:26:53.000Z</time>
      </trkpt>
      <trkpt lat="43.02399" lon="0.17513">
        <ele>644</ele>
        <time>2020-07-06T07:26:56.000Z</time>
      </trkpt>
      <trkpt lat="43.02406" lon="0.1751">
        <ele>644.20001220703</ele>
        <time>2020-07-06T07:26:57.000Z</time>
      </trkpt>
      <trkpt lat="43.02412" lon="0.17508">
        <ele>644.59997558594</ele>
        <time>2020-07-06T07:26:58.000Z</time>
      </trkpt>
      <trkpt lat="43.02427" lon="0.17503">
        <ele>645.40002441406</ele>
        <time>2020-07-06T07:27:00.000Z</time>
      </trkpt>
      <trkpt lat="43.02446" lon="0.17499">
        <ele>646.59997558594</ele>
        <time>2020-07-06T07:27:03.000Z</time>
      </trkpt>
      <trkpt lat="43.02453" lon="0.17498">
        <ele>647</ele>
        <time>2020-07-06T07:27:04.000Z</time>
      </trkpt>
      <trkpt lat="43.02462" lon="0.17496">
        <ele>647.79998779297</ele>
        <time>2020-07-06T07:27:06.000Z</time>
      </trkpt>
      <trkpt lat="43.02468" lon="0.17496">
        <ele>648.20001220703</ele>
        <time>2020-07-06T07:27:07.000Z</time>
      </trkpt>
      <trkpt lat="43.02474" lon="0.17494">
        <ele>648.79998779297</ele>
        <time>2020-07-06T07:27:08.000Z</time>
      </trkpt>
      <trkpt lat="43.02494" lon="0.1749">
        <ele>649.79998779297</ele>
        <time>2020-07-06T07:27:11.000Z</time>
      </trkpt>
      <trkpt lat="43.02507" lon="0.17486">
        <ele>650.79998779297</ele>
        <time>2020-07-06T07:27:13.000Z</time>
      </trkpt>
      <trkpt lat="43.02513" lon="0.17483">
        <ele>651.20001220703</ele>
        <time>2020-07-06T07:27:14.000Z</time>
      </trkpt>
      <trkpt lat="43.02526" lon="0.17477">
        <ele>652</ele>
        <time>2020-07-06T07:27:16.000Z</time>
      </trkpt>
      <trkpt lat="43.02532" lon="0.17475">
        <ele>652.59997558594</ele>
        <time>2020-07-06T07:27:17.000Z</time>
      </trkpt>
      <trkpt lat="43.02557" lon="0.17464">
        <ele>653.79998779297</ele>
        <time>2020-07-06T07:27:21.000Z</time>
      </trkpt>
      <trkpt lat="43.0257" lon="0.17459">
        <ele>654.20001220703</ele>
        <time>2020-07-06T07:27:23.000Z</time>
      </trkpt>
      <trkpt lat="43.02595" lon="0.17449">
        <ele>655.20001220703</ele>
        <time>2020-07-06T07:27:27.000Z</time>
      </trkpt>
      <trkpt lat="43.02625" lon="0.17435">
        <ele>656.40002441406</ele>
        <time>2020-07-06T07:27:32.000Z</time>
      </trkpt>
      <trkpt lat="43.02632" lon="0.17431">
        <ele>657</ele>
        <time>2020-07-06T07:27:33.000Z</time>
      </trkpt>
      <trkpt lat="43.02641" lon="0.1742">
        <ele>657.40002441406</ele>
        <time>2020-07-06T07:27:35.000Z</time>
      </trkpt>
      <trkpt lat="43.02646" lon="0.17415">
        <ele>657.59997558594</ele>
        <time>2020-07-06T07:27:36.000Z</time>
      </trkpt>
      <trkpt lat="43.0265" lon="0.17409">
        <ele>657.79998779297</ele>
        <time>2020-07-06T07:27:37.000Z</time>
      </trkpt>
      <trkpt lat="43.02665" lon="0.17396">
        <ele>658.40002441406</ele>
        <time>2020-07-06T07:27:40.000Z</time>
      </trkpt>
      <trkpt lat="43.02677" lon="0.17391">
        <ele>658.59997558594</ele>
        <time>2020-07-06T07:27:42.000Z</time>
      </trkpt>
      <trkpt lat="43.02697" lon="0.17387">
        <ele>659</ele>
        <time>2020-07-06T07:27:45.000Z</time>
      </trkpt>
      <trkpt lat="43.02745" lon="0.17386">
        <ele>659.40002441406</ele>
        <time>2020-07-06T07:27:52.000Z</time>
      </trkpt>
      <trkpt lat="43.02799" lon="0.17386">
        <ele>659.20001220703</ele>
        <time>2020-07-06T07:27:59.000Z</time>
      </trkpt>
      <trkpt lat="43.02815" lon="0.17386">
        <ele>658.79998779297</ele>
        <time>2020-07-06T07:28:01.000Z</time>
      </trkpt>
      <trkpt lat="43.0284" lon="0.17382">
        <ele>658.20001220703</ele>
        <time>2020-07-06T07:28:04.000Z</time>
      </trkpt>
      <trkpt lat="43.02873" lon="0.17371">
        <ele>657.40002441406</ele>
        <time>2020-07-06T07:28:08.000Z</time>
      </trkpt>
      <trkpt lat="43.02897" lon="0.17362">
        <ele>657</ele>
        <time>2020-07-06T07:28:11.000Z</time>
      </trkpt>
      <trkpt lat="43.02906" lon="0.1736">
        <ele>657</ele>
        <time>2020-07-06T07:28:12.000Z</time>
      </trkpt>
      <trkpt lat="43.0293" lon="0.17359">
        <ele>656.79998779297</ele>
        <time>2020-07-06T07:28:15.000Z</time>
      </trkpt>
      <trkpt lat="43.02946" lon="0.17356">
        <ele>656.59997558594</ele>
        <time>2020-07-06T07:28:17.000Z</time>
      </trkpt>
      <trkpt lat="43.02955" lon="0.17353">
        <ele>656.40002441406</ele>
        <time>2020-07-06T07:28:18.000Z</time>
      </trkpt>
      <trkpt lat="43.02971" lon="0.17345">
        <ele>656</ele>
        <time>2020-07-06T07:28:20.000Z</time>
      </trkpt>
      <trkpt lat="43.03007" lon="0.17322">
        <ele>655.20001220703</ele>
        <time>2020-07-06T07:28:24.000Z</time>
      </trkpt>
      <trkpt lat="43.03022" lon="0.17312">
        <ele>654.79998779297</ele>
        <time>2020-07-06T07:28:26.000Z</time>
      </trkpt>
      <trkpt lat="43.0304" lon="0.17302">
        <ele>654.40002441406</ele>
        <time>2020-07-06T07:28:28.000Z</time>
      </trkpt>
      <trkpt lat="43.03048" lon="0.17295">
        <ele>654</ele>
        <time>2020-07-06T07:28:29.000Z</time>
      </trkpt>
      <trkpt lat="43.03081" lon="0.17272">
        <ele>653</ele>
        <time>2020-07-06T07:28:33.000Z</time>
      </trkpt>
      <trkpt lat="43.03099" lon="0.1726">
        <ele>652.59997558594</ele>
        <time>2020-07-06T07:28:35.000Z</time>
      </trkpt>
      <trkpt lat="43.03117" lon="0.1725">
        <ele>651.79998779297</ele>
        <time>2020-07-06T07:28:37.000Z</time>
      </trkpt>
      <trkpt lat="43.03146" lon="0.17233">
        <ele>651.40002441406</ele>
        <time>2020-07-06T07:28:40.000Z</time>
      </trkpt>
      <trkpt lat="43.03165" lon="0.17221">
        <ele>650.59997558594</ele>
        <time>2020-07-06T07:28:42.000Z</time>
      </trkpt>
      <trkpt lat="43.03184" lon="0.17209">
        <ele>649</ele>
        <time>2020-07-06T07:28:44.000Z</time>
      </trkpt>
      <trkpt lat="43.03204" lon="0.17197">
        <ele>648.40002441406</ele>
        <time>2020-07-06T07:28:46.000Z</time>
      </trkpt>
      <trkpt lat="43.03214" lon="0.17191">
        <ele>648</ele>
        <time>2020-07-06T07:28:47.000Z</time>
      </trkpt>
      <trkpt lat="43.03234" lon="0.17179">
        <ele>646.79998779297</ele>
        <time>2020-07-06T07:28:49.000Z</time>
      </trkpt>
      <trkpt lat="43.03253" lon="0.17163">
        <ele>645.40002441406</ele>
        <time>2020-07-06T07:28:51.000Z</time>
      </trkpt>
      <trkpt lat="43.03271" lon="0.17145">
        <ele>644</ele>
        <time>2020-07-06T07:28:53.000Z</time>
      </trkpt>
      <trkpt lat="43.033" lon="0.17123">
        <ele>642.79998779297</ele>
        <time>2020-07-06T07:28:56.000Z</time>
      </trkpt>
      <trkpt lat="43.03311" lon="0.17116">
        <ele>642.20001220703</ele>
        <time>2020-07-06T07:28:57.000Z</time>
      </trkpt>
      <trkpt lat="43.03321" lon="0.1711">
        <ele>641.59997558594</ele>
        <time>2020-07-06T07:28:58.000Z</time>
      </trkpt>
      <trkpt lat="43.03342" lon="0.17096">
        <ele>640.59997558594</ele>
        <time>2020-07-06T07:29:00.000Z</time>
      </trkpt>
      <trkpt lat="43.03374" lon="0.17075">
        <ele>639.40002441406</ele>
        <time>2020-07-06T07:29:03.000Z</time>
      </trkpt>
      <trkpt lat="43.03384" lon="0.17066">
        <ele>638.59997558594</ele>
        <time>2020-07-06T07:29:04.000Z</time>
      </trkpt>
      <trkpt lat="43.03395" lon="0.17057">
        <ele>637.79998779297</ele>
        <time>2020-07-06T07:29:05.000Z</time>
      </trkpt>
      <trkpt lat="43.03416" lon="0.1704">
        <ele>636.79998779297</ele>
        <time>2020-07-06T07:29:07.000Z</time>
      </trkpt>
      <trkpt lat="43.03439" lon="0.17025">
        <ele>635.40002441406</ele>
        <time>2020-07-06T07:29:09.000Z</time>
      </trkpt>
      <trkpt lat="43.0345" lon="0.17018">
        <ele>635</ele>
        <time>2020-07-06T07:29:10.000Z</time>
      </trkpt>
      <trkpt lat="43.03461" lon="0.17011">
        <ele>634.40002441406</ele>
        <time>2020-07-06T07:29:11.000Z</time>
      </trkpt>
      <trkpt lat="43.03484" lon="0.16998">
        <ele>633.40002441406</ele>
        <time>2020-07-06T07:29:13.000Z</time>
      </trkpt>
      <trkpt lat="43.03508" lon="0.16985">
        <ele>632.40002441406</ele>
        <time>2020-07-06T07:29:15.000Z</time>
      </trkpt>
      <trkpt lat="43.03531" lon="0.16972">
        <ele>631</ele>
        <time>2020-07-06T07:29:17.000Z</time>
      </trkpt>
      <trkpt lat="43.03542" lon="0.16963">
        <ele>630</ele>
        <time>2020-07-06T07:29:18.000Z</time>
      </trkpt>
      <trkpt lat="43.03562" lon="0.16943">
        <ele>629</ele>
        <time>2020-07-06T07:29:20.000Z</time>
      </trkpt>
      <trkpt lat="43.03573" lon="0.16934">
        <ele>628.20001220703</ele>
        <time>2020-07-06T07:29:21.000Z</time>
      </trkpt>
      <trkpt lat="43.03584" lon="0.16926">
        <ele>627.59997558594</ele>
        <time>2020-07-06T07:29:22.000Z</time>
      </trkpt>
      <trkpt lat="43.03596" lon="0.1692">
        <ele>627</ele>
        <time>2020-07-06T07:29:23.000Z</time>
      </trkpt>
      <trkpt lat="43.03608" lon="0.16917">
        <ele>627</ele>
        <time>2020-07-06T07:29:24.000Z</time>
      </trkpt>
      <trkpt lat="43.03621" lon="0.16914">
        <ele>626.20001220703</ele>
        <time>2020-07-06T07:29:25.000Z</time>
      </trkpt>
      <trkpt lat="43.03634" lon="0.16912">
        <ele>625.20001220703</ele>
        <time>2020-07-06T07:29:26.000Z</time>
      </trkpt>
      <trkpt lat="43.03658" lon="0.16905">
        <ele>624.20001220703</ele>
        <time>2020-07-06T07:29:28.000Z</time>
      </trkpt>
      <trkpt lat="43.03683" lon="0.16897">
        <ele>623.20001220703</ele>
        <time>2020-07-06T07:29:30.000Z</time>
      </trkpt>
      <trkpt lat="43.03695" lon="0.16893">
        <ele>622.79998779297</ele>
        <time>2020-07-06T07:29:31.000Z</time>
      </trkpt>
      <trkpt lat="43.03719" lon="0.16884">
        <ele>621.40002441406</ele>
        <time>2020-07-06T07:29:33.000Z</time>
      </trkpt>
      <trkpt lat="43.03744" lon="0.16878">
        <ele>620</ele>
        <time>2020-07-06T07:29:35.000Z</time>
      </trkpt>
      <trkpt lat="43.03756" lon="0.16874">
        <ele>619.59997558594</ele>
        <time>2020-07-06T07:29:36.000Z</time>
      </trkpt>
      <trkpt lat="43.03768" lon="0.16868">
        <ele>619</ele>
        <time>2020-07-06T07:29:37.000Z</time>
      </trkpt>
      <trkpt lat="43.0378" lon="0.1686">
        <ele>618.79998779297</ele>
        <time>2020-07-06T07:29:38.000Z</time>
      </trkpt>
      <trkpt lat="43.03791" lon="0.16851">
        <ele>618.20001220703</ele>
        <time>2020-07-06T07:29:39.000Z</time>
      </trkpt>
      <trkpt lat="43.03801" lon="0.16842">
        <ele>617.59997558594</ele>
        <time>2020-07-06T07:29:40.000Z</time>
      </trkpt>
      <trkpt lat="43.03824" lon="0.16827">
        <ele>616.40002441406</ele>
        <time>2020-07-06T07:29:42.000Z</time>
      </trkpt>
      <trkpt lat="43.03835" lon="0.16822">
        <ele>615.79998779297</ele>
        <time>2020-07-06T07:29:43.000Z</time>
      </trkpt>
      <trkpt lat="43.03847" lon="0.1682">
        <ele>615</ele>
        <time>2020-07-06T07:29:44.000Z</time>
      </trkpt>
      <trkpt lat="43.0387" lon="0.16818">
        <ele>614.59997558594</ele>
        <time>2020-07-06T07:29:46.000Z</time>
      </trkpt>
      <trkpt lat="43.03881" lon="0.16817">
        <ele>614.20001220703</ele>
        <time>2020-07-06T07:29:47.000Z</time>
      </trkpt>
      <trkpt lat="43.03941" lon="0.16812">
        <ele>613.40002441406</ele>
        <time>2020-07-06T07:29:53.000Z</time>
      </trkpt>
      <trkpt lat="43.03968" lon="0.16813">
        <ele>613.40002441406</ele>
        <time>2020-07-06T07:29:57.000Z</time>
      </trkpt>
      <trkpt lat="43.03981" lon="0.16815">
        <ele>613.40002441406</ele>
        <time>2020-07-06T07:29:59.000Z</time>
      </trkpt>
      <trkpt lat="43.03999" lon="0.16813">
        <ele>613.40002441406</ele>
        <time>2020-07-06T07:30:02.000Z</time>
      </trkpt>
      <trkpt lat="43.04016" lon="0.16808">
        <ele>613.79998779297</ele>
        <time>2020-07-06T07:30:06.000Z</time>
      </trkpt>
      <trkpt lat="43.0402" lon="0.16806">
        <ele>614</ele>
        <time>2020-07-06T07:30:09.000Z</time>
      </trkpt>
      <trkpt lat="43.04021" lon="0.16806">
        <ele>614</ele>
        <time>2020-07-06T07:30:10.000Z</time>
      </trkpt>
      <trkpt lat="43.04029" lon="0.16803">
        <ele>614</ele>
        <time>2020-07-06T07:30:19.000Z</time>
      </trkpt>
      <trkpt lat="43.04038" lon="0.16804">
        <ele>614</ele>
        <time>2020-07-06T07:30:25.000Z</time>
      </trkpt>
      <trkpt lat="43.04041" lon="0.16803">
        <ele>613.79998779297</ele>
        <time>2020-07-06T07:30:54.000Z</time>
      </trkpt>
      <trkpt lat="43.04043" lon="0.16802">
        <ele>613.79998779297</ele>
        <time>2020-07-06T07:30:55.000Z</time>
      </trkpt>
      <trkpt lat="43.04056" lon="0.16797">
        <ele>613.79998779297</ele>
        <time>2020-07-06T07:31:00.000Z</time>
      </trkpt>
      <trkpt lat="43.04059" lon="0.16797">
        <ele>613.79998779297</ele>
        <time>2020-07-06T07:31:03.000Z</time>
      </trkpt>
      <trkpt lat="43.04062" lon="0.16797">
        <ele>613.79998779297</ele>
        <time>2020-07-06T07:31:05.000Z</time>
      </trkpt>
      <trkpt lat="43.04063" lon="0.16796">
        <ele>613.79998779297</ele>
        <time>2020-07-06T07:31:06.000Z</time>
      </trkpt>
      <trkpt lat="43.04068" lon="0.16795">
        <ele>613.79998779297</ele>
        <time>2020-07-06T07:31:09.000Z</time>
      </trkpt>
      <trkpt lat="43.04072" lon="0.16792">
        <ele>613.79998779297</ele>
        <time>2020-07-06T07:31:11.000Z</time>
      </trkpt>
      <trkpt lat="43.0408" lon="0.16789">
        <ele>613.59997558594</ele>
        <time>2020-07-06T07:31:13.000Z</time>
      </trkpt>
      <trkpt lat="43.041" lon="0.16783">
        <ele>613.59997558594</ele>
        <time>2020-07-06T07:31:17.000Z</time>
      </trkpt>
      <trkpt lat="43.04106" lon="0.16782">
        <ele>613.20001220703</ele>
        <time>2020-07-06T07:31:18.000Z</time>
      </trkpt>
      <trkpt lat="43.04112" lon="0.16782">
        <ele>613</ele>
        <time>2020-07-06T07:31:19.000Z</time>
      </trkpt>
      <trkpt lat="43.0413" lon="0.1678">
        <ele>612.40002441406</ele>
        <time>2020-07-06T07:31:22.000Z</time>
      </trkpt>
      <trkpt lat="43.04144" lon="0.16775">
        <ele>612</ele>
        <time>2020-07-06T07:31:24.000Z</time>
      </trkpt>
      <trkpt lat="43.04151" lon="0.16772">
        <ele>611.79998779297</ele>
        <time>2020-07-06T07:31:25.000Z</time>
      </trkpt>
      <trkpt lat="43.04176" lon="0.16755">
        <ele>611.20001220703</ele>
        <time>2020-07-06T07:31:29.000Z</time>
      </trkpt>
      <trkpt lat="43.04196" lon="0.16743">
        <ele>610.79998779297</ele>
        <time>2020-07-06T07:31:32.000Z</time>
      </trkpt>
      <trkpt lat="43.04202" lon="0.16739">
        <ele>611</ele>
        <time>2020-07-06T07:31:33.000Z</time>
      </trkpt>
      <trkpt lat="43.04216" lon="0.16731">
        <ele>610.79998779297</ele>
        <time>2020-07-06T07:31:35.000Z</time>
      </trkpt>
      <trkpt lat="43.04269" lon="0.16708">
        <ele>610</ele>
        <time>2020-07-06T07:31:42.000Z</time>
      </trkpt>
      <trkpt lat="43.04277" lon="0.16704">
        <ele>609.79998779297</ele>
        <time>2020-07-06T07:31:43.000Z</time>
      </trkpt>
      <trkpt lat="43.04309" lon="0.16688">
        <ele>609</ele>
        <time>2020-07-06T07:31:47.000Z</time>
      </trkpt>
      <trkpt lat="43.04316" lon="0.16682">
        <ele>608.79998779297</ele>
        <time>2020-07-06T07:31:48.000Z</time>
      </trkpt>
      <trkpt lat="43.04329" lon="0.16666">
        <ele>608.40002441406</ele>
        <time>2020-07-06T07:31:50.000Z</time>
      </trkpt>
      <trkpt lat="43.04347" lon="0.16638">
        <ele>607.40002441406</ele>
        <time>2020-07-06T07:31:53.000Z</time>
      </trkpt>
      <trkpt lat="43.04372" lon="0.16599">
        <ele>606</ele>
        <time>2020-07-06T07:31:57.000Z</time>
      </trkpt>
      <trkpt lat="43.04398" lon="0.16559">
        <ele>604.79998779297</ele>
        <time>2020-07-06T07:32:01.000Z</time>
      </trkpt>
      <trkpt lat="43.04419" lon="0.16532">
        <ele>603.79998779297</ele>
        <time>2020-07-06T07:32:04.000Z</time>
      </trkpt>
      <trkpt lat="43.04447" lon="0.16498">
        <ele>602.59997558594</ele>
        <time>2020-07-06T07:32:08.000Z</time>
      </trkpt>
      <trkpt lat="43.04456" lon="0.16487">
        <ele>602.20001220703</ele>
        <time>2020-07-06T07:32:09.000Z</time>
      </trkpt>
      <trkpt lat="43.04479" lon="0.16461">
        <ele>601.40002441406</ele>
        <time>2020-07-06T07:32:12.000Z</time>
      </trkpt>
      <trkpt lat="43.04508" lon="0.16423">
        <ele>600.40002441406</ele>
        <time>2020-07-06T07:32:16.000Z</time>
      </trkpt>
      <trkpt lat="43.04523" lon="0.16405">
        <ele>600.20001220703</ele>
        <time>2020-07-06T07:32:18.000Z</time>
      </trkpt>
      <trkpt lat="43.04562" lon="0.16365">
        <ele>599.20001220703</ele>
        <time>2020-07-06T07:32:23.000Z</time>
      </trkpt>
      <trkpt lat="43.04591" lon="0.16354">
        <ele>598</ele>
        <time>2020-07-06T07:32:26.000Z</time>
      </trkpt>
      <trkpt lat="43.04601" lon="0.16351">
        <ele>597.79998779297</ele>
        <time>2020-07-06T07:32:27.000Z</time>
      </trkpt>
      <trkpt lat="43.04639" lon="0.16344">
        <ele>596.79998779297</ele>
        <time>2020-07-06T07:32:31.000Z</time>
      </trkpt>
      <trkpt lat="43.04688" lon="0.16337">
        <ele>596</ele>
        <time>2020-07-06T07:32:36.000Z</time>
      </trkpt>
      <trkpt lat="43.04698" lon="0.16338">
        <ele>595.79998779297</ele>
        <time>2020-07-06T07:32:37.000Z</time>
      </trkpt>
      <trkpt lat="43.04709" lon="0.16341">
        <ele>595.79998779297</ele>
        <time>2020-07-06T07:32:38.000Z</time>
      </trkpt>
      <trkpt lat="43.04737" lon="0.16354">
        <ele>595.20001220703</ele>
        <time>2020-07-06T07:32:41.000Z</time>
      </trkpt>
      <trkpt lat="43.04757" lon="0.16359">
        <ele>594.79998779297</ele>
        <time>2020-07-06T07:32:43.000Z</time>
      </trkpt>
      <trkpt lat="43.04767" lon="0.16359">
        <ele>594.59997558594</ele>
        <time>2020-07-06T07:32:44.000Z</time>
      </trkpt>
      <trkpt lat="43.04776" lon="0.16357">
        <ele>594.40002441406</ele>
        <time>2020-07-06T07:32:45.000Z</time>
      </trkpt>
      <trkpt lat="43.04793" lon="0.16349">
        <ele>593.79998779297</ele>
        <time>2020-07-06T07:32:47.000Z</time>
      </trkpt>
      <trkpt lat="43.04811" lon="0.16333">
        <ele>593.40002441406</ele>
        <time>2020-07-06T07:32:49.000Z</time>
      </trkpt>
      <trkpt lat="43.04825" lon="0.16316">
        <ele>593</ele>
        <time>2020-07-06T07:32:51.000Z</time>
      </trkpt>
      <trkpt lat="43.04839" lon="0.16301">
        <ele>592.20001220703</ele>
        <time>2020-07-06T07:32:53.000Z</time>
      </trkpt>
      <trkpt lat="43.04864" lon="0.1628">
        <ele>591.59997558594</ele>
        <time>2020-07-06T07:32:56.000Z</time>
      </trkpt>
      <trkpt lat="43.04879" lon="0.1627">
        <ele>591.20001220703</ele>
        <time>2020-07-06T07:32:58.000Z</time>
      </trkpt>
      <trkpt lat="43.04889" lon="0.16262">
        <ele>591</ele>
        <time>2020-07-06T07:32:59.000Z</time>
      </trkpt>
      <trkpt lat="43.04903" lon="0.16245">
        <ele>590.79998779297</ele>
        <time>2020-07-06T07:33:01.000Z</time>
      </trkpt>
      <trkpt lat="43.04917" lon="0.16229">
        <ele>590.59997558594</ele>
        <time>2020-07-06T07:33:03.000Z</time>
      </trkpt>
      <trkpt lat="43.04934" lon="0.16217">
        <ele>590.20001220703</ele>
        <time>2020-07-06T07:33:05.000Z</time>
      </trkpt>
      <trkpt lat="43.04943" lon="0.16213">
        <ele>590</ele>
        <time>2020-07-06T07:33:06.000Z</time>
      </trkpt>
      <trkpt lat="43.0498" lon="0.16201">
        <ele>589.40002441406</ele>
        <time>2020-07-06T07:33:10.000Z</time>
      </trkpt>
      <trkpt lat="43.05018" lon="0.16196">
        <ele>588.79998779297</ele>
        <time>2020-07-06T07:33:14.000Z</time>
      </trkpt>
      <trkpt lat="43.05046" lon="0.16197">
        <ele>588.40002441406</ele>
        <time>2020-07-06T07:33:17.000Z</time>
      </trkpt>
      <trkpt lat="43.05085" lon="0.16202">
        <ele>587.79998779297</ele>
        <time>2020-07-06T07:33:21.000Z</time>
      </trkpt>
      <trkpt lat="43.05124" lon="0.16203">
        <ele>587.20001220703</ele>
        <time>2020-07-06T07:33:25.000Z</time>
      </trkpt>
      <trkpt lat="43.05152" lon="0.16198">
        <ele>586.59997558594</ele>
        <time>2020-07-06T07:33:28.000Z</time>
      </trkpt>
      <trkpt lat="43.05171" lon="0.16193">
        <ele>586.40002441406</ele>
        <time>2020-07-06T07:33:30.000Z</time>
      </trkpt>
      <trkpt lat="43.05195" lon="0.16183">
        <ele>585.59997558594</ele>
        <time>2020-07-06T07:33:33.000Z</time>
      </trkpt>
      <trkpt lat="43.0521" lon="0.16176">
        <ele>585.40002441406</ele>
        <time>2020-07-06T07:33:35.000Z</time>
      </trkpt>
      <trkpt lat="43.05238" lon="0.16165">
        <ele>585</ele>
        <time>2020-07-06T07:33:40.000Z</time>
      </trkpt>
      <trkpt lat="43.05261" lon="0.16158">
        <ele>584.79998779297</ele>
        <time>2020-07-06T07:33:45.000Z</time>
      </trkpt>
      <trkpt lat="43.05272" lon="0.16154">
        <ele>584.79998779297</ele>
        <time>2020-07-06T07:33:47.000Z</time>
      </trkpt>
      <trkpt lat="43.0529" lon="0.16148">
        <ele>584.40002441406</ele>
        <time>2020-07-06T07:33:50.000Z</time>
      </trkpt>
      <trkpt lat="43.05309" lon="0.16141">
        <ele>584</ele>
        <time>2020-07-06T07:33:53.000Z</time>
      </trkpt>
      <trkpt lat="43.05323" lon="0.16137">
        <ele>583.40002441406</ele>
        <time>2020-07-06T07:33:55.000Z</time>
      </trkpt>
      <trkpt lat="43.0535" lon="0.1613">
        <ele>582.40002441406</ele>
        <time>2020-07-06T07:33:59.000Z</time>
      </trkpt>
      <trkpt lat="43.05365" lon="0.16127">
        <ele>582.20001220703</ele>
        <time>2020-07-06T07:34:01.000Z</time>
      </trkpt>
      <trkpt lat="43.05394" lon="0.16123">
        <ele>581</ele>
        <time>2020-07-06T07:34:05.000Z</time>
      </trkpt>
      <trkpt lat="43.05414" lon="0.16123">
        <ele>580.20001220703</ele>
        <time>2020-07-06T07:34:09.000Z</time>
      </trkpt>
      <trkpt lat="43.05417" lon="0.16122">
        <ele>580.20001220703</ele>
        <time>2020-07-06T07:34:10.000Z</time>
      </trkpt>
      <trkpt lat="43.05429" lon="0.16116">
        <ele>580</ele>
        <time>2020-07-06T07:34:13.000Z</time>
      </trkpt>
      <trkpt lat="43.05451" lon="0.16113">
        <ele>579.59997558594</ele>
        <time>2020-07-06T07:34:17.000Z</time>
      </trkpt>
      <trkpt lat="43.05472" lon="0.1611">
        <ele>579.20001220703</ele>
        <time>2020-07-06T07:34:20.000Z</time>
      </trkpt>
      <trkpt lat="43.05495" lon="0.16108">
        <ele>578.79998779297</ele>
        <time>2020-07-06T07:34:23.000Z</time>
      </trkpt>
      <trkpt lat="43.05527" lon="0.16103">
        <ele>578</ele>
        <time>2020-07-06T07:34:27.000Z</time>
      </trkpt>
      <trkpt lat="43.05535" lon="0.16099">
        <ele>578</ele>
        <time>2020-07-06T07:34:28.000Z</time>
      </trkpt>
      <trkpt lat="43.05567" lon="0.16079">
        <ele>577</ele>
        <time>2020-07-06T07:34:32.000Z</time>
      </trkpt>
      <trkpt lat="43.05583" lon="0.16067">
        <ele>576</ele>
        <time>2020-07-06T07:34:34.000Z</time>
      </trkpt>
      <trkpt lat="43.0559" lon="0.1606">
        <ele>575.79998779297</ele>
        <time>2020-07-06T07:34:35.000Z</time>
      </trkpt>
      <trkpt lat="43.05611" lon="0.16037">
        <ele>574.59997558594</ele>
        <time>2020-07-06T07:34:38.000Z</time>
      </trkpt>
      <trkpt lat="43.05618" lon="0.16029">
        <ele>574.59997558594</ele>
        <time>2020-07-06T07:34:39.000Z</time>
      </trkpt>
      <trkpt lat="43.05633" lon="0.16016">
        <ele>574</ele>
        <time>2020-07-06T07:34:41.000Z</time>
      </trkpt>
      <trkpt lat="43.05649" lon="0.16009">
        <ele>574</ele>
        <time>2020-07-06T07:34:43.000Z</time>
      </trkpt>
      <trkpt lat="43.05684" lon="0.1601">
        <ele>573.79998779297</ele>
        <time>2020-07-06T07:34:47.000Z</time>
      </trkpt>
      <trkpt lat="43.05701" lon="0.1601">
        <ele>573.79998779297</ele>
        <time>2020-07-06T07:34:49.000Z</time>
      </trkpt>
      <trkpt lat="43.05718" lon="0.16007">
        <ele>573.59997558594</ele>
        <time>2020-07-06T07:34:51.000Z</time>
      </trkpt>
      <trkpt lat="43.05727" lon="0.16005">
        <ele>573.59997558594</ele>
        <time>2020-07-06T07:34:52.000Z</time>
      </trkpt>
      <trkpt lat="43.05788" lon="0.15985">
        <ele>572.79998779297</ele>
        <time>2020-07-06T07:34:59.000Z</time>
      </trkpt>
      <trkpt lat="43.05805" lon="0.15979">
        <ele>572.40002441406</ele>
        <time>2020-07-06T07:35:01.000Z</time>
      </trkpt>
      <trkpt lat="43.05855" lon="0.1595">
        <ele>571.40002441406</ele>
        <time>2020-07-06T07:35:07.000Z</time>
      </trkpt>
      <trkpt lat="43.05872" lon="0.15941">
        <ele>571.40002441406</ele>
        <time>2020-07-06T07:35:09.000Z</time>
      </trkpt>
      <trkpt lat="43.05924" lon="0.15915">
        <ele>570.59997558594</ele>
        <time>2020-07-06T07:35:15.000Z</time>
      </trkpt>
      <trkpt lat="43.0595" lon="0.15903">
        <ele>570.40002441406</ele>
        <time>2020-07-06T07:35:18.000Z</time>
      </trkpt>
      <trkpt lat="43.06003" lon="0.15885">
        <ele>569.40002441406</ele>
        <time>2020-07-06T07:35:24.000Z</time>
      </trkpt>
      <trkpt lat="43.0602" lon="0.15882">
        <ele>569</ele>
        <time>2020-07-06T07:35:26.000Z</time>
      </trkpt>
      <trkpt lat="43.06074" lon="0.15869">
        <ele>568.40002441406</ele>
        <time>2020-07-06T07:35:32.000Z</time>
      </trkpt>
      <trkpt lat="43.06092" lon="0.15864">
        <ele>568.20001220703</ele>
        <time>2020-07-06T07:35:34.000Z</time>
      </trkpt>
      <trkpt lat="43.061" lon="0.1586">
        <ele>568.20001220703</ele>
        <time>2020-07-06T07:35:35.000Z</time>
      </trkpt>
      <trkpt lat="43.06145" lon="0.15841">
        <ele>567.20001220703</ele>
        <time>2020-07-06T07:35:40.000Z</time>
      </trkpt>
      <trkpt lat="43.06154" lon="0.15838">
        <ele>566.79998779297</ele>
        <time>2020-07-06T07:35:41.000Z</time>
      </trkpt>
      <trkpt lat="43.06163" lon="0.15838">
        <ele>566.79998779297</ele>
        <time>2020-07-06T07:35:42.000Z</time>
      </trkpt>
      <trkpt lat="43.06173" lon="0.15839">
        <ele>566.59997558594</ele>
        <time>2020-07-06T07:35:43.000Z</time>
      </trkpt>
      <trkpt lat="43.0619" lon="0.15845">
        <ele>566</ele>
        <time>2020-07-06T07:35:45.000Z</time>
      </trkpt>
      <trkpt lat="43.06199" lon="0.15848">
        <ele>565.79998779297</ele>
        <time>2020-07-06T07:35:46.000Z</time>
      </trkpt>
      <trkpt lat="43.06236" lon="0.1586">
        <ele>565</ele>
        <time>2020-07-06T07:35:50.000Z</time>
      </trkpt>
      <trkpt lat="43.06246" lon="0.15861">
        <ele>565</ele>
        <time>2020-07-06T07:35:51.000Z</time>
      </trkpt>
      <trkpt lat="43.06255" lon="0.15861">
        <ele>564.59997558594</ele>
        <time>2020-07-06T07:35:52.000Z</time>
      </trkpt>
      <trkpt lat="43.06301" lon="0.1585">
        <ele>564.20001220703</ele>
        <time>2020-07-06T07:35:57.000Z</time>
      </trkpt>
      <trkpt lat="43.0631" lon="0.15849">
        <ele>564</ele>
        <time>2020-07-06T07:35:58.000Z</time>
      </trkpt>
      <trkpt lat="43.06366" lon="0.15845">
        <ele>562.79998779297</ele>
        <time>2020-07-06T07:36:04.000Z</time>
      </trkpt>
      <trkpt lat="43.06384" lon="0.15841">
        <ele>562.20001220703</ele>
        <time>2020-07-06T07:36:06.000Z</time>
      </trkpt>
      <trkpt lat="43.06402" lon="0.15835">
        <ele>561.59997558594</ele>
        <time>2020-07-06T07:36:08.000Z</time>
      </trkpt>
      <trkpt lat="43.06455" lon="0.15817">
        <ele>560.79998779297</ele>
        <time>2020-07-06T07:36:14.000Z</time>
      </trkpt>
      <trkpt lat="43.06473" lon="0.15813">
        <ele>560.59997558594</ele>
        <time>2020-07-06T07:36:16.000Z</time>
      </trkpt>
      <trkpt lat="43.06519" lon="0.15807">
        <ele>559.59997558594</ele>
        <time>2020-07-06T07:36:21.000Z</time>
      </trkpt>
      <trkpt lat="43.06575" lon="0.15802">
        <ele>558.59997558594</ele>
        <time>2020-07-06T07:36:27.000Z</time>
      </trkpt>
      <trkpt lat="43.06584" lon="0.15801">
        <ele>558.20001220703</ele>
        <time>2020-07-06T07:36:28.000Z</time>
      </trkpt>
      <trkpt lat="43.06612" lon="0.15802">
        <ele>557.79998779297</ele>
        <time>2020-07-06T07:36:31.000Z</time>
      </trkpt>
      <trkpt lat="43.06648" lon="0.1581">
        <ele>557.40002441406</ele>
        <time>2020-07-06T07:36:35.000Z</time>
      </trkpt>
      <trkpt lat="43.06673" lon="0.15825">
        <ele>557.20001220703</ele>
        <time>2020-07-06T07:36:38.000Z</time>
      </trkpt>
      <trkpt lat="43.0669" lon="0.15835">
        <ele>557</ele>
        <time>2020-07-06T07:36:40.000Z</time>
      </trkpt>
      <trkpt lat="43.06708" lon="0.1584">
        <ele>557</ele>
        <time>2020-07-06T07:36:42.000Z</time>
      </trkpt>
      <trkpt lat="43.06717" lon="0.1584">
        <ele>556.79998779297</ele>
        <time>2020-07-06T07:36:43.000Z</time>
      </trkpt>
      <trkpt lat="43.06726" lon="0.15838">
        <ele>556.59997558594</ele>
        <time>2020-07-06T07:36:44.000Z</time>
      </trkpt>
      <trkpt lat="43.06742" lon="0.15827">
        <ele>556</ele>
        <time>2020-07-06T07:36:46.000Z</time>
      </trkpt>
      <trkpt lat="43.06785" lon="0.15784">
        <ele>555.20001220703</ele>
        <time>2020-07-06T07:36:52.000Z</time>
      </trkpt>
      <trkpt lat="43.06794" lon="0.15778">
        <ele>555</ele>
        <time>2020-07-06T07:36:53.000Z</time>
      </trkpt>
      <trkpt lat="43.0682" lon="0.15767">
        <ele>554.59997558594</ele>
        <time>2020-07-06T07:36:56.000Z</time>
      </trkpt>
      <trkpt lat="43.06857" lon="0.15754">
        <ele>554</ele>
        <time>2020-07-06T07:37:00.000Z</time>
      </trkpt>
      <trkpt lat="43.06892" lon="0.15741">
        <ele>553</ele>
        <time>2020-07-06T07:37:04.000Z</time>
      </trkpt>
      <trkpt lat="43.06901" lon="0.15738">
        <ele>552.79998779297</ele>
        <time>2020-07-06T07:37:05.000Z</time>
      </trkpt>
      <trkpt lat="43.06934" lon="0.15726">
        <ele>552.20001220703</ele>
        <time>2020-07-06T07:37:09.000Z</time>
      </trkpt>
      <trkpt lat="43.06951" lon="0.1572">
        <ele>551.79998779297</ele>
        <time>2020-07-06T07:37:11.000Z</time>
      </trkpt>
      <trkpt lat="43.06977" lon="0.15711">
        <ele>551</ele>
        <time>2020-07-06T07:37:14.000Z</time>
      </trkpt>
      <trkpt lat="43.06993" lon="0.157">
        <ele>550.40002441406</ele>
        <time>2020-07-06T07:37:16.000Z</time>
      </trkpt>
      <trkpt lat="43.07003" lon="0.15684">
        <ele>550.20001220703</ele>
        <time>2020-07-06T07:37:18.000Z</time>
      </trkpt>
      <trkpt lat="43.07006" lon="0.15678">
        <ele>550.20001220703</ele>
        <time>2020-07-06T07:37:19.000Z</time>
      </trkpt>
      <trkpt lat="43.07009" lon="0.15673">
        <ele>550.20001220703</ele>
        <time>2020-07-06T07:37:20.000Z</time>
      </trkpt>
      <trkpt lat="43.07016" lon="0.15667">
        <ele>550.59997558594</ele>
        <time>2020-07-06T07:37:22.000Z</time>
      </trkpt>
      <trkpt lat="43.0702" lon="0.15663">
        <ele>550.59997558594</ele>
        <time>2020-07-06T07:37:23.000Z</time>
      </trkpt>
      <trkpt lat="43.07028" lon="0.15652">
        <ele>550.59997558594</ele>
        <time>2020-07-06T07:37:25.000Z</time>
      </trkpt>
      <trkpt lat="43.0704" lon="0.15645">
        <ele>550.59997558594</ele>
        <time>2020-07-06T07:37:27.000Z</time>
      </trkpt>
      <trkpt lat="43.07047" lon="0.15643">
        <ele>550.40002441406</ele>
        <time>2020-07-06T07:37:28.000Z</time>
      </trkpt>
      <trkpt lat="43.07088" lon="0.1563">
        <ele>549.40002441406</ele>
        <time>2020-07-06T07:37:33.000Z</time>
      </trkpt>
      <trkpt lat="43.07122" lon="0.15618">
        <ele>548.20001220703</ele>
        <time>2020-07-06T07:37:37.000Z</time>
      </trkpt>
      <trkpt lat="43.07139" lon="0.15609">
        <ele>547.79998779297</ele>
        <time>2020-07-06T07:37:39.000Z</time>
      </trkpt>
      <trkpt lat="43.07165" lon="0.15595">
        <ele>547</ele>
        <time>2020-07-06T07:37:42.000Z</time>
      </trkpt>
      <trkpt lat="43.07208" lon="0.15569">
        <ele>546</ele>
        <time>2020-07-06T07:37:47.000Z</time>
      </trkpt>
      <trkpt lat="43.07216" lon="0.15564">
        <ele>546</ele>
        <time>2020-07-06T07:37:48.000Z</time>
      </trkpt>
      <trkpt lat="43.07268" lon="0.15535">
        <ele>545</ele>
        <time>2020-07-06T07:37:54.000Z</time>
      </trkpt>
      <trkpt lat="43.07277" lon="0.15531">
        <ele>544.79998779297</ele>
        <time>2020-07-06T07:37:55.000Z</time>
      </trkpt>
      <trkpt lat="43.07285" lon="0.15527">
        <ele>544.59997558594</ele>
        <time>2020-07-06T07:37:56.000Z</time>
      </trkpt>
      <trkpt lat="43.07339" lon="0.15509">
        <ele>544</ele>
        <time>2020-07-06T07:38:02.000Z</time>
      </trkpt>
      <trkpt lat="43.07394" lon="0.15492">
        <ele>544</ele>
        <time>2020-07-06T07:38:08.000Z</time>
      </trkpt>
      <trkpt lat="43.07403" lon="0.15488">
        <ele>544</ele>
        <time>2020-07-06T07:38:09.000Z</time>
      </trkpt>
      <trkpt lat="43.07411" lon="0.15485">
        <ele>544</ele>
        <time>2020-07-06T07:38:10.000Z</time>
      </trkpt>
      <trkpt lat="43.07436" lon="0.15478">
        <ele>543.79998779297</ele>
        <time>2020-07-06T07:38:13.000Z</time>
      </trkpt>
      <trkpt lat="43.07453" lon="0.15475">
        <ele>543.79998779297</ele>
        <time>2020-07-06T07:38:15.000Z</time>
      </trkpt>
      <trkpt lat="43.07514" lon="0.15463">
        <ele>543.40002441406</ele>
        <time>2020-07-06T07:38:22.000Z</time>
      </trkpt>
      <trkpt lat="43.07523" lon="0.15461">
        <ele>543.40002441406</ele>
        <time>2020-07-06T07:38:23.000Z</time>
      </trkpt>
      <trkpt lat="43.0754" lon="0.15458">
        <ele>543</ele>
        <time>2020-07-06T07:38:25.000Z</time>
      </trkpt>
      <trkpt lat="43.07556" lon="0.15459">
        <ele>542.79998779297</ele>
        <time>2020-07-06T07:38:27.000Z</time>
      </trkpt>
      <trkpt lat="43.07567" lon="0.15451">
        <ele>542.59997558594</ele>
        <time>2020-07-06T07:38:29.000Z</time>
      </trkpt>
      <trkpt lat="43.07569" lon="0.15436">
        <ele>542.59997558594</ele>
        <time>2020-07-06T07:38:31.000Z</time>
      </trkpt>
      <trkpt lat="43.07567" lon="0.15419">
        <ele>542.40002441406</ele>
        <time>2020-07-06T07:38:33.000Z</time>
      </trkpt>
      <trkpt lat="43.07568" lon="0.15409">
        <ele>542.40002441406</ele>
        <time>2020-07-06T07:38:34.000Z</time>
      </trkpt>
      <trkpt lat="43.07573" lon="0.1538">
        <ele>542.20001220703</ele>
        <time>2020-07-06T07:38:37.000Z</time>
      </trkpt>
      <trkpt lat="43.07574" lon="0.15369">
        <ele>542.20001220703</ele>
        <time>2020-07-06T07:38:38.000Z</time>
      </trkpt>
      <trkpt lat="43.07573" lon="0.15358">
        <ele>542.20001220703</ele>
        <time>2020-07-06T07:38:39.000Z</time>
      </trkpt>
      <trkpt lat="43.0757" lon="0.15337">
        <ele>542</ele>
        <time>2020-07-06T07:38:41.000Z</time>
      </trkpt>
      <trkpt lat="43.07566" lon="0.15326">
        <ele>541.79998779297</ele>
        <time>2020-07-06T07:38:42.000Z</time>
      </trkpt>
      <trkpt lat="43.07545" lon="0.15275">
        <ele>540.59997558594</ele>
        <time>2020-07-06T07:38:47.000Z</time>
      </trkpt>
      <trkpt lat="43.07529" lon="0.15237">
        <ele>539.79998779297</ele>
        <time>2020-07-06T07:38:51.000Z</time>
      </trkpt>
      <trkpt lat="43.07529" lon="0.15226">
        <ele>539.59997558594</ele>
        <time>2020-07-06T07:38:52.000Z</time>
      </trkpt>
      <trkpt lat="43.07531" lon="0.15217">
        <ele>539.59997558594</ele>
        <time>2020-07-06T07:38:53.000Z</time>
      </trkpt>
      <trkpt lat="43.07535" lon="0.15208">
        <ele>539.20001220703</ele>
        <time>2020-07-06T07:38:54.000Z</time>
      </trkpt>
      <trkpt lat="43.07541" lon="0.15202">
        <ele>539</ele>
        <time>2020-07-06T07:38:55.000Z</time>
      </trkpt>
      <trkpt lat="43.07555" lon="0.1519">
        <ele>538.79998779297</ele>
        <time>2020-07-06T07:38:57.000Z</time>
      </trkpt>
      <trkpt lat="43.07569" lon="0.15178">
        <ele>538.59997558594</ele>
        <time>2020-07-06T07:38:59.000Z</time>
      </trkpt>
      <trkpt lat="43.07604" lon="0.15144">
        <ele>537.79998779297</ele>
        <time>2020-07-06T07:39:04.000Z</time>
      </trkpt>
      <trkpt lat="43.07618" lon="0.15131">
        <ele>537.40002441406</ele>
        <time>2020-07-06T07:39:06.000Z</time>
      </trkpt>
      <trkpt lat="43.07666" lon="0.15082">
        <ele>536.20001220703</ele>
        <time>2020-07-06T07:39:13.000Z</time>
      </trkpt>
      <trkpt lat="43.07682" lon="0.15079">
        <ele>535.79998779297</ele>
        <time>2020-07-06T07:39:15.000Z</time>
      </trkpt>
      <trkpt lat="43.07695" lon="0.1509">
        <ele>535.79998779297</ele>
        <time>2020-07-06T07:39:17.000Z</time>
      </trkpt>
      <trkpt lat="43.07704" lon="0.15108">
        <ele>535.59997558594</ele>
        <time>2020-07-06T07:39:19.000Z</time>
      </trkpt>
      <trkpt lat="43.07707" lon="0.15117">
        <ele>535.59997558594</ele>
        <time>2020-07-06T07:39:20.000Z</time>
      </trkpt>
      <trkpt lat="43.07719" lon="0.15143">
        <ele>535.79998779297</ele>
        <time>2020-07-06T07:39:23.000Z</time>
      </trkpt>
      <trkpt lat="43.07724" lon="0.1515">
        <ele>536</ele>
        <time>2020-07-06T07:39:24.000Z</time>
      </trkpt>
      <trkpt lat="43.0773" lon="0.15156">
        <ele>536.20001220703</ele>
        <time>2020-07-06T07:39:25.000Z</time>
      </trkpt>
      <trkpt lat="43.07744" lon="0.15157">
        <ele>536.40002441406</ele>
        <time>2020-07-06T07:39:27.000Z</time>
      </trkpt>
      <trkpt lat="43.07756" lon="0.15142">
        <ele>536.59997558594</ele>
        <time>2020-07-06T07:39:29.000Z</time>
      </trkpt>
      <trkpt lat="43.07761" lon="0.15132">
        <ele>536.79998779297</ele>
        <time>2020-07-06T07:39:30.000Z</time>
      </trkpt>
      <trkpt lat="43.07776" lon="0.15103">
        <ele>536.79998779297</ele>
        <time>2020-07-06T07:39:33.000Z</time>
      </trkpt>
      <trkpt lat="43.07811" lon="0.15043">
        <ele>535.40002441406</ele>
        <time>2020-07-06T07:39:39.000Z</time>
      </trkpt>
      <trkpt lat="43.07825" lon="0.15024">
        <ele>535</ele>
        <time>2020-07-06T07:39:41.000Z</time>
      </trkpt>
      <trkpt lat="43.07853" lon="0.14989">
        <ele>533.79998779297</ele>
        <time>2020-07-06T07:39:45.000Z</time>
      </trkpt>
      <trkpt lat="43.07889" lon="0.14947">
        <ele>532.79998779297</ele>
        <time>2020-07-06T07:39:50.000Z</time>
      </trkpt>
      <trkpt lat="43.0791" lon="0.14921">
        <ele>532.59997558594</ele>
        <time>2020-07-06T07:39:53.000Z</time>
      </trkpt>
      <trkpt lat="43.07947" lon="0.14881">
        <ele>531.79998779297</ele>
        <time>2020-07-06T07:39:58.000Z</time>
      </trkpt>
      <trkpt lat="43.07955" lon="0.14873">
        <ele>531.59997558594</ele>
        <time>2020-07-06T07:39:59.000Z</time>
      </trkpt>
      <trkpt lat="43.07992" lon="0.14833">
        <ele>530.59997558594</ele>
        <time>2020-07-06T07:40:04.000Z</time>
      </trkpt>
      <trkpt lat="43.08021" lon="0.14801">
        <ele>530</ele>
        <time>2020-07-06T07:40:08.000Z</time>
      </trkpt>
      <trkpt lat="43.08043" lon="0.14778">
        <ele>529.59997558594</ele>
        <time>2020-07-06T07:40:11.000Z</time>
      </trkpt>
      <trkpt lat="43.08083" lon="0.14736">
        <ele>528.79998779297</ele>
        <time>2020-07-06T07:40:17.000Z</time>
      </trkpt>
      <trkpt lat="43.08111" lon="0.14704">
        <ele>528.79998779297</ele>
        <time>2020-07-06T07:40:22.000Z</time>
      </trkpt>
      <trkpt lat="43.08125" lon="0.14688">
        <ele>528.79998779297</ele>
        <time>2020-07-06T07:40:26.000Z</time>
      </trkpt>
      <trkpt lat="43.08131" lon="0.14681">
        <ele>528.79998779297</ele>
        <time>2020-07-06T07:40:31.000Z</time>
      </trkpt>
      <trkpt lat="43.08131" lon="0.14681">
        <ele>528.59997558594</ele>
        <time>2020-07-06T07:40:45.000Z</time>
      </trkpt>
      <trkpt lat="43.08131" lon="0.14681">
        <ele>528.59997558594</ele>
        <time>2020-07-06T07:40:53.000Z</time>
      </trkpt>
      <trkpt lat="43.08131" lon="0.1468">
        <ele>528.40002441406</ele>
        <time>2020-07-06T07:41:12.000Z</time>
      </trkpt>
      <trkpt lat="43.08133" lon="0.14679">
        <ele>528.20001220703</ele>
        <time>2020-07-06T07:41:24.000Z</time>
      </trkpt>
      <trkpt lat="43.08136" lon="0.14677">
        <ele>528.20001220703</ele>
        <time>2020-07-06T07:41:26.000Z</time>
      </trkpt>
      <trkpt lat="43.08144" lon="0.14668">
        <ele>528</ele>
        <time>2020-07-06T07:41:31.000Z</time>
      </trkpt>
      <trkpt lat="43.08157" lon="0.1466">
        <ele>528</ele>
        <time>2020-07-06T07:41:35.000Z</time>
      </trkpt>
      <trkpt lat="43.08162" lon="0.14658">
        <ele>527.79998779297</ele>
        <time>2020-07-06T07:41:36.000Z</time>
      </trkpt>
      <trkpt lat="43.0819" lon="0.14648">
        <ele>527.20001220703</ele>
        <time>2020-07-06T07:41:42.000Z</time>
      </trkpt>
      <trkpt lat="43.08223" lon="0.14633">
        <ele>527.40002441406</ele>
        <time>2020-07-06T07:41:49.000Z</time>
      </trkpt>
      <trkpt lat="43.08258" lon="0.14615">
        <ele>527.59997558594</ele>
        <time>2020-07-06T07:41:57.000Z</time>
      </trkpt>
      <trkpt lat="43.08284" lon="0.14603">
        <ele>527.40002441406</ele>
        <time>2020-07-06T07:42:03.000Z</time>
      </trkpt>
      <trkpt lat="43.08288" lon="0.14601">
        <ele>527.20001220703</ele>
        <time>2020-07-06T07:42:04.000Z</time>
      </trkpt>
      <trkpt lat="43.08294" lon="0.146">
        <ele>527</ele>
        <time>2020-07-06T07:42:06.000Z</time>
      </trkpt>
      <trkpt lat="43.08297" lon="0.14602">
        <ele>526.79998779297</ele>
        <time>2020-07-06T07:42:08.000Z</time>
      </trkpt>
      <trkpt lat="43.08297" lon="0.14603">
        <ele>526.59997558594</ele>
        <time>2020-07-06T07:42:12.000Z</time>
      </trkpt>
      <trkpt lat="43.08297" lon="0.14604">
        <ele>527</ele>
        <time>2020-07-06T07:42:20.000Z</time>
      </trkpt>
      <trkpt lat="43.08296" lon="0.14604">
        <ele>526.79998779297</ele>
        <time>2020-07-06T07:42:52.000Z</time>
      </trkpt>
      <trkpt lat="43.08297" lon="0.14604">
        <ele>526.79998779297</ele>
        <time>2020-07-06T07:42:59.000Z</time>
      </trkpt>
      <trkpt lat="43.08297" lon="0.14603">
        <ele>526.79998779297</ele>
        <time>2020-07-06T07:43:13.000Z</time>
      </trkpt>
      <trkpt lat="43.08304" lon="0.14599">
        <ele>526.79998779297</ele>
        <time>2020-07-06T07:43:22.000Z</time>
      </trkpt>
      <trkpt lat="43.08317" lon="0.14588">
        <ele>526.79998779297</ele>
        <time>2020-07-06T07:43:26.000Z</time>
      </trkpt>
      <trkpt lat="43.08344" lon="0.14574">
        <ele>526.20001220703</ele>
        <time>2020-07-06T07:43:31.000Z</time>
      </trkpt>
      <trkpt lat="43.0835" lon="0.14571">
        <ele>526</ele>
        <time>2020-07-06T07:43:32.000Z</time>
      </trkpt>
      <trkpt lat="43.08371" lon="0.14552">
        <ele>525.20001220703</ele>
        <time>2020-07-06T07:43:36.000Z</time>
      </trkpt>
      <trkpt lat="43.08376" lon="0.14546">
        <ele>525</ele>
        <time>2020-07-06T07:43:37.000Z</time>
      </trkpt>
      <trkpt lat="43.08416" lon="0.14501">
        <ele>524.20001220703</ele>
        <time>2020-07-06T07:43:45.000Z</time>
      </trkpt>
      <trkpt lat="43.08426" lon="0.14489">
        <ele>524</ele>
        <time>2020-07-06T07:43:47.000Z</time>
      </trkpt>
      <trkpt lat="43.0846" lon="0.14452">
        <ele>523</ele>
        <time>2020-07-06T07:43:53.000Z</time>
      </trkpt>
      <trkpt lat="43.08466" lon="0.14446">
        <ele>522.79998779297</ele>
        <time>2020-07-06T07:43:54.000Z</time>
      </trkpt>
      <trkpt lat="43.08513" lon="0.14395">
        <ele>521.79998779297</ele>
        <time>2020-07-06T07:44:02.000Z</time>
      </trkpt>
      <trkpt lat="43.08524" lon="0.14382">
        <ele>521.59997558594</ele>
        <time>2020-07-06T07:44:04.000Z</time>
      </trkpt>
      <trkpt lat="43.08555" lon="0.14347">
        <ele>520.59997558594</ele>
        <time>2020-07-06T07:44:09.000Z</time>
      </trkpt>
      <trkpt lat="43.08573" lon="0.14327">
        <ele>520</ele>
        <time>2020-07-06T07:44:12.000Z</time>
      </trkpt>
      <trkpt lat="43.08585" lon="0.14313">
        <ele>519.59997558594</ele>
        <time>2020-07-06T07:44:14.000Z</time>
      </trkpt>
      <trkpt lat="43.08622" lon="0.14272">
        <ele>519</ele>
        <time>2020-07-06T07:44:20.000Z</time>
      </trkpt>
      <trkpt lat="43.08641" lon="0.14251">
        <ele>518.59997558594</ele>
        <time>2020-07-06T07:44:23.000Z</time>
      </trkpt>
      <trkpt lat="43.08678" lon="0.1421">
        <ele>517.79998779297</ele>
        <time>2020-07-06T07:44:29.000Z</time>
      </trkpt>
      <trkpt lat="43.0869" lon="0.14197">
        <ele>517.59997558594</ele>
        <time>2020-07-06T07:44:31.000Z</time>
      </trkpt>
      <trkpt lat="43.08733" lon="0.14148">
        <ele>517.40002441406</ele>
        <time>2020-07-06T07:44:38.000Z</time>
      </trkpt>
      <trkpt lat="43.08744" lon="0.14135">
        <ele>517.20001220703</ele>
        <time>2020-07-06T07:44:40.000Z</time>
      </trkpt>
      <trkpt lat="43.0875" lon="0.14126">
        <ele>517.20001220703</ele>
        <time>2020-07-06T07:44:41.000Z</time>
      </trkpt>
      <trkpt lat="43.08758" lon="0.14108">
        <ele>517.20001220703</ele>
        <time>2020-07-06T07:44:43.000Z</time>
      </trkpt>
      <trkpt lat="43.08761" lon="0.14101">
        <ele>517</ele>
        <time>2020-07-06T07:44:44.000Z</time>
      </trkpt>
      <trkpt lat="43.08771" lon="0.14068">
        <ele>516.59997558594</ele>
        <time>2020-07-06T07:44:48.000Z</time>
      </trkpt>
      <trkpt lat="43.08779" lon="0.14061">
        <ele>516.59997558594</ele>
        <time>2020-07-06T07:44:50.000Z</time>
      </trkpt>
      <trkpt lat="43.08783" lon="0.14061">
        <ele>516.40002441406</ele>
        <time>2020-07-06T07:44:51.000Z</time>
      </trkpt>
      <trkpt lat="43.08787" lon="0.14063">
        <ele>516.40002441406</ele>
        <time>2020-07-06T07:44:52.000Z</time>
      </trkpt>
      <trkpt lat="43.08802" lon="0.14071">
        <ele>516.20001220703</ele>
        <time>2020-07-06T07:44:55.000Z</time>
      </trkpt>
      <trkpt lat="43.08807" lon="0.14073">
        <ele>516.20001220703</ele>
        <time>2020-07-06T07:44:56.000Z</time>
      </trkpt>
      <trkpt lat="43.08812" lon="0.14075">
        <ele>516.20001220703</ele>
        <time>2020-07-06T07:44:57.000Z</time>
      </trkpt>
      <trkpt lat="43.08825" lon="0.14075">
        <ele>516.20001220703</ele>
        <time>2020-07-06T07:45:00.000Z</time>
      </trkpt>
      <trkpt lat="43.08829" lon="0.14073">
        <ele>516.20001220703</ele>
        <time>2020-07-06T07:45:01.000Z</time>
      </trkpt>
      <trkpt lat="43.08848" lon="0.14057">
        <ele>516.59997558594</ele>
        <time>2020-07-06T07:45:06.000Z</time>
      </trkpt>
      <trkpt lat="43.08852" lon="0.14054">
        <ele>516.59997558594</ele>
        <time>2020-07-06T07:45:07.000Z</time>
      </trkpt>
      <trkpt lat="43.08869" lon="0.1404">
        <ele>516.20001220703</ele>
        <time>2020-07-06T07:45:12.000Z</time>
      </trkpt>
      <trkpt lat="43.08899" lon="0.14015">
        <ele>516</ele>
        <time>2020-07-06T07:45:19.000Z</time>
      </trkpt>
      <trkpt lat="43.08907" lon="0.1401">
        <ele>515.59997558594</ele>
        <time>2020-07-06T07:45:21.000Z</time>
      </trkpt>
      <trkpt lat="43.08928" lon="0.13991">
        <ele>514.79998779297</ele>
        <time>2020-07-06T07:45:26.000Z</time>
      </trkpt>
      <trkpt lat="43.08942" lon="0.1398">
        <ele>514.40002441406</ele>
        <time>2020-07-06T07:45:29.000Z</time>
      </trkpt>
      <trkpt lat="43.08947" lon="0.13976">
        <ele>514.40002441406</ele>
        <time>2020-07-06T07:45:30.000Z</time>
      </trkpt>
      <trkpt lat="43.08954" lon="0.13968">
        <ele>514.20001220703</ele>
        <time>2020-07-06T07:45:32.000Z</time>
      </trkpt>
      <trkpt lat="43.08982" lon="0.13948">
        <ele>514.20001220703</ele>
        <time>2020-07-06T07:45:38.000Z</time>
      </trkpt>
      <trkpt lat="43.08986" lon="0.13944">
        <ele>514.20001220703</ele>
        <time>2020-07-06T07:45:39.000Z</time>
      </trkpt>
      <trkpt lat="43.08991" lon="0.13939">
        <ele>514</ele>
        <time>2020-07-06T07:45:40.000Z</time>
      </trkpt>
      <trkpt lat="43.09015" lon="0.13922">
        <ele>513.79998779297</ele>
        <time>2020-07-06T07:45:45.000Z</time>
      </trkpt>
      <trkpt lat="43.09027" lon="0.13911">
        <ele>513.59997558594</ele>
        <time>2020-07-06T07:45:48.000Z</time>
      </trkpt>
      <trkpt lat="43.09037" lon="0.13904">
        <ele>513.40002441406</ele>
        <time>2020-07-06T07:45:50.000Z</time>
      </trkpt>
      <trkpt lat="43.09042" lon="0.139">
        <ele>513.40002441406</ele>
        <time>2020-07-06T07:45:51.000Z</time>
      </trkpt>
      <trkpt lat="43.09049" lon="0.13895">
        <ele>513.40002441406</ele>
        <time>2020-07-06T07:45:52.000Z</time>
      </trkpt>
      <trkpt lat="43.09073" lon="0.13873">
        <ele>512.20001220703</ele>
        <time>2020-07-06T07:45:58.000Z</time>
      </trkpt>
      <trkpt lat="43.09076" lon="0.13869">
        <ele>512</ele>
        <time>2020-07-06T07:45:59.000Z</time>
      </trkpt>
      <trkpt lat="43.0908" lon="0.13865">
        <ele>512</ele>
        <time>2020-07-06T07:46:00.000Z</time>
      </trkpt>
      <trkpt lat="43.09099" lon="0.13847">
        <ele>511.79998779297</ele>
        <time>2020-07-06T07:46:05.000Z</time>
      </trkpt>
      <trkpt lat="43.09115" lon="0.13834">
        <ele>511.39999389648</ele>
        <time>2020-07-06T07:46:09.000Z</time>
      </trkpt>
      <trkpt lat="43.09127" lon="0.13826">
        <ele>511.39999389648</ele>
        <time>2020-07-06T07:46:12.000Z</time>
      </trkpt>
      <trkpt lat="43.09131" lon="0.13823">
        <ele>511.20001220703</ele>
        <time>2020-07-06T07:46:13.000Z</time>
      </trkpt>
      <trkpt lat="43.09136" lon="0.13821">
        <ele>511.20001220703</ele>
        <time>2020-07-06T07:46:14.000Z</time>
      </trkpt>
      <trkpt lat="43.09147" lon="0.13813">
        <ele>511</ele>
        <time>2020-07-06T07:46:17.000Z</time>
      </trkpt>
      <trkpt lat="43.09157" lon="0.13805">
        <ele>510.60000610352</ele>
        <time>2020-07-06T07:46:21.000Z</time>
      </trkpt>
      <trkpt lat="43.09169" lon="0.138">
        <ele>510.20001220703</ele>
        <time>2020-07-06T07:46:26.000Z</time>
      </trkpt>
      <trkpt lat="43.0917" lon="0.13797">
        <ele>510.39999389648</ele>
        <time>2020-07-06T07:46:30.000Z</time>
      </trkpt>
      <trkpt lat="43.09167" lon="0.13794">
        <ele>510.20001220703</ele>
        <time>2020-07-06T07:46:36.000Z</time>
      </trkpt>
      <trkpt lat="43.09168" lon="0.13792">
        <ele>510.20001220703</ele>
        <time>2020-07-06T07:46:37.000Z</time>
      </trkpt>
      <trkpt lat="43.09168" lon="0.13791">
        <ele>509.20001220703</ele>
        <time>2020-07-06T07:46:41.000Z</time>
      </trkpt>
      <trkpt lat="43.09168" lon="0.13791">
        <ele>509.20001220703</ele>
        <time>2020-07-06T07:46:42.000Z</time>
      </trkpt>
      <trkpt lat="43.09168" lon="0.13791">
        <ele>508.20001220703</ele>
        <time>2020-07-06T07:46:48.000Z</time>
      </trkpt>
      <trkpt lat="43.09168" lon="0.13791">
        <ele>508</ele>
        <time>2020-07-06T07:46:50.000Z</time>
      </trkpt>
      <trkpt lat="43.09169" lon="0.1379">
        <ele>508</ele>
        <time>2020-07-06T07:49:44.000Z</time>
      </trkpt>
      <trkpt lat="43.0917" lon="0.1379">
        <ele>508</ele>
        <time>2020-07-06T07:49:45.000Z</time>
      </trkpt>
      <trkpt lat="43.09176" lon="0.13786">
        <ele>508</ele>
        <time>2020-07-06T07:49:49.000Z</time>
      </trkpt>
      <trkpt lat="43.09179" lon="0.13783">
        <ele>508</ele>
        <time>2020-07-06T07:49:51.000Z</time>
      </trkpt>
      <trkpt lat="43.09183" lon="0.1378">
        <ele>508</ele>
        <time>2020-07-06T07:49:53.000Z</time>
      </trkpt>
      <trkpt lat="43.0919" lon="0.13777">
        <ele>507.39999389648</ele>
        <time>2020-07-06T07:49:56.000Z</time>
      </trkpt>
      <trkpt lat="43.09191" lon="0.13776">
        <ele>507.20001220703</ele>
        <time>2020-07-06T07:49:57.000Z</time>
      </trkpt>
      <trkpt lat="43.09192" lon="0.13774">
        <ele>507</ele>
        <time>2020-07-06T07:49:59.000Z</time>
      </trkpt>
      <trkpt lat="43.09195" lon="0.13773">
        <ele>506.79998779297</ele>
        <time>2020-07-06T07:50:01.000Z</time>
      </trkpt>
      <trkpt lat="43.09197" lon="0.13773">
        <ele>506.79998779297</ele>
        <time>2020-07-06T07:50:02.000Z</time>
      </trkpt>
      <trkpt lat="43.09208" lon="0.13767">
        <ele>506.60000610352</ele>
        <time>2020-07-06T07:50:06.000Z</time>
      </trkpt>
      <trkpt lat="43.0921" lon="0.13766">
        <ele>506.60000610352</ele>
        <time>2020-07-06T07:50:12.000Z</time>
      </trkpt>
      <trkpt lat="43.09216" lon="0.13765">
        <ele>506.39999389648</ele>
        <time>2020-07-06T07:50:15.000Z</time>
      </trkpt>
      <trkpt lat="43.09218" lon="0.13764">
        <ele>506.39999389648</ele>
        <time>2020-07-06T07:50:20.000Z</time>
      </trkpt>
      <trkpt lat="43.09224" lon="0.13761">
        <ele>506.20001220703</ele>
        <time>2020-07-06T07:50:36.000Z</time>
      </trkpt>
      <trkpt lat="43.09225" lon="0.13761">
        <ele>506.20001220703</ele>
        <time>2020-07-06T07:50:38.000Z</time>
      </trkpt>
      <trkpt lat="43.09231" lon="0.13758">
        <ele>506</ele>
        <time>2020-07-06T07:50:42.000Z</time>
      </trkpt>
      <trkpt lat="43.09237" lon="0.13756">
        <ele>505.79998779297</ele>
        <time>2020-07-06T07:50:49.000Z</time>
      </trkpt>
      <trkpt lat="43.09238" lon="0.13755">
        <ele>505.79998779297</ele>
        <time>2020-07-06T07:50:57.000Z</time>
      </trkpt>
      <trkpt lat="43.09238" lon="0.13755">
        <ele>505.79998779297</ele>
        <time>2020-07-06T07:50:58.000Z</time>
      </trkpt>
      <trkpt lat="43.0924" lon="0.13754">
        <ele>505.79998779297</ele>
        <time>2020-07-06T07:51:04.000Z</time>
      </trkpt>
      <trkpt lat="43.09269" lon="0.13751">
        <ele>506.39999389648</ele>
        <time>2020-07-06T07:51:14.000Z</time>
      </trkpt>
      <trkpt lat="43.09292" lon="0.1375">
        <ele>507</ele>
        <time>2020-07-06T07:51:22.000Z</time>
      </trkpt>
      <trkpt lat="43.09295" lon="0.1375">
        <ele>507.20001220703</ele>
        <time>2020-07-06T07:51:23.000Z</time>
      </trkpt>
      <trkpt lat="43.09303" lon="0.13749">
        <ele>507.39999389648</ele>
        <time>2020-07-06T07:51:26.000Z</time>
      </trkpt>
      <trkpt lat="43.09303" lon="0.13749">
        <ele>507.60000610352</ele>
        <time>2020-07-06T07:51:28.000Z</time>
      </trkpt>
      <trkpt lat="43.09318" lon="0.13747">
        <ele>507.39999389648</ele>
        <time>2020-07-06T07:51:37.000Z</time>
      </trkpt>
      <trkpt lat="43.09334" lon="0.13747">
        <ele>507.79998779297</ele>
        <time>2020-07-06T07:51:48.000Z</time>
      </trkpt>
      <trkpt lat="43.09334" lon="0.13747">
        <ele>507.79998779297</ele>
        <time>2020-07-06T07:51:58.000Z</time>
      </trkpt>
      <trkpt lat="43.09334" lon="0.13747">
        <ele>507.60000610352</ele>
        <time>2020-07-06T07:52:06.000Z</time>
      </trkpt>
      <trkpt lat="43.09334" lon="0.13747">
        <ele>507.79998779297</ele>
        <time>2020-07-06T07:53:22.000Z</time>
      </trkpt>
      <trkpt lat="43.09336" lon="0.13747">
        <ele>507.39999389648</ele>
        <time>2020-07-06T07:53:30.000Z</time>
      </trkpt>
      <trkpt lat="43.09345" lon="0.13745">
        <ele>508</ele>
        <time>2020-07-06T07:53:37.000Z</time>
      </trkpt>
      <trkpt lat="43.09354" lon="0.13744">
        <ele>508.20001220703</ele>
        <time>2020-07-06T07:53:41.000Z</time>
      </trkpt>
      <trkpt lat="43.09354" lon="0.13744">
        <ele>508.20001220703</ele>
        <time>2020-07-06T07:53:43.000Z</time>
      </trkpt>
      <trkpt lat="43.09357" lon="0.13743">
        <ele>508.39999389648</ele>
        <time>2020-07-06T07:53:51.000Z</time>
      </trkpt>
      <trkpt lat="43.09359" lon="0.13743">
        <ele>507.60000610352</ele>
        <time>2020-07-06T07:54:00.000Z</time>
      </trkpt>
      <trkpt lat="43.09363" lon="0.13743">
        <ele>506.39999389648</ele>
        <time>2020-07-06T07:54:14.000Z</time>
      </trkpt>
      <trkpt lat="43.09374" lon="0.1374">
        <ele>505.20001220703</ele>
        <time>2020-07-06T07:54:23.000Z</time>
      </trkpt>
      <trkpt lat="43.09382" lon="0.13737">
        <ele>505</ele>
        <time>2020-07-06T07:54:27.000Z</time>
      </trkpt>
      <trkpt lat="43.09393" lon="0.13736">
        <ele>505</ele>
        <time>2020-07-06T07:54:37.000Z</time>
      </trkpt>
      <trkpt lat="43.09405" lon="0.13734">
        <ele>504.79998779297</ele>
        <time>2020-07-06T07:54:48.000Z</time>
      </trkpt>
      <trkpt lat="43.09409" lon="0.13734">
        <ele>504.79998779297</ele>
        <time>2020-07-06T07:54:57.000Z</time>
      </trkpt>
      <trkpt lat="43.09416" lon="0.13733">
        <ele>504.79998779297</ele>
        <time>2020-07-06T07:55:25.000Z</time>
      </trkpt>
      <trkpt lat="43.09426" lon="0.13732">
        <ele>504.39999389648</ele>
        <time>2020-07-06T07:55:55.000Z</time>
      </trkpt>
      <trkpt lat="43.09427" lon="0.13731">
        <ele>504.39999389648</ele>
        <time>2020-07-06T07:55:56.000Z</time>
      </trkpt>
      <trkpt lat="43.09434" lon="0.1373">
        <ele>504.39999389648</ele>
        <time>2020-07-06T07:55:59.000Z</time>
      </trkpt>
      <trkpt lat="43.09446" lon="0.13727">
        <ele>504.39999389648</ele>
        <time>2020-07-06T07:56:07.000Z</time>
      </trkpt>
      <trkpt lat="43.09453" lon="0.13729">
        <ele>504.39999389648</ele>
        <time>2020-07-06T07:56:16.000Z</time>
      </trkpt>
      <trkpt lat="43.09467" lon="0.13728">
        <ele>504.60000610352</ele>
        <time>2020-07-06T07:56:23.000Z</time>
      </trkpt>
      <trkpt lat="43.09483" lon="0.1373">
        <ele>504.60000610352</ele>
        <time>2020-07-06T07:56:31.000Z</time>
      </trkpt>
      <trkpt lat="43.09498" lon="0.13732">
        <ele>504.79998779297</ele>
        <time>2020-07-06T07:56:38.000Z</time>
      </trkpt>
      <trkpt lat="43.09503" lon="0.13741">
        <ele>505</ele>
        <time>2020-07-06T07:56:42.000Z</time>
      </trkpt>
      <trkpt lat="43.09505" lon="0.13743">
        <ele>504.79998779297</ele>
        <time>2020-07-06T07:56:44.000Z</time>
      </trkpt>
      <trkpt lat="43.09507" lon="0.13749">
        <ele>505.60000610352</ele>
        <time>2020-07-06T07:56:51.000Z</time>
      </trkpt>
      <trkpt lat="43.09507" lon="0.13752">
        <ele>506.20001220703</ele>
        <time>2020-07-06T07:57:18.000Z</time>
      </trkpt>
      <trkpt lat="43.09508" lon="0.13754">
        <ele>506.20001220703</ele>
        <time>2020-07-06T07:57:21.000Z</time>
      </trkpt>
      <trkpt lat="43.09508" lon="0.13757">
        <ele>506.20001220703</ele>
        <time>2020-07-06T07:57:24.000Z</time>
      </trkpt>
      <trkpt lat="43.09507" lon="0.13758">
        <ele>506</ele>
        <time>2020-07-06T07:57:31.000Z</time>
      </trkpt>
      <trkpt lat="43.09508" lon="0.13764">
        <ele>506</ele>
        <time>2020-07-06T07:57:36.000Z</time>
      </trkpt>
      <trkpt lat="43.09507" lon="0.13773">
        <ele>506.20001220703</ele>
        <time>2020-07-06T07:57:41.000Z</time>
      </trkpt>
      <trkpt lat="43.09506" lon="0.13775">
        <ele>506.39999389648</ele>
        <time>2020-07-06T07:57:43.000Z</time>
      </trkpt>
      <trkpt lat="43.09506" lon="0.13777">
        <ele>506.60000610352</ele>
        <time>2020-07-06T07:57:44.000Z</time>
      </trkpt>
      <trkpt lat="43.09506" lon="0.13778">
        <ele>506.60000610352</ele>
        <time>2020-07-06T07:57:45.000Z</time>
      </trkpt>
      <trkpt lat="43.09506" lon="0.13783">
        <ele>507</ele>
        <time>2020-07-06T07:57:50.000Z</time>
      </trkpt>
      <trkpt lat="43.09506" lon="0.13783">
        <ele>507.39999389648</ele>
        <time>2020-07-06T07:57:57.000Z</time>
      </trkpt>
      <trkpt lat="43.09505" lon="0.13786">
        <ele>507.79998779297</ele>
        <time>2020-07-06T07:58:08.000Z</time>
      </trkpt>
      <trkpt lat="43.09506" lon="0.13789">
        <ele>507.79998779297</ele>
        <time>2020-07-06T07:58:10.000Z</time>
      </trkpt>
      <trkpt lat="43.09507" lon="0.1379">
        <ele>507.60000610352</ele>
        <time>2020-07-06T07:58:21.000Z</time>
      </trkpt>
      <trkpt lat="43.09512" lon="0.13798">
        <ele>507.79998779297</ele>
        <time>2020-07-06T07:58:25.000Z</time>
      </trkpt>
      <trkpt lat="43.09515" lon="0.13804">
        <ele>508</ele>
        <time>2020-07-06T07:58:27.000Z</time>
      </trkpt>
      <trkpt lat="43.09521" lon="0.13816">
        <ele>508.39999389648</ele>
        <time>2020-07-06T07:58:35.000Z</time>
      </trkpt>
      <trkpt lat="43.09521" lon="0.13816">
        <ele>508.79998779297</ele>
        <time>2020-07-06T07:59:01.000Z</time>
      </trkpt>
      <trkpt lat="43.09523" lon="0.13818">
        <ele>508.79998779297</ele>
        <time>2020-07-06T08:01:00.000Z</time>
      </trkpt>
      <trkpt lat="43.09525" lon="0.1382">
        <ele>508.79998779297</ele>
        <time>2020-07-06T08:01:02.000Z</time>
      </trkpt>
      <trkpt lat="43.09529" lon="0.13823">
        <ele>509</ele>
        <time>2020-07-06T08:01:05.000Z</time>
      </trkpt>
      <trkpt lat="43.09532" lon="0.13825">
        <ele>509.60000610352</ele>
        <time>2020-07-06T08:01:10.000Z</time>
      </trkpt>
      <trkpt lat="43.09535" lon="0.1383">
        <ele>510</ele>
        <time>2020-07-06T08:01:16.000Z</time>
      </trkpt>
      <trkpt lat="43.09536" lon="0.13832">
        <ele>510.20001220703</ele>
        <time>2020-07-06T08:01:17.000Z</time>
      </trkpt>
      <trkpt lat="43.09538" lon="0.13836">
        <ele>510.20001220703</ele>
        <time>2020-07-06T08:01:19.000Z</time>
      </trkpt>
      <trkpt lat="43.09539" lon="0.13838">
        <ele>510.20001220703</ele>
        <time>2020-07-06T08:01:20.000Z</time>
      </trkpt>
      <trkpt lat="43.09542" lon="0.1384">
        <ele>510.60000610352</ele>
        <time>2020-07-06T08:01:23.000Z</time>
      </trkpt>
      <trkpt lat="43.09544" lon="0.1384">
        <ele>511.20001220703</ele>
        <time>2020-07-06T08:01:28.000Z</time>
      </trkpt>
      <trkpt lat="43.09546" lon="0.13839">
        <ele>511.39999389648</ele>
        <time>2020-07-06T08:01:29.000Z</time>
      </trkpt>
      <trkpt lat="43.09548" lon="0.13839">
        <ele>511.39999389648</ele>
        <time>2020-07-06T08:01:30.000Z</time>
      </trkpt>
      <trkpt lat="43.09564" lon="0.13832">
        <ele>511.39999389648</ele>
        <time>2020-07-06T08:01:36.000Z</time>
      </trkpt>
      <trkpt lat="43.09573" lon="0.13829">
        <ele>511.39999389648</ele>
        <time>2020-07-06T08:01:38.000Z</time>
      </trkpt>
      <trkpt lat="43.09583" lon="0.13823">
        <ele>511.39999389648</ele>
        <time>2020-07-06T08:01:40.000Z</time>
      </trkpt>
      <trkpt lat="43.09605" lon="0.13811">
        <ele>511.39999389648</ele>
        <time>2020-07-06T08:01:44.000Z</time>
      </trkpt>
      <trkpt lat="43.09612" lon="0.13808">
        <ele>511.39999389648</ele>
        <time>2020-07-06T08:01:45.000Z</time>
      </trkpt>
      <trkpt lat="43.09652" lon="0.13795">
        <ele>511</ele>
        <time>2020-07-06T08:01:51.000Z</time>
      </trkpt>
      <trkpt lat="43.09658" lon="0.13794">
        <ele>511</ele>
        <time>2020-07-06T08:01:52.000Z</time>
      </trkpt>
      <trkpt lat="43.0968" lon="0.13789">
        <ele>510.79998779297</ele>
        <time>2020-07-06T08:01:55.000Z</time>
      </trkpt>
      <trkpt lat="43.09687" lon="0.13787">
        <ele>510.79998779297</ele>
        <time>2020-07-06T08:01:56.000Z</time>
      </trkpt>
      <trkpt lat="43.09711" lon="0.13781">
        <ele>510.60000610352</ele>
        <time>2020-07-06T08:01:59.000Z</time>
      </trkpt>
      <trkpt lat="43.09762" lon="0.13779">
        <ele>510.60000610352</ele>
        <time>2020-07-06T08:02:05.000Z</time>
      </trkpt>
      <trkpt lat="43.09778" lon="0.13777">
        <ele>510.60000610352</ele>
        <time>2020-07-06T08:02:07.000Z</time>
      </trkpt>
      <trkpt lat="43.09793" lon="0.13772">
        <ele>510.60000610352</ele>
        <time>2020-07-06T08:02:09.000Z</time>
      </trkpt>
      <trkpt lat="43.09808" lon="0.13762">
        <ele>510.60000610352</ele>
        <time>2020-07-06T08:02:11.000Z</time>
      </trkpt>
      <trkpt lat="43.09814" lon="0.13755">
        <ele>510.39999389648</ele>
        <time>2020-07-06T08:02:12.000Z</time>
      </trkpt>
      <trkpt lat="43.09835" lon="0.13733">
        <ele>510.39999389648</ele>
        <time>2020-07-06T08:02:15.000Z</time>
      </trkpt>
      <trkpt lat="43.0985" lon="0.13722">
        <ele>510.20001220703</ele>
        <time>2020-07-06T08:02:17.000Z</time>
      </trkpt>
      <trkpt lat="43.09891" lon="0.13702">
        <ele>510</ele>
        <time>2020-07-06T08:02:22.000Z</time>
      </trkpt>
      <trkpt lat="43.09898" lon="0.13698">
        <ele>510</ele>
        <time>2020-07-06T08:02:23.000Z</time>
      </trkpt>
      <trkpt lat="43.09925" lon="0.13674">
        <ele>509.79998779297</ele>
        <time>2020-07-06T08:02:27.000Z</time>
      </trkpt>
      <trkpt lat="43.09931" lon="0.13668">
        <ele>509.79998779297</ele>
        <time>2020-07-06T08:02:28.000Z</time>
      </trkpt>
      <trkpt lat="43.09945" lon="0.13663">
        <ele>509.79998779297</ele>
        <time>2020-07-06T08:02:30.000Z</time>
      </trkpt>
      <trkpt lat="43.0997" lon="0.13661">
        <ele>509.60000610352</ele>
        <time>2020-07-06T08:02:33.000Z</time>
      </trkpt>
      <trkpt lat="43.09979" lon="0.13659">
        <ele>509.39999389648</ele>
        <time>2020-07-06T08:02:34.000Z</time>
      </trkpt>
      <trkpt lat="43.09988" lon="0.13656">
        <ele>509.20001220703</ele>
        <time>2020-07-06T08:02:35.000Z</time>
      </trkpt>
      <trkpt lat="43.09996" lon="0.13651">
        <ele>509</ele>
        <time>2020-07-06T08:02:36.000Z</time>
      </trkpt>
      <trkpt lat="43.10012" lon="0.13642">
        <ele>508.20001220703</ele>
        <time>2020-07-06T08:02:38.000Z</time>
      </trkpt>
      <trkpt lat="43.1002" lon="0.13636">
        <ele>507.79998779297</ele>
        <time>2020-07-06T08:02:39.000Z</time>
      </trkpt>
      <trkpt lat="43.10044" lon="0.13618">
        <ele>506.60000610352</ele>
        <time>2020-07-06T08:02:42.000Z</time>
      </trkpt>
      <trkpt lat="43.10061" lon="0.13606">
        <ele>505.60000610352</ele>
        <time>2020-07-06T08:02:44.000Z</time>
      </trkpt>
      <trkpt lat="43.1007" lon="0.13599">
        <ele>505.39999389648</ele>
        <time>2020-07-06T08:02:45.000Z</time>
      </trkpt>
      <trkpt lat="43.10089" lon="0.13585">
        <ele>504</ele>
        <time>2020-07-06T08:02:47.000Z</time>
      </trkpt>
      <trkpt lat="43.10108" lon="0.13573">
        <ele>502.39999389648</ele>
        <time>2020-07-06T08:02:49.000Z</time>
      </trkpt>
      <trkpt lat="43.10117" lon="0.13569">
        <ele>502</ele>
        <time>2020-07-06T08:02:50.000Z</time>
      </trkpt>
      <trkpt lat="43.10127" lon="0.13566">
        <ele>501.20001220703</ele>
        <time>2020-07-06T08:02:51.000Z</time>
      </trkpt>
      <trkpt lat="43.10136" lon="0.13567">
        <ele>500.79998779297</ele>
        <time>2020-07-06T08:02:52.000Z</time>
      </trkpt>
      <trkpt lat="43.10144" lon="0.13569">
        <ele>500</ele>
        <time>2020-07-06T08:02:53.000Z</time>
      </trkpt>
      <trkpt lat="43.10152" lon="0.13571">
        <ele>499</ele>
        <time>2020-07-06T08:02:54.000Z</time>
      </trkpt>
      <trkpt lat="43.10159" lon="0.13571">
        <ele>498.60000610352</ele>
        <time>2020-07-06T08:02:55.000Z</time>
      </trkpt>
      <trkpt lat="43.10165" lon="0.13569">
        <ele>498.20001220703</ele>
        <time>2020-07-06T08:02:56.000Z</time>
      </trkpt>
      <trkpt lat="43.10174" lon="0.13557">
        <ele>497.60000610352</ele>
        <time>2020-07-06T08:02:58.000Z</time>
      </trkpt>
      <trkpt lat="43.10177" lon="0.13542">
        <ele>497</ele>
        <time>2020-07-06T08:03:01.000Z</time>
      </trkpt>
      <trkpt lat="43.10177" lon="0.13541">
        <ele>496.60000610352</ele>
        <time>2020-07-06T08:03:04.000Z</time>
      </trkpt>
      <trkpt lat="43.10177" lon="0.13541">
        <ele>496.39999389648</ele>
        <time>2020-07-06T08:03:05.000Z</time>
      </trkpt>
      <trkpt lat="43.10174" lon="0.13534">
        <ele>496.20001220703</ele>
        <time>2020-07-06T08:03:43.000Z</time>
      </trkpt>
      <trkpt lat="43.10163" lon="0.13521">
        <ele>496.20001220703</ele>
        <time>2020-07-06T08:03:47.000Z</time>
      </trkpt>
      <trkpt lat="43.10139" lon="0.13508">
        <ele>496.20001220703</ele>
        <time>2020-07-06T08:03:52.000Z</time>
      </trkpt>
      <trkpt lat="43.10129" lon="0.135">
        <ele>496.20001220703</ele>
        <time>2020-07-06T08:03:54.000Z</time>
      </trkpt>
      <trkpt lat="43.10118" lon="0.13485">
        <ele>496</ele>
        <time>2020-07-06T08:03:57.000Z</time>
      </trkpt>
      <trkpt lat="43.10095" lon="0.13451">
        <ele>495.20001220703</ele>
        <time>2020-07-06T08:04:03.000Z</time>
      </trkpt>
      <trkpt lat="43.10092" lon="0.13445">
        <ele>494.79998779297</ele>
        <time>2020-07-06T08:04:04.000Z</time>
      </trkpt>
      <trkpt lat="43.10072" lon="0.13413">
        <ele>494.39999389648</ele>
        <time>2020-07-06T08:04:10.000Z</time>
      </trkpt>
      <trkpt lat="43.10053" lon="0.13384">
        <ele>494.20001220703</ele>
        <time>2020-07-06T08:04:15.000Z</time>
      </trkpt>
      <trkpt lat="43.10048" lon="0.13371">
        <ele>494.20001220703</ele>
        <time>2020-07-06T08:04:17.000Z</time>
      </trkpt>
      <trkpt lat="43.10044" lon="0.13356">
        <ele>494.20001220703</ele>
        <time>2020-07-06T08:04:19.000Z</time>
      </trkpt>
      <trkpt lat="43.10043" lon="0.13349">
        <ele>494</ele>
        <time>2020-07-06T08:04:20.000Z</time>
      </trkpt>
      <trkpt lat="43.10043" lon="0.13334">
        <ele>493.79998779297</ele>
        <time>2020-07-06T08:04:22.000Z</time>
      </trkpt>
      <trkpt lat="43.10043" lon="0.13317">
        <ele>493.60000610352</ele>
        <time>2020-07-06T08:04:26.000Z</time>
      </trkpt>
      <trkpt lat="43.10046" lon="0.13305">
        <ele>493.60000610352</ele>
        <time>2020-07-06T08:04:31.000Z</time>
      </trkpt>
      <trkpt lat="43.10054" lon="0.1329">
        <ele>493.39999389648</ele>
        <time>2020-07-06T08:04:34.000Z</time>
      </trkpt>
      <trkpt lat="43.10057" lon="0.13285">
        <ele>493.39999389648</ele>
        <time>2020-07-06T08:04:35.000Z</time>
      </trkpt>
      <trkpt lat="43.10061" lon="0.13279">
        <ele>493.20001220703</ele>
        <time>2020-07-06T08:04:36.000Z</time>
      </trkpt>
      <trkpt lat="43.10069" lon="0.13268">
        <ele>493</ele>
        <time>2020-07-06T08:04:38.000Z</time>
      </trkpt>
      <trkpt lat="43.10079" lon="0.13258">
        <ele>492.39999389648</ele>
        <time>2020-07-06T08:04:40.000Z</time>
      </trkpt>
      <trkpt lat="43.10084" lon="0.13252">
        <ele>492.20001220703</ele>
        <time>2020-07-06T08:04:41.000Z</time>
      </trkpt>
      <trkpt lat="43.10118" lon="0.13216">
        <ele>491.79998779297</ele>
        <time>2020-07-06T08:04:47.000Z</time>
      </trkpt>
      <trkpt lat="43.10144" lon="0.13183">
        <ele>491</ele>
        <time>2020-07-06T08:04:52.000Z</time>
      </trkpt>
      <trkpt lat="43.10148" lon="0.13175">
        <ele>490.79998779297</ele>
        <time>2020-07-06T08:04:53.000Z</time>
      </trkpt>
      <trkpt lat="43.10168" lon="0.13149">
        <ele>490</ele>
        <time>2020-07-06T08:04:57.000Z</time>
      </trkpt>
      <trkpt lat="43.10179" lon="0.13136">
        <ele>489.79998779297</ele>
        <time>2020-07-06T08:04:59.000Z</time>
      </trkpt>
      <trkpt lat="43.10185" lon="0.13131">
        <ele>489.79998779297</ele>
        <time>2020-07-06T08:05:00.000Z</time>
      </trkpt>
      <trkpt lat="43.10212" lon="0.13113">
        <ele>488.79998779297</ele>
        <time>2020-07-06T08:05:04.000Z</time>
      </trkpt>
      <trkpt lat="43.10226" lon="0.13105">
        <ele>488.39999389648</ele>
        <time>2020-07-06T08:05:06.000Z</time>
      </trkpt>
      <trkpt lat="43.1024" lon="0.13097">
        <ele>487.79998779297</ele>
        <time>2020-07-06T08:05:08.000Z</time>
      </trkpt>
      <trkpt lat="43.10267" lon="0.13081">
        <ele>487.39999389648</ele>
        <time>2020-07-06T08:05:12.000Z</time>
      </trkpt>
      <trkpt lat="43.10307" lon="0.13054">
        <ele>487.20001220703</ele>
        <time>2020-07-06T08:05:18.000Z</time>
      </trkpt>
      <trkpt lat="43.10331" lon="0.13029">
        <ele>487.20001220703</ele>
        <time>2020-07-06T08:05:22.000Z</time>
      </trkpt>
      <trkpt lat="43.10345" lon="0.13019">
        <ele>487</ele>
        <time>2020-07-06T08:05:24.000Z</time>
      </trkpt>
      <trkpt lat="43.10367" lon="0.1301">
        <ele>485.79998779297</ele>
        <time>2020-07-06T08:05:27.000Z</time>
      </trkpt>
      <trkpt lat="43.10381" lon="0.13004">
        <ele>485.20001220703</ele>
        <time>2020-07-06T08:05:29.000Z</time>
      </trkpt>
      <trkpt lat="43.10415" lon="0.12991">
        <ele>484.60000610352</ele>
        <time>2020-07-06T08:05:34.000Z</time>
      </trkpt>
      <trkpt lat="43.10427" lon="0.12984">
        <ele>484.20001220703</ele>
        <time>2020-07-06T08:05:36.000Z</time>
      </trkpt>
      <trkpt lat="43.10445" lon="0.12973">
        <ele>483.79998779297</ele>
        <time>2020-07-06T08:05:39.000Z</time>
      </trkpt>
      <trkpt lat="43.10456" lon="0.12962">
        <ele>483.60000610352</ele>
        <time>2020-07-06T08:05:41.000Z</time>
      </trkpt>
      <trkpt lat="43.10461" lon="0.12956">
        <ele>483.39999389648</ele>
        <time>2020-07-06T08:05:42.000Z</time>
      </trkpt>
      <trkpt lat="43.10467" lon="0.12951">
        <ele>483.39999389648</ele>
        <time>2020-07-06T08:05:43.000Z</time>
      </trkpt>
      <trkpt lat="43.10479" lon="0.12945">
        <ele>483.39999389648</ele>
        <time>2020-07-06T08:05:45.000Z</time>
      </trkpt>
      <trkpt lat="43.10517" lon="0.12923">
        <ele>483</ele>
        <time>2020-07-06T08:05:51.000Z</time>
      </trkpt>
      <trkpt lat="43.10546" lon="0.12903">
        <ele>482.39999389648</ele>
        <time>2020-07-06T08:05:56.000Z</time>
      </trkpt>
      <trkpt lat="43.10559" lon="0.12899">
        <ele>482.39999389648</ele>
        <time>2020-07-06T08:05:58.000Z</time>
      </trkpt>
      <trkpt lat="43.10566" lon="0.12898">
        <ele>482.39999389648</ele>
        <time>2020-07-06T08:05:59.000Z</time>
      </trkpt>
      <trkpt lat="43.10597" lon="0.12897">
        <ele>482.39999389648</ele>
        <time>2020-07-06T08:06:04.000Z</time>
      </trkpt>
      <trkpt lat="43.10618" lon="0.12891">
        <ele>482.39999389648</ele>
        <time>2020-07-06T08:06:08.000Z</time>
      </trkpt>
      <trkpt lat="43.10628" lon="0.1289">
        <ele>482.60000610352</ele>
        <time>2020-07-06T08:06:10.000Z</time>
      </trkpt>
      <trkpt lat="43.10638" lon="0.12884">
        <ele>482.60000610352</ele>
        <time>2020-07-06T08:06:12.000Z</time>
      </trkpt>
      <trkpt lat="43.10664" lon="0.12858">
        <ele>482.60000610352</ele>
        <time>2020-07-06T08:06:17.000Z</time>
      </trkpt>
      <trkpt lat="43.10704" lon="0.12812">
        <ele>482.20001220703</ele>
        <time>2020-07-06T08:06:25.000Z</time>
      </trkpt>
      <trkpt lat="43.10743" lon="0.12768">
        <ele>482</ele>
        <time>2020-07-06T08:06:33.000Z</time>
      </trkpt>
      <trkpt lat="43.10776" lon="0.12729">
        <ele>481.60000610352</ele>
        <time>2020-07-06T08:06:40.000Z</time>
      </trkpt>
      <trkpt lat="43.10781" lon="0.12724">
        <ele>481.39999389648</ele>
        <time>2020-07-06T08:06:41.000Z</time>
      </trkpt>
      <trkpt lat="43.10789" lon="0.12713">
        <ele>481.60000610352</ele>
        <time>2020-07-06T08:06:43.000Z</time>
      </trkpt>
      <trkpt lat="43.10793" lon="0.12702">
        <ele>481.60000610352</ele>
        <time>2020-07-06T08:06:45.000Z</time>
      </trkpt>
      <trkpt lat="43.10802" lon="0.12672">
        <ele>481.60000610352</ele>
        <time>2020-07-06T08:06:50.000Z</time>
      </trkpt>
      <trkpt lat="43.10805" lon="0.12665">
        <ele>481.39999389648</ele>
        <time>2020-07-06T08:06:51.000Z</time>
      </trkpt>
      <trkpt lat="43.1082" lon="0.12629">
        <ele>480.39999389648</ele>
        <time>2020-07-06T08:06:55.000Z</time>
      </trkpt>
      <trkpt lat="43.10824" lon="0.1262">
        <ele>479.20001220703</ele>
        <time>2020-07-06T08:06:56.000Z</time>
      </trkpt>
      <trkpt lat="43.10831" lon="0.12604">
        <ele>477.39999389648</ele>
        <time>2020-07-06T08:06:58.000Z</time>
      </trkpt>
      <trkpt lat="43.10839" lon="0.12586">
        <ele>476.60000610352</ele>
        <time>2020-07-06T08:07:00.000Z</time>
      </trkpt>
      <trkpt lat="43.10844" lon="0.12578">
        <ele>476.60000610352</ele>
        <time>2020-07-06T08:07:01.000Z</time>
      </trkpt>
      <trkpt lat="43.1086" lon="0.12556">
        <ele>476.60000610352</ele>
        <time>2020-07-06T08:07:04.000Z</time>
      </trkpt>
      <trkpt lat="43.10865" lon="0.12552">
        <ele>476.79998779297</ele>
        <time>2020-07-06T08:07:05.000Z</time>
      </trkpt>
      <trkpt lat="43.10872" lon="0.12547">
        <ele>477</ele>
        <time>2020-07-06T08:07:06.000Z</time>
      </trkpt>
      <trkpt lat="43.10893" lon="0.12537">
        <ele>477.39999389648</ele>
        <time>2020-07-06T08:07:09.000Z</time>
      </trkpt>
      <trkpt lat="43.10946" lon="0.12515">
        <ele>477.79998779297</ele>
        <time>2020-07-06T08:07:16.000Z</time>
      </trkpt>
      <trkpt lat="43.10961" lon="0.12509">
        <ele>477.39999389648</ele>
        <time>2020-07-06T08:07:18.000Z</time>
      </trkpt>
      <trkpt lat="43.10976" lon="0.12501">
        <ele>477.20001220703</ele>
        <time>2020-07-06T08:07:20.000Z</time>
      </trkpt>
      <trkpt lat="43.1099" lon="0.12487">
        <ele>477</ele>
        <time>2020-07-06T08:07:22.000Z</time>
      </trkpt>
      <trkpt lat="43.11009" lon="0.12467">
        <ele>476.60000610352</ele>
        <time>2020-07-06T08:07:25.000Z</time>
      </trkpt>
      <trkpt lat="43.11028" lon="0.12448">
        <ele>476.39999389648</ele>
        <time>2020-07-06T08:07:28.000Z</time>
      </trkpt>
      <trkpt lat="43.11033" lon="0.12442">
        <ele>476.39999389648</ele>
        <time>2020-07-06T08:07:29.000Z</time>
      </trkpt>
      <trkpt lat="43.11072" lon="0.12398">
        <ele>476</ele>
        <time>2020-07-06T08:07:36.000Z</time>
      </trkpt>
      <trkpt lat="43.1111" lon="0.12352">
        <ele>475.60000610352</ele>
        <time>2020-07-06T08:07:43.000Z</time>
      </trkpt>
      <trkpt lat="43.11141" lon="0.1232">
        <ele>475.20001220703</ele>
        <time>2020-07-06T08:07:49.000Z</time>
      </trkpt>
      <trkpt lat="43.11159" lon="0.12299">
        <ele>474.20001220703</ele>
        <time>2020-07-06T08:07:53.000Z</time>
      </trkpt>
      <trkpt lat="43.11164" lon="0.12293">
        <ele>474.20001220703</ele>
        <time>2020-07-06T08:07:54.000Z</time>
      </trkpt>
      <trkpt lat="43.11168" lon="0.12288">
        <ele>474</ele>
        <time>2020-07-06T08:07:55.000Z</time>
      </trkpt>
      <trkpt lat="43.11185" lon="0.12264">
        <ele>472.79998779297</ele>
        <time>2020-07-06T08:07:59.000Z</time>
      </trkpt>
      <trkpt lat="43.1121" lon="0.12232">
        <ele>472</ele>
        <time>2020-07-06T08:08:04.000Z</time>
      </trkpt>
      <trkpt lat="43.11222" lon="0.12221">
        <ele>471.39999389648</ele>
        <time>2020-07-06T08:08:06.000Z</time>
      </trkpt>
      <trkpt lat="43.11249" lon="0.12191">
        <ele>470.60000610352</ele>
        <time>2020-07-06T08:08:11.000Z</time>
      </trkpt>
      <trkpt lat="43.11288" lon="0.12153">
        <ele>470.39999389648</ele>
        <time>2020-07-06T08:08:18.000Z</time>
      </trkpt>
      <trkpt lat="43.11338" lon="0.12111">
        <ele>469.60000610352</ele>
        <time>2020-07-06T08:08:27.000Z</time>
      </trkpt>
      <trkpt lat="43.11343" lon="0.12107">
        <ele>469.20001220703</ele>
        <time>2020-07-06T08:08:28.000Z</time>
      </trkpt>
      <trkpt lat="43.11372" lon="0.12082">
        <ele>468.60000610352</ele>
        <time>2020-07-06T08:08:33.000Z</time>
      </trkpt>
      <trkpt lat="43.11397" lon="0.12067">
        <ele>468</ele>
        <time>2020-07-06T08:08:37.000Z</time>
      </trkpt>
      <trkpt lat="43.11417" lon="0.1206">
        <ele>467.60000610352</ele>
        <time>2020-07-06T08:08:40.000Z</time>
      </trkpt>
      <trkpt lat="43.11429" lon="0.12055">
        <ele>467.39999389648</ele>
        <time>2020-07-06T08:08:42.000Z</time>
      </trkpt>
      <trkpt lat="43.11445" lon="0.12044">
        <ele>467</ele>
        <time>2020-07-06T08:08:45.000Z</time>
      </trkpt>
      <trkpt lat="43.11452" lon="0.12039">
        <ele>467</ele>
        <time>2020-07-06T08:08:46.000Z</time>
      </trkpt>
      <trkpt lat="43.11476" lon="0.12025">
        <ele>466.39999389648</ele>
        <time>2020-07-06T08:08:50.000Z</time>
      </trkpt>
      <trkpt lat="43.11491" lon="0.12019">
        <ele>466.20001220703</ele>
        <time>2020-07-06T08:08:52.000Z</time>
      </trkpt>
      <trkpt lat="43.11502" lon="0.12016">
        <ele>465.79998779297</ele>
        <time>2020-07-06T08:08:54.000Z</time>
      </trkpt>
      <trkpt lat="43.11527" lon="0.12008">
        <ele>465.39999389648</ele>
        <time>2020-07-06T08:08:58.000Z</time>
      </trkpt>
      <trkpt lat="43.11577" lon="0.11991">
        <ele>466</ele>
        <time>2020-07-06T08:09:06.000Z</time>
      </trkpt>
      <trkpt lat="43.11622" lon="0.11975">
        <ele>466.79998779297</ele>
        <time>2020-07-06T08:09:14.000Z</time>
      </trkpt>
      <trkpt lat="43.11672" lon="0.11955">
        <ele>466.20001220703</ele>
        <time>2020-07-06T08:09:22.000Z</time>
      </trkpt>
      <trkpt lat="43.11727" lon="0.11934">
        <ele>465.79998779297</ele>
        <time>2020-07-06T08:09:31.000Z</time>
      </trkpt>
      <trkpt lat="43.11757" lon="0.11922">
        <ele>465</ele>
        <time>2020-07-06T08:09:36.000Z</time>
      </trkpt>
      <trkpt lat="43.11762" lon="0.11921">
        <ele>464.79998779297</ele>
        <time>2020-07-06T08:09:37.000Z</time>
      </trkpt>
      <trkpt lat="43.11801" lon="0.11904">
        <ele>463.79998779297</ele>
        <time>2020-07-06T08:09:43.000Z</time>
      </trkpt>
      <trkpt lat="43.11853" lon="0.11883">
        <ele>463.20001220703</ele>
        <time>2020-07-06T08:09:51.000Z</time>
      </trkpt>
      <trkpt lat="43.11859" lon="0.11875">
        <ele>463.20001220703</ele>
        <time>2020-07-06T08:09:53.000Z</time>
      </trkpt>
      <trkpt lat="43.11862" lon="0.11868">
        <ele>463.20001220703</ele>
        <time>2020-07-06T08:09:54.000Z</time>
      </trkpt>
      <trkpt lat="43.11865" lon="0.11863">
        <ele>463.20001220703</ele>
        <time>2020-07-06T08:09:55.000Z</time>
      </trkpt>
      <trkpt lat="43.11877" lon="0.11842">
        <ele>463.20001220703</ele>
        <time>2020-07-06T08:09:59.000Z</time>
      </trkpt>
      <trkpt lat="43.11895" lon="0.11815">
        <ele>462.79998779297</ele>
        <time>2020-07-06T08:10:05.000Z</time>
      </trkpt>
      <trkpt lat="43.11898" lon="0.11811">
        <ele>462.39999389648</ele>
        <time>2020-07-06T08:10:06.000Z</time>
      </trkpt>
      <trkpt lat="43.11908" lon="0.11794">
        <ele>461.79998779297</ele>
        <time>2020-07-06T08:10:10.000Z</time>
      </trkpt>
      <trkpt lat="43.11923" lon="0.11771">
        <ele>462</ele>
        <time>2020-07-06T08:10:15.000Z</time>
      </trkpt>
      <trkpt lat="43.11948" lon="0.11744">
        <ele>462.39999389648</ele>
        <time>2020-07-06T08:10:22.000Z</time>
      </trkpt>
      <trkpt lat="43.11952" lon="0.11741">
        <ele>462.20001220703</ele>
        <time>2020-07-06T08:10:23.000Z</time>
      </trkpt>
      <trkpt lat="43.11956" lon="0.11737">
        <ele>462.39999389648</ele>
        <time>2020-07-06T08:10:24.000Z</time>
      </trkpt>
      <trkpt lat="43.11975" lon="0.11725">
        <ele>462</ele>
        <time>2020-07-06T08:10:28.000Z</time>
      </trkpt>
      <trkpt lat="43.11991" lon="0.11716">
        <ele>460.60000610352</ele>
        <time>2020-07-06T08:10:31.000Z</time>
      </trkpt>
      <trkpt lat="43.12003" lon="0.11711">
        <ele>460.39999389648</ele>
        <time>2020-07-06T08:10:33.000Z</time>
      </trkpt>
      <trkpt lat="43.12041" lon="0.11703">
        <ele>460</ele>
        <time>2020-07-06T08:10:40.000Z</time>
      </trkpt>
      <trkpt lat="43.12073" lon="0.11687">
        <ele>459.79998779297</ele>
        <time>2020-07-06T08:10:46.000Z</time>
      </trkpt>
      <trkpt lat="43.12115" lon="0.11663">
        <ele>459.60000610352</ele>
        <time>2020-07-06T08:10:53.000Z</time>
      </trkpt>
      <trkpt lat="43.12143" lon="0.1165">
        <ele>459.39999389648</ele>
        <time>2020-07-06T08:10:58.000Z</time>
      </trkpt>
      <trkpt lat="43.12158" lon="0.11644">
        <ele>459.20001220703</ele>
        <time>2020-07-06T08:11:01.000Z</time>
      </trkpt>
      <trkpt lat="43.12185" lon="0.11633">
        <ele>459.20001220703</ele>
        <time>2020-07-06T08:11:06.000Z</time>
      </trkpt>
      <trkpt lat="43.1219" lon="0.11631">
        <ele>459</ele>
        <time>2020-07-06T08:11:07.000Z</time>
      </trkpt>
      <trkpt lat="43.122" lon="0.11627">
        <ele>458.79998779297</ele>
        <time>2020-07-06T08:11:09.000Z</time>
      </trkpt>
      <trkpt lat="43.1221" lon="0.11623">
        <ele>458.60000610352</ele>
        <time>2020-07-06T08:11:11.000Z</time>
      </trkpt>
      <trkpt lat="43.12225" lon="0.11619">
        <ele>458.39999389648</ele>
        <time>2020-07-06T08:11:14.000Z</time>
      </trkpt>
      <trkpt lat="43.12243" lon="0.11608">
        <ele>458</ele>
        <time>2020-07-06T08:11:18.000Z</time>
      </trkpt>
      <trkpt lat="43.12252" lon="0.11603">
        <ele>458</ele>
        <time>2020-07-06T08:11:20.000Z</time>
      </trkpt>
      <trkpt lat="43.12256" lon="0.11599">
        <ele>457.79998779297</ele>
        <time>2020-07-06T08:11:21.000Z</time>
      </trkpt>
      <trkpt lat="43.12263" lon="0.11592">
        <ele>457.60000610352</ele>
        <time>2020-07-06T08:11:23.000Z</time>
      </trkpt>
      <trkpt lat="43.1227" lon="0.11585">
        <ele>457.79998779297</ele>
        <time>2020-07-06T08:11:25.000Z</time>
      </trkpt>
      <trkpt lat="43.12281" lon="0.11575">
        <ele>457.20001220703</ele>
        <time>2020-07-06T08:11:28.000Z</time>
      </trkpt>
      <trkpt lat="43.12284" lon="0.11571">
        <ele>457</ele>
        <time>2020-07-06T08:11:29.000Z</time>
      </trkpt>
      <trkpt lat="43.12294" lon="0.11558">
        <ele>456.39999389648</ele>
        <time>2020-07-06T08:11:32.000Z</time>
      </trkpt>
      <trkpt lat="43.1231" lon="0.11538">
        <ele>456.20001220703</ele>
        <time>2020-07-06T08:11:36.000Z</time>
      </trkpt>
      <trkpt lat="43.12337" lon="0.11509">
        <ele>455.79998779297</ele>
        <time>2020-07-06T08:11:42.000Z</time>
      </trkpt>
      <trkpt lat="43.12348" lon="0.11498">
        <ele>455.39999389648</ele>
        <time>2020-07-06T08:11:44.000Z</time>
      </trkpt>
      <trkpt lat="43.12371" lon="0.11476">
        <ele>454.60000610352</ele>
        <time>2020-07-06T08:11:49.000Z</time>
      </trkpt>
      <trkpt lat="43.12402" lon="0.11438">
        <ele>454.39999389648</ele>
        <time>2020-07-06T08:11:56.000Z</time>
      </trkpt>
      <trkpt lat="43.12428" lon="0.114">
        <ele>454.39999389648</ele>
        <time>2020-07-06T08:12:03.000Z</time>
      </trkpt>
      <trkpt lat="43.1244" lon="0.11396">
        <ele>454.39999389648</ele>
        <time>2020-07-06T08:12:05.000Z</time>
      </trkpt>
      <trkpt lat="43.12446" lon="0.11396">
        <ele>454.20001220703</ele>
        <time>2020-07-06T08:12:06.000Z</time>
      </trkpt>
      <trkpt lat="43.12477" lon="0.11394">
        <ele>454</ele>
        <time>2020-07-06T08:12:11.000Z</time>
      </trkpt>
      <trkpt lat="43.12488" lon="0.11389">
        <ele>453.79998779297</ele>
        <time>2020-07-06T08:12:13.000Z</time>
      </trkpt>
      <trkpt lat="43.12523" lon="0.11366">
        <ele>453.60000610352</ele>
        <time>2020-07-06T08:12:19.000Z</time>
      </trkpt>
      <trkpt lat="43.12547" lon="0.11355">
        <ele>453.39999389648</ele>
        <time>2020-07-06T08:12:23.000Z</time>
      </trkpt>
      <trkpt lat="43.12553" lon="0.11351">
        <ele>453.20001220703</ele>
        <time>2020-07-06T08:12:24.000Z</time>
      </trkpt>
      <trkpt lat="43.12565" lon="0.11342">
        <ele>453</ele>
        <time>2020-07-06T08:12:26.000Z</time>
      </trkpt>
      <trkpt lat="43.12576" lon="0.1133">
        <ele>452.60000610352</ele>
        <time>2020-07-06T08:12:28.000Z</time>
      </trkpt>
      <trkpt lat="43.12588" lon="0.11317">
        <ele>452.39999389648</ele>
        <time>2020-07-06T08:12:30.000Z</time>
      </trkpt>
      <trkpt lat="43.12598" lon="0.11302">
        <ele>452.20001220703</ele>
        <time>2020-07-06T08:12:32.000Z</time>
      </trkpt>
      <trkpt lat="43.12641" lon="0.11243">
        <ele>452</ele>
        <time>2020-07-06T08:12:40.000Z</time>
      </trkpt>
      <trkpt lat="43.12648" lon="0.11236">
        <ele>451.79998779297</ele>
        <time>2020-07-06T08:12:41.000Z</time>
      </trkpt>
      <trkpt lat="43.12675" lon="0.11218">
        <ele>451.20001220703</ele>
        <time>2020-07-06T08:12:45.000Z</time>
      </trkpt>
      <trkpt lat="43.12697" lon="0.11208">
        <ele>450.60000610352</ele>
        <time>2020-07-06T08:12:48.000Z</time>
      </trkpt>
      <trkpt lat="43.12705" lon="0.11206">
        <ele>450.60000610352</ele>
        <time>2020-07-06T08:12:49.000Z</time>
      </trkpt>
      <trkpt lat="43.12713" lon="0.11206">
        <ele>450.20001220703</ele>
        <time>2020-07-06T08:12:50.000Z</time>
      </trkpt>
      <trkpt lat="43.12729" lon="0.11208">
        <ele>449.79998779297</ele>
        <time>2020-07-06T08:12:52.000Z</time>
      </trkpt>
      <trkpt lat="43.12765" lon="0.11226">
        <ele>449.60000610352</ele>
        <time>2020-07-06T08:12:57.000Z</time>
      </trkpt>
      <trkpt lat="43.12812" lon="0.11265">
        <ele>449.20001220703</ele>
        <time>2020-07-06T08:13:04.000Z</time>
      </trkpt>
      <trkpt lat="43.12817" lon="0.11272">
        <ele>449.20001220703</ele>
        <time>2020-07-06T08:13:05.000Z</time>
      </trkpt>
      <trkpt lat="43.12827" lon="0.11289">
        <ele>449</ele>
        <time>2020-07-06T08:13:07.000Z</time>
      </trkpt>
      <trkpt lat="43.1283" lon="0.11299">
        <ele>449</ele>
        <time>2020-07-06T08:13:08.000Z</time>
      </trkpt>
      <trkpt lat="43.12841" lon="0.1136">
        <ele>448.60000610352</ele>
        <time>2020-07-06T08:13:14.000Z</time>
      </trkpt>
      <trkpt lat="43.12854" lon="0.11428">
        <ele>448.60000610352</ele>
        <time>2020-07-06T08:13:21.000Z</time>
      </trkpt>
      <trkpt lat="43.12857" lon="0.11436">
        <ele>448.60000610352</ele>
        <time>2020-07-06T08:13:22.000Z</time>
      </trkpt>
      <trkpt lat="43.1286" lon="0.1144">
        <ele>448.60000610352</ele>
        <time>2020-07-06T08:13:23.000Z</time>
      </trkpt>
      <trkpt lat="43.12865" lon="0.11442">
        <ele>448.60000610352</ele>
        <time>2020-07-06T08:13:25.000Z</time>
      </trkpt>
      <trkpt lat="43.12878" lon="0.11439">
        <ele>448.60000610352</ele>
        <time>2020-07-06T08:13:26.000Z</time>
      </trkpt>
      <trkpt lat="43.12892" lon="0.11432">
        <ele>448.60000610352</ele>
        <time>2020-07-06T08:13:28.000Z</time>
      </trkpt>
      <trkpt lat="43.12928" lon="0.11418">
        <ele>448.20001220703</ele>
        <time>2020-07-06T08:13:33.000Z</time>
      </trkpt>
      <trkpt lat="43.12936" lon="0.11414">
        <ele>448.20001220703</ele>
        <time>2020-07-06T08:13:34.000Z</time>
      </trkpt>
      <trkpt lat="43.12988" lon="0.11394">
        <ele>447.60000610352</ele>
        <time>2020-07-06T08:13:41.000Z</time>
      </trkpt>
      <trkpt lat="43.1301" lon="0.11385">
        <ele>447.20001220703</ele>
        <time>2020-07-06T08:13:44.000Z</time>
      </trkpt>
      <trkpt lat="43.13047" lon="0.11371">
        <ele>447</ele>
        <time>2020-07-06T08:13:49.000Z</time>
      </trkpt>
      <trkpt lat="43.13099" lon="0.11347">
        <ele>446</ele>
        <time>2020-07-06T08:13:56.000Z</time>
      </trkpt>
      <trkpt lat="43.13121" lon="0.11337">
        <ele>445.20001220703</ele>
        <time>2020-07-06T08:13:59.000Z</time>
      </trkpt>
      <trkpt lat="43.13136" lon="0.11332">
        <ele>445</ele>
        <time>2020-07-06T08:14:01.000Z</time>
      </trkpt>
      <trkpt lat="43.13165" lon="0.11326">
        <ele>445</ele>
        <time>2020-07-06T08:14:05.000Z</time>
      </trkpt>
      <trkpt lat="43.13197" lon="0.11321">
        <ele>445</ele>
        <time>2020-07-06T08:14:10.000Z</time>
      </trkpt>
      <trkpt lat="43.13237" lon="0.11308">
        <ele>444.39999389648</ele>
        <time>2020-07-06T08:14:16.000Z</time>
      </trkpt>
      <trkpt lat="43.13257" lon="0.11299">
        <ele>444</ele>
        <time>2020-07-06T08:14:19.000Z</time>
      </trkpt>
      <trkpt lat="43.13277" lon="0.11291">
        <ele>443.60000610352</ele>
        <time>2020-07-06T08:14:22.000Z</time>
      </trkpt>
      <trkpt lat="43.13319" lon="0.11276">
        <ele>443.39999389648</ele>
        <time>2020-07-06T08:14:28.000Z</time>
      </trkpt>
      <trkpt lat="43.13333" lon="0.11267">
        <ele>443</ele>
        <time>2020-07-06T08:14:30.000Z</time>
      </trkpt>
      <trkpt lat="43.1334" lon="0.11263">
        <ele>442.79998779297</ele>
        <time>2020-07-06T08:14:31.000Z</time>
      </trkpt>
      <trkpt lat="43.13361" lon="0.11255">
        <ele>442.39999389648</ele>
        <time>2020-07-06T08:14:34.000Z</time>
      </trkpt>
      <trkpt lat="43.13383" lon="0.11246">
        <ele>441.79998779297</ele>
        <time>2020-07-06T08:14:37.000Z</time>
      </trkpt>
      <trkpt lat="43.13419" lon="0.11236">
        <ele>441.60000610352</ele>
        <time>2020-07-06T08:14:42.000Z</time>
      </trkpt>
      <trkpt lat="43.13432" lon="0.11238">
        <ele>441.39999389648</ele>
        <time>2020-07-06T08:14:44.000Z</time>
      </trkpt>
      <trkpt lat="43.13439" lon="0.11241">
        <ele>441.39999389648</ele>
        <time>2020-07-06T08:14:45.000Z</time>
      </trkpt>
      <trkpt lat="43.1346" lon="0.11249">
        <ele>441.20001220703</ele>
        <time>2020-07-06T08:14:48.000Z</time>
      </trkpt>
      <trkpt lat="43.13474" lon="0.11248">
        <ele>441.20001220703</ele>
        <time>2020-07-06T08:14:50.000Z</time>
      </trkpt>
      <trkpt lat="43.13503" lon="0.11237">
        <ele>440.79998779297</ele>
        <time>2020-07-06T08:14:54.000Z</time>
      </trkpt>
      <trkpt lat="43.13533" lon="0.11226">
        <ele>440.60000610352</ele>
        <time>2020-07-06T08:14:58.000Z</time>
      </trkpt>
      <trkpt lat="43.1357" lon="0.11212">
        <ele>440</ele>
        <time>2020-07-06T08:15:03.000Z</time>
      </trkpt>
      <trkpt lat="43.13584" lon="0.11206">
        <ele>439.79998779297</ele>
        <time>2020-07-06T08:15:05.000Z</time>
      </trkpt>
      <trkpt lat="43.13606" lon="0.11198">
        <ele>438.79998779297</ele>
        <time>2020-07-06T08:15:08.000Z</time>
      </trkpt>
      <trkpt lat="43.13642" lon="0.11184">
        <ele>438.60000610352</ele>
        <time>2020-07-06T08:15:13.000Z</time>
      </trkpt>
      <trkpt lat="43.13699" lon="0.11162">
        <ele>438.60000610352</ele>
        <time>2020-07-06T08:15:21.000Z</time>
      </trkpt>
      <trkpt lat="43.1375" lon="0.11143">
        <ele>438.20001220703</ele>
        <time>2020-07-06T08:15:28.000Z</time>
      </trkpt>
      <trkpt lat="43.13772" lon="0.11134">
        <ele>437.79998779297</ele>
        <time>2020-07-06T08:15:31.000Z</time>
      </trkpt>
      <trkpt lat="43.13793" lon="0.11124">
        <ele>437.20001220703</ele>
        <time>2020-07-06T08:15:34.000Z</time>
      </trkpt>
      <trkpt lat="43.138" lon="0.11121">
        <ele>437</ele>
        <time>2020-07-06T08:15:35.000Z</time>
      </trkpt>
      <trkpt lat="43.13806" lon="0.11119">
        <ele>436.60000610352</ele>
        <time>2020-07-06T08:15:36.000Z</time>
      </trkpt>
      <trkpt lat="43.13826" lon="0.11112">
        <ele>436.39999389648</ele>
        <time>2020-07-06T08:15:39.000Z</time>
      </trkpt>
      <trkpt lat="43.13867" lon="0.11096">
        <ele>435.60000610352</ele>
        <time>2020-07-06T08:15:45.000Z</time>
      </trkpt>
      <trkpt lat="43.13887" lon="0.11086">
        <ele>435.20001220703</ele>
        <time>2020-07-06T08:15:48.000Z</time>
      </trkpt>
      <trkpt lat="43.1392" lon="0.11072">
        <ele>435.20001220703</ele>
        <time>2020-07-06T08:15:53.000Z</time>
      </trkpt>
      <trkpt lat="43.13958" lon="0.11055">
        <ele>434.39999389648</ele>
        <time>2020-07-06T08:15:59.000Z</time>
      </trkpt>
      <trkpt lat="43.1397" lon="0.11049">
        <ele>433.79998779297</ele>
        <time>2020-07-06T08:16:01.000Z</time>
      </trkpt>
      <trkpt lat="43.13985" lon="0.11044">
        <ele>433.20001220703</ele>
        <time>2020-07-06T08:16:04.000Z</time>
      </trkpt>
      <trkpt lat="43.13989" lon="0.11043">
        <ele>433.20001220703</ele>
        <time>2020-07-06T08:16:05.000Z</time>
      </trkpt>
      <trkpt lat="43.13994" lon="0.11041">
        <ele>433.20001220703</ele>
        <time>2020-07-06T08:16:06.000Z</time>
      </trkpt>
      <trkpt lat="43.14013" lon="0.11033">
        <ele>432.79998779297</ele>
        <time>2020-07-06T08:16:10.000Z</time>
      </trkpt>
      <trkpt lat="43.14023" lon="0.11029">
        <ele>432.79998779297</ele>
        <time>2020-07-06T08:16:12.000Z</time>
      </trkpt>
      <trkpt lat="43.14043" lon="0.11023">
        <ele>432.60000610352</ele>
        <time>2020-07-06T08:16:16.000Z</time>
      </trkpt>
      <trkpt lat="43.1407" lon="0.11013">
        <ele>432.39999389648</ele>
        <time>2020-07-06T08:16:21.000Z</time>
      </trkpt>
      <trkpt lat="43.14076" lon="0.11011">
        <ele>432.20001220703</ele>
        <time>2020-07-06T08:16:22.000Z</time>
      </trkpt>
      <trkpt lat="43.14087" lon="0.11008">
        <ele>432</ele>
        <time>2020-07-06T08:16:24.000Z</time>
      </trkpt>
      <trkpt lat="43.14102" lon="0.11003">
        <ele>432</ele>
        <time>2020-07-06T08:16:27.000Z</time>
      </trkpt>
      <trkpt lat="43.14114" lon="0.10998">
        <ele>431.60000610352</ele>
        <time>2020-07-06T08:16:29.000Z</time>
      </trkpt>
      <trkpt lat="43.14158" lon="0.1098">
        <ele>431.20001220703</ele>
        <time>2020-07-06T08:16:36.000Z</time>
      </trkpt>
      <trkpt lat="43.14165" lon="0.10977">
        <ele>431.20001220703</ele>
        <time>2020-07-06T08:16:37.000Z</time>
      </trkpt>
      <trkpt lat="43.14211" lon="0.1096">
        <ele>431.39999389648</ele>
        <time>2020-07-06T08:16:44.000Z</time>
      </trkpt>
      <trkpt lat="43.14268" lon="0.10939">
        <ele>430.20001220703</ele>
        <time>2020-07-06T08:16:53.000Z</time>
      </trkpt>
      <trkpt lat="43.14322" lon="0.10918">
        <ele>429.79998779297</ele>
        <time>2020-07-06T08:17:02.000Z</time>
      </trkpt>
      <trkpt lat="43.14334" lon="0.10913">
        <ele>429.79998779297</ele>
        <time>2020-07-06T08:17:04.000Z</time>
      </trkpt>
      <trkpt lat="43.14377" lon="0.10895">
        <ele>429.20001220703</ele>
        <time>2020-07-06T08:17:11.000Z</time>
      </trkpt>
      <trkpt lat="43.14384" lon="0.10893">
        <ele>429</ele>
        <time>2020-07-06T08:17:12.000Z</time>
      </trkpt>
      <trkpt lat="43.14442" lon="0.10871">
        <ele>428</ele>
        <time>2020-07-06T08:17:21.000Z</time>
      </trkpt>
      <trkpt lat="43.14449" lon="0.10868">
        <ele>427.79998779297</ele>
        <time>2020-07-06T08:17:22.000Z</time>
      </trkpt>
      <trkpt lat="43.14481" lon="0.10856">
        <ele>427</ele>
        <time>2020-07-06T08:17:27.000Z</time>
      </trkpt>
      <trkpt lat="43.14514" lon="0.10843">
        <ele>426.79998779297</ele>
        <time>2020-07-06T08:17:32.000Z</time>
      </trkpt>
      <trkpt lat="43.14553" lon="0.10827">
        <ele>426</ele>
        <time>2020-07-06T08:17:38.000Z</time>
      </trkpt>
      <trkpt lat="43.14572" lon="0.10821">
        <ele>425.79998779297</ele>
        <time>2020-07-06T08:17:41.000Z</time>
      </trkpt>
      <trkpt lat="43.14614" lon="0.10806">
        <ele>425.39999389648</ele>
        <time>2020-07-06T08:17:48.000Z</time>
      </trkpt>
      <trkpt lat="43.14643" lon="0.10795">
        <ele>425</ele>
        <time>2020-07-06T08:17:53.000Z</time>
      </trkpt>
      <trkpt lat="43.14655" lon="0.1079">
        <ele>424.79998779297</ele>
        <time>2020-07-06T08:17:55.000Z</time>
      </trkpt>
      <trkpt lat="43.14698" lon="0.10772">
        <ele>424.79998779297</ele>
        <time>2020-07-06T08:18:02.000Z</time>
      </trkpt>
      <trkpt lat="43.1473" lon="0.1076">
        <ele>424</ele>
        <time>2020-07-06T08:18:07.000Z</time>
      </trkpt>
      <trkpt lat="43.14751" lon="0.10754">
        <ele>423.60000610352</ele>
        <time>2020-07-06T08:18:10.000Z</time>
      </trkpt>
      <trkpt lat="43.14781" lon="0.10742">
        <ele>423.20001220703</ele>
        <time>2020-07-06T08:18:14.000Z</time>
      </trkpt>
      <trkpt lat="43.14788" lon="0.10739">
        <ele>423.20001220703</ele>
        <time>2020-07-06T08:18:15.000Z</time>
      </trkpt>
      <trkpt lat="43.1483" lon="0.10721">
        <ele>423</ele>
        <time>2020-07-06T08:18:21.000Z</time>
      </trkpt>
      <trkpt lat="43.14858" lon="0.10712">
        <ele>422.60000610352</ele>
        <time>2020-07-06T08:18:25.000Z</time>
      </trkpt>
      <trkpt lat="43.14871" lon="0.10706">
        <ele>422.20001220703</ele>
        <time>2020-07-06T08:18:27.000Z</time>
      </trkpt>
      <trkpt lat="43.14899" lon="0.10694">
        <ele>421.60000610352</ele>
        <time>2020-07-06T08:18:31.000Z</time>
      </trkpt>
      <trkpt lat="43.14934" lon="0.10679">
        <ele>421.20001220703</ele>
        <time>2020-07-06T08:18:36.000Z</time>
      </trkpt>
      <trkpt lat="43.14992" lon="0.10658">
        <ele>420.60000610352</ele>
        <time>2020-07-06T08:18:44.000Z</time>
      </trkpt>
      <trkpt lat="43.15014" lon="0.10651">
        <ele>420.20001220703</ele>
        <time>2020-07-06T08:18:47.000Z</time>
      </trkpt>
      <trkpt lat="43.15043" lon="0.1064">
        <ele>419.39999389648</ele>
        <time>2020-07-06T08:18:51.000Z</time>
      </trkpt>
      <trkpt lat="43.15057" lon="0.10635">
        <ele>419.20001220703</ele>
        <time>2020-07-06T08:18:53.000Z</time>
      </trkpt>
      <trkpt lat="43.15105" lon="0.10616">
        <ele>418.20001220703</ele>
        <time>2020-07-06T08:19:00.000Z</time>
      </trkpt>
      <trkpt lat="43.15119" lon="0.10611">
        <ele>418</ele>
        <time>2020-07-06T08:19:02.000Z</time>
      </trkpt>
      <trkpt lat="43.15125" lon="0.10609">
        <ele>417.79998779297</ele>
        <time>2020-07-06T08:19:03.000Z</time>
      </trkpt>
      <trkpt lat="43.15158" lon="0.10593">
        <ele>418</ele>
        <time>2020-07-06T08:19:08.000Z</time>
      </trkpt>
      <trkpt lat="43.15185" lon="0.10583">
        <ele>417.20001220703</ele>
        <time>2020-07-06T08:19:12.000Z</time>
      </trkpt>
      <trkpt lat="43.15217" lon="0.1057">
        <ele>416.60000610352</ele>
        <time>2020-07-06T08:19:17.000Z</time>
      </trkpt>
      <trkpt lat="43.15243" lon="0.1056">
        <ele>416</ele>
        <time>2020-07-06T08:19:21.000Z</time>
      </trkpt>
      <trkpt lat="43.15264" lon="0.10552">
        <ele>416.39999389648</ele>
        <time>2020-07-06T08:19:24.000Z</time>
      </trkpt>
      <trkpt lat="43.15311" lon="0.10534">
        <ele>416</ele>
        <time>2020-07-06T08:19:31.000Z</time>
      </trkpt>
      <trkpt lat="43.15345" lon="0.10524">
        <ele>415.20001220703</ele>
        <time>2020-07-06T08:19:36.000Z</time>
      </trkpt>
      <trkpt lat="43.15359" lon="0.1052">
        <ele>415.39999389648</ele>
        <time>2020-07-06T08:19:38.000Z</time>
      </trkpt>
      <trkpt lat="43.15404" lon="0.10511">
        <ele>415.79998779297</ele>
        <time>2020-07-06T08:19:45.000Z</time>
      </trkpt>
      <trkpt lat="43.15459" lon="0.10502">
        <ele>415.39999389648</ele>
        <time>2020-07-06T08:19:53.000Z</time>
      </trkpt>
      <trkpt lat="43.15472" lon="0.10501">
        <ele>415</ele>
        <time>2020-07-06T08:19:55.000Z</time>
      </trkpt>
      <trkpt lat="43.15486" lon="0.10501">
        <ele>414.39999389648</ele>
        <time>2020-07-06T08:19:57.000Z</time>
      </trkpt>
      <trkpt lat="43.15521" lon="0.10498">
        <ele>414</ele>
        <time>2020-07-06T08:20:02.000Z</time>
      </trkpt>
      <trkpt lat="43.15528" lon="0.10498">
        <ele>414</ele>
        <time>2020-07-06T08:20:03.000Z</time>
      </trkpt>
      <trkpt lat="43.15557" lon="0.10495">
        <ele>412.79998779297</ele>
        <time>2020-07-06T08:20:07.000Z</time>
      </trkpt>
      <trkpt lat="43.15593" lon="0.10492">
        <ele>412</ele>
        <time>2020-07-06T08:20:12.000Z</time>
      </trkpt>
      <trkpt lat="43.1563" lon="0.10489">
        <ele>411.60000610352</ele>
        <time>2020-07-06T08:20:17.000Z</time>
      </trkpt>
      <trkpt lat="43.15673" lon="0.10485">
        <ele>411.39999389648</ele>
        <time>2020-07-06T08:20:23.000Z</time>
      </trkpt>
      <trkpt lat="43.15732" lon="0.10479">
        <ele>410.60000610352</ele>
        <time>2020-07-06T08:20:31.000Z</time>
      </trkpt>
      <trkpt lat="43.15739" lon="0.10478">
        <ele>410.60000610352</ele>
        <time>2020-07-06T08:20:32.000Z</time>
      </trkpt>
      <trkpt lat="43.15797" lon="0.10473">
        <ele>410.20001220703</ele>
        <time>2020-07-06T08:20:40.000Z</time>
      </trkpt>
      <trkpt lat="43.15834" lon="0.10469">
        <ele>409.60000610352</ele>
        <time>2020-07-06T08:20:45.000Z</time>
      </trkpt>
      <trkpt lat="43.15863" lon="0.10468">
        <ele>409.20001220703</ele>
        <time>2020-07-06T08:20:49.000Z</time>
      </trkpt>
      <trkpt lat="43.15883" lon="0.10466">
        <ele>408.20001220703</ele>
        <time>2020-07-06T08:20:52.000Z</time>
      </trkpt>
      <trkpt lat="43.15905" lon="0.10464">
        <ele>408.20001220703</ele>
        <time>2020-07-06T08:20:56.000Z</time>
      </trkpt>
      <trkpt lat="43.1591" lon="0.10471">
        <ele>408.39999389648</ele>
        <time>2020-07-06T08:20:58.000Z</time>
      </trkpt>
      <trkpt lat="43.15906" lon="0.10477">
        <ele>408.79998779297</ele>
        <time>2020-07-06T08:21:00.000Z</time>
      </trkpt>
      <trkpt lat="43.15903" lon="0.10485">
        <ele>409.20001220703</ele>
        <time>2020-07-06T08:21:02.000Z</time>
      </trkpt>
      <trkpt lat="43.15904" lon="0.10488">
        <ele>409.20001220703</ele>
        <time>2020-07-06T08:21:03.000Z</time>
      </trkpt>
      <trkpt lat="43.15911" lon="0.10487">
        <ele>409.39999389648</ele>
        <time>2020-07-06T08:21:05.000Z</time>
      </trkpt>
      <trkpt lat="43.15934" lon="0.10484">
        <ele>409.39999389648</ele>
        <time>2020-07-06T08:21:10.000Z</time>
      </trkpt>
      <trkpt lat="43.15967" lon="0.1048">
        <ele>409</ele>
        <time>2020-07-06T08:21:16.000Z</time>
      </trkpt>
      <trkpt lat="43.15998" lon="0.10475">
        <ele>408.20001220703</ele>
        <time>2020-07-06T08:21:21.000Z</time>
      </trkpt>
      <trkpt lat="43.16004" lon="0.10475">
        <ele>407.79998779297</ele>
        <time>2020-07-06T08:21:22.000Z</time>
      </trkpt>
      <trkpt lat="43.16044" lon="0.10473">
        <ele>407.20001220703</ele>
        <time>2020-07-06T08:21:29.000Z</time>
      </trkpt>
      <trkpt lat="43.16055" lon="0.10472">
        <ele>407</ele>
        <time>2020-07-06T08:21:31.000Z</time>
      </trkpt>
      <trkpt lat="43.16081" lon="0.10469">
        <ele>406</ele>
        <time>2020-07-06T08:21:36.000Z</time>
      </trkpt>
      <trkpt lat="43.16097" lon="0.10469">
        <ele>405.60000610352</ele>
        <time>2020-07-06T08:21:39.000Z</time>
      </trkpt>
      <trkpt lat="43.1615" lon="0.10465">
        <ele>405.20001220703</ele>
        <time>2020-07-06T08:21:48.000Z</time>
      </trkpt>
      <trkpt lat="43.16162" lon="0.10464">
        <ele>405</ele>
        <time>2020-07-06T08:21:50.000Z</time>
      </trkpt>
      <trkpt lat="43.16201" lon="0.1046">
        <ele>404.60000610352</ele>
        <time>2020-07-06T08:21:56.000Z</time>
      </trkpt>
      <trkpt lat="43.16258" lon="0.10456">
        <ele>404.20001220703</ele>
        <time>2020-07-06T08:22:05.000Z</time>
      </trkpt>
      <trkpt lat="43.16282" lon="0.10454">
        <ele>404.20001220703</ele>
        <time>2020-07-06T08:22:09.000Z</time>
      </trkpt>
      <trkpt lat="43.16312" lon="0.10451">
        <ele>403</ele>
        <time>2020-07-06T08:22:14.000Z</time>
      </trkpt>
      <trkpt lat="43.16358" lon="0.10445">
        <ele>402.79998779297</ele>
        <time>2020-07-06T08:22:22.000Z</time>
      </trkpt>
      <trkpt lat="43.16374" lon="0.10444">
        <ele>402.79998779297</ele>
        <time>2020-07-06T08:22:25.000Z</time>
      </trkpt>
      <trkpt lat="43.16389" lon="0.10443">
        <ele>402.79998779297</ele>
        <time>2020-07-06T08:22:28.000Z</time>
      </trkpt>
      <trkpt lat="43.16413" lon="0.10443">
        <ele>402.20001220703</ele>
        <time>2020-07-06T08:22:33.000Z</time>
      </trkpt>
      <trkpt lat="43.16423" lon="0.10442">
        <ele>402</ele>
        <time>2020-07-06T08:22:35.000Z</time>
      </trkpt>
      <trkpt lat="43.1644" lon="0.1044">
        <ele>401.79998779297</ele>
        <time>2020-07-06T08:22:38.000Z</time>
      </trkpt>
      <trkpt lat="43.16472" lon="0.10435">
        <ele>401.39999389648</ele>
        <time>2020-07-06T08:22:43.000Z</time>
      </trkpt>
      <trkpt lat="43.16513" lon="0.10432">
        <ele>401</ele>
        <time>2020-07-06T08:22:49.000Z</time>
      </trkpt>
      <trkpt lat="43.16573" lon="0.10429">
        <ele>400</ele>
        <time>2020-07-06T08:22:58.000Z</time>
      </trkpt>
      <trkpt lat="43.16579" lon="0.10428">
        <ele>400</ele>
        <time>2020-07-06T08:22:59.000Z</time>
      </trkpt>
      <trkpt lat="43.16585" lon="0.10427">
        <ele>399.79998779297</ele>
        <time>2020-07-06T08:23:00.000Z</time>
      </trkpt>
      <trkpt lat="43.16637" lon="0.10422">
        <ele>399.79998779297</ele>
        <time>2020-07-06T08:23:08.000Z</time>
      </trkpt>
      <trkpt lat="43.16694" lon="0.10417">
        <ele>399.20001220703</ele>
        <time>2020-07-06T08:23:17.000Z</time>
      </trkpt>
      <trkpt lat="43.16746" lon="0.10413">
        <ele>399.20001220703</ele>
        <time>2020-07-06T08:23:25.000Z</time>
      </trkpt>
      <trkpt lat="43.16753" lon="0.10412">
        <ele>398.79998779297</ele>
        <time>2020-07-06T08:23:26.000Z</time>
      </trkpt>
      <trkpt lat="43.16787" lon="0.10408">
        <ele>397.79998779297</ele>
        <time>2020-07-06T08:23:31.000Z</time>
      </trkpt>
      <trkpt lat="43.16813" lon="0.10406">
        <ele>397.20001220703</ele>
        <time>2020-07-06T08:23:35.000Z</time>
      </trkpt>
      <trkpt lat="43.16867" lon="0.10403">
        <ele>396.60000610352</ele>
        <time>2020-07-06T08:23:43.000Z</time>
      </trkpt>
      <trkpt lat="43.16912" lon="0.104">
        <ele>396.39999389648</ele>
        <time>2020-07-06T08:23:50.000Z</time>
      </trkpt>
      <trkpt lat="43.16964" lon="0.10396">
        <ele>395.60000610352</ele>
        <time>2020-07-06T08:23:58.000Z</time>
      </trkpt>
      <trkpt lat="43.16976" lon="0.10395">
        <ele>395.39999389648</ele>
        <time>2020-07-06T08:24:00.000Z</time>
      </trkpt>
      <trkpt lat="43.17023" lon="0.1039">
        <ele>394.79998779297</ele>
        <time>2020-07-06T08:24:07.000Z</time>
      </trkpt>
      <trkpt lat="43.17044" lon="0.10388">
        <ele>394.20001220703</ele>
        <time>2020-07-06T08:24:10.000Z</time>
      </trkpt>
      <trkpt lat="43.17073" lon="0.10384">
        <ele>394</ele>
        <time>2020-07-06T08:24:14.000Z</time>
      </trkpt>
      <trkpt lat="43.17103" lon="0.10382">
        <ele>393.20001220703</ele>
        <time>2020-07-06T08:24:18.000Z</time>
      </trkpt>
      <trkpt lat="43.17124" lon="0.10381">
        <ele>392.60000610352</ele>
        <time>2020-07-06T08:24:21.000Z</time>
      </trkpt>
      <trkpt lat="43.17179" lon="0.10375">
        <ele>392.39999389648</ele>
        <time>2020-07-06T08:24:28.000Z</time>
      </trkpt>
      <trkpt lat="43.17197" lon="0.10373">
        <ele>392.20001220703</ele>
        <time>2020-07-06T08:24:30.000Z</time>
      </trkpt>
      <trkpt lat="43.1723" lon="0.1037">
        <ele>391.79998779297</ele>
        <time>2020-07-06T08:24:34.000Z</time>
      </trkpt>
      <trkpt lat="43.17245" lon="0.10369">
        <ele>391.20001220703</ele>
        <time>2020-07-06T08:24:36.000Z</time>
      </trkpt>
      <trkpt lat="43.17302" lon="0.10365">
        <ele>390.39999389648</ele>
        <time>2020-07-06T08:24:43.000Z</time>
      </trkpt>
      <trkpt lat="43.17318" lon="0.10364">
        <ele>390.20001220703</ele>
        <time>2020-07-06T08:24:45.000Z</time>
      </trkpt>
      <trkpt lat="43.17349" lon="0.10359">
        <ele>390.20001220703</ele>
        <time>2020-07-06T08:24:49.000Z</time>
      </trkpt>
      <trkpt lat="43.17364" lon="0.10358">
        <ele>390</ele>
        <time>2020-07-06T08:24:51.000Z</time>
      </trkpt>
      <trkpt lat="43.17423" lon="0.10354">
        <ele>389.60000610352</ele>
        <time>2020-07-06T08:24:59.000Z</time>
      </trkpt>
      <trkpt lat="43.17476" lon="0.1035">
        <ele>388.79998779297</ele>
        <time>2020-07-06T08:25:06.000Z</time>
      </trkpt>
      <trkpt lat="43.17483" lon="0.1035">
        <ele>388.60000610352</ele>
        <time>2020-07-06T08:25:07.000Z</time>
      </trkpt>
      <trkpt lat="43.17545" lon="0.10347">
        <ele>387.60000610352</ele>
        <time>2020-07-06T08:25:15.000Z</time>
      </trkpt>
      <trkpt lat="43.17605" lon="0.10343">
        <ele>387.60000610352</ele>
        <time>2020-07-06T08:25:23.000Z</time>
      </trkpt>
      <trkpt lat="43.17612" lon="0.10342">
        <ele>387.60000610352</ele>
        <time>2020-07-06T08:25:24.000Z</time>
      </trkpt>
      <trkpt lat="43.17656" lon="0.10335">
        <ele>387</ele>
        <time>2020-07-06T08:25:30.000Z</time>
      </trkpt>
      <trkpt lat="43.17686" lon="0.10332">
        <ele>386.79998779297</ele>
        <time>2020-07-06T08:25:34.000Z</time>
      </trkpt>
      <trkpt lat="43.17722" lon="0.1033">
        <ele>386</ele>
        <time>2020-07-06T08:25:39.000Z</time>
      </trkpt>
      <trkpt lat="43.17737" lon="0.10328">
        <ele>385.79998779297</ele>
        <time>2020-07-06T08:25:41.000Z</time>
      </trkpt>
      <trkpt lat="43.17782" lon="0.10324">
        <ele>385.39999389648</ele>
        <time>2020-07-06T08:25:47.000Z</time>
      </trkpt>
      <trkpt lat="43.17828" lon="0.1032">
        <ele>384.79998779297</ele>
        <time>2020-07-06T08:25:53.000Z</time>
      </trkpt>
      <trkpt lat="43.17835" lon="0.1032">
        <ele>384.60000610352</ele>
        <time>2020-07-06T08:25:54.000Z</time>
      </trkpt>
      <trkpt lat="43.17896" lon="0.10315">
        <ele>383.79998779297</ele>
        <time>2020-07-06T08:26:02.000Z</time>
      </trkpt>
      <trkpt lat="43.17904" lon="0.10315">
        <ele>383.79998779297</ele>
        <time>2020-07-06T08:26:03.000Z</time>
      </trkpt>
      <trkpt lat="43.17911" lon="0.10315">
        <ele>383.79998779297</ele>
        <time>2020-07-06T08:26:04.000Z</time>
      </trkpt>
      <trkpt lat="43.17972" lon="0.10312">
        <ele>383</ele>
        <time>2020-07-06T08:26:12.000Z</time>
      </trkpt>
      <trkpt lat="43.1798" lon="0.10311">
        <ele>382.79998779297</ele>
        <time>2020-07-06T08:26:13.000Z</time>
      </trkpt>
      <trkpt lat="43.17988" lon="0.1031">
        <ele>382.79998779297</ele>
        <time>2020-07-06T08:26:14.000Z</time>
      </trkpt>
      <trkpt lat="43.18042" lon="0.10305">
        <ele>382.39999389648</ele>
        <time>2020-07-06T08:26:21.000Z</time>
      </trkpt>
      <trkpt lat="43.18064" lon="0.10303">
        <ele>381.79998779297</ele>
        <time>2020-07-06T08:26:24.000Z</time>
      </trkpt>
      <trkpt lat="43.18072" lon="0.10301">
        <ele>381.60000610352</ele>
        <time>2020-07-06T08:26:25.000Z</time>
      </trkpt>
      <trkpt lat="43.18123" lon="0.10297">
        <ele>381</ele>
        <time>2020-07-06T08:26:32.000Z</time>
      </trkpt>
      <trkpt lat="43.18182" lon="0.10293">
        <ele>380.79998779297</ele>
        <time>2020-07-06T08:26:40.000Z</time>
      </trkpt>
      <trkpt lat="43.18189" lon="0.10292">
        <ele>380.60000610352</ele>
        <time>2020-07-06T08:26:41.000Z</time>
      </trkpt>
      <trkpt lat="43.18209" lon="0.10291">
        <ele>380.20001220703</ele>
        <time>2020-07-06T08:26:44.000Z</time>
      </trkpt>
      <trkpt lat="43.18221" lon="0.10288">
        <ele>380.20001220703</ele>
        <time>2020-07-06T08:26:46.000Z</time>
      </trkpt>
      <trkpt lat="43.18235" lon="0.10289">
        <ele>380</ele>
        <time>2020-07-06T08:26:48.000Z</time>
      </trkpt>
      <trkpt lat="43.1825" lon="0.10288">
        <ele>380</ele>
        <time>2020-07-06T08:26:50.000Z</time>
      </trkpt>
      <trkpt lat="43.18297" lon="0.10283">
        <ele>380</ele>
        <time>2020-07-06T08:26:56.000Z</time>
      </trkpt>
      <trkpt lat="43.18312" lon="0.10281">
        <ele>379.79998779297</ele>
        <time>2020-07-06T08:26:58.000Z</time>
      </trkpt>
      <trkpt lat="43.18358" lon="0.10276">
        <ele>379</ele>
        <time>2020-07-06T08:27:04.000Z</time>
      </trkpt>
      <trkpt lat="43.18366" lon="0.10275">
        <ele>378.79998779297</ele>
        <time>2020-07-06T08:27:05.000Z</time>
      </trkpt>
      <trkpt lat="43.18405" lon="0.10271">
        <ele>378.20001220703</ele>
        <time>2020-07-06T08:27:10.000Z</time>
      </trkpt>
      <trkpt lat="43.18458" lon="0.10268">
        <ele>378</ele>
        <time>2020-07-06T08:27:17.000Z</time>
      </trkpt>
      <trkpt lat="43.18481" lon="0.10264">
        <ele>377.79998779297</ele>
        <time>2020-07-06T08:27:20.000Z</time>
      </trkpt>
      <trkpt lat="43.18511" lon="0.1026">
        <ele>377.20001220703</ele>
        <time>2020-07-06T08:27:24.000Z</time>
      </trkpt>
      <trkpt lat="43.18565" lon="0.10255">
        <ele>377</ele>
        <time>2020-07-06T08:27:31.000Z</time>
      </trkpt>
      <trkpt lat="43.18597" lon="0.10252">
        <ele>376.39999389648</ele>
        <time>2020-07-06T08:27:35.000Z</time>
      </trkpt>
      <trkpt lat="43.18635" lon="0.10248">
        <ele>375.60000610352</ele>
        <time>2020-07-06T08:27:40.000Z</time>
      </trkpt>
      <trkpt lat="43.18696" lon="0.10243">
        <ele>375.39999389648</ele>
        <time>2020-07-06T08:27:48.000Z</time>
      </trkpt>
      <trkpt lat="43.18704" lon="0.10242">
        <ele>375.39999389648</ele>
        <time>2020-07-06T08:27:49.000Z</time>
      </trkpt>
      <trkpt lat="43.18725" lon="0.10241">
        <ele>375.20001220703</ele>
        <time>2020-07-06T08:27:52.000Z</time>
      </trkpt>
      <trkpt lat="43.18743" lon="0.10239">
        <ele>375</ele>
        <time>2020-07-06T08:27:55.000Z</time>
      </trkpt>
      <trkpt lat="43.18776" lon="0.10235">
        <ele>374.39999389648</ele>
        <time>2020-07-06T08:28:00.000Z</time>
      </trkpt>
      <trkpt lat="43.18795" lon="0.10233">
        <ele>374.39999389648</ele>
        <time>2020-07-06T08:28:03.000Z</time>
      </trkpt>
      <trkpt lat="43.18816" lon="0.10233">
        <ele>374.20001220703</ele>
        <time>2020-07-06T08:28:07.000Z</time>
      </trkpt>
      <trkpt lat="43.18825" lon="0.10231">
        <ele>374.60000610352</ele>
        <time>2020-07-06T08:28:09.000Z</time>
      </trkpt>
      <trkpt lat="43.18842" lon="0.1023">
        <ele>374.60000610352</ele>
        <time>2020-07-06T08:28:12.000Z</time>
      </trkpt>
      <trkpt lat="43.18879" lon="0.10223">
        <ele>374.20001220703</ele>
        <time>2020-07-06T08:28:17.000Z</time>
      </trkpt>
      <trkpt lat="43.18887" lon="0.10223">
        <ele>374</ele>
        <time>2020-07-06T08:28:18.000Z</time>
      </trkpt>
      <trkpt lat="43.18902" lon="0.10224">
        <ele>373.39999389648</ele>
        <time>2020-07-06T08:28:20.000Z</time>
      </trkpt>
      <trkpt lat="43.18918" lon="0.10224">
        <ele>373</ele>
        <time>2020-07-06T08:28:22.000Z</time>
      </trkpt>
      <trkpt lat="43.1895" lon="0.10223">
        <ele>372.20001220703</ele>
        <time>2020-07-06T08:28:26.000Z</time>
      </trkpt>
      <trkpt lat="43.18974" lon="0.1022">
        <ele>372</ele>
        <time>2020-07-06T08:28:29.000Z</time>
      </trkpt>
      <trkpt lat="43.19013" lon="0.10216">
        <ele>371.20001220703</ele>
        <time>2020-07-06T08:28:34.000Z</time>
      </trkpt>
      <trkpt lat="43.19028" lon="0.10215">
        <ele>371</ele>
        <time>2020-07-06T08:28:36.000Z</time>
      </trkpt>
      <trkpt lat="43.19082" lon="0.1021">
        <ele>370.60000610352</ele>
        <time>2020-07-06T08:28:43.000Z</time>
      </trkpt>
      <trkpt lat="43.19121" lon="0.10206">
        <ele>370.20001220703</ele>
        <time>2020-07-06T08:28:48.000Z</time>
      </trkpt>
      <trkpt lat="43.19129" lon="0.10205">
        <ele>370</ele>
        <time>2020-07-06T08:28:49.000Z</time>
      </trkpt>
      <trkpt lat="43.19137" lon="0.10204">
        <ele>370</ele>
        <time>2020-07-06T08:28:50.000Z</time>
      </trkpt>
      <trkpt lat="43.19153" lon="0.10203">
        <ele>369.79998779297</ele>
        <time>2020-07-06T08:28:52.000Z</time>
      </trkpt>
      <trkpt lat="43.19169" lon="0.10203">
        <ele>369.60000610352</ele>
        <time>2020-07-06T08:28:54.000Z</time>
      </trkpt>
      <trkpt lat="43.19192" lon="0.10201">
        <ele>369</ele>
        <time>2020-07-06T08:28:57.000Z</time>
      </trkpt>
      <trkpt lat="43.19231" lon="0.10199">
        <ele>368.60000610352</ele>
        <time>2020-07-06T08:29:02.000Z</time>
      </trkpt>
      <trkpt lat="43.19287" lon="0.10193">
        <ele>368.20001220703</ele>
        <time>2020-07-06T08:29:09.000Z</time>
      </trkpt>
      <trkpt lat="43.19295" lon="0.10193">
        <ele>368</ele>
        <time>2020-07-06T08:29:10.000Z</time>
      </trkpt>
      <trkpt lat="43.19334" lon="0.1019">
        <ele>368</ele>
        <time>2020-07-06T08:29:15.000Z</time>
      </trkpt>
      <trkpt lat="43.19365" lon="0.10186">
        <ele>367.60000610352</ele>
        <time>2020-07-06T08:29:19.000Z</time>
      </trkpt>
      <trkpt lat="43.19404" lon="0.10182">
        <ele>366.79998779297</ele>
        <time>2020-07-06T08:29:24.000Z</time>
      </trkpt>
      <trkpt lat="43.1942" lon="0.10181">
        <ele>366.79998779297</ele>
        <time>2020-07-06T08:29:26.000Z</time>
      </trkpt>
      <trkpt lat="43.19466" lon="0.10177">
        <ele>366.60000610352</ele>
        <time>2020-07-06T08:29:32.000Z</time>
      </trkpt>
      <trkpt lat="43.19504" lon="0.10174">
        <ele>365.79998779297</ele>
        <time>2020-07-06T08:29:37.000Z</time>
      </trkpt>
      <trkpt lat="43.1955" lon="0.10169">
        <ele>365.60000610352</ele>
        <time>2020-07-06T08:29:43.000Z</time>
      </trkpt>
      <trkpt lat="43.19581" lon="0.10167">
        <ele>365.60000610352</ele>
        <time>2020-07-06T08:29:47.000Z</time>
      </trkpt>
      <trkpt lat="43.19596" lon="0.10165">
        <ele>365.60000610352</ele>
        <time>2020-07-06T08:29:49.000Z</time>
      </trkpt>
      <trkpt lat="43.19643" lon="0.10162">
        <ele>365.39999389648</ele>
        <time>2020-07-06T08:29:55.000Z</time>
      </trkpt>
      <trkpt lat="43.19681" lon="0.10159">
        <ele>364.60000610352</ele>
        <time>2020-07-06T08:30:00.000Z</time>
      </trkpt>
      <trkpt lat="43.19704" lon="0.10156">
        <ele>364.20001220703</ele>
        <time>2020-07-06T08:30:03.000Z</time>
      </trkpt>
      <trkpt lat="43.19758" lon="0.10151">
        <ele>363.60000610352</ele>
        <time>2020-07-06T08:30:10.000Z</time>
      </trkpt>
      <trkpt lat="43.19766" lon="0.1015">
        <ele>363.60000610352</ele>
        <time>2020-07-06T08:30:11.000Z</time>
      </trkpt>
      <trkpt lat="43.19773" lon="0.1015">
        <ele>363.39999389648</ele>
        <time>2020-07-06T08:30:12.000Z</time>
      </trkpt>
      <trkpt lat="43.19808" lon="0.10147">
        <ele>363.20001220703</ele>
        <time>2020-07-06T08:30:17.000Z</time>
      </trkpt>
      <trkpt lat="43.1986" lon="0.10143">
        <ele>362.39999389648</ele>
        <time>2020-07-06T08:30:25.000Z</time>
      </trkpt>
      <trkpt lat="43.19906" lon="0.10138">
        <ele>362.20001220703</ele>
        <time>2020-07-06T08:30:32.000Z</time>
      </trkpt>
      <trkpt lat="43.19945" lon="0.10135">
        <ele>361.79998779297</ele>
        <time>2020-07-06T08:30:38.000Z</time>
      </trkpt>
      <trkpt lat="43.19971" lon="0.10133">
        <ele>361.39999389648</ele>
        <time>2020-07-06T08:30:42.000Z</time>
      </trkpt>
      <trkpt lat="43.20005" lon="0.1013">
        <ele>360.79998779297</ele>
        <time>2020-07-06T08:30:47.000Z</time>
      </trkpt>
      <trkpt lat="43.20059" lon="0.10124">
        <ele>360.60000610352</ele>
        <time>2020-07-06T08:30:55.000Z</time>
      </trkpt>
      <trkpt lat="43.20065" lon="0.10123">
        <ele>360.60000610352</ele>
        <time>2020-07-06T08:30:56.000Z</time>
      </trkpt>
      <trkpt lat="43.20079" lon="0.10121">
        <ele>360.39999389648</ele>
        <time>2020-07-06T08:30:58.000Z</time>
      </trkpt>
      <trkpt lat="43.20114" lon="0.10118">
        <ele>359.79998779297</ele>
        <time>2020-07-06T08:31:03.000Z</time>
      </trkpt>
      <trkpt lat="43.20145" lon="0.10115">
        <ele>359.39999389648</ele>
        <time>2020-07-06T08:31:07.000Z</time>
      </trkpt>
      <trkpt lat="43.20196" lon="0.1011">
        <ele>359</ele>
        <time>2020-07-06T08:31:14.000Z</time>
      </trkpt>
      <trkpt lat="43.20239" lon="0.10106">
        <ele>358.39999389648</ele>
        <time>2020-07-06T08:31:20.000Z</time>
      </trkpt>
      <trkpt lat="43.2027" lon="0.10105">
        <ele>358</ele>
        <time>2020-07-06T08:31:24.000Z</time>
      </trkpt>
      <trkpt lat="43.203" lon="0.10107">
        <ele>357.79998779297</ele>
        <time>2020-07-06T08:31:28.000Z</time>
      </trkpt>
      <trkpt lat="43.20313" lon="0.10109">
        <ele>357.60000610352</ele>
        <time>2020-07-06T08:31:30.000Z</time>
      </trkpt>
      <trkpt lat="43.20328" lon="0.1011">
        <ele>357.39999389648</ele>
        <time>2020-07-06T08:31:32.000Z</time>
      </trkpt>
      <trkpt lat="43.20341" lon="0.10111">
        <ele>357.39999389648</ele>
        <time>2020-07-06T08:31:34.000Z</time>
      </trkpt>
      <trkpt lat="43.20345" lon="0.1011">
        <ele>357.39999389648</ele>
        <time>2020-07-06T08:31:35.000Z</time>
      </trkpt>
      <trkpt lat="43.20349" lon="0.10107">
        <ele>357.39999389648</ele>
        <time>2020-07-06T08:31:36.000Z</time>
      </trkpt>
      <trkpt lat="43.20353" lon="0.10097">
        <ele>357.39999389648</ele>
        <time>2020-07-06T08:31:38.000Z</time>
      </trkpt>
      <trkpt lat="43.20354" lon="0.10085">
        <ele>357.39999389648</ele>
        <time>2020-07-06T08:31:40.000Z</time>
      </trkpt>
      <trkpt lat="43.20354" lon="0.10071">
        <ele>357.39999389648</ele>
        <time>2020-07-06T08:31:42.000Z</time>
      </trkpt>
      <trkpt lat="43.20352" lon="0.10039">
        <ele>357.39999389648</ele>
        <time>2020-07-06T08:31:46.000Z</time>
      </trkpt>
      <trkpt lat="43.20353" lon="0.1003">
        <ele>357.20001220703</ele>
        <time>2020-07-06T08:31:47.000Z</time>
      </trkpt>
      <trkpt lat="43.20356" lon="0.10013">
        <ele>357.20001220703</ele>
        <time>2020-07-06T08:31:49.000Z</time>
      </trkpt>
      <trkpt lat="43.2036" lon="0.10006">
        <ele>357</ele>
        <time>2020-07-06T08:31:50.000Z</time>
      </trkpt>
      <trkpt lat="43.20365" lon="0.10001">
        <ele>357</ele>
        <time>2020-07-06T08:31:51.000Z</time>
      </trkpt>
      <trkpt lat="43.20384" lon="0.09989">
        <ele>356.60000610352</ele>
        <time>2020-07-06T08:31:54.000Z</time>
      </trkpt>
      <trkpt lat="43.20402" lon="0.09979">
        <ele>356.60000610352</ele>
        <time>2020-07-06T08:31:57.000Z</time>
      </trkpt>
      <trkpt lat="43.20409" lon="0.09965">
        <ele>356.39999389648</ele>
        <time>2020-07-06T08:31:59.000Z</time>
      </trkpt>
      <trkpt lat="43.20407" lon="0.09948">
        <ele>356.39999389648</ele>
        <time>2020-07-06T08:32:01.000Z</time>
      </trkpt>
      <trkpt lat="43.20404" lon="0.09939">
        <ele>356.39999389648</ele>
        <time>2020-07-06T08:32:02.000Z</time>
      </trkpt>
      <trkpt lat="43.20399" lon="0.09922">
        <ele>356.20001220703</ele>
        <time>2020-07-06T08:32:04.000Z</time>
      </trkpt>
      <trkpt lat="43.20398" lon="0.09904">
        <ele>356.20001220703</ele>
        <time>2020-07-06T08:32:06.000Z</time>
      </trkpt>
      <trkpt lat="43.20396" lon="0.09837">
        <ele>355.60000610352</ele>
        <time>2020-07-06T08:32:13.000Z</time>
      </trkpt>
      <trkpt lat="43.20398" lon="0.09819">
        <ele>355</ele>
        <time>2020-07-06T08:32:15.000Z</time>
      </trkpt>
      <trkpt lat="43.20405" lon="0.09787">
        <ele>354.60000610352</ele>
        <time>2020-07-06T08:32:18.000Z</time>
      </trkpt>
      <trkpt lat="43.2041" lon="0.09764">
        <ele>354</ele>
        <time>2020-07-06T08:32:20.000Z</time>
      </trkpt>
      <trkpt lat="43.20415" lon="0.09741">
        <ele>353</ele>
        <time>2020-07-06T08:32:22.000Z</time>
      </trkpt>
      <trkpt lat="43.2042" lon="0.09718">
        <ele>351.79998779297</ele>
        <time>2020-07-06T08:32:24.000Z</time>
      </trkpt>
      <trkpt lat="43.20423" lon="0.09707">
        <ele>351.39999389648</ele>
        <time>2020-07-06T08:32:25.000Z</time>
      </trkpt>
      <trkpt lat="43.20429" lon="0.09676">
        <ele>350.79998779297</ele>
        <time>2020-07-06T08:32:28.000Z</time>
      </trkpt>
      <trkpt lat="43.20431" lon="0.0966">
        <ele>350.79998779297</ele>
        <time>2020-07-06T08:32:30.000Z</time>
      </trkpt>
      <trkpt lat="43.20432" lon="0.09653">
        <ele>350.79998779297</ele>
        <time>2020-07-06T08:32:31.000Z</time>
      </trkpt>
      <trkpt lat="43.20435" lon="0.09638">
        <ele>351.20001220703</ele>
        <time>2020-07-06T08:32:34.000Z</time>
      </trkpt>
      <trkpt lat="43.20437" lon="0.09629">
        <ele>351.60000610352</ele>
        <time>2020-07-06T08:32:39.000Z</time>
      </trkpt>
      <trkpt lat="43.20435" lon="0.09616">
        <ele>351.60000610352</ele>
        <time>2020-07-06T08:32:43.000Z</time>
      </trkpt>
      <trkpt lat="43.20431" lon="0.09606">
        <ele>351.60000610352</ele>
        <time>2020-07-06T08:32:45.000Z</time>
      </trkpt>
      <trkpt lat="43.20426" lon="0.09593">
        <ele>351.60000610352</ele>
        <time>2020-07-06T08:32:47.000Z</time>
      </trkpt>
      <trkpt lat="43.20423" lon="0.09586">
        <ele>351.60000610352</ele>
        <time>2020-07-06T08:32:48.000Z</time>
      </trkpt>
      <trkpt lat="43.20419" lon="0.0957">
        <ele>351.39999389648</ele>
        <time>2020-07-06T08:32:50.000Z</time>
      </trkpt>
      <trkpt lat="43.20418" lon="0.09561">
        <ele>351.20001220703</ele>
        <time>2020-07-06T08:32:51.000Z</time>
      </trkpt>
      <trkpt lat="43.20408" lon="0.09508">
        <ele>351</ele>
        <time>2020-07-06T08:32:57.000Z</time>
      </trkpt>
      <trkpt lat="43.20389" lon="0.0944">
        <ele>351</ele>
        <time>2020-07-06T08:33:05.000Z</time>
      </trkpt>
      <trkpt lat="43.20384" lon="0.09419">
        <ele>351</ele>
        <time>2020-07-06T08:33:08.000Z</time>
      </trkpt>
      <trkpt lat="43.20381" lon="0.09406">
        <ele>351.20001220703</ele>
        <time>2020-07-06T08:33:10.000Z</time>
      </trkpt>
      <trkpt lat="43.20379" lon="0.09364">
        <ele>351</ele>
        <time>2020-07-06T08:33:15.000Z</time>
      </trkpt>
      <trkpt lat="43.20379" lon="0.09355">
        <ele>350.60000610352</ele>
        <time>2020-07-06T08:33:16.000Z</time>
      </trkpt>
      <trkpt lat="43.20381" lon="0.09337">
        <ele>350.20001220703</ele>
        <time>2020-07-06T08:33:18.000Z</time>
      </trkpt>
      <trkpt lat="43.20383" lon="0.09329">
        <ele>350.20001220703</ele>
        <time>2020-07-06T08:33:19.000Z</time>
      </trkpt>
      <trkpt lat="43.20386" lon="0.09313">
        <ele>350</ele>
        <time>2020-07-06T08:33:21.000Z</time>
      </trkpt>
      <trkpt lat="43.20388" lon="0.09297">
        <ele>349.79998779297</ele>
        <time>2020-07-06T08:33:23.000Z</time>
      </trkpt>
      <trkpt lat="43.20391" lon="0.0929">
        <ele>349.79998779297</ele>
        <time>2020-07-06T08:33:24.000Z</time>
      </trkpt>
      <trkpt lat="43.20395" lon="0.09284">
        <ele>349.79998779297</ele>
        <time>2020-07-06T08:33:25.000Z</time>
      </trkpt>
      <trkpt lat="43.20404" lon="0.09277">
        <ele>349.60000610352</ele>
        <time>2020-07-06T08:33:27.000Z</time>
      </trkpt>
      <trkpt lat="43.20414" lon="0.09276">
        <ele>349.20001220703</ele>
        <time>2020-07-06T08:33:30.000Z</time>
      </trkpt>
      <trkpt lat="43.20423" lon="0.09277">
        <ele>349</ele>
        <time>2020-07-06T08:33:32.000Z</time>
      </trkpt>
      <trkpt lat="43.20428" lon="0.09277">
        <ele>349</ele>
        <time>2020-07-06T08:33:33.000Z</time>
      </trkpt>
      <trkpt lat="43.20433" lon="0.09277">
        <ele>348.39999389648</ele>
        <time>2020-07-06T08:33:34.000Z</time>
      </trkpt>
      <trkpt lat="43.20444" lon="0.09278">
        <ele>347.79998779297</ele>
        <time>2020-07-06T08:33:36.000Z</time>
      </trkpt>
      <trkpt lat="43.20454" lon="0.0928">
        <ele>347.60000610352</ele>
        <time>2020-07-06T08:33:38.000Z</time>
      </trkpt>
      <trkpt lat="43.20458" lon="0.09281">
        <ele>347.39999389648</ele>
        <time>2020-07-06T08:33:39.000Z</time>
      </trkpt>
      <trkpt lat="43.20474" lon="0.09285">
        <ele>346.60000610352</ele>
        <time>2020-07-06T08:33:42.000Z</time>
      </trkpt>
      <trkpt lat="43.20487" lon="0.09288">
        <ele>346.39999389648</ele>
        <time>2020-07-06T08:33:44.000Z</time>
      </trkpt>
      <trkpt lat="43.20507" lon="0.09297">
        <ele>345.79998779297</ele>
        <time>2020-07-06T08:33:47.000Z</time>
      </trkpt>
      <trkpt lat="43.20513" lon="0.09301">
        <ele>345.60000610352</ele>
        <time>2020-07-06T08:33:48.000Z</time>
      </trkpt>
      <trkpt lat="43.2052" lon="0.09304">
        <ele>345.39999389648</ele>
        <time>2020-07-06T08:33:49.000Z</time>
      </trkpt>
      <trkpt lat="43.20526" lon="0.09308">
        <ele>345.39999389648</ele>
        <time>2020-07-06T08:33:50.000Z</time>
      </trkpt>
      <trkpt lat="43.20541" lon="0.09312">
        <ele>345.39999389648</ele>
        <time>2020-07-06T08:33:52.000Z</time>
      </trkpt>
      <trkpt lat="43.20564" lon="0.09321">
        <ele>345.20001220703</ele>
        <time>2020-07-06T08:33:55.000Z</time>
      </trkpt>
      <trkpt lat="43.20571" lon="0.09327">
        <ele>345</ele>
        <time>2020-07-06T08:33:56.000Z</time>
      </trkpt>
      <trkpt lat="43.20595" lon="0.09346">
        <ele>344.79998779297</ele>
        <time>2020-07-06T08:34:00.000Z</time>
      </trkpt>
      <trkpt lat="43.20609" lon="0.09351">
        <ele>344.60000610352</ele>
        <time>2020-07-06T08:34:02.000Z</time>
      </trkpt>
      <trkpt lat="43.20618" lon="0.09354">
        <ele>344.60000610352</ele>
        <time>2020-07-06T08:34:03.000Z</time>
      </trkpt>
      <trkpt lat="43.20649" lon="0.09359">
        <ele>344.39999389648</ele>
        <time>2020-07-06T08:34:07.000Z</time>
      </trkpt>
      <trkpt lat="43.20704" lon="0.09369">
        <ele>343.60000610352</ele>
        <time>2020-07-06T08:34:14.000Z</time>
      </trkpt>
      <trkpt lat="43.2074" lon="0.09372">
        <ele>343.79998779297</ele>
        <time>2020-07-06T08:34:19.000Z</time>
      </trkpt>
      <trkpt lat="43.20753" lon="0.09369">
        <ele>344</ele>
        <time>2020-07-06T08:34:21.000Z</time>
      </trkpt>
      <trkpt lat="43.20765" lon="0.09364">
        <ele>343.79998779297</ele>
        <time>2020-07-06T08:34:23.000Z</time>
      </trkpt>
      <trkpt lat="43.20785" lon="0.09362">
        <ele>343.60000610352</ele>
        <time>2020-07-06T08:34:27.000Z</time>
      </trkpt>
      <trkpt lat="43.20786" lon="0.09362">
        <ele>343.60000610352</ele>
        <time>2020-07-06T08:34:30.000Z</time>
      </trkpt>
      <trkpt lat="43.20787" lon="0.09363">
        <ele>343.60000610352</ele>
        <time>2020-07-06T08:34:35.000Z</time>
      </trkpt>
      <trkpt lat="43.20787" lon="0.09368">
        <ele>343.60000610352</ele>
        <time>2020-07-06T08:34:37.000Z</time>
      </trkpt>
      <trkpt lat="43.20782" lon="0.09374">
        <ele>343.60000610352</ele>
        <time>2020-07-06T08:34:40.000Z</time>
      </trkpt>
      <trkpt lat="43.20782" lon="0.09376">
        <ele>343.79998779297</ele>
        <time>2020-07-06T08:34:41.000Z</time>
      </trkpt>
      <trkpt lat="43.2078" lon="0.0938">
        <ele>344</ele>
        <time>2020-07-06T08:34:43.000Z</time>
      </trkpt>
      <trkpt lat="43.20781" lon="0.09385">
        <ele>344.20001220703</ele>
        <time>2020-07-06T08:34:45.000Z</time>
      </trkpt>
      <trkpt lat="43.20783" lon="0.09391">
        <ele>344.79998779297</ele>
        <time>2020-07-06T08:34:48.000Z</time>
      </trkpt>
      <trkpt lat="43.20783" lon="0.09397">
        <ele>345.20001220703</ele>
        <time>2020-07-06T08:34:50.000Z</time>
      </trkpt>
      <trkpt lat="43.20781" lon="0.09423">
        <ele>345.79998779297</ele>
        <time>2020-07-06T08:34:56.000Z</time>
      </trkpt>
      <trkpt lat="43.20779" lon="0.09434">
        <ele>345.79998779297</ele>
        <time>2020-07-06T08:34:58.000Z</time>
      </trkpt>
      <trkpt lat="43.20776" lon="0.09448">
        <ele>346</ele>
        <time>2020-07-06T08:35:01.000Z</time>
      </trkpt>
      <trkpt lat="43.20774" lon="0.09476">
        <ele>346</ele>
        <time>2020-07-06T08:35:06.000Z</time>
      </trkpt>
      <trkpt lat="43.20771" lon="0.09507">
        <ele>346.20001220703</ele>
        <time>2020-07-06T08:35:11.000Z</time>
      </trkpt>
      <trkpt lat="43.20772" lon="0.09512">
        <ele>346.20001220703</ele>
        <time>2020-07-06T08:35:12.000Z</time>
      </trkpt>
      <trkpt lat="43.20774" lon="0.09516">
        <ele>346.20001220703</ele>
        <time>2020-07-06T08:35:13.000Z</time>
      </trkpt>
      <trkpt lat="43.20779" lon="0.09516">
        <ele>346.39999389648</ele>
        <time>2020-07-06T08:35:15.000Z</time>
      </trkpt>
      <trkpt lat="43.20792" lon="0.09512">
        <ele>346.79998779297</ele>
        <time>2020-07-06T08:35:18.000Z</time>
      </trkpt>
      <trkpt lat="43.20797" lon="0.09511">
        <ele>346.79998779297</ele>
        <time>2020-07-06T08:35:19.000Z</time>
      </trkpt>
      <trkpt lat="43.20822" lon="0.09501">
        <ele>346.60000610352</ele>
        <time>2020-07-06T08:35:24.000Z</time>
      </trkpt>
      <trkpt lat="43.20825" lon="0.09497">
        <ele>346.39999389648</ele>
        <time>2020-07-06T08:35:25.000Z</time>
      </trkpt>
      <trkpt lat="43.20826" lon="0.09492">
        <ele>346.39999389648</ele>
        <time>2020-07-06T08:35:26.000Z</time>
      </trkpt>
      <trkpt lat="43.20825" lon="0.0948">
        <ele>346.20001220703</ele>
        <time>2020-07-06T08:35:28.000Z</time>
      </trkpt>
      <trkpt lat="43.20822" lon="0.09459">
        <ele>346</ele>
        <time>2020-07-06T08:35:31.000Z</time>
      </trkpt>
      <trkpt lat="43.20825" lon="0.09446">
        <ele>346</ele>
        <time>2020-07-06T08:35:33.000Z</time>
      </trkpt>
      <trkpt lat="43.20825" lon="0.09437">
        <ele>345.79998779297</ele>
        <time>2020-07-06T08:35:35.000Z</time>
      </trkpt>
      <trkpt lat="43.20814" lon="0.09431">
        <ele>346</ele>
        <time>2020-07-06T08:35:38.000Z</time>
      </trkpt>
      <trkpt lat="43.20811" lon="0.09421">
        <ele>346</ele>
        <time>2020-07-06T08:35:40.000Z</time>
      </trkpt>
      <trkpt lat="43.20811" lon="0.09414">
        <ele>346</ele>
        <time>2020-07-06T08:35:41.000Z</time>
      </trkpt>
      <trkpt lat="43.20818" lon="0.09382">
        <ele>345.79998779297</ele>
        <time>2020-07-06T08:35:46.000Z</time>
      </trkpt>
      <trkpt lat="43.2082" lon="0.09376">
        <ele>345.79998779297</ele>
        <time>2020-07-06T08:35:47.000Z</time>
      </trkpt>
      <trkpt lat="43.20824" lon="0.0937">
        <ele>345.60000610352</ele>
        <time>2020-07-06T08:35:48.000Z</time>
      </trkpt>
      <trkpt lat="43.20834" lon="0.09363">
        <ele>345.39999389648</ele>
        <time>2020-07-06T08:35:50.000Z</time>
      </trkpt>
      <trkpt lat="43.20846" lon="0.09359">
        <ele>345</ele>
        <time>2020-07-06T08:35:52.000Z</time>
      </trkpt>
      <trkpt lat="43.20877" lon="0.09345">
        <ele>344.20001220703</ele>
        <time>2020-07-06T08:35:57.000Z</time>
      </trkpt>
      <trkpt lat="43.20908" lon="0.09329">
        <ele>343.79998779297</ele>
        <time>2020-07-06T08:36:02.000Z</time>
      </trkpt>
      <trkpt lat="43.20925" lon="0.09321">
        <ele>343.79998779297</ele>
        <time>2020-07-06T08:36:05.000Z</time>
      </trkpt>
      <trkpt lat="43.20949" lon="0.09309">
        <ele>343.39999389648</ele>
        <time>2020-07-06T08:36:09.000Z</time>
      </trkpt>
      <trkpt lat="43.20959" lon="0.09301">
        <ele>343.39999389648</ele>
        <time>2020-07-06T08:36:11.000Z</time>
      </trkpt>
      <trkpt lat="43.21009" lon="0.09267">
        <ele>343</ele>
        <time>2020-07-06T08:36:20.000Z</time>
      </trkpt>
      <trkpt lat="43.21021" lon="0.09258">
        <ele>343</ele>
        <time>2020-07-06T08:36:22.000Z</time>
      </trkpt>
      <trkpt lat="43.21026" lon="0.09253">
        <ele>342.79998779297</ele>
        <time>2020-07-06T08:36:23.000Z</time>
      </trkpt>
      <trkpt lat="43.21037" lon="0.0924">
        <ele>342.79998779297</ele>
        <time>2020-07-06T08:36:25.000Z</time>
      </trkpt>
      <trkpt lat="43.21064" lon="0.09213">
        <ele>342.20001220703</ele>
        <time>2020-07-06T08:36:30.000Z</time>
      </trkpt>
      <trkpt lat="43.21068" lon="0.09211">
        <ele>342.20001220703</ele>
        <time>2020-07-06T08:36:31.000Z</time>
      </trkpt>
      <trkpt lat="43.21075" lon="0.0921">
        <ele>342.20001220703</ele>
        <time>2020-07-06T08:36:33.000Z</time>
      </trkpt>
      <trkpt lat="43.2108" lon="0.09199">
        <ele>342</ele>
        <time>2020-07-06T08:36:36.000Z</time>
      </trkpt>
      <trkpt lat="43.21083" lon="0.09194">
        <ele>342</ele>
        <time>2020-07-06T08:36:37.000Z</time>
      </trkpt>
      <trkpt lat="43.21092" lon="0.09188">
        <ele>341.79998779297</ele>
        <time>2020-07-06T08:36:39.000Z</time>
      </trkpt>
      <trkpt lat="43.21124" lon="0.0918">
        <ele>341.20001220703</ele>
        <time>2020-07-06T08:36:44.000Z</time>
      </trkpt>
      <trkpt lat="43.21153" lon="0.09174">
        <ele>340.79998779297</ele>
        <time>2020-07-06T08:36:48.000Z</time>
      </trkpt>
      <trkpt lat="43.21167" lon="0.09174">
        <ele>340.60000610352</ele>
        <time>2020-07-06T08:36:50.000Z</time>
      </trkpt>
      <trkpt lat="43.2119" lon="0.09175">
        <ele>340</ele>
        <time>2020-07-06T08:36:53.000Z</time>
      </trkpt>
      <trkpt lat="43.21205" lon="0.09172">
        <ele>339.79998779297</ele>
        <time>2020-07-06T08:36:55.000Z</time>
      </trkpt>
      <trkpt lat="43.2122" lon="0.0917">
        <ele>339.60000610352</ele>
        <time>2020-07-06T08:36:57.000Z</time>
      </trkpt>
      <trkpt lat="43.21244" lon="0.09172">
        <ele>339.39999389648</ele>
        <time>2020-07-06T08:37:00.000Z</time>
      </trkpt>
      <trkpt lat="43.21301" lon="0.0917">
        <ele>338.79998779297</ele>
        <time>2020-07-06T08:37:07.000Z</time>
      </trkpt>
      <trkpt lat="43.21317" lon="0.09168">
        <ele>338.60000610352</ele>
        <time>2020-07-06T08:37:09.000Z</time>
      </trkpt>
      <trkpt lat="43.2135" lon="0.09165">
        <ele>338.20001220703</ele>
        <time>2020-07-06T08:37:13.000Z</time>
      </trkpt>
      <trkpt lat="43.21367" lon="0.09168">
        <ele>338</ele>
        <time>2020-07-06T08:37:15.000Z</time>
      </trkpt>
      <trkpt lat="43.2139" lon="0.09176">
        <ele>337.79998779297</ele>
        <time>2020-07-06T08:37:18.000Z</time>
      </trkpt>
      <trkpt lat="43.21414" lon="0.09186">
        <ele>337.60000610352</ele>
        <time>2020-07-06T08:37:21.000Z</time>
      </trkpt>
      <trkpt lat="43.21436" lon="0.09201">
        <ele>337.39999389648</ele>
        <time>2020-07-06T08:37:24.000Z</time>
      </trkpt>
      <trkpt lat="43.21472" lon="0.0923">
        <ele>336.79998779297</ele>
        <time>2020-07-06T08:37:29.000Z</time>
      </trkpt>
      <trkpt lat="43.21484" lon="0.09243">
        <ele>336.60000610352</ele>
        <time>2020-07-06T08:37:31.000Z</time>
      </trkpt>
      <trkpt lat="43.21497" lon="0.09256">
        <ele>336.60000610352</ele>
        <time>2020-07-06T08:37:33.000Z</time>
      </trkpt>
      <trkpt lat="43.21519" lon="0.0927">
        <ele>336.60000610352</ele>
        <time>2020-07-06T08:37:36.000Z</time>
      </trkpt>
      <trkpt lat="43.2153" lon="0.09279">
        <ele>336.60000610352</ele>
        <time>2020-07-06T08:37:38.000Z</time>
      </trkpt>
      <trkpt lat="43.21535" lon="0.09285">
        <ele>336.60000610352</ele>
        <time>2020-07-06T08:37:39.000Z</time>
      </trkpt>
      <trkpt lat="43.2154" lon="0.09291">
        <ele>336.60000610352</ele>
        <time>2020-07-06T08:37:40.000Z</time>
      </trkpt>
      <trkpt lat="43.21553" lon="0.09305">
        <ele>336.60000610352</ele>
        <time>2020-07-06T08:37:42.000Z</time>
      </trkpt>
      <trkpt lat="43.21603" lon="0.09345">
        <ele>336</ele>
        <time>2020-07-06T08:37:49.000Z</time>
      </trkpt>
      <trkpt lat="43.2161" lon="0.09349">
        <ele>336</ele>
        <time>2020-07-06T08:37:50.000Z</time>
      </trkpt>
      <trkpt lat="43.21624" lon="0.09357">
        <ele>336</ele>
        <time>2020-07-06T08:37:52.000Z</time>
      </trkpt>
      <trkpt lat="43.21646" lon="0.09374">
        <ele>335.79998779297</ele>
        <time>2020-07-06T08:37:55.000Z</time>
      </trkpt>
      <trkpt lat="43.21686" lon="0.09396">
        <ele>335.39999389648</ele>
        <time>2020-07-06T08:38:00.000Z</time>
      </trkpt>
      <trkpt lat="43.21729" lon="0.09406">
        <ele>336</ele>
        <time>2020-07-06T08:38:05.000Z</time>
      </trkpt>
      <trkpt lat="43.21784" lon="0.09414">
        <ele>336.60000610352</ele>
        <time>2020-07-06T08:38:12.000Z</time>
      </trkpt>
      <trkpt lat="43.21799" lon="0.09414">
        <ele>336.79998779297</ele>
        <time>2020-07-06T08:38:14.000Z</time>
      </trkpt>
      <trkpt lat="43.21826" lon="0.09415">
        <ele>337.60000610352</ele>
        <time>2020-07-06T08:38:18.000Z</time>
      </trkpt>
      <trkpt lat="43.21839" lon="0.09415">
        <ele>337.79998779297</ele>
        <time>2020-07-06T08:38:20.000Z</time>
      </trkpt>
      <trkpt lat="43.21853" lon="0.09417">
        <ele>337.79998779297</ele>
        <time>2020-07-06T08:38:22.000Z</time>
      </trkpt>
      <trkpt lat="43.21875" lon="0.09416">
        <ele>337.79998779297</ele>
        <time>2020-07-06T08:38:25.000Z</time>
      </trkpt>
      <trkpt lat="43.21891" lon="0.09418">
        <ele>337.39999389648</ele>
        <time>2020-07-06T08:38:27.000Z</time>
      </trkpt>
      <trkpt lat="43.21923" lon="0.09424">
        <ele>335.39999389648</ele>
        <time>2020-07-06T08:38:31.000Z</time>
      </trkpt>
      <trkpt lat="43.21931" lon="0.09425">
        <ele>335.20001220703</ele>
        <time>2020-07-06T08:38:32.000Z</time>
      </trkpt>
      <trkpt lat="43.21957" lon="0.09423">
        <ele>334.39999389648</ele>
        <time>2020-07-06T08:38:35.000Z</time>
      </trkpt>
      <trkpt lat="43.21975" lon="0.0942">
        <ele>333.60000610352</ele>
        <time>2020-07-06T08:38:37.000Z</time>
      </trkpt>
      <trkpt lat="43.21984" lon="0.09418">
        <ele>333.20001220703</ele>
        <time>2020-07-06T08:38:38.000Z</time>
      </trkpt>
      <trkpt lat="43.22013" lon="0.0941">
        <ele>332.39999389648</ele>
        <time>2020-07-06T08:38:41.000Z</time>
      </trkpt>
      <trkpt lat="43.22021" lon="0.09406">
        <ele>331.79998779297</ele>
        <time>2020-07-06T08:38:42.000Z</time>
      </trkpt>
      <trkpt lat="43.2207" lon="0.09377">
        <ele>331</ele>
        <time>2020-07-06T08:38:48.000Z</time>
      </trkpt>
      <trkpt lat="43.22123" lon="0.09349">
        <ele>330.79998779297</ele>
        <time>2020-07-06T08:38:55.000Z</time>
      </trkpt>
      <trkpt lat="43.22137" lon="0.0934">
        <ele>330.79998779297</ele>
        <time>2020-07-06T08:38:57.000Z</time>
      </trkpt>
      <trkpt lat="43.22149" lon="0.09329">
        <ele>330.60000610352</ele>
        <time>2020-07-06T08:38:59.000Z</time>
      </trkpt>
      <trkpt lat="43.22163" lon="0.0932">
        <ele>330.60000610352</ele>
        <time>2020-07-06T08:39:01.000Z</time>
      </trkpt>
      <trkpt lat="43.22178" lon="0.09312">
        <ele>330.39999389648</ele>
        <time>2020-07-06T08:39:03.000Z</time>
      </trkpt>
      <trkpt lat="43.22208" lon="0.09299">
        <ele>330.39999389648</ele>
        <time>2020-07-06T08:39:08.000Z</time>
      </trkpt>
      <trkpt lat="43.22214" lon="0.09297">
        <ele>330.39999389648</ele>
        <time>2020-07-06T08:39:09.000Z</time>
      </trkpt>
      <trkpt lat="43.22242" lon="0.09287">
        <ele>330.39999389648</ele>
        <time>2020-07-06T08:39:13.000Z</time>
      </trkpt>
      <trkpt lat="43.22284" lon="0.09273">
        <ele>330</ele>
        <time>2020-07-06T08:39:19.000Z</time>
      </trkpt>
      <trkpt lat="43.22325" lon="0.09266">
        <ele>330</ele>
        <time>2020-07-06T08:39:25.000Z</time>
      </trkpt>
      <trkpt lat="43.22335" lon="0.09273">
        <ele>330.20001220703</ele>
        <time>2020-07-06T08:39:27.000Z</time>
      </trkpt>
      <trkpt lat="43.22339" lon="0.09277">
        <ele>330.20001220703</ele>
        <time>2020-07-06T08:39:28.000Z</time>
      </trkpt>
      <trkpt lat="43.22342" lon="0.09283">
        <ele>330.39999389648</ele>
        <time>2020-07-06T08:39:29.000Z</time>
      </trkpt>
      <trkpt lat="43.22347" lon="0.09293">
        <ele>330.60000610352</ele>
        <time>2020-07-06T08:39:31.000Z</time>
      </trkpt>
      <trkpt lat="43.22349" lon="0.09296">
        <ele>330.79998779297</ele>
        <time>2020-07-06T08:39:32.000Z</time>
      </trkpt>
      <trkpt lat="43.22354" lon="0.09308">
        <ele>331.60000610352</ele>
        <time>2020-07-06T08:39:35.000Z</time>
      </trkpt>
      <trkpt lat="43.22355" lon="0.09308">
        <ele>332</ele>
        <time>2020-07-06T08:39:36.000Z</time>
      </trkpt>
      <trkpt lat="43.22356" lon="0.09308">
        <ele>332.39999389648</ele>
        <time>2020-07-06T08:39:39.000Z</time>
      </trkpt>
      <trkpt lat="43.22357" lon="0.09307">
        <ele>332.79998779297</ele>
        <time>2020-07-06T08:39:49.000Z</time>
      </trkpt>
      <trkpt lat="43.22359" lon="0.09303">
        <ele>332.79998779297</ele>
        <time>2020-07-06T08:39:52.000Z</time>
      </trkpt>
      <trkpt lat="43.22355" lon="0.09285">
        <ele>332.79998779297</ele>
        <time>2020-07-06T08:39:56.000Z</time>
      </trkpt>
      <trkpt lat="43.22351" lon="0.09272">
        <ele>332.79998779297</ele>
        <time>2020-07-06T08:39:59.000Z</time>
      </trkpt>
      <trkpt lat="43.22352" lon="0.0927">
        <ele>332.79998779297</ele>
        <time>2020-07-06T08:40:00.000Z</time>
      </trkpt>
      <trkpt lat="43.22352" lon="0.09269">
        <ele>332.60000610352</ele>
        <time>2020-07-06T08:40:01.000Z</time>
      </trkpt>
      <trkpt lat="43.22355" lon="0.09268">
        <ele>332.60000610352</ele>
        <time>2020-07-06T08:40:03.000Z</time>
      </trkpt>
      <trkpt lat="43.22366" lon="0.09254">
        <ele>332.39999389648</ele>
        <time>2020-07-06T08:40:07.000Z</time>
      </trkpt>
      <trkpt lat="43.22374" lon="0.09244">
        <ele>332.39999389648</ele>
        <time>2020-07-06T08:40:09.000Z</time>
      </trkpt>
      <trkpt lat="43.22386" lon="0.09238">
        <ele>332</ele>
        <time>2020-07-06T08:40:11.000Z</time>
      </trkpt>
      <trkpt lat="43.22403" lon="0.09232">
        <ele>331.39999389648</ele>
        <time>2020-07-06T08:40:14.000Z</time>
      </trkpt>
      <trkpt lat="43.22407" lon="0.09228">
        <ele>331.20001220703</ele>
        <time>2020-07-06T08:40:15.000Z</time>
      </trkpt>
      <trkpt lat="43.22411" lon="0.09222">
        <ele>330.79998779297</ele>
        <time>2020-07-06T08:40:16.000Z</time>
      </trkpt>
      <trkpt lat="43.2242" lon="0.09211">
        <ele>330.39999389648</ele>
        <time>2020-07-06T08:40:18.000Z</time>
      </trkpt>
      <trkpt lat="43.22431" lon="0.09204">
        <ele>330</ele>
        <time>2020-07-06T08:40:20.000Z</time>
      </trkpt>
      <trkpt lat="43.22437" lon="0.09201">
        <ele>329.79998779297</ele>
        <time>2020-07-06T08:40:21.000Z</time>
      </trkpt>
      <trkpt lat="43.22444" lon="0.09198">
        <ele>329.39999389648</ele>
        <time>2020-07-06T08:40:22.000Z</time>
      </trkpt>
      <trkpt lat="43.22456" lon="0.09195">
        <ele>329.20001220703</ele>
        <time>2020-07-06T08:40:24.000Z</time>
      </trkpt>
      <trkpt lat="43.2247" lon="0.09194">
        <ele>329.20001220703</ele>
        <time>2020-07-06T08:40:26.000Z</time>
      </trkpt>
      <trkpt lat="43.22482" lon="0.09193">
        <ele>329.20001220703</ele>
        <time>2020-07-06T08:40:28.000Z</time>
      </trkpt>
      <trkpt lat="43.22503" lon="0.09188">
        <ele>329.20001220703</ele>
        <time>2020-07-06T08:40:31.000Z</time>
      </trkpt>
      <trkpt lat="43.22548" lon="0.09174">
        <ele>329.79998779297</ele>
        <time>2020-07-06T08:40:37.000Z</time>
      </trkpt>
      <trkpt lat="43.22594" lon="0.09155">
        <ele>330</ele>
        <time>2020-07-06T08:40:43.000Z</time>
      </trkpt>
      <trkpt lat="43.22602" lon="0.09154">
        <ele>330</ele>
        <time>2020-07-06T08:40:44.000Z</time>
      </trkpt>
      <trkpt lat="43.22616" lon="0.09151">
        <ele>330</ele>
        <time>2020-07-06T08:40:46.000Z</time>
      </trkpt>
      <trkpt lat="43.22636" lon="0.09141">
        <ele>330</ele>
        <time>2020-07-06T08:40:49.000Z</time>
      </trkpt>
      <trkpt lat="43.22664" lon="0.09128">
        <ele>330</ele>
        <time>2020-07-06T08:40:53.000Z</time>
      </trkpt>
      <trkpt lat="43.22671" lon="0.09124">
        <ele>330</ele>
        <time>2020-07-06T08:40:54.000Z</time>
      </trkpt>
      <trkpt lat="43.22714" lon="0.09098">
        <ele>328.79998779297</ele>
        <time>2020-07-06T08:41:00.000Z</time>
      </trkpt>
      <trkpt lat="43.22736" lon="0.09084">
        <ele>327.79998779297</ele>
        <time>2020-07-06T08:41:03.000Z</time>
      </trkpt>
      <trkpt lat="43.22746" lon="0.09077">
        <ele>327.20001220703</ele>
        <time>2020-07-06T08:41:05.000Z</time>
      </trkpt>
      <trkpt lat="43.2275" lon="0.09075">
        <ele>326.60000610352</ele>
        <time>2020-07-06T08:41:06.000Z</time>
      </trkpt>
      <trkpt lat="43.22756" lon="0.09072">
        <ele>326.20001220703</ele>
        <time>2020-07-06T08:41:08.000Z</time>
      </trkpt>
      <trkpt lat="43.22764" lon="0.0907">
        <ele>326.20001220703</ele>
        <time>2020-07-06T08:41:10.000Z</time>
      </trkpt>
      <trkpt lat="43.22777" lon="0.09066">
        <ele>326</ele>
        <time>2020-07-06T08:41:12.000Z</time>
      </trkpt>
      <trkpt lat="43.22804" lon="0.09056">
        <ele>325.60000610352</ele>
        <time>2020-07-06T08:41:16.000Z</time>
      </trkpt>
      <trkpt lat="43.22811" lon="0.09054">
        <ele>325.39999389648</ele>
        <time>2020-07-06T08:41:17.000Z</time>
      </trkpt>
      <trkpt lat="43.22847" lon="0.09039">
        <ele>324.79998779297</ele>
        <time>2020-07-06T08:41:22.000Z</time>
      </trkpt>
      <trkpt lat="43.22878" lon="0.09028">
        <ele>324.60000610352</ele>
        <time>2020-07-06T08:41:26.000Z</time>
      </trkpt>
      <trkpt lat="43.22894" lon="0.09025">
        <ele>324.39999389648</ele>
        <time>2020-07-06T08:41:28.000Z</time>
      </trkpt>
      <trkpt lat="43.22936" lon="0.09001">
        <ele>324</ele>
        <time>2020-07-06T08:41:34.000Z</time>
      </trkpt>
      <trkpt lat="43.22979" lon="0.08965">
        <ele>323.39999389648</ele>
        <time>2020-07-06T08:41:40.000Z</time>
      </trkpt>
      <trkpt lat="43.22986" lon="0.0896">
        <ele>323.39999389648</ele>
        <time>2020-07-06T08:41:41.000Z</time>
      </trkpt>
      <trkpt lat="43.22993" lon="0.08953">
        <ele>323.39999389648</ele>
        <time>2020-07-06T08:41:42.000Z</time>
      </trkpt>
      <trkpt lat="43.23006" lon="0.08941">
        <ele>323.20001220703</ele>
        <time>2020-07-06T08:41:44.000Z</time>
      </trkpt>
      <trkpt lat="43.23012" lon="0.08935">
        <ele>323.20001220703</ele>
        <time>2020-07-06T08:41:45.000Z</time>
      </trkpt>
      <trkpt lat="43.23026" lon="0.08924">
        <ele>323.20001220703</ele>
        <time>2020-07-06T08:41:47.000Z</time>
      </trkpt>
      <trkpt lat="43.23048" lon="0.08912">
        <ele>323</ele>
        <time>2020-07-06T08:41:50.000Z</time>
      </trkpt>
      <trkpt lat="43.23093" lon="0.08899">
        <ele>322.79998779297</ele>
        <time>2020-07-06T08:41:56.000Z</time>
      </trkpt>
      <trkpt lat="43.23122" lon="0.0889">
        <ele>322.79998779297</ele>
        <time>2020-07-06T08:42:00.000Z</time>
      </trkpt>
      <trkpt lat="43.2313" lon="0.08888">
        <ele>322.60000610352</ele>
        <time>2020-07-06T08:42:01.000Z</time>
      </trkpt>
      <trkpt lat="43.23182" lon="0.08876">
        <ele>322.60000610352</ele>
        <time>2020-07-06T08:42:08.000Z</time>
      </trkpt>
      <trkpt lat="43.23212" lon="0.08865">
        <ele>322.60000610352</ele>
        <time>2020-07-06T08:42:12.000Z</time>
      </trkpt>
      <trkpt lat="43.23221" lon="0.08865">
        <ele>322.60000610352</ele>
        <time>2020-07-06T08:42:13.000Z</time>
      </trkpt>
      <trkpt lat="43.23242" lon="0.08864">
        <ele>322.79998779297</ele>
        <time>2020-07-06T08:42:16.000Z</time>
      </trkpt>
      <trkpt lat="43.23248" lon="0.0886">
        <ele>322.79998779297</ele>
        <time>2020-07-06T08:42:17.000Z</time>
      </trkpt>
      <trkpt lat="43.23253" lon="0.08856">
        <ele>322.79998779297</ele>
        <time>2020-07-06T08:42:18.000Z</time>
      </trkpt>
      <trkpt lat="43.23264" lon="0.08847">
        <ele>322.79998779297</ele>
        <time>2020-07-06T08:42:20.000Z</time>
      </trkpt>
      <trkpt lat="43.23287" lon="0.08838">
        <ele>322.39999389648</ele>
        <time>2020-07-06T08:42:23.000Z</time>
      </trkpt>
      <trkpt lat="43.23312" lon="0.0883">
        <ele>321.79998779297</ele>
        <time>2020-07-06T08:42:26.000Z</time>
      </trkpt>
      <trkpt lat="43.23337" lon="0.08824">
        <ele>321.20001220703</ele>
        <time>2020-07-06T08:42:29.000Z</time>
      </trkpt>
      <trkpt lat="43.2336" lon="0.08816">
        <ele>320.79998779297</ele>
        <time>2020-07-06T08:42:32.000Z</time>
      </trkpt>
      <trkpt lat="43.23367" lon="0.08813">
        <ele>320.60000610352</ele>
        <time>2020-07-06T08:42:33.000Z</time>
      </trkpt>
      <trkpt lat="43.2339" lon="0.08802">
        <ele>320.20001220703</ele>
        <time>2020-07-06T08:42:36.000Z</time>
      </trkpt>
      <trkpt lat="43.23397" lon="0.08798">
        <ele>320.20001220703</ele>
        <time>2020-07-06T08:42:37.000Z</time>
      </trkpt>
      <trkpt lat="43.23442" lon="0.0877">
        <ele>319.79998779297</ele>
        <time>2020-07-06T08:42:43.000Z</time>
      </trkpt>
      <trkpt lat="43.23463" lon="0.08753">
        <ele>319.60000610352</ele>
        <time>2020-07-06T08:42:46.000Z</time>
      </trkpt>
      <trkpt lat="43.23475" lon="0.0874">
        <ele>319.39999389648</ele>
        <time>2020-07-06T08:42:48.000Z</time>
      </trkpt>
      <trkpt lat="43.23508" lon="0.08705">
        <ele>319.20001220703</ele>
        <time>2020-07-06T08:42:53.000Z</time>
      </trkpt>
      <trkpt lat="43.23521" lon="0.08691">
        <ele>319</ele>
        <time>2020-07-06T08:42:55.000Z</time>
      </trkpt>
      <trkpt lat="43.23564" lon="0.08642">
        <ele>318.39999389648</ele>
        <time>2020-07-06T08:43:02.000Z</time>
      </trkpt>
      <trkpt lat="43.23577" lon="0.08627">
        <ele>318.20001220703</ele>
        <time>2020-07-06T08:43:04.000Z</time>
      </trkpt>
      <trkpt lat="43.23582" lon="0.08619">
        <ele>318.20001220703</ele>
        <time>2020-07-06T08:43:05.000Z</time>
      </trkpt>
      <trkpt lat="43.23593" lon="0.08604">
        <ele>318.20001220703</ele>
        <time>2020-07-06T08:43:07.000Z</time>
      </trkpt>
      <trkpt lat="43.236" lon="0.08598">
        <ele>318.20001220703</ele>
        <time>2020-07-06T08:43:08.000Z</time>
      </trkpt>
      <trkpt lat="43.23635" lon="0.08554">
        <ele>318</ele>
        <time>2020-07-06T08:43:14.000Z</time>
      </trkpt>
      <trkpt lat="43.23677" lon="0.08502">
        <ele>317.60000610352</ele>
        <time>2020-07-06T08:43:21.000Z</time>
      </trkpt>
      <trkpt lat="43.2369" lon="0.08489">
        <ele>317.39999389648</ele>
        <time>2020-07-06T08:43:23.000Z</time>
      </trkpt>
      <trkpt lat="43.23732" lon="0.08456">
        <ele>317.20001220703</ele>
        <time>2020-07-06T08:43:29.000Z</time>
      </trkpt>
      <trkpt lat="43.23753" lon="0.08443">
        <ele>317</ele>
        <time>2020-07-06T08:43:32.000Z</time>
      </trkpt>
      <trkpt lat="43.23774" lon="0.0843">
        <ele>316.79998779297</ele>
        <time>2020-07-06T08:43:35.000Z</time>
      </trkpt>
      <trkpt lat="43.23823" lon="0.08398">
        <ele>316.20001220703</ele>
        <time>2020-07-06T08:43:42.000Z</time>
      </trkpt>
      <trkpt lat="43.23865" lon="0.08372">
        <ele>316</ele>
        <time>2020-07-06T08:43:48.000Z</time>
      </trkpt>
      <trkpt lat="43.23873" lon="0.08368">
        <ele>316</ele>
        <time>2020-07-06T08:43:49.000Z</time>
      </trkpt>
      <trkpt lat="43.23918" lon="0.08346">
        <ele>315.79998779297</ele>
        <time>2020-07-06T08:43:55.000Z</time>
      </trkpt>
      <trkpt lat="43.23933" lon="0.08337">
        <ele>315.79998779297</ele>
        <time>2020-07-06T08:43:57.000Z</time>
      </trkpt>
      <trkpt lat="43.23947" lon="0.0833">
        <ele>315.60000610352</ele>
        <time>2020-07-06T08:43:59.000Z</time>
      </trkpt>
      <trkpt lat="43.23953" lon="0.08328">
        <ele>315.60000610352</ele>
        <time>2020-07-06T08:44:00.000Z</time>
      </trkpt>
      <trkpt lat="43.2396" lon="0.08328">
        <ele>315.60000610352</ele>
        <time>2020-07-06T08:44:01.000Z</time>
      </trkpt>
      <trkpt lat="43.23976" lon="0.08331">
        <ele>315.60000610352</ele>
        <time>2020-07-06T08:44:03.000Z</time>
      </trkpt>
      <trkpt lat="43.23993" lon="0.08332">
        <ele>315.60000610352</ele>
        <time>2020-07-06T08:44:05.000Z</time>
      </trkpt>
      <trkpt lat="43.24009" lon="0.08327">
        <ele>316</ele>
        <time>2020-07-06T08:44:07.000Z</time>
      </trkpt>
      <trkpt lat="43.24047" lon="0.08302">
        <ele>316.60000610352</ele>
        <time>2020-07-06T08:44:12.000Z</time>
      </trkpt>
      <trkpt lat="43.24099" lon="0.08271">
        <ele>316.39999389648</ele>
        <time>2020-07-06T08:44:19.000Z</time>
      </trkpt>
      <trkpt lat="43.24124" lon="0.08269">
        <ele>316.39999389648</ele>
        <time>2020-07-06T08:44:22.000Z</time>
      </trkpt>
      <trkpt lat="43.24151" lon="0.08261">
        <ele>315.60000610352</ele>
        <time>2020-07-06T08:44:26.000Z</time>
      </trkpt>
      <trkpt lat="43.24175" lon="0.08256">
        <ele>315</ele>
        <time>2020-07-06T08:44:29.000Z</time>
      </trkpt>
      <trkpt lat="43.24191" lon="0.08255">
        <ele>314.79998779297</ele>
        <time>2020-07-06T08:44:31.000Z</time>
      </trkpt>
      <trkpt lat="43.24248" lon="0.08254">
        <ele>314.39999389648</ele>
        <time>2020-07-06T08:44:38.000Z</time>
      </trkpt>
      <trkpt lat="43.24256" lon="0.08254">
        <ele>314.39999389648</ele>
        <time>2020-07-06T08:44:39.000Z</time>
      </trkpt>
      <trkpt lat="43.24272" lon="0.08253">
        <ele>314.20001220703</ele>
        <time>2020-07-06T08:44:41.000Z</time>
      </trkpt>
      <trkpt lat="43.24289" lon="0.08255">
        <ele>314</ele>
        <time>2020-07-06T08:44:43.000Z</time>
      </trkpt>
      <trkpt lat="43.24296" lon="0.08258">
        <ele>314</ele>
        <time>2020-07-06T08:44:44.000Z</time>
      </trkpt>
      <trkpt lat="43.24305" lon="0.08262">
        <ele>313.79998779297</ele>
        <time>2020-07-06T08:44:45.000Z</time>
      </trkpt>
      <trkpt lat="43.2435" lon="0.08273">
        <ele>312.60000610352</ele>
        <time>2020-07-06T08:44:50.000Z</time>
      </trkpt>
      <trkpt lat="43.244" lon="0.08274">
        <ele>311.79998779297</ele>
        <time>2020-07-06T08:44:56.000Z</time>
      </trkpt>
      <trkpt lat="43.24417" lon="0.08269">
        <ele>311.79998779297</ele>
        <time>2020-07-06T08:44:58.000Z</time>
      </trkpt>
      <trkpt lat="43.24425" lon="0.08267">
        <ele>311.79998779297</ele>
        <time>2020-07-06T08:44:59.000Z</time>
      </trkpt>
      <trkpt lat="43.24433" lon="0.08265">
        <ele>311.79998779297</ele>
        <time>2020-07-06T08:45:00.000Z</time>
      </trkpt>
      <trkpt lat="43.2445" lon="0.08258">
        <ele>312</ele>
        <time>2020-07-06T08:45:02.000Z</time>
      </trkpt>
      <trkpt lat="43.2446" lon="0.08256">
        <ele>312</ele>
        <time>2020-07-06T08:45:03.000Z</time>
      </trkpt>
      <trkpt lat="43.24468" lon="0.08256">
        <ele>312</ele>
        <time>2020-07-06T08:45:04.000Z</time>
      </trkpt>
      <trkpt lat="43.24485" lon="0.0826">
        <ele>312.20001220703</ele>
        <time>2020-07-06T08:45:06.000Z</time>
      </trkpt>
      <trkpt lat="43.24529" lon="0.08274">
        <ele>311.79998779297</ele>
        <time>2020-07-06T08:45:11.000Z</time>
      </trkpt>
      <trkpt lat="43.24543" lon="0.08284">
        <ele>311.79998779297</ele>
        <time>2020-07-06T08:45:13.000Z</time>
      </trkpt>
      <trkpt lat="43.2455" lon="0.08293">
        <ele>311.79998779297</ele>
        <time>2020-07-06T08:45:14.000Z</time>
      </trkpt>
      <trkpt lat="43.24558" lon="0.08299">
        <ele>311.60000610352</ele>
        <time>2020-07-06T08:45:15.000Z</time>
      </trkpt>
      <trkpt lat="43.24565" lon="0.08305">
        <ele>311.60000610352</ele>
        <time>2020-07-06T08:45:16.000Z</time>
      </trkpt>
      <trkpt lat="43.24581" lon="0.08315">
        <ele>311.60000610352</ele>
        <time>2020-07-06T08:45:18.000Z</time>
      </trkpt>
      <trkpt lat="43.24589" lon="0.08319">
        <ele>311.60000610352</ele>
        <time>2020-07-06T08:45:19.000Z</time>
      </trkpt>
      <trkpt lat="43.24623" lon="0.08331">
        <ele>311.39999389648</ele>
        <time>2020-07-06T08:45:23.000Z</time>
      </trkpt>
      <trkpt lat="43.24679" lon="0.08344">
        <ele>310.60000610352</ele>
        <time>2020-07-06T08:45:30.000Z</time>
      </trkpt>
      <trkpt lat="43.24687" lon="0.08346">
        <ele>310.60000610352</ele>
        <time>2020-07-06T08:45:31.000Z</time>
      </trkpt>
      <trkpt lat="43.24694" lon="0.08348">
        <ele>310.60000610352</ele>
        <time>2020-07-06T08:45:32.000Z</time>
      </trkpt>
      <trkpt lat="43.2471" lon="0.08351">
        <ele>310.60000610352</ele>
        <time>2020-07-06T08:45:34.000Z</time>
      </trkpt>
      <trkpt lat="43.24727" lon="0.08352">
        <ele>310.60000610352</ele>
        <time>2020-07-06T08:45:36.000Z</time>
      </trkpt>
      <trkpt lat="43.24771" lon="0.08348">
        <ele>311</ele>
        <time>2020-07-06T08:45:41.000Z</time>
      </trkpt>
      <trkpt lat="43.2478" lon="0.08349">
        <ele>311</ele>
        <time>2020-07-06T08:45:42.000Z</time>
      </trkpt>
      <trkpt lat="43.24788" lon="0.08348">
        <ele>311</ele>
        <time>2020-07-06T08:45:43.000Z</time>
      </trkpt>
      <trkpt lat="43.24804" lon="0.08344">
        <ele>311</ele>
        <time>2020-07-06T08:45:45.000Z</time>
      </trkpt>
      <trkpt lat="43.24812" lon="0.0834">
        <ele>310.79998779297</ele>
        <time>2020-07-06T08:45:46.000Z</time>
      </trkpt>
      <trkpt lat="43.24845" lon="0.08329">
        <ele>310.60000610352</ele>
        <time>2020-07-06T08:45:50.000Z</time>
      </trkpt>
      <trkpt lat="43.24862" lon="0.08327">
        <ele>310.39999389648</ele>
        <time>2020-07-06T08:45:52.000Z</time>
      </trkpt>
      <trkpt lat="43.24887" lon="0.08327">
        <ele>310.20001220703</ele>
        <time>2020-07-06T08:45:55.000Z</time>
      </trkpt>
      <trkpt lat="43.24942" lon="0.08319">
        <ele>310.39999389648</ele>
        <time>2020-07-06T08:46:02.000Z</time>
      </trkpt>
      <trkpt lat="43.24982" lon="0.08323">
        <ele>310.60000610352</ele>
        <time>2020-07-06T08:46:07.000Z</time>
      </trkpt>
      <trkpt lat="43.25039" lon="0.0833">
        <ele>310.39999389648</ele>
        <time>2020-07-06T08:46:14.000Z</time>
      </trkpt>
      <trkpt lat="43.25063" lon="0.08332">
        <ele>310</ele>
        <time>2020-07-06T08:46:17.000Z</time>
      </trkpt>
      <trkpt lat="43.2511" lon="0.08344">
        <ele>309.79998779297</ele>
        <time>2020-07-06T08:46:23.000Z</time>
      </trkpt>
      <trkpt lat="43.2515" lon="0.08344">
        <ele>309.79998779297</ele>
        <time>2020-07-06T08:46:28.000Z</time>
      </trkpt>
      <trkpt lat="43.25165" lon="0.08348">
        <ele>310</ele>
        <time>2020-07-06T08:46:30.000Z</time>
      </trkpt>
      <trkpt lat="43.25172" lon="0.08353">
        <ele>310</ele>
        <time>2020-07-06T08:46:31.000Z</time>
      </trkpt>
      <trkpt lat="43.25178" lon="0.08359">
        <ele>310</ele>
        <time>2020-07-06T08:46:32.000Z</time>
      </trkpt>
      <trkpt lat="43.25193" lon="0.08367">
        <ele>310</ele>
        <time>2020-07-06T08:46:34.000Z</time>
      </trkpt>
      <trkpt lat="43.25225" lon="0.08369">
        <ele>309.60000610352</ele>
        <time>2020-07-06T08:46:38.000Z</time>
      </trkpt>
      <trkpt lat="43.25233" lon="0.0837">
        <ele>309.60000610352</ele>
        <time>2020-07-06T08:46:39.000Z</time>
      </trkpt>
      <trkpt lat="43.25245" lon="0.08381">
        <ele>309.39999389648</ele>
        <time>2020-07-06T08:46:41.000Z</time>
      </trkpt>
      <trkpt lat="43.2526" lon="0.08414">
        <ele>308.79998779297</ele>
        <time>2020-07-06T08:46:45.000Z</time>
      </trkpt>
      <trkpt lat="43.25263" lon="0.08419">
        <ele>308.60000610352</ele>
        <time>2020-07-06T08:46:46.000Z</time>
      </trkpt>
      <trkpt lat="43.25266" lon="0.08422">
        <ele>308.60000610352</ele>
        <time>2020-07-06T08:46:47.000Z</time>
      </trkpt>
      <trkpt lat="43.25272" lon="0.08424">
        <ele>308.20001220703</ele>
        <time>2020-07-06T08:46:49.000Z</time>
      </trkpt>
      <trkpt lat="43.25275" lon="0.08422">
        <ele>308</ele>
        <time>2020-07-06T08:46:50.000Z</time>
      </trkpt>
      <trkpt lat="43.25283" lon="0.08415">
        <ele>308</ele>
        <time>2020-07-06T08:46:52.000Z</time>
      </trkpt>
      <trkpt lat="43.25295" lon="0.08411">
        <ele>308</ele>
        <time>2020-07-06T08:46:54.000Z</time>
      </trkpt>
      <trkpt lat="43.25308" lon="0.0841">
        <ele>307.79998779297</ele>
        <time>2020-07-06T08:46:56.000Z</time>
      </trkpt>
      <trkpt lat="43.25315" lon="0.0841">
        <ele>307.79998779297</ele>
        <time>2020-07-06T08:46:57.000Z</time>
      </trkpt>
      <trkpt lat="43.25335" lon="0.08417">
        <ele>307.79998779297</ele>
        <time>2020-07-06T08:47:00.000Z</time>
      </trkpt>
      <trkpt lat="43.25342" lon="0.08418">
        <ele>307.60000610352</ele>
        <time>2020-07-06T08:47:01.000Z</time>
      </trkpt>
      <trkpt lat="43.25357" lon="0.08419">
        <ele>307.39999389648</ele>
        <time>2020-07-06T08:47:03.000Z</time>
      </trkpt>
      <trkpt lat="43.25373" lon="0.08419">
        <ele>307.39999389648</ele>
        <time>2020-07-06T08:47:05.000Z</time>
      </trkpt>
      <trkpt lat="43.25417" lon="0.08415">
        <ele>306.79998779297</ele>
        <time>2020-07-06T08:47:10.000Z</time>
      </trkpt>
      <trkpt lat="43.25442" lon="0.08412">
        <ele>306.39999389648</ele>
        <time>2020-07-06T08:47:13.000Z</time>
      </trkpt>
      <trkpt lat="43.2545" lon="0.0841">
        <ele>306.20001220703</ele>
        <time>2020-07-06T08:47:14.000Z</time>
      </trkpt>
      <trkpt lat="43.25458" lon="0.08407">
        <ele>306</ele>
        <time>2020-07-06T08:47:15.000Z</time>
      </trkpt>
      <trkpt lat="43.25483" lon="0.08402">
        <ele>305.79998779297</ele>
        <time>2020-07-06T08:47:18.000Z</time>
      </trkpt>
      <trkpt lat="43.255" lon="0.08396">
        <ele>305.60000610352</ele>
        <time>2020-07-06T08:47:20.000Z</time>
      </trkpt>
      <trkpt lat="43.25527" lon="0.08385">
        <ele>305.60000610352</ele>
        <time>2020-07-06T08:47:23.000Z</time>
      </trkpt>
      <trkpt lat="43.25545" lon="0.08382">
        <ele>305.60000610352</ele>
        <time>2020-07-06T08:47:25.000Z</time>
      </trkpt>
      <trkpt lat="43.25563" lon="0.08383">
        <ele>305.60000610352</ele>
        <time>2020-07-06T08:47:27.000Z</time>
      </trkpt>
      <trkpt lat="43.25606" lon="0.08384">
        <ele>305.79998779297</ele>
        <time>2020-07-06T08:47:32.000Z</time>
      </trkpt>
      <trkpt lat="43.25631" lon="0.08379">
        <ele>305.60000610352</ele>
        <time>2020-07-06T08:47:35.000Z</time>
      </trkpt>
      <trkpt lat="43.25639" lon="0.08377">
        <ele>305.39999389648</ele>
        <time>2020-07-06T08:47:36.000Z</time>
      </trkpt>
      <trkpt lat="43.25657" lon="0.08374">
        <ele>305</ele>
        <time>2020-07-06T08:47:38.000Z</time>
      </trkpt>
      <trkpt lat="43.25674" lon="0.08376">
        <ele>304.60000610352</ele>
        <time>2020-07-06T08:47:40.000Z</time>
      </trkpt>
      <trkpt lat="43.257" lon="0.08368">
        <ele>304.20001220703</ele>
        <time>2020-07-06T08:47:43.000Z</time>
      </trkpt>
      <trkpt lat="43.25709" lon="0.08367">
        <ele>304.20001220703</ele>
        <time>2020-07-06T08:47:44.000Z</time>
      </trkpt>
      <trkpt lat="43.25762" lon="0.08361">
        <ele>303.60000610352</ele>
        <time>2020-07-06T08:47:50.000Z</time>
      </trkpt>
      <trkpt lat="43.25771" lon="0.0836">
        <ele>303.60000610352</ele>
        <time>2020-07-06T08:47:51.000Z</time>
      </trkpt>
      <trkpt lat="43.25796" lon="0.08363">
        <ele>303.60000610352</ele>
        <time>2020-07-06T08:47:54.000Z</time>
      </trkpt>
      <trkpt lat="43.25827" lon="0.08365">
        <ele>303.20001220703</ele>
        <time>2020-07-06T08:47:58.000Z</time>
      </trkpt>
      <trkpt lat="43.25834" lon="0.08364">
        <ele>303</ele>
        <time>2020-07-06T08:47:59.000Z</time>
      </trkpt>
      <trkpt lat="43.25861" lon="0.08363">
        <ele>303</ele>
        <time>2020-07-06T08:48:02.000Z</time>
      </trkpt>
      <trkpt lat="43.25903" lon="0.0837">
        <ele>302.79998779297</ele>
        <time>2020-07-06T08:48:07.000Z</time>
      </trkpt>
      <trkpt lat="43.25911" lon="0.08371">
        <ele>302.79998779297</ele>
        <time>2020-07-06T08:48:08.000Z</time>
      </trkpt>
      <trkpt lat="43.25936" lon="0.08372">
        <ele>302.39999389648</ele>
        <time>2020-07-06T08:48:11.000Z</time>
      </trkpt>
      <trkpt lat="43.2595" lon="0.08375">
        <ele>302.20001220703</ele>
        <time>2020-07-06T08:48:13.000Z</time>
      </trkpt>
      <trkpt lat="43.25965" lon="0.08376">
        <ele>302.20001220703</ele>
        <time>2020-07-06T08:48:15.000Z</time>
      </trkpt>
      <trkpt lat="43.25996" lon="0.0838">
        <ele>302</ele>
        <time>2020-07-06T08:48:19.000Z</time>
      </trkpt>
      <trkpt lat="43.26012" lon="0.08377">
        <ele>302</ele>
        <time>2020-07-06T08:48:21.000Z</time>
      </trkpt>
      <trkpt lat="43.26036" lon="0.08372">
        <ele>302</ele>
        <time>2020-07-06T08:48:24.000Z</time>
      </trkpt>
      <trkpt lat="43.26068" lon="0.08374">
        <ele>301.60000610352</ele>
        <time>2020-07-06T08:48:28.000Z</time>
      </trkpt>
      <trkpt lat="43.26076" lon="0.08372">
        <ele>301.60000610352</ele>
        <time>2020-07-06T08:48:29.000Z</time>
      </trkpt>
      <trkpt lat="43.26117" lon="0.08363">
        <ele>301.20001220703</ele>
        <time>2020-07-06T08:48:34.000Z</time>
      </trkpt>
      <trkpt lat="43.26127" lon="0.08361">
        <ele>301</ele>
        <time>2020-07-06T08:48:35.000Z</time>
      </trkpt>
      <trkpt lat="43.2618" lon="0.08351">
        <ele>300.60000610352</ele>
        <time>2020-07-06T08:48:41.000Z</time>
      </trkpt>
      <trkpt lat="43.2619" lon="0.08349">
        <ele>300.60000610352</ele>
        <time>2020-07-06T08:48:42.000Z</time>
      </trkpt>
      <trkpt lat="43.26218" lon="0.08344">
        <ele>300.39999389648</ele>
        <time>2020-07-06T08:48:45.000Z</time>
      </trkpt>
      <trkpt lat="43.26271" lon="0.0834">
        <ele>300</ele>
        <time>2020-07-06T08:48:51.000Z</time>
      </trkpt>
      <trkpt lat="43.2628" lon="0.08341">
        <ele>300</ele>
        <time>2020-07-06T08:48:52.000Z</time>
      </trkpt>
      <trkpt lat="43.26317" lon="0.08337">
        <ele>299.60000610352</ele>
        <time>2020-07-06T08:48:56.000Z</time>
      </trkpt>
      <trkpt lat="43.26371" lon="0.08331">
        <ele>299.39999389648</ele>
        <time>2020-07-06T08:49:02.000Z</time>
      </trkpt>
      <trkpt lat="43.26404" lon="0.08324">
        <ele>299.39999389648</ele>
        <time>2020-07-06T08:49:06.000Z</time>
      </trkpt>
      <trkpt lat="43.26413" lon="0.08322">
        <ele>299.39999389648</ele>
        <time>2020-07-06T08:49:07.000Z</time>
      </trkpt>
      <trkpt lat="43.26462" lon="0.08317">
        <ele>299</ele>
        <time>2020-07-06T08:49:13.000Z</time>
      </trkpt>
      <trkpt lat="43.2647" lon="0.08316">
        <ele>299</ele>
        <time>2020-07-06T08:49:14.000Z</time>
      </trkpt>
      <trkpt lat="43.26483" lon="0.08322">
        <ele>299</ele>
        <time>2020-07-06T08:49:16.000Z</time>
      </trkpt>
      <trkpt lat="43.26499" lon="0.08342">
        <ele>298.79998779297</ele>
        <time>2020-07-06T08:49:19.000Z</time>
      </trkpt>
      <trkpt lat="43.26528" lon="0.08368">
        <ele>298.60000610352</ele>
        <time>2020-07-06T08:49:24.000Z</time>
      </trkpt>
      <trkpt lat="43.26561" lon="0.08391">
        <ele>298</ele>
        <time>2020-07-06T08:49:29.000Z</time>
      </trkpt>
      <trkpt lat="43.26578" lon="0.084">
        <ele>297.79998779297</ele>
        <time>2020-07-06T08:49:31.000Z</time>
      </trkpt>
      <trkpt lat="43.26619" lon="0.08423">
        <ele>297.20001220703</ele>
        <time>2020-07-06T08:49:36.000Z</time>
      </trkpt>
      <trkpt lat="43.26636" lon="0.08433">
        <ele>297.20001220703</ele>
        <time>2020-07-06T08:49:38.000Z</time>
      </trkpt>
      <trkpt lat="43.26661" lon="0.08443">
        <ele>296.79998779297</ele>
        <time>2020-07-06T08:49:41.000Z</time>
      </trkpt>
      <trkpt lat="43.2667" lon="0.08445">
        <ele>296.60000610352</ele>
        <time>2020-07-06T08:49:42.000Z</time>
      </trkpt>
      <trkpt lat="43.26697" lon="0.08448">
        <ele>296.39999389648</ele>
        <time>2020-07-06T08:49:45.000Z</time>
      </trkpt>
      <trkpt lat="43.26753" lon="0.08451">
        <ele>296</ele>
        <time>2020-07-06T08:49:51.000Z</time>
      </trkpt>
      <trkpt lat="43.26762" lon="0.08451">
        <ele>295.79998779297</ele>
        <time>2020-07-06T08:49:52.000Z</time>
      </trkpt>
      <trkpt lat="43.26799" lon="0.0844">
        <ele>295.79998779297</ele>
        <time>2020-07-06T08:49:56.000Z</time>
      </trkpt>
      <trkpt lat="43.26851" lon="0.08423">
        <ele>295</ele>
        <time>2020-07-06T08:50:02.000Z</time>
      </trkpt>
      <trkpt lat="43.2686" lon="0.0842">
        <ele>295</ele>
        <time>2020-07-06T08:50:03.000Z</time>
      </trkpt>
      <trkpt lat="43.26868" lon="0.08416">
        <ele>294.79998779297</ele>
        <time>2020-07-06T08:50:04.000Z</time>
      </trkpt>
      <trkpt lat="43.26893" lon="0.08402">
        <ele>294.60000610352</ele>
        <time>2020-07-06T08:50:07.000Z</time>
      </trkpt>
      <trkpt lat="43.26909" lon="0.08394">
        <ele>294.60000610352</ele>
        <time>2020-07-06T08:50:09.000Z</time>
      </trkpt>
      <trkpt lat="43.26933" lon="0.08385">
        <ele>294.39999389648</ele>
        <time>2020-07-06T08:50:12.000Z</time>
      </trkpt>
      <trkpt lat="43.26962" lon="0.08378">
        <ele>294.20001220703</ele>
        <time>2020-07-06T08:50:15.000Z</time>
      </trkpt>
      <trkpt lat="43.26987" lon="0.08375">
        <ele>294</ele>
        <time>2020-07-06T08:50:18.000Z</time>
      </trkpt>
      <trkpt lat="43.26997" lon="0.08374">
        <ele>294</ele>
        <time>2020-07-06T08:50:19.000Z</time>
      </trkpt>
      <trkpt lat="43.27006" lon="0.08376">
        <ele>294</ele>
        <time>2020-07-06T08:50:20.000Z</time>
      </trkpt>
      <trkpt lat="43.27014" lon="0.08382">
        <ele>294</ele>
        <time>2020-07-06T08:50:21.000Z</time>
      </trkpt>
      <trkpt lat="43.27039" lon="0.08396">
        <ele>293.79998779297</ele>
        <time>2020-07-06T08:50:24.000Z</time>
      </trkpt>
      <trkpt lat="43.27055" lon="0.08399">
        <ele>293.79998779297</ele>
        <time>2020-07-06T08:50:26.000Z</time>
      </trkpt>
      <trkpt lat="43.27064" lon="0.08398">
        <ele>293.79998779297</ele>
        <time>2020-07-06T08:50:27.000Z</time>
      </trkpt>
      <trkpt lat="43.27071" lon="0.08396">
        <ele>294</ele>
        <time>2020-07-06T08:50:28.000Z</time>
      </trkpt>
      <trkpt lat="43.27086" lon="0.08388">
        <ele>294.39999389648</ele>
        <time>2020-07-06T08:50:30.000Z</time>
      </trkpt>
      <trkpt lat="43.27101" lon="0.08381">
        <ele>294.39999389648</ele>
        <time>2020-07-06T08:50:32.000Z</time>
      </trkpt>
      <trkpt lat="43.27122" lon="0.08367">
        <ele>294.60000610352</ele>
        <time>2020-07-06T08:50:35.000Z</time>
      </trkpt>
      <trkpt lat="43.27145" lon="0.08357">
        <ele>294.79998779297</ele>
        <time>2020-07-06T08:50:38.000Z</time>
      </trkpt>
      <trkpt lat="43.27154" lon="0.08355">
        <ele>294.79998779297</ele>
        <time>2020-07-06T08:50:39.000Z</time>
      </trkpt>
      <trkpt lat="43.27169" lon="0.08354">
        <ele>295.20001220703</ele>
        <time>2020-07-06T08:50:41.000Z</time>
      </trkpt>
      <trkpt lat="43.27177" lon="0.08355">
        <ele>295.39999389648</ele>
        <time>2020-07-06T08:50:42.000Z</time>
      </trkpt>
      <trkpt lat="43.27185" lon="0.08358">
        <ele>295.39999389648</ele>
        <time>2020-07-06T08:50:43.000Z</time>
      </trkpt>
      <trkpt lat="43.27193" lon="0.08362">
        <ele>295.39999389648</ele>
        <time>2020-07-06T08:50:44.000Z</time>
      </trkpt>
      <trkpt lat="43.27221" lon="0.08377">
        <ele>294.60000610352</ele>
        <time>2020-07-06T08:50:48.000Z</time>
      </trkpt>
      <trkpt lat="43.27246" lon="0.08388">
        <ele>294.20001220703</ele>
        <time>2020-07-06T08:50:51.000Z</time>
      </trkpt>
      <trkpt lat="43.27279" lon="0.08396">
        <ele>293.79998779297</ele>
        <time>2020-07-06T08:50:55.000Z</time>
      </trkpt>
      <trkpt lat="43.27337" lon="0.08393">
        <ele>293</ele>
        <time>2020-07-06T08:51:02.000Z</time>
      </trkpt>
      <trkpt lat="43.27394" lon="0.08383">
        <ele>292.60000610352</ele>
        <time>2020-07-06T08:51:09.000Z</time>
      </trkpt>
      <trkpt lat="43.27427" lon="0.08378">
        <ele>292</ele>
        <time>2020-07-06T08:51:13.000Z</time>
      </trkpt>
      <trkpt lat="43.27443" lon="0.08379">
        <ele>291.79998779297</ele>
        <time>2020-07-06T08:51:15.000Z</time>
      </trkpt>
      <trkpt lat="43.27491" lon="0.08389">
        <ele>291.39999389648</ele>
        <time>2020-07-06T08:51:21.000Z</time>
      </trkpt>
      <trkpt lat="43.27545" lon="0.084">
        <ele>291.60000610352</ele>
        <time>2020-07-06T08:51:28.000Z</time>
      </trkpt>
      <trkpt lat="43.27598" lon="0.08416">
        <ele>291.39999389648</ele>
        <time>2020-07-06T08:51:35.000Z</time>
      </trkpt>
      <trkpt lat="43.2762" lon="0.08419">
        <ele>291</ele>
        <time>2020-07-06T08:51:38.000Z</time>
      </trkpt>
      <trkpt lat="43.27633" lon="0.08418">
        <ele>290.79998779297</ele>
        <time>2020-07-06T08:51:40.000Z</time>
      </trkpt>
      <trkpt lat="43.27652" lon="0.08412">
        <ele>290.39999389648</ele>
        <time>2020-07-06T08:51:44.000Z</time>
      </trkpt>
      <trkpt lat="43.27665" lon="0.08412">
        <ele>289.60000610352</ele>
        <time>2020-07-06T08:51:47.000Z</time>
      </trkpt>
      <trkpt lat="43.27677" lon="0.08414">
        <ele>289.20001220703</ele>
        <time>2020-07-06T08:51:49.000Z</time>
      </trkpt>
      <trkpt lat="43.27701" lon="0.08418">
        <ele>288.60000610352</ele>
        <time>2020-07-06T08:51:52.000Z</time>
      </trkpt>
      <trkpt lat="43.2771" lon="0.0842">
        <ele>288.39999389648</ele>
        <time>2020-07-06T08:51:53.000Z</time>
      </trkpt>
      <trkpt lat="43.27736" lon="0.08423">
        <ele>286.79998779297</ele>
        <time>2020-07-06T08:51:56.000Z</time>
      </trkpt>
      <trkpt lat="43.27755" lon="0.08424">
        <ele>286</ele>
        <time>2020-07-06T08:51:58.000Z</time>
      </trkpt>
      <trkpt lat="43.27764" lon="0.08425">
        <ele>285.60000610352</ele>
        <time>2020-07-06T08:51:59.000Z</time>
      </trkpt>
      <trkpt lat="43.27791" lon="0.08424">
        <ele>284.60000610352</ele>
        <time>2020-07-06T08:52:02.000Z</time>
      </trkpt>
      <trkpt lat="43.278" lon="0.08424">
        <ele>284.39999389648</ele>
        <time>2020-07-06T08:52:03.000Z</time>
      </trkpt>
      <trkpt lat="43.27836" lon="0.08424">
        <ele>283.60000610352</ele>
        <time>2020-07-06T08:52:07.000Z</time>
      </trkpt>
      <trkpt lat="43.27845" lon="0.08423">
        <ele>283.60000610352</ele>
        <time>2020-07-06T08:52:08.000Z</time>
      </trkpt>
      <trkpt lat="43.27853" lon="0.08423">
        <ele>283.79998779297</ele>
        <time>2020-07-06T08:52:09.000Z</time>
      </trkpt>
      <trkpt lat="43.27875" lon="0.08423">
        <ele>283.79998779297</ele>
        <time>2020-07-06T08:52:12.000Z</time>
      </trkpt>
      <trkpt lat="43.27883" lon="0.08423">
        <ele>284</ele>
        <time>2020-07-06T08:52:13.000Z</time>
      </trkpt>
      <trkpt lat="43.27925" lon="0.08429">
        <ele>284.20001220703</ele>
        <time>2020-07-06T08:52:19.000Z</time>
      </trkpt>
      <trkpt lat="43.2794" lon="0.08435">
        <ele>284.20001220703</ele>
        <time>2020-07-06T08:52:21.000Z</time>
      </trkpt>
      <trkpt lat="43.27952" lon="0.08444">
        <ele>284</ele>
        <time>2020-07-06T08:52:23.000Z</time>
      </trkpt>
      <trkpt lat="43.27962" lon="0.0845">
        <ele>284</ele>
        <time>2020-07-06T08:52:25.000Z</time>
      </trkpt>
      <trkpt lat="43.27972" lon="0.08452">
        <ele>284</ele>
        <time>2020-07-06T08:52:27.000Z</time>
      </trkpt>
      <trkpt lat="43.27981" lon="0.08453">
        <ele>284</ele>
        <time>2020-07-06T08:52:29.000Z</time>
      </trkpt>
      <trkpt lat="43.27985" lon="0.08455">
        <ele>284</ele>
        <time>2020-07-06T08:52:30.000Z</time>
      </trkpt>
      <trkpt lat="43.27991" lon="0.08459">
        <ele>284</ele>
        <time>2020-07-06T08:52:31.000Z</time>
      </trkpt>
      <trkpt lat="43.2801" lon="0.08474">
        <ele>283.79998779297</ele>
        <time>2020-07-06T08:52:34.000Z</time>
      </trkpt>
      <trkpt lat="43.28046" lon="0.08491">
        <ele>283.20001220703</ele>
        <time>2020-07-06T08:52:39.000Z</time>
      </trkpt>
      <trkpt lat="43.28092" lon="0.08501">
        <ele>283</ele>
        <time>2020-07-06T08:52:45.000Z</time>
      </trkpt>
      <trkpt lat="43.28151" lon="0.08519">
        <ele>283.20001220703</ele>
        <time>2020-07-06T08:52:53.000Z</time>
      </trkpt>
      <trkpt lat="43.28189" lon="0.08524">
        <ele>282.79998779297</ele>
        <time>2020-07-06T08:52:58.000Z</time>
      </trkpt>
      <trkpt lat="43.28214" lon="0.08524">
        <ele>282.79998779297</ele>
        <time>2020-07-06T08:53:01.000Z</time>
      </trkpt>
      <trkpt lat="43.28228" lon="0.08525">
        <ele>282.60000610352</ele>
        <time>2020-07-06T08:53:03.000Z</time>
      </trkpt>
      <trkpt lat="43.28276" lon="0.08524">
        <ele>282.60000610352</ele>
        <time>2020-07-06T08:53:09.000Z</time>
      </trkpt>
      <trkpt lat="43.28304" lon="0.08514">
        <ele>283.20001220703</ele>
        <time>2020-07-06T08:53:13.000Z</time>
      </trkpt>
      <trkpt lat="43.28313" lon="0.08509">
        <ele>283.20001220703</ele>
        <time>2020-07-06T08:53:14.000Z</time>
      </trkpt>
      <trkpt lat="43.28346" lon="0.08486">
        <ele>283.39999389648</ele>
        <time>2020-07-06T08:53:19.000Z</time>
      </trkpt>
      <trkpt lat="43.28352" lon="0.0848">
        <ele>283.39999389648</ele>
        <time>2020-07-06T08:53:20.000Z</time>
      </trkpt>
      <trkpt lat="43.28356" lon="0.08474">
        <ele>283.39999389648</ele>
        <time>2020-07-06T08:53:21.000Z</time>
      </trkpt>
      <trkpt lat="43.28361" lon="0.08452">
        <ele>283</ele>
        <time>2020-07-06T08:53:23.000Z</time>
      </trkpt>
      <trkpt lat="43.2836" lon="0.08411">
        <ele>282.79998779297</ele>
        <time>2020-07-06T08:53:27.000Z</time>
      </trkpt>
      <trkpt lat="43.28358" lon="0.08356">
        <ele>282.39999389648</ele>
        <time>2020-07-06T08:53:32.000Z</time>
      </trkpt>
      <trkpt lat="43.28365" lon="0.08333">
        <ele>282.20001220703</ele>
        <time>2020-07-06T08:53:34.000Z</time>
      </trkpt>
      <trkpt lat="43.28371" lon="0.08327">
        <ele>282.20001220703</ele>
        <time>2020-07-06T08:53:35.000Z</time>
      </trkpt>
      <trkpt lat="43.28377" lon="0.08325">
        <ele>282.20001220703</ele>
        <time>2020-07-06T08:53:36.000Z</time>
      </trkpt>
      <trkpt lat="43.28391" lon="0.08324">
        <ele>282.20001220703</ele>
        <time>2020-07-06T08:53:38.000Z</time>
      </trkpt>
      <trkpt lat="43.28427" lon="0.08324">
        <ele>284</ele>
        <time>2020-07-06T08:53:43.000Z</time>
      </trkpt>
      <trkpt lat="43.28443" lon="0.08325">
        <ele>284.39999389648</ele>
        <time>2020-07-06T08:53:45.000Z</time>
      </trkpt>
      <trkpt lat="43.28465" lon="0.08327">
        <ele>284.60000610352</ele>
        <time>2020-07-06T08:53:48.000Z</time>
      </trkpt>
      <trkpt lat="43.28481" lon="0.08325">
        <ele>284.60000610352</ele>
        <time>2020-07-06T08:53:50.000Z</time>
      </trkpt>
      <trkpt lat="43.28525" lon="0.08332">
        <ele>283.20001220703</ele>
        <time>2020-07-06T08:53:55.000Z</time>
      </trkpt>
      <trkpt lat="43.28532" lon="0.08333">
        <ele>283</ele>
        <time>2020-07-06T08:53:56.000Z</time>
      </trkpt>
      <trkpt lat="43.28551" lon="0.08335">
        <ele>282.60000610352</ele>
        <time>2020-07-06T08:53:58.000Z</time>
      </trkpt>
      <trkpt lat="43.28567" lon="0.08335">
        <ele>282.39999389648</ele>
        <time>2020-07-06T08:54:00.000Z</time>
      </trkpt>
      <trkpt lat="43.28586" lon="0.08331">
        <ele>282.20001220703</ele>
        <time>2020-07-06T08:54:02.000Z</time>
      </trkpt>
      <trkpt lat="43.28601" lon="0.08323">
        <ele>282.20001220703</ele>
        <time>2020-07-06T08:54:04.000Z</time>
      </trkpt>
      <trkpt lat="43.28613" lon="0.0831">
        <ele>282.20001220703</ele>
        <time>2020-07-06T08:54:06.000Z</time>
      </trkpt>
      <trkpt lat="43.28619" lon="0.083">
        <ele>282.20001220703</ele>
        <time>2020-07-06T08:54:07.000Z</time>
      </trkpt>
      <trkpt lat="43.28625" lon="0.08293">
        <ele>282.20001220703</ele>
        <time>2020-07-06T08:54:08.000Z</time>
      </trkpt>
      <trkpt lat="43.28636" lon="0.08285">
        <ele>282.20001220703</ele>
        <time>2020-07-06T08:54:10.000Z</time>
      </trkpt>
      <trkpt lat="43.28676" lon="0.08258">
        <ele>282.39999389648</ele>
        <time>2020-07-06T08:54:16.000Z</time>
      </trkpt>
      <trkpt lat="43.28726" lon="0.08214">
        <ele>283.39999389648</ele>
        <time>2020-07-06T08:54:24.000Z</time>
      </trkpt>
      <trkpt lat="43.28745" lon="0.08203">
        <ele>283.60000610352</ele>
        <time>2020-07-06T08:54:27.000Z</time>
      </trkpt>
      <trkpt lat="43.28755" lon="0.08199">
        <ele>283.60000610352</ele>
        <time>2020-07-06T08:54:29.000Z</time>
      </trkpt>
      <trkpt lat="43.28772" lon="0.08193">
        <ele>283.39999389648</ele>
        <time>2020-07-06T08:54:32.000Z</time>
      </trkpt>
      <trkpt lat="43.28782" lon="0.08195">
        <ele>283.39999389648</ele>
        <time>2020-07-06T08:54:34.000Z</time>
      </trkpt>
      <trkpt lat="43.28791" lon="0.08203">
        <ele>283.39999389648</ele>
        <time>2020-07-06T08:54:36.000Z</time>
      </trkpt>
      <trkpt lat="43.28795" lon="0.0821">
        <ele>283.39999389648</ele>
        <time>2020-07-06T08:54:37.000Z</time>
      </trkpt>
      <trkpt lat="43.28798" lon="0.08217">
        <ele>283.39999389648</ele>
        <time>2020-07-06T08:54:38.000Z</time>
      </trkpt>
      <trkpt lat="43.28816" lon="0.08255">
        <ele>282.79998779297</ele>
        <time>2020-07-06T08:54:43.000Z</time>
      </trkpt>
      <trkpt lat="43.28824" lon="0.08281">
        <ele>282.60000610352</ele>
        <time>2020-07-06T08:54:46.000Z</time>
      </trkpt>
      <trkpt lat="43.28826" lon="0.0829">
        <ele>282.39999389648</ele>
        <time>2020-07-06T08:54:47.000Z</time>
      </trkpt>
      <trkpt lat="43.28831" lon="0.08352">
        <ele>282.20001220703</ele>
        <time>2020-07-06T08:54:54.000Z</time>
      </trkpt>
      <trkpt lat="43.28833" lon="0.08369">
        <ele>282.39999389648</ele>
        <time>2020-07-06T08:54:56.000Z</time>
      </trkpt>
      <trkpt lat="43.28839" lon="0.08379">
        <ele>282.39999389648</ele>
        <time>2020-07-06T08:54:58.000Z</time>
      </trkpt>
      <trkpt lat="43.28848" lon="0.08378">
        <ele>282.60000610352</ele>
        <time>2020-07-06T08:55:00.000Z</time>
      </trkpt>
      <trkpt lat="43.28854" lon="0.08377">
        <ele>282.60000610352</ele>
        <time>2020-07-06T08:55:01.000Z</time>
      </trkpt>
      <trkpt lat="43.28876" lon="0.08373">
        <ele>283.20001220703</ele>
        <time>2020-07-06T08:55:05.000Z</time>
      </trkpt>
      <trkpt lat="43.28894" lon="0.08372">
        <ele>284</ele>
        <time>2020-07-06T08:55:08.000Z</time>
      </trkpt>
      <trkpt lat="43.28906" lon="0.08371">
        <ele>284.20001220703</ele>
        <time>2020-07-06T08:55:10.000Z</time>
      </trkpt>
      <trkpt lat="43.28934" lon="0.08367">
        <ele>284.39999389648</ele>
        <time>2020-07-06T08:55:15.000Z</time>
      </trkpt>
      <trkpt lat="43.28983" lon="0.08362">
        <ele>284.20001220703</ele>
        <time>2020-07-06T08:55:23.000Z</time>
      </trkpt>
      <trkpt lat="43.29011" lon="0.0836">
        <ele>284</ele>
        <time>2020-07-06T08:55:28.000Z</time>
      </trkpt>
      <trkpt lat="43.29014" lon="0.0836">
        <ele>284</ele>
        <time>2020-07-06T08:55:29.000Z</time>
      </trkpt>
      <trkpt lat="43.29019" lon="0.08362">
        <ele>284</ele>
        <time>2020-07-06T08:55:30.000Z</time>
      </trkpt>
      <trkpt lat="43.29024" lon="0.0837">
        <ele>284</ele>
        <time>2020-07-06T08:55:32.000Z</time>
      </trkpt>
      <trkpt lat="43.29028" lon="0.08389">
        <ele>284.20001220703</ele>
        <time>2020-07-06T08:55:35.000Z</time>
      </trkpt>
      <trkpt lat="43.29029" lon="0.08396">
        <ele>284.20001220703</ele>
        <time>2020-07-06T08:55:36.000Z</time>
      </trkpt>
      <trkpt lat="43.29032" lon="0.08401">
        <ele>284.20001220703</ele>
        <time>2020-07-06T08:55:37.000Z</time>
      </trkpt>
      <trkpt lat="43.29039" lon="0.08407">
        <ele>284.20001220703</ele>
        <time>2020-07-06T08:55:39.000Z</time>
      </trkpt>
      <trkpt lat="43.29049" lon="0.08404">
        <ele>284</ele>
        <time>2020-07-06T08:55:41.000Z</time>
      </trkpt>
      <trkpt lat="43.29059" lon="0.08399">
        <ele>284</ele>
        <time>2020-07-06T08:55:43.000Z</time>
      </trkpt>
      <trkpt lat="43.29074" lon="0.08391">
        <ele>283.20001220703</ele>
        <time>2020-07-06T08:55:45.000Z</time>
      </trkpt>
      <trkpt lat="43.29081" lon="0.08388">
        <ele>282.79998779297</ele>
        <time>2020-07-06T08:55:46.000Z</time>
      </trkpt>
      <trkpt lat="43.29086" lon="0.08385">
        <ele>282.60000610352</ele>
        <time>2020-07-06T08:55:47.000Z</time>
      </trkpt>
      <trkpt lat="43.29101" lon="0.0838">
        <ele>282.60000610352</ele>
        <time>2020-07-06T08:55:49.000Z</time>
      </trkpt>
      <trkpt lat="43.29109" lon="0.0838">
        <ele>282.60000610352</ele>
        <time>2020-07-06T08:55:50.000Z</time>
      </trkpt>
      <trkpt lat="43.29152" lon="0.08368">
        <ele>283</ele>
        <time>2020-07-06T08:55:56.000Z</time>
      </trkpt>
      <trkpt lat="43.29193" lon="0.0835">
        <ele>282.39999389648</ele>
        <time>2020-07-06T08:56:02.000Z</time>
      </trkpt>
      <trkpt lat="43.2924" lon="0.08331">
        <ele>282.20001220703</ele>
        <time>2020-07-06T08:56:09.000Z</time>
      </trkpt>
      <trkpt lat="43.29248" lon="0.08329">
        <ele>282.20001220703</ele>
        <time>2020-07-06T08:56:10.000Z</time>
      </trkpt>
      <trkpt lat="43.29269" lon="0.0833">
        <ele>282.20001220703</ele>
        <time>2020-07-06T08:56:13.000Z</time>
      </trkpt>
      <trkpt lat="43.29319" lon="0.08345">
        <ele>281.79998779297</ele>
        <time>2020-07-06T08:56:20.000Z</time>
      </trkpt>
      <trkpt lat="43.29332" lon="0.0835">
        <ele>281.39999389648</ele>
        <time>2020-07-06T08:56:22.000Z</time>
      </trkpt>
      <trkpt lat="43.29392" lon="0.08369">
        <ele>281.39999389648</ele>
        <time>2020-07-06T08:56:30.000Z</time>
      </trkpt>
      <trkpt lat="43.29428" lon="0.08374">
        <ele>281.39999389648</ele>
        <time>2020-07-06T08:56:35.000Z</time>
      </trkpt>
      <trkpt lat="43.29435" lon="0.08378">
        <ele>281.39999389648</ele>
        <time>2020-07-06T08:56:36.000Z</time>
      </trkpt>
      <trkpt lat="43.29446" lon="0.08385">
        <ele>281.39999389648</ele>
        <time>2020-07-06T08:56:38.000Z</time>
      </trkpt>
      <trkpt lat="43.29459" lon="0.08399">
        <ele>281.39999389648</ele>
        <time>2020-07-06T08:56:40.000Z</time>
      </trkpt>
      <trkpt lat="43.29471" lon="0.08405">
        <ele>281.20001220703</ele>
        <time>2020-07-06T08:56:42.000Z</time>
      </trkpt>
      <trkpt lat="43.29482" lon="0.08406">
        <ele>281</ele>
        <time>2020-07-06T08:56:44.000Z</time>
      </trkpt>
      <trkpt lat="43.29503" lon="0.08404">
        <ele>280.79998779297</ele>
        <time>2020-07-06T08:56:47.000Z</time>
      </trkpt>
      <trkpt lat="43.2952" lon="0.08403">
        <ele>280.60000610352</ele>
        <time>2020-07-06T08:56:50.000Z</time>
      </trkpt>
      <trkpt lat="43.29551" lon="0.08402">
        <ele>280.39999389648</ele>
        <time>2020-07-06T08:56:55.000Z</time>
      </trkpt>
      <trkpt lat="43.29557" lon="0.08402">
        <ele>280.20001220703</ele>
        <time>2020-07-06T08:56:56.000Z</time>
      </trkpt>
      <trkpt lat="43.29576" lon="0.08404">
        <ele>280.20001220703</ele>
        <time>2020-07-06T08:56:59.000Z</time>
      </trkpt>
      <trkpt lat="43.2959" lon="0.08413">
        <ele>280</ele>
        <time>2020-07-06T08:57:01.000Z</time>
      </trkpt>
      <trkpt lat="43.29594" lon="0.08419">
        <ele>280</ele>
        <time>2020-07-06T08:57:02.000Z</time>
      </trkpt>
      <trkpt lat="43.296" lon="0.0843">
        <ele>279.79998779297</ele>
        <time>2020-07-06T08:57:03.000Z</time>
      </trkpt>
      <trkpt lat="43.29607" lon="0.08446">
        <ele>279.60000610352</ele>
        <time>2020-07-06T08:57:05.000Z</time>
      </trkpt>
      <trkpt lat="43.29611" lon="0.08458">
        <ele>279.60000610352</ele>
        <time>2020-07-06T08:57:06.000Z</time>
      </trkpt>
      <trkpt lat="43.29625" lon="0.08509">
        <ele>279.60000610352</ele>
        <time>2020-07-06T08:57:11.000Z</time>
      </trkpt>
      <trkpt lat="43.29631" lon="0.08578">
        <ele>279.20001220703</ele>
        <time>2020-07-06T08:57:18.000Z</time>
      </trkpt>
      <trkpt lat="43.29639" lon="0.08643">
        <ele>279.20001220703</ele>
        <time>2020-07-06T08:57:25.000Z</time>
      </trkpt>
      <trkpt lat="43.29642" lon="0.08667">
        <ele>279.60000610352</ele>
        <time>2020-07-06T08:57:28.000Z</time>
      </trkpt>
      <trkpt lat="43.29644" lon="0.08673">
        <ele>279.79998779297</ele>
        <time>2020-07-06T08:57:29.000Z</time>
      </trkpt>
      <trkpt lat="43.29648" lon="0.08677">
        <ele>279.79998779297</ele>
        <time>2020-07-06T08:57:30.000Z</time>
      </trkpt>
      <trkpt lat="43.29659" lon="0.0868">
        <ele>279.60000610352</ele>
        <time>2020-07-06T08:57:32.000Z</time>
      </trkpt>
      <trkpt lat="43.29717" lon="0.0868">
        <ele>279</ele>
        <time>2020-07-06T08:57:41.000Z</time>
      </trkpt>
      <trkpt lat="43.29724" lon="0.0868">
        <ele>279</ele>
        <time>2020-07-06T08:57:42.000Z</time>
      </trkpt>
      <trkpt lat="43.29731" lon="0.08675">
        <ele>278.79998779297</ele>
        <time>2020-07-06T08:57:44.000Z</time>
      </trkpt>
      <trkpt lat="43.29737" lon="0.08667">
        <ele>278.79998779297</ele>
        <time>2020-07-06T08:57:46.000Z</time>
      </trkpt>
      <trkpt lat="43.29741" lon="0.08665">
        <ele>278.79998779297</ele>
        <time>2020-07-06T08:57:47.000Z</time>
      </trkpt>
      <trkpt lat="43.29756" lon="0.08658">
        <ele>278.79998779297</ele>
        <time>2020-07-06T08:57:52.000Z</time>
      </trkpt>
      <trkpt lat="43.29765" lon="0.08654">
        <ele>278.79998779297</ele>
        <time>2020-07-06T08:57:55.000Z</time>
      </trkpt>
      <trkpt lat="43.29769" lon="0.08654">
        <ele>278.79998779297</ele>
        <time>2020-07-06T08:57:56.000Z</time>
      </trkpt>
      <trkpt lat="43.29779" lon="0.08654">
        <ele>278.60000610352</ele>
        <time>2020-07-06T08:57:58.000Z</time>
      </trkpt>
      <trkpt lat="43.29792" lon="0.08655">
        <ele>278.20001220703</ele>
        <time>2020-07-06T08:58:01.000Z</time>
      </trkpt>
      <trkpt lat="43.29796" lon="0.08656">
        <ele>278</ele>
        <time>2020-07-06T08:58:02.000Z</time>
      </trkpt>
      <trkpt lat="43.29804" lon="0.08663">
        <ele>278</ele>
        <time>2020-07-06T08:58:04.000Z</time>
      </trkpt>
      <trkpt lat="43.29809" lon="0.08673">
        <ele>278</ele>
        <time>2020-07-06T08:58:06.000Z</time>
      </trkpt>
      <trkpt lat="43.29811" lon="0.08685">
        <ele>278</ele>
        <time>2020-07-06T08:58:08.000Z</time>
      </trkpt>
      <trkpt lat="43.2981" lon="0.087">
        <ele>278</ele>
        <time>2020-07-06T08:58:10.000Z</time>
      </trkpt>
      <trkpt lat="43.29812" lon="0.0871">
        <ele>278</ele>
        <time>2020-07-06T08:58:11.000Z</time>
      </trkpt>
      <trkpt lat="43.29814" lon="0.0872">
        <ele>278</ele>
        <time>2020-07-06T08:58:12.000Z</time>
      </trkpt>
      <trkpt lat="43.29819" lon="0.08741">
        <ele>278</ele>
        <time>2020-07-06T08:58:14.000Z</time>
      </trkpt>
      <trkpt lat="43.29827" lon="0.08778">
        <ele>278.20001220703</ele>
        <time>2020-07-06T08:58:18.000Z</time>
      </trkpt>
      <trkpt lat="43.29829" lon="0.08797">
        <ele>278.20001220703</ele>
        <time>2020-07-06T08:58:20.000Z</time>
      </trkpt>
      <trkpt lat="43.2983" lon="0.08805">
        <ele>278.20001220703</ele>
        <time>2020-07-06T08:58:21.000Z</time>
      </trkpt>
      <trkpt lat="43.2984" lon="0.08812">
        <ele>278</ele>
        <time>2020-07-06T08:58:23.000Z</time>
      </trkpt>
      <trkpt lat="43.29873" lon="0.08815">
        <ele>277.79998779297</ele>
        <time>2020-07-06T08:58:28.000Z</time>
      </trkpt>
      <trkpt lat="43.29884" lon="0.08818">
        <ele>277.60000610352</ele>
        <time>2020-07-06T08:58:30.000Z</time>
      </trkpt>
      <trkpt lat="43.29897" lon="0.08826">
        <ele>277.60000610352</ele>
        <time>2020-07-06T08:58:32.000Z</time>
      </trkpt>
      <trkpt lat="43.2991" lon="0.08839">
        <ele>277.39999389648</ele>
        <time>2020-07-06T08:58:35.000Z</time>
      </trkpt>
      <trkpt lat="43.29915" lon="0.08843">
        <ele>277.39999389648</ele>
        <time>2020-07-06T08:58:36.000Z</time>
      </trkpt>
      <trkpt lat="43.29921" lon="0.08847">
        <ele>277.60000610352</ele>
        <time>2020-07-06T08:58:37.000Z</time>
      </trkpt>
      <trkpt lat="43.29931" lon="0.08852">
        <ele>277.39999389648</ele>
        <time>2020-07-06T08:58:39.000Z</time>
      </trkpt>
      <trkpt lat="43.29934" lon="0.08855">
        <ele>277.39999389648</ele>
        <time>2020-07-06T08:58:40.000Z</time>
      </trkpt>
      <trkpt lat="43.29938" lon="0.08858">
        <ele>277.39999389648</ele>
        <time>2020-07-06T08:58:41.000Z</time>
      </trkpt>
      <trkpt lat="43.29945" lon="0.08867">
        <ele>277.20001220703</ele>
        <time>2020-07-06T08:58:43.000Z</time>
      </trkpt>
      <trkpt lat="43.29947" lon="0.08873">
        <ele>277.20001220703</ele>
        <time>2020-07-06T08:58:44.000Z</time>
      </trkpt>
      <trkpt lat="43.29967" lon="0.08916">
        <ele>276.39999389648</ele>
        <time>2020-07-06T08:58:51.000Z</time>
      </trkpt>
      <trkpt lat="43.29987" lon="0.08938">
        <ele>276.60000610352</ele>
        <time>2020-07-06T08:58:56.000Z</time>
      </trkpt>
      <trkpt lat="43.29997" lon="0.08946">
        <ele>276.20001220703</ele>
        <time>2020-07-06T08:58:58.000Z</time>
      </trkpt>
      <trkpt lat="43.30011" lon="0.08959">
        <ele>276.60000610352</ele>
        <time>2020-07-06T08:59:01.000Z</time>
      </trkpt>
      <trkpt lat="43.30021" lon="0.08968">
        <ele>276.79998779297</ele>
        <time>2020-07-06T08:59:03.000Z</time>
      </trkpt>
      <trkpt lat="43.30047" lon="0.08984">
        <ele>276.79998779297</ele>
        <time>2020-07-06T08:59:08.000Z</time>
      </trkpt>
      <trkpt lat="43.30069" lon="0.08995">
        <ele>276.60000610352</ele>
        <time>2020-07-06T08:59:12.000Z</time>
      </trkpt>
      <trkpt lat="43.30082" lon="0.08998">
        <ele>276.60000610352</ele>
        <time>2020-07-06T08:59:14.000Z</time>
      </trkpt>
      <trkpt lat="43.30125" lon="0.09005">
        <ele>276.79998779297</ele>
        <time>2020-07-06T08:59:21.000Z</time>
      </trkpt>
      <trkpt lat="43.3013" lon="0.09008">
        <ele>276.79998779297</ele>
        <time>2020-07-06T08:59:22.000Z</time>
      </trkpt>
      <trkpt lat="43.30135" lon="0.09015">
        <ele>276.79998779297</ele>
        <time>2020-07-06T08:59:23.000Z</time>
      </trkpt>
      <trkpt lat="43.30141" lon="0.09028">
        <ele>276.60000610352</ele>
        <time>2020-07-06T08:59:25.000Z</time>
      </trkpt>
      <trkpt lat="43.30149" lon="0.09038">
        <ele>276.20001220703</ele>
        <time>2020-07-06T08:59:27.000Z</time>
      </trkpt>
      <trkpt lat="43.30155" lon="0.09042">
        <ele>276</ele>
        <time>2020-07-06T08:59:28.000Z</time>
      </trkpt>
      <trkpt lat="43.30161" lon="0.09045">
        <ele>276.39999389648</ele>
        <time>2020-07-06T08:59:29.000Z</time>
      </trkpt>
      <trkpt lat="43.30171" lon="0.09046">
        <ele>276</ele>
        <time>2020-07-06T08:59:31.000Z</time>
      </trkpt>
      <trkpt lat="43.30176" lon="0.09046">
        <ele>276</ele>
        <time>2020-07-06T08:59:32.000Z</time>
      </trkpt>
      <trkpt lat="43.30183" lon="0.09046">
        <ele>275.79998779297</ele>
        <time>2020-07-06T08:59:33.000Z</time>
      </trkpt>
      <trkpt lat="43.30193" lon="0.09047">
        <ele>275.60000610352</ele>
        <time>2020-07-06T08:59:35.000Z</time>
      </trkpt>
      <trkpt lat="43.30199" lon="0.09048">
        <ele>275.60000610352</ele>
        <time>2020-07-06T08:59:36.000Z</time>
      </trkpt>
      <trkpt lat="43.30216" lon="0.09053">
        <ele>275.60000610352</ele>
        <time>2020-07-06T08:59:39.000Z</time>
      </trkpt>
      <trkpt lat="43.30226" lon="0.09056">
        <ele>275.60000610352</ele>
        <time>2020-07-06T08:59:41.000Z</time>
      </trkpt>
      <trkpt lat="43.30233" lon="0.09057">
        <ele>275.39999389648</ele>
        <time>2020-07-06T08:59:42.000Z</time>
      </trkpt>
      <trkpt lat="43.30247" lon="0.09062">
        <ele>275</ele>
        <time>2020-07-06T08:59:44.000Z</time>
      </trkpt>
      <trkpt lat="43.30254" lon="0.09065">
        <ele>275</ele>
        <time>2020-07-06T08:59:45.000Z</time>
      </trkpt>
      <trkpt lat="43.30285" lon="0.09089">
        <ele>275.20001220703</ele>
        <time>2020-07-06T08:59:50.000Z</time>
      </trkpt>
      <trkpt lat="43.30323" lon="0.09109">
        <ele>276</ele>
        <time>2020-07-06T08:59:56.000Z</time>
      </trkpt>
      <trkpt lat="43.30374" lon="0.09133">
        <ele>275.20001220703</ele>
        <time>2020-07-06T09:00:04.000Z</time>
      </trkpt>
      <trkpt lat="43.30379" lon="0.09135">
        <ele>275</ele>
        <time>2020-07-06T09:00:05.000Z</time>
      </trkpt>
      <trkpt lat="43.30387" lon="0.09134">
        <ele>275.20001220703</ele>
        <time>2020-07-06T09:00:07.000Z</time>
      </trkpt>
      <trkpt lat="43.30393" lon="0.09127">
        <ele>275.20001220703</ele>
        <time>2020-07-06T09:00:09.000Z</time>
      </trkpt>
      <trkpt lat="43.30398" lon="0.09117">
        <ele>276.20001220703</ele>
        <time>2020-07-06T09:00:11.000Z</time>
      </trkpt>
      <trkpt lat="43.30401" lon="0.09109">
        <ele>276.79998779297</ele>
        <time>2020-07-06T09:00:12.000Z</time>
      </trkpt>
      <trkpt lat="43.30402" lon="0.09101">
        <ele>277</ele>
        <time>2020-07-06T09:00:13.000Z</time>
      </trkpt>
      <trkpt lat="43.30407" lon="0.09078">
        <ele>277.39999389648</ele>
        <time>2020-07-06T09:00:16.000Z</time>
      </trkpt>
      <trkpt lat="43.3042" lon="0.09025">
        <ele>277.39999389648</ele>
        <time>2020-07-06T09:00:23.000Z</time>
      </trkpt>
      <trkpt lat="43.30428" lon="0.08999">
        <ele>277</ele>
        <time>2020-07-06T09:00:26.000Z</time>
      </trkpt>
      <trkpt lat="43.30432" lon="0.08992">
        <ele>277</ele>
        <time>2020-07-06T09:00:27.000Z</time>
      </trkpt>
      <trkpt lat="43.30438" lon="0.08987">
        <ele>276.79998779297</ele>
        <time>2020-07-06T09:00:28.000Z</time>
      </trkpt>
      <trkpt lat="43.30451" lon="0.08982">
        <ele>276.20001220703</ele>
        <time>2020-07-06T09:00:30.000Z</time>
      </trkpt>
      <trkpt lat="43.30463" lon="0.08982">
        <ele>275.79998779297</ele>
        <time>2020-07-06T09:00:32.000Z</time>
      </trkpt>
      <trkpt lat="43.30484" lon="0.08985">
        <ele>275.20001220703</ele>
        <time>2020-07-06T09:00:35.000Z</time>
      </trkpt>
      <trkpt lat="43.30507" lon="0.0899">
        <ele>274.79998779297</ele>
        <time>2020-07-06T09:00:38.000Z</time>
      </trkpt>
      <trkpt lat="43.30556" lon="0.09002">
        <ele>274.20001220703</ele>
        <time>2020-07-06T09:00:45.000Z</time>
      </trkpt>
      <trkpt lat="43.30589" lon="0.09016">
        <ele>274</ele>
        <time>2020-07-06T09:00:50.000Z</time>
      </trkpt>
      <trkpt lat="43.30597" lon="0.09025">
        <ele>274</ele>
        <time>2020-07-06T09:00:52.000Z</time>
      </trkpt>
      <trkpt lat="43.30602" lon="0.09041">
        <ele>274</ele>
        <time>2020-07-06T09:00:54.000Z</time>
      </trkpt>
      <trkpt lat="43.30602" lon="0.09049">
        <ele>274</ele>
        <time>2020-07-06T09:00:55.000Z</time>
      </trkpt>
      <trkpt lat="43.30603" lon="0.09057">
        <ele>274</ele>
        <time>2020-07-06T09:00:56.000Z</time>
      </trkpt>
      <trkpt lat="43.30611" lon="0.09082">
        <ele>273.79998779297</ele>
        <time>2020-07-06T09:00:59.000Z</time>
      </trkpt>
      <trkpt lat="43.30636" lon="0.09111">
        <ele>273.79998779297</ele>
        <time>2020-07-06T09:01:04.000Z</time>
      </trkpt>
      <trkpt lat="43.30641" lon="0.09115">
        <ele>273.79998779297</ele>
        <time>2020-07-06T09:01:05.000Z</time>
      </trkpt>
      <trkpt lat="43.30647" lon="0.0912">
        <ele>273.79998779297</ele>
        <time>2020-07-06T09:01:06.000Z</time>
      </trkpt>
      <trkpt lat="43.30657" lon="0.09134">
        <ele>273.39999389648</ele>
        <time>2020-07-06T09:01:08.000Z</time>
      </trkpt>
      <trkpt lat="43.30662" lon="0.09143">
        <ele>273.39999389648</ele>
        <time>2020-07-06T09:01:09.000Z</time>
      </trkpt>
      <trkpt lat="43.30666" lon="0.09148">
        <ele>273.20001220703</ele>
        <time>2020-07-06T09:01:10.000Z</time>
      </trkpt>
      <trkpt lat="43.30678" lon="0.09158">
        <ele>273.20001220703</ele>
        <time>2020-07-06T09:01:12.000Z</time>
      </trkpt>
      <trkpt lat="43.30705" lon="0.09167">
        <ele>273</ele>
        <time>2020-07-06T09:01:16.000Z</time>
      </trkpt>
      <trkpt lat="43.30712" lon="0.09171">
        <ele>272.79998779297</ele>
        <time>2020-07-06T09:01:17.000Z</time>
      </trkpt>
      <trkpt lat="43.30724" lon="0.09181">
        <ele>272.60000610352</ele>
        <time>2020-07-06T09:01:19.000Z</time>
      </trkpt>
      <trkpt lat="43.30734" lon="0.09191">
        <ele>272.39999389648</ele>
        <time>2020-07-06T09:01:21.000Z</time>
      </trkpt>
      <trkpt lat="43.30746" lon="0.09202">
        <ele>272.20001220703</ele>
        <time>2020-07-06T09:01:23.000Z</time>
      </trkpt>
      <trkpt lat="43.30791" lon="0.0924">
        <ele>272.39999389648</ele>
        <time>2020-07-06T09:01:31.000Z</time>
      </trkpt>
      <trkpt lat="43.30821" lon="0.09264">
        <ele>272.60000610352</ele>
        <time>2020-07-06T09:01:36.000Z</time>
      </trkpt>
      <trkpt lat="43.30833" lon="0.09276">
        <ele>272.39999389648</ele>
        <time>2020-07-06T09:01:38.000Z</time>
      </trkpt>
      <trkpt lat="43.30854" lon="0.09291">
        <ele>272.60000610352</ele>
        <time>2020-07-06T09:01:42.000Z</time>
      </trkpt>
      <trkpt lat="43.30863" lon="0.093">
        <ele>272.39999389648</ele>
        <time>2020-07-06T09:01:44.000Z</time>
      </trkpt>
      <trkpt lat="43.30867" lon="0.09304">
        <ele>272.39999389648</ele>
        <time>2020-07-06T09:01:45.000Z</time>
      </trkpt>
      <trkpt lat="43.30877" lon="0.0932">
        <ele>272</ele>
        <time>2020-07-06T09:01:47.000Z</time>
      </trkpt>
      <trkpt lat="43.30881" lon="0.09326">
        <ele>272</ele>
        <time>2020-07-06T09:01:48.000Z</time>
      </trkpt>
      <trkpt lat="43.30897" lon="0.09341">
        <ele>272</ele>
        <time>2020-07-06T09:01:51.000Z</time>
      </trkpt>
      <trkpt lat="43.30915" lon="0.09356">
        <ele>272.39999389648</ele>
        <time>2020-07-06T09:01:54.000Z</time>
      </trkpt>
      <trkpt lat="43.30927" lon="0.09362">
        <ele>272.39999389648</ele>
        <time>2020-07-06T09:01:56.000Z</time>
      </trkpt>
      <trkpt lat="43.30979" lon="0.09381">
        <ele>272.39999389648</ele>
        <time>2020-07-06T09:02:04.000Z</time>
      </trkpt>
      <trkpt lat="43.31007" lon="0.09391">
        <ele>271.79998779297</ele>
        <time>2020-07-06T09:02:08.000Z</time>
      </trkpt>
      <trkpt lat="43.31042" lon="0.09402">
        <ele>271.60000610352</ele>
        <time>2020-07-06T09:02:13.000Z</time>
      </trkpt>
      <trkpt lat="43.31087" lon="0.09419">
        <ele>271</ele>
        <time>2020-07-06T09:02:20.000Z</time>
      </trkpt>
      <trkpt lat="43.31095" lon="0.09421">
        <ele>271</ele>
        <time>2020-07-06T09:02:21.000Z</time>
      </trkpt>
      <trkpt lat="43.31107" lon="0.09425">
        <ele>270.79998779297</ele>
        <time>2020-07-06T09:02:23.000Z</time>
      </trkpt>
      <trkpt lat="43.31128" lon="0.09432">
        <ele>270.60000610352</ele>
        <time>2020-07-06T09:02:26.000Z</time>
      </trkpt>
      <trkpt lat="43.31186" lon="0.09451">
        <ele>270.20001220703</ele>
        <time>2020-07-06T09:02:35.000Z</time>
      </trkpt>
      <trkpt lat="43.31192" lon="0.09453">
        <ele>270.20001220703</ele>
        <time>2020-07-06T09:02:36.000Z</time>
      </trkpt>
      <trkpt lat="43.3121" lon="0.09459">
        <ele>269.60000610352</ele>
        <time>2020-07-06T09:02:39.000Z</time>
      </trkpt>
      <trkpt lat="43.3123" lon="0.09466">
        <ele>269.39999389648</ele>
        <time>2020-07-06T09:02:42.000Z</time>
      </trkpt>
      <trkpt lat="43.3125" lon="0.09474">
        <ele>268.60000610352</ele>
        <time>2020-07-06T09:02:45.000Z</time>
      </trkpt>
      <trkpt lat="43.31288" lon="0.09487">
        <ele>268.79998779297</ele>
        <time>2020-07-06T09:02:51.000Z</time>
      </trkpt>
      <trkpt lat="43.31314" lon="0.09497">
        <ele>269</ele>
        <time>2020-07-06T09:02:56.000Z</time>
      </trkpt>
      <trkpt lat="43.31324" lon="0.095">
        <ele>269</ele>
        <time>2020-07-06T09:02:58.000Z</time>
      </trkpt>
      <trkpt lat="43.31332" lon="0.09501">
        <ele>269</ele>
        <time>2020-07-06T09:03:00.000Z</time>
      </trkpt>
      <trkpt lat="43.31351" lon="0.09498">
        <ele>268.60000610352</ele>
        <time>2020-07-06T09:03:03.000Z</time>
      </trkpt>
      <trkpt lat="43.31358" lon="0.09494">
        <ele>268.39999389648</ele>
        <time>2020-07-06T09:03:04.000Z</time>
      </trkpt>
      <trkpt lat="43.31366" lon="0.09491">
        <ele>268.39999389648</ele>
        <time>2020-07-06T09:03:05.000Z</time>
      </trkpt>
      <trkpt lat="43.31378" lon="0.09486">
        <ele>268.60000610352</ele>
        <time>2020-07-06T09:03:07.000Z</time>
      </trkpt>
      <trkpt lat="43.31417" lon="0.0946">
        <ele>268.79998779297</ele>
        <time>2020-07-06T09:03:13.000Z</time>
      </trkpt>
      <trkpt lat="43.31446" lon="0.09431">
        <ele>268.79998779297</ele>
        <time>2020-07-06T09:03:18.000Z</time>
      </trkpt>
      <trkpt lat="43.3145" lon="0.09424">
        <ele>268.79998779297</ele>
        <time>2020-07-06T09:03:19.000Z</time>
      </trkpt>
      <trkpt lat="43.31461" lon="0.09406">
        <ele>268.60000610352</ele>
        <time>2020-07-06T09:03:21.000Z</time>
      </trkpt>
      <trkpt lat="43.31475" lon="0.09384">
        <ele>268.39999389648</ele>
        <time>2020-07-06T09:03:24.000Z</time>
      </trkpt>
      <trkpt lat="43.31488" lon="0.09365">
        <ele>268.39999389648</ele>
        <time>2020-07-06T09:03:27.000Z</time>
      </trkpt>
      <trkpt lat="43.31491" lon="0.0936">
        <ele>268.39999389648</ele>
        <time>2020-07-06T09:03:28.000Z</time>
      </trkpt>
      <trkpt lat="43.31492" lon="0.09354">
        <ele>268.39999389648</ele>
        <time>2020-07-06T09:03:29.000Z</time>
      </trkpt>
      <trkpt lat="43.31499" lon="0.09323">
        <ele>268.79998779297</ele>
        <time>2020-07-06T09:03:33.000Z</time>
      </trkpt>
      <trkpt lat="43.31505" lon="0.09282">
        <ele>269</ele>
        <time>2020-07-06T09:03:38.000Z</time>
      </trkpt>
      <trkpt lat="43.31508" lon="0.09276">
        <ele>269</ele>
        <time>2020-07-06T09:03:39.000Z</time>
      </trkpt>
      <trkpt lat="43.31512" lon="0.09271">
        <ele>269</ele>
        <time>2020-07-06T09:03:40.000Z</time>
      </trkpt>
      <trkpt lat="43.31521" lon="0.09267">
        <ele>269</ele>
        <time>2020-07-06T09:03:42.000Z</time>
      </trkpt>
      <trkpt lat="43.31547" lon="0.09269">
        <ele>268.79998779297</ele>
        <time>2020-07-06T09:03:46.000Z</time>
      </trkpt>
      <trkpt lat="43.31596" lon="0.09271">
        <ele>268</ele>
        <time>2020-07-06T09:03:53.000Z</time>
      </trkpt>
      <trkpt lat="43.31652" lon="0.09274">
        <ele>267.60000610352</ele>
        <time>2020-07-06T09:04:01.000Z</time>
      </trkpt>
      <trkpt lat="43.31709" lon="0.0927">
        <ele>267.60000610352</ele>
        <time>2020-07-06T09:04:09.000Z</time>
      </trkpt>
      <trkpt lat="43.31716" lon="0.09269">
        <ele>267.60000610352</ele>
        <time>2020-07-06T09:04:10.000Z</time>
      </trkpt>
      <trkpt lat="43.31728" lon="0.09267">
        <ele>267.39999389648</ele>
        <time>2020-07-06T09:04:12.000Z</time>
      </trkpt>
      <trkpt lat="43.31749" lon="0.09267">
        <ele>267.39999389648</ele>
        <time>2020-07-06T09:04:15.000Z</time>
      </trkpt>
      <trkpt lat="43.31756" lon="0.09266">
        <ele>267.39999389648</ele>
        <time>2020-07-06T09:04:16.000Z</time>
      </trkpt>
      <trkpt lat="43.31775" lon="0.09259">
        <ele>267.20001220703</ele>
        <time>2020-07-06T09:04:19.000Z</time>
      </trkpt>
      <trkpt lat="43.31779" lon="0.09257">
        <ele>267.39999389648</ele>
        <time>2020-07-06T09:04:20.000Z</time>
      </trkpt>
      <trkpt lat="43.31784" lon="0.09252">
        <ele>267.39999389648</ele>
        <time>2020-07-06T09:04:22.000Z</time>
      </trkpt>
      <trkpt lat="43.31784" lon="0.09237">
        <ele>267.39999389648</ele>
        <time>2020-07-06T09:04:24.000Z</time>
      </trkpt>
      <trkpt lat="43.31783" lon="0.0923">
        <ele>267.20001220703</ele>
        <time>2020-07-06T09:04:25.000Z</time>
      </trkpt>
      <trkpt lat="43.31776" lon="0.09177">
        <ele>267.60000610352</ele>
        <time>2020-07-06T09:04:31.000Z</time>
      </trkpt>
      <trkpt lat="43.31774" lon="0.09114">
        <ele>267.39999389648</ele>
        <time>2020-07-06T09:04:38.000Z</time>
      </trkpt>
      <trkpt lat="43.31775" lon="0.091">
        <ele>267.39999389648</ele>
        <time>2020-07-06T09:04:40.000Z</time>
      </trkpt>
      <trkpt lat="43.31778" lon="0.09095">
        <ele>267.39999389648</ele>
        <time>2020-07-06T09:04:41.000Z</time>
      </trkpt>
      <trkpt lat="43.31782" lon="0.09092">
        <ele>267.60000610352</ele>
        <time>2020-07-06T09:04:42.000Z</time>
      </trkpt>
      <trkpt lat="43.31792" lon="0.09093">
        <ele>267.60000610352</ele>
        <time>2020-07-06T09:04:44.000Z</time>
      </trkpt>
      <trkpt lat="43.31798" lon="0.09095">
        <ele>267.60000610352</ele>
        <time>2020-07-06T09:04:45.000Z</time>
      </trkpt>
      <trkpt lat="43.31809" lon="0.09105">
        <ele>267.60000610352</ele>
        <time>2020-07-06T09:04:47.000Z</time>
      </trkpt>
      <trkpt lat="43.31817" lon="0.0912">
        <ele>267.60000610352</ele>
        <time>2020-07-06T09:04:49.000Z</time>
      </trkpt>
      <trkpt lat="43.3182" lon="0.09129">
        <ele>267.60000610352</ele>
        <time>2020-07-06T09:04:50.000Z</time>
      </trkpt>
      <trkpt lat="43.31826" lon="0.09145">
        <ele>267.39999389648</ele>
        <time>2020-07-06T09:04:52.000Z</time>
      </trkpt>
      <trkpt lat="43.31838" lon="0.09156">
        <ele>267.20001220703</ele>
        <time>2020-07-06T09:04:54.000Z</time>
      </trkpt>
      <trkpt lat="43.31851" lon="0.09159">
        <ele>267.20001220703</ele>
        <time>2020-07-06T09:04:56.000Z</time>
      </trkpt>
      <trkpt lat="43.31858" lon="0.09159">
        <ele>267.20001220703</ele>
        <time>2020-07-06T09:04:57.000Z</time>
      </trkpt>
      <trkpt lat="43.31902" lon="0.09161">
        <ele>267</ele>
        <time>2020-07-06T09:05:03.000Z</time>
      </trkpt>
      <trkpt lat="43.31915" lon="0.09166">
        <ele>267</ele>
        <time>2020-07-06T09:05:05.000Z</time>
      </trkpt>
      <trkpt lat="43.31929" lon="0.09172">
        <ele>266.79998779297</ele>
        <time>2020-07-06T09:05:07.000Z</time>
      </trkpt>
      <trkpt lat="43.31959" lon="0.09178">
        <ele>266.39999389648</ele>
        <time>2020-07-06T09:05:11.000Z</time>
      </trkpt>
      <trkpt lat="43.31967" lon="0.09178">
        <ele>266.39999389648</ele>
        <time>2020-07-06T09:05:12.000Z</time>
      </trkpt>
      <trkpt lat="43.32015" lon="0.09169">
        <ele>266.20001220703</ele>
        <time>2020-07-06T09:05:18.000Z</time>
      </trkpt>
      <trkpt lat="43.32021" lon="0.09167">
        <ele>266</ele>
        <time>2020-07-06T09:05:19.000Z</time>
      </trkpt>
      <trkpt lat="43.32035" lon="0.09161">
        <ele>265.60000610352</ele>
        <time>2020-07-06T09:05:21.000Z</time>
      </trkpt>
      <trkpt lat="43.32063" lon="0.09153">
        <ele>265.20001220703</ele>
        <time>2020-07-06T09:05:25.000Z</time>
      </trkpt>
      <trkpt lat="43.32112" lon="0.09137">
        <ele>265</ele>
        <time>2020-07-06T09:05:32.000Z</time>
      </trkpt>
      <trkpt lat="43.32171" lon="0.09122">
        <ele>264.60000610352</ele>
        <time>2020-07-06T09:05:40.000Z</time>
      </trkpt>
      <trkpt lat="43.3218" lon="0.09119">
        <ele>264.60000610352</ele>
        <time>2020-07-06T09:05:41.000Z</time>
      </trkpt>
      <trkpt lat="43.32208" lon="0.09113">
        <ele>264.60000610352</ele>
        <time>2020-07-06T09:05:45.000Z</time>
      </trkpt>
      <trkpt lat="43.32238" lon="0.09109">
        <ele>264.20001220703</ele>
        <time>2020-07-06T09:05:49.000Z</time>
      </trkpt>
      <trkpt lat="43.32292" lon="0.09099">
        <ele>263.60000610352</ele>
        <time>2020-07-06T09:05:56.000Z</time>
      </trkpt>
      <trkpt lat="43.32299" lon="0.09098">
        <ele>263.60000610352</ele>
        <time>2020-07-06T09:05:57.000Z</time>
      </trkpt>
      <trkpt lat="43.32353" lon="0.09089">
        <ele>263.20001220703</ele>
        <time>2020-07-06T09:06:04.000Z</time>
      </trkpt>
      <trkpt lat="43.32375" lon="0.09086">
        <ele>263</ele>
        <time>2020-07-06T09:06:07.000Z</time>
      </trkpt>
      <trkpt lat="43.324" lon="0.09085">
        <ele>262.79998779297</ele>
        <time>2020-07-06T09:06:11.000Z</time>
      </trkpt>
      <trkpt lat="43.32403" lon="0.09087">
        <ele>262.79998779297</ele>
        <time>2020-07-06T09:06:12.000Z</time>
      </trkpt>
      <trkpt lat="43.32408" lon="0.09094">
        <ele>262.79998779297</ele>
        <time>2020-07-06T09:06:14.000Z</time>
      </trkpt>
      <trkpt lat="43.32409" lon="0.09098">
        <ele>262.79998779297</ele>
        <time>2020-07-06T09:06:15.000Z</time>
      </trkpt>
      <trkpt lat="43.32407" lon="0.09126">
        <ele>263.20001220703</ele>
        <time>2020-07-06T09:06:20.000Z</time>
      </trkpt>
      <trkpt lat="43.32407" lon="0.09149">
        <ele>263</ele>
        <time>2020-07-06T09:06:23.000Z</time>
      </trkpt>
      <trkpt lat="43.32405" lon="0.09164">
        <ele>263</ele>
        <time>2020-07-06T09:06:25.000Z</time>
      </trkpt>
      <trkpt lat="43.32404" lon="0.09179">
        <ele>263</ele>
        <time>2020-07-06T09:06:27.000Z</time>
      </trkpt>
      <trkpt lat="43.32402" lon="0.09209">
        <ele>262.79998779297</ele>
        <time>2020-07-06T09:06:31.000Z</time>
      </trkpt>
      <trkpt lat="43.324" lon="0.09238">
        <ele>263.20001220703</ele>
        <time>2020-07-06T09:06:36.000Z</time>
      </trkpt>
      <trkpt lat="43.32401" lon="0.09242">
        <ele>263.20001220703</ele>
        <time>2020-07-06T09:06:37.000Z</time>
      </trkpt>
      <trkpt lat="43.32406" lon="0.09247">
        <ele>263.79998779297</ele>
        <time>2020-07-06T09:06:39.000Z</time>
      </trkpt>
      <trkpt lat="43.32419" lon="0.09246">
        <ele>264</ele>
        <time>2020-07-06T09:06:42.000Z</time>
      </trkpt>
      <trkpt lat="43.32429" lon="0.09245">
        <ele>263.39999389648</ele>
        <time>2020-07-06T09:06:44.000Z</time>
      </trkpt>
      <trkpt lat="43.32439" lon="0.09243">
        <ele>263.39999389648</ele>
        <time>2020-07-06T09:06:46.000Z</time>
      </trkpt>
      <trkpt lat="43.32452" lon="0.09241">
        <ele>262.79998779297</ele>
        <time>2020-07-06T09:06:49.000Z</time>
      </trkpt>
      <trkpt lat="43.32456" lon="0.09243">
        <ele>262.79998779297</ele>
        <time>2020-07-06T09:06:50.000Z</time>
      </trkpt>
      <trkpt lat="43.32465" lon="0.09249">
        <ele>262.20001220703</ele>
        <time>2020-07-06T09:06:52.000Z</time>
      </trkpt>
      <trkpt lat="43.3247" lon="0.0925">
        <ele>262.20001220703</ele>
        <time>2020-07-06T09:06:53.000Z</time>
      </trkpt>
      <trkpt lat="43.32475" lon="0.09251">
        <ele>262</ele>
        <time>2020-07-06T09:06:54.000Z</time>
      </trkpt>
      <trkpt lat="43.32485" lon="0.09249">
        <ele>262</ele>
        <time>2020-07-06T09:06:56.000Z</time>
      </trkpt>
      <trkpt lat="43.3249" lon="0.09244">
        <ele>262</ele>
        <time>2020-07-06T09:06:57.000Z</time>
      </trkpt>
      <trkpt lat="43.32498" lon="0.09233">
        <ele>262</ele>
        <time>2020-07-06T09:06:59.000Z</time>
      </trkpt>
      <trkpt lat="43.32506" lon="0.09229">
        <ele>261.79998779297</ele>
        <time>2020-07-06T09:07:01.000Z</time>
      </trkpt>
      <trkpt lat="43.32511" lon="0.09228">
        <ele>261.79998779297</ele>
        <time>2020-07-06T09:07:02.000Z</time>
      </trkpt>
      <trkpt lat="43.32512" lon="0.09227">
        <ele>261.39999389648</ele>
        <time>2020-07-06T09:07:04.000Z</time>
      </trkpt>
      <trkpt lat="43.32514" lon="0.09231">
        <ele>261.39999389648</ele>
        <time>2020-07-06T09:07:06.000Z</time>
      </trkpt>
      <trkpt lat="43.32517" lon="0.09241">
        <ele>261.39999389648</ele>
        <time>2020-07-06T09:07:09.000Z</time>
      </trkpt>
      <trkpt lat="43.32524" lon="0.09272">
        <ele>261.20001220703</ele>
        <time>2020-07-06T09:07:14.000Z</time>
      </trkpt>
      <trkpt lat="43.3253" lon="0.09284">
        <ele>261.20001220703</ele>
        <time>2020-07-06T09:07:16.000Z</time>
      </trkpt>
      <trkpt lat="43.3254" lon="0.0929">
        <ele>261.20001220703</ele>
        <time>2020-07-06T09:07:18.000Z</time>
      </trkpt>
      <trkpt lat="43.32551" lon="0.09288">
        <ele>261.20001220703</ele>
        <time>2020-07-06T09:07:20.000Z</time>
      </trkpt>
      <trkpt lat="43.32561" lon="0.09287">
        <ele>260.79998779297</ele>
        <time>2020-07-06T09:07:22.000Z</time>
      </trkpt>
      <trkpt lat="43.32595" lon="0.0928">
        <ele>260.79998779297</ele>
        <time>2020-07-06T09:07:28.000Z</time>
      </trkpt>
      <trkpt lat="43.326" lon="0.09276">
        <ele>260.79998779297</ele>
        <time>2020-07-06T09:07:29.000Z</time>
      </trkpt>
      <trkpt lat="43.32613" lon="0.09264">
        <ele>260.79998779297</ele>
        <time>2020-07-06T09:07:32.000Z</time>
      </trkpt>
      <trkpt lat="43.32629" lon="0.09253">
        <ele>260.20001220703</ele>
        <time>2020-07-06T09:07:35.000Z</time>
      </trkpt>
      <trkpt lat="43.32639" lon="0.09246">
        <ele>260.20001220703</ele>
        <time>2020-07-06T09:07:37.000Z</time>
      </trkpt>
      <trkpt lat="43.32662" lon="0.09236">
        <ele>260</ele>
        <time>2020-07-06T09:07:41.000Z</time>
      </trkpt>
      <trkpt lat="43.32673" lon="0.09235">
        <ele>259.60000610352</ele>
        <time>2020-07-06T09:07:43.000Z</time>
      </trkpt>
      <trkpt lat="43.32691" lon="0.09242">
        <ele>260</ele>
        <time>2020-07-06T09:07:46.000Z</time>
      </trkpt>
      <trkpt lat="43.32702" lon="0.09247">
        <ele>259.60000610352</ele>
        <time>2020-07-06T09:07:48.000Z</time>
      </trkpt>
      <trkpt lat="43.3272" lon="0.09254">
        <ele>260</ele>
        <time>2020-07-06T09:07:51.000Z</time>
      </trkpt>
      <trkpt lat="43.32739" lon="0.09263">
        <ele>260</ele>
        <time>2020-07-06T09:07:54.000Z</time>
      </trkpt>
      <trkpt lat="43.3275" lon="0.09265">
        <ele>259.60000610352</ele>
        <time>2020-07-06T09:07:56.000Z</time>
      </trkpt>
      <trkpt lat="43.32756" lon="0.09268">
        <ele>259.60000610352</ele>
        <time>2020-07-06T09:07:57.000Z</time>
      </trkpt>
      <trkpt lat="43.32761" lon="0.09271">
        <ele>260</ele>
        <time>2020-07-06T09:07:58.000Z</time>
      </trkpt>
      <trkpt lat="43.32776" lon="0.0928">
        <ele>260.20001220703</ele>
        <time>2020-07-06T09:08:01.000Z</time>
      </trkpt>
      <trkpt lat="43.3278" lon="0.09281">
        <ele>260.20001220703</ele>
        <time>2020-07-06T09:08:02.000Z</time>
      </trkpt>
      <trkpt lat="43.32785" lon="0.09282">
        <ele>260.20001220703</ele>
        <time>2020-07-06T09:08:03.000Z</time>
      </trkpt>
      <trkpt lat="43.32794" lon="0.09278">
        <ele>260.79998779297</ele>
        <time>2020-07-06T09:08:05.000Z</time>
      </trkpt>
      <trkpt lat="43.32798" lon="0.09279">
        <ele>260.79998779297</ele>
        <time>2020-07-06T09:08:06.000Z</time>
      </trkpt>
      <trkpt lat="43.32809" lon="0.09286">
        <ele>261.39999389648</ele>
        <time>2020-07-06T09:08:10.000Z</time>
      </trkpt>
      <trkpt lat="43.3281" lon="0.0929">
        <ele>262</ele>
        <time>2020-07-06T09:08:11.000Z</time>
      </trkpt>
      <trkpt lat="43.32811" lon="0.09306">
        <ele>262.60000610352</ele>
        <time>2020-07-06T09:08:14.000Z</time>
      </trkpt>
      <trkpt lat="43.32812" lon="0.09325">
        <ele>262.79998779297</ele>
        <time>2020-07-06T09:08:17.000Z</time>
      </trkpt>
      <trkpt lat="43.32813" lon="0.09351">
        <ele>263.79998779297</ele>
        <time>2020-07-06T09:08:21.000Z</time>
      </trkpt>
      <trkpt lat="43.32813" lon="0.0937">
        <ele>264</ele>
        <time>2020-07-06T09:08:24.000Z</time>
      </trkpt>
      <trkpt lat="43.32816" lon="0.09417">
        <ele>264</ele>
        <time>2020-07-06T09:08:31.000Z</time>
      </trkpt>
      <trkpt lat="43.32819" lon="0.09423">
        <ele>263.79998779297</ele>
        <time>2020-07-06T09:08:33.000Z</time>
      </trkpt>
      <trkpt lat="43.32821" lon="0.09423">
        <ele>263.60000610352</ele>
        <time>2020-07-06T09:08:34.000Z</time>
      </trkpt>
      <trkpt lat="43.32823" lon="0.09411">
        <ele>263.20001220703</ele>
        <time>2020-07-06T09:08:37.000Z</time>
      </trkpt>
      <trkpt lat="43.32824" lon="0.09406">
        <ele>263</ele>
        <time>2020-07-06T09:08:38.000Z</time>
      </trkpt>
      <trkpt lat="43.32829" lon="0.094">
        <ele>262.39999389648</ele>
        <time>2020-07-06T09:08:40.000Z</time>
      </trkpt>
      <trkpt lat="43.32848" lon="0.09401">
        <ele>261.60000610352</ele>
        <time>2020-07-06T09:08:44.000Z</time>
      </trkpt>
      <trkpt lat="43.32889" lon="0.09403">
        <ele>261.39999389648</ele>
        <time>2020-07-06T09:08:51.000Z</time>
      </trkpt>
      <trkpt lat="43.32931" lon="0.09399">
        <ele>260.79998779297</ele>
        <time>2020-07-06T09:08:58.000Z</time>
      </trkpt>
      <trkpt lat="43.32976" lon="0.09397">
        <ele>260.60000610352</ele>
        <time>2020-07-06T09:09:05.000Z</time>
      </trkpt>
      <trkpt lat="43.32989" lon="0.09397">
        <ele>260.20001220703</ele>
        <time>2020-07-06T09:09:07.000Z</time>
      </trkpt>
      <trkpt lat="43.33017" lon="0.09397">
        <ele>259.79998779297</ele>
        <time>2020-07-06T09:09:12.000Z</time>
      </trkpt>
      <trkpt lat="43.33032" lon="0.09404">
        <ele>259.60000610352</ele>
        <time>2020-07-06T09:09:15.000Z</time>
      </trkpt>
      <trkpt lat="43.33038" lon="0.09405">
        <ele>259.60000610352</ele>
        <time>2020-07-06T09:09:16.000Z</time>
      </trkpt>
      <trkpt lat="43.33044" lon="0.09405">
        <ele>259.60000610352</ele>
        <time>2020-07-06T09:09:17.000Z</time>
      </trkpt>
      <trkpt lat="43.33088" lon="0.09406">
        <ele>259</ele>
        <time>2020-07-06T09:09:24.000Z</time>
      </trkpt>
      <trkpt lat="43.33108" lon="0.09406">
        <ele>259</ele>
        <time>2020-07-06T09:09:27.000Z</time>
      </trkpt>
      <trkpt lat="43.3312" lon="0.0941">
        <ele>259</ele>
        <time>2020-07-06T09:09:29.000Z</time>
      </trkpt>
      <trkpt lat="43.33127" lon="0.09413">
        <ele>259</ele>
        <time>2020-07-06T09:09:30.000Z</time>
      </trkpt>
      <trkpt lat="43.33162" lon="0.09434">
        <ele>258.79998779297</ele>
        <time>2020-07-06T09:09:36.000Z</time>
      </trkpt>
      <trkpt lat="43.33174" lon="0.09433">
        <ele>258.79998779297</ele>
        <time>2020-07-06T09:09:38.000Z</time>
      </trkpt>
      <trkpt lat="43.3318" lon="0.09431">
        <ele>258.79998779297</ele>
        <time>2020-07-06T09:09:39.000Z</time>
      </trkpt>
      <trkpt lat="43.33213" lon="0.09415">
        <ele>258.60000610352</ele>
        <time>2020-07-06T09:09:45.000Z</time>
      </trkpt>
      <trkpt lat="43.33219" lon="0.09414">
        <ele>258.60000610352</ele>
        <time>2020-07-06T09:09:46.000Z</time>
      </trkpt>
      <trkpt lat="43.33255" lon="0.09414">
        <ele>258.60000610352</ele>
        <time>2020-07-06T09:09:52.000Z</time>
      </trkpt>
      <trkpt lat="43.33268" lon="0.09415">
        <ele>258.39999389648</ele>
        <time>2020-07-06T09:09:54.000Z</time>
      </trkpt>
      <trkpt lat="43.33302" lon="0.09419">
        <ele>258.39999389648</ele>
        <time>2020-07-06T09:09:59.000Z</time>
      </trkpt>
      <trkpt lat="43.33358" lon="0.09424">
        <ele>258.39999389648</ele>
        <time>2020-07-06T09:10:07.000Z</time>
      </trkpt>
      <trkpt lat="43.33379" lon="0.09426">
        <ele>258.39999389648</ele>
        <time>2020-07-06T09:10:10.000Z</time>
      </trkpt>
      <trkpt lat="43.33391" lon="0.09429">
        <ele>258.20001220703</ele>
        <time>2020-07-06T09:10:12.000Z</time>
      </trkpt>
      <trkpt lat="43.33405" lon="0.09431">
        <ele>258</ele>
        <time>2020-07-06T09:10:14.000Z</time>
      </trkpt>
      <trkpt lat="43.33424" lon="0.0943">
        <ele>258</ele>
        <time>2020-07-06T09:10:17.000Z</time>
      </trkpt>
      <trkpt lat="43.33431" lon="0.09429">
        <ele>257.79998779297</ele>
        <time>2020-07-06T09:10:18.000Z</time>
      </trkpt>
      <trkpt lat="43.33444" lon="0.09423">
        <ele>258</ele>
        <time>2020-07-06T09:10:20.000Z</time>
      </trkpt>
      <trkpt lat="43.33456" lon="0.09415">
        <ele>257.60000610352</ele>
        <time>2020-07-06T09:10:22.000Z</time>
      </trkpt>
      <trkpt lat="43.33477" lon="0.09412">
        <ele>257.60000610352</ele>
        <time>2020-07-06T09:10:25.000Z</time>
      </trkpt>
      <trkpt lat="43.33516" lon="0.09413">
        <ele>257.60000610352</ele>
        <time>2020-07-06T09:10:30.000Z</time>
      </trkpt>
      <trkpt lat="43.33531" lon="0.09412">
        <ele>257.39999389648</ele>
        <time>2020-07-06T09:10:32.000Z</time>
      </trkpt>
      <trkpt lat="43.33576" lon="0.09405">
        <ele>257.60000610352</ele>
        <time>2020-07-06T09:10:38.000Z</time>
      </trkpt>
      <trkpt lat="43.3361" lon="0.09388">
        <ele>257.39999389648</ele>
        <time>2020-07-06T09:10:43.000Z</time>
      </trkpt>
      <trkpt lat="43.33616" lon="0.09384">
        <ele>257.39999389648</ele>
        <time>2020-07-06T09:10:44.000Z</time>
      </trkpt>
      <trkpt lat="43.33632" lon="0.09371">
        <ele>257.39999389648</ele>
        <time>2020-07-06T09:10:47.000Z</time>
      </trkpt>
      <trkpt lat="43.33638" lon="0.09368">
        <ele>257.39999389648</ele>
        <time>2020-07-06T09:10:48.000Z</time>
      </trkpt>
      <trkpt lat="43.33643" lon="0.09365">
        <ele>257.39999389648</ele>
        <time>2020-07-06T09:10:49.000Z</time>
      </trkpt>
      <trkpt lat="43.33653" lon="0.09359">
        <ele>257.20001220703</ele>
        <time>2020-07-06T09:10:51.000Z</time>
      </trkpt>
      <trkpt lat="43.33658" lon="0.09356">
        <ele>257.20001220703</ele>
        <time>2020-07-06T09:10:52.000Z</time>
      </trkpt>
      <trkpt lat="43.33669" lon="0.09351">
        <ele>257.20001220703</ele>
        <time>2020-07-06T09:10:54.000Z</time>
      </trkpt>
      <trkpt lat="43.33685" lon="0.09338">
        <ele>257.20001220703</ele>
        <time>2020-07-06T09:10:57.000Z</time>
      </trkpt>
      <trkpt lat="43.33689" lon="0.09333">
        <ele>257.20001220703</ele>
        <time>2020-07-06T09:10:58.000Z</time>
      </trkpt>
      <trkpt lat="43.33695" lon="0.09325">
        <ele>257.39999389648</ele>
        <time>2020-07-06T09:11:00.000Z</time>
      </trkpt>
      <trkpt lat="43.33705" lon="0.09317">
        <ele>257.60000610352</ele>
        <time>2020-07-06T09:11:03.000Z</time>
      </trkpt>
      <trkpt lat="43.33711" lon="0.09317">
        <ele>257.60000610352</ele>
        <time>2020-07-06T09:11:04.000Z</time>
      </trkpt>
      <trkpt lat="43.33725" lon="0.09319">
        <ele>257.60000610352</ele>
        <time>2020-07-06T09:11:07.000Z</time>
      </trkpt>
      <trkpt lat="43.33733" lon="0.09323">
        <ele>257.60000610352</ele>
        <time>2020-07-06T09:11:09.000Z</time>
      </trkpt>
      <trkpt lat="43.33744" lon="0.09329">
        <ele>257.39999389648</ele>
        <time>2020-07-06T09:11:12.000Z</time>
      </trkpt>
      <trkpt lat="43.33751" lon="0.09328">
        <ele>257</ele>
        <time>2020-07-06T09:11:14.000Z</time>
      </trkpt>
      <trkpt lat="43.33757" lon="0.09319">
        <ele>256.60000610352</ele>
        <time>2020-07-06T09:11:17.000Z</time>
      </trkpt>
      <trkpt lat="43.33758" lon="0.09312">
        <ele>256.60000610352</ele>
        <time>2020-07-06T09:11:18.000Z</time>
      </trkpt>
      <trkpt lat="43.33761" lon="0.09301">
        <ele>256.39999389648</ele>
        <time>2020-07-06T09:11:20.000Z</time>
      </trkpt>
      <trkpt lat="43.33771" lon="0.09294">
        <ele>256.39999389648</ele>
        <time>2020-07-06T09:11:22.000Z</time>
      </trkpt>
      <trkpt lat="43.33776" lon="0.09294">
        <ele>256.39999389648</ele>
        <time>2020-07-06T09:11:23.000Z</time>
      </trkpt>
      <trkpt lat="43.33792" lon="0.09293">
        <ele>256.39999389648</ele>
        <time>2020-07-06T09:11:26.000Z</time>
      </trkpt>
      <trkpt lat="43.33801" lon="0.09292">
        <ele>256.39999389648</ele>
        <time>2020-07-06T09:11:28.000Z</time>
      </trkpt>
      <trkpt lat="43.33807" lon="0.09293">
        <ele>256.39999389648</ele>
        <time>2020-07-06T09:11:29.000Z</time>
      </trkpt>
      <trkpt lat="43.33817" lon="0.09297">
        <ele>256.39999389648</ele>
        <time>2020-07-06T09:11:31.000Z</time>
      </trkpt>
      <trkpt lat="43.3382" lon="0.09299">
        <ele>256.39999389648</ele>
        <time>2020-07-06T09:11:32.000Z</time>
      </trkpt>
      <trkpt lat="43.33822" lon="0.09303">
        <ele>256.20001220703</ele>
        <time>2020-07-06T09:11:33.000Z</time>
      </trkpt>
      <trkpt lat="43.33823" lon="0.09313">
        <ele>255.80000305176</ele>
        <time>2020-07-06T09:11:35.000Z</time>
      </trkpt>
      <trkpt lat="43.33827" lon="0.0932">
        <ele>255.80000305176</ele>
        <time>2020-07-06T09:11:37.000Z</time>
      </trkpt>
      <trkpt lat="43.33831" lon="0.09322">
        <ele>255.80000305176</ele>
        <time>2020-07-06T09:11:38.000Z</time>
      </trkpt>
      <trkpt lat="43.33837" lon="0.09325">
        <ele>255.80000305176</ele>
        <time>2020-07-06T09:11:40.000Z</time>
      </trkpt>
      <trkpt lat="43.33846" lon="0.09336">
        <ele>255.80000305176</ele>
        <time>2020-07-06T09:11:42.000Z</time>
      </trkpt>
      <trkpt lat="43.33871" lon="0.09346">
        <ele>255.80000305176</ele>
        <time>2020-07-06T09:11:46.000Z</time>
      </trkpt>
      <trkpt lat="43.33877" lon="0.0935">
        <ele>255.39999389648</ele>
        <time>2020-07-06T09:11:47.000Z</time>
      </trkpt>
      <trkpt lat="43.33883" lon="0.09354">
        <ele>255.39999389648</ele>
        <time>2020-07-06T09:11:48.000Z</time>
      </trkpt>
      <trkpt lat="43.33888" lon="0.09355">
        <ele>255.19999694824</ele>
        <time>2020-07-06T09:11:49.000Z</time>
      </trkpt>
      <trkpt lat="43.33893" lon="0.09354">
        <ele>255</ele>
        <time>2020-07-06T09:11:50.000Z</time>
      </trkpt>
      <trkpt lat="43.33903" lon="0.09351">
        <ele>254.60000610352</ele>
        <time>2020-07-06T09:11:52.000Z</time>
      </trkpt>
      <trkpt lat="43.33911" lon="0.09352">
        <ele>254.60000610352</ele>
        <time>2020-07-06T09:11:53.000Z</time>
      </trkpt>
      <trkpt lat="43.33916" lon="0.09354">
        <ele>254.60000610352</ele>
        <time>2020-07-06T09:11:54.000Z</time>
      </trkpt>
      <trkpt lat="43.3393" lon="0.09355">
        <ele>254.19999694824</ele>
        <time>2020-07-06T09:11:56.000Z</time>
      </trkpt>
      <trkpt lat="43.33939" lon="0.09362">
        <ele>253.80000305176</ele>
        <time>2020-07-06T09:11:58.000Z</time>
      </trkpt>
      <trkpt lat="43.3395" lon="0.09373">
        <ele>253.60000610352</ele>
        <time>2020-07-06T09:12:00.000Z</time>
      </trkpt>
      <trkpt lat="43.33968" lon="0.0939">
        <ele>253.19999694824</ele>
        <time>2020-07-06T09:12:03.000Z</time>
      </trkpt>
      <trkpt lat="43.33982" lon="0.09399">
        <ele>253</ele>
        <time>2020-07-06T09:12:05.000Z</time>
      </trkpt>
      <trkpt lat="43.34004" lon="0.09404">
        <ele>252.39999389648</ele>
        <time>2020-07-06T09:12:08.000Z</time>
      </trkpt>
      <trkpt lat="43.34018" lon="0.09407">
        <ele>252.19999694824</ele>
        <time>2020-07-06T09:12:10.000Z</time>
      </trkpt>
      <trkpt lat="43.34031" lon="0.09408">
        <ele>252</ele>
        <time>2020-07-06T09:12:12.000Z</time>
      </trkpt>
      <trkpt lat="43.34064" lon="0.09413">
        <ele>252</ele>
        <time>2020-07-06T09:12:17.000Z</time>
      </trkpt>
      <trkpt lat="43.3407" lon="0.09411">
        <ele>252</ele>
        <time>2020-07-06T09:12:18.000Z</time>
      </trkpt>
      <trkpt lat="43.34103" lon="0.09404">
        <ele>251.80000305176</ele>
        <time>2020-07-06T09:12:23.000Z</time>
      </trkpt>
      <trkpt lat="43.34109" lon="0.09402">
        <ele>251.80000305176</ele>
        <time>2020-07-06T09:12:24.000Z</time>
      </trkpt>
      <trkpt lat="43.34127" lon="0.0939">
        <ele>251.19999694824</ele>
        <time>2020-07-06T09:12:27.000Z</time>
      </trkpt>
      <trkpt lat="43.34138" lon="0.09381">
        <ele>250.80000305176</ele>
        <time>2020-07-06T09:12:29.000Z</time>
      </trkpt>
      <trkpt lat="43.3415" lon="0.09374">
        <ele>250.80000305176</ele>
        <time>2020-07-06T09:12:31.000Z</time>
      </trkpt>
      <trkpt lat="43.34156" lon="0.09373">
        <ele>250.80000305176</ele>
        <time>2020-07-06T09:12:32.000Z</time>
      </trkpt>
      <trkpt lat="43.34167" lon="0.09372">
        <ele>251.19999694824</ele>
        <time>2020-07-06T09:12:34.000Z</time>
      </trkpt>
      <trkpt lat="43.34184" lon="0.09365">
        <ele>251.60000610352</ele>
        <time>2020-07-06T09:12:37.000Z</time>
      </trkpt>
      <trkpt lat="43.3419" lon="0.09362">
        <ele>252</ele>
        <time>2020-07-06T09:12:38.000Z</time>
      </trkpt>
      <trkpt lat="43.34201" lon="0.09356">
        <ele>252.80000305176</ele>
        <time>2020-07-06T09:12:40.000Z</time>
      </trkpt>
      <trkpt lat="43.34208" lon="0.09354">
        <ele>253</ele>
        <time>2020-07-06T09:12:41.000Z</time>
      </trkpt>
      <trkpt lat="43.34214" lon="0.09352">
        <ele>253.19999694824</ele>
        <time>2020-07-06T09:12:42.000Z</time>
      </trkpt>
      <trkpt lat="43.34238" lon="0.09343">
        <ele>253.39999389648</ele>
        <time>2020-07-06T09:12:46.000Z</time>
      </trkpt>
      <trkpt lat="43.34243" lon="0.0934">
        <ele>253.19999694824</ele>
        <time>2020-07-06T09:12:47.000Z</time>
      </trkpt>
      <trkpt lat="43.34248" lon="0.09337">
        <ele>253.19999694824</ele>
        <time>2020-07-06T09:12:48.000Z</time>
      </trkpt>
      <trkpt lat="43.34259" lon="0.09333">
        <ele>253</ele>
        <time>2020-07-06T09:12:50.000Z</time>
      </trkpt>
      <trkpt lat="43.34266" lon="0.09332">
        <ele>253</ele>
        <time>2020-07-06T09:12:51.000Z</time>
      </trkpt>
      <trkpt lat="43.343" lon="0.0933">
        <ele>253</ele>
        <time>2020-07-06T09:12:56.000Z</time>
      </trkpt>
      <trkpt lat="43.34314" lon="0.09333">
        <ele>253</ele>
        <time>2020-07-06T09:12:58.000Z</time>
      </trkpt>
      <trkpt lat="43.34327" lon="0.09336">
        <ele>253.19999694824</ele>
        <time>2020-07-06T09:13:00.000Z</time>
      </trkpt>
      <trkpt lat="43.34368" lon="0.0936">
        <ele>253</ele>
        <time>2020-07-06T09:13:06.000Z</time>
      </trkpt>
      <trkpt lat="43.34404" lon="0.0938">
        <ele>252</ele>
        <time>2020-07-06T09:13:11.000Z</time>
      </trkpt>
      <trkpt lat="43.34411" lon="0.09385">
        <ele>252</ele>
        <time>2020-07-06T09:13:12.000Z</time>
      </trkpt>
      <trkpt lat="43.34437" lon="0.09406">
        <ele>251.60000610352</ele>
        <time>2020-07-06T09:13:16.000Z</time>
      </trkpt>
      <trkpt lat="43.34443" lon="0.0941">
        <ele>251.80000305176</ele>
        <time>2020-07-06T09:13:17.000Z</time>
      </trkpt>
      <trkpt lat="43.34456" lon="0.09416">
        <ele>251.60000610352</ele>
        <time>2020-07-06T09:13:19.000Z</time>
      </trkpt>
      <trkpt lat="43.34478" lon="0.09422">
        <ele>251.19999694824</ele>
        <time>2020-07-06T09:13:22.000Z</time>
      </trkpt>
      <trkpt lat="43.34493" lon="0.09425">
        <ele>251.19999694824</ele>
        <time>2020-07-06T09:13:24.000Z</time>
      </trkpt>
      <trkpt lat="43.3451" lon="0.09428">
        <ele>250.60000610352</ele>
        <time>2020-07-06T09:13:26.000Z</time>
      </trkpt>
      <trkpt lat="43.34524" lon="0.09432">
        <ele>249.80000305176</ele>
        <time>2020-07-06T09:13:28.000Z</time>
      </trkpt>
      <trkpt lat="43.34538" lon="0.09436">
        <ele>249.80000305176</ele>
        <time>2020-07-06T09:13:30.000Z</time>
      </trkpt>
      <trkpt lat="43.34585" lon="0.09443">
        <ele>249.60000610352</ele>
        <time>2020-07-06T09:13:36.000Z</time>
      </trkpt>
      <trkpt lat="43.34622" lon="0.09441">
        <ele>248.60000610352</ele>
        <time>2020-07-06T09:13:41.000Z</time>
      </trkpt>
      <trkpt lat="43.3463" lon="0.09442">
        <ele>248.39999389648</ele>
        <time>2020-07-06T09:13:42.000Z</time>
      </trkpt>
      <trkpt lat="43.34645" lon="0.09446">
        <ele>248</ele>
        <time>2020-07-06T09:13:44.000Z</time>
      </trkpt>
      <trkpt lat="43.34652" lon="0.09449">
        <ele>248</ele>
        <time>2020-07-06T09:13:45.000Z</time>
      </trkpt>
      <trkpt lat="43.34659" lon="0.09452">
        <ele>248</ele>
        <time>2020-07-06T09:13:46.000Z</time>
      </trkpt>
      <trkpt lat="43.3468" lon="0.09462">
        <ele>248</ele>
        <time>2020-07-06T09:13:49.000Z</time>
      </trkpt>
      <trkpt lat="43.34689" lon="0.09465">
        <ele>248</ele>
        <time>2020-07-06T09:13:50.000Z</time>
      </trkpt>
      <trkpt lat="43.34697" lon="0.09467">
        <ele>248</ele>
        <time>2020-07-06T09:13:51.000Z</time>
      </trkpt>
      <trkpt lat="43.34723" lon="0.09468">
        <ele>247.60000610352</ele>
        <time>2020-07-06T09:13:54.000Z</time>
      </trkpt>
      <trkpt lat="43.34731" lon="0.09471">
        <ele>247.19999694824</ele>
        <time>2020-07-06T09:13:55.000Z</time>
      </trkpt>
      <trkpt lat="43.34748" lon="0.09479">
        <ele>247</ele>
        <time>2020-07-06T09:13:57.000Z</time>
      </trkpt>
      <trkpt lat="43.34756" lon="0.09482">
        <ele>246.80000305176</ele>
        <time>2020-07-06T09:13:58.000Z</time>
      </trkpt>
      <trkpt lat="43.34764" lon="0.09485">
        <ele>246.80000305176</ele>
        <time>2020-07-06T09:13:59.000Z</time>
      </trkpt>
      <trkpt lat="43.34796" lon="0.09483">
        <ele>247</ele>
        <time>2020-07-06T09:14:03.000Z</time>
      </trkpt>
      <trkpt lat="43.34833" lon="0.09476">
        <ele>246.80000305176</ele>
        <time>2020-07-06T09:14:08.000Z</time>
      </trkpt>
      <trkpt lat="43.34845" lon="0.0947">
        <ele>247</ele>
        <time>2020-07-06T09:14:10.000Z</time>
      </trkpt>
      <trkpt lat="43.34856" lon="0.09458">
        <ele>246.80000305176</ele>
        <time>2020-07-06T09:14:12.000Z</time>
      </trkpt>
      <trkpt lat="43.34861" lon="0.09453">
        <ele>246.80000305176</ele>
        <time>2020-07-06T09:14:13.000Z</time>
      </trkpt>
      <trkpt lat="43.34877" lon="0.09436">
        <ele>246.19999694824</ele>
        <time>2020-07-06T09:14:16.000Z</time>
      </trkpt>
      <trkpt lat="43.34882" lon="0.0943">
        <ele>246.19999694824</ele>
        <time>2020-07-06T09:14:17.000Z</time>
      </trkpt>
      <trkpt lat="43.34893" lon="0.09416">
        <ele>246</ele>
        <time>2020-07-06T09:14:19.000Z</time>
      </trkpt>
      <trkpt lat="43.34897" lon="0.09407">
        <ele>246</ele>
        <time>2020-07-06T09:14:20.000Z</time>
      </trkpt>
      <trkpt lat="43.34903" lon="0.09399">
        <ele>246</ele>
        <time>2020-07-06T09:14:21.000Z</time>
      </trkpt>
      <trkpt lat="43.34914" lon="0.09387">
        <ele>246</ele>
        <time>2020-07-06T09:14:23.000Z</time>
      </trkpt>
      <trkpt lat="43.34924" lon="0.09373">
        <ele>245.60000610352</ele>
        <time>2020-07-06T09:14:25.000Z</time>
      </trkpt>
      <trkpt lat="43.3493" lon="0.09365">
        <ele>245.80000305176</ele>
        <time>2020-07-06T09:14:26.000Z</time>
      </trkpt>
      <trkpt lat="43.34946" lon="0.09342">
        <ele>246</ele>
        <time>2020-07-06T09:14:29.000Z</time>
      </trkpt>
      <trkpt lat="43.34955" lon="0.0933">
        <ele>245.80000305176</ele>
        <time>2020-07-06T09:14:31.000Z</time>
      </trkpt>
      <trkpt lat="43.34967" lon="0.09324">
        <ele>245.60000610352</ele>
        <time>2020-07-06T09:14:33.000Z</time>
      </trkpt>
      <trkpt lat="43.34977" lon="0.09325">
        <ele>246</ele>
        <time>2020-07-06T09:14:35.000Z</time>
      </trkpt>
      <trkpt lat="43.34982" lon="0.09324">
        <ele>246.19999694824</ele>
        <time>2020-07-06T09:14:36.000Z</time>
      </trkpt>
      <trkpt lat="43.35001" lon="0.09317">
        <ele>247.60000610352</ele>
        <time>2020-07-06T09:14:40.000Z</time>
      </trkpt>
      <trkpt lat="43.35006" lon="0.09315">
        <ele>248</ele>
        <time>2020-07-06T09:14:41.000Z</time>
      </trkpt>
      <trkpt lat="43.35013" lon="0.09313">
        <ele>249.19999694824</ele>
        <time>2020-07-06T09:14:42.000Z</time>
      </trkpt>
      <trkpt lat="43.35019" lon="0.09314">
        <ele>249.60000610352</ele>
        <time>2020-07-06T09:14:43.000Z</time>
      </trkpt>
      <trkpt lat="43.35029" lon="0.0932">
        <ele>250</ele>
        <time>2020-07-06T09:14:45.000Z</time>
      </trkpt>
      <trkpt lat="43.35038" lon="0.09332">
        <ele>250.19999694824</ele>
        <time>2020-07-06T09:14:47.000Z</time>
      </trkpt>
      <trkpt lat="43.35049" lon="0.09343">
        <ele>249.80000305176</ele>
        <time>2020-07-06T09:14:49.000Z</time>
      </trkpt>
      <trkpt lat="43.35062" lon="0.09347">
        <ele>249.39999389648</ele>
        <time>2020-07-06T09:14:51.000Z</time>
      </trkpt>
      <trkpt lat="43.35069" lon="0.09346">
        <ele>249.39999389648</ele>
        <time>2020-07-06T09:14:52.000Z</time>
      </trkpt>
      <trkpt lat="43.35075" lon="0.09345">
        <ele>249.19999694824</ele>
        <time>2020-07-06T09:14:53.000Z</time>
      </trkpt>
      <trkpt lat="43.35097" lon="0.09341">
        <ele>249</ele>
        <time>2020-07-06T09:14:56.000Z</time>
      </trkpt>
      <trkpt lat="43.35117" lon="0.09342">
        <ele>249</ele>
        <time>2020-07-06T09:14:59.000Z</time>
      </trkpt>
      <trkpt lat="43.3513" lon="0.09345">
        <ele>249</ele>
        <time>2020-07-06T09:15:01.000Z</time>
      </trkpt>
      <trkpt lat="43.35167" lon="0.09347">
        <ele>249</ele>
        <time>2020-07-06T09:15:06.000Z</time>
      </trkpt>
      <trkpt lat="43.35181" lon="0.09344">
        <ele>248.80000305176</ele>
        <time>2020-07-06T09:15:08.000Z</time>
      </trkpt>
      <trkpt lat="43.35196" lon="0.09341">
        <ele>248.60000610352</ele>
        <time>2020-07-06T09:15:10.000Z</time>
      </trkpt>
      <trkpt lat="43.35218" lon="0.09341">
        <ele>248</ele>
        <time>2020-07-06T09:15:13.000Z</time>
      </trkpt>
      <trkpt lat="43.35225" lon="0.09341">
        <ele>248</ele>
        <time>2020-07-06T09:15:14.000Z</time>
      </trkpt>
      <trkpt lat="43.35247" lon="0.09334">
        <ele>247.60000610352</ele>
        <time>2020-07-06T09:15:17.000Z</time>
      </trkpt>
      <trkpt lat="43.35268" lon="0.09339">
        <ele>247.39999389648</ele>
        <time>2020-07-06T09:15:20.000Z</time>
      </trkpt>
      <trkpt lat="43.35275" lon="0.0934">
        <ele>247.39999389648</ele>
        <time>2020-07-06T09:15:21.000Z</time>
      </trkpt>
      <trkpt lat="43.35297" lon="0.09338">
        <ele>247</ele>
        <time>2020-07-06T09:15:24.000Z</time>
      </trkpt>
      <trkpt lat="43.35319" lon="0.09333">
        <ele>246.80000305176</ele>
        <time>2020-07-06T09:15:27.000Z</time>
      </trkpt>
      <trkpt lat="43.35341" lon="0.09325">
        <ele>246.80000305176</ele>
        <time>2020-07-06T09:15:30.000Z</time>
      </trkpt>
      <trkpt lat="43.3539" lon="0.09314">
        <ele>246</ele>
        <time>2020-07-06T09:15:37.000Z</time>
      </trkpt>
      <trkpt lat="43.35396" lon="0.09314">
        <ele>246</ele>
        <time>2020-07-06T09:15:38.000Z</time>
      </trkpt>
      <trkpt lat="43.35403" lon="0.09315">
        <ele>245.80000305176</ele>
        <time>2020-07-06T09:15:39.000Z</time>
      </trkpt>
      <trkpt lat="43.35411" lon="0.09316">
        <ele>245.80000305176</ele>
        <time>2020-07-06T09:15:40.000Z</time>
      </trkpt>
      <trkpt lat="43.35418" lon="0.09316">
        <ele>245.80000305176</ele>
        <time>2020-07-06T09:15:41.000Z</time>
      </trkpt>
      <trkpt lat="43.35452" lon="0.09307">
        <ele>245.60000610352</ele>
        <time>2020-07-06T09:15:46.000Z</time>
      </trkpt>
      <trkpt lat="43.35459" lon="0.09305">
        <ele>245.60000610352</ele>
        <time>2020-07-06T09:15:47.000Z</time>
      </trkpt>
      <trkpt lat="43.3548" lon="0.09295">
        <ele>245.39999389648</ele>
        <time>2020-07-06T09:15:50.000Z</time>
      </trkpt>
      <trkpt lat="43.35521" lon="0.09268">
        <ele>245.39999389648</ele>
        <time>2020-07-06T09:15:56.000Z</time>
      </trkpt>
      <trkpt lat="43.35574" lon="0.09233">
        <ele>245.19999694824</ele>
        <time>2020-07-06T09:16:04.000Z</time>
      </trkpt>
      <trkpt lat="43.35602" lon="0.09216">
        <ele>245.39999389648</ele>
        <time>2020-07-06T09:16:08.000Z</time>
      </trkpt>
      <trkpt lat="43.35615" lon="0.09209">
        <ele>245.60000610352</ele>
        <time>2020-07-06T09:16:10.000Z</time>
      </trkpt>
      <trkpt lat="43.35662" lon="0.0919">
        <ele>245.80000305176</ele>
        <time>2020-07-06T09:16:17.000Z</time>
      </trkpt>
      <trkpt lat="43.35703" lon="0.09175">
        <ele>245.39999389648</ele>
        <time>2020-07-06T09:16:23.000Z</time>
      </trkpt>
      <trkpt lat="43.35715" lon="0.09181">
        <ele>245.39999389648</ele>
        <time>2020-07-06T09:16:25.000Z</time>
      </trkpt>
      <trkpt lat="43.35723" lon="0.09195">
        <ele>245.39999389648</ele>
        <time>2020-07-06T09:16:27.000Z</time>
      </trkpt>
      <trkpt lat="43.35726" lon="0.09202">
        <ele>245.39999389648</ele>
        <time>2020-07-06T09:16:28.000Z</time>
      </trkpt>
      <trkpt lat="43.35732" lon="0.09213">
        <ele>245.60000610352</ele>
        <time>2020-07-06T09:16:30.000Z</time>
      </trkpt>
      <trkpt lat="43.35735" lon="0.09224">
        <ele>245.80000305176</ele>
        <time>2020-07-06T09:16:32.000Z</time>
      </trkpt>
      <trkpt lat="43.35733" lon="0.09251">
        <ele>246.39999389648</ele>
        <time>2020-07-06T09:16:36.000Z</time>
      </trkpt>
      <trkpt lat="43.35732" lon="0.09259">
        <ele>246.60000610352</ele>
        <time>2020-07-06T09:16:37.000Z</time>
      </trkpt>
      <trkpt lat="43.35727" lon="0.09287">
        <ele>246.60000610352</ele>
        <time>2020-07-06T09:16:41.000Z</time>
      </trkpt>
      <trkpt lat="43.35724" lon="0.09307">
        <ele>246</ele>
        <time>2020-07-06T09:16:44.000Z</time>
      </trkpt>
      <trkpt lat="43.35713" lon="0.09371">
        <ele>245.60000610352</ele>
        <time>2020-07-06T09:16:52.000Z</time>
      </trkpt>
      <trkpt lat="43.35703" lon="0.09447">
        <ele>245.39999389648</ele>
        <time>2020-07-06T09:17:01.000Z</time>
      </trkpt>
      <trkpt lat="43.35702" lon="0.09455">
        <ele>245.39999389648</ele>
        <time>2020-07-06T09:17:02.000Z</time>
      </trkpt>
      <trkpt lat="43.35694" lon="0.09506">
        <ele>245.39999389648</ele>
        <time>2020-07-06T09:17:08.000Z</time>
      </trkpt>
      <trkpt lat="43.35688" lon="0.09522">
        <ele>245.39999389648</ele>
        <time>2020-07-06T09:17:10.000Z</time>
      </trkpt>
      <trkpt lat="43.3568" lon="0.09535">
        <ele>245.60000610352</ele>
        <time>2020-07-06T09:17:12.000Z</time>
      </trkpt>
      <trkpt lat="43.35671" lon="0.09547">
        <ele>245.60000610352</ele>
        <time>2020-07-06T09:17:14.000Z</time>
      </trkpt>
      <trkpt lat="43.35627" lon="0.09599">
        <ele>246</ele>
        <time>2020-07-06T09:17:23.000Z</time>
      </trkpt>
      <trkpt lat="43.35582" lon="0.09651">
        <ele>246.60000610352</ele>
        <time>2020-07-06T09:17:32.000Z</time>
      </trkpt>
      <trkpt lat="43.35574" lon="0.09664">
        <ele>246.60000610352</ele>
        <time>2020-07-06T09:17:34.000Z</time>
      </trkpt>
      <trkpt lat="43.35569" lon="0.09678">
        <ele>246.80000305176</ele>
        <time>2020-07-06T09:17:36.000Z</time>
      </trkpt>
      <trkpt lat="43.35569" lon="0.09688">
        <ele>247</ele>
        <time>2020-07-06T09:17:38.000Z</time>
      </trkpt>
      <trkpt lat="43.35572" lon="0.0969">
        <ele>247.60000610352</ele>
        <time>2020-07-06T09:17:41.000Z</time>
      </trkpt>
      <trkpt lat="43.35573" lon="0.09691">
        <ele>247.80000305176</ele>
        <time>2020-07-06T09:17:48.000Z</time>
      </trkpt>
      <trkpt lat="43.35573" lon="0.09693">
        <ele>248</ele>
        <time>2020-07-06T09:20:26.000Z</time>
      </trkpt>
      <trkpt lat="43.35572" lon="0.09702">
        <ele>247.80000305176</ele>
        <time>2020-07-06T09:20:29.000Z</time>
      </trkpt>
      <trkpt lat="43.35574" lon="0.09727">
        <ele>247.60000610352</ele>
        <time>2020-07-06T09:20:34.000Z</time>
      </trkpt>
      <trkpt lat="43.35586" lon="0.09765">
        <ele>247.19999694824</ele>
        <time>2020-07-06T09:20:40.000Z</time>
      </trkpt>
      <trkpt lat="43.3559" lon="0.09777">
        <ele>247</ele>
        <time>2020-07-06T09:20:42.000Z</time>
      </trkpt>
      <trkpt lat="43.35599" lon="0.09783">
        <ele>247</ele>
        <time>2020-07-06T09:20:44.000Z</time>
      </trkpt>
      <trkpt lat="43.35609" lon="0.09781">
        <ele>247</ele>
        <time>2020-07-06T09:20:46.000Z</time>
      </trkpt>
      <trkpt lat="43.3562" lon="0.09776">
        <ele>246.80000305176</ele>
        <time>2020-07-06T09:20:48.000Z</time>
      </trkpt>
      <trkpt lat="43.35644" lon="0.09765">
        <ele>246.19999694824</ele>
        <time>2020-07-06T09:20:52.000Z</time>
      </trkpt>
      <trkpt lat="43.35656" lon="0.09762">
        <ele>246.19999694824</ele>
        <time>2020-07-06T09:20:54.000Z</time>
      </trkpt>
      <trkpt lat="43.35714" lon="0.09761">
        <ele>245.80000305176</ele>
        <time>2020-07-06T09:21:03.000Z</time>
      </trkpt>
      <trkpt lat="43.35721" lon="0.0976">
        <ele>245.80000305176</ele>
        <time>2020-07-06T09:21:04.000Z</time>
      </trkpt>
      <trkpt lat="43.35779" lon="0.09751">
        <ele>245.80000305176</ele>
        <time>2020-07-06T09:21:13.000Z</time>
      </trkpt>
      <trkpt lat="43.35805" lon="0.09746">
        <ele>245.60000610352</ele>
        <time>2020-07-06T09:21:17.000Z</time>
      </trkpt>
      <trkpt lat="43.35826" lon="0.09742">
        <ele>245.19999694824</ele>
        <time>2020-07-06T09:21:20.000Z</time>
      </trkpt>
      <trkpt lat="43.35833" lon="0.0974">
        <ele>245</ele>
        <time>2020-07-06T09:21:21.000Z</time>
      </trkpt>
      <trkpt lat="43.35844" lon="0.09732">
        <ele>245</ele>
        <time>2020-07-06T09:21:23.000Z</time>
      </trkpt>
      <trkpt lat="43.35852" lon="0.09718">
        <ele>245</ele>
        <time>2020-07-06T09:21:25.000Z</time>
      </trkpt>
      <trkpt lat="43.35855" lon="0.0971">
        <ele>245</ele>
        <time>2020-07-06T09:21:26.000Z</time>
      </trkpt>
      <trkpt lat="43.35859" lon="0.09702">
        <ele>245</ele>
        <time>2020-07-06T09:21:27.000Z</time>
      </trkpt>
      <trkpt lat="43.3587" lon="0.09692">
        <ele>244.80000305176</ele>
        <time>2020-07-06T09:21:29.000Z</time>
      </trkpt>
      <trkpt lat="43.35897" lon="0.09685">
        <ele>244.39999389648</ele>
        <time>2020-07-06T09:21:33.000Z</time>
      </trkpt>
      <trkpt lat="43.35926" lon="0.0968">
        <ele>244.19999694824</ele>
        <time>2020-07-06T09:21:37.000Z</time>
      </trkpt>
      <trkpt lat="43.35954" lon="0.09677">
        <ele>244</ele>
        <time>2020-07-06T09:21:41.000Z</time>
      </trkpt>
      <trkpt lat="43.36011" lon="0.09675">
        <ele>243.60000610352</ele>
        <time>2020-07-06T09:21:49.000Z</time>
      </trkpt>
      <trkpt lat="43.36032" lon="0.09673">
        <ele>243</ele>
        <time>2020-07-06T09:21:52.000Z</time>
      </trkpt>
      <trkpt lat="43.36089" lon="0.09664">
        <ele>242.60000610352</ele>
        <time>2020-07-06T09:22:00.000Z</time>
      </trkpt>
      <trkpt lat="43.3611" lon="0.0966">
        <ele>242.60000610352</ele>
        <time>2020-07-06T09:22:03.000Z</time>
      </trkpt>
      <trkpt lat="43.36137" lon="0.09654">
        <ele>242.60000610352</ele>
        <time>2020-07-06T09:22:07.000Z</time>
      </trkpt>
      <trkpt lat="43.36149" lon="0.09649">
        <ele>242.39999389648</ele>
        <time>2020-07-06T09:22:09.000Z</time>
      </trkpt>
      <trkpt lat="43.36197" lon="0.09633">
        <ele>242.19999694824</ele>
        <time>2020-07-06T09:22:16.000Z</time>
      </trkpt>
      <trkpt lat="43.36252" lon="0.09617">
        <ele>242.19999694824</ele>
        <time>2020-07-06T09:22:24.000Z</time>
      </trkpt>
      <trkpt lat="43.36309" lon="0.09608">
        <ele>242</ele>
        <time>2020-07-06T09:22:32.000Z</time>
      </trkpt>
      <trkpt lat="43.36323" lon="0.09605">
        <ele>242.19999694824</ele>
        <time>2020-07-06T09:22:34.000Z</time>
      </trkpt>
      <trkpt lat="43.36358" lon="0.09595">
        <ele>242</ele>
        <time>2020-07-06T09:22:39.000Z</time>
      </trkpt>
      <trkpt lat="43.36365" lon="0.09592">
        <ele>241.80000305176</ele>
        <time>2020-07-06T09:22:40.000Z</time>
      </trkpt>
      <trkpt lat="43.36405" lon="0.09576">
        <ele>241.60000610352</ele>
        <time>2020-07-06T09:22:46.000Z</time>
      </trkpt>
      <trkpt lat="43.36446" lon="0.09566">
        <ele>241.60000610352</ele>
        <time>2020-07-06T09:22:52.000Z</time>
      </trkpt>
      <trkpt lat="43.36452" lon="0.09562">
        <ele>241.60000610352</ele>
        <time>2020-07-06T09:22:53.000Z</time>
      </trkpt>
      <trkpt lat="43.3647" lon="0.09547">
        <ele>241.60000610352</ele>
        <time>2020-07-06T09:22:56.000Z</time>
      </trkpt>
      <trkpt lat="43.36517" lon="0.09501">
        <ele>241</ele>
        <time>2020-07-06T09:23:04.000Z</time>
      </trkpt>
      <trkpt lat="43.36523" lon="0.09496">
        <ele>241</ele>
        <time>2020-07-06T09:23:05.000Z</time>
      </trkpt>
      <trkpt lat="43.36571" lon="0.09456">
        <ele>240.80000305176</ele>
        <time>2020-07-06T09:23:13.000Z</time>
      </trkpt>
      <trkpt lat="43.36613" lon="0.09439">
        <ele>241</ele>
        <time>2020-07-06T09:23:19.000Z</time>
      </trkpt>
      <trkpt lat="43.36658" lon="0.09441">
        <ele>240.80000305176</ele>
        <time>2020-07-06T09:23:25.000Z</time>
      </trkpt>
      <trkpt lat="43.36718" lon="0.09445">
        <ele>240.60000610352</ele>
        <time>2020-07-06T09:23:33.000Z</time>
      </trkpt>
      <trkpt lat="43.36725" lon="0.09444">
        <ele>240.60000610352</ele>
        <time>2020-07-06T09:23:34.000Z</time>
      </trkpt>
      <trkpt lat="43.36779" lon="0.09437">
        <ele>240.19999694824</ele>
        <time>2020-07-06T09:23:41.000Z</time>
      </trkpt>
      <trkpt lat="43.36801" lon="0.09429">
        <ele>240</ele>
        <time>2020-07-06T09:23:44.000Z</time>
      </trkpt>
      <trkpt lat="43.36838" lon="0.09413">
        <ele>239.80000305176</ele>
        <time>2020-07-06T09:23:49.000Z</time>
      </trkpt>
      <trkpt lat="43.36888" lon="0.09395">
        <ele>239.39999389648</ele>
        <time>2020-07-06T09:23:56.000Z</time>
      </trkpt>
      <trkpt lat="43.36942" lon="0.09389">
        <ele>239</ele>
        <time>2020-07-06T09:24:03.000Z</time>
      </trkpt>
      <trkpt lat="43.3695" lon="0.09388">
        <ele>239</ele>
        <time>2020-07-06T09:24:04.000Z</time>
      </trkpt>
      <trkpt lat="43.36957" lon="0.09387">
        <ele>238.60000610352</ele>
        <time>2020-07-06T09:24:05.000Z</time>
      </trkpt>
      <trkpt lat="43.37011" lon="0.09382">
        <ele>238.19999694824</ele>
        <time>2020-07-06T09:24:12.000Z</time>
      </trkpt>
      <trkpt lat="43.37034" lon="0.0938">
        <ele>238.19999694824</ele>
        <time>2020-07-06T09:24:15.000Z</time>
      </trkpt>
      <trkpt lat="43.37087" lon="0.09368">
        <ele>238.19999694824</ele>
        <time>2020-07-06T09:24:22.000Z</time>
      </trkpt>
      <trkpt lat="43.37145" lon="0.09349">
        <ele>237.60000610352</ele>
        <time>2020-07-06T09:24:30.000Z</time>
      </trkpt>
      <trkpt lat="43.37189" lon="0.09335">
        <ele>237.19999694824</ele>
        <time>2020-07-06T09:24:36.000Z</time>
      </trkpt>
      <trkpt lat="43.37207" lon="0.09329">
        <ele>237.39999389648</ele>
        <time>2020-07-06T09:24:39.000Z</time>
      </trkpt>
      <trkpt lat="43.3721" lon="0.09329">
        <ele>237.60000610352</ele>
        <time>2020-07-06T09:24:40.000Z</time>
      </trkpt>
      <trkpt lat="43.37211" lon="0.09329">
        <ele>237.60000610352</ele>
        <time>2020-07-06T09:24:42.000Z</time>
      </trkpt>
      <trkpt lat="43.37221" lon="0.09326">
        <ele>238</ele>
        <time>2020-07-06T09:24:47.000Z</time>
      </trkpt>
      <trkpt lat="43.37242" lon="0.09318">
        <ele>237.80000305176</ele>
        <time>2020-07-06T09:24:52.000Z</time>
      </trkpt>
      <trkpt lat="43.37268" lon="0.09308">
        <ele>237.19999694824</ele>
        <time>2020-07-06T09:24:56.000Z</time>
      </trkpt>
      <trkpt lat="43.3731" lon="0.09298">
        <ele>237.19999694824</ele>
        <time>2020-07-06T09:25:02.000Z</time>
      </trkpt>
      <trkpt lat="43.37353" lon="0.09301">
        <ele>237</ele>
        <time>2020-07-06T09:25:08.000Z</time>
      </trkpt>
      <trkpt lat="43.37392" lon="0.0932">
        <ele>236.80000305176</ele>
        <time>2020-07-06T09:25:13.000Z</time>
      </trkpt>
      <trkpt lat="43.37431" lon="0.09356">
        <ele>236.80000305176</ele>
        <time>2020-07-06T09:25:19.000Z</time>
      </trkpt>
      <trkpt lat="43.37438" lon="0.09362">
        <ele>236.60000610352</ele>
        <time>2020-07-06T09:25:20.000Z</time>
      </trkpt>
      <trkpt lat="43.37472" lon="0.09391">
        <ele>236.39999389648</ele>
        <time>2020-07-06T09:25:25.000Z</time>
      </trkpt>
      <trkpt lat="43.37527" lon="0.09428">
        <ele>236.19999694824</ele>
        <time>2020-07-06T09:25:33.000Z</time>
      </trkpt>
      <trkpt lat="43.37576" lon="0.0946">
        <ele>236.19999694824</ele>
        <time>2020-07-06T09:25:40.000Z</time>
      </trkpt>
      <trkpt lat="43.37628" lon="0.09484">
        <ele>235.80000305176</ele>
        <time>2020-07-06T09:25:47.000Z</time>
      </trkpt>
      <trkpt lat="43.37635" lon="0.09487">
        <ele>235.80000305176</ele>
        <time>2020-07-06T09:25:48.000Z</time>
      </trkpt>
      <trkpt lat="43.37686" lon="0.09506">
        <ele>234.60000610352</ele>
        <time>2020-07-06T09:25:55.000Z</time>
      </trkpt>
      <trkpt lat="43.37729" lon="0.09523">
        <ele>234.39999389648</ele>
        <time>2020-07-06T09:26:01.000Z</time>
      </trkpt>
      <trkpt lat="43.37771" lon="0.09539">
        <ele>234.19999694824</ele>
        <time>2020-07-06T09:26:07.000Z</time>
      </trkpt>
      <trkpt lat="43.37822" lon="0.09547">
        <ele>234</ele>
        <time>2020-07-06T09:26:14.000Z</time>
      </trkpt>
      <trkpt lat="43.37882" lon="0.09547">
        <ele>234</ele>
        <time>2020-07-06T09:26:22.000Z</time>
      </trkpt>
      <trkpt lat="43.37904" lon="0.09548">
        <ele>234.19999694824</ele>
        <time>2020-07-06T09:26:25.000Z</time>
      </trkpt>
      <trkpt lat="43.37955" lon="0.09549">
        <ele>233.60000610352</ele>
        <time>2020-07-06T09:26:32.000Z</time>
      </trkpt>
      <trkpt lat="43.37972" lon="0.09549">
        <ele>233.39999389648</ele>
        <time>2020-07-06T09:26:34.000Z</time>
      </trkpt>
      <trkpt lat="43.38031" lon="0.09552">
        <ele>233.19999694824</ele>
        <time>2020-07-06T09:26:42.000Z</time>
      </trkpt>
      <trkpt lat="43.38039" lon="0.09553">
        <ele>233.19999694824</ele>
        <time>2020-07-06T09:26:43.000Z</time>
      </trkpt>
      <trkpt lat="43.38099" lon="0.09553">
        <ele>233</ele>
        <time>2020-07-06T09:26:51.000Z</time>
      </trkpt>
      <trkpt lat="43.38159" lon="0.09555">
        <ele>232.39999389648</ele>
        <time>2020-07-06T09:26:59.000Z</time>
      </trkpt>
      <trkpt lat="43.38213" lon="0.09557">
        <ele>232.19999694824</ele>
        <time>2020-07-06T09:27:06.000Z</time>
      </trkpt>
      <trkpt lat="43.38275" lon="0.09557">
        <ele>232.60000610352</ele>
        <time>2020-07-06T09:27:14.000Z</time>
      </trkpt>
      <trkpt lat="43.38282" lon="0.09557">
        <ele>232.60000610352</ele>
        <time>2020-07-06T09:27:15.000Z</time>
      </trkpt>
      <trkpt lat="43.38336" lon="0.09548">
        <ele>232</ele>
        <time>2020-07-06T09:27:22.000Z</time>
      </trkpt>
      <trkpt lat="43.38396" lon="0.09534">
        <ele>232</ele>
        <time>2020-07-06T09:27:30.000Z</time>
      </trkpt>
      <trkpt lat="43.38404" lon="0.09533">
        <ele>231.80000305176</ele>
        <time>2020-07-06T09:27:31.000Z</time>
      </trkpt>
      <trkpt lat="43.38463" lon="0.09519">
        <ele>231.39999389648</ele>
        <time>2020-07-06T09:27:39.000Z</time>
      </trkpt>
      <trkpt lat="43.3847" lon="0.09517">
        <ele>231.39999389648</ele>
        <time>2020-07-06T09:27:40.000Z</time>
      </trkpt>
      <trkpt lat="43.38516" lon="0.09506">
        <ele>231.19999694824</ele>
        <time>2020-07-06T09:27:47.000Z</time>
      </trkpt>
      <trkpt lat="43.38523" lon="0.09507">
        <ele>231.19999694824</ele>
        <time>2020-07-06T09:27:49.000Z</time>
      </trkpt>
      <trkpt lat="43.38525" lon="0.0951">
        <ele>231.39999389648</ele>
        <time>2020-07-06T09:27:50.000Z</time>
      </trkpt>
      <trkpt lat="43.38527" lon="0.09538">
        <ele>232.19999694824</ele>
        <time>2020-07-06T09:27:55.000Z</time>
      </trkpt>
      <trkpt lat="43.3853" lon="0.0959">
        <ele>232.19999694824</ele>
        <time>2020-07-06T09:28:01.000Z</time>
      </trkpt>
      <trkpt lat="43.38532" lon="0.09656">
        <ele>231.60000610352</ele>
        <time>2020-07-06T09:28:08.000Z</time>
      </trkpt>
      <trkpt lat="43.38535" lon="0.09733">
        <ele>231.39999389648</ele>
        <time>2020-07-06T09:28:16.000Z</time>
      </trkpt>
      <trkpt lat="43.38536" lon="0.09752">
        <ele>231.19999694824</ele>
        <time>2020-07-06T09:28:18.000Z</time>
      </trkpt>
      <trkpt lat="43.38538" lon="0.09812">
        <ele>230.80000305176</ele>
        <time>2020-07-06T09:28:24.000Z</time>
      </trkpt>
      <trkpt lat="43.38538" lon="0.09822">
        <ele>230.80000305176</ele>
        <time>2020-07-06T09:28:25.000Z</time>
      </trkpt>
      <trkpt lat="43.38542" lon="0.09904">
        <ele>230.80000305176</ele>
        <time>2020-07-06T09:28:33.000Z</time>
      </trkpt>
      <trkpt lat="43.38547" lon="0.09978">
        <ele>230.80000305176</ele>
        <time>2020-07-06T09:28:40.000Z</time>
      </trkpt>
      <trkpt lat="43.38548" lon="0.1">
        <ele>230.80000305176</ele>
        <time>2020-07-06T09:28:42.000Z</time>
      </trkpt>
      <trkpt lat="43.38553" lon="0.10078">
        <ele>231</ele>
        <time>2020-07-06T09:28:49.000Z</time>
      </trkpt>
      <trkpt lat="43.38556" lon="0.10155">
        <ele>231</ele>
        <time>2020-07-06T09:28:56.000Z</time>
      </trkpt>
      <trkpt lat="43.3856" lon="0.10231">
        <ele>230.80000305176</ele>
        <time>2020-07-06T09:29:03.000Z</time>
      </trkpt>
      <trkpt lat="43.3856" lon="0.10242">
        <ele>230.80000305176</ele>
        <time>2020-07-06T09:29:04.000Z</time>
      </trkpt>
      <trkpt lat="43.38564" lon="0.10318">
        <ele>231.19999694824</ele>
        <time>2020-07-06T09:29:11.000Z</time>
      </trkpt>
      <trkpt lat="43.38565" lon="0.10338">
        <ele>231.19999694824</ele>
        <time>2020-07-06T09:29:13.000Z</time>
      </trkpt>
      <trkpt lat="43.38567" lon="0.10386">
        <ele>231.60000610352</ele>
        <time>2020-07-06T09:29:19.000Z</time>
      </trkpt>
      <trkpt lat="43.38567" lon="0.10399">
        <ele>232.19999694824</ele>
        <time>2020-07-06T09:29:23.000Z</time>
      </trkpt>
      <trkpt lat="43.38567" lon="0.10399">
        <ele>232.19999694824</ele>
        <time>2020-07-06T09:29:28.000Z</time>
      </trkpt>
      <trkpt lat="43.38571" lon="0.10401">
        <ele>232.19999694824</ele>
        <time>2020-07-06T09:29:35.000Z</time>
      </trkpt>
      <trkpt lat="43.38573" lon="0.10402">
        <ele>232.19999694824</ele>
        <time>2020-07-06T09:29:36.000Z</time>
      </trkpt>
      <trkpt lat="43.38588" lon="0.10402">
        <ele>232</ele>
        <time>2020-07-06T09:29:40.000Z</time>
      </trkpt>
      <trkpt lat="43.38614" lon="0.10402">
        <ele>231.19999694824</ele>
        <time>2020-07-06T09:29:45.000Z</time>
      </trkpt>
      <trkpt lat="43.38663" lon="0.10402">
        <ele>230.19999694824</ele>
        <time>2020-07-06T09:29:52.000Z</time>
      </trkpt>
      <trkpt lat="43.38714" lon="0.10403">
        <ele>230</ele>
        <time>2020-07-06T09:29:59.000Z</time>
      </trkpt>
      <trkpt lat="43.38768" lon="0.10414">
        <ele>230.19999694824</ele>
        <time>2020-07-06T09:30:06.000Z</time>
      </trkpt>
      <trkpt lat="43.38813" lon="0.10423">
        <ele>230.19999694824</ele>
        <time>2020-07-06T09:30:12.000Z</time>
      </trkpt>
      <trkpt lat="43.3882" lon="0.10422">
        <ele>230.19999694824</ele>
        <time>2020-07-06T09:30:13.000Z</time>
      </trkpt>
      <trkpt lat="43.38876" lon="0.10414">
        <ele>230</ele>
        <time>2020-07-06T09:30:20.000Z</time>
      </trkpt>
      <trkpt lat="43.38891" lon="0.10411">
        <ele>230</ele>
        <time>2020-07-06T09:30:22.000Z</time>
      </trkpt>
      <trkpt lat="43.38947" lon="0.10404">
        <ele>230.19999694824</ele>
        <time>2020-07-06T09:30:29.000Z</time>
      </trkpt>
      <trkpt lat="43.38972" lon="0.104">
        <ele>230</ele>
        <time>2020-07-06T09:30:32.000Z</time>
      </trkpt>
      <trkpt lat="43.39029" lon="0.10393">
        <ele>230</ele>
        <time>2020-07-06T09:30:39.000Z</time>
      </trkpt>
      <trkpt lat="43.39037" lon="0.10393">
        <ele>229.80000305176</ele>
        <time>2020-07-06T09:30:40.000Z</time>
      </trkpt>
      <trkpt lat="43.39096" lon="0.10389">
        <ele>229.39999389648</ele>
        <time>2020-07-06T09:30:47.000Z</time>
      </trkpt>
      <trkpt lat="43.39121" lon="0.10389">
        <ele>229.39999389648</ele>
        <time>2020-07-06T09:30:50.000Z</time>
      </trkpt>
      <trkpt lat="43.39176" lon="0.10388">
        <ele>229.80000305176</ele>
        <time>2020-07-06T09:30:56.000Z</time>
      </trkpt>
      <trkpt lat="43.39185" lon="0.10388">
        <ele>229.80000305176</ele>
        <time>2020-07-06T09:30:57.000Z</time>
      </trkpt>
      <trkpt lat="43.3924" lon="0.10387">
        <ele>229</ele>
        <time>2020-07-06T09:31:03.000Z</time>
      </trkpt>
      <trkpt lat="43.3927" lon="0.10386">
        <ele>228.60000610352</ele>
        <time>2020-07-06T09:31:06.000Z</time>
      </trkpt>
      <trkpt lat="43.39307" lon="0.10384">
        <ele>228.39999389648</ele>
        <time>2020-07-06T09:31:10.000Z</time>
      </trkpt>
      <trkpt lat="43.39345" lon="0.10377">
        <ele>228</ele>
        <time>2020-07-06T09:31:14.000Z</time>
      </trkpt>
      <trkpt lat="43.39402" lon="0.10367">
        <ele>227.39999389648</ele>
        <time>2020-07-06T09:31:20.000Z</time>
      </trkpt>
      <trkpt lat="43.39411" lon="0.10366">
        <ele>227.39999389648</ele>
        <time>2020-07-06T09:31:21.000Z</time>
      </trkpt>
      <trkpt lat="43.39457" lon="0.10368">
        <ele>227.39999389648</ele>
        <time>2020-07-06T09:31:26.000Z</time>
      </trkpt>
      <trkpt lat="43.39513" lon="0.1038">
        <ele>227.39999389648</ele>
        <time>2020-07-06T09:31:32.000Z</time>
      </trkpt>
      <trkpt lat="43.39523" lon="0.10381">
        <ele>227.39999389648</ele>
        <time>2020-07-06T09:31:33.000Z</time>
      </trkpt>
      <trkpt lat="43.39577" lon="0.10389">
        <ele>226.60000610352</ele>
        <time>2020-07-06T09:31:39.000Z</time>
      </trkpt>
      <trkpt lat="43.39586" lon="0.10392">
        <ele>226.60000610352</ele>
        <time>2020-07-06T09:31:40.000Z</time>
      </trkpt>
      <trkpt lat="43.39639" lon="0.1041">
        <ele>226.19999694824</ele>
        <time>2020-07-06T09:31:46.000Z</time>
      </trkpt>
      <trkpt lat="43.39666" lon="0.10418">
        <ele>226.19999694824</ele>
        <time>2020-07-06T09:31:49.000Z</time>
      </trkpt>
      <trkpt lat="43.39721" lon="0.1043">
        <ele>225.80000305176</ele>
        <time>2020-07-06T09:31:55.000Z</time>
      </trkpt>
      <trkpt lat="43.3973" lon="0.10431">
        <ele>225.80000305176</ele>
        <time>2020-07-06T09:31:56.000Z</time>
      </trkpt>
      <trkpt lat="43.39787" lon="0.10433">
        <ele>225.19999694824</ele>
        <time>2020-07-06T09:32:02.000Z</time>
      </trkpt>
      <trkpt lat="43.39796" lon="0.10433">
        <ele>225.19999694824</ele>
        <time>2020-07-06T09:32:03.000Z</time>
      </trkpt>
      <trkpt lat="43.39852" lon="0.10431">
        <ele>225</ele>
        <time>2020-07-06T09:32:09.000Z</time>
      </trkpt>
      <trkpt lat="43.3988" lon="0.10429">
        <ele>224.80000305176</ele>
        <time>2020-07-06T09:32:12.000Z</time>
      </trkpt>
      <trkpt lat="43.39935" lon="0.10421">
        <ele>224.60000610352</ele>
        <time>2020-07-06T09:32:18.000Z</time>
      </trkpt>
      <trkpt lat="43.39962" lon="0.10417">
        <ele>224.60000610352</ele>
        <time>2020-07-06T09:32:21.000Z</time>
      </trkpt>
      <trkpt lat="43.39999" lon="0.10415">
        <ele>224.19999694824</ele>
        <time>2020-07-06T09:32:25.000Z</time>
      </trkpt>
      <trkpt lat="43.40027" lon="0.10416">
        <ele>224</ele>
        <time>2020-07-06T09:32:28.000Z</time>
      </trkpt>
      <trkpt lat="43.40083" lon="0.10416">
        <ele>223.60000610352</ele>
        <time>2020-07-06T09:32:34.000Z</time>
      </trkpt>
      <trkpt lat="43.40111" lon="0.10413">
        <ele>223.60000610352</ele>
        <time>2020-07-06T09:32:37.000Z</time>
      </trkpt>
      <trkpt lat="43.40165" lon="0.10398">
        <ele>223.39999389648</ele>
        <time>2020-07-06T09:32:43.000Z</time>
      </trkpt>
      <trkpt lat="43.40183" lon="0.10393">
        <ele>223.39999389648</ele>
        <time>2020-07-06T09:32:45.000Z</time>
      </trkpt>
      <trkpt lat="43.40202" lon="0.10391">
        <ele>223.19999694824</ele>
        <time>2020-07-06T09:32:47.000Z</time>
      </trkpt>
      <trkpt lat="43.40229" lon="0.10392">
        <ele>222.80000305176</ele>
        <time>2020-07-06T09:32:50.000Z</time>
      </trkpt>
      <trkpt lat="43.40284" lon="0.10401">
        <ele>222.39999389648</ele>
        <time>2020-07-06T09:32:56.000Z</time>
      </trkpt>
      <trkpt lat="43.40312" lon="0.10407">
        <ele>222.39999389648</ele>
        <time>2020-07-06T09:32:59.000Z</time>
      </trkpt>
      <trkpt lat="43.40339" lon="0.10417">
        <ele>222.80000305176</ele>
        <time>2020-07-06T09:33:02.000Z</time>
      </trkpt>
      <trkpt lat="43.40357" lon="0.1042">
        <ele>222.80000305176</ele>
        <time>2020-07-06T09:33:04.000Z</time>
      </trkpt>
      <trkpt lat="43.40384" lon="0.10411">
        <ele>222.80000305176</ele>
        <time>2020-07-06T09:33:07.000Z</time>
      </trkpt>
      <trkpt lat="43.40434" lon="0.10381">
        <ele>222.60000610352</ele>
        <time>2020-07-06T09:33:13.000Z</time>
      </trkpt>
      <trkpt lat="43.40443" lon="0.10376">
        <ele>222.39999389648</ele>
        <time>2020-07-06T09:33:14.000Z</time>
      </trkpt>
      <trkpt lat="43.40451" lon="0.10372">
        <ele>222.39999389648</ele>
        <time>2020-07-06T09:33:15.000Z</time>
      </trkpt>
      <trkpt lat="43.40467" lon="0.10362">
        <ele>222.19999694824</ele>
        <time>2020-07-06T09:33:17.000Z</time>
      </trkpt>
      <trkpt lat="43.40523" lon="0.10328">
        <ele>221.39999389648</ele>
        <time>2020-07-06T09:33:24.000Z</time>
      </trkpt>
      <trkpt lat="43.40531" lon="0.10324">
        <ele>221.39999389648</ele>
        <time>2020-07-06T09:33:25.000Z</time>
      </trkpt>
      <trkpt lat="43.40568" lon="0.103">
        <ele>221</ele>
        <time>2020-07-06T09:33:30.000Z</time>
      </trkpt>
      <trkpt lat="43.40581" lon="0.1029">
        <ele>220.80000305176</ele>
        <time>2020-07-06T09:33:32.000Z</time>
      </trkpt>
      <trkpt lat="43.40592" lon="0.1028">
        <ele>220.80000305176</ele>
        <time>2020-07-06T09:33:34.000Z</time>
      </trkpt>
      <trkpt lat="43.40594" lon="0.10273">
        <ele>220.80000305176</ele>
        <time>2020-07-06T09:33:35.000Z</time>
      </trkpt>
      <trkpt lat="43.40594" lon="0.10264">
        <ele>220.80000305176</ele>
        <time>2020-07-06T09:33:36.000Z</time>
      </trkpt>
      <trkpt lat="43.40588" lon="0.10247">
        <ele>220.80000305176</ele>
        <time>2020-07-06T09:33:38.000Z</time>
      </trkpt>
      <trkpt lat="43.40572" lon="0.10188">
        <ele>221</ele>
        <time>2020-07-06T09:33:44.000Z</time>
      </trkpt>
      <trkpt lat="43.40569" lon="0.10167">
        <ele>220.60000610352</ele>
        <time>2020-07-06T09:33:46.000Z</time>
      </trkpt>
      <trkpt lat="43.40569" lon="0.10145">
        <ele>220.60000610352</ele>
        <time>2020-07-06T09:33:48.000Z</time>
      </trkpt>
      <trkpt lat="43.40571" lon="0.10113">
        <ele>220.60000610352</ele>
        <time>2020-07-06T09:33:51.000Z</time>
      </trkpt>
      <trkpt lat="43.40569" lon="0.10092">
        <ele>220.60000610352</ele>
        <time>2020-07-06T09:33:53.000Z</time>
      </trkpt>
      <trkpt lat="43.40551" lon="0.10032">
        <ele>220.60000610352</ele>
        <time>2020-07-06T09:33:59.000Z</time>
      </trkpt>
      <trkpt lat="43.40535" lon="0.0995">
        <ele>220.19999694824</ele>
        <time>2020-07-06T09:34:07.000Z</time>
      </trkpt>
      <trkpt lat="43.40532" lon="0.0994">
        <ele>220.19999694824</ele>
        <time>2020-07-06T09:34:08.000Z</time>
      </trkpt>
      <trkpt lat="43.40509" lon="0.09884">
        <ele>220.19999694824</ele>
        <time>2020-07-06T09:34:14.000Z</time>
      </trkpt>
      <trkpt lat="43.40504" lon="0.09864">
        <ele>220.19999694824</ele>
        <time>2020-07-06T09:34:16.000Z</time>
      </trkpt>
      <trkpt lat="43.40503" lon="0.09843">
        <ele>220.19999694824</ele>
        <time>2020-07-06T09:34:18.000Z</time>
      </trkpt>
      <trkpt lat="43.40506" lon="0.09811">
        <ele>220</ele>
        <time>2020-07-06T09:34:21.000Z</time>
      </trkpt>
      <trkpt lat="43.40511" lon="0.09791">
        <ele>220</ele>
        <time>2020-07-06T09:34:23.000Z</time>
      </trkpt>
      <trkpt lat="43.4053" lon="0.09743">
        <ele>220</ele>
        <time>2020-07-06T09:34:28.000Z</time>
      </trkpt>
      <trkpt lat="43.40556" lon="0.09678">
        <ele>220</ele>
        <time>2020-07-06T09:34:35.000Z</time>
      </trkpt>
      <trkpt lat="43.40567" lon="0.09649">
        <ele>219.60000610352</ele>
        <time>2020-07-06T09:34:38.000Z</time>
      </trkpt>
      <trkpt lat="43.40579" lon="0.0961">
        <ele>219</ele>
        <time>2020-07-06T09:34:42.000Z</time>
      </trkpt>
      <trkpt lat="43.40596" lon="0.09549">
        <ele>218.60000610352</ele>
        <time>2020-07-06T09:34:48.000Z</time>
      </trkpt>
      <trkpt lat="43.4061" lon="0.09477">
        <ele>218.80000305176</ele>
        <time>2020-07-06T09:34:55.000Z</time>
      </trkpt>
      <trkpt lat="43.40613" lon="0.09456">
        <ele>218.80000305176</ele>
        <time>2020-07-06T09:34:57.000Z</time>
      </trkpt>
      <trkpt lat="43.40622" lon="0.09383">
        <ele>218.60000610352</ele>
        <time>2020-07-06T09:35:04.000Z</time>
      </trkpt>
      <trkpt lat="43.40624" lon="0.09373">
        <ele>218.60000610352</ele>
        <time>2020-07-06T09:35:05.000Z</time>
      </trkpt>
      <trkpt lat="43.40627" lon="0.09363">
        <ele>218.60000610352</ele>
        <time>2020-07-06T09:35:06.000Z</time>
      </trkpt>
      <trkpt lat="43.4063" lon="0.09354">
        <ele>218.60000610352</ele>
        <time>2020-07-06T09:35:07.000Z</time>
      </trkpt>
      <trkpt lat="43.4064" lon="0.09338">
        <ele>218.39999389648</ele>
        <time>2020-07-06T09:35:09.000Z</time>
      </trkpt>
      <trkpt lat="43.40668" lon="0.09304">
        <ele>218.60000610352</ele>
        <time>2020-07-06T09:35:14.000Z</time>
      </trkpt>
      <trkpt lat="43.40672" lon="0.09296">
        <ele>218.80000305176</ele>
        <time>2020-07-06T09:35:15.000Z</time>
      </trkpt>
      <trkpt lat="43.40677" lon="0.09278">
        <ele>219</ele>
        <time>2020-07-06T09:35:17.000Z</time>
      </trkpt>
      <trkpt lat="43.40671" lon="0.09248">
        <ele>219.19999694824</ele>
        <time>2020-07-06T09:35:20.000Z</time>
      </trkpt>
      <trkpt lat="43.4065" lon="0.09171">
        <ele>219.19999694824</ele>
        <time>2020-07-06T09:35:28.000Z</time>
      </trkpt>
      <trkpt lat="43.40647" lon="0.09161">
        <ele>219.19999694824</ele>
        <time>2020-07-06T09:35:29.000Z</time>
      </trkpt>
      <trkpt lat="43.40629" lon="0.0909">
        <ele>219</ele>
        <time>2020-07-06T09:35:36.000Z</time>
      </trkpt>
      <trkpt lat="43.40621" lon="0.09048">
        <ele>218.60000610352</ele>
        <time>2020-07-06T09:35:40.000Z</time>
      </trkpt>
      <trkpt lat="43.40614" lon="0.08974">
        <ele>218.60000610352</ele>
        <time>2020-07-06T09:35:47.000Z</time>
      </trkpt>
      <trkpt lat="43.40607" lon="0.08891">
        <ele>219.19999694824</ele>
        <time>2020-07-06T09:35:55.000Z</time>
      </trkpt>
      <trkpt lat="43.40605" lon="0.0886">
        <ele>219.39999389648</ele>
        <time>2020-07-06T09:35:58.000Z</time>
      </trkpt>
      <trkpt lat="43.40602" lon="0.08777">
        <ele>219.60000610352</ele>
        <time>2020-07-06T09:36:06.000Z</time>
      </trkpt>
      <trkpt lat="43.40601" lon="0.08756">
        <ele>219.60000610352</ele>
        <time>2020-07-06T09:36:08.000Z</time>
      </trkpt>
      <trkpt lat="43.406" lon="0.08691">
        <ele>219.80000305176</ele>
        <time>2020-07-06T09:36:15.000Z</time>
      </trkpt>
      <trkpt lat="43.40599" lon="0.08674">
        <ele>219.80000305176</ele>
        <time>2020-07-06T09:36:17.000Z</time>
      </trkpt>
      <trkpt lat="43.40596" lon="0.08658">
        <ele>220</ele>
        <time>2020-07-06T09:36:19.000Z</time>
      </trkpt>
      <trkpt lat="43.40592" lon="0.0865">
        <ele>220</ele>
        <time>2020-07-06T09:36:20.000Z</time>
      </trkpt>
      <trkpt lat="43.40588" lon="0.08643">
        <ele>220.19999694824</ele>
        <time>2020-07-06T09:36:21.000Z</time>
      </trkpt>
      <trkpt lat="43.40564" lon="0.0861">
        <ele>220.39999389648</ele>
        <time>2020-07-06T09:36:26.000Z</time>
      </trkpt>
      <trkpt lat="43.40521" lon="0.08551">
        <ele>220.39999389648</ele>
        <time>2020-07-06T09:36:35.000Z</time>
      </trkpt>
      <trkpt lat="43.40502" lon="0.08525">
        <ele>220.80000305176</ele>
        <time>2020-07-06T09:36:39.000Z</time>
      </trkpt>
      <trkpt lat="43.40493" lon="0.08512">
        <ele>221</ele>
        <time>2020-07-06T09:36:41.000Z</time>
      </trkpt>
      <trkpt lat="43.40459" lon="0.08467">
        <ele>221.80000305176</ele>
        <time>2020-07-06T09:36:48.000Z</time>
      </trkpt>
      <trkpt lat="43.40419" lon="0.08414">
        <ele>221.80000305176</ele>
        <time>2020-07-06T09:36:56.000Z</time>
      </trkpt>
      <trkpt lat="43.40405" lon="0.08393">
        <ele>221.60000610352</ele>
        <time>2020-07-06T09:36:59.000Z</time>
      </trkpt>
      <trkpt lat="43.40365" lon="0.08337">
        <ele>221.39999389648</ele>
        <time>2020-07-06T09:37:07.000Z</time>
      </trkpt>
      <trkpt lat="43.40346" lon="0.0831">
        <ele>221.39999389648</ele>
        <time>2020-07-06T09:37:11.000Z</time>
      </trkpt>
      <trkpt lat="43.40311" lon="0.08263">
        <ele>221.19999694824</ele>
        <time>2020-07-06T09:37:18.000Z</time>
      </trkpt>
      <trkpt lat="43.40271" lon="0.08206">
        <ele>221.19999694824</ele>
        <time>2020-07-06T09:37:26.000Z</time>
      </trkpt>
      <trkpt lat="43.40261" lon="0.08191">
        <ele>221.19999694824</ele>
        <time>2020-07-06T09:37:28.000Z</time>
      </trkpt>
      <trkpt lat="43.40235" lon="0.08148">
        <ele>221.60000610352</ele>
        <time>2020-07-06T09:37:34.000Z</time>
      </trkpt>
      <trkpt lat="43.40216" lon="0.08107">
        <ele>221.80000305176</ele>
        <time>2020-07-06T09:37:39.000Z</time>
      </trkpt>
      <trkpt lat="43.40211" lon="0.08089">
        <ele>221.60000610352</ele>
        <time>2020-07-06T09:37:41.000Z</time>
      </trkpt>
      <trkpt lat="43.40207" lon="0.08041">
        <ele>221.39999389648</ele>
        <time>2020-07-06T09:37:46.000Z</time>
      </trkpt>
      <trkpt lat="43.40208" lon="0.07966">
        <ele>221.19999694824</ele>
        <time>2020-07-06T09:37:54.000Z</time>
      </trkpt>
      <trkpt lat="43.40211" lon="0.07937">
        <ele>221</ele>
        <time>2020-07-06T09:37:57.000Z</time>
      </trkpt>
      <trkpt lat="43.40215" lon="0.07919">
        <ele>220.80000305176</ele>
        <time>2020-07-06T09:37:59.000Z</time>
      </trkpt>
      <trkpt lat="43.40219" lon="0.0791">
        <ele>220.80000305176</ele>
        <time>2020-07-06T09:38:00.000Z</time>
      </trkpt>
      <trkpt lat="43.40232" lon="0.07875">
        <ele>220.60000610352</ele>
        <time>2020-07-06T09:38:04.000Z</time>
      </trkpt>
      <trkpt lat="43.40258" lon="0.07806">
        <ele>220.60000610352</ele>
        <time>2020-07-06T09:38:12.000Z</time>
      </trkpt>
      <trkpt lat="43.40283" lon="0.07753">
        <ele>220.80000305176</ele>
        <time>2020-07-06T09:38:19.000Z</time>
      </trkpt>
      <trkpt lat="43.40294" lon="0.07745">
        <ele>220.80000305176</ele>
        <time>2020-07-06T09:38:21.000Z</time>
      </trkpt>
      <trkpt lat="43.403" lon="0.07744">
        <ele>220.80000305176</ele>
        <time>2020-07-06T09:38:22.000Z</time>
      </trkpt>
      <trkpt lat="43.40355" lon="0.07742">
        <ele>220.80000305176</ele>
        <time>2020-07-06T09:38:30.000Z</time>
      </trkpt>
      <trkpt lat="43.40409" lon="0.07739">
        <ele>220.19999694824</ele>
        <time>2020-07-06T09:38:38.000Z</time>
      </trkpt>
      <trkpt lat="43.40466" lon="0.07738">
        <ele>220.19999694824</ele>
        <time>2020-07-06T09:38:46.000Z</time>
      </trkpt>
      <trkpt lat="43.40516" lon="0.07734">
        <ele>220.19999694824</ele>
        <time>2020-07-06T09:38:53.000Z</time>
      </trkpt>
      <trkpt lat="43.40538" lon="0.07731">
        <ele>220</ele>
        <time>2020-07-06T09:38:56.000Z</time>
      </trkpt>
      <trkpt lat="43.40574" lon="0.07726">
        <ele>219.80000305176</ele>
        <time>2020-07-06T09:39:01.000Z</time>
      </trkpt>
      <trkpt lat="43.40631" lon="0.07717">
        <ele>219.60000610352</ele>
        <time>2020-07-06T09:39:09.000Z</time>
      </trkpt>
      <trkpt lat="43.40645" lon="0.07715">
        <ele>219.60000610352</ele>
        <time>2020-07-06T09:39:11.000Z</time>
      </trkpt>
      <trkpt lat="43.40702" lon="0.07716">
        <ele>219.60000610352</ele>
        <time>2020-07-06T09:39:19.000Z</time>
      </trkpt>
      <trkpt lat="43.40709" lon="0.07716">
        <ele>219.60000610352</ele>
        <time>2020-07-06T09:39:20.000Z</time>
      </trkpt>
      <trkpt lat="43.40751" lon="0.07718">
        <ele>219.19999694824</ele>
        <time>2020-07-06T09:39:26.000Z</time>
      </trkpt>
      <trkpt lat="43.40772" lon="0.07719">
        <ele>218.80000305176</ele>
        <time>2020-07-06T09:39:29.000Z</time>
      </trkpt>
      <trkpt lat="43.40801" lon="0.07716">
        <ele>218.60000610352</ele>
        <time>2020-07-06T09:39:33.000Z</time>
      </trkpt>
      <trkpt lat="43.40843" lon="0.07706">
        <ele>218.19999694824</ele>
        <time>2020-07-06T09:39:39.000Z</time>
      </trkpt>
      <trkpt lat="43.40893" lon="0.07694">
        <ele>218.39999389648</ele>
        <time>2020-07-06T09:39:46.000Z</time>
      </trkpt>
      <trkpt lat="43.40914" lon="0.07689">
        <ele>218.19999694824</ele>
        <time>2020-07-06T09:39:49.000Z</time>
      </trkpt>
      <trkpt lat="43.40928" lon="0.07687">
        <ele>218.19999694824</ele>
        <time>2020-07-06T09:39:51.000Z</time>
      </trkpt>
      <trkpt lat="43.40942" lon="0.07684">
        <ele>217.80000305176</ele>
        <time>2020-07-06T09:39:53.000Z</time>
      </trkpt>
      <trkpt lat="43.40976" lon="0.07679">
        <ele>217.19999694824</ele>
        <time>2020-07-06T09:39:58.000Z</time>
      </trkpt>
      <trkpt lat="43.41015" lon="0.07665">
        <ele>217</ele>
        <time>2020-07-06T09:40:04.000Z</time>
      </trkpt>
      <trkpt lat="43.4103" lon="0.0766">
        <ele>217</ele>
        <time>2020-07-06T09:40:06.000Z</time>
      </trkpt>
      <trkpt lat="43.41045" lon="0.07656">
        <ele>217</ele>
        <time>2020-07-06T09:40:08.000Z</time>
      </trkpt>
      <trkpt lat="43.41096" lon="0.07639">
        <ele>217.80000305176</ele>
        <time>2020-07-06T09:40:15.000Z</time>
      </trkpt>
      <trkpt lat="43.41151" lon="0.07619">
        <ele>217.60000610352</ele>
        <time>2020-07-06T09:40:22.000Z</time>
      </trkpt>
      <trkpt lat="43.41165" lon="0.07614">
        <ele>217.60000610352</ele>
        <time>2020-07-06T09:40:24.000Z</time>
      </trkpt>
      <trkpt lat="43.41171" lon="0.07611">
        <ele>217.60000610352</ele>
        <time>2020-07-06T09:40:26.000Z</time>
      </trkpt>
      <trkpt lat="43.41205" lon="0.07601">
        <ele>217.60000610352</ele>
        <time>2020-07-06T09:40:30.000Z</time>
      </trkpt>
      <trkpt lat="43.41246" lon="0.07586">
        <ele>216.60000610352</ele>
        <time>2020-07-06T09:40:37.000Z</time>
      </trkpt>
      <trkpt lat="43.41274" lon="0.07578">
        <ele>216.19999694824</ele>
        <time>2020-07-06T09:40:40.000Z</time>
      </trkpt>
      <trkpt lat="43.41328" lon="0.07559">
        <ele>215.80000305176</ele>
        <time>2020-07-06T09:40:48.000Z</time>
      </trkpt>
      <trkpt lat="43.41342" lon="0.07555">
        <ele>215.39999389648</ele>
        <time>2020-07-06T09:40:50.000Z</time>
      </trkpt>
      <trkpt lat="43.41349" lon="0.07553">
        <ele>215.19999694824</ele>
        <time>2020-07-06T09:40:51.000Z</time>
      </trkpt>
      <trkpt lat="43.41363" lon="0.07548">
        <ele>215.19999694824</ele>
        <time>2020-07-06T09:40:54.000Z</time>
      </trkpt>
      <trkpt lat="43.41396" lon="0.07543">
        <ele>214.39999389648</ele>
        <time>2020-07-06T09:40:58.000Z</time>
      </trkpt>
      <trkpt lat="43.41422" lon="0.07546">
        <ele>215</ele>
        <time>2020-07-06T09:41:03.000Z</time>
      </trkpt>
      <trkpt lat="43.41452" lon="0.07554">
        <ele>215</ele>
        <time>2020-07-06T09:41:08.000Z</time>
      </trkpt>
      <trkpt lat="43.41472" lon="0.0756">
        <ele>215.19999694824</ele>
        <time>2020-07-06T09:41:10.000Z</time>
      </trkpt>
      <trkpt lat="43.41485" lon="0.07558">
        <ele>215.19999694824</ele>
        <time>2020-07-06T09:41:12.000Z</time>
      </trkpt>
      <trkpt lat="43.41508" lon="0.07551">
        <ele>215.39999389648</ele>
        <time>2020-07-06T09:41:17.000Z</time>
      </trkpt>
      <trkpt lat="43.41524" lon="0.07548">
        <ele>215.19999694824</ele>
        <time>2020-07-06T09:41:24.000Z</time>
      </trkpt>
      <trkpt lat="43.41534" lon="0.07544">
        <ele>215.19999694824</ele>
        <time>2020-07-06T09:41:27.000Z</time>
      </trkpt>
      <trkpt lat="43.41534" lon="0.07544">
        <ele>215.19999694824</ele>
        <time>2020-07-06T09:41:29.000Z</time>
      </trkpt>
      <trkpt lat="43.41538" lon="0.07543">
        <ele>215.19999694824</ele>
        <time>2020-07-06T09:41:35.000Z</time>
      </trkpt>
      <trkpt lat="43.41547" lon="0.07542">
        <ele>215.19999694824</ele>
        <time>2020-07-06T09:41:38.000Z</time>
      </trkpt>
      <trkpt lat="43.41564" lon="0.07537">
        <ele>215.19999694824</ele>
        <time>2020-07-06T09:41:42.000Z</time>
      </trkpt>
      <trkpt lat="43.41592" lon="0.07534">
        <ele>214.80000305176</ele>
        <time>2020-07-06T09:41:47.000Z</time>
      </trkpt>
      <trkpt lat="43.41633" lon="0.07528">
        <ele>215.19999694824</ele>
        <time>2020-07-06T09:41:55.000Z</time>
      </trkpt>
      <trkpt lat="43.4168" lon="0.07526">
        <ele>215</ele>
        <time>2020-07-06T09:42:02.000Z</time>
      </trkpt>
      <trkpt lat="43.41686" lon="0.07524">
        <ele>214.80000305176</ele>
        <time>2020-07-06T09:42:03.000Z</time>
      </trkpt>
      <trkpt lat="43.41703" lon="0.07518">
        <ele>214.19999694824</ele>
        <time>2020-07-06T09:42:06.000Z</time>
      </trkpt>
      <trkpt lat="43.41739" lon="0.0751">
        <ele>215</ele>
        <time>2020-07-06T09:42:12.000Z</time>
      </trkpt>
      <trkpt lat="43.41751" lon="0.07506">
        <ele>215.60000610352</ele>
        <time>2020-07-06T09:42:14.000Z</time>
      </trkpt>
      <trkpt lat="43.41793" lon="0.07494">
        <ele>214.19999694824</ele>
        <time>2020-07-06T09:42:21.000Z</time>
      </trkpt>
      <trkpt lat="43.41841" lon="0.0748">
        <ele>213.39999389648</ele>
        <time>2020-07-06T09:42:29.000Z</time>
      </trkpt>
      <trkpt lat="43.41846" lon="0.07476">
        <ele>213.60000610352</ele>
        <time>2020-07-06T09:42:30.000Z</time>
      </trkpt>
      <trkpt lat="43.41849" lon="0.07472">
        <ele>213.60000610352</ele>
        <time>2020-07-06T09:42:31.000Z</time>
      </trkpt>
      <trkpt lat="43.41853" lon="0.0746">
        <ele>214.19999694824</ele>
        <time>2020-07-06T09:42:33.000Z</time>
      </trkpt>
      <trkpt lat="43.41851" lon="0.07436">
        <ele>214.80000305176</ele>
        <time>2020-07-06T09:42:37.000Z</time>
      </trkpt>
      <trkpt lat="43.41846" lon="0.07391">
        <ele>214.60000610352</ele>
        <time>2020-07-06T09:42:42.000Z</time>
      </trkpt>
      <trkpt lat="43.41844" lon="0.07363">
        <ele>214</ele>
        <time>2020-07-06T09:42:44.000Z</time>
      </trkpt>
      <trkpt lat="43.41841" lon="0.07336">
        <ele>213.80000305176</ele>
        <time>2020-07-06T09:42:47.000Z</time>
      </trkpt>
      <trkpt lat="43.41839" lon="0.07309">
        <ele>213.80000305176</ele>
        <time>2020-07-06T09:42:50.000Z</time>
      </trkpt>
      <trkpt lat="43.41838" lon="0.07292">
        <ele>213.60000610352</ele>
        <time>2020-07-06T09:42:52.000Z</time>
      </trkpt>
      <trkpt lat="43.41837" lon="0.07283">
        <ele>213.39999389648</ele>
        <time>2020-07-06T09:42:53.000Z</time>
      </trkpt>
      <trkpt lat="43.41835" lon="0.07249">
        <ele>213</ele>
        <time>2020-07-06T09:42:57.000Z</time>
      </trkpt>
      <trkpt lat="43.41837" lon="0.07232">
        <ele>213.19999694824</ele>
        <time>2020-07-06T09:42:59.000Z</time>
      </trkpt>
      <trkpt lat="43.4184" lon="0.07181">
        <ele>213.60000610352</ele>
        <time>2020-07-06T09:43:06.000Z</time>
      </trkpt>
      <trkpt lat="43.41841" lon="0.07165">
        <ele>213.80000305176</ele>
        <time>2020-07-06T09:43:07.000Z</time>
      </trkpt>
      <trkpt lat="43.41841" lon="0.0714">
        <ele>213.80000305176</ele>
        <time>2020-07-06T09:43:10.000Z</time>
      </trkpt>
      <trkpt lat="43.41832" lon="0.07087">
        <ele>213.19999694824</ele>
        <time>2020-07-06T09:43:16.000Z</time>
      </trkpt>
      <trkpt lat="43.41826" lon="0.07027">
        <ele>213.19999694824</ele>
        <time>2020-07-06T09:43:23.000Z</time>
      </trkpt>
      <trkpt lat="43.41821" lon="0.06972">
        <ele>213.80000305176</ele>
        <time>2020-07-06T09:43:29.000Z</time>
      </trkpt>
      <trkpt lat="43.41821" lon="0.06963">
        <ele>213.80000305176</ele>
        <time>2020-07-06T09:43:30.000Z</time>
      </trkpt>
      <trkpt lat="43.41824" lon="0.06946">
        <ele>214</ele>
        <time>2020-07-06T09:43:33.000Z</time>
      </trkpt>
      <trkpt lat="43.41832" lon="0.06898">
        <ele>213.80000305176</ele>
        <time>2020-07-06T09:43:38.000Z</time>
      </trkpt>
      <trkpt lat="43.41837" lon="0.06867">
        <ele>213.80000305176</ele>
        <time>2020-07-06T09:43:42.000Z</time>
      </trkpt>
      <trkpt lat="43.41841" lon="0.06852">
        <ele>213.80000305176</ele>
        <time>2020-07-06T09:43:44.000Z</time>
      </trkpt>
      <trkpt lat="43.41845" lon="0.06827">
        <ele>213.80000305176</ele>
        <time>2020-07-06T09:43:47.000Z</time>
      </trkpt>
      <trkpt lat="43.41846" lon="0.0681">
        <ele>213.80000305176</ele>
        <time>2020-07-06T09:43:49.000Z</time>
      </trkpt>
      <trkpt lat="43.41846" lon="0.06793">
        <ele>214</ele>
        <time>2020-07-06T09:43:51.000Z</time>
      </trkpt>
      <trkpt lat="43.41844" lon="0.06741">
        <ele>213.39999389648</ele>
        <time>2020-07-06T09:43:57.000Z</time>
      </trkpt>
      <trkpt lat="43.41842" lon="0.06706">
        <ele>213.19999694824</ele>
        <time>2020-07-06T09:44:01.000Z</time>
      </trkpt>
      <trkpt lat="43.41839" lon="0.06689">
        <ele>213.19999694824</ele>
        <time>2020-07-06T09:44:03.000Z</time>
      </trkpt>
      <trkpt lat="43.41829" lon="0.06627">
        <ele>213.60000610352</ele>
        <time>2020-07-06T09:44:10.000Z</time>
      </trkpt>
      <trkpt lat="43.41819" lon="0.06561">
        <ele>213.39999389648</ele>
        <time>2020-07-06T09:44:18.000Z</time>
      </trkpt>
      <trkpt lat="43.41822" lon="0.06548">
        <ele>213.39999389648</ele>
        <time>2020-07-06T09:44:20.000Z</time>
      </trkpt>
      <trkpt lat="43.41832" lon="0.06543">
        <ele>213.60000610352</ele>
        <time>2020-07-06T09:44:22.000Z</time>
      </trkpt>
      <trkpt lat="43.41838" lon="0.06542">
        <ele>213.60000610352</ele>
        <time>2020-07-06T09:44:24.000Z</time>
      </trkpt>
      <trkpt lat="43.41871" lon="0.06534">
        <ele>213.39999389648</ele>
        <time>2020-07-06T09:44:29.000Z</time>
      </trkpt>
      <trkpt lat="43.41925" lon="0.0652">
        <ele>213.19999694824</ele>
        <time>2020-07-06T09:44:36.000Z</time>
      </trkpt>
      <trkpt lat="43.41938" lon="0.06517">
        <ele>213</ele>
        <time>2020-07-06T09:44:38.000Z</time>
      </trkpt>
      <trkpt lat="43.41959" lon="0.06513">
        <ele>212.80000305176</ele>
        <time>2020-07-06T09:44:41.000Z</time>
      </trkpt>
      <trkpt lat="43.41987" lon="0.06505">
        <ele>212.60000610352</ele>
        <time>2020-07-06T09:44:45.000Z</time>
      </trkpt>
      <trkpt lat="43.42036" lon="0.0649">
        <ele>212.60000610352</ele>
        <time>2020-07-06T09:44:52.000Z</time>
      </trkpt>
      <trkpt lat="43.42057" lon="0.06485">
        <ele>212.19999694824</ele>
        <time>2020-07-06T09:44:55.000Z</time>
      </trkpt>
      <trkpt lat="43.42079" lon="0.0648">
        <ele>212.19999694824</ele>
        <time>2020-07-06T09:44:58.000Z</time>
      </trkpt>
      <trkpt lat="43.42116" lon="0.06472">
        <ele>211.60000610352</ele>
        <time>2020-07-06T09:45:03.000Z</time>
      </trkpt>
      <trkpt lat="43.42145" lon="0.06465">
        <ele>211.80000305176</ele>
        <time>2020-07-06T09:45:07.000Z</time>
      </trkpt>
      <trkpt lat="43.42203" lon="0.06451">
        <ele>211.60000610352</ele>
        <time>2020-07-06T09:45:15.000Z</time>
      </trkpt>
      <trkpt lat="43.42259" lon="0.06433">
        <ele>212</ele>
        <time>2020-07-06T09:45:23.000Z</time>
      </trkpt>
      <trkpt lat="43.42271" lon="0.06429">
        <ele>212</ele>
        <time>2020-07-06T09:45:25.000Z</time>
      </trkpt>
      <trkpt lat="43.42284" lon="0.06426">
        <ele>212</ele>
        <time>2020-07-06T09:45:27.000Z</time>
      </trkpt>
      <trkpt lat="43.4231" lon="0.06422">
        <ele>211.80000305176</ele>
        <time>2020-07-06T09:45:31.000Z</time>
      </trkpt>
      <trkpt lat="43.42324" lon="0.06417">
        <ele>211.60000610352</ele>
        <time>2020-07-06T09:45:33.000Z</time>
      </trkpt>
      <trkpt lat="43.42337" lon="0.06412">
        <ele>211.60000610352</ele>
        <time>2020-07-06T09:45:35.000Z</time>
      </trkpt>
      <trkpt lat="43.4236" lon="0.06408">
        <ele>211.60000610352</ele>
        <time>2020-07-06T09:45:38.000Z</time>
      </trkpt>
      <trkpt lat="43.42396" lon="0.06399">
        <ele>211</ele>
        <time>2020-07-06T09:45:43.000Z</time>
      </trkpt>
      <trkpt lat="43.4241" lon="0.06394">
        <ele>210.80000305176</ele>
        <time>2020-07-06T09:45:45.000Z</time>
      </trkpt>
      <trkpt lat="43.42418" lon="0.06392">
        <ele>210.39999389648</ele>
        <time>2020-07-06T09:45:46.000Z</time>
      </trkpt>
      <trkpt lat="43.4245" lon="0.06383">
        <ele>210.39999389648</ele>
        <time>2020-07-06T09:45:51.000Z</time>
      </trkpt>
      <trkpt lat="43.42491" lon="0.06375">
        <ele>210.39999389648</ele>
        <time>2020-07-06T09:45:56.000Z</time>
      </trkpt>
      <trkpt lat="43.42543" lon="0.06362">
        <ele>210.60000610352</ele>
        <time>2020-07-06T09:46:02.000Z</time>
      </trkpt>
      <trkpt lat="43.42576" lon="0.06355">
        <ele>210.60000610352</ele>
        <time>2020-07-06T09:46:07.000Z</time>
      </trkpt>
      <trkpt lat="43.42603" lon="0.06345">
        <ele>210.60000610352</ele>
        <time>2020-07-06T09:46:11.000Z</time>
      </trkpt>
      <trkpt lat="43.4261" lon="0.06344">
        <ele>210.60000610352</ele>
        <time>2020-07-06T09:46:12.000Z</time>
      </trkpt>
      <trkpt lat="43.42654" lon="0.06334">
        <ele>209.80000305176</ele>
        <time>2020-07-06T09:46:18.000Z</time>
      </trkpt>
      <trkpt lat="43.42669" lon="0.0633">
        <ele>209.60000610352</ele>
        <time>2020-07-06T09:46:20.000Z</time>
      </trkpt>
      <trkpt lat="43.42683" lon="0.06326">
        <ele>209.39999389648</ele>
        <time>2020-07-06T09:46:22.000Z</time>
      </trkpt>
      <trkpt lat="43.42713" lon="0.06319">
        <ele>209</ele>
        <time>2020-07-06T09:46:26.000Z</time>
      </trkpt>
      <trkpt lat="43.42748" lon="0.06312">
        <ele>208.60000610352</ele>
        <time>2020-07-06T09:46:31.000Z</time>
      </trkpt>
      <trkpt lat="43.42808" lon="0.06295">
        <ele>208.39999389648</ele>
        <time>2020-07-06T09:46:39.000Z</time>
      </trkpt>
      <trkpt lat="43.42815" lon="0.06293">
        <ele>208.80000305176</ele>
        <time>2020-07-06T09:46:40.000Z</time>
      </trkpt>
      <trkpt lat="43.42829" lon="0.06289">
        <ele>209</ele>
        <time>2020-07-06T09:46:42.000Z</time>
      </trkpt>
      <trkpt lat="43.42864" lon="0.06283">
        <ele>209</ele>
        <time>2020-07-06T09:46:47.000Z</time>
      </trkpt>
      <trkpt lat="43.42911" lon="0.06269">
        <ele>209.19999694824</ele>
        <time>2020-07-06T09:46:54.000Z</time>
      </trkpt>
      <trkpt lat="43.42956" lon="0.06259">
        <ele>209</ele>
        <time>2020-07-06T09:47:00.000Z</time>
      </trkpt>
      <trkpt lat="43.4298" lon="0.06254">
        <ele>208.80000305176</ele>
        <time>2020-07-06T09:47:03.000Z</time>
      </trkpt>
      <trkpt lat="43.43001" lon="0.06252">
        <ele>208.80000305176</ele>
        <time>2020-07-06T09:47:06.000Z</time>
      </trkpt>
      <trkpt lat="43.43045" lon="0.06241">
        <ele>209</ele>
        <time>2020-07-06T09:47:12.000Z</time>
      </trkpt>
      <trkpt lat="43.43102" lon="0.06224">
        <ele>208</ele>
        <time>2020-07-06T09:47:20.000Z</time>
      </trkpt>
      <trkpt lat="43.43102" lon="0.06224">
        <ele>208</ele>
        <time>2020-07-06T09:47:21.000Z</time>
      </trkpt>
      <trkpt lat="43.43116" lon="0.0622">
        <ele>207.80000305176</ele>
        <time>2020-07-06T09:47:22.000Z</time>
      </trkpt>
      <trkpt lat="43.43166" lon="0.06207">
        <ele>207.39999389648</ele>
        <time>2020-07-06T09:47:29.000Z</time>
      </trkpt>
      <trkpt lat="43.43215" lon="0.06196">
        <ele>207.19999694824</ele>
        <time>2020-07-06T09:47:36.000Z</time>
      </trkpt>
      <trkpt lat="43.43222" lon="0.06194">
        <ele>207.19999694824</ele>
        <time>2020-07-06T09:47:37.000Z</time>
      </trkpt>
      <trkpt lat="43.43253" lon="0.06182">
        <ele>207.39999389648</ele>
        <time>2020-07-06T09:47:42.000Z</time>
      </trkpt>
      <trkpt lat="43.43288" lon="0.06173">
        <ele>207.39999389648</ele>
        <time>2020-07-06T09:47:47.000Z</time>
      </trkpt>
      <trkpt lat="43.43295" lon="0.06171">
        <ele>207.39999389648</ele>
        <time>2020-07-06T09:47:48.000Z</time>
      </trkpt>
      <trkpt lat="43.43333" lon="0.06164">
        <ele>207.39999389648</ele>
        <time>2020-07-06T09:47:53.000Z</time>
      </trkpt>
      <trkpt lat="43.43387" lon="0.06154">
        <ele>206.80000305176</ele>
        <time>2020-07-06T09:48:00.000Z</time>
      </trkpt>
      <trkpt lat="43.43399" lon="0.0615">
        <ele>206.60000610352</ele>
        <time>2020-07-06T09:48:02.000Z</time>
      </trkpt>
      <trkpt lat="43.43436" lon="0.06141">
        <ele>206.39999389648</ele>
        <time>2020-07-06T09:48:08.000Z</time>
      </trkpt>
      <trkpt lat="43.43454" lon="0.06138">
        <ele>206.39999389648</ele>
        <time>2020-07-06T09:48:11.000Z</time>
      </trkpt>
      <trkpt lat="43.43463" lon="0.06139">
        <ele>206.39999389648</ele>
        <time>2020-07-06T09:48:13.000Z</time>
      </trkpt>
      <trkpt lat="43.43466" lon="0.06142">
        <ele>206.60000610352</ele>
        <time>2020-07-06T09:48:14.000Z</time>
      </trkpt>
      <trkpt lat="43.43472" lon="0.0615">
        <ele>206.60000610352</ele>
        <time>2020-07-06T09:48:16.000Z</time>
      </trkpt>
      <trkpt lat="43.43476" lon="0.0616">
        <ele>206.60000610352</ele>
        <time>2020-07-06T09:48:18.000Z</time>
      </trkpt>
      <trkpt lat="43.43493" lon="0.06188">
        <ele>206.39999389648</ele>
        <time>2020-07-06T09:48:23.000Z</time>
      </trkpt>
      <trkpt lat="43.43511" lon="0.06219">
        <ele>206.19999694824</ele>
        <time>2020-07-06T09:48:28.000Z</time>
      </trkpt>
      <trkpt lat="43.43547" lon="0.06278">
        <ele>206</ele>
        <time>2020-07-06T09:48:35.000Z</time>
      </trkpt>
      <trkpt lat="43.43552" lon="0.06285">
        <ele>206</ele>
        <time>2020-07-06T09:48:36.000Z</time>
      </trkpt>
      <trkpt lat="43.43557" lon="0.06292">
        <ele>206</ele>
        <time>2020-07-06T09:48:37.000Z</time>
      </trkpt>
      <trkpt lat="43.4357" lon="0.0631">
        <ele>206</ele>
        <time>2020-07-06T09:48:40.000Z</time>
      </trkpt>
      <trkpt lat="43.43573" lon="0.06312">
        <ele>206</ele>
        <time>2020-07-06T09:48:41.000Z</time>
      </trkpt>
      <trkpt lat="43.43576" lon="0.06312">
        <ele>205.80000305176</ele>
        <time>2020-07-06T09:48:42.000Z</time>
      </trkpt>
      <trkpt lat="43.43584" lon="0.06307">
        <ele>205.80000305176</ele>
        <time>2020-07-06T09:48:44.000Z</time>
      </trkpt>
      <trkpt lat="43.43606" lon="0.06291">
        <ele>205.80000305176</ele>
        <time>2020-07-06T09:48:48.000Z</time>
      </trkpt>
      <trkpt lat="43.43638" lon="0.06272">
        <ele>205.19999694824</ele>
        <time>2020-07-06T09:48:53.000Z</time>
      </trkpt>
      <trkpt lat="43.43683" lon="0.06246">
        <ele>205</ele>
        <time>2020-07-06T09:49:00.000Z</time>
      </trkpt>
      <trkpt lat="43.43734" lon="0.06215">
        <ele>204.80000305176</ele>
        <time>2020-07-06T09:49:08.000Z</time>
      </trkpt>
      <trkpt lat="43.43767" lon="0.0619">
        <ele>204.39999389648</ele>
        <time>2020-07-06T09:49:13.000Z</time>
      </trkpt>
      <trkpt lat="43.43775" lon="0.06185">
        <ele>204</ele>
        <time>2020-07-06T09:49:14.000Z</time>
      </trkpt>
      <trkpt lat="43.4378" lon="0.06182">
        <ele>204</ele>
        <time>2020-07-06T09:49:15.000Z</time>
      </trkpt>
      <trkpt lat="43.43821" lon="0.06155">
        <ele>203.60000610352</ele>
        <time>2020-07-06T09:49:22.000Z</time>
      </trkpt>
      <trkpt lat="43.43828" lon="0.0615">
        <ele>203.60000610352</ele>
        <time>2020-07-06T09:49:23.000Z</time>
      </trkpt>
      <trkpt lat="43.43881" lon="0.06116">
        <ele>203.60000610352</ele>
        <time>2020-07-06T09:49:31.000Z</time>
      </trkpt>
      <trkpt lat="43.43894" lon="0.06108">
        <ele>203.60000610352</ele>
        <time>2020-07-06T09:49:33.000Z</time>
      </trkpt>
      <trkpt lat="43.43932" lon="0.06085">
        <ele>203.80000305176</ele>
        <time>2020-07-06T09:49:39.000Z</time>
      </trkpt>
      <trkpt lat="43.4397" lon="0.0606">
        <ele>203</ele>
        <time>2020-07-06T09:49:45.000Z</time>
      </trkpt>
      <trkpt lat="43.44004" lon="0.06037">
        <ele>202.19999694824</ele>
        <time>2020-07-06T09:49:50.000Z</time>
      </trkpt>
      <trkpt lat="43.44058" lon="0.06004">
        <ele>202.19999694824</ele>
        <time>2020-07-06T09:49:58.000Z</time>
      </trkpt>
      <trkpt lat="43.44071" lon="0.05995">
        <ele>202.19999694824</ele>
        <time>2020-07-06T09:50:00.000Z</time>
      </trkpt>
      <trkpt lat="43.44122" lon="0.05963">
        <ele>202.39999389648</ele>
        <time>2020-07-06T09:50:08.000Z</time>
      </trkpt>
      <trkpt lat="43.44133" lon="0.05955">
        <ele>202.19999694824</ele>
        <time>2020-07-06T09:50:10.000Z</time>
      </trkpt>
      <trkpt lat="43.4415" lon="0.05943">
        <ele>201.80000305176</ele>
        <time>2020-07-06T09:50:13.000Z</time>
      </trkpt>
      <trkpt lat="43.44167" lon="0.05931">
        <ele>202</ele>
        <time>2020-07-06T09:50:16.000Z</time>
      </trkpt>
      <trkpt lat="43.4421" lon="0.05907">
        <ele>201.39999389648</ele>
        <time>2020-07-06T09:50:23.000Z</time>
      </trkpt>
      <trkpt lat="43.4423" lon="0.05894">
        <ele>201.60000610352</ele>
        <time>2020-07-06T09:50:26.000Z</time>
      </trkpt>
      <trkpt lat="43.44245" lon="0.05885">
        <ele>201.39999389648</ele>
        <time>2020-07-06T09:50:28.000Z</time>
      </trkpt>
      <trkpt lat="43.44252" lon="0.05881">
        <ele>201.60000610352</ele>
        <time>2020-07-06T09:50:29.000Z</time>
      </trkpt>
      <trkpt lat="43.44279" lon="0.05858">
        <ele>201.60000610352</ele>
        <time>2020-07-06T09:50:33.000Z</time>
      </trkpt>
      <trkpt lat="43.44291" lon="0.05851">
        <ele>201.39999389648</ele>
        <time>2020-07-06T09:50:35.000Z</time>
      </trkpt>
      <trkpt lat="43.44342" lon="0.05817">
        <ele>201.39999389648</ele>
        <time>2020-07-06T09:50:42.000Z</time>
      </trkpt>
      <trkpt lat="43.44382" lon="0.05803">
        <ele>201.39999389648</ele>
        <time>2020-07-06T09:50:48.000Z</time>
      </trkpt>
      <trkpt lat="43.44392" lon="0.05797">
        <ele>201.39999389648</ele>
        <time>2020-07-06T09:50:50.000Z</time>
      </trkpt>
      <trkpt lat="43.44403" lon="0.05788">
        <ele>201.60000610352</ele>
        <time>2020-07-06T09:50:52.000Z</time>
      </trkpt>
      <trkpt lat="43.44408" lon="0.05776">
        <ele>201.60000610352</ele>
        <time>2020-07-06T09:50:54.000Z</time>
      </trkpt>
      <trkpt lat="43.44409" lon="0.05769">
        <ele>201.39999389648</ele>
        <time>2020-07-06T09:50:55.000Z</time>
      </trkpt>
      <trkpt lat="43.4441" lon="0.05743">
        <ele>201.39999389648</ele>
        <time>2020-07-06T09:50:58.000Z</time>
      </trkpt>
      <trkpt lat="43.44413" lon="0.05717">
        <ele>201</ele>
        <time>2020-07-06T09:51:01.000Z</time>
      </trkpt>
      <trkpt lat="43.44414" lon="0.05706">
        <ele>200.60000610352</ele>
        <time>2020-07-06T09:51:02.000Z</time>
      </trkpt>
      <trkpt lat="43.44415" lon="0.05697">
        <ele>200.60000610352</ele>
        <time>2020-07-06T09:51:03.000Z</time>
      </trkpt>
      <trkpt lat="43.44417" lon="0.05669">
        <ele>200.60000610352</ele>
        <time>2020-07-06T09:51:06.000Z</time>
      </trkpt>
      <trkpt lat="43.44426" lon="0.05593">
        <ele>200.19999694824</ele>
        <time>2020-07-06T09:51:13.000Z</time>
      </trkpt>
      <trkpt lat="43.44432" lon="0.05544">
        <ele>200.39999389648</ele>
        <time>2020-07-06T09:51:18.000Z</time>
      </trkpt>
      <trkpt lat="43.44431" lon="0.05486">
        <ele>200.39999389648</ele>
        <time>2020-07-06T09:51:24.000Z</time>
      </trkpt>
      <trkpt lat="43.44421" lon="0.05436">
        <ele>200.19999694824</ele>
        <time>2020-07-06T09:51:30.000Z</time>
      </trkpt>
      <trkpt lat="43.44413" lon="0.05393">
        <ele>200.60000610352</ele>
        <time>2020-07-06T09:51:35.000Z</time>
      </trkpt>
      <trkpt lat="43.44414" lon="0.05384">
        <ele>201</ele>
        <time>2020-07-06T09:51:36.000Z</time>
      </trkpt>
      <trkpt lat="43.44416" lon="0.05375">
        <ele>201.19999694824</ele>
        <time>2020-07-06T09:51:37.000Z</time>
      </trkpt>
      <trkpt lat="43.44425" lon="0.0536">
        <ele>201.19999694824</ele>
        <time>2020-07-06T09:51:39.000Z</time>
      </trkpt>
      <trkpt lat="43.44455" lon="0.05334">
        <ele>201</ele>
        <time>2020-07-06T09:51:44.000Z</time>
      </trkpt>
      <trkpt lat="43.44492" lon="0.05308">
        <ele>200.80000305176</ele>
        <time>2020-07-06T09:51:50.000Z</time>
      </trkpt>
      <trkpt lat="43.44502" lon="0.05295">
        <ele>200.80000305176</ele>
        <time>2020-07-06T09:51:52.000Z</time>
      </trkpt>
      <trkpt lat="43.4451" lon="0.05281">
        <ele>200.60000610352</ele>
        <time>2020-07-06T09:51:54.000Z</time>
      </trkpt>
      <trkpt lat="43.44527" lon="0.05243">
        <ele>200.60000610352</ele>
        <time>2020-07-06T09:51:59.000Z</time>
      </trkpt>
      <trkpt lat="43.44527" lon="0.05235">
        <ele>200.60000610352</ele>
        <time>2020-07-06T09:52:00.000Z</time>
      </trkpt>
      <trkpt lat="43.44523" lon="0.05217">
        <ele>201</ele>
        <time>2020-07-06T09:52:02.000Z</time>
      </trkpt>
      <trkpt lat="43.44514" lon="0.0519">
        <ele>201</ele>
        <time>2020-07-06T09:52:05.000Z</time>
      </trkpt>
      <trkpt lat="43.44493" lon="0.05118">
        <ele>200.39999389648</ele>
        <time>2020-07-06T09:52:13.000Z</time>
      </trkpt>
      <trkpt lat="43.44474" lon="0.05044">
        <ele>200.60000610352</ele>
        <time>2020-07-06T09:52:21.000Z</time>
      </trkpt>
      <trkpt lat="43.44464" lon="0.05007">
        <ele>200.80000305176</ele>
        <time>2020-07-06T09:52:25.000Z</time>
      </trkpt>
      <trkpt lat="43.44465" lon="0.04989">
        <ele>201.19999694824</ele>
        <time>2020-07-06T09:52:27.000Z</time>
      </trkpt>
      <trkpt lat="43.44474" lon="0.04976">
        <ele>201.19999694824</ele>
        <time>2020-07-06T09:52:29.000Z</time>
      </trkpt>
      <trkpt lat="43.44488" lon="0.04973">
        <ele>200.80000305176</ele>
        <time>2020-07-06T09:52:31.000Z</time>
      </trkpt>
      <trkpt lat="43.44495" lon="0.04973">
        <ele>200.60000610352</ele>
        <time>2020-07-06T09:52:32.000Z</time>
      </trkpt>
      <trkpt lat="43.44516" lon="0.0497">
        <ele>200.60000610352</ele>
        <time>2020-07-06T09:52:35.000Z</time>
      </trkpt>
      <trkpt lat="43.44527" lon="0.04961">
        <ele>200.60000610352</ele>
        <time>2020-07-06T09:52:37.000Z</time>
      </trkpt>
      <trkpt lat="43.4453" lon="0.04945">
        <ele>200.39999389648</ele>
        <time>2020-07-06T09:52:39.000Z</time>
      </trkpt>
      <trkpt lat="43.44525" lon="0.04906">
        <ele>200</ele>
        <time>2020-07-06T09:52:43.000Z</time>
      </trkpt>
      <trkpt lat="43.44512" lon="0.04829">
        <ele>200.19999694824</ele>
        <time>2020-07-06T09:52:51.000Z</time>
      </trkpt>
      <trkpt lat="43.4451" lon="0.04809">
        <ele>200.19999694824</ele>
        <time>2020-07-06T09:52:53.000Z</time>
      </trkpt>
      <trkpt lat="43.44498" lon="0.0473">
        <ele>200</ele>
        <time>2020-07-06T09:53:01.000Z</time>
      </trkpt>
      <trkpt lat="43.44495" lon="0.04712">
        <ele>200.19999694824</ele>
        <time>2020-07-06T09:53:03.000Z</time>
      </trkpt>
      <trkpt lat="43.44493" lon="0.04695">
        <ele>200.19999694824</ele>
        <time>2020-07-06T09:53:05.000Z</time>
      </trkpt>
      <trkpt lat="43.44497" lon="0.04681">
        <ele>200.19999694824</ele>
        <time>2020-07-06T09:53:07.000Z</time>
      </trkpt>
      <trkpt lat="43.44508" lon="0.04674">
        <ele>200.19999694824</ele>
        <time>2020-07-06T09:53:09.000Z</time>
      </trkpt>
      <trkpt lat="43.44513" lon="0.04673">
        <ele>200.19999694824</ele>
        <time>2020-07-06T09:53:10.000Z</time>
      </trkpt>
      <trkpt lat="43.4455" lon="0.04666">
        <ele>200.19999694824</ele>
        <time>2020-07-06T09:53:15.000Z</time>
      </trkpt>
      <trkpt lat="43.44565" lon="0.04662">
        <ele>199.60000610352</ele>
        <time>2020-07-06T09:53:17.000Z</time>
      </trkpt>
      <trkpt lat="43.44593" lon="0.04654">
        <ele>199.39999389648</ele>
        <time>2020-07-06T09:53:21.000Z</time>
      </trkpt>
      <trkpt lat="43.44601" lon="0.04651">
        <ele>199.39999389648</ele>
        <time>2020-07-06T09:53:22.000Z</time>
      </trkpt>
      <trkpt lat="43.44651" lon="0.04637">
        <ele>199.60000610352</ele>
        <time>2020-07-06T09:53:29.000Z</time>
      </trkpt>
      <trkpt lat="43.4471" lon="0.04625">
        <ele>199</ele>
        <time>2020-07-06T09:53:37.000Z</time>
      </trkpt>
      <trkpt lat="43.44718" lon="0.04623">
        <ele>199</ele>
        <time>2020-07-06T09:53:38.000Z</time>
      </trkpt>
      <trkpt lat="43.44772" lon="0.04603">
        <ele>198.60000610352</ele>
        <time>2020-07-06T09:53:45.000Z</time>
      </trkpt>
      <trkpt lat="43.44811" lon="0.0457">
        <ele>198.80000305176</ele>
        <time>2020-07-06T09:53:51.000Z</time>
      </trkpt>
      <trkpt lat="43.44843" lon="0.04539">
        <ele>198.80000305176</ele>
        <time>2020-07-06T09:53:56.000Z</time>
      </trkpt>
      <trkpt lat="43.44863" lon="0.04521">
        <ele>198.80000305176</ele>
        <time>2020-07-06T09:53:59.000Z</time>
      </trkpt>
      <trkpt lat="43.44908" lon="0.04476">
        <ele>198.60000610352</ele>
        <time>2020-07-06T09:54:06.000Z</time>
      </trkpt>
      <trkpt lat="43.44915" lon="0.04469">
        <ele>198.39999389648</ele>
        <time>2020-07-06T09:54:07.000Z</time>
      </trkpt>
      <trkpt lat="43.44962" lon="0.04425">
        <ele>198.60000610352</ele>
        <time>2020-07-06T09:54:14.000Z</time>
      </trkpt>
      <trkpt lat="43.44969" lon="0.04419">
        <ele>198.60000610352</ele>
        <time>2020-07-06T09:54:15.000Z</time>
      </trkpt>
      <trkpt lat="43.45021" lon="0.04387">
        <ele>198.60000610352</ele>
        <time>2020-07-06T09:54:22.000Z</time>
      </trkpt>
      <trkpt lat="43.45029" lon="0.04384">
        <ele>198.60000610352</ele>
        <time>2020-07-06T09:54:23.000Z</time>
      </trkpt>
      <trkpt lat="43.45081" lon="0.04361">
        <ele>198</ele>
        <time>2020-07-06T09:54:30.000Z</time>
      </trkpt>
      <trkpt lat="43.45088" lon="0.04358">
        <ele>197.80000305176</ele>
        <time>2020-07-06T09:54:31.000Z</time>
      </trkpt>
      <trkpt lat="43.45095" lon="0.04355">
        <ele>197.80000305176</ele>
        <time>2020-07-06T09:54:32.000Z</time>
      </trkpt>
      <trkpt lat="43.4514" lon="0.04336">
        <ele>197</ele>
        <time>2020-07-06T09:54:38.000Z</time>
      </trkpt>
      <trkpt lat="43.45156" lon="0.04331">
        <ele>196.80000305176</ele>
        <time>2020-07-06T09:54:40.000Z</time>
      </trkpt>
      <trkpt lat="43.45194" lon="0.04321">
        <ele>196.39999389648</ele>
        <time>2020-07-06T09:54:45.000Z</time>
      </trkpt>
      <trkpt lat="43.45248" lon="0.04311">
        <ele>196.19999694824</ele>
        <time>2020-07-06T09:54:52.000Z</time>
      </trkpt>
      <trkpt lat="43.45279" lon="0.04306">
        <ele>196.19999694824</ele>
        <time>2020-07-06T09:54:56.000Z</time>
      </trkpt>
      <trkpt lat="43.4531" lon="0.04299">
        <ele>195.80000305176</ele>
        <time>2020-07-06T09:55:00.000Z</time>
      </trkpt>
      <trkpt lat="43.45355" lon="0.04289">
        <ele>195.39999389648</ele>
        <time>2020-07-06T09:55:06.000Z</time>
      </trkpt>
      <trkpt lat="43.45413" lon="0.04274">
        <ele>195.60000610352</ele>
        <time>2020-07-06T09:55:14.000Z</time>
      </trkpt>
      <trkpt lat="43.45417" lon="0.04273">
        <ele>195.60000610352</ele>
        <time>2020-07-06T09:55:15.000Z</time>
      </trkpt>
      <trkpt lat="43.45425" lon="0.0427">
        <ele>196</ele>
        <time>2020-07-06T09:55:18.000Z</time>
      </trkpt>
      <trkpt lat="43.4544" lon="0.04263">
        <ele>195.80000305176</ele>
        <time>2020-07-06T09:55:22.000Z</time>
      </trkpt>
      <trkpt lat="43.45468" lon="0.04249">
        <ele>196.19999694824</ele>
        <time>2020-07-06T09:55:27.000Z</time>
      </trkpt>
      <trkpt lat="43.45496" lon="0.04225">
        <ele>195.39999389648</ele>
        <time>2020-07-06T09:55:32.000Z</time>
      </trkpt>
      <trkpt lat="43.4554" lon="0.04184">
        <ele>195.19999694824</ele>
        <time>2020-07-06T09:55:39.000Z</time>
      </trkpt>
      <trkpt lat="43.45591" lon="0.04135">
        <ele>195</ele>
        <time>2020-07-06T09:55:47.000Z</time>
      </trkpt>
      <trkpt lat="43.45641" lon="0.04088">
        <ele>194.39999389648</ele>
        <time>2020-07-06T09:55:55.000Z</time>
      </trkpt>
      <trkpt lat="43.45654" lon="0.04076">
        <ele>194.39999389648</ele>
        <time>2020-07-06T09:55:57.000Z</time>
      </trkpt>
      <trkpt lat="43.45704" lon="0.04029">
        <ele>194.19999694824</ele>
        <time>2020-07-06T09:56:05.000Z</time>
      </trkpt>
      <trkpt lat="43.45728" lon="0.04006">
        <ele>194</ele>
        <time>2020-07-06T09:56:09.000Z</time>
      </trkpt>
      <trkpt lat="43.4574" lon="0.03995">
        <ele>193.80000305176</ele>
        <time>2020-07-06T09:56:11.000Z</time>
      </trkpt>
      <trkpt lat="43.45775" lon="0.03963">
        <ele>193.80000305176</ele>
        <time>2020-07-06T09:56:17.000Z</time>
      </trkpt>
      <trkpt lat="43.4581" lon="0.03927">
        <ele>194</ele>
        <time>2020-07-06T09:56:24.000Z</time>
      </trkpt>
      <trkpt lat="43.45819" lon="0.03919">
        <ele>194</ele>
        <time>2020-07-06T09:56:26.000Z</time>
      </trkpt>
      <trkpt lat="43.45823" lon="0.03919">
        <ele>194</ele>
        <time>2020-07-06T09:56:27.000Z</time>
      </trkpt>
      <trkpt lat="43.45825" lon="0.03921">
        <ele>194</ele>
        <time>2020-07-06T09:56:28.000Z</time>
      </trkpt>
      <trkpt lat="43.45827" lon="0.03925">
        <ele>194</ele>
        <time>2020-07-06T09:56:29.000Z</time>
      </trkpt>
      <trkpt lat="43.45832" lon="0.03941">
        <ele>194.19999694824</ele>
        <time>2020-07-06T09:56:32.000Z</time>
      </trkpt>
      <trkpt lat="43.45836" lon="0.03952">
        <ele>194.19999694824</ele>
        <time>2020-07-06T09:56:34.000Z</time>
      </trkpt>
      <trkpt lat="43.45841" lon="0.03978">
        <ele>194.60000610352</ele>
        <time>2020-07-06T09:56:39.000Z</time>
      </trkpt>
      <trkpt lat="43.45844" lon="0.03996">
        <ele>194.60000610352</ele>
        <time>2020-07-06T09:56:43.000Z</time>
      </trkpt>
      <trkpt lat="43.45845" lon="0.03999">
        <ele>194.60000610352</ele>
        <time>2020-07-06T09:56:44.000Z</time>
      </trkpt>
      <trkpt lat="43.45849" lon="0.04015">
        <ele>194.19999694824</ele>
        <time>2020-07-06T09:56:49.000Z</time>
      </trkpt>
      <trkpt lat="43.45854" lon="0.04038">
        <ele>194.19999694824</ele>
        <time>2020-07-06T09:56:56.000Z</time>
      </trkpt>
      <trkpt lat="43.45857" lon="0.04052">
        <ele>194.39999389648</ele>
        <time>2020-07-06T09:57:00.000Z</time>
      </trkpt>
      <trkpt lat="43.45861" lon="0.04068">
        <ele>194.60000610352</ele>
        <time>2020-07-06T09:57:04.000Z</time>
      </trkpt>
      <trkpt lat="43.45864" lon="0.04078">
        <ele>194.80000305176</ele>
        <time>2020-07-06T09:57:07.000Z</time>
      </trkpt>
      <trkpt lat="43.45865" lon="0.04086">
        <ele>194.60000610352</ele>
        <time>2020-07-06T09:57:09.000Z</time>
      </trkpt>
      <trkpt lat="43.45866" lon="0.04089">
        <ele>194.60000610352</ele>
        <time>2020-07-06T09:57:10.000Z</time>
      </trkpt>
      <trkpt lat="43.45867" lon="0.04094">
        <ele>194.60000610352</ele>
        <time>2020-07-06T09:57:12.000Z</time>
      </trkpt>
      <trkpt lat="43.45868" lon="0.04096">
        <ele>194.60000610352</ele>
        <time>2020-07-06T09:57:13.000Z</time>
      </trkpt>
      <trkpt lat="43.45871" lon="0.04106">
        <ele>194.60000610352</ele>
        <time>2020-07-06T09:57:18.000Z</time>
      </trkpt>
      <trkpt lat="43.45875" lon="0.04109">
        <ele>194.60000610352</ele>
        <time>2020-07-06T09:57:20.000Z</time>
      </trkpt>
      <trkpt lat="43.45881" lon="0.04108">
        <ele>194.80000305176</ele>
        <time>2020-07-06T09:57:23.000Z</time>
      </trkpt>
      <trkpt lat="43.45883" lon="0.04109">
        <ele>195</ele>
        <time>2020-07-06T09:57:24.000Z</time>
      </trkpt>
      <trkpt lat="43.45885" lon="0.0411">
        <ele>195.39999389648</ele>
        <time>2020-07-06T09:57:26.000Z</time>
      </trkpt>
      <trkpt lat="43.45889" lon="0.04105">
        <ele>195.80000305176</ele>
        <time>2020-07-06T09:57:30.000Z</time>
      </trkpt>
      <trkpt lat="43.45891" lon="0.04104">
        <ele>196</ele>
        <time>2020-07-06T09:57:31.000Z</time>
      </trkpt>
      <trkpt lat="43.45907" lon="0.04099">
        <ele>196</ele>
        <time>2020-07-06T09:57:37.000Z</time>
      </trkpt>
      <trkpt lat="43.45916" lon="0.04097">
        <ele>196</ele>
        <time>2020-07-06T09:57:42.000Z</time>
      </trkpt>
      <trkpt lat="43.45927" lon="0.04094">
        <ele>195.80000305176</ele>
        <time>2020-07-06T09:57:45.000Z</time>
      </trkpt>
      <trkpt lat="43.45932" lon="0.04093">
        <ele>196</ele>
        <time>2020-07-06T09:57:46.000Z</time>
      </trkpt>
      <trkpt lat="43.45937" lon="0.04091">
        <ele>196</ele>
        <time>2020-07-06T09:57:47.000Z</time>
      </trkpt>
      <trkpt lat="43.45966" lon="0.04081">
        <ele>196.39999389648</ele>
        <time>2020-07-06T09:57:53.000Z</time>
      </trkpt>
      <trkpt lat="43.45976" lon="0.04078">
        <ele>196.19999694824</ele>
        <time>2020-07-06T09:57:55.000Z</time>
      </trkpt>
      <trkpt lat="43.45984" lon="0.04081">
        <ele>196.19999694824</ele>
        <time>2020-07-06T09:57:57.000Z</time>
      </trkpt>
      <trkpt lat="43.4599" lon="0.04089">
        <ele>196</ele>
        <time>2020-07-06T09:57:59.000Z</time>
      </trkpt>
      <trkpt lat="43.45999" lon="0.04096">
        <ele>195.60000610352</ele>
        <time>2020-07-06T09:58:01.000Z</time>
      </trkpt>
      <trkpt lat="43.46004" lon="0.04099">
        <ele>195.39999389648</ele>
        <time>2020-07-06T09:58:02.000Z</time>
      </trkpt>
      <trkpt lat="43.46039" lon="0.04115">
        <ele>195.39999389648</ele>
        <time>2020-07-06T09:58:09.000Z</time>
      </trkpt>
      <trkpt lat="43.46087" lon="0.04139">
        <ele>195.39999389648</ele>
        <time>2020-07-06T09:58:19.000Z</time>
      </trkpt>
      <trkpt lat="43.46093" lon="0.04149">
        <ele>195.19999694824</ele>
        <time>2020-07-06T09:58:21.000Z</time>
      </trkpt>
      <trkpt lat="43.46093" lon="0.04155">
        <ele>195.19999694824</ele>
        <time>2020-07-06T09:58:22.000Z</time>
      </trkpt>
      <trkpt lat="43.46093" lon="0.04162">
        <ele>195.19999694824</ele>
        <time>2020-07-06T09:58:23.000Z</time>
      </trkpt>
      <trkpt lat="43.46087" lon="0.04189">
        <ele>195</ele>
        <time>2020-07-06T09:58:27.000Z</time>
      </trkpt>
      <trkpt lat="43.4608" lon="0.04245">
        <ele>195.19999694824</ele>
        <time>2020-07-06T09:58:35.000Z</time>
      </trkpt>
      <trkpt lat="43.46075" lon="0.04263">
        <ele>195.60000610352</ele>
        <time>2020-07-06T09:58:38.000Z</time>
      </trkpt>
      <trkpt lat="43.46071" lon="0.04278">
        <ele>195.60000610352</ele>
        <time>2020-07-06T09:58:40.000Z</time>
      </trkpt>
      <trkpt lat="43.46069" lon="0.043">
        <ele>195.60000610352</ele>
        <time>2020-07-06T09:58:43.000Z</time>
      </trkpt>
      <trkpt lat="43.4607" lon="0.04316">
        <ele>195.60000610352</ele>
        <time>2020-07-06T09:58:45.000Z</time>
      </trkpt>
      <trkpt lat="43.46075" lon="0.04331">
        <ele>195.60000610352</ele>
        <time>2020-07-06T09:58:47.000Z</time>
      </trkpt>
      <trkpt lat="43.46084" lon="0.04351">
        <ele>195.39999389648</ele>
        <time>2020-07-06T09:58:50.000Z</time>
      </trkpt>
      <trkpt lat="43.46095" lon="0.04367">
        <ele>195</ele>
        <time>2020-07-06T09:58:53.000Z</time>
      </trkpt>
      <trkpt lat="43.46114" lon="0.04384">
        <ele>194.39999389648</ele>
        <time>2020-07-06T09:58:57.000Z</time>
      </trkpt>
      <trkpt lat="43.46125" lon="0.04388">
        <ele>194.39999389648</ele>
        <time>2020-07-06T09:58:59.000Z</time>
      </trkpt>
      <trkpt lat="43.46135" lon="0.04391">
        <ele>194.39999389648</ele>
        <time>2020-07-06T09:59:01.000Z</time>
      </trkpt>
      <trkpt lat="43.46157" lon="0.04396">
        <ele>194.80000305176</ele>
        <time>2020-07-06T09:59:05.000Z</time>
      </trkpt>
      <trkpt lat="43.46204" lon="0.04405">
        <ele>194.80000305176</ele>
        <time>2020-07-06T09:59:14.000Z</time>
      </trkpt>
      <trkpt lat="43.46221" lon="0.04412">
        <ele>195</ele>
        <time>2020-07-06T09:59:18.000Z</time>
      </trkpt>
      <trkpt lat="43.46225" lon="0.04415">
        <ele>195</ele>
        <time>2020-07-06T09:59:19.000Z</time>
      </trkpt>
      <trkpt lat="43.4623" lon="0.04418">
        <ele>195</ele>
        <time>2020-07-06T09:59:20.000Z</time>
      </trkpt>
      <trkpt lat="43.46248" lon="0.04429">
        <ele>195.19999694824</ele>
        <time>2020-07-06T09:59:24.000Z</time>
      </trkpt>
      <trkpt lat="43.46258" lon="0.04432">
        <ele>195.39999389648</ele>
        <time>2020-07-06T09:59:26.000Z</time>
      </trkpt>
      <trkpt lat="43.46266" lon="0.04433">
        <ele>195.39999389648</ele>
        <time>2020-07-06T09:59:28.000Z</time>
      </trkpt>
      <trkpt lat="43.46269" lon="0.04433">
        <ele>195.19999694824</ele>
        <time>2020-07-06T09:59:29.000Z</time>
      </trkpt>
      <trkpt lat="43.46276" lon="0.04433">
        <ele>195.39999389648</ele>
        <time>2020-07-06T09:59:33.000Z</time>
      </trkpt>
      <trkpt lat="43.46276" lon="0.04433">
        <ele>195.19999694824</ele>
        <time>2020-07-06T09:59:43.000Z</time>
      </trkpt>
      <trkpt lat="43.46283" lon="0.04428">
        <ele>194.80000305176</ele>
        <time>2020-07-06T10:00:04.000Z</time>
      </trkpt>
      <trkpt lat="43.46295" lon="0.04416">
        <ele>195</ele>
        <time>2020-07-06T10:00:08.000Z</time>
      </trkpt>
      <trkpt lat="43.46306" lon="0.04399">
        <ele>195.80000305176</ele>
        <time>2020-07-06T10:00:13.000Z</time>
      </trkpt>
      <trkpt lat="43.46313" lon="0.04388">
        <ele>196.60000610352</ele>
        <time>2020-07-06T10:00:16.000Z</time>
      </trkpt>
      <trkpt lat="43.4632" lon="0.04375">
        <ele>196.39999389648</ele>
        <time>2020-07-06T10:00:19.000Z</time>
      </trkpt>
      <trkpt lat="43.46331" lon="0.04347">
        <ele>196.39999389648</ele>
        <time>2020-07-06T10:00:24.000Z</time>
      </trkpt>
      <trkpt lat="43.46342" lon="0.04309">
        <ele>196</ele>
        <time>2020-07-06T10:00:30.000Z</time>
      </trkpt>
      <trkpt lat="43.46343" lon="0.04296">
        <ele>195.80000305176</ele>
        <time>2020-07-06T10:00:32.000Z</time>
      </trkpt>
      <trkpt lat="43.46343" lon="0.04287">
        <ele>195.39999389648</ele>
        <time>2020-07-06T10:00:33.000Z</time>
      </trkpt>
      <trkpt lat="43.46344" lon="0.04279">
        <ele>195.39999389648</ele>
        <time>2020-07-06T10:00:34.000Z</time>
      </trkpt>
      <trkpt lat="43.46359" lon="0.04255">
        <ele>194.80000305176</ele>
        <time>2020-07-06T10:00:38.000Z</time>
      </trkpt>
      <trkpt lat="43.46369" lon="0.04236">
        <ele>194.39999389648</ele>
        <time>2020-07-06T10:00:41.000Z</time>
      </trkpt>
      <trkpt lat="43.46381" lon="0.0421">
        <ele>193.39999389648</ele>
        <time>2020-07-06T10:00:45.000Z</time>
      </trkpt>
      <trkpt lat="43.46394" lon="0.04187">
        <ele>193.19999694824</ele>
        <time>2020-07-06T10:00:49.000Z</time>
      </trkpt>
      <trkpt lat="43.46402" lon="0.04179">
        <ele>193</ele>
        <time>2020-07-06T10:00:51.000Z</time>
      </trkpt>
      <trkpt lat="43.46411" lon="0.0417">
        <ele>193</ele>
        <time>2020-07-06T10:00:53.000Z</time>
      </trkpt>
      <trkpt lat="43.46418" lon="0.04159">
        <ele>193</ele>
        <time>2020-07-06T10:00:55.000Z</time>
      </trkpt>
      <trkpt lat="43.46424" lon="0.04149">
        <ele>193</ele>
        <time>2020-07-06T10:00:57.000Z</time>
      </trkpt>
      <trkpt lat="43.46428" lon="0.04141">
        <ele>193.19999694824</ele>
        <time>2020-07-06T10:01:01.000Z</time>
      </trkpt>
      <trkpt lat="43.4643" lon="0.04138">
        <ele>193.19999694824</ele>
        <time>2020-07-06T10:01:12.000Z</time>
      </trkpt>
      <trkpt lat="43.46431" lon="0.04135">
        <ele>193.19999694824</ele>
        <time>2020-07-06T10:01:13.000Z</time>
      </trkpt>
      <trkpt lat="43.46441" lon="0.04117">
        <ele>193</ele>
        <time>2020-07-06T10:01:18.000Z</time>
      </trkpt>
      <trkpt lat="43.46459" lon="0.04081">
        <ele>193</ele>
        <time>2020-07-06T10:01:25.000Z</time>
      </trkpt>
      <trkpt lat="43.46466" lon="0.04065">
        <ele>192.80000305176</ele>
        <time>2020-07-06T10:01:28.000Z</time>
      </trkpt>
      <trkpt lat="43.46481" lon="0.04037">
        <ele>192.80000305176</ele>
        <time>2020-07-06T10:01:33.000Z</time>
      </trkpt>
      <trkpt lat="43.46484" lon="0.04032">
        <ele>192.39999389648</ele>
        <time>2020-07-06T10:01:34.000Z</time>
      </trkpt>
      <trkpt lat="43.46507" lon="0.03996">
        <ele>192.39999389648</ele>
        <time>2020-07-06T10:01:41.000Z</time>
      </trkpt>
      <trkpt lat="43.46533" lon="0.03968">
        <ele>193</ele>
        <time>2020-07-06T10:01:48.000Z</time>
      </trkpt>
      <trkpt lat="43.46554" lon="0.03955">
        <ele>192.60000610352</ele>
        <time>2020-07-06T10:01:52.000Z</time>
      </trkpt>
      <trkpt lat="43.46563" lon="0.03953">
        <ele>192.60000610352</ele>
        <time>2020-07-06T10:01:54.000Z</time>
      </trkpt>
      <trkpt lat="43.46573" lon="0.03952">
        <ele>192.19999694824</ele>
        <time>2020-07-06T10:01:56.000Z</time>
      </trkpt>
      <trkpt lat="43.46583" lon="0.03954">
        <ele>191.80000305176</ele>
        <time>2020-07-06T10:01:58.000Z</time>
      </trkpt>
      <trkpt lat="43.46588" lon="0.03956">
        <ele>192</ele>
        <time>2020-07-06T10:01:59.000Z</time>
      </trkpt>
      <trkpt lat="43.46603" lon="0.03962">
        <ele>192</ele>
        <time>2020-07-06T10:02:02.000Z</time>
      </trkpt>
      <trkpt lat="43.46612" lon="0.03967">
        <ele>192</ele>
        <time>2020-07-06T10:02:04.000Z</time>
      </trkpt>
      <trkpt lat="43.46616" lon="0.03971">
        <ele>191.80000305176</ele>
        <time>2020-07-06T10:02:05.000Z</time>
      </trkpt>
      <trkpt lat="43.4662" lon="0.03975">
        <ele>192</ele>
        <time>2020-07-06T10:02:06.000Z</time>
      </trkpt>
      <trkpt lat="43.46631" lon="0.03989">
        <ele>192</ele>
        <time>2020-07-06T10:02:09.000Z</time>
      </trkpt>
      <trkpt lat="43.46633" lon="0.03993">
        <ele>192</ele>
        <time>2020-07-06T10:02:10.000Z</time>
      </trkpt>
      <trkpt lat="43.46642" lon="0.04012">
        <ele>192</ele>
        <time>2020-07-06T10:02:15.000Z</time>
      </trkpt>
      <trkpt lat="43.46645" lon="0.04019">
        <ele>191.80000305176</ele>
        <time>2020-07-06T10:02:17.000Z</time>
      </trkpt>
      <trkpt lat="43.46646" lon="0.04025">
        <ele>191.60000610352</ele>
        <time>2020-07-06T10:02:19.000Z</time>
      </trkpt>
      <trkpt lat="43.4665" lon="0.04046">
        <ele>192</ele>
        <time>2020-07-06T10:02:25.000Z</time>
      </trkpt>
      <trkpt lat="43.46654" lon="0.04069">
        <ele>191.80000305176</ele>
        <time>2020-07-06T10:02:30.000Z</time>
      </trkpt>
      <trkpt lat="43.46658" lon="0.04094">
        <ele>191.80000305176</ele>
        <time>2020-07-06T10:02:34.000Z</time>
      </trkpt>
      <trkpt lat="43.46659" lon="0.04099">
        <ele>191.80000305176</ele>
        <time>2020-07-06T10:02:35.000Z</time>
      </trkpt>
      <trkpt lat="43.4666" lon="0.04104">
        <ele>191.60000610352</ele>
        <time>2020-07-06T10:02:36.000Z</time>
      </trkpt>
      <trkpt lat="43.4666" lon="0.04112">
        <ele>191.60000610352</ele>
        <time>2020-07-06T10:02:38.000Z</time>
      </trkpt>
      <trkpt lat="43.46665" lon="0.04134">
        <ele>191.60000610352</ele>
        <time>2020-07-06T10:02:43.000Z</time>
      </trkpt>
      <trkpt lat="43.46672" lon="0.04144">
        <ele>192</ele>
        <time>2020-07-06T10:02:46.000Z</time>
      </trkpt>
      <trkpt lat="43.46676" lon="0.04148">
        <ele>192.19999694824</ele>
        <time>2020-07-06T10:02:49.000Z</time>
      </trkpt>
      <trkpt lat="43.46681" lon="0.04155">
        <ele>192.19999694824</ele>
        <time>2020-07-06T10:02:52.000Z</time>
      </trkpt>
      <trkpt lat="43.46689" lon="0.0416">
        <ele>192.19999694824</ele>
        <time>2020-07-06T10:02:54.000Z</time>
      </trkpt>
      <trkpt lat="43.4671" lon="0.04166">
        <ele>191.60000610352</ele>
        <time>2020-07-06T10:03:01.000Z</time>
      </trkpt>
      <trkpt lat="43.46722" lon="0.04158">
        <ele>191.80000305176</ele>
        <time>2020-07-06T10:03:06.000Z</time>
      </trkpt>
      <trkpt lat="43.46745" lon="0.04153">
        <ele>191.60000610352</ele>
        <time>2020-07-06T10:03:11.000Z</time>
      </trkpt>
      <trkpt lat="43.46749" lon="0.04153">
        <ele>191.80000305176</ele>
        <time>2020-07-06T10:03:12.000Z</time>
      </trkpt>
      <trkpt lat="43.46759" lon="0.04143">
        <ele>191.39999389648</ele>
        <time>2020-07-06T10:03:15.000Z</time>
      </trkpt>
      <trkpt lat="43.46776" lon="0.04124">
        <ele>191.19999694824</ele>
        <time>2020-07-06T10:03:20.000Z</time>
      </trkpt>
      <trkpt lat="43.46788" lon="0.04108">
        <ele>191.19999694824</ele>
        <time>2020-07-06T10:03:24.000Z</time>
      </trkpt>
      <trkpt lat="43.46793" lon="0.04104">
        <ele>191.19999694824</ele>
        <time>2020-07-06T10:03:25.000Z</time>
      </trkpt>
      <trkpt lat="43.46804" lon="0.04092">
        <ele>191.19999694824</ele>
        <time>2020-07-06T10:03:28.000Z</time>
      </trkpt>
      <trkpt lat="43.46823" lon="0.04066">
        <ele>191.19999694824</ele>
        <time>2020-07-06T10:03:34.000Z</time>
      </trkpt>
      <trkpt lat="43.46843" lon="0.04044">
        <ele>191.19999694824</ele>
        <time>2020-07-06T10:03:40.000Z</time>
      </trkpt>
      <trkpt lat="43.46874" lon="0.04028">
        <ele>191.39999389648</ele>
        <time>2020-07-06T10:03:47.000Z</time>
      </trkpt>
      <trkpt lat="43.46898" lon="0.04019">
        <ele>191.39999389648</ele>
        <time>2020-07-06T10:03:53.000Z</time>
      </trkpt>
      <trkpt lat="43.46903" lon="0.04018">
        <ele>191.19999694824</ele>
        <time>2020-07-06T10:03:54.000Z</time>
      </trkpt>
      <trkpt lat="43.46917" lon="0.04018">
        <ele>191.19999694824</ele>
        <time>2020-07-06T10:03:57.000Z</time>
      </trkpt>
      <trkpt lat="43.46927" lon="0.04017">
        <ele>191.19999694824</ele>
        <time>2020-07-06T10:03:59.000Z</time>
      </trkpt>
      <trkpt lat="43.46936" lon="0.04018">
        <ele>191</ele>
        <time>2020-07-06T10:04:01.000Z</time>
      </trkpt>
      <trkpt lat="43.46941" lon="0.0402">
        <ele>191</ele>
        <time>2020-07-06T10:04:02.000Z</time>
      </trkpt>
      <trkpt lat="43.46949" lon="0.04022">
        <ele>190.60000610352</ele>
        <time>2020-07-06T10:04:04.000Z</time>
      </trkpt>
      <trkpt lat="43.46953" lon="0.04023">
        <ele>190.39999389648</ele>
        <time>2020-07-06T10:04:05.000Z</time>
      </trkpt>
      <trkpt lat="43.4696" lon="0.04024">
        <ele>190.39999389648</ele>
        <time>2020-07-06T10:04:07.000Z</time>
      </trkpt>
      <trkpt lat="43.46969" lon="0.04024">
        <ele>190.39999389648</ele>
        <time>2020-07-06T10:04:09.000Z</time>
      </trkpt>
      <trkpt lat="43.4698" lon="0.04021">
        <ele>190.19999694824</ele>
        <time>2020-07-06T10:04:11.000Z</time>
      </trkpt>
      <trkpt lat="43.46987" lon="0.04013">
        <ele>190</ele>
        <time>2020-07-06T10:04:14.000Z</time>
      </trkpt>
      <trkpt lat="43.46988" lon="0.04012">
        <ele>190.19999694824</ele>
        <time>2020-07-06T10:04:17.000Z</time>
      </trkpt>
      <trkpt lat="43.46989" lon="0.04013">
        <ele>190.19999694824</ele>
        <time>2020-07-06T10:04:20.000Z</time>
      </trkpt>
      <trkpt lat="43.46991" lon="0.04014">
        <ele>190.19999694824</ele>
        <time>2020-07-06T10:04:23.000Z</time>
      </trkpt>
      <trkpt lat="43.46991" lon="0.04014">
        <ele>190.60000610352</ele>
        <time>2020-07-06T10:04:32.000Z</time>
      </trkpt>
      <trkpt lat="43.46991" lon="0.04014">
        <ele>190.80000305176</ele>
        <time>2020-07-06T10:05:02.000Z</time>
      </trkpt>
      <trkpt lat="43.46992" lon="0.04008">
        <ele>190.80000305176</ele>
        <time>2020-07-06T10:05:14.000Z</time>
      </trkpt>
      <trkpt lat="43.46994" lon="0.03997">
        <ele>191.19999694824</ele>
        <time>2020-07-06T10:05:21.000Z</time>
      </trkpt>
      <trkpt lat="43.46995" lon="0.03989">
        <ele>191.39999389648</ele>
        <time>2020-07-06T10:05:34.000Z</time>
      </trkpt>
      <trkpt lat="43.46999" lon="0.03969">
        <ele>191.39999389648</ele>
        <time>2020-07-06T10:05:38.000Z</time>
      </trkpt>
      <trkpt lat="43.47" lon="0.03925">
        <ele>190.19999694824</ele>
        <time>2020-07-06T10:05:45.000Z</time>
      </trkpt>
      <trkpt lat="43.46994" lon="0.03887">
        <ele>189.80000305176</ele>
        <time>2020-07-06T10:05:51.000Z</time>
      </trkpt>
      <trkpt lat="43.46986" lon="0.03865">
        <ele>189.80000305176</ele>
        <time>2020-07-06T10:05:55.000Z</time>
      </trkpt>
      <trkpt lat="43.46982" lon="0.03856">
        <ele>190</ele>
        <time>2020-07-06T10:05:57.000Z</time>
      </trkpt>
      <trkpt lat="43.46974" lon="0.03838">
        <ele>190</ele>
        <time>2020-07-06T10:06:01.000Z</time>
      </trkpt>
      <trkpt lat="43.46957" lon="0.03806">
        <ele>189.80000305176</ele>
        <time>2020-07-06T10:06:07.000Z</time>
      </trkpt>
      <trkpt lat="43.46949" lon="0.03796">
        <ele>189.80000305176</ele>
        <time>2020-07-06T10:06:09.000Z</time>
      </trkpt>
      <trkpt lat="43.46947" lon="0.03789">
        <ele>189.80000305176</ele>
        <time>2020-07-06T10:06:11.000Z</time>
      </trkpt>
      <trkpt lat="43.46943" lon="0.03776">
        <ele>190</ele>
        <time>2020-07-06T10:06:15.000Z</time>
      </trkpt>
      <trkpt lat="43.46945" lon="0.03772">
        <ele>190.19999694824</ele>
        <time>2020-07-06T10:06:17.000Z</time>
      </trkpt>
      <trkpt lat="43.46946" lon="0.03754">
        <ele>190.19999694824</ele>
        <time>2020-07-06T10:06:21.000Z</time>
      </trkpt>
      <trkpt lat="43.46947" lon="0.0373">
        <ele>190.19999694824</ele>
        <time>2020-07-06T10:06:27.000Z</time>
      </trkpt>
      <trkpt lat="43.46947" lon="0.03729">
        <ele>190</ele>
        <time>2020-07-06T10:06:31.000Z</time>
      </trkpt>
      <trkpt lat="43.46948" lon="0.03727">
        <ele>190</ele>
        <time>2020-07-06T10:06:40.000Z</time>
      </trkpt>
      <trkpt lat="43.46951" lon="0.03722">
        <ele>190</ele>
        <time>2020-07-06T10:06:42.000Z</time>
      </trkpt>
      <trkpt lat="43.46961" lon="0.03701">
        <ele>189.80000305176</ele>
        <time>2020-07-06T10:06:48.000Z</time>
      </trkpt>
      <trkpt lat="43.46977" lon="0.03676">
        <ele>189.60000610352</ele>
        <time>2020-07-06T10:06:55.000Z</time>
      </trkpt>
      <trkpt lat="43.46994" lon="0.03653">
        <ele>189.60000610352</ele>
        <time>2020-07-06T10:07:01.000Z</time>
      </trkpt>
      <trkpt lat="43.46997" lon="0.03648">
        <ele>189.60000610352</ele>
        <time>2020-07-06T10:07:02.000Z</time>
      </trkpt>
      <trkpt lat="43.47" lon="0.03642">
        <ele>189.19999694824</ele>
        <time>2020-07-06T10:07:03.000Z</time>
      </trkpt>
      <trkpt lat="43.47015" lon="0.03616">
        <ele>188.60000610352</ele>
        <time>2020-07-06T10:07:08.000Z</time>
      </trkpt>
      <trkpt lat="43.47018" lon="0.0361">
        <ele>188.39999389648</ele>
        <time>2020-07-06T10:07:09.000Z</time>
      </trkpt>
      <trkpt lat="43.47033" lon="0.03566">
        <ele>189.19999694824</ele>
        <time>2020-07-06T10:07:17.000Z</time>
      </trkpt>
      <trkpt lat="43.47037" lon="0.03557">
        <ele>190</ele>
        <time>2020-07-06T10:07:21.000Z</time>
      </trkpt>
      <trkpt lat="43.47037" lon="0.03557">
        <ele>190.19999694824</ele>
        <time>2020-07-06T10:07:22.000Z</time>
      </trkpt>
      <trkpt lat="43.47038" lon="0.03555">
        <ele>190.80000305176</ele>
        <time>2020-07-06T10:07:25.000Z</time>
      </trkpt>
      <trkpt lat="43.47042" lon="0.03556">
        <ele>191.19999694824</ele>
        <time>2020-07-06T10:07:27.000Z</time>
      </trkpt>
      <trkpt lat="43.47047" lon="0.03561">
        <ele>191.19999694824</ele>
        <time>2020-07-06T10:07:29.000Z</time>
      </trkpt>
      <trkpt lat="43.47053" lon="0.03566">
        <ele>191.19999694824</ele>
        <time>2020-07-06T10:07:31.000Z</time>
      </trkpt>
      <trkpt lat="43.47063" lon="0.03573">
        <ele>191.19999694824</ele>
        <time>2020-07-06T10:07:36.000Z</time>
      </trkpt>
      <trkpt lat="43.47069" lon="0.03577">
        <ele>191</ele>
        <time>2020-07-06T10:08:00.000Z</time>
      </trkpt>
      <trkpt lat="43.47086" lon="0.03594">
        <ele>191</ele>
        <time>2020-07-06T10:08:05.000Z</time>
      </trkpt>
      <trkpt lat="43.47092" lon="0.03605">
        <ele>190.80000305176</ele>
        <time>2020-07-06T10:08:07.000Z</time>
      </trkpt>
      <trkpt lat="43.47097" lon="0.03621">
        <ele>190</ele>
        <time>2020-07-06T10:08:10.000Z</time>
      </trkpt>
      <trkpt lat="43.47102" lon="0.03652">
        <ele>189.19999694824</ele>
        <time>2020-07-06T10:08:15.000Z</time>
      </trkpt>
      <trkpt lat="43.47104" lon="0.03664">
        <ele>189.19999694824</ele>
        <time>2020-07-06T10:08:17.000Z</time>
      </trkpt>
      <trkpt lat="43.47106" lon="0.03675">
        <ele>189</ele>
        <time>2020-07-06T10:08:19.000Z</time>
      </trkpt>
      <trkpt lat="43.47112" lon="0.03681">
        <ele>189</ele>
        <time>2020-07-06T10:08:21.000Z</time>
      </trkpt>
      <trkpt lat="43.47126" lon="0.03679">
        <ele>189</ele>
        <time>2020-07-06T10:08:24.000Z</time>
      </trkpt>
      <trkpt lat="43.47131" lon="0.03678">
        <ele>189.19999694824</ele>
        <time>2020-07-06T10:08:25.000Z</time>
      </trkpt>
      <trkpt lat="43.47162" lon="0.03671">
        <ele>189.19999694824</ele>
        <time>2020-07-06T10:08:31.000Z</time>
      </trkpt>
      <trkpt lat="43.47201" lon="0.03663">
        <ele>189</ele>
        <time>2020-07-06T10:08:38.000Z</time>
      </trkpt>
      <trkpt lat="43.47207" lon="0.03662">
        <ele>188.80000305176</ele>
        <time>2020-07-06T10:08:39.000Z</time>
      </trkpt>
      <trkpt lat="43.47212" lon="0.03663">
        <ele>188.80000305176</ele>
        <time>2020-07-06T10:08:40.000Z</time>
      </trkpt>
      <trkpt lat="43.47226" lon="0.03666">
        <ele>188.80000305176</ele>
        <time>2020-07-06T10:08:43.000Z</time>
      </trkpt>
      <trkpt lat="43.47254" lon="0.03667">
        <ele>188.39999389648</ele>
        <time>2020-07-06T10:08:48.000Z</time>
      </trkpt>
      <trkpt lat="43.4726" lon="0.03668">
        <ele>188.19999694824</ele>
        <time>2020-07-06T10:08:49.000Z</time>
      </trkpt>
      <trkpt lat="43.47292" lon="0.0367">
        <ele>188</ele>
        <time>2020-07-06T10:08:54.000Z</time>
      </trkpt>
      <trkpt lat="43.47352" lon="0.03675">
        <ele>187.39999389648</ele>
        <time>2020-07-06T10:09:03.000Z</time>
      </trkpt>
      <trkpt lat="43.47359" lon="0.03676">
        <ele>187.39999389648</ele>
        <time>2020-07-06T10:09:04.000Z</time>
      </trkpt>
      <trkpt lat="43.47366" lon="0.03676">
        <ele>187.39999389648</ele>
        <time>2020-07-06T10:09:05.000Z</time>
      </trkpt>
      <trkpt lat="43.47421" lon="0.0368">
        <ele>187.39999389648</ele>
        <time>2020-07-06T10:09:13.000Z</time>
      </trkpt>
      <trkpt lat="43.47427" lon="0.0368">
        <ele>187.39999389648</ele>
        <time>2020-07-06T10:09:14.000Z</time>
      </trkpt>
      <trkpt lat="43.47482" lon="0.03681">
        <ele>187.39999389648</ele>
        <time>2020-07-06T10:09:22.000Z</time>
      </trkpt>
      <trkpt lat="43.47529" lon="0.03681">
        <ele>187.39999389648</ele>
        <time>2020-07-06T10:09:29.000Z</time>
      </trkpt>
      <trkpt lat="43.47588" lon="0.03676">
        <ele>187</ele>
        <time>2020-07-06T10:09:38.000Z</time>
      </trkpt>
      <trkpt lat="43.4764" lon="0.03672">
        <ele>187</ele>
        <time>2020-07-06T10:09:46.000Z</time>
      </trkpt>
      <trkpt lat="43.477" lon="0.0367">
        <ele>186.80000305176</ele>
        <time>2020-07-06T10:09:55.000Z</time>
      </trkpt>
      <trkpt lat="43.47739" lon="0.0366">
        <ele>186.60000610352</ele>
        <time>2020-07-06T10:10:01.000Z</time>
      </trkpt>
      <trkpt lat="43.47752" lon="0.03657">
        <ele>186.39999389648</ele>
        <time>2020-07-06T10:10:03.000Z</time>
      </trkpt>
      <trkpt lat="43.47795" lon="0.03644">
        <ele>186.39999389648</ele>
        <time>2020-07-06T10:10:10.000Z</time>
      </trkpt>
      <trkpt lat="43.47844" lon="0.03628">
        <ele>186.80000305176</ele>
        <time>2020-07-06T10:10:18.000Z</time>
      </trkpt>
      <trkpt lat="43.47874" lon="0.03616">
        <ele>186.60000610352</ele>
        <time>2020-07-06T10:10:23.000Z</time>
      </trkpt>
      <trkpt lat="43.47879" lon="0.03612">
        <ele>186.60000610352</ele>
        <time>2020-07-06T10:10:24.000Z</time>
      </trkpt>
      <trkpt lat="43.47903" lon="0.03588">
        <ele>186.60000610352</ele>
        <time>2020-07-06T10:10:29.000Z</time>
      </trkpt>
      <trkpt lat="43.47907" lon="0.03582">
        <ele>186.60000610352</ele>
        <time>2020-07-06T10:10:30.000Z</time>
      </trkpt>
      <trkpt lat="43.47912" lon="0.03576">
        <ele>186.60000610352</ele>
        <time>2020-07-06T10:10:31.000Z</time>
      </trkpt>
      <trkpt lat="43.47923" lon="0.03567">
        <ele>186.60000610352</ele>
        <time>2020-07-06T10:10:33.000Z</time>
      </trkpt>
      <trkpt lat="43.47934" lon="0.0356">
        <ele>186.60000610352</ele>
        <time>2020-07-06T10:10:35.000Z</time>
      </trkpt>
      <trkpt lat="43.47987" lon="0.03531">
        <ele>186.60000610352</ele>
        <time>2020-07-06T10:10:44.000Z</time>
      </trkpt>
      <trkpt lat="43.47999" lon="0.03525">
        <ele>187</ele>
        <time>2020-07-06T10:10:46.000Z</time>
      </trkpt>
      <trkpt lat="43.48045" lon="0.03502">
        <ele>185.60000610352</ele>
        <time>2020-07-06T10:10:54.000Z</time>
      </trkpt>
      <trkpt lat="43.48055" lon="0.03496">
        <ele>185.39999389648</ele>
        <time>2020-07-06T10:10:56.000Z</time>
      </trkpt>
      <trkpt lat="43.48063" lon="0.03487">
        <ele>184.80000305176</ele>
        <time>2020-07-06T10:10:58.000Z</time>
      </trkpt>
      <trkpt lat="43.4807" lon="0.03475">
        <ele>184.60000610352</ele>
        <time>2020-07-06T10:11:00.000Z</time>
      </trkpt>
      <trkpt lat="43.48077" lon="0.03462">
        <ele>184.60000610352</ele>
        <time>2020-07-06T10:11:02.000Z</time>
      </trkpt>
      <trkpt lat="43.48081" lon="0.03456">
        <ele>184.60000610352</ele>
        <time>2020-07-06T10:11:03.000Z</time>
      </trkpt>
      <trkpt lat="43.48084" lon="0.03449">
        <ele>184.60000610352</ele>
        <time>2020-07-06T10:11:04.000Z</time>
      </trkpt>
      <trkpt lat="43.48093" lon="0.03444">
        <ele>184.60000610352</ele>
        <time>2020-07-06T10:11:06.000Z</time>
      </trkpt>
      <trkpt lat="43.48113" lon="0.03448">
        <ele>185.19999694824</ele>
        <time>2020-07-06T10:11:10.000Z</time>
      </trkpt>
      <trkpt lat="43.48158" lon="0.03462">
        <ele>185</ele>
        <time>2020-07-06T10:11:19.000Z</time>
      </trkpt>
      <trkpt lat="43.48163" lon="0.03463">
        <ele>185</ele>
        <time>2020-07-06T10:11:20.000Z</time>
      </trkpt>
      <trkpt lat="43.48172" lon="0.03463">
        <ele>184.80000305176</ele>
        <time>2020-07-06T10:11:22.000Z</time>
      </trkpt>
      <trkpt lat="43.48187" lon="0.03458">
        <ele>184.80000305176</ele>
        <time>2020-07-06T10:11:25.000Z</time>
      </trkpt>
      <trkpt lat="43.48216" lon="0.03443">
        <ele>185.19999694824</ele>
        <time>2020-07-06T10:11:31.000Z</time>
      </trkpt>
      <trkpt lat="43.48221" lon="0.03442">
        <ele>185.19999694824</ele>
        <time>2020-07-06T10:11:32.000Z</time>
      </trkpt>
      <trkpt lat="43.48235" lon="0.03438">
        <ele>185</ele>
        <time>2020-07-06T10:11:35.000Z</time>
      </trkpt>
      <trkpt lat="43.48247" lon="0.03439">
        <ele>184.80000305176</ele>
        <time>2020-07-06T10:11:37.000Z</time>
      </trkpt>
      <trkpt lat="43.48254" lon="0.0344">
        <ele>184.60000610352</ele>
        <time>2020-07-06T10:11:38.000Z</time>
      </trkpt>
      <trkpt lat="43.48264" lon="0.03442">
        <ele>184.39999389648</ele>
        <time>2020-07-06T10:11:40.000Z</time>
      </trkpt>
      <trkpt lat="43.48269" lon="0.03445">
        <ele>184.39999389648</ele>
        <time>2020-07-06T10:11:41.000Z</time>
      </trkpt>
      <trkpt lat="43.48276" lon="0.03453">
        <ele>184.80000305176</ele>
        <time>2020-07-06T10:11:45.000Z</time>
      </trkpt>
      <trkpt lat="43.48282" lon="0.03456">
        <ele>185</ele>
        <time>2020-07-06T10:11:49.000Z</time>
      </trkpt>
      <trkpt lat="43.48282" lon="0.03461">
        <ele>185</ele>
        <time>2020-07-06T10:11:52.000Z</time>
      </trkpt>
      <trkpt lat="43.48282" lon="0.03461">
        <ele>185</ele>
        <time>2020-07-06T10:11:54.000Z</time>
      </trkpt>
      <trkpt lat="43.48282" lon="0.03464">
        <ele>185</ele>
        <time>2020-07-06T10:11:57.000Z</time>
      </trkpt>
      <trkpt lat="43.48283" lon="0.0347">
        <ele>185</ele>
        <time>2020-07-06T10:12:01.000Z</time>
      </trkpt>
      <trkpt lat="43.48285" lon="0.03475">
        <ele>185.19999694824</ele>
        <time>2020-07-06T10:12:04.000Z</time>
      </trkpt>
      <trkpt lat="43.4829" lon="0.03482">
        <ele>185.39999389648</ele>
        <time>2020-07-06T10:12:07.000Z</time>
      </trkpt>
      <trkpt lat="43.48302" lon="0.03496">
        <ele>185.39999389648</ele>
        <time>2020-07-06T10:12:11.000Z</time>
      </trkpt>
      <trkpt lat="43.48318" lon="0.0351">
        <ele>185.60000610352</ele>
        <time>2020-07-06T10:12:16.000Z</time>
      </trkpt>
      <trkpt lat="43.48343" lon="0.0353">
        <ele>185.39999389648</ele>
        <time>2020-07-06T10:12:22.000Z</time>
      </trkpt>
      <trkpt lat="43.48376" lon="0.03551">
        <ele>185.39999389648</ele>
        <time>2020-07-06T10:12:28.000Z</time>
      </trkpt>
      <trkpt lat="43.48381" lon="0.03553">
        <ele>185.39999389648</ele>
        <time>2020-07-06T10:12:29.000Z</time>
      </trkpt>
      <trkpt lat="43.48393" lon="0.03553">
        <ele>185.80000305176</ele>
        <time>2020-07-06T10:12:31.000Z</time>
      </trkpt>
      <trkpt lat="43.48399" lon="0.03552">
        <ele>185.80000305176</ele>
        <time>2020-07-06T10:12:32.000Z</time>
      </trkpt>
      <trkpt lat="43.4841" lon="0.0355">
        <ele>185.80000305176</ele>
        <time>2020-07-06T10:12:34.000Z</time>
      </trkpt>
      <trkpt lat="43.4842" lon="0.03546">
        <ele>185.60000610352</ele>
        <time>2020-07-06T10:12:36.000Z</time>
      </trkpt>
      <trkpt lat="43.48426" lon="0.03544">
        <ele>185.60000610352</ele>
        <time>2020-07-06T10:12:37.000Z</time>
      </trkpt>
      <trkpt lat="43.48431" lon="0.03541">
        <ele>185.39999389648</ele>
        <time>2020-07-06T10:12:38.000Z</time>
      </trkpt>
      <trkpt lat="43.48441" lon="0.03534">
        <ele>185.19999694824</ele>
        <time>2020-07-06T10:12:40.000Z</time>
      </trkpt>
      <trkpt lat="43.48447" lon="0.03533">
        <ele>184.80000305176</ele>
        <time>2020-07-06T10:12:41.000Z</time>
      </trkpt>
      <trkpt lat="43.48451" lon="0.03533">
        <ele>184.80000305176</ele>
        <time>2020-07-06T10:12:42.000Z</time>
      </trkpt>
      <trkpt lat="43.48467" lon="0.0354">
        <ele>184.39999389648</ele>
        <time>2020-07-06T10:12:45.000Z</time>
      </trkpt>
      <trkpt lat="43.48472" lon="0.03542">
        <ele>184.19999694824</ele>
        <time>2020-07-06T10:12:46.000Z</time>
      </trkpt>
      <trkpt lat="43.48487" lon="0.03547">
        <ele>184.19999694824</ele>
        <time>2020-07-06T10:12:49.000Z</time>
      </trkpt>
      <trkpt lat="43.48493" lon="0.03555">
        <ele>184.39999389648</ele>
        <time>2020-07-06T10:12:51.000Z</time>
      </trkpt>
      <trkpt lat="43.48501" lon="0.03587">
        <ele>184.80000305176</ele>
        <time>2020-07-06T10:12:56.000Z</time>
      </trkpt>
      <trkpt lat="43.48504" lon="0.03602">
        <ele>185.39999389648</ele>
        <time>2020-07-06T10:12:58.000Z</time>
      </trkpt>
      <trkpt lat="43.48512" lon="0.03633">
        <ele>185.19999694824</ele>
        <time>2020-07-06T10:13:02.000Z</time>
      </trkpt>
      <trkpt lat="43.48523" lon="0.0368">
        <ele>185.19999694824</ele>
        <time>2020-07-06T10:13:08.000Z</time>
      </trkpt>
      <trkpt lat="43.48534" lon="0.03716">
        <ele>184.39999389648</ele>
        <time>2020-07-06T10:13:13.000Z</time>
      </trkpt>
      <trkpt lat="43.48536" lon="0.03723">
        <ele>184.19999694824</ele>
        <time>2020-07-06T10:13:14.000Z</time>
      </trkpt>
      <trkpt lat="43.48548" lon="0.03774">
        <ele>184</ele>
        <time>2020-07-06T10:13:22.000Z</time>
      </trkpt>
      <trkpt lat="43.48553" lon="0.03779">
        <ele>184.19999694824</ele>
        <time>2020-07-06T10:13:24.000Z</time>
      </trkpt>
      <trkpt lat="43.48558" lon="0.03768">
        <ele>184.39999389648</ele>
        <time>2020-07-06T10:13:27.000Z</time>
      </trkpt>
      <trkpt lat="43.4857" lon="0.03742">
        <ele>184.39999389648</ele>
        <time>2020-07-06T10:13:31.000Z</time>
      </trkpt>
      <trkpt lat="43.48595" lon="0.03701">
        <ele>183.80000305176</ele>
        <time>2020-07-06T10:13:37.000Z</time>
      </trkpt>
      <trkpt lat="43.48619" lon="0.0368">
        <ele>183.19999694824</ele>
        <time>2020-07-06T10:13:41.000Z</time>
      </trkpt>
      <trkpt lat="43.48638" lon="0.03666">
        <ele>183.19999694824</ele>
        <time>2020-07-06T10:13:44.000Z</time>
      </trkpt>
      <trkpt lat="43.48687" lon="0.03629">
        <ele>183</ele>
        <time>2020-07-06T10:13:52.000Z</time>
      </trkpt>
      <trkpt lat="43.487" lon="0.03619">
        <ele>183</ele>
        <time>2020-07-06T10:13:54.000Z</time>
      </trkpt>
      <trkpt lat="43.48749" lon="0.03578">
        <ele>183</ele>
        <time>2020-07-06T10:14:02.000Z</time>
      </trkpt>
      <trkpt lat="43.48755" lon="0.03573">
        <ele>183</ele>
        <time>2020-07-06T10:14:03.000Z</time>
      </trkpt>
      <trkpt lat="43.48799" lon="0.0354">
        <ele>183</ele>
        <time>2020-07-06T10:14:10.000Z</time>
      </trkpt>
      <trkpt lat="43.48848" lon="0.03522">
        <ele>183</ele>
        <time>2020-07-06T10:14:17.000Z</time>
      </trkpt>
      <trkpt lat="43.48886" lon="0.03496">
        <ele>182.80000305176</ele>
        <time>2020-07-06T10:14:23.000Z</time>
      </trkpt>
      <trkpt lat="43.48938" lon="0.03462">
        <ele>182.39999389648</ele>
        <time>2020-07-06T10:14:31.000Z</time>
      </trkpt>
      <trkpt lat="43.48991" lon="0.03431">
        <ele>182.80000305176</ele>
        <time>2020-07-06T10:14:39.000Z</time>
      </trkpt>
      <trkpt lat="43.49044" lon="0.03391">
        <ele>183</ele>
        <time>2020-07-06T10:14:47.000Z</time>
      </trkpt>
      <trkpt lat="43.49086" lon="0.03343">
        <ele>182.60000610352</ele>
        <time>2020-07-06T10:14:54.000Z</time>
      </trkpt>
      <trkpt lat="43.4912" lon="0.03296">
        <ele>182.19999694824</ele>
        <time>2020-07-06T10:15:00.000Z</time>
      </trkpt>
      <trkpt lat="43.49148" lon="0.03257">
        <ele>181.80000305176</ele>
        <time>2020-07-06T10:15:05.000Z</time>
      </trkpt>
      <trkpt lat="43.49186" lon="0.03217">
        <ele>181.39999389648</ele>
        <time>2020-07-06T10:15:11.000Z</time>
      </trkpt>
      <trkpt lat="43.49236" lon="0.03184">
        <ele>181.39999389648</ele>
        <time>2020-07-06T10:15:18.000Z</time>
      </trkpt>
      <trkpt lat="43.49281" lon="0.0317">
        <ele>181.39999389648</ele>
        <time>2020-07-06T10:15:24.000Z</time>
      </trkpt>
      <trkpt lat="43.49336" lon="0.03167">
        <ele>181.39999389648</ele>
        <time>2020-07-06T10:15:31.000Z</time>
      </trkpt>
      <trkpt lat="43.49351" lon="0.03165">
        <ele>181.19999694824</ele>
        <time>2020-07-06T10:15:33.000Z</time>
      </trkpt>
      <trkpt lat="43.49357" lon="0.0316">
        <ele>181.39999389648</ele>
        <time>2020-07-06T10:15:34.000Z</time>
      </trkpt>
      <trkpt lat="43.49364" lon="0.03154">
        <ele>181.39999389648</ele>
        <time>2020-07-06T10:15:35.000Z</time>
      </trkpt>
      <trkpt lat="43.49374" lon="0.03138">
        <ele>181.19999694824</ele>
        <time>2020-07-06T10:15:37.000Z</time>
      </trkpt>
      <trkpt lat="43.49409" lon="0.03081">
        <ele>180.80000305176</ele>
        <time>2020-07-06T10:15:44.000Z</time>
      </trkpt>
      <trkpt lat="43.49421" lon="0.03066">
        <ele>180.80000305176</ele>
        <time>2020-07-06T10:15:46.000Z</time>
      </trkpt>
      <trkpt lat="43.49464" lon="0.03018">
        <ele>180.80000305176</ele>
        <time>2020-07-06T10:15:53.000Z</time>
      </trkpt>
      <trkpt lat="43.49475" lon="0.03004">
        <ele>180.80000305176</ele>
        <time>2020-07-06T10:15:55.000Z</time>
      </trkpt>
      <trkpt lat="43.49492" lon="0.02984">
        <ele>180.80000305176</ele>
        <time>2020-07-06T10:15:58.000Z</time>
      </trkpt>
      <trkpt lat="43.49505" lon="0.02977">
        <ele>181</ele>
        <time>2020-07-06T10:16:00.000Z</time>
      </trkpt>
      <trkpt lat="43.49526" lon="0.02983">
        <ele>181.19999694824</ele>
        <time>2020-07-06T10:16:03.000Z</time>
      </trkpt>
      <trkpt lat="43.4954" lon="0.02988">
        <ele>181.19999694824</ele>
        <time>2020-07-06T10:16:05.000Z</time>
      </trkpt>
      <trkpt lat="43.49554" lon="0.02987">
        <ele>181.19999694824</ele>
        <time>2020-07-06T10:16:07.000Z</time>
      </trkpt>
      <trkpt lat="43.49561" lon="0.02985">
        <ele>180.80000305176</ele>
        <time>2020-07-06T10:16:08.000Z</time>
      </trkpt>
      <trkpt lat="43.49581" lon="0.02978">
        <ele>180.19999694824</ele>
        <time>2020-07-06T10:16:11.000Z</time>
      </trkpt>
      <trkpt lat="43.49588" lon="0.02976">
        <ele>180</ele>
        <time>2020-07-06T10:16:12.000Z</time>
      </trkpt>
      <trkpt lat="43.49595" lon="0.02975">
        <ele>179.80000305176</ele>
        <time>2020-07-06T10:16:13.000Z</time>
      </trkpt>
      <trkpt lat="43.49652" lon="0.02961">
        <ele>180</ele>
        <time>2020-07-06T10:16:21.000Z</time>
      </trkpt>
      <trkpt lat="43.49666" lon="0.02957">
        <ele>180</ele>
        <time>2020-07-06T10:16:23.000Z</time>
      </trkpt>
      <trkpt lat="43.49724" lon="0.02944">
        <ele>180.19999694824</ele>
        <time>2020-07-06T10:16:31.000Z</time>
      </trkpt>
      <trkpt lat="43.49745" lon="0.0294">
        <ele>180</ele>
        <time>2020-07-06T10:16:34.000Z</time>
      </trkpt>
      <trkpt lat="43.49786" lon="0.0293">
        <ele>179.80000305176</ele>
        <time>2020-07-06T10:16:40.000Z</time>
      </trkpt>
      <trkpt lat="43.49797" lon="0.02922">
        <ele>179.80000305176</ele>
        <time>2020-07-06T10:16:42.000Z</time>
      </trkpt>
      <trkpt lat="43.49805" lon="0.0291">
        <ele>179.80000305176</ele>
        <time>2020-07-06T10:16:44.000Z</time>
      </trkpt>
      <trkpt lat="43.49811" lon="0.02896">
        <ele>180.19999694824</ele>
        <time>2020-07-06T10:16:46.000Z</time>
      </trkpt>
      <trkpt lat="43.49815" lon="0.02889">
        <ele>180.60000610352</ele>
        <time>2020-07-06T10:16:47.000Z</time>
      </trkpt>
      <trkpt lat="43.49821" lon="0.02874">
        <ele>181.19999694824</ele>
        <time>2020-07-06T10:16:49.000Z</time>
      </trkpt>
      <trkpt lat="43.49823" lon="0.02866">
        <ele>181.39999389648</ele>
        <time>2020-07-06T10:16:50.000Z</time>
      </trkpt>
      <trkpt lat="43.49835" lon="0.02825">
        <ele>182.39999389648</ele>
        <time>2020-07-06T10:16:55.000Z</time>
      </trkpt>
      <trkpt lat="43.49844" lon="0.02794">
        <ele>183.19999694824</ele>
        <time>2020-07-06T10:16:59.000Z</time>
      </trkpt>
      <trkpt lat="43.49856" lon="0.02752">
        <ele>183.19999694824</ele>
        <time>2020-07-06T10:17:04.000Z</time>
      </trkpt>
      <trkpt lat="43.49861" lon="0.02745">
        <ele>183</ele>
        <time>2020-07-06T10:17:05.000Z</time>
      </trkpt>
      <trkpt lat="43.49868" lon="0.02741">
        <ele>182.80000305176</ele>
        <time>2020-07-06T10:17:06.000Z</time>
      </trkpt>
      <trkpt lat="43.49883" lon="0.02739">
        <ele>182.39999389648</ele>
        <time>2020-07-06T10:17:08.000Z</time>
      </trkpt>
      <trkpt lat="43.49924" lon="0.02743">
        <ele>181</ele>
        <time>2020-07-06T10:17:13.000Z</time>
      </trkpt>
      <trkpt lat="43.49955" lon="0.02746">
        <ele>179.80000305176</ele>
        <time>2020-07-06T10:17:17.000Z</time>
      </trkpt>
      <trkpt lat="43.49962" lon="0.02747">
        <ele>179.60000610352</ele>
        <time>2020-07-06T10:17:18.000Z</time>
      </trkpt>
      <trkpt lat="43.49992" lon="0.02751">
        <ele>178.80000305176</ele>
        <time>2020-07-06T10:17:22.000Z</time>
      </trkpt>
      <trkpt lat="43.50021" lon="0.02756">
        <ele>178.60000610352</ele>
        <time>2020-07-06T10:17:26.000Z</time>
      </trkpt>
      <trkpt lat="43.50076" lon="0.02764">
        <ele>178.60000610352</ele>
        <time>2020-07-06T10:17:33.000Z</time>
      </trkpt>
      <trkpt lat="43.501" lon="0.02768">
        <ele>178.80000305176</ele>
        <time>2020-07-06T10:17:36.000Z</time>
      </trkpt>
      <trkpt lat="43.50153" lon="0.02775">
        <ele>178.80000305176</ele>
        <time>2020-07-06T10:17:43.000Z</time>
      </trkpt>
      <trkpt lat="43.5016" lon="0.02777">
        <ele>178.80000305176</ele>
        <time>2020-07-06T10:17:44.000Z</time>
      </trkpt>
      <trkpt lat="43.50173" lon="0.02784">
        <ele>178.60000610352</ele>
        <time>2020-07-06T10:17:46.000Z</time>
      </trkpt>
      <trkpt lat="43.50179" lon="0.02789">
        <ele>178.60000610352</ele>
        <time>2020-07-06T10:17:47.000Z</time>
      </trkpt>
      <trkpt lat="43.50183" lon="0.02798">
        <ele>178.60000610352</ele>
        <time>2020-07-06T10:17:48.000Z</time>
      </trkpt>
      <trkpt lat="43.5019" lon="0.02816">
        <ele>178.60000610352</ele>
        <time>2020-07-06T10:17:50.000Z</time>
      </trkpt>
      <trkpt lat="43.50204" lon="0.02861">
        <ele>179.19999694824</ele>
        <time>2020-07-06T10:17:55.000Z</time>
      </trkpt>
      <trkpt lat="43.50209" lon="0.02868">
        <ele>179</ele>
        <time>2020-07-06T10:17:56.000Z</time>
      </trkpt>
      <trkpt lat="43.50214" lon="0.02874">
        <ele>179</ele>
        <time>2020-07-06T10:17:57.000Z</time>
      </trkpt>
      <trkpt lat="43.50227" lon="0.02878">
        <ele>179.19999694824</ele>
        <time>2020-07-06T10:17:59.000Z</time>
      </trkpt>
      <trkpt lat="43.50279" lon="0.02874">
        <ele>179.19999694824</ele>
        <time>2020-07-06T10:18:06.000Z</time>
      </trkpt>
      <trkpt lat="43.50333" lon="0.02871">
        <ele>179.19999694824</ele>
        <time>2020-07-06T10:18:13.000Z</time>
      </trkpt>
      <trkpt lat="43.50349" lon="0.02871">
        <ele>179.19999694824</ele>
        <time>2020-07-06T10:18:15.000Z</time>
      </trkpt>
      <trkpt lat="43.5041" lon="0.02867">
        <ele>179.39999389648</ele>
        <time>2020-07-06T10:18:23.000Z</time>
      </trkpt>
      <trkpt lat="43.50448" lon="0.02866">
        <ele>178.80000305176</ele>
        <time>2020-07-06T10:18:28.000Z</time>
      </trkpt>
      <trkpt lat="43.50492" lon="0.02866">
        <ele>178.39999389648</ele>
        <time>2020-07-06T10:18:34.000Z</time>
      </trkpt>
      <trkpt lat="43.50499" lon="0.02868">
        <ele>178.39999389648</ele>
        <time>2020-07-06T10:18:35.000Z</time>
      </trkpt>
      <trkpt lat="43.50505" lon="0.02871">
        <ele>178.19999694824</ele>
        <time>2020-07-06T10:18:36.000Z</time>
      </trkpt>
      <trkpt lat="43.50509" lon="0.02878">
        <ele>178.19999694824</ele>
        <time>2020-07-06T10:18:37.000Z</time>
      </trkpt>
      <trkpt lat="43.50513" lon="0.02886">
        <ele>178.60000610352</ele>
        <time>2020-07-06T10:18:38.000Z</time>
      </trkpt>
      <trkpt lat="43.50516" lon="0.02905">
        <ele>178.80000305176</ele>
        <time>2020-07-06T10:18:40.000Z</time>
      </trkpt>
      <trkpt lat="43.50528" lon="0.02976">
        <ele>179.19999694824</ele>
        <time>2020-07-06T10:18:47.000Z</time>
      </trkpt>
      <trkpt lat="43.50537" lon="0.03036">
        <ele>179.60000610352</ele>
        <time>2020-07-06T10:18:53.000Z</time>
      </trkpt>
      <trkpt lat="43.50537" lon="0.03046">
        <ele>179.39999389648</ele>
        <time>2020-07-06T10:18:54.000Z</time>
      </trkpt>
      <trkpt lat="43.50536" lon="0.03055">
        <ele>179.19999694824</ele>
        <time>2020-07-06T10:18:55.000Z</time>
      </trkpt>
      <trkpt lat="43.50534" lon="0.03069">
        <ele>179.19999694824</ele>
        <time>2020-07-06T10:18:57.000Z</time>
      </trkpt>
      <trkpt lat="43.50536" lon="0.03082">
        <ele>179.19999694824</ele>
        <time>2020-07-06T10:18:59.000Z</time>
      </trkpt>
      <trkpt lat="43.50538" lon="0.03087">
        <ele>179.19999694824</ele>
        <time>2020-07-06T10:19:00.000Z</time>
      </trkpt>
      <trkpt lat="43.50553" lon="0.03112">
        <ele>179</ele>
        <time>2020-07-06T10:19:05.000Z</time>
      </trkpt>
      <trkpt lat="43.50556" lon="0.03117">
        <ele>178.60000610352</ele>
        <time>2020-07-06T10:19:06.000Z</time>
      </trkpt>
      <trkpt lat="43.50557" lon="0.03127">
        <ele>178.39999389648</ele>
        <time>2020-07-06T10:19:08.000Z</time>
      </trkpt>
      <trkpt lat="43.50556" lon="0.03138">
        <ele>178.39999389648</ele>
        <time>2020-07-06T10:19:10.000Z</time>
      </trkpt>
      <trkpt lat="43.50559" lon="0.03142">
        <ele>178.39999389648</ele>
        <time>2020-07-06T10:19:11.000Z</time>
      </trkpt>
      <trkpt lat="43.50567" lon="0.03146">
        <ele>178.19999694824</ele>
        <time>2020-07-06T10:19:13.000Z</time>
      </trkpt>
      <trkpt lat="43.5057" lon="0.03145">
        <ele>178.19999694824</ele>
        <time>2020-07-06T10:19:14.000Z</time>
      </trkpt>
      <trkpt lat="43.50578" lon="0.03138">
        <ele>178.19999694824</ele>
        <time>2020-07-06T10:19:16.000Z</time>
      </trkpt>
      <trkpt lat="43.50586" lon="0.03128">
        <ele>178.19999694824</ele>
        <time>2020-07-06T10:19:18.000Z</time>
      </trkpt>
      <trkpt lat="43.50598" lon="0.0311">
        <ele>178.19999694824</ele>
        <time>2020-07-06T10:19:21.000Z</time>
      </trkpt>
      <trkpt lat="43.50601" lon="0.03103">
        <ele>178</ele>
        <time>2020-07-06T10:19:22.000Z</time>
      </trkpt>
      <trkpt lat="43.50603" lon="0.03097">
        <ele>178</ele>
        <time>2020-07-06T10:19:23.000Z</time>
      </trkpt>
      <trkpt lat="43.50606" lon="0.03091">
        <ele>178</ele>
        <time>2020-07-06T10:19:24.000Z</time>
      </trkpt>
      <trkpt lat="43.50613" lon="0.03083">
        <ele>177.80000305176</ele>
        <time>2020-07-06T10:19:26.000Z</time>
      </trkpt>
      <trkpt lat="43.50624" lon="0.03076">
        <ele>177.80000305176</ele>
        <time>2020-07-06T10:19:28.000Z</time>
      </trkpt>
      <trkpt lat="43.5063" lon="0.03075">
        <ele>177.80000305176</ele>
        <time>2020-07-06T10:19:29.000Z</time>
      </trkpt>
      <trkpt lat="43.50636" lon="0.03074">
        <ele>177.80000305176</ele>
        <time>2020-07-06T10:19:30.000Z</time>
      </trkpt>
      <trkpt lat="43.50654" lon="0.03067">
        <ele>177.80000305176</ele>
        <time>2020-07-06T10:19:33.000Z</time>
      </trkpt>
      <trkpt lat="43.50674" lon="0.0306">
        <ele>177.60000610352</ele>
        <time>2020-07-06T10:19:36.000Z</time>
      </trkpt>
      <trkpt lat="43.50684" lon="0.03059">
        <ele>177.60000610352</ele>
        <time>2020-07-06T10:19:38.000Z</time>
      </trkpt>
      <trkpt lat="43.50697" lon="0.03058">
        <ele>177.39999389648</ele>
        <time>2020-07-06T10:19:40.000Z</time>
      </trkpt>
      <trkpt lat="43.50709" lon="0.03056">
        <ele>177.39999389648</ele>
        <time>2020-07-06T10:19:42.000Z</time>
      </trkpt>
      <trkpt lat="43.50731" lon="0.03067">
        <ele>177.39999389648</ele>
        <time>2020-07-06T10:19:46.000Z</time>
      </trkpt>
      <trkpt lat="43.50742" lon="0.03064">
        <ele>177.60000610352</ele>
        <time>2020-07-06T10:19:48.000Z</time>
      </trkpt>
      <trkpt lat="43.50751" lon="0.03049">
        <ele>177.80000305176</ele>
        <time>2020-07-06T10:19:50.000Z</time>
      </trkpt>
      <trkpt lat="43.50768" lon="0.0302">
        <ele>178</ele>
        <time>2020-07-06T10:19:54.000Z</time>
      </trkpt>
      <trkpt lat="43.50777" lon="0.03006">
        <ele>177.80000305176</ele>
        <time>2020-07-06T10:19:56.000Z</time>
      </trkpt>
      <trkpt lat="43.50791" lon="0.02982">
        <ele>177.80000305176</ele>
        <time>2020-07-06T10:19:59.000Z</time>
      </trkpt>
      <trkpt lat="43.50796" lon="0.02976">
        <ele>177.80000305176</ele>
        <time>2020-07-06T10:20:00.000Z</time>
      </trkpt>
      <trkpt lat="43.50801" lon="0.02972">
        <ele>177.60000610352</ele>
        <time>2020-07-06T10:20:01.000Z</time>
      </trkpt>
      <trkpt lat="43.50815" lon="0.02965">
        <ele>177.39999389648</ele>
        <time>2020-07-06T10:20:03.000Z</time>
      </trkpt>
      <trkpt lat="43.50822" lon="0.02963">
        <ele>177.39999389648</ele>
        <time>2020-07-06T10:20:04.000Z</time>
      </trkpt>
      <trkpt lat="43.50847" lon="0.02952">
        <ele>176.80000305176</ele>
        <time>2020-07-06T10:20:08.000Z</time>
      </trkpt>
      <trkpt lat="43.50874" lon="0.02942">
        <ele>176.80000305176</ele>
        <time>2020-07-06T10:20:12.000Z</time>
      </trkpt>
      <trkpt lat="43.50897" lon="0.02941">
        <ele>176.80000305176</ele>
        <time>2020-07-06T10:20:16.000Z</time>
      </trkpt>
      <trkpt lat="43.5093" lon="0.02935">
        <ele>176.39999389648</ele>
        <time>2020-07-06T10:20:21.000Z</time>
      </trkpt>
      <trkpt lat="43.50936" lon="0.02934">
        <ele>176.19999694824</ele>
        <time>2020-07-06T10:20:22.000Z</time>
      </trkpt>
      <trkpt lat="43.50949" lon="0.02937">
        <ele>176</ele>
        <time>2020-07-06T10:20:24.000Z</time>
      </trkpt>
      <trkpt lat="43.50955" lon="0.0294">
        <ele>175.80000305176</ele>
        <time>2020-07-06T10:20:25.000Z</time>
      </trkpt>
      <trkpt lat="43.50981" lon="0.02959">
        <ele>176</ele>
        <time>2020-07-06T10:20:29.000Z</time>
      </trkpt>
      <trkpt lat="43.50986" lon="0.02963">
        <ele>175.80000305176</ele>
        <time>2020-07-06T10:20:30.000Z</time>
      </trkpt>
      <trkpt lat="43.51002" lon="0.02981">
        <ele>175.80000305176</ele>
        <time>2020-07-06T10:20:33.000Z</time>
      </trkpt>
      <trkpt lat="43.51006" lon="0.02987">
        <ele>175.80000305176</ele>
        <time>2020-07-06T10:20:34.000Z</time>
      </trkpt>
      <trkpt lat="43.51021" lon="0.03007">
        <ele>176</ele>
        <time>2020-07-06T10:20:37.000Z</time>
      </trkpt>
      <trkpt lat="43.51026" lon="0.03011">
        <ele>175.80000305176</ele>
        <time>2020-07-06T10:20:38.000Z</time>
      </trkpt>
      <trkpt lat="43.51032" lon="0.03014">
        <ele>175.60000610352</ele>
        <time>2020-07-06T10:20:39.000Z</time>
      </trkpt>
      <trkpt lat="43.51044" lon="0.03017">
        <ele>175.60000610352</ele>
        <time>2020-07-06T10:20:41.000Z</time>
      </trkpt>
      <trkpt lat="43.51051" lon="0.03017">
        <ele>175.39999389648</ele>
        <time>2020-07-06T10:20:42.000Z</time>
      </trkpt>
      <trkpt lat="43.51058" lon="0.03019">
        <ele>175.39999389648</ele>
        <time>2020-07-06T10:20:43.000Z</time>
      </trkpt>
      <trkpt lat="43.51078" lon="0.03028">
        <ele>175.19999694824</ele>
        <time>2020-07-06T10:20:46.000Z</time>
      </trkpt>
      <trkpt lat="43.51086" lon="0.03031">
        <ele>175.19999694824</ele>
        <time>2020-07-06T10:20:47.000Z</time>
      </trkpt>
      <trkpt lat="43.51114" lon="0.03039">
        <ele>174.80000305176</ele>
        <time>2020-07-06T10:20:51.000Z</time>
      </trkpt>
      <trkpt lat="43.51129" lon="0.03044">
        <ele>174.60000610352</ele>
        <time>2020-07-06T10:20:53.000Z</time>
      </trkpt>
      <trkpt lat="43.51136" lon="0.03046">
        <ele>174.60000610352</ele>
        <time>2020-07-06T10:20:54.000Z</time>
      </trkpt>
      <trkpt lat="43.51151" lon="0.03052">
        <ele>174.60000610352</ele>
        <time>2020-07-06T10:20:56.000Z</time>
      </trkpt>
      <trkpt lat="43.51159" lon="0.03054">
        <ele>174.60000610352</ele>
        <time>2020-07-06T10:20:57.000Z</time>
      </trkpt>
      <trkpt lat="43.51172" lon="0.0306">
        <ele>174.60000610352</ele>
        <time>2020-07-06T10:20:59.000Z</time>
      </trkpt>
      <trkpt lat="43.51183" lon="0.03072">
        <ele>174.60000610352</ele>
        <time>2020-07-06T10:21:01.000Z</time>
      </trkpt>
      <trkpt lat="43.51191" lon="0.03088">
        <ele>174.60000610352</ele>
        <time>2020-07-06T10:21:03.000Z</time>
      </trkpt>
      <trkpt lat="43.51196" lon="0.03095">
        <ele>174.60000610352</ele>
        <time>2020-07-06T10:21:04.000Z</time>
      </trkpt>
      <trkpt lat="43.51205" lon="0.03107">
        <ele>174.60000610352</ele>
        <time>2020-07-06T10:21:06.000Z</time>
      </trkpt>
      <trkpt lat="43.51211" lon="0.03123">
        <ele>174.60000610352</ele>
        <time>2020-07-06T10:21:08.000Z</time>
      </trkpt>
      <trkpt lat="43.51217" lon="0.03169">
        <ele>174.80000305176</ele>
        <time>2020-07-06T10:21:13.000Z</time>
      </trkpt>
      <trkpt lat="43.5122" lon="0.03197">
        <ele>175</ele>
        <time>2020-07-06T10:21:16.000Z</time>
      </trkpt>
      <trkpt lat="43.51227" lon="0.03211">
        <ele>175.19999694824</ele>
        <time>2020-07-06T10:21:18.000Z</time>
      </trkpt>
      <trkpt lat="43.51237" lon="0.03219">
        <ele>175.39999389648</ele>
        <time>2020-07-06T10:21:20.000Z</time>
      </trkpt>
      <trkpt lat="43.51243" lon="0.03222">
        <ele>175.39999389648</ele>
        <time>2020-07-06T10:21:21.000Z</time>
      </trkpt>
      <trkpt lat="43.51266" lon="0.03235">
        <ele>175.80000305176</ele>
        <time>2020-07-06T10:21:25.000Z</time>
      </trkpt>
      <trkpt lat="43.51282" lon="0.03245">
        <ele>176</ele>
        <time>2020-07-06T10:21:28.000Z</time>
      </trkpt>
      <trkpt lat="43.51291" lon="0.03255">
        <ele>176.19999694824</ele>
        <time>2020-07-06T10:21:30.000Z</time>
      </trkpt>
      <trkpt lat="43.51293" lon="0.03262">
        <ele>176.19999694824</ele>
        <time>2020-07-06T10:21:31.000Z</time>
      </trkpt>
      <trkpt lat="43.51293" lon="0.0327">
        <ele>176.19999694824</ele>
        <time>2020-07-06T10:21:32.000Z</time>
      </trkpt>
      <trkpt lat="43.51287" lon="0.0329">
        <ele>176.19999694824</ele>
        <time>2020-07-06T10:21:34.000Z</time>
      </trkpt>
      <trkpt lat="43.51268" lon="0.03348">
        <ele>175.39999389648</ele>
        <time>2020-07-06T10:21:40.000Z</time>
      </trkpt>
      <trkpt lat="43.51257" lon="0.03388">
        <ele>175</ele>
        <time>2020-07-06T10:21:44.000Z</time>
      </trkpt>
      <trkpt lat="43.51257" lon="0.03398">
        <ele>175</ele>
        <time>2020-07-06T10:21:45.000Z</time>
      </trkpt>
      <trkpt lat="43.51257" lon="0.03408">
        <ele>175</ele>
        <time>2020-07-06T10:21:46.000Z</time>
      </trkpt>
      <trkpt lat="43.51261" lon="0.03439">
        <ele>175</ele>
        <time>2020-07-06T10:21:49.000Z</time>
      </trkpt>
      <trkpt lat="43.51269" lon="0.03512">
        <ele>174.80000305176</ele>
        <time>2020-07-06T10:21:56.000Z</time>
      </trkpt>
      <trkpt lat="43.5127" lon="0.03523">
        <ele>174.80000305176</ele>
        <time>2020-07-06T10:21:57.000Z</time>
      </trkpt>
      <trkpt lat="43.51273" lon="0.03543">
        <ele>174.80000305176</ele>
        <time>2020-07-06T10:21:59.000Z</time>
      </trkpt>
      <trkpt lat="43.51281" lon="0.03604">
        <ele>175.19999694824</ele>
        <time>2020-07-06T10:22:05.000Z</time>
      </trkpt>
      <trkpt lat="43.51291" lon="0.03661">
        <ele>175.60000610352</ele>
        <time>2020-07-06T10:22:11.000Z</time>
      </trkpt>
      <trkpt lat="43.51294" lon="0.03668">
        <ele>175.80000305176</ele>
        <time>2020-07-06T10:22:12.000Z</time>
      </trkpt>
      <trkpt lat="43.51298" lon="0.03672">
        <ele>176</ele>
        <time>2020-07-06T10:22:13.000Z</time>
      </trkpt>
      <trkpt lat="43.51307" lon="0.03673">
        <ele>176.39999389648</ele>
        <time>2020-07-06T10:22:15.000Z</time>
      </trkpt>
      <trkpt lat="43.5133" lon="0.03667">
        <ele>177</ele>
        <time>2020-07-06T10:22:19.000Z</time>
      </trkpt>
      <trkpt lat="43.51336" lon="0.03665">
        <ele>177</ele>
        <time>2020-07-06T10:22:20.000Z</time>
      </trkpt>
      <trkpt lat="43.5137" lon="0.03662">
        <ele>177.60000610352</ele>
        <time>2020-07-06T10:22:25.000Z</time>
      </trkpt>
      <trkpt lat="43.51412" lon="0.03665">
        <ele>178</ele>
        <time>2020-07-06T10:22:31.000Z</time>
      </trkpt>
      <trkpt lat="43.51419" lon="0.03664">
        <ele>178</ele>
        <time>2020-07-06T10:22:32.000Z</time>
      </trkpt>
      <trkpt lat="43.51476" lon="0.03657">
        <ele>177.80000305176</ele>
        <time>2020-07-06T10:22:40.000Z</time>
      </trkpt>
      <trkpt lat="43.51484" lon="0.03656">
        <ele>177.80000305176</ele>
        <time>2020-07-06T10:22:41.000Z</time>
      </trkpt>
      <trkpt lat="43.51542" lon="0.03659">
        <ele>177.80000305176</ele>
        <time>2020-07-06T10:22:49.000Z</time>
      </trkpt>
      <trkpt lat="43.51556" lon="0.03661">
        <ele>177.60000610352</ele>
        <time>2020-07-06T10:22:51.000Z</time>
      </trkpt>
      <trkpt lat="43.51606" lon="0.0366">
        <ele>177.39999389648</ele>
        <time>2020-07-06T10:22:58.000Z</time>
      </trkpt>
      <trkpt lat="43.51637" lon="0.03653">
        <ele>177.60000610352</ele>
        <time>2020-07-06T10:23:03.000Z</time>
      </trkpt>
      <trkpt lat="43.51641" lon="0.03643">
        <ele>177.60000610352</ele>
        <time>2020-07-06T10:23:05.000Z</time>
      </trkpt>
      <trkpt lat="43.5164" lon="0.03635">
        <ele>177.60000610352</ele>
        <time>2020-07-06T10:23:06.000Z</time>
      </trkpt>
      <trkpt lat="43.51636" lon="0.0362">
        <ele>177.60000610352</ele>
        <time>2020-07-06T10:23:08.000Z</time>
      </trkpt>
      <trkpt lat="43.51623" lon="0.03566">
        <ele>177</ele>
        <time>2020-07-06T10:23:14.000Z</time>
      </trkpt>
      <trkpt lat="43.51623" lon="0.03556">
        <ele>176.80000305176</ele>
        <time>2020-07-06T10:23:15.000Z</time>
      </trkpt>
      <trkpt lat="43.51626" lon="0.03547">
        <ele>176.60000610352</ele>
        <time>2020-07-06T10:23:16.000Z</time>
      </trkpt>
      <trkpt lat="43.51637" lon="0.03535">
        <ele>176</ele>
        <time>2020-07-06T10:23:18.000Z</time>
      </trkpt>
      <trkpt lat="43.51658" lon="0.03526">
        <ele>175.80000305176</ele>
        <time>2020-07-06T10:23:21.000Z</time>
      </trkpt>
      <trkpt lat="43.51665" lon="0.03522">
        <ele>175.60000610352</ele>
        <time>2020-07-06T10:23:22.000Z</time>
      </trkpt>
      <trkpt lat="43.51672" lon="0.03518">
        <ele>175.60000610352</ele>
        <time>2020-07-06T10:23:23.000Z</time>
      </trkpt>
      <trkpt lat="43.51697" lon="0.03494">
        <ele>175</ele>
        <time>2020-07-06T10:23:27.000Z</time>
      </trkpt>
      <trkpt lat="43.51702" lon="0.03486">
        <ele>175</ele>
        <time>2020-07-06T10:23:28.000Z</time>
      </trkpt>
      <trkpt lat="43.51711" lon="0.0347">
        <ele>174.60000610352</ele>
        <time>2020-07-06T10:23:30.000Z</time>
      </trkpt>
      <trkpt lat="43.51727" lon="0.03435">
        <ele>174.19999694824</ele>
        <time>2020-07-06T10:23:34.000Z</time>
      </trkpt>
      <trkpt lat="43.51736" lon="0.03418">
        <ele>174.19999694824</ele>
        <time>2020-07-06T10:23:36.000Z</time>
      </trkpt>
      <trkpt lat="43.51745" lon="0.03402">
        <ele>174.39999389648</ele>
        <time>2020-07-06T10:23:38.000Z</time>
      </trkpt>
      <trkpt lat="43.51772" lon="0.03353">
        <ele>174.39999389648</ele>
        <time>2020-07-06T10:23:44.000Z</time>
      </trkpt>
      <trkpt lat="43.51808" lon="0.0329">
        <ele>174.60000610352</ele>
        <time>2020-07-06T10:23:52.000Z</time>
      </trkpt>
      <trkpt lat="43.51813" lon="0.03283">
        <ele>174.60000610352</ele>
        <time>2020-07-06T10:23:53.000Z</time>
      </trkpt>
      <trkpt lat="43.51823" lon="0.0327">
        <ele>174.60000610352</ele>
        <time>2020-07-06T10:23:55.000Z</time>
      </trkpt>
      <trkpt lat="43.51835" lon="0.0326">
        <ele>174.60000610352</ele>
        <time>2020-07-06T10:23:57.000Z</time>
      </trkpt>
      <trkpt lat="43.5184" lon="0.03254">
        <ele>174.60000610352</ele>
        <time>2020-07-06T10:23:58.000Z</time>
      </trkpt>
      <trkpt lat="43.51862" lon="0.03232">
        <ele>174.80000305176</ele>
        <time>2020-07-06T10:24:02.000Z</time>
      </trkpt>
      <trkpt lat="43.51896" lon="0.03222">
        <ele>174.80000305176</ele>
        <time>2020-07-06T10:24:07.000Z</time>
      </trkpt>
      <trkpt lat="43.5191" lon="0.0322">
        <ele>174.80000305176</ele>
        <time>2020-07-06T10:24:09.000Z</time>
      </trkpt>
      <trkpt lat="43.51932" lon="0.03222">
        <ele>174.80000305176</ele>
        <time>2020-07-06T10:24:12.000Z</time>
      </trkpt>
      <trkpt lat="43.51983" lon="0.03216">
        <ele>174.80000305176</ele>
        <time>2020-07-06T10:24:19.000Z</time>
      </trkpt>
      <trkpt lat="43.52021" lon="0.03214">
        <ele>174.80000305176</ele>
        <time>2020-07-06T10:24:24.000Z</time>
      </trkpt>
      <trkpt lat="43.5205" lon="0.03207">
        <ele>174.60000610352</ele>
        <time>2020-07-06T10:24:28.000Z</time>
      </trkpt>
      <trkpt lat="43.52058" lon="0.03208">
        <ele>174.60000610352</ele>
        <time>2020-07-06T10:24:29.000Z</time>
      </trkpt>
      <trkpt lat="43.52065" lon="0.03209">
        <ele>174.60000610352</ele>
        <time>2020-07-06T10:24:30.000Z</time>
      </trkpt>
      <trkpt lat="43.52079" lon="0.03217">
        <ele>174.39999389648</ele>
        <time>2020-07-06T10:24:32.000Z</time>
      </trkpt>
      <trkpt lat="43.52091" lon="0.03227">
        <ele>174.39999389648</ele>
        <time>2020-07-06T10:24:34.000Z</time>
      </trkpt>
      <trkpt lat="43.52109" lon="0.03246">
        <ele>174.60000610352</ele>
        <time>2020-07-06T10:24:37.000Z</time>
      </trkpt>
      <trkpt lat="43.52143" lon="0.03269">
        <ele>175.19999694824</ele>
        <time>2020-07-06T10:24:42.000Z</time>
      </trkpt>
      <trkpt lat="43.52171" lon="0.03282">
        <ele>175.19999694824</ele>
        <time>2020-07-06T10:24:46.000Z</time>
      </trkpt>
      <trkpt lat="43.52179" lon="0.03283">
        <ele>175.19999694824</ele>
        <time>2020-07-06T10:24:47.000Z</time>
      </trkpt>
      <trkpt lat="43.52208" lon="0.0328">
        <ele>175</ele>
        <time>2020-07-06T10:24:51.000Z</time>
      </trkpt>
      <trkpt lat="43.52215" lon="0.03276">
        <ele>175</ele>
        <time>2020-07-06T10:24:52.000Z</time>
      </trkpt>
      <trkpt lat="43.52221" lon="0.03271">
        <ele>174.80000305176</ele>
        <time>2020-07-06T10:24:53.000Z</time>
      </trkpt>
      <trkpt lat="43.52232" lon="0.03256">
        <ele>174.80000305176</ele>
        <time>2020-07-06T10:24:55.000Z</time>
      </trkpt>
      <trkpt lat="43.52246" lon="0.03232">
        <ele>174.80000305176</ele>
        <time>2020-07-06T10:24:58.000Z</time>
      </trkpt>
      <trkpt lat="43.52257" lon="0.03218">
        <ele>174.60000610352</ele>
        <time>2020-07-06T10:25:00.000Z</time>
      </trkpt>
      <trkpt lat="43.52263" lon="0.03212">
        <ele>174.60000610352</ele>
        <time>2020-07-06T10:25:01.000Z</time>
      </trkpt>
      <trkpt lat="43.52281" lon="0.03192">
        <ele>174.39999389648</ele>
        <time>2020-07-06T10:25:04.000Z</time>
      </trkpt>
      <trkpt lat="43.52293" lon="0.03182">
        <ele>174.39999389648</ele>
        <time>2020-07-06T10:25:06.000Z</time>
      </trkpt>
      <trkpt lat="43.52321" lon="0.03158">
        <ele>174.60000610352</ele>
        <time>2020-07-06T10:25:11.000Z</time>
      </trkpt>
      <trkpt lat="43.52333" lon="0.0316">
        <ele>175</ele>
        <time>2020-07-06T10:25:13.000Z</time>
      </trkpt>
      <trkpt lat="43.52342" lon="0.03171">
        <ele>175.39999389648</ele>
        <time>2020-07-06T10:25:15.000Z</time>
      </trkpt>
      <trkpt lat="43.52348" lon="0.03176">
        <ele>175.60000610352</ele>
        <time>2020-07-06T10:25:16.000Z</time>
      </trkpt>
      <trkpt lat="43.52353" lon="0.03179">
        <ele>175.80000305176</ele>
        <time>2020-07-06T10:25:17.000Z</time>
      </trkpt>
      <trkpt lat="43.52359" lon="0.03181">
        <ele>176</ele>
        <time>2020-07-06T10:25:18.000Z</time>
      </trkpt>
      <trkpt lat="43.52372" lon="0.03186">
        <ele>176</ele>
        <time>2020-07-06T10:25:20.000Z</time>
      </trkpt>
      <trkpt lat="43.52404" lon="0.03189">
        <ele>175.80000305176</ele>
        <time>2020-07-06T10:25:25.000Z</time>
      </trkpt>
      <trkpt lat="43.52418" lon="0.03184">
        <ele>175.80000305176</ele>
        <time>2020-07-06T10:25:27.000Z</time>
      </trkpt>
      <trkpt lat="43.5243" lon="0.03176">
        <ele>175.39999389648</ele>
        <time>2020-07-06T10:25:29.000Z</time>
      </trkpt>
      <trkpt lat="43.52446" lon="0.03164">
        <ele>175</ele>
        <time>2020-07-06T10:25:32.000Z</time>
      </trkpt>
      <trkpt lat="43.52456" lon="0.03154">
        <ele>175</ele>
        <time>2020-07-06T10:25:34.000Z</time>
      </trkpt>
      <trkpt lat="43.5246" lon="0.03148">
        <ele>174.80000305176</ele>
        <time>2020-07-06T10:25:35.000Z</time>
      </trkpt>
      <trkpt lat="43.52469" lon="0.03136">
        <ele>174.60000610352</ele>
        <time>2020-07-06T10:25:37.000Z</time>
      </trkpt>
      <trkpt lat="43.52484" lon="0.03108">
        <ele>174.39999389648</ele>
        <time>2020-07-06T10:25:41.000Z</time>
      </trkpt>
      <trkpt lat="43.52495" lon="0.03088">
        <ele>174.39999389648</ele>
        <time>2020-07-06T10:25:44.000Z</time>
      </trkpt>
      <trkpt lat="43.52504" lon="0.03079">
        <ele>174</ele>
        <time>2020-07-06T10:25:46.000Z</time>
      </trkpt>
      <trkpt lat="43.52515" lon="0.03071">
        <ele>173.80000305176</ele>
        <time>2020-07-06T10:25:48.000Z</time>
      </trkpt>
      <trkpt lat="43.52526" lon="0.03067">
        <ele>173.60000610352</ele>
        <time>2020-07-06T10:25:50.000Z</time>
      </trkpt>
      <trkpt lat="43.5253" lon="0.03065">
        <ele>173.60000610352</ele>
        <time>2020-07-06T10:25:51.000Z</time>
      </trkpt>
      <trkpt lat="43.52536" lon="0.03062">
        <ele>173.60000610352</ele>
        <time>2020-07-06T10:25:53.000Z</time>
      </trkpt>
      <trkpt lat="43.52538" lon="0.03058">
        <ele>173.39999389648</ele>
        <time>2020-07-06T10:25:54.000Z</time>
      </trkpt>
      <trkpt lat="43.52538" lon="0.03053">
        <ele>173.39999389648</ele>
        <time>2020-07-06T10:25:55.000Z</time>
      </trkpt>
      <trkpt lat="43.52536" lon="0.03039">
        <ele>173.19999694824</ele>
        <time>2020-07-06T10:25:57.000Z</time>
      </trkpt>
      <trkpt lat="43.52535" lon="0.02999">
        <ele>172.60000610352</ele>
        <time>2020-07-06T10:26:02.000Z</time>
      </trkpt>
      <trkpt lat="43.52538" lon="0.02945">
        <ele>171.60000610352</ele>
        <time>2020-07-06T10:26:08.000Z</time>
      </trkpt>
      <trkpt lat="43.52539" lon="0.02936">
        <ele>171.39999389648</ele>
        <time>2020-07-06T10:26:09.000Z</time>
      </trkpt>
      <trkpt lat="43.52548" lon="0.0287">
        <ele>171.39999389648</ele>
        <time>2020-07-06T10:26:16.000Z</time>
      </trkpt>
      <trkpt lat="43.52565" lon="0.02816">
        <ele>171.60000610352</ele>
        <time>2020-07-06T10:26:22.000Z</time>
      </trkpt>
      <trkpt lat="43.52583" lon="0.02766">
        <ele>171.80000305176</ele>
        <time>2020-07-06T10:26:28.000Z</time>
      </trkpt>
      <trkpt lat="43.52585" lon="0.02751">
        <ele>171.80000305176</ele>
        <time>2020-07-06T10:26:30.000Z</time>
      </trkpt>
      <trkpt lat="43.52588" lon="0.02687">
        <ele>172.60000610352</ele>
        <time>2020-07-06T10:26:37.000Z</time>
      </trkpt>
      <trkpt lat="43.52589" lon="0.02678">
        <ele>173</ele>
        <time>2020-07-06T10:26:38.000Z</time>
      </trkpt>
      <trkpt lat="43.52591" lon="0.02605">
        <ele>173.39999389648</ele>
        <time>2020-07-06T10:26:46.000Z</time>
      </trkpt>
      <trkpt lat="43.52592" lon="0.0254">
        <ele>172</ele>
        <time>2020-07-06T10:26:52.000Z</time>
      </trkpt>
      <trkpt lat="43.52592" lon="0.02518">
        <ele>171.19999694824</ele>
        <time>2020-07-06T10:26:54.000Z</time>
      </trkpt>
      <trkpt lat="43.52592" lon="0.02497">
        <ele>170.80000305176</ele>
        <time>2020-07-06T10:26:56.000Z</time>
      </trkpt>
      <trkpt lat="43.52587" lon="0.02443">
        <ele>170.39999389648</ele>
        <time>2020-07-06T10:27:01.000Z</time>
      </trkpt>
      <trkpt lat="43.52575" lon="0.02392">
        <ele>170.60000610352</ele>
        <time>2020-07-06T10:27:06.000Z</time>
      </trkpt>
      <trkpt lat="43.5255" lon="0.02338">
        <ele>170.60000610352</ele>
        <time>2020-07-06T10:27:12.000Z</time>
      </trkpt>
      <trkpt lat="43.52525" lon="0.02301">
        <ele>171</ele>
        <time>2020-07-06T10:27:17.000Z</time>
      </trkpt>
      <trkpt lat="43.52523" lon="0.02294">
        <ele>171</ele>
        <time>2020-07-06T10:27:18.000Z</time>
      </trkpt>
      <trkpt lat="43.52522" lon="0.02287">
        <ele>171</ele>
        <time>2020-07-06T10:27:19.000Z</time>
      </trkpt>
      <trkpt lat="43.52524" lon="0.02281">
        <ele>171</ele>
        <time>2020-07-06T10:27:20.000Z</time>
      </trkpt>
      <trkpt lat="43.52527" lon="0.02276">
        <ele>171</ele>
        <time>2020-07-06T10:27:21.000Z</time>
      </trkpt>
      <trkpt lat="43.52538" lon="0.0227">
        <ele>171</ele>
        <time>2020-07-06T10:27:23.000Z</time>
      </trkpt>
      <trkpt lat="43.5257" lon="0.02254">
        <ele>171</ele>
        <time>2020-07-06T10:27:28.000Z</time>
      </trkpt>
      <trkpt lat="43.52618" lon="0.0223">
        <ele>170.60000610352</ele>
        <time>2020-07-06T10:27:35.000Z</time>
      </trkpt>
      <trkpt lat="43.52675" lon="0.022">
        <ele>170</ele>
        <time>2020-07-06T10:27:43.000Z</time>
      </trkpt>
      <trkpt lat="43.52704" lon="0.02185">
        <ele>170</ele>
        <time>2020-07-06T10:27:47.000Z</time>
      </trkpt>
      <trkpt lat="43.52747" lon="0.02163">
        <ele>169.60000610352</ele>
        <time>2020-07-06T10:27:53.000Z</time>
      </trkpt>
      <trkpt lat="43.52783" lon="0.02144">
        <ele>169.39999389648</ele>
        <time>2020-07-06T10:27:58.000Z</time>
      </trkpt>
      <trkpt lat="43.52839" lon="0.02115">
        <ele>169.19999694824</ele>
        <time>2020-07-06T10:28:06.000Z</time>
      </trkpt>
      <trkpt lat="43.52881" lon="0.02093">
        <ele>169</ele>
        <time>2020-07-06T10:28:12.000Z</time>
      </trkpt>
      <trkpt lat="43.52938" lon="0.02063">
        <ele>168.80000305176</ele>
        <time>2020-07-06T10:28:20.000Z</time>
      </trkpt>
      <trkpt lat="43.52965" lon="0.02044">
        <ele>168.80000305176</ele>
        <time>2020-07-06T10:28:24.000Z</time>
      </trkpt>
      <trkpt lat="43.52997" lon="0.02015">
        <ele>169</ele>
        <time>2020-07-06T10:28:29.000Z</time>
      </trkpt>
      <trkpt lat="43.53009" lon="0.02003">
        <ele>168.80000305176</ele>
        <time>2020-07-06T10:28:31.000Z</time>
      </trkpt>
      <trkpt lat="43.53014" lon="0.01996">
        <ele>168.80000305176</ele>
        <time>2020-07-06T10:28:32.000Z</time>
      </trkpt>
      <trkpt lat="43.53019" lon="0.01988">
        <ele>168.80000305176</ele>
        <time>2020-07-06T10:28:33.000Z</time>
      </trkpt>
      <trkpt lat="43.53033" lon="0.01963">
        <ele>169</ele>
        <time>2020-07-06T10:28:36.000Z</time>
      </trkpt>
      <trkpt lat="43.53046" lon="0.01951">
        <ele>169</ele>
        <time>2020-07-06T10:28:38.000Z</time>
      </trkpt>
      <trkpt lat="43.53089" lon="0.01929">
        <ele>168.60000610352</ele>
        <time>2020-07-06T10:28:44.000Z</time>
      </trkpt>
      <trkpt lat="43.53138" lon="0.01907">
        <ele>168.80000305176</ele>
        <time>2020-07-06T10:28:51.000Z</time>
      </trkpt>
      <trkpt lat="43.5315" lon="0.01896">
        <ele>168.80000305176</ele>
        <time>2020-07-06T10:28:53.000Z</time>
      </trkpt>
      <trkpt lat="43.53154" lon="0.01888">
        <ele>168.80000305176</ele>
        <time>2020-07-06T10:28:54.000Z</time>
      </trkpt>
      <trkpt lat="43.53159" lon="0.01879">
        <ele>168.80000305176</ele>
        <time>2020-07-06T10:28:55.000Z</time>
      </trkpt>
      <trkpt lat="43.53171" lon="0.01866">
        <ele>168.60000610352</ele>
        <time>2020-07-06T10:28:57.000Z</time>
      </trkpt>
      <trkpt lat="43.53186" lon="0.01862">
        <ele>168.39999389648</ele>
        <time>2020-07-06T10:28:59.000Z</time>
      </trkpt>
      <trkpt lat="43.53193" lon="0.01862">
        <ele>168.19999694824</ele>
        <time>2020-07-06T10:29:00.000Z</time>
      </trkpt>
      <trkpt lat="43.53239" lon="0.01858">
        <ele>167.80000305176</ele>
        <time>2020-07-06T10:29:06.000Z</time>
      </trkpt>
      <trkpt lat="43.53246" lon="0.01855">
        <ele>167.80000305176</ele>
        <time>2020-07-06T10:29:07.000Z</time>
      </trkpt>
      <trkpt lat="43.5329" lon="0.01836">
        <ele>167.80000305176</ele>
        <time>2020-07-06T10:29:13.000Z</time>
      </trkpt>
      <trkpt lat="43.53327" lon="0.01822">
        <ele>167.80000305176</ele>
        <time>2020-07-06T10:29:18.000Z</time>
      </trkpt>
      <trkpt lat="43.53341" lon="0.01815">
        <ele>167.80000305176</ele>
        <time>2020-07-06T10:29:20.000Z</time>
      </trkpt>
      <trkpt lat="43.53348" lon="0.01811">
        <ele>167.80000305176</ele>
        <time>2020-07-06T10:29:21.000Z</time>
      </trkpt>
      <trkpt lat="43.5336" lon="0.01798">
        <ele>167.80000305176</ele>
        <time>2020-07-06T10:29:23.000Z</time>
      </trkpt>
      <trkpt lat="43.53391" lon="0.01737">
        <ele>168</ele>
        <time>2020-07-06T10:29:30.000Z</time>
      </trkpt>
      <trkpt lat="43.53395" lon="0.01728">
        <ele>168</ele>
        <time>2020-07-06T10:29:31.000Z</time>
      </trkpt>
      <trkpt lat="43.53399" lon="0.01708">
        <ele>168</ele>
        <time>2020-07-06T10:29:33.000Z</time>
      </trkpt>
      <trkpt lat="43.53401" lon="0.01698">
        <ele>167.80000305176</ele>
        <time>2020-07-06T10:29:34.000Z</time>
      </trkpt>
      <trkpt lat="43.5341" lon="0.01624">
        <ele>167.60000610352</ele>
        <time>2020-07-06T10:29:41.000Z</time>
      </trkpt>
      <trkpt lat="43.5341" lon="0.01613">
        <ele>167.39999389648</ele>
        <time>2020-07-06T10:29:42.000Z</time>
      </trkpt>
      <trkpt lat="43.53406" lon="0.01593">
        <ele>167.19999694824</ele>
        <time>2020-07-06T10:29:44.000Z</time>
      </trkpt>
      <trkpt lat="43.53402" lon="0.01583">
        <ele>167.19999694824</ele>
        <time>2020-07-06T10:29:45.000Z</time>
      </trkpt>
      <trkpt lat="43.53397" lon="0.01563">
        <ele>167</ele>
        <time>2020-07-06T10:29:47.000Z</time>
      </trkpt>
      <trkpt lat="43.53397" lon="0.01541">
        <ele>167</ele>
        <time>2020-07-06T10:29:49.000Z</time>
      </trkpt>
      <trkpt lat="43.534" lon="0.01521">
        <ele>166.80000305176</ele>
        <time>2020-07-06T10:29:51.000Z</time>
      </trkpt>
      <trkpt lat="43.53401" lon="0.01511">
        <ele>166.80000305176</ele>
        <time>2020-07-06T10:29:52.000Z</time>
      </trkpt>
      <trkpt lat="43.53401" lon="0.01489">
        <ele>166.80000305176</ele>
        <time>2020-07-06T10:29:54.000Z</time>
      </trkpt>
      <trkpt lat="43.53393" lon="0.01415">
        <ele>166.80000305176</ele>
        <time>2020-07-06T10:30:01.000Z</time>
      </trkpt>
      <trkpt lat="43.53384" lon="0.01341">
        <ele>166.80000305176</ele>
        <time>2020-07-06T10:30:08.000Z</time>
      </trkpt>
      <trkpt lat="43.53381" lon="0.0132">
        <ele>166.80000305176</ele>
        <time>2020-07-06T10:30:10.000Z</time>
      </trkpt>
      <trkpt lat="43.53375" lon="0.01237">
        <ele>167</ele>
        <time>2020-07-06T10:30:18.000Z</time>
      </trkpt>
      <trkpt lat="43.53375" lon="0.01226">
        <ele>167.19999694824</ele>
        <time>2020-07-06T10:30:19.000Z</time>
      </trkpt>
      <trkpt lat="43.53369" lon="0.01143">
        <ele>167</ele>
        <time>2020-07-06T10:30:27.000Z</time>
      </trkpt>
      <trkpt lat="43.53368" lon="0.01133">
        <ele>166.80000305176</ele>
        <time>2020-07-06T10:30:28.000Z</time>
      </trkpt>
      <trkpt lat="43.53352" lon="0.01054">
        <ele>166.80000305176</ele>
        <time>2020-07-06T10:30:36.000Z</time>
      </trkpt>
      <trkpt lat="43.53335" lon="0.00975">
        <ele>166.80000305176</ele>
        <time>2020-07-06T10:30:44.000Z</time>
      </trkpt>
      <trkpt lat="43.53328" lon="0.00946">
        <ele>166.60000610352</ele>
        <time>2020-07-06T10:30:47.000Z</time>
      </trkpt>
      <trkpt lat="43.53314" lon="0.0088">
        <ele>166.60000610352</ele>
        <time>2020-07-06T10:30:54.000Z</time>
      </trkpt>
      <trkpt lat="43.53312" lon="0.00872">
        <ele>166.60000610352</ele>
        <time>2020-07-06T10:30:55.000Z</time>
      </trkpt>
      <trkpt lat="43.53313" lon="0.0086">
        <ele>166.60000610352</ele>
        <time>2020-07-06T10:30:57.000Z</time>
      </trkpt>
      <trkpt lat="43.53323" lon="0.00856">
        <ele>166.80000305176</ele>
        <time>2020-07-06T10:30:59.000Z</time>
      </trkpt>
      <trkpt lat="43.53329" lon="0.00856">
        <ele>166.60000610352</ele>
        <time>2020-07-06T10:31:00.000Z</time>
      </trkpt>
      <trkpt lat="43.53363" lon="0.00854">
        <ele>166.80000305176</ele>
        <time>2020-07-06T10:31:05.000Z</time>
      </trkpt>
      <trkpt lat="43.53416" lon="0.00848">
        <ele>166.19999694824</ele>
        <time>2020-07-06T10:31:12.000Z</time>
      </trkpt>
      <trkpt lat="43.53477" lon="0.00842">
        <ele>166</ele>
        <time>2020-07-06T10:31:20.000Z</time>
      </trkpt>
      <trkpt lat="43.53485" lon="0.00841">
        <ele>165.80000305176</ele>
        <time>2020-07-06T10:31:21.000Z</time>
      </trkpt>
      <trkpt lat="43.53492" lon="0.0084">
        <ele>165.80000305176</ele>
        <time>2020-07-06T10:31:22.000Z</time>
      </trkpt>
      <trkpt lat="43.53552" lon="0.00834">
        <ele>165.60000610352</ele>
        <time>2020-07-06T10:31:30.000Z</time>
      </trkpt>
      <trkpt lat="43.53575" lon="0.00832">
        <ele>165.80000305176</ele>
        <time>2020-07-06T10:31:33.000Z</time>
      </trkpt>
      <trkpt lat="43.53635" lon="0.00825">
        <ele>165.80000305176</ele>
        <time>2020-07-06T10:31:41.000Z</time>
      </trkpt>
      <trkpt lat="43.5365" lon="0.00825">
        <ele>165.80000305176</ele>
        <time>2020-07-06T10:31:43.000Z</time>
      </trkpt>
      <trkpt lat="43.53706" lon="0.00824">
        <ele>166.39999389648</ele>
        <time>2020-07-06T10:31:50.000Z</time>
      </trkpt>
      <trkpt lat="43.53722" lon="0.00823">
        <ele>166.39999389648</ele>
        <time>2020-07-06T10:31:52.000Z</time>
      </trkpt>
      <trkpt lat="43.53777" lon="0.00817">
        <ele>166.39999389648</ele>
        <time>2020-07-06T10:31:59.000Z</time>
      </trkpt>
      <trkpt lat="43.53794" lon="0.00813">
        <ele>166.19999694824</ele>
        <time>2020-07-06T10:32:01.000Z</time>
      </trkpt>
      <trkpt lat="43.53849" lon="0.00787">
        <ele>166</ele>
        <time>2020-07-06T10:32:08.000Z</time>
      </trkpt>
      <trkpt lat="43.53903" lon="0.0076">
        <ele>165.80000305176</ele>
        <time>2020-07-06T10:32:15.000Z</time>
      </trkpt>
      <trkpt lat="43.53919" lon="0.00751">
        <ele>165.80000305176</ele>
        <time>2020-07-06T10:32:17.000Z</time>
      </trkpt>
      <trkpt lat="43.53971" lon="0.0072">
        <ele>165.80000305176</ele>
        <time>2020-07-06T10:32:24.000Z</time>
      </trkpt>
      <trkpt lat="43.53987" lon="0.00714">
        <ele>165.60000610352</ele>
        <time>2020-07-06T10:32:26.000Z</time>
      </trkpt>
      <trkpt lat="43.54041" lon="0.00689">
        <ele>165.80000305176</ele>
        <time>2020-07-06T10:32:33.000Z</time>
      </trkpt>
      <trkpt lat="43.54092" lon="0.0066">
        <ele>165</ele>
        <time>2020-07-06T10:32:40.000Z</time>
      </trkpt>
      <trkpt lat="43.54109" lon="0.00651">
        <ele>164.80000305176</ele>
        <time>2020-07-06T10:32:42.000Z</time>
      </trkpt>
      <trkpt lat="43.54153" lon="0.00627">
        <ele>164.60000610352</ele>
        <time>2020-07-06T10:32:48.000Z</time>
      </trkpt>
      <trkpt lat="43.542" lon="0.00601">
        <ele>164.80000305176</ele>
        <time>2020-07-06T10:32:54.000Z</time>
      </trkpt>
      <trkpt lat="43.54252" lon="0.00574">
        <ele>164.60000610352</ele>
        <time>2020-07-06T10:33:01.000Z</time>
      </trkpt>
      <trkpt lat="43.54283" lon="0.00557">
        <ele>164.60000610352</ele>
        <time>2020-07-06T10:33:05.000Z</time>
      </trkpt>
      <trkpt lat="43.54337" lon="0.00528">
        <ele>164</ele>
        <time>2020-07-06T10:33:12.000Z</time>
      </trkpt>
      <trkpt lat="43.54353" lon="0.00519">
        <ele>164</ele>
        <time>2020-07-06T10:33:14.000Z</time>
      </trkpt>
      <trkpt lat="43.54408" lon="0.00487">
        <ele>163.80000305176</ele>
        <time>2020-07-06T10:33:21.000Z</time>
      </trkpt>
      <trkpt lat="43.54431" lon="0.00472">
        <ele>163.80000305176</ele>
        <time>2020-07-06T10:33:24.000Z</time>
      </trkpt>
      <trkpt lat="43.54485" lon="0.00442">
        <ele>163.80000305176</ele>
        <time>2020-07-06T10:33:31.000Z</time>
      </trkpt>
      <trkpt lat="43.54501" lon="0.00433">
        <ele>163.80000305176</ele>
        <time>2020-07-06T10:33:33.000Z</time>
      </trkpt>
      <trkpt lat="43.54524" lon="0.0042">
        <ele>163.60000610352</ele>
        <time>2020-07-06T10:33:36.000Z</time>
      </trkpt>
      <trkpt lat="43.54578" lon="0.00392">
        <ele>163.19999694824</ele>
        <time>2020-07-06T10:33:43.000Z</time>
      </trkpt>
      <trkpt lat="43.54594" lon="0.00384">
        <ele>163</ele>
        <time>2020-07-06T10:33:45.000Z</time>
      </trkpt>
      <trkpt lat="43.54651" lon="0.00358">
        <ele>162.80000305176</ele>
        <time>2020-07-06T10:33:52.000Z</time>
      </trkpt>
      <trkpt lat="43.54668" lon="0.0035">
        <ele>162.60000610352</ele>
        <time>2020-07-06T10:33:54.000Z</time>
      </trkpt>
      <trkpt lat="43.54676" lon="0.00346">
        <ele>162.60000610352</ele>
        <time>2020-07-06T10:33:55.000Z</time>
      </trkpt>
      <trkpt lat="43.54735" lon="0.00316">
        <ele>162.60000610352</ele>
        <time>2020-07-06T10:34:02.000Z</time>
      </trkpt>
      <trkpt lat="43.54751" lon="0.00308">
        <ele>162.39999389648</ele>
        <time>2020-07-06T10:34:04.000Z</time>
      </trkpt>
      <trkpt lat="43.54789" lon="0.00287">
        <ele>162</ele>
        <time>2020-07-06T10:34:09.000Z</time>
      </trkpt>
      <trkpt lat="43.54811" lon="0.00271">
        <ele>161.60000610352</ele>
        <time>2020-07-06T10:34:12.000Z</time>
      </trkpt>
      <trkpt lat="43.54833" lon="0.00256">
        <ele>161.60000610352</ele>
        <time>2020-07-06T10:34:15.000Z</time>
      </trkpt>
      <trkpt lat="43.5484" lon="0.00251">
        <ele>161.60000610352</ele>
        <time>2020-07-06T10:34:16.000Z</time>
      </trkpt>
      <trkpt lat="43.54883" lon="0.00226">
        <ele>161.60000610352</ele>
        <time>2020-07-06T10:34:21.000Z</time>
      </trkpt>
      <trkpt lat="43.54933" lon="0.00198">
        <ele>161.80000305176</ele>
        <time>2020-07-06T10:34:27.000Z</time>
      </trkpt>
      <trkpt lat="43.54952" lon="0.00188">
        <ele>161.80000305176</ele>
        <time>2020-07-06T10:34:29.000Z</time>
      </trkpt>
      <trkpt lat="43.55011" lon="0.00159">
        <ele>162</ele>
        <time>2020-07-06T10:34:36.000Z</time>
      </trkpt>
      <trkpt lat="43.55035" lon="0.00148">
        <ele>162</ele>
        <time>2020-07-06T10:34:39.000Z</time>
      </trkpt>
      <trkpt lat="43.55079" lon="0.00125">
        <ele>162.19999694824</ele>
        <time>2020-07-06T10:34:45.000Z</time>
      </trkpt>
      <trkpt lat="43.55119" lon="0.001">
        <ele>162</ele>
        <time>2020-07-06T10:34:51.000Z</time>
      </trkpt>
      <trkpt lat="43.55162" lon="0.00083">
        <ele>161.80000305176</ele>
        <time>2020-07-06T10:34:57.000Z</time>
      </trkpt>
      <trkpt lat="43.55221" lon="0.00065">
        <ele>161.60000610352</ele>
        <time>2020-07-06T10:35:05.000Z</time>
      </trkpt>
      <trkpt lat="43.55246" lon="0.00059">
        <ele>161.19999694824</ele>
        <time>2020-07-06T10:35:10.000Z</time>
      </trkpt>
      <trkpt lat="43.55247" lon="0.00059">
        <ele>161.19999694824</ele>
        <time>2020-07-06T10:35:13.000Z</time>
      </trkpt>
      <trkpt lat="43.55247" lon="0.00059">
        <ele>161.80000305176</ele>
        <time>2020-07-06T10:35:50.000Z</time>
      </trkpt>
      <trkpt lat="43.55249" lon="0.00069">
        <ele>161.80000305176</ele>
        <time>2020-07-06T10:36:32.000Z</time>
      </trkpt>
      <trkpt lat="43.55253" lon="0.0009">
        <ele>161.80000305176</ele>
        <time>2020-07-06T10:36:36.000Z</time>
      </trkpt>
      <trkpt lat="43.55258" lon="0.00121">
        <ele>161.80000305176</ele>
        <time>2020-07-06T10:36:40.000Z</time>
      </trkpt>
      <trkpt lat="43.55263" lon="0.00153">
        <ele>161.60000610352</ele>
        <time>2020-07-06T10:36:44.000Z</time>
      </trkpt>
      <trkpt lat="43.55264" lon="0.00162">
        <ele>161.60000610352</ele>
        <time>2020-07-06T10:36:45.000Z</time>
      </trkpt>
      <trkpt lat="43.55272" lon="0.00224">
        <ele>161.39999389648</ele>
        <time>2020-07-06T10:36:52.000Z</time>
      </trkpt>
      <trkpt lat="43.55289" lon="0.00303">
        <ele>160.80000305176</ele>
        <time>2020-07-06T10:37:01.000Z</time>
      </trkpt>
      <trkpt lat="43.55291" lon="0.00311">
        <ele>160.80000305176</ele>
        <time>2020-07-06T10:37:02.000Z</time>
      </trkpt>
      <trkpt lat="43.55301" lon="0.0032">
        <ele>160.60000610352</ele>
        <time>2020-07-06T10:37:04.000Z</time>
      </trkpt>
      <trkpt lat="43.55311" lon="0.00321">
        <ele>160.80000305176</ele>
        <time>2020-07-06T10:37:06.000Z</time>
      </trkpt>
      <trkpt lat="43.55316" lon="0.0032">
        <ele>160.60000610352</ele>
        <time>2020-07-06T10:37:07.000Z</time>
      </trkpt>
      <trkpt lat="43.55354" lon="0.00302">
        <ele>160.39999389648</ele>
        <time>2020-07-06T10:37:13.000Z</time>
      </trkpt>
      <trkpt lat="43.55403" lon="0.00282">
        <ele>160.19999694824</ele>
        <time>2020-07-06T10:37:20.000Z</time>
      </trkpt>
      <trkpt lat="43.5546" lon="0.00257">
        <ele>159.80000305176</ele>
        <time>2020-07-06T10:37:28.000Z</time>
      </trkpt>
      <trkpt lat="43.55494" lon="0.00236">
        <ele>159.80000305176</ele>
        <time>2020-07-06T10:37:33.000Z</time>
      </trkpt>
      <trkpt lat="43.555" lon="0.0023">
        <ele>159.80000305176</ele>
        <time>2020-07-06T10:37:34.000Z</time>
      </trkpt>
      <trkpt lat="43.55506" lon="0.00223">
        <ele>159.80000305176</ele>
        <time>2020-07-06T10:37:35.000Z</time>
      </trkpt>
      <trkpt lat="43.55516" lon="0.00207">
        <ele>159.60000610352</ele>
        <time>2020-07-06T10:37:37.000Z</time>
      </trkpt>
      <trkpt lat="43.5552" lon="0.00197">
        <ele>159.60000610352</ele>
        <time>2020-07-06T10:37:38.000Z</time>
      </trkpt>
      <trkpt lat="43.55521" lon="0.00187">
        <ele>159.60000610352</ele>
        <time>2020-07-06T10:37:39.000Z</time>
      </trkpt>
      <trkpt lat="43.5552" lon="0.00166">
        <ele>159.39999389648</ele>
        <time>2020-07-06T10:37:41.000Z</time>
      </trkpt>
      <trkpt lat="43.55505" lon="0.00114">
        <ele>159.39999389648</ele>
        <time>2020-07-06T10:37:46.000Z</time>
      </trkpt>
      <trkpt lat="43.55481" lon="0.00047">
        <ele>159.60000610352</ele>
        <time>2020-07-06T10:37:53.000Z</time>
      </trkpt>
      <trkpt lat="43.55475" lon="0.00031">
        <ele>159.80000305176</ele>
        <time>2020-07-06T10:37:55.000Z</time>
      </trkpt>
      <trkpt lat="43.55466" lon="4.0E-5">
        <ele>159.80000305176</ele>
        <time>2020-07-06T10:37:58.000Z</time>
      </trkpt>
      <trkpt lat="43.55466" lon="-4.0E-5">
        <ele>159.80000305176</ele>
        <time>2020-07-06T10:37:59.000Z</time>
      </trkpt>
      <trkpt lat="43.55468" lon="-9.0E-5">
        <ele>160</ele>
        <time>2020-07-06T10:38:00.000Z</time>
      </trkpt>
      <trkpt lat="43.55472" lon="-0.00012">
        <ele>160.19999694824</ele>
        <time>2020-07-06T10:38:01.000Z</time>
      </trkpt>
      <trkpt lat="43.55486" lon="-0.00014">
        <ele>160.80000305176</ele>
        <time>2020-07-06T10:38:04.000Z</time>
      </trkpt>
      <trkpt lat="43.55491" lon="-0.00015">
        <ele>160.80000305176</ele>
        <time>2020-07-06T10:38:05.000Z</time>
      </trkpt>
      <trkpt lat="43.55529" lon="-0.00015">
        <ele>161</ele>
        <time>2020-07-06T10:38:11.000Z</time>
      </trkpt>
      <trkpt lat="43.55568" lon="-0.00015">
        <ele>160.60000610352</ele>
        <time>2020-07-06T10:38:17.000Z</time>
      </trkpt>
      <trkpt lat="43.55575" lon="-0.00013">
        <ele>160.60000610352</ele>
        <time>2020-07-06T10:38:18.000Z</time>
      </trkpt>
      <trkpt lat="43.55582" lon="-0.00011">
        <ele>160.60000610352</ele>
        <time>2020-07-06T10:38:19.000Z</time>
      </trkpt>
      <trkpt lat="43.55594" lon="-3.0E-5">
        <ele>160.39999389648</ele>
        <time>2020-07-06T10:38:21.000Z</time>
      </trkpt>
      <trkpt lat="43.55599" lon="2.0E-5">
        <ele>160.39999389648</ele>
        <time>2020-07-06T10:38:22.000Z</time>
      </trkpt>
      <trkpt lat="43.5563" lon="0.00043">
        <ele>160.39999389648</ele>
        <time>2020-07-06T10:38:28.000Z</time>
      </trkpt>
      <trkpt lat="43.55664" lon="0.00093">
        <ele>161.80000305176</ele>
        <time>2020-07-06T10:38:35.000Z</time>
      </trkpt>
      <trkpt lat="43.55677" lon="0.00112">
        <ele>162.39999389648</ele>
        <time>2020-07-06T10:38:38.000Z</time>
      </trkpt>
      <trkpt lat="43.55682" lon="0.00118">
        <ele>162.60000610352</ele>
        <time>2020-07-06T10:38:39.000Z</time>
      </trkpt>
      <trkpt lat="43.55688" lon="0.00123">
        <ele>163.19999694824</ele>
        <time>2020-07-06T10:38:41.000Z</time>
      </trkpt>
      <trkpt lat="43.5569" lon="0.00124">
        <ele>163.60000610352</ele>
        <time>2020-07-06T10:38:42.000Z</time>
      </trkpt>
      <trkpt lat="43.5569" lon="0.00124">
        <ele>164</ele>
        <time>2020-07-06T10:38:45.000Z</time>
      </trkpt>
      <trkpt lat="43.5569" lon="0.00124">
        <ele>164.19999694824</ele>
        <time>2020-07-06T10:38:47.000Z</time>
      </trkpt>
      <trkpt lat="43.55693" lon="0.00131">
        <ele>164.39999389648</ele>
        <time>2020-07-06T10:39:05.000Z</time>
      </trkpt>
      <trkpt lat="43.55706" lon="0.0015">
        <ele>164.39999389648</ele>
        <time>2020-07-06T10:39:10.000Z</time>
      </trkpt>
      <trkpt lat="43.55719" lon="0.0017">
        <ele>164.19999694824</ele>
        <time>2020-07-06T10:39:14.000Z</time>
      </trkpt>
      <trkpt lat="43.55727" lon="0.0018">
        <ele>164.19999694824</ele>
        <time>2020-07-06T10:39:16.000Z</time>
      </trkpt>
      <trkpt lat="43.55731" lon="0.00185">
        <ele>164</ele>
        <time>2020-07-06T10:39:17.000Z</time>
      </trkpt>
      <trkpt lat="43.55743" lon="0.00185">
        <ele>163.60000610352</ele>
        <time>2020-07-06T10:39:19.000Z</time>
      </trkpt>
      <trkpt lat="43.55752" lon="0.00174">
        <ele>163.39999389648</ele>
        <time>2020-07-06T10:39:21.000Z</time>
      </trkpt>
      <trkpt lat="43.55755" lon="0.00166">
        <ele>163.39999389648</ele>
        <time>2020-07-06T10:39:22.000Z</time>
      </trkpt>
      <trkpt lat="43.55756" lon="0.00158">
        <ele>163</ele>
        <time>2020-07-06T10:39:23.000Z</time>
      </trkpt>
      <trkpt lat="43.55758" lon="0.00151">
        <ele>162.80000305176</ele>
        <time>2020-07-06T10:39:24.000Z</time>
      </trkpt>
      <trkpt lat="43.55762" lon="0.00146">
        <ele>162.80000305176</ele>
        <time>2020-07-06T10:39:25.000Z</time>
      </trkpt>
      <trkpt lat="43.55767" lon="0.00142">
        <ele>162.60000610352</ele>
        <time>2020-07-06T10:39:26.000Z</time>
      </trkpt>
      <trkpt lat="43.55789" lon="0.00136">
        <ele>162</ele>
        <time>2020-07-06T10:39:29.000Z</time>
      </trkpt>
      <trkpt lat="43.55833" lon="0.00123">
        <ele>160.80000305176</ele>
        <time>2020-07-06T10:39:35.000Z</time>
      </trkpt>
      <trkpt lat="43.55854" lon="0.00116">
        <ele>159.80000305176</ele>
        <time>2020-07-06T10:39:38.000Z</time>
      </trkpt>
      <trkpt lat="43.55868" lon="0.00117">
        <ele>159.19999694824</ele>
        <time>2020-07-06T10:39:40.000Z</time>
      </trkpt>
      <trkpt lat="43.55898" lon="0.00125">
        <ele>159.19999694824</ele>
        <time>2020-07-06T10:39:45.000Z</time>
      </trkpt>
      <trkpt lat="43.5593" lon="0.00121">
        <ele>159.19999694824</ele>
        <time>2020-07-06T10:39:50.000Z</time>
      </trkpt>
      <trkpt lat="43.55937" lon="0.00119">
        <ele>159.19999694824</ele>
        <time>2020-07-06T10:39:51.000Z</time>
      </trkpt>
      <trkpt lat="43.55967" lon="0.00111">
        <ele>159</ele>
        <time>2020-07-06T10:39:55.000Z</time>
      </trkpt>
      <trkpt lat="43.55973" lon="0.00108">
        <ele>158.80000305176</ele>
        <time>2020-07-06T10:39:56.000Z</time>
      </trkpt>
      <trkpt lat="43.55979" lon="0.00104">
        <ele>158.60000610352</ele>
        <time>2020-07-06T10:39:57.000Z</time>
      </trkpt>
      <trkpt lat="43.55984" lon="0.00099">
        <ele>158.39999389648</ele>
        <time>2020-07-06T10:39:58.000Z</time>
      </trkpt>
      <trkpt lat="43.56002" lon="0.00086">
        <ele>158.19999694824</ele>
        <time>2020-07-06T10:40:01.000Z</time>
      </trkpt>
      <trkpt lat="43.56027" lon="0.0008">
        <ele>158.39999389648</ele>
        <time>2020-07-06T10:40:05.000Z</time>
      </trkpt>
      <trkpt lat="43.56034" lon="0.00078">
        <ele>158.60000610352</ele>
        <time>2020-07-06T10:40:06.000Z</time>
      </trkpt>
      <trkpt lat="43.56055" lon="0.00068">
        <ele>158.80000305176</ele>
        <time>2020-07-06T10:40:09.000Z</time>
      </trkpt>
      <trkpt lat="43.56089" lon="0.00058">
        <ele>159.19999694824</ele>
        <time>2020-07-06T10:40:14.000Z</time>
      </trkpt>
      <trkpt lat="43.56096" lon="0.00057">
        <ele>159.39999389648</ele>
        <time>2020-07-06T10:40:15.000Z</time>
      </trkpt>
      <trkpt lat="43.56115" lon="0.00059">
        <ele>159.19999694824</ele>
        <time>2020-07-06T10:40:18.000Z</time>
      </trkpt>
      <trkpt lat="43.56122" lon="0.00061">
        <ele>159.19999694824</ele>
        <time>2020-07-06T10:40:19.000Z</time>
      </trkpt>
      <trkpt lat="43.56148" lon="0.00059">
        <ele>159</ele>
        <time>2020-07-06T10:40:23.000Z</time>
      </trkpt>
      <trkpt lat="43.56167" lon="0.00055">
        <ele>159</ele>
        <time>2020-07-06T10:40:26.000Z</time>
      </trkpt>
      <trkpt lat="43.56173" lon="0.00054">
        <ele>159</ele>
        <time>2020-07-06T10:40:27.000Z</time>
      </trkpt>
      <trkpt lat="43.56181" lon="0.00055">
        <ele>159</ele>
        <time>2020-07-06T10:40:28.000Z</time>
      </trkpt>
      <trkpt lat="43.56201" lon="0.0006">
        <ele>159</ele>
        <time>2020-07-06T10:40:30.000Z</time>
      </trkpt>
      <trkpt lat="43.56208" lon="0.00063">
        <ele>158.80000305176</ele>
        <time>2020-07-06T10:40:31.000Z</time>
      </trkpt>
      <trkpt lat="43.56219" lon="0.00063">
        <ele>158.80000305176</ele>
        <time>2020-07-06T10:40:33.000Z</time>
      </trkpt>
      <trkpt lat="43.56226" lon="0.00059">
        <ele>158.80000305176</ele>
        <time>2020-07-06T10:40:34.000Z</time>
      </trkpt>
      <trkpt lat="43.56234" lon="0.00055">
        <ele>158.80000305176</ele>
        <time>2020-07-06T10:40:35.000Z</time>
      </trkpt>
      <trkpt lat="43.56252" lon="0.00043">
        <ele>159</ele>
        <time>2020-07-06T10:40:38.000Z</time>
      </trkpt>
      <trkpt lat="43.56259" lon="0.0004">
        <ele>159</ele>
        <time>2020-07-06T10:40:39.000Z</time>
      </trkpt>
      <trkpt lat="43.56286" lon="0.00028">
        <ele>158.80000305176</ele>
        <time>2020-07-06T10:40:43.000Z</time>
      </trkpt>
      <trkpt lat="43.56294" lon="0.00026">
        <ele>158.80000305176</ele>
        <time>2020-07-06T10:40:44.000Z</time>
      </trkpt>
      <trkpt lat="43.563" lon="0.00027">
        <ele>158.60000610352</ele>
        <time>2020-07-06T10:40:45.000Z</time>
      </trkpt>
      <trkpt lat="43.56309" lon="0.0003">
        <ele>158</ele>
        <time>2020-07-06T10:40:47.000Z</time>
      </trkpt>
      <trkpt lat="43.56316" lon="0.00034">
        <ele>157.39999389648</ele>
        <time>2020-07-06T10:40:49.000Z</time>
      </trkpt>
      <trkpt lat="43.56317" lon="0.00039">
        <ele>157</ele>
        <time>2020-07-06T10:40:51.000Z</time>
      </trkpt>
      <trkpt lat="43.56321" lon="0.0004">
        <ele>156.80000305176</ele>
        <time>2020-07-06T10:40:53.000Z</time>
      </trkpt>
      <trkpt lat="43.56324" lon="0.0004">
        <ele>156.80000305176</ele>
        <time>2020-07-06T10:40:54.000Z</time>
      </trkpt>
      <trkpt lat="43.56327" lon="0.00034">
        <ele>156.60000610352</ele>
        <time>2020-07-06T10:40:56.000Z</time>
      </trkpt>
      <trkpt lat="43.56324" lon="0.00032">
        <ele>156.80000305176</ele>
        <time>2020-07-06T10:41:00.000Z</time>
      </trkpt>
      <trkpt lat="43.56324" lon="0.00032">
        <ele>156.39999389648</ele>
        <time>2020-07-06T10:41:09.000Z</time>
      </trkpt>
      <trkpt lat="43.56324" lon="0.00032">
        <ele>156.39999389648</ele>
        <time>2020-07-06T10:41:12.000Z</time>
      </trkpt>
      <trkpt lat="43.56324" lon="0.00033">
        <ele>156</ele>
        <time>2020-07-06T10:43:22.000Z</time>
      </trkpt>
      <trkpt lat="43.56323" lon="0.00033">
        <ele>156</ele>
        <time>2020-07-06T10:43:23.000Z</time>
      </trkpt>
      <trkpt lat="43.56324" lon="0.00034">
        <ele>156.39999389648</ele>
        <time>2020-07-06T10:43:29.000Z</time>
      </trkpt>
      <trkpt lat="43.56327" lon="0.00034">
        <ele>156.39999389648</ele>
        <time>2020-07-06T10:43:31.000Z</time>
      </trkpt>
      <trkpt lat="43.56336" lon="0.00033">
        <ele>156.39999389648</ele>
        <time>2020-07-06T10:43:34.000Z</time>
      </trkpt>
      <trkpt lat="43.56352" lon="0.00027">
        <ele>156.39999389648</ele>
        <time>2020-07-06T10:43:39.000Z</time>
      </trkpt>
      <trkpt lat="43.56384" lon="0.00015">
        <ele>156.39999389648</ele>
        <time>2020-07-06T10:43:48.000Z</time>
      </trkpt>
      <trkpt lat="43.56388" lon="0.00016">
        <ele>156.39999389648</ele>
        <time>2020-07-06T10:43:49.000Z</time>
      </trkpt>
      <trkpt lat="43.56398" lon="0.00023">
        <ele>156.19999694824</ele>
        <time>2020-07-06T10:43:51.000Z</time>
      </trkpt>
      <trkpt lat="43.56406" lon="0.00035">
        <ele>156</ele>
        <time>2020-07-06T10:43:53.000Z</time>
      </trkpt>
      <trkpt lat="43.56409" lon="0.00044">
        <ele>155.80000305176</ele>
        <time>2020-07-06T10:43:54.000Z</time>
      </trkpt>
      <trkpt lat="43.56416" lon="0.00077">
        <ele>155</ele>
        <time>2020-07-06T10:43:58.000Z</time>
      </trkpt>
      <trkpt lat="43.5642" lon="0.00092">
        <ele>154.39999389648</ele>
        <time>2020-07-06T10:44:00.000Z</time>
      </trkpt>
      <trkpt lat="43.56423" lon="0.00099">
        <ele>153.80000305176</ele>
        <time>2020-07-06T10:44:01.000Z</time>
      </trkpt>
      <trkpt lat="43.5644" lon="0.00135">
        <ele>152.80000305176</ele>
        <time>2020-07-06T10:44:06.000Z</time>
      </trkpt>
      <trkpt lat="43.56444" lon="0.00141">
        <ele>152.60000610352</ele>
        <time>2020-07-06T10:44:07.000Z</time>
      </trkpt>
      <trkpt lat="43.56472" lon="0.0019">
        <ele>152.60000610352</ele>
        <time>2020-07-06T10:44:14.000Z</time>
      </trkpt>
      <trkpt lat="43.56503" lon="0.00244">
        <ele>153</ele>
        <time>2020-07-06T10:44:22.000Z</time>
      </trkpt>
      <trkpt lat="43.56534" lon="0.00289">
        <ele>152.80000305176</ele>
        <time>2020-07-06T10:44:29.000Z</time>
      </trkpt>
      <trkpt lat="43.56544" lon="0.00298">
        <ele>152.80000305176</ele>
        <time>2020-07-06T10:44:31.000Z</time>
      </trkpt>
      <trkpt lat="43.56554" lon="0.00303">
        <ele>153</ele>
        <time>2020-07-06T10:44:33.000Z</time>
      </trkpt>
      <trkpt lat="43.56563" lon="0.00303">
        <ele>153.39999389648</ele>
        <time>2020-07-06T10:44:35.000Z</time>
      </trkpt>
      <trkpt lat="43.56567" lon="0.003">
        <ele>153.39999389648</ele>
        <time>2020-07-06T10:44:36.000Z</time>
      </trkpt>
      <trkpt lat="43.56576" lon="0.00294">
        <ele>153.39999389648</ele>
        <time>2020-07-06T10:44:38.000Z</time>
      </trkpt>
      <trkpt lat="43.56587" lon="0.00287">
        <ele>153.19999694824</ele>
        <time>2020-07-06T10:44:40.000Z</time>
      </trkpt>
      <trkpt lat="43.56609" lon="0.00271">
        <ele>153.19999694824</ele>
        <time>2020-07-06T10:44:44.000Z</time>
      </trkpt>
      <trkpt lat="43.56615" lon="0.00267">
        <ele>153</ele>
        <time>2020-07-06T10:44:45.000Z</time>
      </trkpt>
      <trkpt lat="43.56636" lon="0.0026">
        <ele>152.80000305176</ele>
        <time>2020-07-06T10:44:49.000Z</time>
      </trkpt>
      <trkpt lat="43.56642" lon="0.00259">
        <ele>152.80000305176</ele>
        <time>2020-07-06T10:44:50.000Z</time>
      </trkpt>
      <trkpt lat="43.56646" lon="0.00258">
        <ele>153</ele>
        <time>2020-07-06T10:44:51.000Z</time>
      </trkpt>
      <trkpt lat="43.56655" lon="0.00257">
        <ele>153.19999694824</ele>
        <time>2020-07-06T10:44:53.000Z</time>
      </trkpt>
      <trkpt lat="43.56667" lon="0.00256">
        <ele>153.39999389648</ele>
        <time>2020-07-06T10:44:55.000Z</time>
      </trkpt>
      <trkpt lat="43.56677" lon="0.00253">
        <ele>153.19999694824</ele>
        <time>2020-07-06T10:44:57.000Z</time>
      </trkpt>
      <trkpt lat="43.56682" lon="0.00251">
        <ele>153.19999694824</ele>
        <time>2020-07-06T10:44:58.000Z</time>
      </trkpt>
      <trkpt lat="43.56701" lon="0.00239">
        <ele>153.39999389648</ele>
        <time>2020-07-06T10:45:02.000Z</time>
      </trkpt>
      <trkpt lat="43.56706" lon="0.00235">
        <ele>153.60000610352</ele>
        <time>2020-07-06T10:45:03.000Z</time>
      </trkpt>
      <trkpt lat="43.56722" lon="0.00222">
        <ele>152.80000305176</ele>
        <time>2020-07-06T10:45:07.000Z</time>
      </trkpt>
      <trkpt lat="43.56726" lon="0.0022">
        <ele>153.60000610352</ele>
        <time>2020-07-06T10:45:08.000Z</time>
      </trkpt>
      <trkpt lat="43.56729" lon="0.00218">
        <ele>153.80000305176</ele>
        <time>2020-07-06T10:45:09.000Z</time>
      </trkpt>
      <trkpt lat="43.56743" lon="0.00208">
        <ele>154</ele>
        <time>2020-07-06T10:45:14.000Z</time>
      </trkpt>
      <trkpt lat="43.56757" lon="0.00196">
        <ele>153.19999694824</ele>
        <time>2020-07-06T10:45:18.000Z</time>
      </trkpt>
      <trkpt lat="43.5676" lon="0.00192">
        <ele>153.19999694824</ele>
        <time>2020-07-06T10:45:19.000Z</time>
      </trkpt>
      <trkpt lat="43.56773" lon="0.00185">
        <ele>153</ele>
        <time>2020-07-06T10:45:22.000Z</time>
      </trkpt>
      <trkpt lat="43.56779" lon="0.00183">
        <ele>153</ele>
        <time>2020-07-06T10:45:23.000Z</time>
      </trkpt>
      <trkpt lat="43.56795" lon="0.00175">
        <ele>153.19999694824</ele>
        <time>2020-07-06T10:45:26.000Z</time>
      </trkpt>
      <trkpt lat="43.56806" lon="0.00168">
        <ele>153.19999694824</ele>
        <time>2020-07-06T10:45:28.000Z</time>
      </trkpt>
      <trkpt lat="43.56822" lon="0.00156">
        <ele>153.19999694824</ele>
        <time>2020-07-06T10:45:31.000Z</time>
      </trkpt>
      <trkpt lat="43.5683" lon="0.00148">
        <ele>152.80000305176</ele>
        <time>2020-07-06T10:45:33.000Z</time>
      </trkpt>
      <trkpt lat="43.56834" lon="0.00145">
        <ele>152.80000305176</ele>
        <time>2020-07-06T10:45:34.000Z</time>
      </trkpt>
      <trkpt lat="43.56845" lon="0.00136">
        <ele>152.60000610352</ele>
        <time>2020-07-06T10:45:36.000Z</time>
      </trkpt>
      <trkpt lat="43.56851" lon="0.00134">
        <ele>152.60000610352</ele>
        <time>2020-07-06T10:45:37.000Z</time>
      </trkpt>
      <trkpt lat="43.56858" lon="0.00134">
        <ele>152.60000610352</ele>
        <time>2020-07-06T10:45:38.000Z</time>
      </trkpt>
      <trkpt lat="43.56875" lon="0.00141">
        <ele>153</ele>
        <time>2020-07-06T10:45:41.000Z</time>
      </trkpt>
      <trkpt lat="43.5688" lon="0.00144">
        <ele>153.19999694824</ele>
        <time>2020-07-06T10:45:42.000Z</time>
      </trkpt>
      <trkpt lat="43.5689" lon="0.00152">
        <ele>153.19999694824</ele>
        <time>2020-07-06T10:45:44.000Z</time>
      </trkpt>
      <trkpt lat="43.56894" lon="0.00157">
        <ele>153.19999694824</ele>
        <time>2020-07-06T10:45:45.000Z</time>
      </trkpt>
      <trkpt lat="43.569" lon="0.0016">
        <ele>153.19999694824</ele>
        <time>2020-07-06T10:45:46.000Z</time>
      </trkpt>
      <trkpt lat="43.56912" lon="0.00171">
        <ele>152.80000305176</ele>
        <time>2020-07-06T10:45:49.000Z</time>
      </trkpt>
      <trkpt lat="43.56917" lon="0.00174">
        <ele>152.80000305176</ele>
        <time>2020-07-06T10:45:50.000Z</time>
      </trkpt>
      <trkpt lat="43.56922" lon="0.00175">
        <ele>152.80000305176</ele>
        <time>2020-07-06T10:45:51.000Z</time>
      </trkpt>
      <trkpt lat="43.56931" lon="0.00183">
        <ele>152.80000305176</ele>
        <time>2020-07-06T10:45:53.000Z</time>
      </trkpt>
      <trkpt lat="43.56935" lon="0.00188">
        <ele>152.80000305176</ele>
        <time>2020-07-06T10:45:54.000Z</time>
      </trkpt>
      <trkpt lat="43.56941" lon="0.00197">
        <ele>152.80000305176</ele>
        <time>2020-07-06T10:45:56.000Z</time>
      </trkpt>
      <trkpt lat="43.56953" lon="0.00205">
        <ele>154.39999389648</ele>
        <time>2020-07-06T10:45:59.000Z</time>
      </trkpt>
      <trkpt lat="43.56961" lon="0.00214">
        <ele>154.60000610352</ele>
        <time>2020-07-06T10:46:01.000Z</time>
      </trkpt>
      <trkpt lat="43.56964" lon="0.0022">
        <ele>154.80000305176</ele>
        <time>2020-07-06T10:46:02.000Z</time>
      </trkpt>
      <trkpt lat="43.56969" lon="0.00237">
        <ele>155.39999389648</ele>
        <time>2020-07-06T10:46:06.000Z</time>
      </trkpt>
      <trkpt lat="43.56972" lon="0.00242">
        <ele>155.39999389648</ele>
        <time>2020-07-06T10:46:07.000Z</time>
      </trkpt>
      <trkpt lat="43.56972" lon="0.0025">
        <ele>155.80000305176</ele>
        <time>2020-07-06T10:46:09.000Z</time>
      </trkpt>
      <trkpt lat="43.56969" lon="0.00258">
        <ele>156.39999389648</ele>
        <time>2020-07-06T10:46:11.000Z</time>
      </trkpt>
      <trkpt lat="43.56957" lon="0.00262">
        <ele>156.60000610352</ele>
        <time>2020-07-06T10:46:15.000Z</time>
      </trkpt>
      <trkpt lat="43.5695" lon="0.0027">
        <ele>157.19999694824</ele>
        <time>2020-07-06T10:46:18.000Z</time>
      </trkpt>
      <trkpt lat="43.5695" lon="0.00274">
        <ele>157.39999389648</ele>
        <time>2020-07-06T10:46:19.000Z</time>
      </trkpt>
      <trkpt lat="43.56952" lon="0.00282">
        <ele>157.39999389648</ele>
        <time>2020-07-06T10:46:21.000Z</time>
      </trkpt>
      <trkpt lat="43.56954" lon="0.00284">
        <ele>157.39999389648</ele>
        <time>2020-07-06T10:46:22.000Z</time>
      </trkpt>
      <trkpt lat="43.56959" lon="0.00276">
        <ele>157.60000610352</ele>
        <time>2020-07-06T10:46:25.000Z</time>
      </trkpt>
      <trkpt lat="43.56966" lon="0.00271">
        <ele>157.80000305176</ele>
        <time>2020-07-06T10:46:27.000Z</time>
      </trkpt>
      <trkpt lat="43.56981" lon="0.00265">
        <ele>158.60000610352</ele>
        <time>2020-07-06T10:46:32.000Z</time>
      </trkpt>
      <trkpt lat="43.56989" lon="0.00258">
        <ele>159.60000610352</ele>
        <time>2020-07-06T10:46:35.000Z</time>
      </trkpt>
      <trkpt lat="43.56992" lon="0.00256">
        <ele>160.39999389648</ele>
        <time>2020-07-06T10:46:36.000Z</time>
      </trkpt>
      <trkpt lat="43.56996" lon="0.00253">
        <ele>160.80000305176</ele>
        <time>2020-07-06T10:46:37.000Z</time>
      </trkpt>
      <trkpt lat="43.57013" lon="0.0024">
        <ele>161</ele>
        <time>2020-07-06T10:46:41.000Z</time>
      </trkpt>
      <trkpt lat="43.57017" lon="0.00238">
        <ele>161</ele>
        <time>2020-07-06T10:46:42.000Z</time>
      </trkpt>
      <trkpt lat="43.57026" lon="0.0024">
        <ele>160.80000305176</ele>
        <time>2020-07-06T10:46:44.000Z</time>
      </trkpt>
      <trkpt lat="43.57031" lon="0.00245">
        <ele>160.60000610352</ele>
        <time>2020-07-06T10:46:45.000Z</time>
      </trkpt>
      <trkpt lat="43.57041" lon="0.00255">
        <ele>159.80000305176</ele>
        <time>2020-07-06T10:46:47.000Z</time>
      </trkpt>
      <trkpt lat="43.57046" lon="0.00259">
        <ele>159</ele>
        <time>2020-07-06T10:46:48.000Z</time>
      </trkpt>
      <trkpt lat="43.57057" lon="0.00267">
        <ele>158.60000610352</ele>
        <time>2020-07-06T10:46:50.000Z</time>
      </trkpt>
      <trkpt lat="43.57072" lon="0.00276">
        <ele>158.19999694824</ele>
        <time>2020-07-06T10:46:53.000Z</time>
      </trkpt>
      <trkpt lat="43.57076" lon="0.00279">
        <ele>158.19999694824</ele>
        <time>2020-07-06T10:46:54.000Z</time>
      </trkpt>
      <trkpt lat="43.57086" lon="0.00288">
        <ele>158</ele>
        <time>2020-07-06T10:46:56.000Z</time>
      </trkpt>
      <trkpt lat="43.5709" lon="0.00294">
        <ele>158</ele>
        <time>2020-07-06T10:46:57.000Z</time>
      </trkpt>
      <trkpt lat="43.57109" lon="0.00336">
        <ele>158.60000610352</ele>
        <time>2020-07-06T10:47:03.000Z</time>
      </trkpt>
      <trkpt lat="43.57114" lon="0.00351">
        <ele>158.39999389648</ele>
        <time>2020-07-06T10:47:05.000Z</time>
      </trkpt>
      <trkpt lat="43.57123" lon="0.00365">
        <ele>158.19999694824</ele>
        <time>2020-07-06T10:47:07.000Z</time>
      </trkpt>
      <trkpt lat="43.57128" lon="0.00369">
        <ele>158.19999694824</ele>
        <time>2020-07-06T10:47:08.000Z</time>
      </trkpt>
      <trkpt lat="43.57162" lon="0.00386">
        <ele>157.60000610352</ele>
        <time>2020-07-06T10:47:14.000Z</time>
      </trkpt>
      <trkpt lat="43.57172" lon="0.00391">
        <ele>157.60000610352</ele>
        <time>2020-07-06T10:47:16.000Z</time>
      </trkpt>
      <trkpt lat="43.57181" lon="0.00396">
        <ele>157.60000610352</ele>
        <time>2020-07-06T10:47:18.000Z</time>
      </trkpt>
      <trkpt lat="43.57186" lon="0.00399">
        <ele>157.39999389648</ele>
        <time>2020-07-06T10:47:19.000Z</time>
      </trkpt>
      <trkpt lat="43.57196" lon="0.00402">
        <ele>157.19999694824</ele>
        <time>2020-07-06T10:47:21.000Z</time>
      </trkpt>
      <trkpt lat="43.57208" lon="0.00402">
        <ele>157.19999694824</ele>
        <time>2020-07-06T10:47:23.000Z</time>
      </trkpt>
      <trkpt lat="43.57214" lon="0.004">
        <ele>157.19999694824</ele>
        <time>2020-07-06T10:47:24.000Z</time>
      </trkpt>
      <trkpt lat="43.57225" lon="0.00393">
        <ele>157.19999694824</ele>
        <time>2020-07-06T10:47:26.000Z</time>
      </trkpt>
      <trkpt lat="43.57235" lon="0.00382">
        <ele>156.80000305176</ele>
        <time>2020-07-06T10:47:28.000Z</time>
      </trkpt>
      <trkpt lat="43.57246" lon="0.00373">
        <ele>156.60000610352</ele>
        <time>2020-07-06T10:47:30.000Z</time>
      </trkpt>
      <trkpt lat="43.5725" lon="0.00368">
        <ele>156.60000610352</ele>
        <time>2020-07-06T10:47:31.000Z</time>
      </trkpt>
      <trkpt lat="43.57285" lon="0.00346">
        <ele>156.80000305176</ele>
        <time>2020-07-06T10:47:37.000Z</time>
      </trkpt>
      <trkpt lat="43.5729" lon="0.00342">
        <ele>156.60000610352</ele>
        <time>2020-07-06T10:47:38.000Z</time>
      </trkpt>
      <trkpt lat="43.573" lon="0.00331">
        <ele>156.60000610352</ele>
        <time>2020-07-06T10:47:40.000Z</time>
      </trkpt>
      <trkpt lat="43.57319" lon="0.00321">
        <ele>156.60000610352</ele>
        <time>2020-07-06T10:47:43.000Z</time>
      </trkpt>
      <trkpt lat="43.57331" lon="0.00312">
        <ele>156.60000610352</ele>
        <time>2020-07-06T10:47:45.000Z</time>
      </trkpt>
      <trkpt lat="43.57341" lon="0.00299">
        <ele>156.39999389648</ele>
        <time>2020-07-06T10:47:47.000Z</time>
      </trkpt>
      <trkpt lat="43.57348" lon="0.00283">
        <ele>156.39999389648</ele>
        <time>2020-07-06T10:47:49.000Z</time>
      </trkpt>
      <trkpt lat="43.57351" lon="0.00262">
        <ele>156.19999694824</ele>
        <time>2020-07-06T10:47:51.000Z</time>
      </trkpt>
      <trkpt lat="43.57352" lon="0.00252">
        <ele>156.19999694824</ele>
        <time>2020-07-06T10:47:52.000Z</time>
      </trkpt>
      <trkpt lat="43.57352" lon="0.00233">
        <ele>155.60000610352</ele>
        <time>2020-07-06T10:47:54.000Z</time>
      </trkpt>
      <trkpt lat="43.57351" lon="0.00214">
        <ele>155.39999389648</ele>
        <time>2020-07-06T10:47:56.000Z</time>
      </trkpt>
      <trkpt lat="43.5735" lon="0.00177">
        <ele>155.19999694824</ele>
        <time>2020-07-06T10:48:01.000Z</time>
      </trkpt>
      <trkpt lat="43.5735" lon="0.00173">
        <ele>155.19999694824</ele>
        <time>2020-07-06T10:48:02.000Z</time>
      </trkpt>
      <trkpt lat="43.57351" lon="0.00169">
        <ele>155.19999694824</ele>
        <time>2020-07-06T10:48:05.000Z</time>
      </trkpt>
      <trkpt lat="43.57351" lon="0.00169">
        <ele>155.80000305176</ele>
        <time>2020-07-06T10:48:19.000Z</time>
      </trkpt>
      <trkpt lat="43.57353" lon="0.00165">
        <ele>155.80000305176</ele>
        <time>2020-07-06T10:48:21.000Z</time>
      </trkpt>
      <trkpt lat="43.57358" lon="0.00151">
        <ele>155.80000305176</ele>
        <time>2020-07-06T10:48:27.000Z</time>
      </trkpt>
      <trkpt lat="43.57365" lon="0.00132">
        <ele>155.60000610352</ele>
        <time>2020-07-06T10:48:32.000Z</time>
      </trkpt>
      <trkpt lat="43.57369" lon="0.00116">
        <ele>155.80000305176</ele>
        <time>2020-07-06T10:48:35.000Z</time>
      </trkpt>
      <trkpt lat="43.57374" lon="0.00104">
        <ele>155.80000305176</ele>
        <time>2020-07-06T10:48:37.000Z</time>
      </trkpt>
      <trkpt lat="43.57379" lon="0.00093">
        <ele>155.60000610352</ele>
        <time>2020-07-06T10:48:39.000Z</time>
      </trkpt>
      <trkpt lat="43.57389" lon="0.00076">
        <ele>155.39999389648</ele>
        <time>2020-07-06T10:48:42.000Z</time>
      </trkpt>
      <trkpt lat="43.574" lon="0.00062">
        <ele>155</ele>
        <time>2020-07-06T10:48:45.000Z</time>
      </trkpt>
      <trkpt lat="43.57408" lon="0.00055">
        <ele>154.60000610352</ele>
        <time>2020-07-06T10:48:47.000Z</time>
      </trkpt>
      <trkpt lat="43.57431" lon="0.0004">
        <ele>154.19999694824</ele>
        <time>2020-07-06T10:48:52.000Z</time>
      </trkpt>
      <trkpt lat="43.57466" lon="0.00025">
        <ele>153.80000305176</ele>
        <time>2020-07-06T10:48:59.000Z</time>
      </trkpt>
      <trkpt lat="43.57481" lon="0.00019">
        <ele>153.80000305176</ele>
        <time>2020-07-06T10:49:02.000Z</time>
      </trkpt>
      <trkpt lat="43.57493" lon="0.00018">
        <ele>154.19999694824</ele>
        <time>2020-07-06T10:49:04.000Z</time>
      </trkpt>
      <trkpt lat="43.57526" lon="0.00025">
        <ele>154.19999694824</ele>
        <time>2020-07-06T10:49:09.000Z</time>
      </trkpt>
      <trkpt lat="43.57567" lon="0.00034">
        <ele>153.60000610352</ele>
        <time>2020-07-06T10:49:15.000Z</time>
      </trkpt>
      <trkpt lat="43.57573" lon="0.00035">
        <ele>153.39999389648</ele>
        <time>2020-07-06T10:49:16.000Z</time>
      </trkpt>
      <trkpt lat="43.57587" lon="0.00036">
        <ele>153</ele>
        <time>2020-07-06T10:49:18.000Z</time>
      </trkpt>
      <trkpt lat="43.57608" lon="0.00039">
        <ele>153</ele>
        <time>2020-07-06T10:49:21.000Z</time>
      </trkpt>
      <trkpt lat="43.57632" lon="0.00042">
        <ele>153</ele>
        <time>2020-07-06T10:49:25.000Z</time>
      </trkpt>
      <trkpt lat="43.57643" lon="0.00042">
        <ele>153</ele>
        <time>2020-07-06T10:49:27.000Z</time>
      </trkpt>
      <trkpt lat="43.57662" lon="0.00042">
        <ele>153.19999694824</ele>
        <time>2020-07-06T10:49:30.000Z</time>
      </trkpt>
      <trkpt lat="43.57668" lon="0.00044">
        <ele>153.19999694824</ele>
        <time>2020-07-06T10:49:31.000Z</time>
      </trkpt>
      <trkpt lat="43.57688" lon="0.0005">
        <ele>153.19999694824</ele>
        <time>2020-07-06T10:49:34.000Z</time>
      </trkpt>
      <trkpt lat="43.57708" lon="0.00053">
        <ele>153.19999694824</ele>
        <time>2020-07-06T10:49:37.000Z</time>
      </trkpt>
      <trkpt lat="43.57741" lon="0.00057">
        <ele>153</ele>
        <time>2020-07-06T10:49:42.000Z</time>
      </trkpt>
      <trkpt lat="43.57754" lon="0.0006">
        <ele>153</ele>
        <time>2020-07-06T10:49:44.000Z</time>
      </trkpt>
      <trkpt lat="43.57779" lon="0.00065">
        <ele>152.80000305176</ele>
        <time>2020-07-06T10:49:48.000Z</time>
      </trkpt>
      <trkpt lat="43.57792" lon="0.00066">
        <ele>152.80000305176</ele>
        <time>2020-07-06T10:49:50.000Z</time>
      </trkpt>
      <trkpt lat="43.57798" lon="0.00067">
        <ele>152.80000305176</ele>
        <time>2020-07-06T10:49:51.000Z</time>
      </trkpt>
      <trkpt lat="43.5781" lon="0.00073">
        <ele>153</ele>
        <time>2020-07-06T10:49:53.000Z</time>
      </trkpt>
      <trkpt lat="43.57837" lon="0.00095">
        <ele>153</ele>
        <time>2020-07-06T10:49:58.000Z</time>
      </trkpt>
      <trkpt lat="43.5784" lon="0.00096">
        <ele>153</ele>
        <time>2020-07-06T10:49:59.000Z</time>
      </trkpt>
      <trkpt lat="43.57842" lon="0.00097">
        <ele>153.39999389648</ele>
        <time>2020-07-06T10:50:00.000Z</time>
      </trkpt>
      <trkpt lat="43.57841" lon="0.00098">
        <ele>153.39999389648</ele>
        <time>2020-07-06T10:50:01.000Z</time>
      </trkpt>
      <trkpt lat="43.57834" lon="0.00094">
        <ele>153.60000610352</ele>
        <time>2020-07-06T10:50:05.000Z</time>
      </trkpt>
      <trkpt lat="43.5783" lon="0.00091">
        <ele>153.60000610352</ele>
        <time>2020-07-06T10:50:07.000Z</time>
      </trkpt>
      <trkpt lat="43.5783" lon="0.00087">
        <ele>153.60000610352</ele>
        <time>2020-07-06T10:50:09.000Z</time>
      </trkpt>
      <trkpt lat="43.5784" lon="0.00084">
        <ele>153.60000610352</ele>
        <time>2020-07-06T10:50:13.000Z</time>
      </trkpt>
      <trkpt lat="43.57859" lon="0.00083">
        <ele>153.60000610352</ele>
        <time>2020-07-06T10:50:18.000Z</time>
      </trkpt>
      <trkpt lat="43.57874" lon="0.00082">
        <ele>153.39999389648</ele>
        <time>2020-07-06T10:50:21.000Z</time>
      </trkpt>
      <trkpt lat="43.57883" lon="0.00084">
        <ele>153.60000610352</ele>
        <time>2020-07-06T10:50:23.000Z</time>
      </trkpt>
      <trkpt lat="43.57886" lon="0.00086">
        <ele>153.60000610352</ele>
        <time>2020-07-06T10:50:24.000Z</time>
      </trkpt>
      <trkpt lat="43.579" lon="0.00094">
        <ele>154</ele>
        <time>2020-07-06T10:50:27.000Z</time>
      </trkpt>
      <trkpt lat="43.57905" lon="0.00094">
        <ele>154.19999694824</ele>
        <time>2020-07-06T10:50:28.000Z</time>
      </trkpt>
      <trkpt lat="43.57911" lon="0.00092">
        <ele>154.19999694824</ele>
        <time>2020-07-06T10:50:29.000Z</time>
      </trkpt>
      <trkpt lat="43.57925" lon="0.00086">
        <ele>154.60000610352</ele>
        <time>2020-07-06T10:50:32.000Z</time>
      </trkpt>
      <trkpt lat="43.5793" lon="0.00084">
        <ele>154.80000305176</ele>
        <time>2020-07-06T10:50:33.000Z</time>
      </trkpt>
      <trkpt lat="43.57945" lon="0.00077">
        <ele>155.60000610352</ele>
        <time>2020-07-06T10:50:36.000Z</time>
      </trkpt>
      <trkpt lat="43.57963" lon="0.00067">
        <ele>156.80000305176</ele>
        <time>2020-07-06T10:50:40.000Z</time>
      </trkpt>
      <trkpt lat="43.57968" lon="0.00065">
        <ele>157.39999389648</ele>
        <time>2020-07-06T10:50:41.000Z</time>
      </trkpt>
      <trkpt lat="43.5799" lon="0.00052">
        <ele>157.60000610352</ele>
        <time>2020-07-06T10:50:46.000Z</time>
      </trkpt>
      <trkpt lat="43.57999" lon="0.00045">
        <ele>157.39999389648</ele>
        <time>2020-07-06T10:50:48.000Z</time>
      </trkpt>
      <trkpt lat="43.58022" lon="0.00027">
        <ele>157.19999694824</ele>
        <time>2020-07-06T10:50:54.000Z</time>
      </trkpt>
      <trkpt lat="43.58036" lon="0.00028">
        <ele>156.80000305176</ele>
        <time>2020-07-06T10:50:57.000Z</time>
      </trkpt>
      <trkpt lat="43.58039" lon="0.00029">
        <ele>156.19999694824</ele>
        <time>2020-07-06T10:50:58.000Z</time>
      </trkpt>
      <trkpt lat="43.58041" lon="0.0003">
        <ele>156</ele>
        <time>2020-07-06T10:50:59.000Z</time>
      </trkpt>
      <trkpt lat="43.58044" lon="0.00031">
        <ele>155.39999389648</ele>
        <time>2020-07-06T10:51:01.000Z</time>
      </trkpt>
      <trkpt lat="43.58046" lon="0.00031">
        <ele>155</ele>
        <time>2020-07-06T10:51:02.000Z</time>
      </trkpt>
      <trkpt lat="43.58048" lon="0.0003">
        <ele>155</ele>
        <time>2020-07-06T10:51:03.000Z</time>
      </trkpt>
      <trkpt lat="43.58052" lon="0.00024">
        <ele>154.80000305176</ele>
        <time>2020-07-06T10:51:05.000Z</time>
      </trkpt>
      <trkpt lat="43.58059" lon="3.0E-5">
        <ele>154.80000305176</ele>
        <time>2020-07-06T10:51:09.000Z</time>
      </trkpt>
      <trkpt lat="43.58061" lon="-1.0E-5">
        <ele>154.80000305176</ele>
        <time>2020-07-06T10:51:10.000Z</time>
      </trkpt>
      <trkpt lat="43.58068" lon="-7.0E-5">
        <ele>154.60000610352</ele>
        <time>2020-07-06T10:51:12.000Z</time>
      </trkpt>
      <trkpt lat="43.58075" lon="-8.0E-5">
        <ele>154.39999389648</ele>
        <time>2020-07-06T10:51:14.000Z</time>
      </trkpt>
      <trkpt lat="43.5808" lon="-9.0E-5">
        <ele>154.39999389648</ele>
        <time>2020-07-06T10:51:16.000Z</time>
      </trkpt>
      <trkpt lat="43.58089" lon="-5.0E-5">
        <ele>154.19999694824</ele>
        <time>2020-07-06T10:51:20.000Z</time>
      </trkpt>
      <trkpt lat="43.58097" lon="-2.0E-5">
        <ele>154.19999694824</ele>
        <time>2020-07-06T10:51:23.000Z</time>
      </trkpt>
      <trkpt lat="43.58099" lon="-4.0E-5">
        <ele>154.19999694824</ele>
        <time>2020-07-06T10:51:24.000Z</time>
      </trkpt>
      <trkpt lat="43.58108" lon="-0.0002">
        <ele>154</ele>
        <time>2020-07-06T10:51:28.000Z</time>
      </trkpt>
      <trkpt lat="43.5811" lon="-0.00022">
        <ele>154</ele>
        <time>2020-07-06T10:51:29.000Z</time>
      </trkpt>
      <trkpt lat="43.58116" lon="-0.0002">
        <ele>154.19999694824</ele>
        <time>2020-07-06T10:51:31.000Z</time>
      </trkpt>
      <trkpt lat="43.58133" lon="-0.00025">
        <ele>154</ele>
        <time>2020-07-06T10:51:35.000Z</time>
      </trkpt>
      <trkpt lat="43.5816" lon="-0.00038">
        <ele>154.19999694824</ele>
        <time>2020-07-06T10:51:41.000Z</time>
      </trkpt>
      <trkpt lat="43.58174" lon="-0.00048">
        <ele>154</ele>
        <time>2020-07-06T10:51:44.000Z</time>
      </trkpt>
      <trkpt lat="43.58193" lon="-0.00062">
        <ele>154</ele>
        <time>2020-07-06T10:51:48.000Z</time>
      </trkpt>
      <trkpt lat="43.58205" lon="-0.00066">
        <ele>154</ele>
        <time>2020-07-06T10:51:51.000Z</time>
      </trkpt>
      <trkpt lat="43.58209" lon="-0.00065">
        <ele>154</ele>
        <time>2020-07-06T10:51:52.000Z</time>
      </trkpt>
      <trkpt lat="43.58221" lon="-0.00055">
        <ele>154.80000305176</ele>
        <time>2020-07-06T10:51:56.000Z</time>
      </trkpt>
      <trkpt lat="43.58227" lon="-0.00043">
        <ele>155.19999694824</ele>
        <time>2020-07-06T10:51:58.000Z</time>
      </trkpt>
      <trkpt lat="43.58233" lon="-0.00033">
        <ele>155.39999389648</ele>
        <time>2020-07-06T10:52:00.000Z</time>
      </trkpt>
      <trkpt lat="43.58236" lon="-0.00028">
        <ele>155.39999389648</ele>
        <time>2020-07-06T10:52:01.000Z</time>
      </trkpt>
      <trkpt lat="43.58245" lon="-0.00022">
        <ele>155.39999389648</ele>
        <time>2020-07-06T10:52:03.000Z</time>
      </trkpt>
      <trkpt lat="43.58254" lon="-0.00026">
        <ele>155.19999694824</ele>
        <time>2020-07-06T10:52:05.000Z</time>
      </trkpt>
      <trkpt lat="43.58259" lon="-0.00031">
        <ele>155</ele>
        <time>2020-07-06T10:52:06.000Z</time>
      </trkpt>
      <trkpt lat="43.58273" lon="-0.00046">
        <ele>154.60000610352</ele>
        <time>2020-07-06T10:52:09.000Z</time>
      </trkpt>
      <trkpt lat="43.58279" lon="-0.00049">
        <ele>154.39999389648</ele>
        <time>2020-07-06T10:52:10.000Z</time>
      </trkpt>
      <trkpt lat="43.58285" lon="-0.00052">
        <ele>154.19999694824</ele>
        <time>2020-07-06T10:52:11.000Z</time>
      </trkpt>
      <trkpt lat="43.58291" lon="-0.00053">
        <ele>154</ele>
        <time>2020-07-06T10:52:12.000Z</time>
      </trkpt>
      <trkpt lat="43.58298" lon="-0.00054">
        <ele>154</ele>
        <time>2020-07-06T10:52:13.000Z</time>
      </trkpt>
      <trkpt lat="43.58305" lon="-0.00054">
        <ele>154</ele>
        <time>2020-07-06T10:52:14.000Z</time>
      </trkpt>
      <trkpt lat="43.58318" lon="-0.00051">
        <ele>153.39999389648</ele>
        <time>2020-07-06T10:52:16.000Z</time>
      </trkpt>
      <trkpt lat="43.58331" lon="-0.00044">
        <ele>153.19999694824</ele>
        <time>2020-07-06T10:52:18.000Z</time>
      </trkpt>
      <trkpt lat="43.58337" lon="-0.00041">
        <ele>153</ele>
        <time>2020-07-06T10:52:19.000Z</time>
      </trkpt>
      <trkpt lat="43.58374" lon="-0.00027">
        <ele>152.80000305176</ele>
        <time>2020-07-06T10:52:24.000Z</time>
      </trkpt>
      <trkpt lat="43.58387" lon="-0.00019">
        <ele>153</ele>
        <time>2020-07-06T10:52:26.000Z</time>
      </trkpt>
      <trkpt lat="43.58398" lon="-9.0E-5">
        <ele>153</ele>
        <time>2020-07-06T10:52:28.000Z</time>
      </trkpt>
      <trkpt lat="43.58416" lon="4.0E-5">
        <ele>153</ele>
        <time>2020-07-06T10:52:31.000Z</time>
      </trkpt>
      <trkpt lat="43.58428" lon="9.0E-5">
        <ele>153.19999694824</ele>
        <time>2020-07-06T10:52:33.000Z</time>
      </trkpt>
      <trkpt lat="43.58458" lon="0.0002">
        <ele>153.19999694824</ele>
        <time>2020-07-06T10:52:38.000Z</time>
      </trkpt>
      <trkpt lat="43.5847" lon="0.00028">
        <ele>153.39999389648</ele>
        <time>2020-07-06T10:52:40.000Z</time>
      </trkpt>
      <trkpt lat="43.5851" lon="0.00054">
        <ele>152.39999389648</ele>
        <time>2020-07-06T10:52:47.000Z</time>
      </trkpt>
      <trkpt lat="43.58529" lon="0.00063">
        <ele>152.80000305176</ele>
        <time>2020-07-06T10:52:50.000Z</time>
      </trkpt>
      <trkpt lat="43.58541" lon="0.00064">
        <ele>152.80000305176</ele>
        <time>2020-07-06T10:52:52.000Z</time>
      </trkpt>
      <trkpt lat="43.58553" lon="0.00056">
        <ele>152.80000305176</ele>
        <time>2020-07-06T10:52:54.000Z</time>
      </trkpt>
      <trkpt lat="43.58557" lon="0.00049">
        <ele>152.80000305176</ele>
        <time>2020-07-06T10:52:55.000Z</time>
      </trkpt>
      <trkpt lat="43.58561" lon="0.00042">
        <ele>152.80000305176</ele>
        <time>2020-07-06T10:52:56.000Z</time>
      </trkpt>
      <trkpt lat="43.5857" lon="0.00035">
        <ele>153</ele>
        <time>2020-07-06T10:52:58.000Z</time>
      </trkpt>
      <trkpt lat="43.58579" lon="0.00042">
        <ele>153</ele>
        <time>2020-07-06T10:53:00.000Z</time>
      </trkpt>
      <trkpt lat="43.58598" lon="0.00066">
        <ele>153.19999694824</ele>
        <time>2020-07-06T10:53:04.000Z</time>
      </trkpt>
      <trkpt lat="43.58604" lon="0.00071">
        <ele>153.39999389648</ele>
        <time>2020-07-06T10:53:05.000Z</time>
      </trkpt>
      <trkpt lat="43.5861" lon="0.00073">
        <ele>153.19999694824</ele>
        <time>2020-07-06T10:53:06.000Z</time>
      </trkpt>
      <trkpt lat="43.58632" lon="0.0008">
        <ele>153</ele>
        <time>2020-07-06T10:53:09.000Z</time>
      </trkpt>
      <trkpt lat="43.5867" lon="0.00093">
        <ele>152</ele>
        <time>2020-07-06T10:53:14.000Z</time>
      </trkpt>
      <trkpt lat="43.58678" lon="0.00094">
        <ele>151.80000305176</ele>
        <time>2020-07-06T10:53:15.000Z</time>
      </trkpt>
      <trkpt lat="43.58707" lon="0.00093">
        <ele>150.80000305176</ele>
        <time>2020-07-06T10:53:19.000Z</time>
      </trkpt>
      <trkpt lat="43.58736" lon="0.00093">
        <ele>150</ele>
        <time>2020-07-06T10:53:23.000Z</time>
      </trkpt>
      <trkpt lat="43.58749" lon="0.00092">
        <ele>149.80000305176</ele>
        <time>2020-07-06T10:53:25.000Z</time>
      </trkpt>
      <trkpt lat="43.58762" lon="0.00093">
        <ele>150</ele>
        <time>2020-07-06T10:53:27.000Z</time>
      </trkpt>
      <trkpt lat="43.58768" lon="0.00093">
        <ele>150</ele>
        <time>2020-07-06T10:53:28.000Z</time>
      </trkpt>
      <trkpt lat="43.58774" lon="0.00094">
        <ele>150</ele>
        <time>2020-07-06T10:53:29.000Z</time>
      </trkpt>
      <trkpt lat="43.58793" lon="0.00097">
        <ele>151</ele>
        <time>2020-07-06T10:53:32.000Z</time>
      </trkpt>
      <trkpt lat="43.58799" lon="0.00099">
        <ele>151.19999694824</ele>
        <time>2020-07-06T10:53:33.000Z</time>
      </trkpt>
      <trkpt lat="43.58806" lon="0.00101">
        <ele>151.39999389648</ele>
        <time>2020-07-06T10:53:34.000Z</time>
      </trkpt>
      <trkpt lat="43.58817" lon="0.00107">
        <ele>152</ele>
        <time>2020-07-06T10:53:36.000Z</time>
      </trkpt>
      <trkpt lat="43.58821" lon="0.00112">
        <ele>152.19999694824</ele>
        <time>2020-07-06T10:53:37.000Z</time>
      </trkpt>
      <trkpt lat="43.58822" lon="0.00118">
        <ele>152.39999389648</ele>
        <time>2020-07-06T10:53:38.000Z</time>
      </trkpt>
      <trkpt lat="43.58822" lon="0.00131">
        <ele>152.80000305176</ele>
        <time>2020-07-06T10:53:40.000Z</time>
      </trkpt>
      <trkpt lat="43.58825" lon="0.00141">
        <ele>153.19999694824</ele>
        <time>2020-07-06T10:53:42.000Z</time>
      </trkpt>
      <trkpt lat="43.58828" lon="0.0015">
        <ele>153.19999694824</ele>
        <time>2020-07-06T10:53:44.000Z</time>
      </trkpt>
      <trkpt lat="43.58834" lon="0.00168">
        <ele>153.19999694824</ele>
        <time>2020-07-06T10:53:47.000Z</time>
      </trkpt>
      <trkpt lat="43.58836" lon="0.00175">
        <ele>153.19999694824</ele>
        <time>2020-07-06T10:53:48.000Z</time>
      </trkpt>
      <trkpt lat="43.58838" lon="0.00182">
        <ele>153.19999694824</ele>
        <time>2020-07-06T10:53:49.000Z</time>
      </trkpt>
      <trkpt lat="43.58847" lon="0.00211">
        <ele>153.19999694824</ele>
        <time>2020-07-06T10:53:53.000Z</time>
      </trkpt>
      <trkpt lat="43.58849" lon="0.00216">
        <ele>153.19999694824</ele>
        <time>2020-07-06T10:53:54.000Z</time>
      </trkpt>
      <trkpt lat="43.58855" lon="0.00221">
        <ele>153.19999694824</ele>
        <time>2020-07-06T10:53:56.000Z</time>
      </trkpt>
      <trkpt lat="43.58869" lon="0.00209">
        <ele>152.60000610352</ele>
        <time>2020-07-06T10:53:59.000Z</time>
      </trkpt>
      <trkpt lat="43.58895" lon="0.00185">
        <ele>152.19999694824</ele>
        <time>2020-07-06T10:54:04.000Z</time>
      </trkpt>
      <trkpt lat="43.589" lon="0.0018">
        <ele>151.80000305176</ele>
        <time>2020-07-06T10:54:05.000Z</time>
      </trkpt>
      <trkpt lat="43.58941" lon="0.00139">
        <ele>151.39999389648</ele>
        <time>2020-07-06T10:54:13.000Z</time>
      </trkpt>
      <trkpt lat="43.58954" lon="0.00126">
        <ele>151.39999389648</ele>
        <time>2020-07-06T10:54:16.000Z</time>
      </trkpt>
      <trkpt lat="43.58962" lon="0.00121">
        <ele>151.60000610352</ele>
        <time>2020-07-06T10:54:18.000Z</time>
      </trkpt>
      <trkpt lat="43.58975" lon="0.00105">
        <ele>151.39999389648</ele>
        <time>2020-07-06T10:54:22.000Z</time>
      </trkpt>
      <trkpt lat="43.58994" lon="0.00086">
        <ele>151.19999694824</ele>
        <time>2020-07-06T10:54:26.000Z</time>
      </trkpt>
      <trkpt lat="43.58999" lon="0.00081">
        <ele>151.19999694824</ele>
        <time>2020-07-06T10:54:27.000Z</time>
      </trkpt>
      <trkpt lat="43.59021" lon="0.00053">
        <ele>151.19999694824</ele>
        <time>2020-07-06T10:54:32.000Z</time>
      </trkpt>
      <trkpt lat="43.59022" lon="0.00047">
        <ele>151.19999694824</ele>
        <time>2020-07-06T10:54:33.000Z</time>
      </trkpt>
      <trkpt lat="43.59023" lon="0.0004">
        <ele>151.19999694824</ele>
        <time>2020-07-06T10:54:34.000Z</time>
      </trkpt>
      <trkpt lat="43.59021" lon="0.00026">
        <ele>151.60000610352</ele>
        <time>2020-07-06T10:54:36.000Z</time>
      </trkpt>
      <trkpt lat="43.59021" lon="0.0001">
        <ele>151.80000305176</ele>
        <time>2020-07-06T10:54:38.000Z</time>
      </trkpt>
      <trkpt lat="43.59025" lon="-0.00013">
        <ele>152</ele>
        <time>2020-07-06T10:54:41.000Z</time>
      </trkpt>
      <trkpt lat="43.59028" lon="-0.00028">
        <ele>151.80000305176</ele>
        <time>2020-07-06T10:54:43.000Z</time>
      </trkpt>
      <trkpt lat="43.59032" lon="-0.00054">
        <ele>151.80000305176</ele>
        <time>2020-07-06T10:54:46.000Z</time>
      </trkpt>
      <trkpt lat="43.59033" lon="-0.00063">
        <ele>151.39999389648</ele>
        <time>2020-07-06T10:54:47.000Z</time>
      </trkpt>
      <trkpt lat="43.59037" lon="-0.00077">
        <ele>151.60000610352</ele>
        <time>2020-07-06T10:54:49.000Z</time>
      </trkpt>
      <trkpt lat="43.59039" lon="-0.00083">
        <ele>151.60000610352</ele>
        <time>2020-07-06T10:54:50.000Z</time>
      </trkpt>
      <trkpt lat="43.59052" lon="-0.00103">
        <ele>151.60000610352</ele>
        <time>2020-07-06T10:54:53.000Z</time>
      </trkpt>
      <trkpt lat="43.59058" lon="-0.00109">
        <ele>151.80000305176</ele>
        <time>2020-07-06T10:54:54.000Z</time>
      </trkpt>
      <trkpt lat="43.59095" lon="-0.00132">
        <ele>151.80000305176</ele>
        <time>2020-07-06T10:55:00.000Z</time>
      </trkpt>
      <trkpt lat="43.59104" lon="-0.00144">
        <ele>151.60000610352</ele>
        <time>2020-07-06T10:55:02.000Z</time>
      </trkpt>
      <trkpt lat="43.59113" lon="-0.00162">
        <ele>151.39999389648</ele>
        <time>2020-07-06T10:55:04.000Z</time>
      </trkpt>
      <trkpt lat="43.59117" lon="-0.00181">
        <ele>151.19999694824</ele>
        <time>2020-07-06T10:55:06.000Z</time>
      </trkpt>
      <trkpt lat="43.59115" lon="-0.0019">
        <ele>151</ele>
        <time>2020-07-06T10:55:07.000Z</time>
      </trkpt>
      <trkpt lat="43.59113" lon="-0.00198">
        <ele>150.60000610352</ele>
        <time>2020-07-06T10:55:08.000Z</time>
      </trkpt>
      <trkpt lat="43.5911" lon="-0.00206">
        <ele>150.19999694824</ele>
        <time>2020-07-06T10:55:10.000Z</time>
      </trkpt>
      <trkpt lat="43.59104" lon="-0.00215">
        <ele>150</ele>
        <time>2020-07-06T10:55:13.000Z</time>
      </trkpt>
      <trkpt lat="43.59105" lon="-0.00223">
        <ele>150</ele>
        <time>2020-07-06T10:55:15.000Z</time>
      </trkpt>
      <trkpt lat="43.59113" lon="-0.00237">
        <ele>150.39999389648</ele>
        <time>2020-07-06T10:55:18.000Z</time>
      </trkpt>
      <trkpt lat="43.59117" lon="-0.00243">
        <ele>150.60000610352</ele>
        <time>2020-07-06T10:55:19.000Z</time>
      </trkpt>
      <trkpt lat="43.5912" lon="-0.00248">
        <ele>150.80000305176</ele>
        <time>2020-07-06T10:55:20.000Z</time>
      </trkpt>
      <trkpt lat="43.5913" lon="-0.00267">
        <ele>151</ele>
        <time>2020-07-06T10:55:23.000Z</time>
      </trkpt>
      <trkpt lat="43.59133" lon="-0.00274">
        <ele>150.80000305176</ele>
        <time>2020-07-06T10:55:24.000Z</time>
      </trkpt>
      <trkpt lat="43.59141" lon="-0.00288">
        <ele>151</ele>
        <time>2020-07-06T10:55:26.000Z</time>
      </trkpt>
      <trkpt lat="43.59142" lon="-0.00295">
        <ele>150.80000305176</ele>
        <time>2020-07-06T10:55:27.000Z</time>
      </trkpt>
      <trkpt lat="43.59142" lon="-0.00305">
        <ele>150.80000305176</ele>
        <time>2020-07-06T10:55:28.000Z</time>
      </trkpt>
      <trkpt lat="43.59146" lon="-0.00324">
        <ele>150.80000305176</ele>
        <time>2020-07-06T10:55:30.000Z</time>
      </trkpt>
      <trkpt lat="43.59154" lon="-0.00332">
        <ele>150.60000610352</ele>
        <time>2020-07-06T10:55:32.000Z</time>
      </trkpt>
      <trkpt lat="43.59159" lon="-0.00337">
        <ele>150.60000610352</ele>
        <time>2020-07-06T10:55:33.000Z</time>
      </trkpt>
      <trkpt lat="43.5916" lon="-0.00346">
        <ele>150.60000610352</ele>
        <time>2020-07-06T10:55:34.000Z</time>
      </trkpt>
      <trkpt lat="43.59161" lon="-0.00355">
        <ele>150.60000610352</ele>
        <time>2020-07-06T10:55:35.000Z</time>
      </trkpt>
      <trkpt lat="43.5916" lon="-0.00362">
        <ele>150.60000610352</ele>
        <time>2020-07-06T10:55:36.000Z</time>
      </trkpt>
      <trkpt lat="43.5916" lon="-0.00375">
        <ele>150.60000610352</ele>
        <time>2020-07-06T10:55:38.000Z</time>
      </trkpt>
      <trkpt lat="43.59162" lon="-0.0038">
        <ele>150.80000305176</ele>
        <time>2020-07-06T10:55:39.000Z</time>
      </trkpt>
      <trkpt lat="43.59163" lon="-0.00384">
        <ele>151</ele>
        <time>2020-07-06T10:55:40.000Z</time>
      </trkpt>
      <trkpt lat="43.59163" lon="-0.00398">
        <ele>151</ele>
        <time>2020-07-06T10:55:43.000Z</time>
      </trkpt>
      <trkpt lat="43.59163" lon="-0.00403">
        <ele>151</ele>
        <time>2020-07-06T10:55:47.000Z</time>
      </trkpt>
      <trkpt lat="43.59167" lon="-0.0042">
        <ele>150.80000305176</ele>
        <time>2020-07-06T10:55:53.000Z</time>
      </trkpt>
      <trkpt lat="43.59168" lon="-0.00427">
        <ele>150.80000305176</ele>
        <time>2020-07-06T10:55:55.000Z</time>
      </trkpt>
      <trkpt lat="43.59169" lon="-0.00435">
        <ele>150.80000305176</ele>
        <time>2020-07-06T10:55:57.000Z</time>
      </trkpt>
      <trkpt lat="43.59174" lon="-0.00459">
        <ele>150.80000305176</ele>
        <time>2020-07-06T10:56:02.000Z</time>
      </trkpt>
      <trkpt lat="43.59184" lon="-0.00479">
        <ele>150.60000610352</ele>
        <time>2020-07-06T10:56:06.000Z</time>
      </trkpt>
      <trkpt lat="43.59189" lon="-0.00482">
        <ele>150.39999389648</ele>
        <time>2020-07-06T10:56:07.000Z</time>
      </trkpt>
      <trkpt lat="43.59199" lon="-0.00491">
        <ele>150.39999389648</ele>
        <time>2020-07-06T10:56:09.000Z</time>
      </trkpt>
      <trkpt lat="43.59204" lon="-0.00497">
        <ele>150.39999389648</ele>
        <time>2020-07-06T10:56:10.000Z</time>
      </trkpt>
      <trkpt lat="43.59209" lon="-0.00501">
        <ele>150.19999694824</ele>
        <time>2020-07-06T10:56:11.000Z</time>
      </trkpt>
      <trkpt lat="43.59226" lon="-0.00513">
        <ele>150.19999694824</ele>
        <time>2020-07-06T10:56:14.000Z</time>
      </trkpt>
      <trkpt lat="43.59262" lon="-0.00536">
        <ele>150</ele>
        <time>2020-07-06T10:56:19.000Z</time>
      </trkpt>
      <trkpt lat="43.59269" lon="-0.00539">
        <ele>149.80000305176</ele>
        <time>2020-07-06T10:56:20.000Z</time>
      </trkpt>
      <trkpt lat="43.59289" lon="-0.00551">
        <ele>149.60000610352</ele>
        <time>2020-07-06T10:56:23.000Z</time>
      </trkpt>
      <trkpt lat="43.59296" lon="-0.00554">
        <ele>149.39999389648</ele>
        <time>2020-07-06T10:56:24.000Z</time>
      </trkpt>
      <trkpt lat="43.59312" lon="-0.00563">
        <ele>148.80000305176</ele>
        <time>2020-07-06T10:56:26.000Z</time>
      </trkpt>
      <trkpt lat="43.59327" lon="-0.00569">
        <ele>149</ele>
        <time>2020-07-06T10:56:28.000Z</time>
      </trkpt>
      <trkpt lat="43.59335" lon="-0.00573">
        <ele>149.19999694824</ele>
        <time>2020-07-06T10:56:29.000Z</time>
      </trkpt>
      <trkpt lat="43.5935" lon="-0.00578">
        <ele>149</ele>
        <time>2020-07-06T10:56:31.000Z</time>
      </trkpt>
      <trkpt lat="43.59364" lon="-0.00578">
        <ele>148.80000305176</ele>
        <time>2020-07-06T10:56:33.000Z</time>
      </trkpt>
      <trkpt lat="43.5937" lon="-0.00578">
        <ele>148.80000305176</ele>
        <time>2020-07-06T10:56:34.000Z</time>
      </trkpt>
      <trkpt lat="43.59384" lon="-0.00582">
        <ele>148.80000305176</ele>
        <time>2020-07-06T10:56:36.000Z</time>
      </trkpt>
      <trkpt lat="43.59396" lon="-0.00577">
        <ele>149</ele>
        <time>2020-07-06T10:56:38.000Z</time>
      </trkpt>
      <trkpt lat="43.59401" lon="-0.00573">
        <ele>149.19999694824</ele>
        <time>2020-07-06T10:56:39.000Z</time>
      </trkpt>
      <trkpt lat="43.59412" lon="-0.0056">
        <ele>148.80000305176</ele>
        <time>2020-07-06T10:56:41.000Z</time>
      </trkpt>
      <trkpt lat="43.59415" lon="-0.00553">
        <ele>149.19999694824</ele>
        <time>2020-07-06T10:56:42.000Z</time>
      </trkpt>
      <trkpt lat="43.59418" lon="-0.00547">
        <ele>149.60000610352</ele>
        <time>2020-07-06T10:56:43.000Z</time>
      </trkpt>
      <trkpt lat="43.59421" lon="-0.00542">
        <ele>149.80000305176</ele>
        <time>2020-07-06T10:56:44.000Z</time>
      </trkpt>
      <trkpt lat="43.59425" lon="-0.00538">
        <ele>149.80000305176</ele>
        <time>2020-07-06T10:56:45.000Z</time>
      </trkpt>
      <trkpt lat="43.59436" lon="-0.00534">
        <ele>149.80000305176</ele>
        <time>2020-07-06T10:56:47.000Z</time>
      </trkpt>
      <trkpt lat="43.5944" lon="-0.00533">
        <ele>149.80000305176</ele>
        <time>2020-07-06T10:56:48.000Z</time>
      </trkpt>
      <trkpt lat="43.59444" lon="-0.00532">
        <ele>149.80000305176</ele>
        <time>2020-07-06T10:56:49.000Z</time>
      </trkpt>
      <trkpt lat="43.59453" lon="-0.00521">
        <ele>149.39999389648</ele>
        <time>2020-07-06T10:56:51.000Z</time>
      </trkpt>
      <trkpt lat="43.59475" lon="-0.00474">
        <ele>149.19999694824</ele>
        <time>2020-07-06T10:56:58.000Z</time>
      </trkpt>
      <trkpt lat="43.59485" lon="-0.00445">
        <ele>149.80000305176</ele>
        <time>2020-07-06T10:57:02.000Z</time>
      </trkpt>
      <trkpt lat="43.59491" lon="-0.00431">
        <ele>149.60000610352</ele>
        <time>2020-07-06T10:57:04.000Z</time>
      </trkpt>
      <trkpt lat="43.59502" lon="-0.00405">
        <ele>149.60000610352</ele>
        <time>2020-07-06T10:57:07.000Z</time>
      </trkpt>
      <trkpt lat="43.59505" lon="-0.00396">
        <ele>149.39999389648</ele>
        <time>2020-07-06T10:57:08.000Z</time>
      </trkpt>
      <trkpt lat="43.59507" lon="-0.00389">
        <ele>149.39999389648</ele>
        <time>2020-07-06T10:57:09.000Z</time>
      </trkpt>
      <trkpt lat="43.59513" lon="-0.00383">
        <ele>149.19999694824</ele>
        <time>2020-07-06T10:57:11.000Z</time>
      </trkpt>
      <trkpt lat="43.59525" lon="-0.00389">
        <ele>149.19999694824</ele>
        <time>2020-07-06T10:57:14.000Z</time>
      </trkpt>
      <trkpt lat="43.5955" lon="-0.00403">
        <ele>149.19999694824</ele>
        <time>2020-07-06T10:57:19.000Z</time>
      </trkpt>
      <trkpt lat="43.59562" lon="-0.00408">
        <ele>149.19999694824</ele>
        <time>2020-07-06T10:57:21.000Z</time>
      </trkpt>
      <trkpt lat="43.59573" lon="-0.00405">
        <ele>149</ele>
        <time>2020-07-06T10:57:23.000Z</time>
      </trkpt>
      <trkpt lat="43.59582" lon="-0.00394">
        <ele>149.19999694824</ele>
        <time>2020-07-06T10:57:25.000Z</time>
      </trkpt>
      <trkpt lat="43.59587" lon="-0.00391">
        <ele>149.19999694824</ele>
        <time>2020-07-06T10:57:26.000Z</time>
      </trkpt>
      <trkpt lat="43.59593" lon="-0.00391">
        <ele>149.19999694824</ele>
        <time>2020-07-06T10:57:27.000Z</time>
      </trkpt>
      <trkpt lat="43.59605" lon="-0.00396">
        <ele>149.19999694824</ele>
        <time>2020-07-06T10:57:29.000Z</time>
      </trkpt>
      <trkpt lat="43.59638" lon="-0.00411">
        <ele>149.19999694824</ele>
        <time>2020-07-06T10:57:34.000Z</time>
      </trkpt>
      <trkpt lat="43.5967" lon="-0.00425">
        <ele>148.80000305176</ele>
        <time>2020-07-06T10:57:39.000Z</time>
      </trkpt>
      <trkpt lat="43.59675" lon="-0.00428">
        <ele>148.60000610352</ele>
        <time>2020-07-06T10:57:40.000Z</time>
      </trkpt>
      <trkpt lat="43.59682" lon="-0.00431">
        <ele>148.60000610352</ele>
        <time>2020-07-06T10:57:41.000Z</time>
      </trkpt>
      <trkpt lat="43.5969" lon="-0.00432">
        <ele>148.60000610352</ele>
        <time>2020-07-06T10:57:42.000Z</time>
      </trkpt>
      <trkpt lat="43.5971" lon="-0.00435">
        <ele>148.60000610352</ele>
        <time>2020-07-06T10:57:45.000Z</time>
      </trkpt>
      <trkpt lat="43.59718" lon="-0.00436">
        <ele>148.60000610352</ele>
        <time>2020-07-06T10:57:46.000Z</time>
      </trkpt>
      <trkpt lat="43.5977" lon="-0.00442">
        <ele>148.39999389648</ele>
        <time>2020-07-06T10:57:53.000Z</time>
      </trkpt>
      <trkpt lat="43.59824" lon="-0.00444">
        <ele>147.80000305176</ele>
        <time>2020-07-06T10:58:00.000Z</time>
      </trkpt>
      <trkpt lat="43.59832" lon="-0.00444">
        <ele>147.80000305176</ele>
        <time>2020-07-06T10:58:01.000Z</time>
      </trkpt>
      <trkpt lat="43.5987" lon="-0.00449">
        <ele>148</ele>
        <time>2020-07-06T10:58:06.000Z</time>
      </trkpt>
      <trkpt lat="43.59884" lon="-0.00454">
        <ele>148</ele>
        <time>2020-07-06T10:58:08.000Z</time>
      </trkpt>
      <trkpt lat="43.59891" lon="-0.00457">
        <ele>148</ele>
        <time>2020-07-06T10:58:09.000Z</time>
      </trkpt>
      <trkpt lat="43.59913" lon="-0.00459">
        <ele>148</ele>
        <time>2020-07-06T10:58:12.000Z</time>
      </trkpt>
      <trkpt lat="43.59927" lon="-0.00461">
        <ele>148.19999694824</ele>
        <time>2020-07-06T10:58:14.000Z</time>
      </trkpt>
      <trkpt lat="43.59948" lon="-0.00461">
        <ele>148.60000610352</ele>
        <time>2020-07-06T10:58:17.000Z</time>
      </trkpt>
      <trkpt lat="43.59955" lon="-0.00461">
        <ele>148.60000610352</ele>
        <time>2020-07-06T10:58:18.000Z</time>
      </trkpt>
      <trkpt lat="43.59969" lon="-0.00458">
        <ele>148.39999389648</ele>
        <time>2020-07-06T10:58:20.000Z</time>
      </trkpt>
      <trkpt lat="43.59975" lon="-0.00455">
        <ele>148.39999389648</ele>
        <time>2020-07-06T10:58:21.000Z</time>
      </trkpt>
      <trkpt lat="43.6" lon="-0.0044">
        <ele>148</ele>
        <time>2020-07-06T10:58:25.000Z</time>
      </trkpt>
      <trkpt lat="43.60012" lon="-0.00433">
        <ele>147.80000305176</ele>
        <time>2020-07-06T10:58:27.000Z</time>
      </trkpt>
      <trkpt lat="43.60019" lon="-0.0043">
        <ele>147.60000610352</ele>
        <time>2020-07-06T10:58:28.000Z</time>
      </trkpt>
      <trkpt lat="43.60033" lon="-0.00426">
        <ele>147.39999389648</ele>
        <time>2020-07-06T10:58:30.000Z</time>
      </trkpt>
      <trkpt lat="43.60047" lon="-0.00424">
        <ele>147.19999694824</ele>
        <time>2020-07-06T10:58:32.000Z</time>
      </trkpt>
      <trkpt lat="43.60054" lon="-0.00424">
        <ele>147.19999694824</ele>
        <time>2020-07-06T10:58:33.000Z</time>
      </trkpt>
      <trkpt lat="43.60081" lon="-0.00427">
        <ele>147</ele>
        <time>2020-07-06T10:58:37.000Z</time>
      </trkpt>
      <trkpt lat="43.60118" lon="-0.00436">
        <ele>146.80000305176</ele>
        <time>2020-07-06T10:58:43.000Z</time>
      </trkpt>
      <trkpt lat="43.60129" lon="-0.00441">
        <ele>146.80000305176</ele>
        <time>2020-07-06T10:58:45.000Z</time>
      </trkpt>
      <trkpt lat="43.60145" lon="-0.00445">
        <ele>147.19999694824</ele>
        <time>2020-07-06T10:58:48.000Z</time>
      </trkpt>
      <trkpt lat="43.6016" lon="-0.00458">
        <ele>148</ele>
        <time>2020-07-06T10:58:53.000Z</time>
      </trkpt>
      <trkpt lat="43.60159" lon="-0.00475">
        <ele>148</ele>
        <time>2020-07-06T10:58:56.000Z</time>
      </trkpt>
      <trkpt lat="43.60158" lon="-0.00483">
        <ele>148.19999694824</ele>
        <time>2020-07-06T10:58:57.000Z</time>
      </trkpt>
      <trkpt lat="43.60151" lon="-0.00527">
        <ele>148</ele>
        <time>2020-07-06T10:59:02.000Z</time>
      </trkpt>
      <trkpt lat="43.60139" lon="-0.00582">
        <ele>147.60000610352</ele>
        <time>2020-07-06T10:59:08.000Z</time>
      </trkpt>
      <trkpt lat="43.60119" lon="-0.00642">
        <ele>147.19999694824</ele>
        <time>2020-07-06T10:59:15.000Z</time>
      </trkpt>
      <trkpt lat="43.60117" lon="-0.00649">
        <ele>147.19999694824</ele>
        <time>2020-07-06T10:59:16.000Z</time>
      </trkpt>
      <trkpt lat="43.60117" lon="-0.00662">
        <ele>147.19999694824</ele>
        <time>2020-07-06T10:59:18.000Z</time>
      </trkpt>
      <trkpt lat="43.60122" lon="-0.00672">
        <ele>147.19999694824</ele>
        <time>2020-07-06T10:59:20.000Z</time>
      </trkpt>
      <trkpt lat="43.60128" lon="-0.00674">
        <ele>147.19999694824</ele>
        <time>2020-07-06T10:59:21.000Z</time>
      </trkpt>
      <trkpt lat="43.60157" lon="-0.0068">
        <ele>147.19999694824</ele>
        <time>2020-07-06T10:59:25.000Z</time>
      </trkpt>
      <trkpt lat="43.60211" lon="-0.00693">
        <ele>146.60000610352</ele>
        <time>2020-07-06T10:59:32.000Z</time>
      </trkpt>
      <trkpt lat="43.60218" lon="-0.00695">
        <ele>146.39999389648</ele>
        <time>2020-07-06T10:59:33.000Z</time>
      </trkpt>
      <trkpt lat="43.60272" lon="-0.00707">
        <ele>146.19999694824</ele>
        <time>2020-07-06T10:59:40.000Z</time>
      </trkpt>
      <trkpt lat="43.6028" lon="-0.00708">
        <ele>146.19999694824</ele>
        <time>2020-07-06T10:59:41.000Z</time>
      </trkpt>
      <trkpt lat="43.60287" lon="-0.00709">
        <ele>146.19999694824</ele>
        <time>2020-07-06T10:59:42.000Z</time>
      </trkpt>
      <trkpt lat="43.6031" lon="-0.00708">
        <ele>146.19999694824</ele>
        <time>2020-07-06T10:59:45.000Z</time>
      </trkpt>
      <trkpt lat="43.60325" lon="-0.00704">
        <ele>146.19999694824</ele>
        <time>2020-07-06T10:59:47.000Z</time>
      </trkpt>
      <trkpt lat="43.60357" lon="-0.00683">
        <ele>146.19999694824</ele>
        <time>2020-07-06T10:59:52.000Z</time>
      </trkpt>
      <trkpt lat="43.60375" lon="-0.00667">
        <ele>146.19999694824</ele>
        <time>2020-07-06T10:59:55.000Z</time>
      </trkpt>
      <trkpt lat="43.60388" lon="-0.00658">
        <ele>146.19999694824</ele>
        <time>2020-07-06T10:59:57.000Z</time>
      </trkpt>
      <trkpt lat="43.60423" lon="-0.00626">
        <ele>146</ele>
        <time>2020-07-06T11:00:03.000Z</time>
      </trkpt>
      <trkpt lat="43.60428" lon="-0.00619">
        <ele>146</ele>
        <time>2020-07-06T11:00:04.000Z</time>
      </trkpt>
      <trkpt lat="43.60432" lon="-0.00611">
        <ele>145.80000305176</ele>
        <time>2020-07-06T11:00:05.000Z</time>
      </trkpt>
      <trkpt lat="43.60436" lon="-0.00593">
        <ele>145.80000305176</ele>
        <time>2020-07-06T11:00:07.000Z</time>
      </trkpt>
      <trkpt lat="43.60447" lon="-0.00514">
        <ele>146</ele>
        <time>2020-07-06T11:00:15.000Z</time>
      </trkpt>
      <trkpt lat="43.60451" lon="-0.0048">
        <ele>146.19999694824</ele>
        <time>2020-07-06T11:00:19.000Z</time>
      </trkpt>
      <trkpt lat="43.60455" lon="-0.00466">
        <ele>146.39999389648</ele>
        <time>2020-07-06T11:00:21.000Z</time>
      </trkpt>
      <trkpt lat="43.60456" lon="-0.00461">
        <ele>146.39999389648</ele>
        <time>2020-07-06T11:00:23.000Z</time>
      </trkpt>
      <trkpt lat="43.60455" lon="-0.00458">
        <ele>146.80000305176</ele>
        <time>2020-07-06T11:00:24.000Z</time>
      </trkpt>
      <trkpt lat="43.60451" lon="-0.00446">
        <ele>147.80000305176</ele>
        <time>2020-07-06T11:00:27.000Z</time>
      </trkpt>
      <trkpt lat="43.60449" lon="-0.0044">
        <ele>148</ele>
        <time>2020-07-06T11:00:28.000Z</time>
      </trkpt>
      <trkpt lat="43.60438" lon="-0.00411">
        <ele>147.60000610352</ele>
        <time>2020-07-06T11:00:32.000Z</time>
      </trkpt>
      <trkpt lat="43.60416" lon="-0.00351">
        <ele>147.19999694824</ele>
        <time>2020-07-06T11:00:39.000Z</time>
      </trkpt>
      <trkpt lat="43.60408" lon="-0.00328">
        <ele>147</ele>
        <time>2020-07-06T11:00:42.000Z</time>
      </trkpt>
      <trkpt lat="43.6041" lon="-0.00312">
        <ele>146.80000305176</ele>
        <time>2020-07-06T11:00:44.000Z</time>
      </trkpt>
      <trkpt lat="43.60419" lon="-0.00304">
        <ele>146.39999389648</ele>
        <time>2020-07-06T11:00:46.000Z</time>
      </trkpt>
      <trkpt lat="43.60425" lon="-0.00301">
        <ele>146.39999389648</ele>
        <time>2020-07-06T11:00:47.000Z</time>
      </trkpt>
      <trkpt lat="43.60468" lon="-0.00287">
        <ele>145.80000305176</ele>
        <time>2020-07-06T11:00:53.000Z</time>
      </trkpt>
      <trkpt lat="43.60495" lon="-0.00276">
        <ele>145.80000305176</ele>
        <time>2020-07-06T11:00:57.000Z</time>
      </trkpt>
      <trkpt lat="43.60502" lon="-0.00269">
        <ele>145.80000305176</ele>
        <time>2020-07-06T11:00:58.000Z</time>
      </trkpt>
      <trkpt lat="43.60505" lon="-0.00262">
        <ele>145.80000305176</ele>
        <time>2020-07-06T11:00:59.000Z</time>
      </trkpt>
      <trkpt lat="43.60511" lon="-0.00244">
        <ele>145.80000305176</ele>
        <time>2020-07-06T11:01:01.000Z</time>
      </trkpt>
      <trkpt lat="43.6052" lon="-0.00212">
        <ele>145.80000305176</ele>
        <time>2020-07-06T11:01:04.000Z</time>
      </trkpt>
      <trkpt lat="43.60529" lon="-0.00197">
        <ele>145.80000305176</ele>
        <time>2020-07-06T11:01:06.000Z</time>
      </trkpt>
      <trkpt lat="43.60544" lon="-0.00186">
        <ele>145.80000305176</ele>
        <time>2020-07-06T11:01:08.000Z</time>
      </trkpt>
      <trkpt lat="43.60551" lon="-0.00182">
        <ele>145.80000305176</ele>
        <time>2020-07-06T11:01:09.000Z</time>
      </trkpt>
      <trkpt lat="43.60572" lon="-0.00175">
        <ele>145.80000305176</ele>
        <time>2020-07-06T11:01:12.000Z</time>
      </trkpt>
      <trkpt lat="43.60581" lon="-0.00176">
        <ele>145.60000610352</ele>
        <time>2020-07-06T11:01:13.000Z</time>
      </trkpt>
      <trkpt lat="43.60588" lon="-0.00179">
        <ele>145.60000610352</ele>
        <time>2020-07-06T11:01:14.000Z</time>
      </trkpt>
      <trkpt lat="43.606" lon="-0.00189">
        <ele>145.39999389648</ele>
        <time>2020-07-06T11:01:16.000Z</time>
      </trkpt>
      <trkpt lat="43.60618" lon="-0.00209">
        <ele>145.80000305176</ele>
        <time>2020-07-06T11:01:19.000Z</time>
      </trkpt>
      <trkpt lat="43.60633" lon="-0.00219">
        <ele>145.60000610352</ele>
        <time>2020-07-06T11:01:21.000Z</time>
      </trkpt>
      <trkpt lat="43.60668" lon="-0.00242">
        <ele>145.19999694824</ele>
        <time>2020-07-06T11:01:26.000Z</time>
      </trkpt>
      <trkpt lat="43.60688" lon="-0.00257">
        <ele>145.19999694824</ele>
        <time>2020-07-06T11:01:29.000Z</time>
      </trkpt>
      <trkpt lat="43.60699" lon="-0.00266">
        <ele>145.19999694824</ele>
        <time>2020-07-06T11:01:31.000Z</time>
      </trkpt>
      <trkpt lat="43.6074" lon="-0.00296">
        <ele>145</ele>
        <time>2020-07-06T11:01:37.000Z</time>
      </trkpt>
      <trkpt lat="43.60774" lon="-0.00317">
        <ele>144.60000610352</ele>
        <time>2020-07-06T11:01:42.000Z</time>
      </trkpt>
      <trkpt lat="43.60788" lon="-0.00324">
        <ele>144.39999389648</ele>
        <time>2020-07-06T11:01:44.000Z</time>
      </trkpt>
      <trkpt lat="43.60809" lon="-0.00331">
        <ele>144.19999694824</ele>
        <time>2020-07-06T11:01:47.000Z</time>
      </trkpt>
      <trkpt lat="43.60816" lon="-0.00331">
        <ele>144.19999694824</ele>
        <time>2020-07-06T11:01:48.000Z</time>
      </trkpt>
      <trkpt lat="43.60823" lon="-0.00329">
        <ele>144.19999694824</ele>
        <time>2020-07-06T11:01:49.000Z</time>
      </trkpt>
      <trkpt lat="43.60843" lon="-0.00316">
        <ele>144.60000610352</ele>
        <time>2020-07-06T11:01:52.000Z</time>
      </trkpt>
      <trkpt lat="43.60879" lon="-0.00289">
        <ele>145.19999694824</ele>
        <time>2020-07-06T11:01:58.000Z</time>
      </trkpt>
      <trkpt lat="43.60894" lon="-0.00285">
        <ele>145.39999389648</ele>
        <time>2020-07-06T11:02:00.000Z</time>
      </trkpt>
      <trkpt lat="43.60908" lon="-0.00287">
        <ele>145.19999694824</ele>
        <time>2020-07-06T11:02:02.000Z</time>
      </trkpt>
      <trkpt lat="43.60942" lon="-0.00296">
        <ele>145.19999694824</ele>
        <time>2020-07-06T11:02:07.000Z</time>
      </trkpt>
      <trkpt lat="43.60949" lon="-0.00297">
        <ele>145.19999694824</ele>
        <time>2020-07-06T11:02:08.000Z</time>
      </trkpt>
      <trkpt lat="43.60978" lon="-0.00296">
        <ele>145</ele>
        <time>2020-07-06T11:02:12.000Z</time>
      </trkpt>
      <trkpt lat="43.60985" lon="-0.00296">
        <ele>145</ele>
        <time>2020-07-06T11:02:13.000Z</time>
      </trkpt>
      <trkpt lat="43.61043" lon="-0.00292">
        <ele>144</ele>
        <time>2020-07-06T11:02:21.000Z</time>
      </trkpt>
      <trkpt lat="43.61049" lon="-0.00293">
        <ele>144.19999694824</ele>
        <time>2020-07-06T11:02:22.000Z</time>
      </trkpt>
      <trkpt lat="43.61106" lon="-0.00304">
        <ele>144.60000610352</ele>
        <time>2020-07-06T11:02:30.000Z</time>
      </trkpt>
      <trkpt lat="43.61164" lon="-0.00319">
        <ele>144.60000610352</ele>
        <time>2020-07-06T11:02:38.000Z</time>
      </trkpt>
      <trkpt lat="43.61186" lon="-0.00322">
        <ele>144.39999389648</ele>
        <time>2020-07-06T11:02:41.000Z</time>
      </trkpt>
      <trkpt lat="43.61246" lon="-0.00325">
        <ele>144.60000610352</ele>
        <time>2020-07-06T11:02:49.000Z</time>
      </trkpt>
      <trkpt lat="43.61261" lon="-0.00325">
        <ele>144.60000610352</ele>
        <time>2020-07-06T11:02:51.000Z</time>
      </trkpt>
      <trkpt lat="43.61275" lon="-0.00324">
        <ele>144.39999389648</ele>
        <time>2020-07-06T11:02:53.000Z</time>
      </trkpt>
      <trkpt lat="43.6129" lon="-0.00317">
        <ele>143.80000305176</ele>
        <time>2020-07-06T11:02:55.000Z</time>
      </trkpt>
      <trkpt lat="43.61297" lon="-0.00313">
        <ele>143.60000610352</ele>
        <time>2020-07-06T11:02:56.000Z</time>
      </trkpt>
      <trkpt lat="43.61313" lon="-0.0031">
        <ele>143.39999389648</ele>
        <time>2020-07-06T11:02:58.000Z</time>
      </trkpt>
      <trkpt lat="43.61357" lon="-0.00315">
        <ele>143.39999389648</ele>
        <time>2020-07-06T11:03:04.000Z</time>
      </trkpt>
      <trkpt lat="43.61369" lon="-0.00316">
        <ele>143.39999389648</ele>
        <time>2020-07-06T11:03:06.000Z</time>
      </trkpt>
      <trkpt lat="43.6138" lon="-0.0031">
        <ele>143.80000305176</ele>
        <time>2020-07-06T11:03:08.000Z</time>
      </trkpt>
      <trkpt lat="43.61386" lon="-0.00297">
        <ele>144.19999694824</ele>
        <time>2020-07-06T11:03:10.000Z</time>
      </trkpt>
      <trkpt lat="43.61387" lon="-0.00288">
        <ele>144.19999694824</ele>
        <time>2020-07-06T11:03:11.000Z</time>
      </trkpt>
      <trkpt lat="43.61394" lon="-0.0023">
        <ele>144.39999389648</ele>
        <time>2020-07-06T11:03:17.000Z</time>
      </trkpt>
      <trkpt lat="43.61396" lon="-0.00166">
        <ele>144.39999389648</ele>
        <time>2020-07-06T11:03:23.000Z</time>
      </trkpt>
      <trkpt lat="43.6139" lon="-0.0009">
        <ele>144.60000610352</ele>
        <time>2020-07-06T11:03:30.000Z</time>
      </trkpt>
      <trkpt lat="43.61377" lon="-0.00019">
        <ele>144.60000610352</ele>
        <time>2020-07-06T11:03:37.000Z</time>
      </trkpt>
      <trkpt lat="43.61364" lon="0.00049">
        <ele>144.80000305176</ele>
        <time>2020-07-06T11:03:44.000Z</time>
      </trkpt>
      <trkpt lat="43.61344" lon="0.00111">
        <ele>144.60000610352</ele>
        <time>2020-07-06T11:03:51.000Z</time>
      </trkpt>
      <trkpt lat="43.61334" lon="0.00157">
        <ele>144.60000610352</ele>
        <time>2020-07-06T11:03:56.000Z</time>
      </trkpt>
      <trkpt lat="43.61329" lon="0.00174">
        <ele>144.60000610352</ele>
        <time>2020-07-06T11:03:58.000Z</time>
      </trkpt>
      <trkpt lat="43.61326" lon="0.00182">
        <ele>144.60000610352</ele>
        <time>2020-07-06T11:03:59.000Z</time>
      </trkpt>
      <trkpt lat="43.61317" lon="0.0019">
        <ele>144.60000610352</ele>
        <time>2020-07-06T11:04:01.000Z</time>
      </trkpt>
      <trkpt lat="43.61306" lon="0.0019">
        <ele>145</ele>
        <time>2020-07-06T11:04:03.000Z</time>
      </trkpt>
      <trkpt lat="43.613" lon="0.0019">
        <ele>145</ele>
        <time>2020-07-06T11:04:04.000Z</time>
      </trkpt>
      <trkpt lat="43.61288" lon="0.00194">
        <ele>145.19999694824</ele>
        <time>2020-07-06T11:04:06.000Z</time>
      </trkpt>
      <trkpt lat="43.61284" lon="0.00199">
        <ele>145.19999694824</ele>
        <time>2020-07-06T11:04:07.000Z</time>
      </trkpt>
      <trkpt lat="43.61281" lon="0.00206">
        <ele>145.19999694824</ele>
        <time>2020-07-06T11:04:08.000Z</time>
      </trkpt>
      <trkpt lat="43.6128" lon="0.00226">
        <ele>145.19999694824</ele>
        <time>2020-07-06T11:04:10.000Z</time>
      </trkpt>
      <trkpt lat="43.61278" lon="0.00274">
        <ele>145</ele>
        <time>2020-07-06T11:04:15.000Z</time>
      </trkpt>
      <trkpt lat="43.61274" lon="0.00349">
        <ele>144.60000610352</ele>
        <time>2020-07-06T11:04:22.000Z</time>
      </trkpt>
      <trkpt lat="43.61273" lon="0.00358">
        <ele>144.80000305176</ele>
        <time>2020-07-06T11:04:23.000Z</time>
      </trkpt>
      <trkpt lat="43.61272" lon="0.00368">
        <ele>144.80000305176</ele>
        <time>2020-07-06T11:04:24.000Z</time>
      </trkpt>
      <trkpt lat="43.61267" lon="0.00444">
        <ele>144.39999389648</ele>
        <time>2020-07-06T11:04:31.000Z</time>
      </trkpt>
      <trkpt lat="43.61263" lon="0.00525">
        <ele>144.60000610352</ele>
        <time>2020-07-06T11:04:38.000Z</time>
      </trkpt>
      <trkpt lat="43.61261" lon="0.00548">
        <ele>144.60000610352</ele>
        <time>2020-07-06T11:04:40.000Z</time>
      </trkpt>
      <trkpt lat="43.61256" lon="0.00624">
        <ele>144.60000610352</ele>
        <time>2020-07-06T11:04:47.000Z</time>
      </trkpt>
      <trkpt lat="43.61256" lon="0.00635">
        <ele>144.39999389648</ele>
        <time>2020-07-06T11:04:48.000Z</time>
      </trkpt>
      <trkpt lat="43.61251" lon="0.00717">
        <ele>145</ele>
        <time>2020-07-06T11:04:56.000Z</time>
      </trkpt>
      <trkpt lat="43.61244" lon="0.008">
        <ele>144.80000305176</ele>
        <time>2020-07-06T11:05:04.000Z</time>
      </trkpt>
      <trkpt lat="43.61244" lon="0.0081">
        <ele>144.80000305176</ele>
        <time>2020-07-06T11:05:05.000Z</time>
      </trkpt>
      <trkpt lat="43.61244" lon="0.00883">
        <ele>144.60000610352</ele>
        <time>2020-07-06T11:05:12.000Z</time>
      </trkpt>
      <trkpt lat="43.61244" lon="0.0089">
        <ele>144.60000610352</ele>
        <time>2020-07-06T11:05:13.000Z</time>
      </trkpt>
      <trkpt lat="43.61247" lon="0.00898">
        <ele>144.60000610352</ele>
        <time>2020-07-06T11:05:15.000Z</time>
      </trkpt>
      <trkpt lat="43.61254" lon="0.00899">
        <ele>144.80000305176</ele>
        <time>2020-07-06T11:05:18.000Z</time>
      </trkpt>
      <trkpt lat="43.61269" lon="0.00896">
        <ele>144.80000305176</ele>
        <time>2020-07-06T11:05:21.000Z</time>
      </trkpt>
      <trkpt lat="43.61301" lon="0.0089">
        <ele>144.80000305176</ele>
        <time>2020-07-06T11:05:26.000Z</time>
      </trkpt>
      <trkpt lat="43.61314" lon="0.00884">
        <ele>144.19999694824</ele>
        <time>2020-07-06T11:05:28.000Z</time>
      </trkpt>
      <trkpt lat="43.61332" lon="0.00873">
        <ele>144</ele>
        <time>2020-07-06T11:05:31.000Z</time>
      </trkpt>
      <trkpt lat="43.61345" lon="0.00866">
        <ele>143.80000305176</ele>
        <time>2020-07-06T11:05:33.000Z</time>
      </trkpt>
      <trkpt lat="43.61358" lon="0.00864">
        <ele>144</ele>
        <time>2020-07-06T11:05:35.000Z</time>
      </trkpt>
      <trkpt lat="43.61364" lon="0.00864">
        <ele>144</ele>
        <time>2020-07-06T11:05:36.000Z</time>
      </trkpt>
      <trkpt lat="43.6137" lon="0.00864">
        <ele>144</ele>
        <time>2020-07-06T11:05:37.000Z</time>
      </trkpt>
      <trkpt lat="43.61397" lon="0.0086">
        <ele>144.60000610352</ele>
        <time>2020-07-06T11:05:41.000Z</time>
      </trkpt>
      <trkpt lat="43.61415" lon="0.00857">
        <ele>144.39999389648</ele>
        <time>2020-07-06T11:05:44.000Z</time>
      </trkpt>
      <trkpt lat="43.61434" lon="0.00859">
        <ele>144.60000610352</ele>
        <time>2020-07-06T11:05:47.000Z</time>
      </trkpt>
      <trkpt lat="43.6147" lon="0.00858">
        <ele>144.80000305176</ele>
        <time>2020-07-06T11:05:53.000Z</time>
      </trkpt>
      <trkpt lat="43.61475" lon="0.00856">
        <ele>144.80000305176</ele>
        <time>2020-07-06T11:05:54.000Z</time>
      </trkpt>
      <trkpt lat="43.61481" lon="0.00855">
        <ele>145</ele>
        <time>2020-07-06T11:05:55.000Z</time>
      </trkpt>
      <trkpt lat="43.61486" lon="0.00853">
        <ele>145.19999694824</ele>
        <time>2020-07-06T11:05:56.000Z</time>
      </trkpt>
      <trkpt lat="43.61504" lon="0.00854">
        <ele>145</ele>
        <time>2020-07-06T11:05:59.000Z</time>
      </trkpt>
      <trkpt lat="43.6154" lon="0.00853">
        <ele>145</ele>
        <time>2020-07-06T11:06:05.000Z</time>
      </trkpt>
      <trkpt lat="43.61596" lon="0.00851">
        <ele>144.80000305176</ele>
        <time>2020-07-06T11:06:14.000Z</time>
      </trkpt>
      <trkpt lat="43.61602" lon="0.0085">
        <ele>144.80000305176</ele>
        <time>2020-07-06T11:06:15.000Z</time>
      </trkpt>
      <trkpt lat="43.61615" lon="0.00852">
        <ele>144.60000610352</ele>
        <time>2020-07-06T11:06:17.000Z</time>
      </trkpt>
      <trkpt lat="43.61626" lon="0.00855">
        <ele>144.19999694824</ele>
        <time>2020-07-06T11:06:19.000Z</time>
      </trkpt>
      <trkpt lat="43.61651" lon="0.00861">
        <ele>144</ele>
        <time>2020-07-06T11:06:23.000Z</time>
      </trkpt>
      <trkpt lat="43.61689" lon="0.00868">
        <ele>143.39999389648</ele>
        <time>2020-07-06T11:06:29.000Z</time>
      </trkpt>
      <trkpt lat="43.61725" lon="0.0087">
        <ele>143.39999389648</ele>
        <time>2020-07-06T11:06:35.000Z</time>
      </trkpt>
      <trkpt lat="43.6173" lon="0.00869">
        <ele>143.39999389648</ele>
        <time>2020-07-06T11:06:36.000Z</time>
      </trkpt>
      <trkpt lat="43.61734" lon="0.0087">
        <ele>143.39999389648</ele>
        <time>2020-07-06T11:06:37.000Z</time>
      </trkpt>
      <trkpt lat="43.61739" lon="0.00876">
        <ele>143.60000610352</ele>
        <time>2020-07-06T11:06:39.000Z</time>
      </trkpt>
      <trkpt lat="43.61737" lon="0.00896">
        <ele>144</ele>
        <time>2020-07-06T11:06:42.000Z</time>
      </trkpt>
      <trkpt lat="43.61729" lon="0.0094">
        <ele>144</ele>
        <time>2020-07-06T11:06:47.000Z</time>
      </trkpt>
      <trkpt lat="43.61721" lon="0.0099">
        <ele>144</ele>
        <time>2020-07-06T11:06:52.000Z</time>
      </trkpt>
      <trkpt lat="43.61708" lon="0.01064">
        <ele>144.19999694824</ele>
        <time>2020-07-06T11:06:59.000Z</time>
      </trkpt>
      <trkpt lat="43.61704" lon="0.01086">
        <ele>144.19999694824</ele>
        <time>2020-07-06T11:07:01.000Z</time>
      </trkpt>
      <trkpt lat="43.61688" lon="0.01161">
        <ele>144.19999694824</ele>
        <time>2020-07-06T11:07:08.000Z</time>
      </trkpt>
      <trkpt lat="43.61683" lon="0.01182">
        <ele>144.19999694824</ele>
        <time>2020-07-06T11:07:10.000Z</time>
      </trkpt>
      <trkpt lat="43.61679" lon="0.01204">
        <ele>144.19999694824</ele>
        <time>2020-07-06T11:07:12.000Z</time>
      </trkpt>
      <trkpt lat="43.61679" lon="0.01225">
        <ele>144.19999694824</ele>
        <time>2020-07-06T11:07:14.000Z</time>
      </trkpt>
      <trkpt lat="43.6169" lon="0.01285">
        <ele>144.60000610352</ele>
        <time>2020-07-06T11:07:20.000Z</time>
      </trkpt>
      <trkpt lat="43.61696" lon="0.01311">
        <ele>145.39999389648</ele>
        <time>2020-07-06T11:07:23.000Z</time>
      </trkpt>
      <trkpt lat="43.61701" lon="0.01336">
        <ele>145.19999694824</ele>
        <time>2020-07-06T11:07:26.000Z</time>
      </trkpt>
      <trkpt lat="43.61709" lon="0.01348">
        <ele>145.39999389648</ele>
        <time>2020-07-06T11:07:28.000Z</time>
      </trkpt>
      <trkpt lat="43.61714" lon="0.01353">
        <ele>145.60000610352</ele>
        <time>2020-07-06T11:07:29.000Z</time>
      </trkpt>
      <trkpt lat="43.61747" lon="0.01388">
        <ele>145.19999694824</ele>
        <time>2020-07-06T11:07:35.000Z</time>
      </trkpt>
      <trkpt lat="43.61756" lon="0.01403">
        <ele>145.39999389648</ele>
        <time>2020-07-06T11:07:37.000Z</time>
      </trkpt>
      <trkpt lat="43.61766" lon="0.01429">
        <ele>145.39999389648</ele>
        <time>2020-07-06T11:07:40.000Z</time>
      </trkpt>
      <trkpt lat="43.61771" lon="0.01478">
        <ele>145.60000610352</ele>
        <time>2020-07-06T11:07:45.000Z</time>
      </trkpt>
      <trkpt lat="43.61774" lon="0.01498">
        <ele>145.60000610352</ele>
        <time>2020-07-06T11:07:47.000Z</time>
      </trkpt>
      <trkpt lat="43.61782" lon="0.01513">
        <ele>145.60000610352</ele>
        <time>2020-07-06T11:07:49.000Z</time>
      </trkpt>
      <trkpt lat="43.61795" lon="0.01522">
        <ele>145.39999389648</ele>
        <time>2020-07-06T11:07:51.000Z</time>
      </trkpt>
      <trkpt lat="43.61802" lon="0.01524">
        <ele>145.39999389648</ele>
        <time>2020-07-06T11:07:52.000Z</time>
      </trkpt>
      <trkpt lat="43.61857" lon="0.01545">
        <ele>145.39999389648</ele>
        <time>2020-07-06T11:08:00.000Z</time>
      </trkpt>
      <trkpt lat="43.61869" lon="0.0154">
        <ele>145.19999694824</ele>
        <time>2020-07-06T11:08:02.000Z</time>
      </trkpt>
      <trkpt lat="43.61875" lon="0.01534">
        <ele>145.19999694824</ele>
        <time>2020-07-06T11:08:03.000Z</time>
      </trkpt>
      <trkpt lat="43.61879" lon="0.01528">
        <ele>145.19999694824</ele>
        <time>2020-07-06T11:08:04.000Z</time>
      </trkpt>
      <trkpt lat="43.6189" lon="0.01516">
        <ele>145.19999694824</ele>
        <time>2020-07-06T11:08:06.000Z</time>
      </trkpt>
      <trkpt lat="43.61896" lon="0.01513">
        <ele>145.19999694824</ele>
        <time>2020-07-06T11:08:07.000Z</time>
      </trkpt>
      <trkpt lat="43.61904" lon="0.01512">
        <ele>145.19999694824</ele>
        <time>2020-07-06T11:08:08.000Z</time>
      </trkpt>
      <trkpt lat="43.61918" lon="0.01518">
        <ele>145.19999694824</ele>
        <time>2020-07-06T11:08:10.000Z</time>
      </trkpt>
      <trkpt lat="43.61977" lon="0.01542">
        <ele>145.19999694824</ele>
        <time>2020-07-06T11:08:18.000Z</time>
      </trkpt>
      <trkpt lat="43.62032" lon="0.0155">
        <ele>145.19999694824</ele>
        <time>2020-07-06T11:08:25.000Z</time>
      </trkpt>
      <trkpt lat="43.62047" lon="0.01552">
        <ele>145.19999694824</ele>
        <time>2020-07-06T11:08:27.000Z</time>
      </trkpt>
      <trkpt lat="43.62105" lon="0.01559">
        <ele>145.39999389648</ele>
        <time>2020-07-06T11:08:34.000Z</time>
      </trkpt>
      <trkpt lat="43.62114" lon="0.0156">
        <ele>145.60000610352</ele>
        <time>2020-07-06T11:08:35.000Z</time>
      </trkpt>
      <trkpt lat="43.62172" lon="0.01567">
        <ele>145.80000305176</ele>
        <time>2020-07-06T11:08:42.000Z</time>
      </trkpt>
      <trkpt lat="43.62189" lon="0.01571">
        <ele>145.80000305176</ele>
        <time>2020-07-06T11:08:44.000Z</time>
      </trkpt>
      <trkpt lat="43.62248" lon="0.01593">
        <ele>145.80000305176</ele>
        <time>2020-07-06T11:08:51.000Z</time>
      </trkpt>
      <trkpt lat="43.62305" lon="0.01615">
        <ele>145.80000305176</ele>
        <time>2020-07-06T11:08:58.000Z</time>
      </trkpt>
      <trkpt lat="43.62322" lon="0.01621">
        <ele>145.80000305176</ele>
        <time>2020-07-06T11:09:00.000Z</time>
      </trkpt>
      <trkpt lat="43.6238" lon="0.01642">
        <ele>145.39999389648</ele>
        <time>2020-07-06T11:09:07.000Z</time>
      </trkpt>
      <trkpt lat="43.62398" lon="0.01646">
        <ele>145</ele>
        <time>2020-07-06T11:09:09.000Z</time>
      </trkpt>
      <trkpt lat="43.62457" lon="0.01662">
        <ele>144.80000305176</ele>
        <time>2020-07-06T11:09:16.000Z</time>
      </trkpt>
      <trkpt lat="43.62483" lon="0.01667">
        <ele>144.80000305176</ele>
        <time>2020-07-06T11:09:19.000Z</time>
      </trkpt>
      <trkpt lat="43.62543" lon="0.01673">
        <ele>144.80000305176</ele>
        <time>2020-07-06T11:09:26.000Z</time>
      </trkpt>
      <trkpt lat="43.62552" lon="0.01674">
        <ele>144.80000305176</ele>
        <time>2020-07-06T11:09:27.000Z</time>
      </trkpt>
      <trkpt lat="43.62613" lon="0.0168">
        <ele>144.80000305176</ele>
        <time>2020-07-06T11:09:34.000Z</time>
      </trkpt>
      <trkpt lat="43.62648" lon="0.01685">
        <ele>144.39999389648</ele>
        <time>2020-07-06T11:09:38.000Z</time>
      </trkpt>
      <trkpt lat="43.62674" lon="0.0169">
        <ele>144.19999694824</ele>
        <time>2020-07-06T11:09:41.000Z</time>
      </trkpt>
      <trkpt lat="43.62718" lon="0.01698">
        <ele>144</ele>
        <time>2020-07-06T11:09:46.000Z</time>
      </trkpt>
      <trkpt lat="43.62778" lon="0.01714">
        <ele>144</ele>
        <time>2020-07-06T11:09:53.000Z</time>
      </trkpt>
      <trkpt lat="43.62813" lon="0.01722">
        <ele>144.19999694824</ele>
        <time>2020-07-06T11:09:57.000Z</time>
      </trkpt>
      <trkpt lat="43.62873" lon="0.01736">
        <ele>143.80000305176</ele>
        <time>2020-07-06T11:10:04.000Z</time>
      </trkpt>
      <trkpt lat="43.62916" lon="0.01745">
        <ele>143.80000305176</ele>
        <time>2020-07-06T11:10:09.000Z</time>
      </trkpt>
      <trkpt lat="43.62976" lon="0.01756">
        <ele>143.60000610352</ele>
        <time>2020-07-06T11:10:16.000Z</time>
      </trkpt>
      <trkpt lat="43.62985" lon="0.01757">
        <ele>143.60000610352</ele>
        <time>2020-07-06T11:10:17.000Z</time>
      </trkpt>
      <trkpt lat="43.63027" lon="0.01768">
        <ele>143.19999694824</ele>
        <time>2020-07-06T11:10:22.000Z</time>
      </trkpt>
      <trkpt lat="43.63034" lon="0.01774">
        <ele>143.19999694824</ele>
        <time>2020-07-06T11:10:23.000Z</time>
      </trkpt>
      <trkpt lat="43.63049" lon="0.01788">
        <ele>143</ele>
        <time>2020-07-06T11:10:25.000Z</time>
      </trkpt>
      <trkpt lat="43.63077" lon="0.01817">
        <ele>142.80000305176</ele>
        <time>2020-07-06T11:10:29.000Z</time>
      </trkpt>
      <trkpt lat="43.63093" lon="0.01826">
        <ele>142.60000610352</ele>
        <time>2020-07-06T11:10:31.000Z</time>
      </trkpt>
      <trkpt lat="43.63109" lon="0.01833">
        <ele>142.39999389648</ele>
        <time>2020-07-06T11:10:33.000Z</time>
      </trkpt>
      <trkpt lat="43.63168" lon="0.01848">
        <ele>142.19999694824</ele>
        <time>2020-07-06T11:10:40.000Z</time>
      </trkpt>
      <trkpt lat="43.63211" lon="0.01842">
        <ele>142.19999694824</ele>
        <time>2020-07-06T11:10:45.000Z</time>
      </trkpt>
      <trkpt lat="43.63219" lon="0.01838">
        <ele>142</ele>
        <time>2020-07-06T11:10:46.000Z</time>
      </trkpt>
      <trkpt lat="43.63241" lon="0.01822">
        <ele>141.80000305176</ele>
        <time>2020-07-06T11:10:49.000Z</time>
      </trkpt>
      <trkpt lat="43.63249" lon="0.01816">
        <ele>141.80000305176</ele>
        <time>2020-07-06T11:10:50.000Z</time>
      </trkpt>
      <trkpt lat="43.63266" lon="0.01811">
        <ele>142</ele>
        <time>2020-07-06T11:10:52.000Z</time>
      </trkpt>
      <trkpt lat="43.63292" lon="0.01817">
        <ele>142.19999694824</ele>
        <time>2020-07-06T11:10:55.000Z</time>
      </trkpt>
      <trkpt lat="43.63343" lon="0.01835">
        <ele>142</ele>
        <time>2020-07-06T11:11:01.000Z</time>
      </trkpt>
      <trkpt lat="43.63351" lon="0.01839">
        <ele>141.80000305176</ele>
        <time>2020-07-06T11:11:02.000Z</time>
      </trkpt>
      <trkpt lat="43.63389" lon="0.01867">
        <ele>141.60000610352</ele>
        <time>2020-07-06T11:11:07.000Z</time>
      </trkpt>
      <trkpt lat="43.63405" lon="0.01876">
        <ele>141.39999389648</ele>
        <time>2020-07-06T11:11:09.000Z</time>
      </trkpt>
      <trkpt lat="43.6342" lon="0.01881">
        <ele>141.19999694824</ele>
        <time>2020-07-06T11:11:11.000Z</time>
      </trkpt>
      <trkpt lat="43.63437" lon="0.01882">
        <ele>141</ele>
        <time>2020-07-06T11:11:13.000Z</time>
      </trkpt>
      <trkpt lat="43.6347" lon="0.01883">
        <ele>140.60000610352</ele>
        <time>2020-07-06T11:11:17.000Z</time>
      </trkpt>
      <trkpt lat="43.63495" lon="0.01888">
        <ele>140.39999389648</ele>
        <time>2020-07-06T11:11:20.000Z</time>
      </trkpt>
      <trkpt lat="43.63513" lon="0.01886">
        <ele>140</ele>
        <time>2020-07-06T11:11:22.000Z</time>
      </trkpt>
      <trkpt lat="43.63545" lon="0.01864">
        <ele>138.80000305176</ele>
        <time>2020-07-06T11:11:26.000Z</time>
      </trkpt>
      <trkpt lat="43.63567" lon="0.01844">
        <ele>137.80000305176</ele>
        <time>2020-07-06T11:11:29.000Z</time>
      </trkpt>
      <trkpt lat="43.63588" lon="0.0182">
        <ele>137.39999389648</ele>
        <time>2020-07-06T11:11:32.000Z</time>
      </trkpt>
      <trkpt lat="43.63595" lon="0.01811">
        <ele>137.39999389648</ele>
        <time>2020-07-06T11:11:33.000Z</time>
      </trkpt>
      <trkpt lat="43.6361" lon="0.018">
        <ele>137.39999389648</ele>
        <time>2020-07-06T11:11:35.000Z</time>
      </trkpt>
      <trkpt lat="43.63647" lon="0.01792">
        <ele>137.80000305176</ele>
        <time>2020-07-06T11:11:39.000Z</time>
      </trkpt>
      <trkpt lat="43.63672" lon="0.01786">
        <ele>137.80000305176</ele>
        <time>2020-07-06T11:11:42.000Z</time>
      </trkpt>
      <trkpt lat="43.63679" lon="0.0178">
        <ele>137.80000305176</ele>
        <time>2020-07-06T11:11:43.000Z</time>
      </trkpt>
      <trkpt lat="43.63685" lon="0.01772">
        <ele>137.80000305176</ele>
        <time>2020-07-06T11:11:44.000Z</time>
      </trkpt>
      <trkpt lat="43.637" lon="0.01745">
        <ele>137.39999389648</ele>
        <time>2020-07-06T11:11:47.000Z</time>
      </trkpt>
      <trkpt lat="43.63722" lon="0.01703">
        <ele>137.39999389648</ele>
        <time>2020-07-06T11:11:52.000Z</time>
      </trkpt>
      <trkpt lat="43.63729" lon="0.01692">
        <ele>137.39999389648</ele>
        <time>2020-07-06T11:11:54.000Z</time>
      </trkpt>
      <trkpt lat="43.6373" lon="0.01687">
        <ele>137.39999389648</ele>
        <time>2020-07-06T11:11:55.000Z</time>
      </trkpt>
      <trkpt lat="43.6373" lon="0.01682">
        <ele>137.39999389648</ele>
        <time>2020-07-06T11:11:56.000Z</time>
      </trkpt>
      <trkpt lat="43.63725" lon="0.01673">
        <ele>137.39999389648</ele>
        <time>2020-07-06T11:11:58.000Z</time>
      </trkpt>
      <trkpt lat="43.63719" lon="0.01665">
        <ele>137.60000610352</ele>
        <time>2020-07-06T11:12:00.000Z</time>
      </trkpt>
      <trkpt lat="43.63708" lon="0.01652">
        <ele>138</ele>
        <time>2020-07-06T11:12:03.000Z</time>
      </trkpt>
      <trkpt lat="43.6368" lon="0.01617">
        <ele>138</ele>
        <time>2020-07-06T11:12:09.000Z</time>
      </trkpt>
      <trkpt lat="43.6367" lon="0.01604">
        <ele>138</ele>
        <time>2020-07-06T11:12:11.000Z</time>
      </trkpt>
      <trkpt lat="43.63664" lon="0.01601">
        <ele>138</ele>
        <time>2020-07-06T11:12:12.000Z</time>
      </trkpt>
      <trkpt lat="43.63652" lon="0.01599">
        <ele>138</ele>
        <time>2020-07-06T11:12:14.000Z</time>
      </trkpt>
      <trkpt lat="43.63646" lon="0.01595">
        <ele>138</ele>
        <time>2020-07-06T11:12:15.000Z</time>
      </trkpt>
      <trkpt lat="43.63596" lon="0.01559">
        <ele>137.80000305176</ele>
        <time>2020-07-06T11:12:23.000Z</time>
      </trkpt>
      <trkpt lat="43.63545" lon="0.01521">
        <ele>137.60000610352</ele>
        <time>2020-07-06T11:12:31.000Z</time>
      </trkpt>
      <trkpt lat="43.63497" lon="0.01493">
        <ele>137.60000610352</ele>
        <time>2020-07-06T11:12:38.000Z</time>
      </trkpt>
      <trkpt lat="43.63442" lon="0.01463">
        <ele>138</ele>
        <time>2020-07-06T11:12:46.000Z</time>
      </trkpt>
      <trkpt lat="43.63435" lon="0.0146">
        <ele>138</ele>
        <time>2020-07-06T11:12:47.000Z</time>
      </trkpt>
      <trkpt lat="43.63395" lon="0.01431">
        <ele>138.19999694824</ele>
        <time>2020-07-06T11:12:53.000Z</time>
      </trkpt>
      <trkpt lat="43.63346" lon="0.01381">
        <ele>138.60000610352</ele>
        <time>2020-07-06T11:13:01.000Z</time>
      </trkpt>
      <trkpt lat="43.6334" lon="0.01374">
        <ele>138.60000610352</ele>
        <time>2020-07-06T11:13:02.000Z</time>
      </trkpt>
      <trkpt lat="43.63299" lon="0.01325">
        <ele>138.60000610352</ele>
        <time>2020-07-06T11:13:09.000Z</time>
      </trkpt>
      <trkpt lat="43.63288" lon="0.0131">
        <ele>138.39999389648</ele>
        <time>2020-07-06T11:13:11.000Z</time>
      </trkpt>
      <trkpt lat="43.63248" lon="0.01255">
        <ele>138.39999389648</ele>
        <time>2020-07-06T11:13:18.000Z</time>
      </trkpt>
      <trkpt lat="43.63221" lon="0.01198">
        <ele>138.80000305176</ele>
        <time>2020-07-06T11:13:24.000Z</time>
      </trkpt>
      <trkpt lat="43.63208" lon="0.01145">
        <ele>138.80000305176</ele>
        <time>2020-07-06T11:13:29.000Z</time>
      </trkpt>
      <trkpt lat="43.63191" lon="0.01068">
        <ele>139.19999694824</ele>
        <time>2020-07-06T11:13:36.000Z</time>
      </trkpt>
      <trkpt lat="43.63186" lon="0.01046">
        <ele>139.19999694824</ele>
        <time>2020-07-06T11:13:38.000Z</time>
      </trkpt>
      <trkpt lat="43.63167" lon="0.00969">
        <ele>139.60000610352</ele>
        <time>2020-07-06T11:13:45.000Z</time>
      </trkpt>
      <trkpt lat="43.63158" lon="0.00936">
        <ele>139.60000610352</ele>
        <time>2020-07-06T11:13:48.000Z</time>
      </trkpt>
      <trkpt lat="43.6314" lon="0.00872">
        <ele>140</ele>
        <time>2020-07-06T11:13:54.000Z</time>
      </trkpt>
      <trkpt lat="43.63126" lon="0.00816">
        <ele>140</ele>
        <time>2020-07-06T11:13:59.000Z</time>
      </trkpt>
      <trkpt lat="43.63105" lon="0.00738">
        <ele>140.19999694824</ele>
        <time>2020-07-06T11:14:06.000Z</time>
      </trkpt>
      <trkpt lat="43.63099" lon="0.00716">
        <ele>140.19999694824</ele>
        <time>2020-07-06T11:14:08.000Z</time>
      </trkpt>
      <trkpt lat="43.63077" lon="0.00637">
        <ele>139.60000610352</ele>
        <time>2020-07-06T11:14:15.000Z</time>
      </trkpt>
      <trkpt lat="43.63071" lon="0.00615">
        <ele>140</ele>
        <time>2020-07-06T11:14:17.000Z</time>
      </trkpt>
      <trkpt lat="43.6306" lon="0.00546">
        <ele>140.19999694824</ele>
        <time>2020-07-06T11:14:23.000Z</time>
      </trkpt>
      <trkpt lat="43.63046" lon="0.00479">
        <ele>140.39999389648</ele>
        <time>2020-07-06T11:14:29.000Z</time>
      </trkpt>
      <trkpt lat="43.63031" lon="0.00401">
        <ele>140</ele>
        <time>2020-07-06T11:14:36.000Z</time>
      </trkpt>
      <trkpt lat="43.63028" lon="0.00334">
        <ele>139.80000305176</ele>
        <time>2020-07-06T11:14:42.000Z</time>
      </trkpt>
      <trkpt lat="43.63019" lon="0.00283">
        <ele>139.80000305176</ele>
        <time>2020-07-06T11:14:47.000Z</time>
      </trkpt>
      <trkpt lat="43.63" lon="0.00225">
        <ele>140</ele>
        <time>2020-07-06T11:14:53.000Z</time>
      </trkpt>
      <trkpt lat="43.62991" lon="0.00147">
        <ele>140.39999389648</ele>
        <time>2020-07-06T11:15:00.000Z</time>
      </trkpt>
      <trkpt lat="43.62989" lon="0.00135">
        <ele>140.39999389648</ele>
        <time>2020-07-06T11:15:01.000Z</time>
      </trkpt>
      <trkpt lat="43.6298" lon="0.00059">
        <ele>140</ele>
        <time>2020-07-06T11:15:08.000Z</time>
      </trkpt>
      <trkpt lat="43.62979" lon="0.00049">
        <ele>140</ele>
        <time>2020-07-06T11:15:09.000Z</time>
      </trkpt>
      <trkpt lat="43.62973" lon="-4.0E-5">
        <ele>140</ele>
        <time>2020-07-06T11:15:15.000Z</time>
      </trkpt>
      <trkpt lat="43.62969" lon="-0.00035">
        <ele>140</ele>
        <time>2020-07-06T11:15:20.000Z</time>
      </trkpt>
      <trkpt lat="43.6297" lon="-0.00039">
        <ele>140</ele>
        <time>2020-07-06T11:15:21.000Z</time>
      </trkpt>
      <trkpt lat="43.62975" lon="-0.00043">
        <ele>140.19999694824</ele>
        <time>2020-07-06T11:15:23.000Z</time>
      </trkpt>
      <trkpt lat="43.63002" lon="-0.00048">
        <ele>140.19999694824</ele>
        <time>2020-07-06T11:15:29.000Z</time>
      </trkpt>
      <trkpt lat="43.63046" lon="-0.00057">
        <ele>139.80000305176</ele>
        <time>2020-07-06T11:15:36.000Z</time>
      </trkpt>
      <trkpt lat="43.63102" lon="-0.00069">
        <ele>139</ele>
        <time>2020-07-06T11:15:44.000Z</time>
      </trkpt>
      <trkpt lat="43.63159" lon="-0.00081">
        <ele>139</ele>
        <time>2020-07-06T11:15:52.000Z</time>
      </trkpt>
      <trkpt lat="43.63187" lon="-0.00087">
        <ele>138.80000305176</ele>
        <time>2020-07-06T11:15:56.000Z</time>
      </trkpt>
      <trkpt lat="43.63243" lon="-0.00103">
        <ele>138.60000610352</ele>
        <time>2020-07-06T11:16:04.000Z</time>
      </trkpt>
      <trkpt lat="43.63249" lon="-0.00105">
        <ele>138.60000610352</ele>
        <time>2020-07-06T11:16:05.000Z</time>
      </trkpt>
      <trkpt lat="43.63254" lon="-0.0011">
        <ele>138.60000610352</ele>
        <time>2020-07-06T11:16:06.000Z</time>
      </trkpt>
      <trkpt lat="43.63258" lon="-0.00118">
        <ele>138.60000610352</ele>
        <time>2020-07-06T11:16:07.000Z</time>
      </trkpt>
      <trkpt lat="43.63259" lon="-0.00126">
        <ele>138.39999389648</ele>
        <time>2020-07-06T11:16:08.000Z</time>
      </trkpt>
      <trkpt lat="43.63258" lon="-0.00135">
        <ele>138.39999389648</ele>
        <time>2020-07-06T11:16:09.000Z</time>
      </trkpt>
      <trkpt lat="43.63254" lon="-0.00162">
        <ele>138.39999389648</ele>
        <time>2020-07-06T11:16:12.000Z</time>
      </trkpt>
      <trkpt lat="43.63247" lon="-0.00241">
        <ele>138.39999389648</ele>
        <time>2020-07-06T11:16:20.000Z</time>
      </trkpt>
      <trkpt lat="43.63248" lon="-0.00291">
        <ele>138</ele>
        <time>2020-07-06T11:16:25.000Z</time>
      </trkpt>
      <trkpt lat="43.63248" lon="-0.00311">
        <ele>137.80000305176</ele>
        <time>2020-07-06T11:16:27.000Z</time>
      </trkpt>
      <trkpt lat="43.63245" lon="-0.00369">
        <ele>137.80000305176</ele>
        <time>2020-07-06T11:16:33.000Z</time>
      </trkpt>
      <trkpt lat="43.63245" lon="-0.00448">
        <ele>138</ele>
        <time>2020-07-06T11:16:41.000Z</time>
      </trkpt>
      <trkpt lat="43.63244" lon="-0.00487">
        <ele>137.80000305176</ele>
        <time>2020-07-06T11:16:45.000Z</time>
      </trkpt>
      <trkpt lat="43.63251" lon="-0.00503">
        <ele>137.80000305176</ele>
        <time>2020-07-06T11:16:47.000Z</time>
      </trkpt>
      <trkpt lat="43.63264" lon="-0.00508">
        <ele>137.60000610352</ele>
        <time>2020-07-06T11:16:49.000Z</time>
      </trkpt>
      <trkpt lat="43.63271" lon="-0.00508">
        <ele>137.60000610352</ele>
        <time>2020-07-06T11:16:50.000Z</time>
      </trkpt>
      <trkpt lat="43.63315" lon="-0.00516">
        <ele>137.39999389648</ele>
        <time>2020-07-06T11:16:56.000Z</time>
      </trkpt>
      <trkpt lat="43.63356" lon="-0.00524">
        <ele>137.60000610352</ele>
        <time>2020-07-06T11:17:02.000Z</time>
      </trkpt>
      <trkpt lat="43.63362" lon="-0.00529">
        <ele>137.60000610352</ele>
        <time>2020-07-06T11:17:03.000Z</time>
      </trkpt>
      <trkpt lat="43.63365" lon="-0.00535">
        <ele>137.60000610352</ele>
        <time>2020-07-06T11:17:04.000Z</time>
      </trkpt>
      <trkpt lat="43.63369" lon="-0.00552">
        <ele>137.60000610352</ele>
        <time>2020-07-06T11:17:06.000Z</time>
      </trkpt>
      <trkpt lat="43.63375" lon="-0.00601">
        <ele>137.39999389648</ele>
        <time>2020-07-06T11:17:11.000Z</time>
      </trkpt>
      <trkpt lat="43.63379" lon="-0.00659">
        <ele>137.19999694824</ele>
        <time>2020-07-06T11:17:17.000Z</time>
      </trkpt>
      <trkpt lat="43.63378" lon="-0.00669">
        <ele>137.19999694824</ele>
        <time>2020-07-06T11:17:18.000Z</time>
      </trkpt>
      <trkpt lat="43.63376" lon="-0.00708">
        <ele>137.19999694824</ele>
        <time>2020-07-06T11:17:22.000Z</time>
      </trkpt>
      <trkpt lat="43.63376" lon="-0.00728">
        <ele>137.19999694824</ele>
        <time>2020-07-06T11:17:24.000Z</time>
      </trkpt>
      <trkpt lat="43.63375" lon="-0.00748">
        <ele>137.19999694824</ele>
        <time>2020-07-06T11:17:26.000Z</time>
      </trkpt>
      <trkpt lat="43.6337" lon="-0.00766">
        <ele>137.19999694824</ele>
        <time>2020-07-06T11:17:28.000Z</time>
      </trkpt>
      <trkpt lat="43.63348" lon="-0.00802">
        <ele>137.60000610352</ele>
        <time>2020-07-06T11:17:33.000Z</time>
      </trkpt>
      <trkpt lat="43.63339" lon="-0.00816">
        <ele>137.60000610352</ele>
        <time>2020-07-06T11:17:35.000Z</time>
      </trkpt>
      <trkpt lat="43.63326" lon="-0.0084">
        <ele>138</ele>
        <time>2020-07-06T11:17:38.000Z</time>
      </trkpt>
      <trkpt lat="43.63298" lon="-0.00902">
        <ele>138</ele>
        <time>2020-07-06T11:17:46.000Z</time>
      </trkpt>
      <trkpt lat="43.63282" lon="-0.00974">
        <ele>138.60000610352</ele>
        <time>2020-07-06T11:17:54.000Z</time>
      </trkpt>
      <trkpt lat="43.63278" lon="-0.00993">
        <ele>138.39999389648</ele>
        <time>2020-07-06T11:17:56.000Z</time>
      </trkpt>
      <trkpt lat="43.63274" lon="-0.0102">
        <ele>138</ele>
        <time>2020-07-06T11:17:59.000Z</time>
      </trkpt>
      <trkpt lat="43.63268" lon="-0.01048">
        <ele>138</ele>
        <time>2020-07-06T11:18:02.000Z</time>
      </trkpt>
      <trkpt lat="43.63263" lon="-0.01073">
        <ele>138</ele>
        <time>2020-07-06T11:18:05.000Z</time>
      </trkpt>
      <trkpt lat="43.6326" lon="-0.01101">
        <ele>138</ele>
        <time>2020-07-06T11:18:08.000Z</time>
      </trkpt>
      <trkpt lat="43.6326" lon="-0.01111">
        <ele>138.19999694824</ele>
        <time>2020-07-06T11:18:09.000Z</time>
      </trkpt>
      <trkpt lat="43.63265" lon="-0.01148">
        <ele>138.39999389648</ele>
        <time>2020-07-06T11:18:13.000Z</time>
      </trkpt>
      <trkpt lat="43.63268" lon="-0.01159">
        <ele>138.60000610352</ele>
        <time>2020-07-06T11:18:14.000Z</time>
      </trkpt>
      <trkpt lat="43.63285" lon="-0.01211">
        <ele>138.19999694824</ele>
        <time>2020-07-06T11:18:20.000Z</time>
      </trkpt>
      <trkpt lat="43.63306" lon="-0.01259">
        <ele>137.80000305176</ele>
        <time>2020-07-06T11:18:26.000Z</time>
      </trkpt>
      <trkpt lat="43.63308" lon="-0.01268">
        <ele>137.80000305176</ele>
        <time>2020-07-06T11:18:27.000Z</time>
      </trkpt>
      <trkpt lat="43.6331" lon="-0.01286">
        <ele>137.60000610352</ele>
        <time>2020-07-06T11:18:29.000Z</time>
      </trkpt>
      <trkpt lat="43.63312" lon="-0.01303">
        <ele>137.39999389648</ele>
        <time>2020-07-06T11:18:31.000Z</time>
      </trkpt>
      <trkpt lat="43.63315" lon="-0.0136">
        <ele>137.39999389648</ele>
        <time>2020-07-06T11:18:38.000Z</time>
      </trkpt>
      <trkpt lat="43.63317" lon="-0.01378">
        <ele>137.39999389648</ele>
        <time>2020-07-06T11:18:41.000Z</time>
      </trkpt>
      <trkpt lat="43.63318" lon="-0.01384">
        <ele>137.39999389648</ele>
        <time>2020-07-06T11:18:42.000Z</time>
      </trkpt>
      <trkpt lat="43.63326" lon="-0.01424">
        <ele>137.19999694824</ele>
        <time>2020-07-06T11:18:48.000Z</time>
      </trkpt>
      <trkpt lat="43.63328" lon="-0.01429">
        <ele>137.19999694824</ele>
        <time>2020-07-06T11:18:49.000Z</time>
      </trkpt>
      <trkpt lat="43.63334" lon="-0.01436">
        <ele>137</ele>
        <time>2020-07-06T11:18:51.000Z</time>
      </trkpt>
      <trkpt lat="43.63342" lon="-0.0144">
        <ele>137.39999389648</ele>
        <time>2020-07-06T11:18:53.000Z</time>
      </trkpt>
      <trkpt lat="43.63358" lon="-0.0144">
        <ele>137.60000610352</ele>
        <time>2020-07-06T11:18:56.000Z</time>
      </trkpt>
      <trkpt lat="43.63367" lon="-0.01438">
        <ele>137.80000305176</ele>
        <time>2020-07-06T11:18:58.000Z</time>
      </trkpt>
      <trkpt lat="43.634" lon="-0.01439">
        <ele>138</ele>
        <time>2020-07-06T11:19:04.000Z</time>
      </trkpt>
      <trkpt lat="43.63449" lon="-0.01445">
        <ele>137.39999389648</ele>
        <time>2020-07-06T11:19:12.000Z</time>
      </trkpt>
      <trkpt lat="43.63501" lon="-0.01459">
        <ele>137.19999694824</ele>
        <time>2020-07-06T11:19:20.000Z</time>
      </trkpt>
      <trkpt lat="43.63532" lon="-0.01475">
        <ele>137</ele>
        <time>2020-07-06T11:19:25.000Z</time>
      </trkpt>
      <trkpt lat="43.63544" lon="-0.01481">
        <ele>136.80000305176</ele>
        <time>2020-07-06T11:19:27.000Z</time>
      </trkpt>
      <trkpt lat="43.63592" lon="-0.01508">
        <ele>136.60000610352</ele>
        <time>2020-07-06T11:19:35.000Z</time>
      </trkpt>
      <trkpt lat="43.63647" lon="-0.0154">
        <ele>136.39999389648</ele>
        <time>2020-07-06T11:19:44.000Z</time>
      </trkpt>
      <trkpt lat="43.63684" lon="-0.01561">
        <ele>136.19999694824</ele>
        <time>2020-07-06T11:19:50.000Z</time>
      </trkpt>
      <trkpt lat="43.63696" lon="-0.0157">
        <ele>136</ele>
        <time>2020-07-06T11:19:52.000Z</time>
      </trkpt>
      <trkpt lat="43.63736" lon="-0.01613">
        <ele>136.39999389648</ele>
        <time>2020-07-06T11:20:00.000Z</time>
      </trkpt>
      <trkpt lat="43.63769" lon="-0.01644">
        <ele>136.39999389648</ele>
        <time>2020-07-06T11:20:06.000Z</time>
      </trkpt>
      <trkpt lat="43.63775" lon="-0.01648">
        <ele>136.39999389648</ele>
        <time>2020-07-06T11:20:07.000Z</time>
      </trkpt>
      <trkpt lat="43.63783" lon="-0.01661">
        <ele>136.60000610352</ele>
        <time>2020-07-06T11:20:09.000Z</time>
      </trkpt>
      <trkpt lat="43.63792" lon="-0.01677">
        <ele>136.60000610352</ele>
        <time>2020-07-06T11:20:11.000Z</time>
      </trkpt>
      <trkpt lat="43.63801" lon="-0.01703">
        <ele>136.80000305176</ele>
        <time>2020-07-06T11:20:14.000Z</time>
      </trkpt>
      <trkpt lat="43.63815" lon="-0.01764">
        <ele>137</ele>
        <time>2020-07-06T11:20:21.000Z</time>
      </trkpt>
      <trkpt lat="43.63818" lon="-0.01771">
        <ele>137</ele>
        <time>2020-07-06T11:20:22.000Z</time>
      </trkpt>
      <trkpt lat="43.63826" lon="-0.01782">
        <ele>137.19999694824</ele>
        <time>2020-07-06T11:20:24.000Z</time>
      </trkpt>
      <trkpt lat="43.63836" lon="-0.01792">
        <ele>137.39999389648</ele>
        <time>2020-07-06T11:20:26.000Z</time>
      </trkpt>
      <trkpt lat="43.63841" lon="-0.01807">
        <ele>137.39999389648</ele>
        <time>2020-07-06T11:20:28.000Z</time>
      </trkpt>
      <trkpt lat="43.6384" lon="-0.01826">
        <ele>137</ele>
        <time>2020-07-06T11:20:30.000Z</time>
      </trkpt>
      <trkpt lat="43.63837" lon="-0.01835">
        <ele>137</ele>
        <time>2020-07-06T11:20:31.000Z</time>
      </trkpt>
      <trkpt lat="43.63828" lon="-0.01881">
        <ele>136.60000610352</ele>
        <time>2020-07-06T11:20:36.000Z</time>
      </trkpt>
      <trkpt lat="43.63811" lon="-0.01942">
        <ele>137</ele>
        <time>2020-07-06T11:20:43.000Z</time>
      </trkpt>
      <trkpt lat="43.63809" lon="-0.0195">
        <ele>136.80000305176</ele>
        <time>2020-07-06T11:20:44.000Z</time>
      </trkpt>
      <trkpt lat="43.63809" lon="-0.01967">
        <ele>137</ele>
        <time>2020-07-06T11:20:46.000Z</time>
      </trkpt>
      <trkpt lat="43.63815" lon="-0.0198">
        <ele>136.80000305176</ele>
        <time>2020-07-06T11:20:48.000Z</time>
      </trkpt>
      <trkpt lat="43.63821" lon="-0.01983">
        <ele>136.60000610352</ele>
        <time>2020-07-06T11:20:49.000Z</time>
      </trkpt>
      <trkpt lat="43.63827" lon="-0.01984">
        <ele>136.60000610352</ele>
        <time>2020-07-06T11:20:50.000Z</time>
      </trkpt>
      <trkpt lat="43.63839" lon="-0.01984">
        <ele>136.39999389648</ele>
        <time>2020-07-06T11:20:52.000Z</time>
      </trkpt>
      <trkpt lat="43.63877" lon="-0.01983">
        <ele>136.60000610352</ele>
        <time>2020-07-06T11:20:58.000Z</time>
      </trkpt>
      <trkpt lat="43.63884" lon="-0.01982">
        <ele>136.60000610352</ele>
        <time>2020-07-06T11:20:59.000Z</time>
      </trkpt>
      <trkpt lat="43.63904" lon="-0.01981">
        <ele>137.19999694824</ele>
        <time>2020-07-06T11:21:02.000Z</time>
      </trkpt>
      <trkpt lat="43.63914" lon="-0.01978">
        <ele>137.19999694824</ele>
        <time>2020-07-06T11:21:04.000Z</time>
      </trkpt>
      <trkpt lat="43.6392" lon="-0.01976">
        <ele>137.39999389648</ele>
        <time>2020-07-06T11:21:05.000Z</time>
      </trkpt>
      <trkpt lat="43.63931" lon="-0.01973">
        <ele>137.39999389648</ele>
        <time>2020-07-06T11:21:07.000Z</time>
      </trkpt>
      <trkpt lat="43.63952" lon="-0.01977">
        <ele>136.60000610352</ele>
        <time>2020-07-06T11:21:10.000Z</time>
      </trkpt>
      <trkpt lat="43.63998" lon="-0.01983">
        <ele>136.19999694824</ele>
        <time>2020-07-06T11:21:16.000Z</time>
      </trkpt>
      <trkpt lat="43.64015" lon="-0.01979">
        <ele>135.80000305176</ele>
        <time>2020-07-06T11:21:18.000Z</time>
      </trkpt>
      <trkpt lat="43.64027" lon="-0.01973">
        <ele>135.80000305176</ele>
        <time>2020-07-06T11:21:20.000Z</time>
      </trkpt>
      <trkpt lat="43.64033" lon="-0.01968">
        <ele>136</ele>
        <time>2020-07-06T11:21:21.000Z</time>
      </trkpt>
      <trkpt lat="43.64046" lon="-0.01953">
        <ele>136</ele>
        <time>2020-07-06T11:21:23.000Z</time>
      </trkpt>
      <trkpt lat="43.64059" lon="-0.01935">
        <ele>136</ele>
        <time>2020-07-06T11:21:26.000Z</time>
      </trkpt>
      <trkpt lat="43.64072" lon="-0.01924">
        <ele>135.60000610352</ele>
        <time>2020-07-06T11:21:28.000Z</time>
      </trkpt>
      <trkpt lat="43.64077" lon="-0.01923">
        <ele>135.80000305176</ele>
        <time>2020-07-06T11:21:29.000Z</time>
      </trkpt>
      <trkpt lat="43.64083" lon="-0.01923">
        <ele>136</ele>
        <time>2020-07-06T11:21:30.000Z</time>
      </trkpt>
      <trkpt lat="43.64093" lon="-0.01931">
        <ele>136.19999694824</ele>
        <time>2020-07-06T11:21:32.000Z</time>
      </trkpt>
      <trkpt lat="43.64111" lon="-0.01959">
        <ele>136.60000610352</ele>
        <time>2020-07-06T11:21:37.000Z</time>
      </trkpt>
      <trkpt lat="43.64114" lon="-0.01972">
        <ele>137.19999694824</ele>
        <time>2020-07-06T11:21:39.000Z</time>
      </trkpt>
      <trkpt lat="43.64114" lon="-0.01986">
        <ele>137.80000305176</ele>
        <time>2020-07-06T11:21:41.000Z</time>
      </trkpt>
      <trkpt lat="43.64114" lon="-0.01993">
        <ele>138.39999389648</ele>
        <time>2020-07-06T11:21:42.000Z</time>
      </trkpt>
      <trkpt lat="43.64109" lon="-0.02034">
        <ele>139</ele>
        <time>2020-07-06T11:21:47.000Z</time>
      </trkpt>
      <trkpt lat="43.64107" lon="-0.0205">
        <ele>139.39999389648</ele>
        <time>2020-07-06T11:21:49.000Z</time>
      </trkpt>
      <trkpt lat="43.64101" lon="-0.02095">
        <ele>139.60000610352</ele>
        <time>2020-07-06T11:21:54.000Z</time>
      </trkpt>
      <trkpt lat="43.64096" lon="-0.0212">
        <ele>139.60000610352</ele>
        <time>2020-07-06T11:21:57.000Z</time>
      </trkpt>
      <trkpt lat="43.64089" lon="-0.02136">
        <ele>139.39999389648</ele>
        <time>2020-07-06T11:21:59.000Z</time>
      </trkpt>
      <trkpt lat="43.64085" lon="-0.02143">
        <ele>139.39999389648</ele>
        <time>2020-07-06T11:22:00.000Z</time>
      </trkpt>
      <trkpt lat="43.64047" lon="-0.02203">
        <ele>139.19999694824</ele>
        <time>2020-07-06T11:22:09.000Z</time>
      </trkpt>
      <trkpt lat="43.64043" lon="-0.02209">
        <ele>139.39999389648</ele>
        <time>2020-07-06T11:22:10.000Z</time>
      </trkpt>
      <trkpt lat="43.6404" lon="-0.02214">
        <ele>139.39999389648</ele>
        <time>2020-07-06T11:22:11.000Z</time>
      </trkpt>
      <trkpt lat="43.64037" lon="-0.02226">
        <ele>140</ele>
        <time>2020-07-06T11:22:13.000Z</time>
      </trkpt>
      <trkpt lat="43.64038" lon="-0.02232">
        <ele>140.19999694824</ele>
        <time>2020-07-06T11:22:14.000Z</time>
      </trkpt>
      <trkpt lat="43.6404" lon="-0.02237">
        <ele>140.60000610352</ele>
        <time>2020-07-06T11:22:15.000Z</time>
      </trkpt>
      <trkpt lat="43.64048" lon="-0.02246">
        <ele>140.80000305176</ele>
        <time>2020-07-06T11:22:17.000Z</time>
      </trkpt>
      <trkpt lat="43.64056" lon="-0.02255">
        <ele>141</ele>
        <time>2020-07-06T11:22:19.000Z</time>
      </trkpt>
      <trkpt lat="43.64063" lon="-0.02267">
        <ele>141.39999389648</ele>
        <time>2020-07-06T11:22:21.000Z</time>
      </trkpt>
      <trkpt lat="43.64066" lon="-0.02273">
        <ele>141.60000610352</ele>
        <time>2020-07-06T11:22:22.000Z</time>
      </trkpt>
      <trkpt lat="43.64069" lon="-0.0228">
        <ele>141.60000610352</ele>
        <time>2020-07-06T11:22:23.000Z</time>
      </trkpt>
      <trkpt lat="43.64073" lon="-0.02295">
        <ele>141.80000305176</ele>
        <time>2020-07-06T11:22:25.000Z</time>
      </trkpt>
      <trkpt lat="43.64077" lon="-0.02301">
        <ele>141.80000305176</ele>
        <time>2020-07-06T11:22:26.000Z</time>
      </trkpt>
      <trkpt lat="43.64083" lon="-0.02304">
        <ele>142</ele>
        <time>2020-07-06T11:22:27.000Z</time>
      </trkpt>
      <trkpt lat="43.64096" lon="-0.02303">
        <ele>142</ele>
        <time>2020-07-06T11:22:29.000Z</time>
      </trkpt>
      <trkpt lat="43.64147" lon="-0.02299">
        <ele>141.60000610352</ele>
        <time>2020-07-06T11:22:36.000Z</time>
      </trkpt>
      <trkpt lat="43.64206" lon="-0.02295">
        <ele>141</ele>
        <time>2020-07-06T11:22:44.000Z</time>
      </trkpt>
      <trkpt lat="43.64255" lon="-0.02295">
        <ele>140.60000610352</ele>
        <time>2020-07-06T11:22:51.000Z</time>
      </trkpt>
      <trkpt lat="43.64283" lon="-0.02294">
        <ele>140.19999694824</ele>
        <time>2020-07-06T11:22:55.000Z</time>
      </trkpt>
      <trkpt lat="43.64317" lon="-0.02301">
        <ele>139.80000305176</ele>
        <time>2020-07-06T11:23:00.000Z</time>
      </trkpt>
      <trkpt lat="43.64329" lon="-0.02308">
        <ele>139.60000610352</ele>
        <time>2020-07-06T11:23:02.000Z</time>
      </trkpt>
      <trkpt lat="43.64361" lon="-0.02327">
        <ele>139.39999389648</ele>
        <time>2020-07-06T11:23:07.000Z</time>
      </trkpt>
      <trkpt lat="43.6441" lon="-0.0236">
        <ele>139.60000610352</ele>
        <time>2020-07-06T11:23:15.000Z</time>
      </trkpt>
      <trkpt lat="43.64416" lon="-0.02364">
        <ele>139.60000610352</ele>
        <time>2020-07-06T11:23:16.000Z</time>
      </trkpt>
      <trkpt lat="43.64442" lon="-0.02379">
        <ele>139.60000610352</ele>
        <time>2020-07-06T11:23:20.000Z</time>
      </trkpt>
      <trkpt lat="43.64455" lon="-0.02379">
        <ele>139.60000610352</ele>
        <time>2020-07-06T11:23:22.000Z</time>
      </trkpt>
      <trkpt lat="43.64467" lon="-0.0237">
        <ele>139.39999389648</ele>
        <time>2020-07-06T11:23:24.000Z</time>
      </trkpt>
      <trkpt lat="43.64472" lon="-0.02363">
        <ele>139.39999389648</ele>
        <time>2020-07-06T11:23:25.000Z</time>
      </trkpt>
      <trkpt lat="43.64497" lon="-0.02316">
        <ele>139</ele>
        <time>2020-07-06T11:23:31.000Z</time>
      </trkpt>
      <trkpt lat="43.64509" lon="-0.02312">
        <ele>139</ele>
        <time>2020-07-06T11:23:33.000Z</time>
      </trkpt>
      <trkpt lat="43.64518" lon="-0.02323">
        <ele>139</ele>
        <time>2020-07-06T11:23:35.000Z</time>
      </trkpt>
      <trkpt lat="43.6453" lon="-0.02358">
        <ele>139</ele>
        <time>2020-07-06T11:23:39.000Z</time>
      </trkpt>
      <trkpt lat="43.64548" lon="-0.02411">
        <ele>139</ele>
        <time>2020-07-06T11:23:45.000Z</time>
      </trkpt>
      <trkpt lat="43.64578" lon="-0.0247">
        <ele>139.19999694824</ele>
        <time>2020-07-06T11:23:52.000Z</time>
      </trkpt>
      <trkpt lat="43.64616" lon="-0.02535">
        <ele>139</ele>
        <time>2020-07-06T11:24:00.000Z</time>
      </trkpt>
      <trkpt lat="43.64625" lon="-0.02552">
        <ele>139</ele>
        <time>2020-07-06T11:24:02.000Z</time>
      </trkpt>
      <trkpt lat="43.64647" lon="-0.02606">
        <ele>138.80000305176</ele>
        <time>2020-07-06T11:24:08.000Z</time>
      </trkpt>
      <trkpt lat="43.64684" lon="-0.02666">
        <ele>139</ele>
        <time>2020-07-06T11:24:15.000Z</time>
      </trkpt>
      <trkpt lat="43.6469" lon="-0.02674">
        <ele>139</ele>
        <time>2020-07-06T11:24:16.000Z</time>
      </trkpt>
      <trkpt lat="43.64726" lon="-0.0273">
        <ele>138.80000305176</ele>
        <time>2020-07-06T11:24:23.000Z</time>
      </trkpt>
      <trkpt lat="43.64741" lon="-0.02754">
        <ele>138.80000305176</ele>
        <time>2020-07-06T11:24:26.000Z</time>
      </trkpt>
      <trkpt lat="43.64783" lon="-0.02814">
        <ele>138.80000305176</ele>
        <time>2020-07-06T11:24:34.000Z</time>
      </trkpt>
      <trkpt lat="43.64789" lon="-0.02822">
        <ele>138.80000305176</ele>
        <time>2020-07-06T11:24:35.000Z</time>
      </trkpt>
      <trkpt lat="43.64803" lon="-0.02846">
        <ele>138.39999389648</ele>
        <time>2020-07-06T11:24:38.000Z</time>
      </trkpt>
      <trkpt lat="43.64815" lon="-0.02874">
        <ele>138.19999694824</ele>
        <time>2020-07-06T11:24:41.000Z</time>
      </trkpt>
      <trkpt lat="43.6483" lon="-0.02934">
        <ele>138</ele>
        <time>2020-07-06T11:24:47.000Z</time>
      </trkpt>
      <trkpt lat="43.64847" lon="-0.03005">
        <ele>137.80000305176</ele>
        <time>2020-07-06T11:24:54.000Z</time>
      </trkpt>
      <trkpt lat="43.64851" lon="-0.03025">
        <ele>137.80000305176</ele>
        <time>2020-07-06T11:24:56.000Z</time>
      </trkpt>
      <trkpt lat="43.64861" lon="-0.03065">
        <ele>138</ele>
        <time>2020-07-06T11:25:00.000Z</time>
      </trkpt>
      <trkpt lat="43.64869" lon="-0.03082">
        <ele>138</ele>
        <time>2020-07-06T11:25:02.000Z</time>
      </trkpt>
      <trkpt lat="43.64889" lon="-0.03098">
        <ele>138</ele>
        <time>2020-07-06T11:25:05.000Z</time>
      </trkpt>
      <trkpt lat="43.64939" lon="-0.03129">
        <ele>137.80000305176</ele>
        <time>2020-07-06T11:25:12.000Z</time>
      </trkpt>
      <trkpt lat="43.64988" lon="-0.03164">
        <ele>138</ele>
        <time>2020-07-06T11:25:19.000Z</time>
      </trkpt>
      <trkpt lat="43.65002" lon="-0.03175">
        <ele>138</ele>
        <time>2020-07-06T11:25:21.000Z</time>
      </trkpt>
      <trkpt lat="43.65046" lon="-0.03203">
        <ele>137.60000610352</ele>
        <time>2020-07-06T11:25:27.000Z</time>
      </trkpt>
      <trkpt lat="43.65099" lon="-0.0323">
        <ele>137.60000610352</ele>
        <time>2020-07-06T11:25:34.000Z</time>
      </trkpt>
      <trkpt lat="43.65107" lon="-0.03234">
        <ele>137.39999389648</ele>
        <time>2020-07-06T11:25:35.000Z</time>
      </trkpt>
      <trkpt lat="43.65114" lon="-0.03238">
        <ele>137.39999389648</ele>
        <time>2020-07-06T11:25:36.000Z</time>
      </trkpt>
      <trkpt lat="43.65172" lon="-0.03254">
        <ele>137.19999694824</ele>
        <time>2020-07-06T11:25:43.000Z</time>
      </trkpt>
      <trkpt lat="43.65211" lon="-0.03276">
        <ele>137</ele>
        <time>2020-07-06T11:25:48.000Z</time>
      </trkpt>
      <trkpt lat="43.65261" lon="-0.03317">
        <ele>136.19999694824</ele>
        <time>2020-07-06T11:25:55.000Z</time>
      </trkpt>
      <trkpt lat="43.65289" lon="-0.03343">
        <ele>136</ele>
        <time>2020-07-06T11:25:59.000Z</time>
      </trkpt>
      <trkpt lat="43.65294" lon="-0.03349">
        <ele>136</ele>
        <time>2020-07-06T11:26:00.000Z</time>
      </trkpt>
      <trkpt lat="43.65299" lon="-0.03359">
        <ele>136</ele>
        <time>2020-07-06T11:26:01.000Z</time>
      </trkpt>
      <trkpt lat="43.65308" lon="-0.03377">
        <ele>135.80000305176</ele>
        <time>2020-07-06T11:26:03.000Z</time>
      </trkpt>
      <trkpt lat="43.65311" lon="-0.03384">
        <ele>135.80000305176</ele>
        <time>2020-07-06T11:26:04.000Z</time>
      </trkpt>
      <trkpt lat="43.6532" lon="-0.03404">
        <ele>135.60000610352</ele>
        <time>2020-07-06T11:26:06.000Z</time>
      </trkpt>
      <trkpt lat="43.65323" lon="-0.03424">
        <ele>135.60000610352</ele>
        <time>2020-07-06T11:26:08.000Z</time>
      </trkpt>
      <trkpt lat="43.65315" lon="-0.03441">
        <ele>135.60000610352</ele>
        <time>2020-07-06T11:26:10.000Z</time>
      </trkpt>
      <trkpt lat="43.65282" lon="-0.03469">
        <ele>135.39999389648</ele>
        <time>2020-07-06T11:26:15.000Z</time>
      </trkpt>
      <trkpt lat="43.6523" lon="-0.03507">
        <ele>135.80000305176</ele>
        <time>2020-07-06T11:26:22.000Z</time>
      </trkpt>
      <trkpt lat="43.65215" lon="-0.03518">
        <ele>135.80000305176</ele>
        <time>2020-07-06T11:26:24.000Z</time>
      </trkpt>
      <trkpt lat="43.65177" lon="-0.03546">
        <ele>136.19999694824</ele>
        <time>2020-07-06T11:26:29.000Z</time>
      </trkpt>
      <trkpt lat="43.65124" lon="-0.03584">
        <ele>136.39999389648</ele>
        <time>2020-07-06T11:26:36.000Z</time>
      </trkpt>
      <trkpt lat="43.65116" lon="-0.03589">
        <ele>136.39999389648</ele>
        <time>2020-07-06T11:26:37.000Z</time>
      </trkpt>
      <trkpt lat="43.65066" lon="-0.03626">
        <ele>136.60000610352</ele>
        <time>2020-07-06T11:26:44.000Z</time>
      </trkpt>
      <trkpt lat="43.65052" lon="-0.03635">
        <ele>136.60000610352</ele>
        <time>2020-07-06T11:26:46.000Z</time>
      </trkpt>
      <trkpt lat="43.65039" lon="-0.03645">
        <ele>136.80000305176</ele>
        <time>2020-07-06T11:26:48.000Z</time>
      </trkpt>
      <trkpt lat="43.65034" lon="-0.03651">
        <ele>136.80000305176</ele>
        <time>2020-07-06T11:26:49.000Z</time>
      </trkpt>
      <trkpt lat="43.65032" lon="-0.0366">
        <ele>136.80000305176</ele>
        <time>2020-07-06T11:26:50.000Z</time>
      </trkpt>
      <trkpt lat="43.65033" lon="-0.03669">
        <ele>136.60000610352</ele>
        <time>2020-07-06T11:26:51.000Z</time>
      </trkpt>
      <trkpt lat="43.65036" lon="-0.03677">
        <ele>136.60000610352</ele>
        <time>2020-07-06T11:26:52.000Z</time>
      </trkpt>
      <trkpt lat="43.65045" lon="-0.03693">
        <ele>136.60000610352</ele>
        <time>2020-07-06T11:26:54.000Z</time>
      </trkpt>
      <trkpt lat="43.65073" lon="-0.03757">
        <ele>136.60000610352</ele>
        <time>2020-07-06T11:27:01.000Z</time>
      </trkpt>
      <trkpt lat="43.65101" lon="-0.03826">
        <ele>136.80000305176</ele>
        <time>2020-07-06T11:27:08.000Z</time>
      </trkpt>
      <trkpt lat="43.65112" lon="-0.03854">
        <ele>136.80000305176</ele>
        <time>2020-07-06T11:27:11.000Z</time>
      </trkpt>
      <trkpt lat="43.65133" lon="-0.03927">
        <ele>136.80000305176</ele>
        <time>2020-07-06T11:27:18.000Z</time>
      </trkpt>
      <trkpt lat="43.65147" lon="-0.03991">
        <ele>136.80000305176</ele>
        <time>2020-07-06T11:27:24.000Z</time>
      </trkpt>
      <trkpt lat="43.65161" lon="-0.04069">
        <ele>136.60000610352</ele>
        <time>2020-07-06T11:27:31.000Z</time>
      </trkpt>
      <trkpt lat="43.65176" lon="-0.04147">
        <ele>136.60000610352</ele>
        <time>2020-07-06T11:27:38.000Z</time>
      </trkpt>
      <trkpt lat="43.65178" lon="-0.04158">
        <ele>136.60000610352</ele>
        <time>2020-07-06T11:27:39.000Z</time>
      </trkpt>
      <trkpt lat="43.65181" lon="-0.04168">
        <ele>136.39999389648</ele>
        <time>2020-07-06T11:27:40.000Z</time>
      </trkpt>
      <trkpt lat="43.65189" lon="-0.04186">
        <ele>136.39999389648</ele>
        <time>2020-07-06T11:27:42.000Z</time>
      </trkpt>
      <trkpt lat="43.65203" lon="-0.04188">
        <ele>136</ele>
        <time>2020-07-06T11:27:44.000Z</time>
      </trkpt>
      <trkpt lat="43.65225" lon="-0.04179">
        <ele>135.80000305176</ele>
        <time>2020-07-06T11:27:47.000Z</time>
      </trkpt>
      <trkpt lat="43.65232" lon="-0.04181">
        <ele>135.60000610352</ele>
        <time>2020-07-06T11:27:48.000Z</time>
      </trkpt>
      <trkpt lat="43.65238" lon="-0.04187">
        <ele>135.60000610352</ele>
        <time>2020-07-06T11:27:49.000Z</time>
      </trkpt>
      <trkpt lat="43.65242" lon="-0.04196">
        <ele>135.60000610352</ele>
        <time>2020-07-06T11:27:50.000Z</time>
      </trkpt>
      <trkpt lat="43.65245" lon="-0.04206">
        <ele>135.39999389648</ele>
        <time>2020-07-06T11:27:51.000Z</time>
      </trkpt>
      <trkpt lat="43.65257" lon="-0.04249">
        <ele>135.39999389648</ele>
        <time>2020-07-06T11:27:55.000Z</time>
      </trkpt>
      <trkpt lat="43.65278" lon="-0.04325">
        <ele>135.80000305176</ele>
        <time>2020-07-06T11:28:02.000Z</time>
      </trkpt>
      <trkpt lat="43.65283" lon="-0.04346">
        <ele>135.80000305176</ele>
        <time>2020-07-06T11:28:04.000Z</time>
      </trkpt>
      <trkpt lat="43.65291" lon="-0.04391">
        <ele>135.80000305176</ele>
        <time>2020-07-06T11:28:08.000Z</time>
      </trkpt>
      <trkpt lat="43.65291" lon="-0.04402">
        <ele>135.80000305176</ele>
        <time>2020-07-06T11:28:09.000Z</time>
      </trkpt>
      <trkpt lat="43.65289" lon="-0.04414">
        <ele>135.80000305176</ele>
        <time>2020-07-06T11:28:10.000Z</time>
      </trkpt>
      <trkpt lat="43.65281" lon="-0.0445">
        <ele>135.60000610352</ele>
        <time>2020-07-06T11:28:13.000Z</time>
      </trkpt>
      <trkpt lat="43.65272" lon="-0.04496">
        <ele>135.19999694824</ele>
        <time>2020-07-06T11:28:17.000Z</time>
      </trkpt>
      <trkpt lat="43.6527" lon="-0.04507">
        <ele>135.19999694824</ele>
        <time>2020-07-06T11:28:18.000Z</time>
      </trkpt>
      <trkpt lat="43.65257" lon="-0.04565">
        <ele>134.80000305176</ele>
        <time>2020-07-06T11:28:23.000Z</time>
      </trkpt>
      <trkpt lat="43.65257" lon="-0.04576">
        <ele>134.80000305176</ele>
        <time>2020-07-06T11:28:24.000Z</time>
      </trkpt>
      <trkpt lat="43.65259" lon="-0.04584">
        <ele>134.80000305176</ele>
        <time>2020-07-06T11:28:25.000Z</time>
      </trkpt>
      <trkpt lat="43.65264" lon="-0.04588">
        <ele>134.80000305176</ele>
        <time>2020-07-06T11:28:26.000Z</time>
      </trkpt>
      <trkpt lat="43.65276" lon="-0.04585">
        <ele>134.80000305176</ele>
        <time>2020-07-06T11:28:28.000Z</time>
      </trkpt>
      <trkpt lat="43.65282" lon="-0.04581">
        <ele>134.80000305176</ele>
        <time>2020-07-06T11:28:29.000Z</time>
      </trkpt>
      <trkpt lat="43.6532" lon="-0.04564">
        <ele>134.60000610352</ele>
        <time>2020-07-06T11:28:35.000Z</time>
      </trkpt>
      <trkpt lat="43.65327" lon="-0.04562">
        <ele>134.39999389648</ele>
        <time>2020-07-06T11:28:36.000Z</time>
      </trkpt>
      <trkpt lat="43.6534" lon="-0.04563">
        <ele>134.19999694824</ele>
        <time>2020-07-06T11:28:38.000Z</time>
      </trkpt>
      <trkpt lat="43.6535" lon="-0.04576">
        <ele>133.80000305176</ele>
        <time>2020-07-06T11:28:40.000Z</time>
      </trkpt>
      <trkpt lat="43.65353" lon="-0.04584">
        <ele>133.60000610352</ele>
        <time>2020-07-06T11:28:41.000Z</time>
      </trkpt>
      <trkpt lat="43.6536" lon="-0.04612">
        <ele>133.19999694824</ele>
        <time>2020-07-06T11:28:44.000Z</time>
      </trkpt>
      <trkpt lat="43.65373" lon="-0.04658">
        <ele>133.19999694824</ele>
        <time>2020-07-06T11:28:49.000Z</time>
      </trkpt>
      <trkpt lat="43.65378" lon="-0.04677">
        <ele>133.60000610352</ele>
        <time>2020-07-06T11:28:51.000Z</time>
      </trkpt>
      <trkpt lat="43.65384" lon="-0.04683">
        <ele>133.60000610352</ele>
        <time>2020-07-06T11:28:52.000Z</time>
      </trkpt>
      <trkpt lat="43.65391" lon="-0.04684">
        <ele>133.80000305176</ele>
        <time>2020-07-06T11:28:53.000Z</time>
      </trkpt>
      <trkpt lat="43.65398" lon="-0.04681">
        <ele>133.80000305176</ele>
        <time>2020-07-06T11:28:54.000Z</time>
      </trkpt>
      <trkpt lat="43.65423" lon="-0.04659">
        <ele>133.80000305176</ele>
        <time>2020-07-06T11:28:58.000Z</time>
      </trkpt>
      <trkpt lat="43.65431" lon="-0.04657">
        <ele>133.60000610352</ele>
        <time>2020-07-06T11:28:59.000Z</time>
      </trkpt>
      <trkpt lat="43.65438" lon="-0.0466">
        <ele>133.60000610352</ele>
        <time>2020-07-06T11:29:00.000Z</time>
      </trkpt>
      <trkpt lat="43.65443" lon="-0.04666">
        <ele>133.60000610352</ele>
        <time>2020-07-06T11:29:01.000Z</time>
      </trkpt>
      <trkpt lat="43.65478" lon="-0.04725">
        <ele>133.39999389648</ele>
        <time>2020-07-06T11:29:08.000Z</time>
      </trkpt>
      <trkpt lat="43.65488" lon="-0.04743">
        <ele>133.60000610352</ele>
        <time>2020-07-06T11:29:10.000Z</time>
      </trkpt>
      <trkpt lat="43.65524" lon="-0.04805">
        <ele>134</ele>
        <time>2020-07-06T11:29:17.000Z</time>
      </trkpt>
      <trkpt lat="43.65545" lon="-0.04843">
        <ele>134.19999694824</ele>
        <time>2020-07-06T11:29:21.000Z</time>
      </trkpt>
      <trkpt lat="43.6555" lon="-0.04852">
        <ele>134.19999694824</ele>
        <time>2020-07-06T11:29:22.000Z</time>
      </trkpt>
      <trkpt lat="43.65579" lon="-0.04893">
        <ele>134.19999694824</ele>
        <time>2020-07-06T11:29:27.000Z</time>
      </trkpt>
      <trkpt lat="43.65604" lon="-0.04939">
        <ele>133.80000305176</ele>
        <time>2020-07-06T11:29:32.000Z</time>
      </trkpt>
      <trkpt lat="43.65611" lon="-0.04961">
        <ele>133.80000305176</ele>
        <time>2020-07-06T11:29:34.000Z</time>
      </trkpt>
      <trkpt lat="43.65613" lon="-0.04984">
        <ele>133.80000305176</ele>
        <time>2020-07-06T11:29:36.000Z</time>
      </trkpt>
      <trkpt lat="43.6561" lon="-0.05044">
        <ele>133.39999389648</ele>
        <time>2020-07-06T11:29:41.000Z</time>
      </trkpt>
      <trkpt lat="43.65607" lon="-0.05093">
        <ele>133.19999694824</ele>
        <time>2020-07-06T11:29:45.000Z</time>
      </trkpt>
      <trkpt lat="43.65603" lon="-0.05153">
        <ele>133</ele>
        <time>2020-07-06T11:29:50.000Z</time>
      </trkpt>
      <trkpt lat="43.65597" lon="-0.05237">
        <ele>133.19999694824</ele>
        <time>2020-07-06T11:29:57.000Z</time>
      </trkpt>
      <trkpt lat="43.65594" lon="-0.05262">
        <ele>133.19999694824</ele>
        <time>2020-07-06T11:29:59.000Z</time>
      </trkpt>
      <trkpt lat="43.65582" lon="-0.05345">
        <ele>133</ele>
        <time>2020-07-06T11:30:06.000Z</time>
      </trkpt>
      <trkpt lat="43.65581" lon="-0.05357">
        <ele>133</ele>
        <time>2020-07-06T11:30:07.000Z</time>
      </trkpt>
      <trkpt lat="43.65584" lon="-0.0538">
        <ele>132.80000305176</ele>
        <time>2020-07-06T11:30:09.000Z</time>
      </trkpt>
      <trkpt lat="43.65587" lon="-0.05391">
        <ele>132.80000305176</ele>
        <time>2020-07-06T11:30:10.000Z</time>
      </trkpt>
      <trkpt lat="43.6561" lon="-0.0547">
        <ele>132.39999389648</ele>
        <time>2020-07-06T11:30:17.000Z</time>
      </trkpt>
      <trkpt lat="43.65614" lon="-0.0548">
        <ele>132.39999389648</ele>
        <time>2020-07-06T11:30:18.000Z</time>
      </trkpt>
      <trkpt lat="43.65641" lon="-0.05524">
        <ele>132.19999694824</ele>
        <time>2020-07-06T11:30:23.000Z</time>
      </trkpt>
      <trkpt lat="43.65651" lon="-0.05545">
        <ele>132</ele>
        <time>2020-07-06T11:30:25.000Z</time>
      </trkpt>
      <trkpt lat="43.65659" lon="-0.05566">
        <ele>131</ele>
        <time>2020-07-06T11:30:27.000Z</time>
      </trkpt>
      <trkpt lat="43.65663" lon="-0.05576">
        <ele>130.80000305176</ele>
        <time>2020-07-06T11:30:28.000Z</time>
      </trkpt>
      <trkpt lat="43.65667" lon="-0.05584">
        <ele>130</ele>
        <time>2020-07-06T11:30:29.000Z</time>
      </trkpt>
      <trkpt lat="43.65671" lon="-0.05588">
        <ele>129.60000610352</ele>
        <time>2020-07-06T11:30:30.000Z</time>
      </trkpt>
      <trkpt lat="43.65677" lon="-0.0559">
        <ele>129</ele>
        <time>2020-07-06T11:30:31.000Z</time>
      </trkpt>
      <trkpt lat="43.65684" lon="-0.05588">
        <ele>128.19999694824</ele>
        <time>2020-07-06T11:30:32.000Z</time>
      </trkpt>
      <trkpt lat="43.6569" lon="-0.05584">
        <ele>128</ele>
        <time>2020-07-06T11:30:33.000Z</time>
      </trkpt>
      <trkpt lat="43.65711" lon="-0.05568">
        <ele>127.19999694824</ele>
        <time>2020-07-06T11:30:36.000Z</time>
      </trkpt>
      <trkpt lat="43.65724" lon="-0.05552">
        <ele>126.59999847412</ele>
        <time>2020-07-06T11:30:38.000Z</time>
      </trkpt>
      <trkpt lat="43.65729" lon="-0.05543">
        <ele>126.40000152588</ele>
        <time>2020-07-06T11:30:39.000Z</time>
      </trkpt>
      <trkpt lat="43.65738" lon="-0.05525">
        <ele>126</ele>
        <time>2020-07-06T11:30:41.000Z</time>
      </trkpt>
      <trkpt lat="43.65756" lon="-0.05485">
        <ele>125.59999847412</ele>
        <time>2020-07-06T11:30:45.000Z</time>
      </trkpt>
      <trkpt lat="43.65766" lon="-0.05452">
        <ele>125.19999694824</ele>
        <time>2020-07-06T11:30:48.000Z</time>
      </trkpt>
      <trkpt lat="43.65778" lon="-0.05421">
        <ele>124.59999847412</ele>
        <time>2020-07-06T11:30:51.000Z</time>
      </trkpt>
      <trkpt lat="43.65805" lon="-0.05348">
        <ele>124.59999847412</ele>
        <time>2020-07-06T11:30:58.000Z</time>
      </trkpt>
      <trkpt lat="43.65809" lon="-0.05338">
        <ele>124.80000305176</ele>
        <time>2020-07-06T11:30:59.000Z</time>
      </trkpt>
      <trkpt lat="43.65819" lon="-0.05307">
        <ele>125</ele>
        <time>2020-07-06T11:31:02.000Z</time>
      </trkpt>
      <trkpt lat="43.65822" lon="-0.05284">
        <ele>125.19999694824</ele>
        <time>2020-07-06T11:31:04.000Z</time>
      </trkpt>
      <trkpt lat="43.65821" lon="-0.05261">
        <ele>125.19999694824</ele>
        <time>2020-07-06T11:31:06.000Z</time>
      </trkpt>
      <trkpt lat="43.65818" lon="-0.0524">
        <ele>125.19999694824</ele>
        <time>2020-07-06T11:31:08.000Z</time>
      </trkpt>
      <trkpt lat="43.65822" lon="-0.05222">
        <ele>125</ele>
        <time>2020-07-06T11:31:10.000Z</time>
      </trkpt>
      <trkpt lat="43.65832" lon="-0.05212">
        <ele>124.80000305176</ele>
        <time>2020-07-06T11:31:12.000Z</time>
      </trkpt>
      <trkpt lat="43.65839" lon="-0.05208">
        <ele>124.59999847412</ele>
        <time>2020-07-06T11:31:13.000Z</time>
      </trkpt>
      <trkpt lat="43.65845" lon="-0.05204">
        <ele>124.59999847412</ele>
        <time>2020-07-06T11:31:14.000Z</time>
      </trkpt>
      <trkpt lat="43.65852" lon="-0.05189">
        <ele>124.59999847412</ele>
        <time>2020-07-06T11:31:16.000Z</time>
      </trkpt>
      <trkpt lat="43.65853" lon="-0.0517">
        <ele>124.59999847412</ele>
        <time>2020-07-06T11:31:18.000Z</time>
      </trkpt>
      <trkpt lat="43.65852" lon="-0.05161">
        <ele>124.59999847412</ele>
        <time>2020-07-06T11:31:19.000Z</time>
      </trkpt>
      <trkpt lat="43.65852" lon="-0.05152">
        <ele>124.59999847412</ele>
        <time>2020-07-06T11:31:20.000Z</time>
      </trkpt>
      <trkpt lat="43.65856" lon="-0.05139">
        <ele>124.59999847412</ele>
        <time>2020-07-06T11:31:22.000Z</time>
      </trkpt>
      <trkpt lat="43.65869" lon="-0.05126">
        <ele>124.80000305176</ele>
        <time>2020-07-06T11:31:25.000Z</time>
      </trkpt>
      <trkpt lat="43.65873" lon="-0.05121">
        <ele>124.80000305176</ele>
        <time>2020-07-06T11:31:26.000Z</time>
      </trkpt>
      <trkpt lat="43.65886" lon="-0.05101">
        <ele>125</ele>
        <time>2020-07-06T11:31:29.000Z</time>
      </trkpt>
      <trkpt lat="43.65897" lon="-0.0509">
        <ele>124.59999847412</ele>
        <time>2020-07-06T11:31:31.000Z</time>
      </trkpt>
      <trkpt lat="43.65916" lon="-0.05078">
        <ele>124.40000152588</ele>
        <time>2020-07-06T11:31:34.000Z</time>
      </trkpt>
      <trkpt lat="43.65929" lon="-0.05073">
        <ele>124.40000152588</ele>
        <time>2020-07-06T11:31:36.000Z</time>
      </trkpt>
      <trkpt lat="43.6598" lon="-0.0505">
        <ele>124.59999847412</ele>
        <time>2020-07-06T11:31:44.000Z</time>
      </trkpt>
      <trkpt lat="43.65987" lon="-0.05048">
        <ele>124.40000152588</ele>
        <time>2020-07-06T11:31:45.000Z</time>
      </trkpt>
      <trkpt lat="43.66006" lon="-0.05043">
        <ele>124.19999694824</ele>
        <time>2020-07-06T11:31:48.000Z</time>
      </trkpt>
      <trkpt lat="43.66012" lon="-0.05042">
        <ele>124.40000152588</ele>
        <time>2020-07-06T11:31:49.000Z</time>
      </trkpt>
      <trkpt lat="43.66018" lon="-0.0504">
        <ele>124.40000152588</ele>
        <time>2020-07-06T11:31:50.000Z</time>
      </trkpt>
      <trkpt lat="43.66026" lon="-0.05034">
        <ele>124.40000152588</ele>
        <time>2020-07-06T11:31:52.000Z</time>
      </trkpt>
      <trkpt lat="43.6603" lon="-0.05027">
        <ele>125.19999694824</ele>
        <time>2020-07-06T11:31:55.000Z</time>
      </trkpt>
      <trkpt lat="43.6603" lon="-0.05024">
        <ele>125.40000152588</ele>
        <time>2020-07-06T11:31:57.000Z</time>
      </trkpt>
      <trkpt lat="43.66027" lon="-0.05024">
        <ele>125.40000152588</ele>
        <time>2020-07-06T11:31:59.000Z</time>
      </trkpt>
      <trkpt lat="43.66027" lon="-0.05025">
        <ele>125.80000305176</ele>
        <time>2020-07-06T11:32:00.000Z</time>
      </trkpt>
      <trkpt lat="43.66028" lon="-0.05033">
        <ele>125.80000305176</ele>
        <time>2020-07-06T11:32:04.000Z</time>
      </trkpt>
      <trkpt lat="43.66029" lon="-0.05036">
        <ele>125.59999847412</ele>
        <time>2020-07-06T11:32:09.000Z</time>
      </trkpt>
      <trkpt lat="43.66029" lon="-0.05036">
        <ele>126</ele>
        <time>2020-07-06T11:32:11.000Z</time>
      </trkpt>
      <trkpt lat="43.66021" lon="-0.0504">
        <ele>126</ele>
        <time>2020-07-06T11:32:14.000Z</time>
      </trkpt>
      <trkpt lat="43.66004" lon="-0.05044">
        <ele>126</ele>
        <time>2020-07-06T11:32:18.000Z</time>
      </trkpt>
      <trkpt lat="43.65973" lon="-0.05056">
        <ele>125.40000152588</ele>
        <time>2020-07-06T11:32:24.000Z</time>
      </trkpt>
      <trkpt lat="43.65933" lon="-0.05072">
        <ele>124.59999847412</ele>
        <time>2020-07-06T11:32:31.000Z</time>
      </trkpt>
      <trkpt lat="43.65928" lon="-0.05075">
        <ele>124.59999847412</ele>
        <time>2020-07-06T11:32:32.000Z</time>
      </trkpt>
      <trkpt lat="43.65922" lon="-0.05077">
        <ele>124.59999847412</ele>
        <time>2020-07-06T11:32:33.000Z</time>
      </trkpt>
      <trkpt lat="43.65905" lon="-0.05083">
        <ele>124.40000152588</ele>
        <time>2020-07-06T11:32:36.000Z</time>
      </trkpt>
      <trkpt lat="43.659" lon="-0.05086">
        <ele>124.59999847412</ele>
        <time>2020-07-06T11:32:37.000Z</time>
      </trkpt>
      <trkpt lat="43.65895" lon="-0.0509">
        <ele>124</ele>
        <time>2020-07-06T11:32:38.000Z</time>
      </trkpt>
      <trkpt lat="43.65886" lon="-0.05101">
        <ele>124.19999694824</ele>
        <time>2020-07-06T11:32:40.000Z</time>
      </trkpt>
      <trkpt lat="43.65882" lon="-0.05107">
        <ele>124.19999694824</ele>
        <time>2020-07-06T11:32:41.000Z</time>
      </trkpt>
      <trkpt lat="43.65856" lon="-0.05141">
        <ele>124.40000152588</ele>
        <time>2020-07-06T11:32:47.000Z</time>
      </trkpt>
      <trkpt lat="43.65853" lon="-0.05146">
        <ele>124.40000152588</ele>
        <time>2020-07-06T11:32:48.000Z</time>
      </trkpt>
      <trkpt lat="43.65849" lon="-0.05161">
        <ele>124.59999847412</ele>
        <time>2020-07-06T11:32:50.000Z</time>
      </trkpt>
      <trkpt lat="43.6585" lon="-0.05186">
        <ele>124.59999847412</ele>
        <time>2020-07-06T11:32:53.000Z</time>
      </trkpt>
      <trkpt lat="43.65849" lon="-0.05194">
        <ele>124.80000305176</ele>
        <time>2020-07-06T11:32:54.000Z</time>
      </trkpt>
      <trkpt lat="43.65846" lon="-0.05201">
        <ele>124.80000305176</ele>
        <time>2020-07-06T11:32:55.000Z</time>
      </trkpt>
      <trkpt lat="43.65837" lon="-0.0521">
        <ele>125.19999694824</ele>
        <time>2020-07-06T11:32:57.000Z</time>
      </trkpt>
      <trkpt lat="43.65822" lon="-0.05218">
        <ele>125.40000152588</ele>
        <time>2020-07-06T11:33:00.000Z</time>
      </trkpt>
      <trkpt lat="43.65818" lon="-0.05224">
        <ele>125.40000152588</ele>
        <time>2020-07-06T11:33:01.000Z</time>
      </trkpt>
      <trkpt lat="43.65816" lon="-0.05231">
        <ele>124.80000305176</ele>
        <time>2020-07-06T11:33:02.000Z</time>
      </trkpt>
      <trkpt lat="43.65817" lon="-0.05248">
        <ele>124.80000305176</ele>
        <time>2020-07-06T11:33:04.000Z</time>
      </trkpt>
      <trkpt lat="43.65821" lon="-0.0528">
        <ele>124.40000152588</ele>
        <time>2020-07-06T11:33:08.000Z</time>
      </trkpt>
      <trkpt lat="43.6582" lon="-0.05296">
        <ele>124.59999847412</ele>
        <time>2020-07-06T11:33:10.000Z</time>
      </trkpt>
      <trkpt lat="43.65819" lon="-0.05304">
        <ele>124.59999847412</ele>
        <time>2020-07-06T11:33:11.000Z</time>
      </trkpt>
      <trkpt lat="43.65818" lon="-0.05312">
        <ele>124.59999847412</ele>
        <time>2020-07-06T11:33:12.000Z</time>
      </trkpt>
      <trkpt lat="43.65807" lon="-0.05343">
        <ele>124.80000305176</ele>
        <time>2020-07-06T11:33:16.000Z</time>
      </trkpt>
      <trkpt lat="43.65781" lon="-0.05408">
        <ele>124.80000305176</ele>
        <time>2020-07-06T11:33:25.000Z</time>
      </trkpt>
      <trkpt lat="43.65782" lon="-0.05419">
        <ele>124.59999847412</ele>
        <time>2020-07-06T11:33:27.000Z</time>
      </trkpt>
      <trkpt lat="43.65785" lon="-0.05422">
        <ele>124.59999847412</ele>
        <time>2020-07-06T11:33:28.000Z</time>
      </trkpt>
      <trkpt lat="43.65795" lon="-0.05415">
        <ele>125</ele>
        <time>2020-07-06T11:33:31.000Z</time>
      </trkpt>
      <trkpt lat="43.65817" lon="-0.05394">
        <ele>125</ele>
        <time>2020-07-06T11:33:36.000Z</time>
      </trkpt>
      <trkpt lat="43.65823" lon="-0.0539">
        <ele>125</ele>
        <time>2020-07-06T11:33:37.000Z</time>
      </trkpt>
      <trkpt lat="43.65835" lon="-0.05385">
        <ele>124.80000305176</ele>
        <time>2020-07-06T11:33:39.000Z</time>
      </trkpt>
      <trkpt lat="43.65841" lon="-0.05384">
        <ele>124.80000305176</ele>
        <time>2020-07-06T11:33:40.000Z</time>
      </trkpt>
      <trkpt lat="43.65847" lon="-0.05384">
        <ele>124.80000305176</ele>
        <time>2020-07-06T11:33:41.000Z</time>
      </trkpt>
      <trkpt lat="43.65871" lon="-0.05388">
        <ele>124.40000152588</ele>
        <time>2020-07-06T11:33:45.000Z</time>
      </trkpt>
      <trkpt lat="43.65896" lon="-0.05391">
        <ele>124.19999694824</ele>
        <time>2020-07-06T11:33:49.000Z</time>
      </trkpt>
      <trkpt lat="43.6591" lon="-0.05395">
        <ele>124.19999694824</ele>
        <time>2020-07-06T11:33:51.000Z</time>
      </trkpt>
      <trkpt lat="43.65936" lon="-0.05406">
        <ele>124</ele>
        <time>2020-07-06T11:33:55.000Z</time>
      </trkpt>
      <trkpt lat="43.65949" lon="-0.05411">
        <ele>123.80000305176</ele>
        <time>2020-07-06T11:33:57.000Z</time>
      </trkpt>
      <trkpt lat="43.65981" lon="-0.05422">
        <ele>124</ele>
        <time>2020-07-06T11:34:02.000Z</time>
      </trkpt>
      <trkpt lat="43.65987" lon="-0.05426">
        <ele>124</ele>
        <time>2020-07-06T11:34:03.000Z</time>
      </trkpt>
      <trkpt lat="43.6602" lon="-0.05458">
        <ele>124.19999694824</ele>
        <time>2020-07-06T11:34:09.000Z</time>
      </trkpt>
      <trkpt lat="43.66026" lon="-0.05464">
        <ele>124</ele>
        <time>2020-07-06T11:34:10.000Z</time>
      </trkpt>
      <trkpt lat="43.66036" lon="-0.05476">
        <ele>123.80000305176</ele>
        <time>2020-07-06T11:34:12.000Z</time>
      </trkpt>
      <trkpt lat="43.66042" lon="-0.0548">
        <ele>123.80000305176</ele>
        <time>2020-07-06T11:34:13.000Z</time>
      </trkpt>
      <trkpt lat="43.66047" lon="-0.05483">
        <ele>123.59999847412</ele>
        <time>2020-07-06T11:34:14.000Z</time>
      </trkpt>
      <trkpt lat="43.6606" lon="-0.0548">
        <ele>123.40000152588</ele>
        <time>2020-07-06T11:34:16.000Z</time>
      </trkpt>
      <trkpt lat="43.66085" lon="-0.05465">
        <ele>122.80000305176</ele>
        <time>2020-07-06T11:34:20.000Z</time>
      </trkpt>
      <trkpt lat="43.66091" lon="-0.05461">
        <ele>122.80000305176</ele>
        <time>2020-07-06T11:34:21.000Z</time>
      </trkpt>
      <trkpt lat="43.66137" lon="-0.05431">
        <ele>123.80000305176</ele>
        <time>2020-07-06T11:34:29.000Z</time>
      </trkpt>
      <trkpt lat="43.66149" lon="-0.05424">
        <ele>124</ele>
        <time>2020-07-06T11:34:31.000Z</time>
      </trkpt>
      <trkpt lat="43.66182" lon="-0.05405">
        <ele>124.59999847412</ele>
        <time>2020-07-06T11:34:37.000Z</time>
      </trkpt>
      <trkpt lat="43.66214" lon="-0.05387">
        <ele>124.19999694824</ele>
        <time>2020-07-06T11:34:43.000Z</time>
      </trkpt>
      <trkpt lat="43.66219" lon="-0.05387">
        <ele>124.19999694824</ele>
        <time>2020-07-06T11:34:44.000Z</time>
      </trkpt>
      <trkpt lat="43.66225" lon="-0.05387">
        <ele>124.19999694824</ele>
        <time>2020-07-06T11:34:45.000Z</time>
      </trkpt>
      <trkpt lat="43.66235" lon="-0.05391">
        <ele>124.19999694824</ele>
        <time>2020-07-06T11:34:47.000Z</time>
      </trkpt>
      <trkpt lat="43.6624" lon="-0.05395">
        <ele>124.19999694824</ele>
        <time>2020-07-06T11:34:48.000Z</time>
      </trkpt>
      <trkpt lat="43.66282" lon="-0.05417">
        <ele>124.59999847412</ele>
        <time>2020-07-06T11:34:56.000Z</time>
      </trkpt>
      <trkpt lat="43.66337" lon="-0.05447">
        <ele>125</ele>
        <time>2020-07-06T11:35:06.000Z</time>
      </trkpt>
      <trkpt lat="43.66343" lon="-0.0545">
        <ele>125</ele>
        <time>2020-07-06T11:35:07.000Z</time>
      </trkpt>
      <trkpt lat="43.6636" lon="-0.0546">
        <ele>124.19999694824</ele>
        <time>2020-07-06T11:35:10.000Z</time>
      </trkpt>
      <trkpt lat="43.66366" lon="-0.05461">
        <ele>124</ele>
        <time>2020-07-06T11:35:11.000Z</time>
      </trkpt>
      <trkpt lat="43.66372" lon="-0.05463">
        <ele>124</ele>
        <time>2020-07-06T11:35:12.000Z</time>
      </trkpt>
      <trkpt lat="43.66378" lon="-0.05466">
        <ele>123.80000305176</ele>
        <time>2020-07-06T11:35:13.000Z</time>
      </trkpt>
      <trkpt lat="43.66414" lon="-0.05495">
        <ele>123.80000305176</ele>
        <time>2020-07-06T11:35:20.000Z</time>
      </trkpt>
      <trkpt lat="43.66425" lon="-0.05503">
        <ele>123.80000305176</ele>
        <time>2020-07-06T11:35:22.000Z</time>
      </trkpt>
      <trkpt lat="43.66443" lon="-0.05509">
        <ele>124</ele>
        <time>2020-07-06T11:35:25.000Z</time>
      </trkpt>
      <trkpt lat="43.66481" lon="-0.05516">
        <ele>124.19999694824</ele>
        <time>2020-07-06T11:35:31.000Z</time>
      </trkpt>
      <trkpt lat="43.66487" lon="-0.05519">
        <ele>124.19999694824</ele>
        <time>2020-07-06T11:35:32.000Z</time>
      </trkpt>
      <trkpt lat="43.66498" lon="-0.05526">
        <ele>124</ele>
        <time>2020-07-06T11:35:34.000Z</time>
      </trkpt>
      <trkpt lat="43.66516" lon="-0.0553">
        <ele>124</ele>
        <time>2020-07-06T11:35:37.000Z</time>
      </trkpt>
      <trkpt lat="43.66546" lon="-0.05534">
        <ele>123.59999847412</ele>
        <time>2020-07-06T11:35:42.000Z</time>
      </trkpt>
      <trkpt lat="43.66552" lon="-0.05535">
        <ele>123.59999847412</ele>
        <time>2020-07-06T11:35:43.000Z</time>
      </trkpt>
      <trkpt lat="43.66558" lon="-0.05538">
        <ele>123.59999847412</ele>
        <time>2020-07-06T11:35:44.000Z</time>
      </trkpt>
      <trkpt lat="43.66572" lon="-0.05551">
        <ele>123.59999847412</ele>
        <time>2020-07-06T11:35:46.000Z</time>
      </trkpt>
      <trkpt lat="43.66582" lon="-0.05568">
        <ele>123.40000152588</ele>
        <time>2020-07-06T11:35:48.000Z</time>
      </trkpt>
      <trkpt lat="43.66591" lon="-0.05585">
        <ele>123</ele>
        <time>2020-07-06T11:35:50.000Z</time>
      </trkpt>
      <trkpt lat="43.66601" lon="-0.05601">
        <ele>122.80000305176</ele>
        <time>2020-07-06T11:35:52.000Z</time>
      </trkpt>
      <trkpt lat="43.66615" lon="-0.05626">
        <ele>122</ele>
        <time>2020-07-06T11:35:55.000Z</time>
      </trkpt>
      <trkpt lat="43.66621" lon="-0.05632">
        <ele>121.80000305176</ele>
        <time>2020-07-06T11:35:56.000Z</time>
      </trkpt>
      <trkpt lat="43.66631" lon="-0.05644">
        <ele>122</ele>
        <time>2020-07-06T11:35:58.000Z</time>
      </trkpt>
      <trkpt lat="43.66635" lon="-0.05651">
        <ele>122</ele>
        <time>2020-07-06T11:35:59.000Z</time>
      </trkpt>
      <trkpt lat="43.66654" lon="-0.05681">
        <ele>122</ele>
        <time>2020-07-06T11:36:03.000Z</time>
      </trkpt>
      <trkpt lat="43.66665" lon="-0.05701">
        <ele>122</ele>
        <time>2020-07-06T11:36:07.000Z</time>
      </trkpt>
      <trkpt lat="43.66674" lon="-0.05722">
        <ele>121.59999847412</ele>
        <time>2020-07-06T11:36:12.000Z</time>
      </trkpt>
      <trkpt lat="43.66668" lon="-0.05749">
        <ele>121.40000152588</ele>
        <time>2020-07-06T11:36:17.000Z</time>
      </trkpt>
      <trkpt lat="43.66659" lon="-0.05791">
        <ele>121.19999694824</ele>
        <time>2020-07-06T11:36:22.000Z</time>
      </trkpt>
      <trkpt lat="43.66656" lon="-0.0583">
        <ele>121.40000152588</ele>
        <time>2020-07-06T11:36:27.000Z</time>
      </trkpt>
      <trkpt lat="43.66658" lon="-0.05864">
        <ele>121.80000305176</ele>
        <time>2020-07-06T11:36:31.000Z</time>
      </trkpt>
      <trkpt lat="43.66654" lon="-0.05887">
        <ele>122.19999694824</ele>
        <time>2020-07-06T11:36:35.000Z</time>
      </trkpt>
      <trkpt lat="43.66654" lon="-0.0589">
        <ele>122.19999694824</ele>
        <time>2020-07-06T11:36:36.000Z</time>
      </trkpt>
      <trkpt lat="43.66653" lon="-0.05896">
        <ele>122.19999694824</ele>
        <time>2020-07-06T11:36:41.000Z</time>
      </trkpt>
      <trkpt lat="43.66655" lon="-0.05909">
        <ele>122.19999694824</ele>
        <time>2020-07-06T11:36:46.000Z</time>
      </trkpt>
      <trkpt lat="43.66655" lon="-0.05931">
        <ele>122.19999694824</ele>
        <time>2020-07-06T11:36:52.000Z</time>
      </trkpt>
      <trkpt lat="43.66656" lon="-0.05967">
        <ele>121.59999847412</ele>
        <time>2020-07-06T11:36:58.000Z</time>
      </trkpt>
      <trkpt lat="43.66656" lon="-0.06011">
        <ele>121.59999847412</ele>
        <time>2020-07-06T11:37:04.000Z</time>
      </trkpt>
      <trkpt lat="43.66651" lon="-0.06061">
        <ele>122</ele>
        <time>2020-07-06T11:37:11.000Z</time>
      </trkpt>
      <trkpt lat="43.66642" lon="-0.06117">
        <ele>122.19999694824</ele>
        <time>2020-07-06T11:37:19.000Z</time>
      </trkpt>
      <trkpt lat="43.66641" lon="-0.06125">
        <ele>122.19999694824</ele>
        <time>2020-07-06T11:37:20.000Z</time>
      </trkpt>
      <trkpt lat="43.66633" lon="-0.06159">
        <ele>121.80000305176</ele>
        <time>2020-07-06T11:37:24.000Z</time>
      </trkpt>
      <trkpt lat="43.66628" lon="-0.06177">
        <ele>121.40000152588</ele>
        <time>2020-07-06T11:37:26.000Z</time>
      </trkpt>
      <trkpt lat="43.66616" lon="-0.0621">
        <ele>120.80000305176</ele>
        <time>2020-07-06T11:37:30.000Z</time>
      </trkpt>
      <trkpt lat="43.66612" lon="-0.06217">
        <ele>120.80000305176</ele>
        <time>2020-07-06T11:37:31.000Z</time>
      </trkpt>
      <trkpt lat="43.66608" lon="-0.06223">
        <ele>120.59999847412</ele>
        <time>2020-07-06T11:37:32.000Z</time>
      </trkpt>
      <trkpt lat="43.666" lon="-0.06237">
        <ele>120.40000152588</ele>
        <time>2020-07-06T11:37:34.000Z</time>
      </trkpt>
      <trkpt lat="43.66599" lon="-0.06244">
        <ele>120.40000152588</ele>
        <time>2020-07-06T11:37:35.000Z</time>
      </trkpt>
      <trkpt lat="43.666" lon="-0.06252">
        <ele>120.19999694824</ele>
        <time>2020-07-06T11:37:36.000Z</time>
      </trkpt>
      <trkpt lat="43.66604" lon="-0.06264">
        <ele>120</ele>
        <time>2020-07-06T11:37:38.000Z</time>
      </trkpt>
      <trkpt lat="43.66614" lon="-0.06278">
        <ele>120.19999694824</ele>
        <time>2020-07-06T11:37:42.000Z</time>
      </trkpt>
      <trkpt lat="43.66628" lon="-0.06292">
        <ele>122</ele>
        <time>2020-07-06T11:37:48.000Z</time>
      </trkpt>
      <trkpt lat="43.66641" lon="-0.06311">
        <ele>122.40000152588</ele>
        <time>2020-07-06T11:37:55.000Z</time>
      </trkpt>
      <trkpt lat="43.66652" lon="-0.06329">
        <ele>122.40000152588</ele>
        <time>2020-07-06T11:38:01.000Z</time>
      </trkpt>
      <trkpt lat="43.66652" lon="-0.06349">
        <ele>122.40000152588</ele>
        <time>2020-07-06T11:38:05.000Z</time>
      </trkpt>
      <trkpt lat="43.66641" lon="-0.0637">
        <ele>122.40000152588</ele>
        <time>2020-07-06T11:38:09.000Z</time>
      </trkpt>
      <trkpt lat="43.66619" lon="-0.06408">
        <ele>122.19999694824</ele>
        <time>2020-07-06T11:38:16.000Z</time>
      </trkpt>
      <trkpt lat="43.66612" lon="-0.06419">
        <ele>122</ele>
        <time>2020-07-06T11:38:18.000Z</time>
      </trkpt>
      <trkpt lat="43.66604" lon="-0.06439">
        <ele>121.80000305176</ele>
        <time>2020-07-06T11:38:21.000Z</time>
      </trkpt>
      <trkpt lat="43.66602" lon="-0.06446">
        <ele>122</ele>
        <time>2020-07-06T11:38:22.000Z</time>
      </trkpt>
      <trkpt lat="43.66591" lon="-0.06487">
        <ele>121.59999847412</ele>
        <time>2020-07-06T11:38:27.000Z</time>
      </trkpt>
      <trkpt lat="43.66588" lon="-0.06496">
        <ele>121.40000152588</ele>
        <time>2020-07-06T11:38:28.000Z</time>
      </trkpt>
      <trkpt lat="43.6658" lon="-0.06514">
        <ele>121.19999694824</ele>
        <time>2020-07-06T11:38:30.000Z</time>
      </trkpt>
      <trkpt lat="43.6657" lon="-0.0653">
        <ele>121</ele>
        <time>2020-07-06T11:38:32.000Z</time>
      </trkpt>
      <trkpt lat="43.66561" lon="-0.06545">
        <ele>121</ele>
        <time>2020-07-06T11:38:34.000Z</time>
      </trkpt>
      <trkpt lat="43.66557" lon="-0.06551">
        <ele>120.80000305176</ele>
        <time>2020-07-06T11:38:35.000Z</time>
      </trkpt>
      <trkpt lat="43.66552" lon="-0.06558">
        <ele>120.80000305176</ele>
        <time>2020-07-06T11:38:36.000Z</time>
      </trkpt>
      <trkpt lat="43.66548" lon="-0.06565">
        <ele>121</ele>
        <time>2020-07-06T11:38:37.000Z</time>
      </trkpt>
      <trkpt lat="43.66521" lon="-0.0662">
        <ele>121.40000152588</ele>
        <time>2020-07-06T11:38:44.000Z</time>
      </trkpt>
      <trkpt lat="43.66498" lon="-0.06679">
        <ele>120.80000305176</ele>
        <time>2020-07-06T11:38:51.000Z</time>
      </trkpt>
      <trkpt lat="43.66488" lon="-0.0671">
        <ele>120.80000305176</ele>
        <time>2020-07-06T11:38:55.000Z</time>
      </trkpt>
      <trkpt lat="43.66479" lon="-0.06724">
        <ele>120.80000305176</ele>
        <time>2020-07-06T11:38:57.000Z</time>
      </trkpt>
      <trkpt lat="43.66443" lon="-0.0676">
        <ele>121.19999694824</ele>
        <time>2020-07-06T11:39:04.000Z</time>
      </trkpt>
      <trkpt lat="43.66429" lon="-0.06776">
        <ele>121.80000305176</ele>
        <time>2020-07-06T11:39:07.000Z</time>
      </trkpt>
      <trkpt lat="43.66416" lon="-0.06791">
        <ele>122.19999694824</ele>
        <time>2020-07-06T11:39:10.000Z</time>
      </trkpt>
      <trkpt lat="43.66412" lon="-0.06794">
        <ele>122.40000152588</ele>
        <time>2020-07-06T11:39:11.000Z</time>
      </trkpt>
      <trkpt lat="43.66407" lon="-0.06796">
        <ele>122.40000152588</ele>
        <time>2020-07-06T11:39:12.000Z</time>
      </trkpt>
      <trkpt lat="43.66396" lon="-0.06794">
        <ele>122.40000152588</ele>
        <time>2020-07-06T11:39:14.000Z</time>
      </trkpt>
      <trkpt lat="43.66384" lon="-0.0679">
        <ele>122.59999847412</ele>
        <time>2020-07-06T11:39:16.000Z</time>
      </trkpt>
      <trkpt lat="43.66366" lon="-0.06786">
        <ele>122.59999847412</ele>
        <time>2020-07-06T11:39:19.000Z</time>
      </trkpt>
      <trkpt lat="43.6634" lon="-0.06788">
        <ele>122.59999847412</ele>
        <time>2020-07-06T11:39:23.000Z</time>
      </trkpt>
      <trkpt lat="43.66334" lon="-0.06788">
        <ele>122.59999847412</ele>
        <time>2020-07-06T11:39:24.000Z</time>
      </trkpt>
      <trkpt lat="43.66322" lon="-0.0679">
        <ele>122.59999847412</ele>
        <time>2020-07-06T11:39:26.000Z</time>
      </trkpt>
      <trkpt lat="43.6631" lon="-0.06796">
        <ele>122.59999847412</ele>
        <time>2020-07-06T11:39:28.000Z</time>
      </trkpt>
      <trkpt lat="43.66304" lon="-0.068">
        <ele>122.59999847412</ele>
        <time>2020-07-06T11:39:29.000Z</time>
      </trkpt>
      <trkpt lat="43.66299" lon="-0.06806">
        <ele>122.59999847412</ele>
        <time>2020-07-06T11:39:30.000Z</time>
      </trkpt>
      <trkpt lat="43.66291" lon="-0.06819">
        <ele>122.59999847412</ele>
        <time>2020-07-06T11:39:32.000Z</time>
      </trkpt>
      <trkpt lat="43.66288" lon="-0.06827">
        <ele>122.59999847412</ele>
        <time>2020-07-06T11:39:33.000Z</time>
      </trkpt>
      <trkpt lat="43.66287" lon="-0.06834">
        <ele>122.40000152588</ele>
        <time>2020-07-06T11:39:34.000Z</time>
      </trkpt>
      <trkpt lat="43.66287" lon="-0.06855">
        <ele>122.40000152588</ele>
        <time>2020-07-06T11:39:36.000Z</time>
      </trkpt>
      <trkpt lat="43.66287" lon="-0.06864">
        <ele>122.59999847412</ele>
        <time>2020-07-06T11:39:37.000Z</time>
      </trkpt>
      <trkpt lat="43.66287" lon="-0.06892">
        <ele>122.19999694824</ele>
        <time>2020-07-06T11:39:40.000Z</time>
      </trkpt>
      <trkpt lat="43.66284" lon="-0.06909">
        <ele>122.19999694824</ele>
        <time>2020-07-06T11:39:42.000Z</time>
      </trkpt>
      <trkpt lat="43.66274" lon="-0.06936">
        <ele>121.59999847412</ele>
        <time>2020-07-06T11:39:45.000Z</time>
      </trkpt>
      <trkpt lat="43.66268" lon="-0.06953">
        <ele>121.19999694824</ele>
        <time>2020-07-06T11:39:47.000Z</time>
      </trkpt>
      <trkpt lat="43.66264" lon="-0.0697">
        <ele>121</ele>
        <time>2020-07-06T11:39:49.000Z</time>
      </trkpt>
      <trkpt lat="43.6626" lon="-0.06981">
        <ele>121</ele>
        <time>2020-07-06T11:39:50.000Z</time>
      </trkpt>
      <trkpt lat="43.66255" lon="-0.0699">
        <ele>121</ele>
        <time>2020-07-06T11:39:51.000Z</time>
      </trkpt>
      <trkpt lat="43.66246" lon="-0.07004">
        <ele>120.80000305176</ele>
        <time>2020-07-06T11:39:53.000Z</time>
      </trkpt>
      <trkpt lat="43.66236" lon="-0.07021">
        <ele>120.80000305176</ele>
        <time>2020-07-06T11:39:55.000Z</time>
      </trkpt>
      <trkpt lat="43.66231" lon="-0.07038">
        <ele>120.59999847412</ele>
        <time>2020-07-06T11:39:57.000Z</time>
      </trkpt>
      <trkpt lat="43.66229" lon="-0.07046">
        <ele>120.59999847412</ele>
        <time>2020-07-06T11:39:58.000Z</time>
      </trkpt>
      <trkpt lat="43.6623" lon="-0.07055">
        <ele>120.40000152588</ele>
        <time>2020-07-06T11:39:59.000Z</time>
      </trkpt>
      <trkpt lat="43.66233" lon="-0.07062">
        <ele>120.19999694824</ele>
        <time>2020-07-06T11:40:00.000Z</time>
      </trkpt>
      <trkpt lat="43.66237" lon="-0.0707">
        <ele>120.19999694824</ele>
        <time>2020-07-06T11:40:01.000Z</time>
      </trkpt>
      <trkpt lat="43.6624" lon="-0.07084">
        <ele>120.19999694824</ele>
        <time>2020-07-06T11:40:03.000Z</time>
      </trkpt>
      <trkpt lat="43.66243" lon="-0.07101">
        <ele>120.40000152588</ele>
        <time>2020-07-06T11:40:05.000Z</time>
      </trkpt>
      <trkpt lat="43.66246" lon="-0.07112">
        <ele>120.80000305176</ele>
        <time>2020-07-06T11:40:07.000Z</time>
      </trkpt>
      <trkpt lat="43.66244" lon="-0.07122">
        <ele>120.80000305176</ele>
        <time>2020-07-06T11:40:09.000Z</time>
      </trkpt>
      <trkpt lat="43.66241" lon="-0.07126">
        <ele>120.80000305176</ele>
        <time>2020-07-06T11:40:10.000Z</time>
      </trkpt>
      <trkpt lat="43.66236" lon="-0.07147">
        <ele>120.80000305176</ele>
        <time>2020-07-06T11:40:14.000Z</time>
      </trkpt>
      <trkpt lat="43.66232" lon="-0.07178">
        <ele>120.59999847412</ele>
        <time>2020-07-06T11:40:18.000Z</time>
      </trkpt>
      <trkpt lat="43.6623" lon="-0.07221">
        <ele>120.40000152588</ele>
        <time>2020-07-06T11:40:23.000Z</time>
      </trkpt>
      <trkpt lat="43.66231" lon="-0.0724">
        <ele>120.40000152588</ele>
        <time>2020-07-06T11:40:25.000Z</time>
      </trkpt>
      <trkpt lat="43.66232" lon="-0.07256">
        <ele>120.19999694824</ele>
        <time>2020-07-06T11:40:27.000Z</time>
      </trkpt>
      <trkpt lat="43.66236" lon="-0.07282">
        <ele>119.80000305176</ele>
        <time>2020-07-06T11:40:30.000Z</time>
      </trkpt>
      <trkpt lat="43.66237" lon="-0.07289">
        <ele>119.80000305176</ele>
        <time>2020-07-06T11:40:31.000Z</time>
      </trkpt>
      <trkpt lat="43.66236" lon="-0.07298">
        <ele>119.80000305176</ele>
        <time>2020-07-06T11:40:32.000Z</time>
      </trkpt>
      <trkpt lat="43.66236" lon="-0.07316">
        <ele>119.80000305176</ele>
        <time>2020-07-06T11:40:34.000Z</time>
      </trkpt>
      <trkpt lat="43.66236" lon="-0.07339">
        <ele>120.19999694824</ele>
        <time>2020-07-06T11:40:37.000Z</time>
      </trkpt>
      <trkpt lat="43.66237" lon="-0.07352">
        <ele>120.40000152588</ele>
        <time>2020-07-06T11:40:39.000Z</time>
      </trkpt>
      <trkpt lat="43.66239" lon="-0.07371">
        <ele>120.59999847412</ele>
        <time>2020-07-06T11:40:42.000Z</time>
      </trkpt>
      <trkpt lat="43.66243" lon="-0.07383">
        <ele>120.80000305176</ele>
        <time>2020-07-06T11:40:44.000Z</time>
      </trkpt>
      <trkpt lat="43.66244" lon="-0.07388">
        <ele>120.80000305176</ele>
        <time>2020-07-06T11:40:45.000Z</time>
      </trkpt>
      <trkpt lat="43.66248" lon="-0.07403">
        <ele>121</ele>
        <time>2020-07-06T11:40:47.000Z</time>
      </trkpt>
      <trkpt lat="43.66249" lon="-0.07416">
        <ele>121</ele>
        <time>2020-07-06T11:40:49.000Z</time>
      </trkpt>
      <trkpt lat="43.6625" lon="-0.07431">
        <ele>121</ele>
        <time>2020-07-06T11:40:51.000Z</time>
      </trkpt>
      <trkpt lat="43.66253" lon="-0.07454">
        <ele>121</ele>
        <time>2020-07-06T11:40:54.000Z</time>
      </trkpt>
      <trkpt lat="43.66258" lon="-0.07486">
        <ele>120.40000152588</ele>
        <time>2020-07-06T11:40:58.000Z</time>
      </trkpt>
      <trkpt lat="43.66259" lon="-0.07493">
        <ele>120.40000152588</ele>
        <time>2020-07-06T11:40:59.000Z</time>
      </trkpt>
      <trkpt lat="43.6626" lon="-0.07501">
        <ele>120.19999694824</ele>
        <time>2020-07-06T11:41:00.000Z</time>
      </trkpt>
      <trkpt lat="43.66259" lon="-0.07521">
        <ele>120</ele>
        <time>2020-07-06T11:41:02.000Z</time>
      </trkpt>
      <trkpt lat="43.66256" lon="-0.07535">
        <ele>120</ele>
        <time>2020-07-06T11:41:04.000Z</time>
      </trkpt>
      <trkpt lat="43.66257" lon="-0.07552">
        <ele>119.80000305176</ele>
        <time>2020-07-06T11:41:06.000Z</time>
      </trkpt>
      <trkpt lat="43.66258" lon="-0.07561">
        <ele>119.59999847412</ele>
        <time>2020-07-06T11:41:07.000Z</time>
      </trkpt>
      <trkpt lat="43.6626" lon="-0.07569">
        <ele>119.59999847412</ele>
        <time>2020-07-06T11:41:08.000Z</time>
      </trkpt>
      <trkpt lat="43.66261" lon="-0.07576">
        <ele>119.59999847412</ele>
        <time>2020-07-06T11:41:09.000Z</time>
      </trkpt>
      <trkpt lat="43.66262" lon="-0.07584">
        <ele>119.59999847412</ele>
        <time>2020-07-06T11:41:10.000Z</time>
      </trkpt>
      <trkpt lat="43.6626" lon="-0.07601">
        <ele>119.19999694824</ele>
        <time>2020-07-06T11:41:12.000Z</time>
      </trkpt>
      <trkpt lat="43.66253" lon="-0.07621">
        <ele>119.40000152588</ele>
        <time>2020-07-06T11:41:15.000Z</time>
      </trkpt>
      <trkpt lat="43.66254" lon="-0.07627">
        <ele>119.40000152588</ele>
        <time>2020-07-06T11:41:16.000Z</time>
      </trkpt>
      <trkpt lat="43.66261" lon="-0.0763">
        <ele>119.40000152588</ele>
        <time>2020-07-06T11:41:18.000Z</time>
      </trkpt>
      <trkpt lat="43.66276" lon="-0.07622">
        <ele>119.80000305176</ele>
        <time>2020-07-06T11:41:22.000Z</time>
      </trkpt>
      <trkpt lat="43.66286" lon="-0.07611">
        <ele>120</ele>
        <time>2020-07-06T11:41:25.000Z</time>
      </trkpt>
      <trkpt lat="43.66293" lon="-0.07601">
        <ele>120.19999694824</ele>
        <time>2020-07-06T11:41:27.000Z</time>
      </trkpt>
      <trkpt lat="43.66301" lon="-0.07574">
        <ele>120.19999694824</ele>
        <time>2020-07-06T11:41:31.000Z</time>
      </trkpt>
      <trkpt lat="43.66304" lon="-0.07569">
        <ele>120.19999694824</ele>
        <time>2020-07-06T11:41:32.000Z</time>
      </trkpt>
      <trkpt lat="43.66307" lon="-0.07566">
        <ele>120</ele>
        <time>2020-07-06T11:41:33.000Z</time>
      </trkpt>
      <trkpt lat="43.66315" lon="-0.07546">
        <ele>119.80000305176</ele>
        <time>2020-07-06T11:41:36.000Z</time>
      </trkpt>
      <trkpt lat="43.66321" lon="-0.07525">
        <ele>119.80000305176</ele>
        <time>2020-07-06T11:41:39.000Z</time>
      </trkpt>
      <trkpt lat="43.66327" lon="-0.07512">
        <ele>119.80000305176</ele>
        <time>2020-07-06T11:41:41.000Z</time>
      </trkpt>
      <trkpt lat="43.6634" lon="-0.07472">
        <ele>120.19999694824</ele>
        <time>2020-07-06T11:41:47.000Z</time>
      </trkpt>
      <trkpt lat="43.66348" lon="-0.07428">
        <ele>120.59999847412</ele>
        <time>2020-07-06T11:41:53.000Z</time>
      </trkpt>
      <trkpt lat="43.66351" lon="-0.07421">
        <ele>120.59999847412</ele>
        <time>2020-07-06T11:41:54.000Z</time>
      </trkpt>
      <trkpt lat="43.66355" lon="-0.07415">
        <ele>120.59999847412</ele>
        <time>2020-07-06T11:41:55.000Z</time>
      </trkpt>
      <trkpt lat="43.66367" lon="-0.07403">
        <ele>120.59999847412</ele>
        <time>2020-07-06T11:41:58.000Z</time>
      </trkpt>
      <trkpt lat="43.66385" lon="-0.07388">
        <ele>120.59999847412</ele>
        <time>2020-07-06T11:42:02.000Z</time>
      </trkpt>
      <trkpt lat="43.66389" lon="-0.07389">
        <ele>120.59999847412</ele>
        <time>2020-07-06T11:42:03.000Z</time>
      </trkpt>
      <trkpt lat="43.66402" lon="-0.07399">
        <ele>120.59999847412</ele>
        <time>2020-07-06T11:42:07.000Z</time>
      </trkpt>
      <trkpt lat="43.66404" lon="-0.07402">
        <ele>120.59999847412</ele>
        <time>2020-07-06T11:42:08.000Z</time>
      </trkpt>
      <trkpt lat="43.66404" lon="-0.07412">
        <ele>120.40000152588</ele>
        <time>2020-07-06T11:42:10.000Z</time>
      </trkpt>
      <trkpt lat="43.66405" lon="-0.07417">
        <ele>120.40000152588</ele>
        <time>2020-07-06T11:42:11.000Z</time>
      </trkpt>
      <trkpt lat="43.66408" lon="-0.07437">
        <ele>120.40000152588</ele>
        <time>2020-07-06T11:42:14.000Z</time>
      </trkpt>
      <trkpt lat="43.66411" lon="-0.07448">
        <ele>120.40000152588</ele>
        <time>2020-07-06T11:42:16.000Z</time>
      </trkpt>
      <trkpt lat="43.66415" lon="-0.07461">
        <ele>120.40000152588</ele>
        <time>2020-07-06T11:42:18.000Z</time>
      </trkpt>
      <trkpt lat="43.66418" lon="-0.07477">
        <ele>120.59999847412</ele>
        <time>2020-07-06T11:42:21.000Z</time>
      </trkpt>
      <trkpt lat="43.66418" lon="-0.07491">
        <ele>120.40000152588</ele>
        <time>2020-07-06T11:42:23.000Z</time>
      </trkpt>
      <trkpt lat="43.66418" lon="-0.07497">
        <ele>120.40000152588</ele>
        <time>2020-07-06T11:42:24.000Z</time>
      </trkpt>
      <trkpt lat="43.66415" lon="-0.0751">
        <ele>120.40000152588</ele>
        <time>2020-07-06T11:42:26.000Z</time>
      </trkpt>
      <trkpt lat="43.66408" lon="-0.07523">
        <ele>120.40000152588</ele>
        <time>2020-07-06T11:42:28.000Z</time>
      </trkpt>
      <trkpt lat="43.66398" lon="-0.0754">
        <ele>120</ele>
        <time>2020-07-06T11:42:31.000Z</time>
      </trkpt>
      <trkpt lat="43.66395" lon="-0.07549">
        <ele>119.80000305176</ele>
        <time>2020-07-06T11:42:32.000Z</time>
      </trkpt>
      <trkpt lat="43.66394" lon="-0.07557">
        <ele>119.80000305176</ele>
        <time>2020-07-06T11:42:33.000Z</time>
      </trkpt>
      <trkpt lat="43.66391" lon="-0.07569">
        <ele>119.80000305176</ele>
        <time>2020-07-06T11:42:35.000Z</time>
      </trkpt>
      <trkpt lat="43.66387" lon="-0.07596">
        <ele>119.80000305176</ele>
        <time>2020-07-06T11:42:38.000Z</time>
      </trkpt>
      <trkpt lat="43.66387" lon="-0.07615">
        <ele>119.80000305176</ele>
        <time>2020-07-06T11:42:40.000Z</time>
      </trkpt>
      <trkpt lat="43.66388" lon="-0.07629">
        <ele>119.80000305176</ele>
        <time>2020-07-06T11:42:42.000Z</time>
      </trkpt>
      <trkpt lat="43.66386" lon="-0.07635">
        <ele>119.80000305176</ele>
        <time>2020-07-06T11:42:43.000Z</time>
      </trkpt>
      <trkpt lat="43.66383" lon="-0.07655">
        <ele>119.59999847412</ele>
        <time>2020-07-06T11:42:46.000Z</time>
      </trkpt>
      <trkpt lat="43.66382" lon="-0.07665">
        <ele>119.59999847412</ele>
        <time>2020-07-06T11:42:47.000Z</time>
      </trkpt>
      <trkpt lat="43.66374" lon="-0.07688">
        <ele>120</ele>
        <time>2020-07-06T11:42:50.000Z</time>
      </trkpt>
      <trkpt lat="43.6636" lon="-0.07706">
        <ele>120.19999694824</ele>
        <time>2020-07-06T11:42:54.000Z</time>
      </trkpt>
      <trkpt lat="43.66355" lon="-0.07717">
        <ele>120.19999694824</ele>
        <time>2020-07-06T11:42:56.000Z</time>
      </trkpt>
      <trkpt lat="43.66348" lon="-0.07725">
        <ele>120.40000152588</ele>
        <time>2020-07-06T11:42:58.000Z</time>
      </trkpt>
      <trkpt lat="43.66327" lon="-0.07743">
        <ele>120.19999694824</ele>
        <time>2020-07-06T11:43:03.000Z</time>
      </trkpt>
      <trkpt lat="43.66317" lon="-0.07749">
        <ele>120.19999694824</ele>
        <time>2020-07-06T11:43:07.000Z</time>
      </trkpt>
      <trkpt lat="43.66307" lon="-0.07753">
        <ele>120.19999694824</ele>
        <time>2020-07-06T11:43:12.000Z</time>
      </trkpt>
      <trkpt lat="43.66288" lon="-0.07762">
        <ele>120</ele>
        <time>2020-07-06T11:43:18.000Z</time>
      </trkpt>
      <trkpt lat="43.66281" lon="-0.07779">
        <ele>119.40000152588</ele>
        <time>2020-07-06T11:43:23.000Z</time>
      </trkpt>
      <trkpt lat="43.6628" lon="-0.07783">
        <ele>119.40000152588</ele>
        <time>2020-07-06T11:43:24.000Z</time>
      </trkpt>
      <trkpt lat="43.66276" lon="-0.07785">
        <ele>119.59999847412</ele>
        <time>2020-07-06T11:43:26.000Z</time>
      </trkpt>
      <trkpt lat="43.66271" lon="-0.07786">
        <ele>119.80000305176</ele>
        <time>2020-07-06T11:43:28.000Z</time>
      </trkpt>
      <trkpt lat="43.66268" lon="-0.07792">
        <ele>120.19999694824</ele>
        <time>2020-07-06T11:43:30.000Z</time>
      </trkpt>
      <trkpt lat="43.66255" lon="-0.07808">
        <ele>120.40000152588</ele>
        <time>2020-07-06T11:43:35.000Z</time>
      </trkpt>
      <trkpt lat="43.6624" lon="-0.07814">
        <ele>120.59999847412</ele>
        <time>2020-07-06T11:43:39.000Z</time>
      </trkpt>
      <trkpt lat="43.66231" lon="-0.07837">
        <ele>120.59999847412</ele>
        <time>2020-07-06T11:43:44.000Z</time>
      </trkpt>
      <trkpt lat="43.66239" lon="-0.07854">
        <ele>120.59999847412</ele>
        <time>2020-07-06T11:43:48.000Z</time>
      </trkpt>
      <trkpt lat="43.66244" lon="-0.07858">
        <ele>120.59999847412</ele>
        <time>2020-07-06T11:43:49.000Z</time>
      </trkpt>
      <trkpt lat="43.66263" lon="-0.07877">
        <ele>120.59999847412</ele>
        <time>2020-07-06T11:43:54.000Z</time>
      </trkpt>
      <trkpt lat="43.66279" lon="-0.07889">
        <ele>120.40000152588</ele>
        <time>2020-07-06T11:43:58.000Z</time>
      </trkpt>
      <trkpt lat="43.66285" lon="-0.07896">
        <ele>120</ele>
        <time>2020-07-06T11:44:00.000Z</time>
      </trkpt>
      <trkpt lat="43.66288" lon="-0.079">
        <ele>120</ele>
        <time>2020-07-06T11:44:01.000Z</time>
      </trkpt>
      <trkpt lat="43.66294" lon="-0.07911">
        <ele>120</ele>
        <time>2020-07-06T11:44:03.000Z</time>
      </trkpt>
      <trkpt lat="43.66301" lon="-0.07923">
        <ele>120</ele>
        <time>2020-07-06T11:44:05.000Z</time>
      </trkpt>
      <trkpt lat="43.66303" lon="-0.07928">
        <ele>120</ele>
        <time>2020-07-06T11:44:06.000Z</time>
      </trkpt>
      <trkpt lat="43.66313" lon="-0.07939">
        <ele>119.80000305176</ele>
        <time>2020-07-06T11:44:08.000Z</time>
      </trkpt>
      <trkpt lat="43.66321" lon="-0.07949">
        <ele>119.80000305176</ele>
        <time>2020-07-06T11:44:10.000Z</time>
      </trkpt>
      <trkpt lat="43.66325" lon="-0.07955">
        <ele>119.59999847412</ele>
        <time>2020-07-06T11:44:11.000Z</time>
      </trkpt>
      <trkpt lat="43.66345" lon="-0.07987">
        <ele>119.19999694824</ele>
        <time>2020-07-06T11:44:16.000Z</time>
      </trkpt>
      <trkpt lat="43.66349" lon="-0.07993">
        <ele>119.19999694824</ele>
        <time>2020-07-06T11:44:17.000Z</time>
      </trkpt>
      <trkpt lat="43.6635" lon="-0.07999">
        <ele>119.19999694824</ele>
        <time>2020-07-06T11:44:19.000Z</time>
      </trkpt>
      <trkpt lat="43.6635" lon="-0.07999">
        <ele>119.19999694824</ele>
        <time>2020-07-06T11:44:22.000Z</time>
      </trkpt>
      <trkpt lat="43.6635" lon="-0.07999">
        <ele>119</ele>
        <time>2020-07-06T11:44:31.000Z</time>
      </trkpt>
      <trkpt lat="43.66351" lon="-0.08">
        <ele>119.19999694824</ele>
        <time>2020-07-06T11:45:07.000Z</time>
      </trkpt>
      <trkpt lat="43.66358" lon="-0.08015">
        <ele>119.40000152588</ele>
        <time>2020-07-06T11:45:13.000Z</time>
      </trkpt>
      <trkpt lat="43.66368" lon="-0.08037">
        <ele>119.40000152588</ele>
        <time>2020-07-06T11:45:19.000Z</time>
      </trkpt>
      <trkpt lat="43.66381" lon="-0.08061">
        <ele>119.19999694824</ele>
        <time>2020-07-06T11:45:26.000Z</time>
      </trkpt>
      <trkpt lat="43.66394" lon="-0.08083">
        <ele>119.19999694824</ele>
        <time>2020-07-06T11:45:34.000Z</time>
      </trkpt>
      <trkpt lat="43.66395" lon="-0.08086">
        <ele>119</ele>
        <time>2020-07-06T11:45:48.000Z</time>
      </trkpt>
      <trkpt lat="43.66398" lon="-0.0809">
        <ele>119.19999694824</ele>
        <time>2020-07-06T11:45:50.000Z</time>
      </trkpt>
      <trkpt lat="43.66407" lon="-0.08114">
        <ele>119.40000152588</ele>
        <time>2020-07-06T11:45:58.000Z</time>
      </trkpt>
      <trkpt lat="43.66422" lon="-0.08144">
        <ele>119.19999694824</ele>
        <time>2020-07-06T11:46:07.000Z</time>
      </trkpt>
      <trkpt lat="43.66427" lon="-0.08152">
        <ele>119</ele>
        <time>2020-07-06T11:46:11.000Z</time>
      </trkpt>
      <trkpt lat="43.66429" lon="-0.0816">
        <ele>119</ele>
        <time>2020-07-06T11:46:17.000Z</time>
      </trkpt>
      <trkpt lat="43.66435" lon="-0.0818">
        <ele>119</ele>
        <time>2020-07-06T11:46:22.000Z</time>
      </trkpt>
      <trkpt lat="43.66447" lon="-0.08209">
        <ele>118.80000305176</ele>
        <time>2020-07-06T11:46:28.000Z</time>
      </trkpt>
      <trkpt lat="43.66452" lon="-0.08225">
        <ele>118.59999847412</ele>
        <time>2020-07-06T11:46:31.000Z</time>
      </trkpt>
      <trkpt lat="43.66451" lon="-0.08235">
        <ele>118.80000305176</ele>
        <time>2020-07-06T11:46:33.000Z</time>
      </trkpt>
      <trkpt lat="43.66451" lon="-0.08261">
        <ele>118.80000305176</ele>
        <time>2020-07-06T11:46:39.000Z</time>
      </trkpt>
      <trkpt lat="43.66453" lon="-0.08274">
        <ele>119</ele>
        <time>2020-07-06T11:46:42.000Z</time>
      </trkpt>
      <trkpt lat="43.66457" lon="-0.08286">
        <ele>119</ele>
        <time>2020-07-06T11:46:44.000Z</time>
      </trkpt>
      <trkpt lat="43.6647" lon="-0.08313">
        <ele>118.40000152588</ele>
        <time>2020-07-06T11:46:49.000Z</time>
      </trkpt>
      <trkpt lat="43.66473" lon="-0.08337">
        <ele>118.80000305176</ele>
        <time>2020-07-06T11:46:53.000Z</time>
      </trkpt>
      <trkpt lat="43.66473" lon="-0.08349">
        <ele>118.80000305176</ele>
        <time>2020-07-06T11:46:55.000Z</time>
      </trkpt>
      <trkpt lat="43.66474" lon="-0.08363">
        <ele>118.80000305176</ele>
        <time>2020-07-06T11:46:57.000Z</time>
      </trkpt>
      <trkpt lat="43.66477" lon="-0.08374">
        <ele>118.80000305176</ele>
        <time>2020-07-06T11:46:59.000Z</time>
      </trkpt>
      <trkpt lat="43.66483" lon="-0.08403">
        <ele>118.80000305176</ele>
        <time>2020-07-06T11:47:05.000Z</time>
      </trkpt>
      <trkpt lat="43.6648" lon="-0.08435">
        <ele>119.59999847412</ele>
        <time>2020-07-06T11:47:10.000Z</time>
      </trkpt>
      <trkpt lat="43.66477" lon="-0.08442">
        <ele>119.59999847412</ele>
        <time>2020-07-06T11:47:11.000Z</time>
      </trkpt>
      <trkpt lat="43.66473" lon="-0.08447">
        <ele>119.59999847412</ele>
        <time>2020-07-06T11:47:12.000Z</time>
      </trkpt>
      <trkpt lat="43.66458" lon="-0.08467">
        <ele>119.59999847412</ele>
        <time>2020-07-06T11:47:16.000Z</time>
      </trkpt>
      <trkpt lat="43.66453" lon="-0.08495">
        <ele>119</ele>
        <time>2020-07-06T11:47:20.000Z</time>
      </trkpt>
      <trkpt lat="43.6645" lon="-0.08513">
        <ele>118.80000305176</ele>
        <time>2020-07-06T11:47:22.000Z</time>
      </trkpt>
      <trkpt lat="43.66446" lon="-0.08527">
        <ele>118.80000305176</ele>
        <time>2020-07-06T11:47:24.000Z</time>
      </trkpt>
      <trkpt lat="43.66444" lon="-0.08535">
        <ele>118.59999847412</ele>
        <time>2020-07-06T11:47:25.000Z</time>
      </trkpt>
      <trkpt lat="43.6644" lon="-0.08543">
        <ele>118.40000152588</ele>
        <time>2020-07-06T11:47:26.000Z</time>
      </trkpt>
      <trkpt lat="43.66432" lon="-0.08554">
        <ele>118.19999694824</ele>
        <time>2020-07-06T11:47:28.000Z</time>
      </trkpt>
      <trkpt lat="43.66428" lon="-0.08559">
        <ele>118.19999694824</ele>
        <time>2020-07-06T11:47:29.000Z</time>
      </trkpt>
      <trkpt lat="43.66415" lon="-0.08573">
        <ele>118</ele>
        <time>2020-07-06T11:47:31.000Z</time>
      </trkpt>
      <trkpt lat="43.66398" lon="-0.08592">
        <ele>117.80000305176</ele>
        <time>2020-07-06T11:47:34.000Z</time>
      </trkpt>
      <trkpt lat="43.66392" lon="-0.08608">
        <ele>117.80000305176</ele>
        <time>2020-07-06T11:47:36.000Z</time>
      </trkpt>
      <trkpt lat="43.66391" lon="-0.08615">
        <ele>117.80000305176</ele>
        <time>2020-07-06T11:47:37.000Z</time>
      </trkpt>
      <trkpt lat="43.66389" lon="-0.0863">
        <ele>117.80000305176</ele>
        <time>2020-07-06T11:47:39.000Z</time>
      </trkpt>
      <trkpt lat="43.66381" lon="-0.08645">
        <ele>117.80000305176</ele>
        <time>2020-07-06T11:47:41.000Z</time>
      </trkpt>
      <trkpt lat="43.66366" lon="-0.08658">
        <ele>117.80000305176</ele>
        <time>2020-07-06T11:47:44.000Z</time>
      </trkpt>
      <trkpt lat="43.66364" lon="-0.08662">
        <ele>117.80000305176</ele>
        <time>2020-07-06T11:47:45.000Z</time>
      </trkpt>
      <trkpt lat="43.66352" lon="-0.08679">
        <ele>117.80000305176</ele>
        <time>2020-07-06T11:47:49.000Z</time>
      </trkpt>
      <trkpt lat="43.66332" lon="-0.087">
        <ele>118.59999847412</ele>
        <time>2020-07-06T11:47:53.000Z</time>
      </trkpt>
      <trkpt lat="43.66328" lon="-0.08707">
        <ele>118.80000305176</ele>
        <time>2020-07-06T11:47:54.000Z</time>
      </trkpt>
      <trkpt lat="43.66319" lon="-0.08728">
        <ele>118.80000305176</ele>
        <time>2020-07-06T11:47:57.000Z</time>
      </trkpt>
      <trkpt lat="43.66315" lon="-0.08734">
        <ele>118.80000305176</ele>
        <time>2020-07-06T11:47:58.000Z</time>
      </trkpt>
      <trkpt lat="43.66311" lon="-0.0874">
        <ele>118.80000305176</ele>
        <time>2020-07-06T11:47:59.000Z</time>
      </trkpt>
      <trkpt lat="43.66302" lon="-0.08753">
        <ele>118.80000305176</ele>
        <time>2020-07-06T11:48:02.000Z</time>
      </trkpt>
      <trkpt lat="43.66284" lon="-0.08786">
        <ele>118.59999847412</ele>
        <time>2020-07-06T11:48:07.000Z</time>
      </trkpt>
      <trkpt lat="43.6627" lon="-0.08819">
        <ele>118.40000152588</ele>
        <time>2020-07-06T11:48:12.000Z</time>
      </trkpt>
      <trkpt lat="43.66259" lon="-0.0884">
        <ele>118.59999847412</ele>
        <time>2020-07-06T11:48:15.000Z</time>
      </trkpt>
      <trkpt lat="43.66257" lon="-0.08846">
        <ele>118.59999847412</ele>
        <time>2020-07-06T11:48:16.000Z</time>
      </trkpt>
      <trkpt lat="43.66255" lon="-0.08854">
        <ele>118.59999847412</ele>
        <time>2020-07-06T11:48:17.000Z</time>
      </trkpt>
      <trkpt lat="43.66248" lon="-0.08875">
        <ele>118.59999847412</ele>
        <time>2020-07-06T11:48:19.000Z</time>
      </trkpt>
      <trkpt lat="43.66248" lon="-0.08889">
        <ele>118.59999847412</ele>
        <time>2020-07-06T11:48:21.000Z</time>
      </trkpt>
      <trkpt lat="43.66247" lon="-0.08898">
        <ele>118.59999847412</ele>
        <time>2020-07-06T11:48:22.000Z</time>
      </trkpt>
      <trkpt lat="43.66239" lon="-0.08915">
        <ele>118.59999847412</ele>
        <time>2020-07-06T11:48:24.000Z</time>
      </trkpt>
      <trkpt lat="43.66227" lon="-0.08931">
        <ele>118.59999847412</ele>
        <time>2020-07-06T11:48:27.000Z</time>
      </trkpt>
      <trkpt lat="43.66224" lon="-0.08946">
        <ele>118.59999847412</ele>
        <time>2020-07-06T11:48:29.000Z</time>
      </trkpt>
      <trkpt lat="43.66217" lon="-0.08978">
        <ele>118.40000152588</ele>
        <time>2020-07-06T11:48:33.000Z</time>
      </trkpt>
      <trkpt lat="43.66207" lon="-0.09009">
        <ele>118.40000152588</ele>
        <time>2020-07-06T11:48:37.000Z</time>
      </trkpt>
      <trkpt lat="43.66208" lon="-0.09016">
        <ele>118.40000152588</ele>
        <time>2020-07-06T11:48:38.000Z</time>
      </trkpt>
      <trkpt lat="43.6621" lon="-0.09022">
        <ele>118.19999694824</ele>
        <time>2020-07-06T11:48:39.000Z</time>
      </trkpt>
      <trkpt lat="43.66215" lon="-0.09032">
        <ele>118.19999694824</ele>
        <time>2020-07-06T11:48:41.000Z</time>
      </trkpt>
      <trkpt lat="43.66215" lon="-0.09047">
        <ele>118.19999694824</ele>
        <time>2020-07-06T11:48:43.000Z</time>
      </trkpt>
      <trkpt lat="43.66214" lon="-0.09062">
        <ele>118</ele>
        <time>2020-07-06T11:48:45.000Z</time>
      </trkpt>
      <trkpt lat="43.66218" lon="-0.09076">
        <ele>118</ele>
        <time>2020-07-06T11:48:47.000Z</time>
      </trkpt>
      <trkpt lat="43.66221" lon="-0.09089">
        <ele>118</ele>
        <time>2020-07-06T11:48:49.000Z</time>
      </trkpt>
      <trkpt lat="43.66221" lon="-0.09094">
        <ele>118</ele>
        <time>2020-07-06T11:48:50.000Z</time>
      </trkpt>
      <trkpt lat="43.66222" lon="-0.09101">
        <ele>118</ele>
        <time>2020-07-06T11:48:51.000Z</time>
      </trkpt>
      <trkpt lat="43.66223" lon="-0.09117">
        <ele>118</ele>
        <time>2020-07-06T11:48:53.000Z</time>
      </trkpt>
      <trkpt lat="43.66221" lon="-0.09131">
        <ele>118</ele>
        <time>2020-07-06T11:48:55.000Z</time>
      </trkpt>
      <trkpt lat="43.66221" lon="-0.0914">
        <ele>117.80000305176</ele>
        <time>2020-07-06T11:48:56.000Z</time>
      </trkpt>
      <trkpt lat="43.66222" lon="-0.09148">
        <ele>118</ele>
        <time>2020-07-06T11:48:57.000Z</time>
      </trkpt>
      <trkpt lat="43.66224" lon="-0.09171">
        <ele>117.80000305176</ele>
        <time>2020-07-06T11:49:00.000Z</time>
      </trkpt>
      <trkpt lat="43.66228" lon="-0.09201">
        <ele>117.19999694824</ele>
        <time>2020-07-06T11:49:03.000Z</time>
      </trkpt>
      <trkpt lat="43.66228" lon="-0.09208">
        <ele>117.19999694824</ele>
        <time>2020-07-06T11:49:04.000Z</time>
      </trkpt>
      <trkpt lat="43.66224" lon="-0.09215">
        <ele>117.19999694824</ele>
        <time>2020-07-06T11:49:05.000Z</time>
      </trkpt>
      <trkpt lat="43.6622" lon="-0.09223">
        <ele>117.19999694824</ele>
        <time>2020-07-06T11:49:06.000Z</time>
      </trkpt>
      <trkpt lat="43.66217" lon="-0.09231">
        <ele>117.40000152588</ele>
        <time>2020-07-06T11:49:07.000Z</time>
      </trkpt>
      <trkpt lat="43.66216" lon="-0.09249">
        <ele>117.40000152588</ele>
        <time>2020-07-06T11:49:09.000Z</time>
      </trkpt>
      <trkpt lat="43.66221" lon="-0.09268">
        <ele>117.59999847412</ele>
        <time>2020-07-06T11:49:11.000Z</time>
      </trkpt>
      <trkpt lat="43.66225" lon="-0.09285">
        <ele>117.59999847412</ele>
        <time>2020-07-06T11:49:13.000Z</time>
      </trkpt>
      <trkpt lat="43.66228" lon="-0.09292">
        <ele>117.59999847412</ele>
        <time>2020-07-06T11:49:14.000Z</time>
      </trkpt>
      <trkpt lat="43.66234" lon="-0.0931">
        <ele>117.40000152588</ele>
        <time>2020-07-06T11:49:16.000Z</time>
      </trkpt>
      <trkpt lat="43.66238" lon="-0.09332">
        <ele>117.40000152588</ele>
        <time>2020-07-06T11:49:18.000Z</time>
      </trkpt>
      <trkpt lat="43.6624" lon="-0.09339">
        <ele>117.19999694824</ele>
        <time>2020-07-06T11:49:19.000Z</time>
      </trkpt>
      <trkpt lat="43.66244" lon="-0.09356">
        <ele>117</ele>
        <time>2020-07-06T11:49:21.000Z</time>
      </trkpt>
      <trkpt lat="43.66247" lon="-0.09363">
        <ele>116.80000305176</ele>
        <time>2020-07-06T11:49:22.000Z</time>
      </trkpt>
      <trkpt lat="43.66249" lon="-0.09369">
        <ele>116.80000305176</ele>
        <time>2020-07-06T11:49:23.000Z</time>
      </trkpt>
      <trkpt lat="43.66256" lon="-0.09388">
        <ele>116.59999847412</ele>
        <time>2020-07-06T11:49:25.000Z</time>
      </trkpt>
      <trkpt lat="43.66261" lon="-0.09409">
        <ele>116.40000152588</ele>
        <time>2020-07-06T11:49:27.000Z</time>
      </trkpt>
      <trkpt lat="43.66262" lon="-0.09418">
        <ele>116.59999847412</ele>
        <time>2020-07-06T11:49:28.000Z</time>
      </trkpt>
      <trkpt lat="43.6626" lon="-0.09427">
        <ele>116.59999847412</ele>
        <time>2020-07-06T11:49:29.000Z</time>
      </trkpt>
      <trkpt lat="43.6626" lon="-0.0946">
        <ele>116.59999847412</ele>
        <time>2020-07-06T11:49:32.000Z</time>
      </trkpt>
      <trkpt lat="43.66267" lon="-0.09477">
        <ele>116.59999847412</ele>
        <time>2020-07-06T11:49:34.000Z</time>
      </trkpt>
      <trkpt lat="43.66274" lon="-0.09493">
        <ele>116.59999847412</ele>
        <time>2020-07-06T11:49:36.000Z</time>
      </trkpt>
      <trkpt lat="43.66279" lon="-0.09515">
        <ele>116.80000305176</ele>
        <time>2020-07-06T11:49:39.000Z</time>
      </trkpt>
      <trkpt lat="43.66282" lon="-0.09524">
        <ele>116.59999847412</ele>
        <time>2020-07-06T11:49:40.000Z</time>
      </trkpt>
      <trkpt lat="43.66294" lon="-0.09558">
        <ele>116.80000305176</ele>
        <time>2020-07-06T11:49:44.000Z</time>
      </trkpt>
      <trkpt lat="43.66298" lon="-0.09565">
        <ele>116.59999847412</ele>
        <time>2020-07-06T11:49:45.000Z</time>
      </trkpt>
      <trkpt lat="43.66306" lon="-0.09576">
        <ele>116.59999847412</ele>
        <time>2020-07-06T11:49:47.000Z</time>
      </trkpt>
      <trkpt lat="43.66312" lon="-0.09592">
        <ele>116.59999847412</ele>
        <time>2020-07-06T11:49:49.000Z</time>
      </trkpt>
      <trkpt lat="43.66322" lon="-0.09613">
        <ele>117</ele>
        <time>2020-07-06T11:49:52.000Z</time>
      </trkpt>
      <trkpt lat="43.66326" lon="-0.09619">
        <ele>117</ele>
        <time>2020-07-06T11:49:53.000Z</time>
      </trkpt>
      <trkpt lat="43.6635" lon="-0.09664">
        <ele>116.80000305176</ele>
        <time>2020-07-06T11:49:59.000Z</time>
      </trkpt>
      <trkpt lat="43.6636" lon="-0.09672">
        <ele>116.80000305176</ele>
        <time>2020-07-06T11:50:01.000Z</time>
      </trkpt>
      <trkpt lat="43.66365" lon="-0.09674">
        <ele>116.80000305176</ele>
        <time>2020-07-06T11:50:02.000Z</time>
      </trkpt>
      <trkpt lat="43.66382" lon="-0.09678">
        <ele>116.80000305176</ele>
        <time>2020-07-06T11:50:05.000Z</time>
      </trkpt>
      <trkpt lat="43.66392" lon="-0.0968">
        <ele>116.80000305176</ele>
        <time>2020-07-06T11:50:07.000Z</time>
      </trkpt>
      <trkpt lat="43.66399" lon="-0.09679">
        <ele>116.80000305176</ele>
        <time>2020-07-06T11:50:08.000Z</time>
      </trkpt>
      <trkpt lat="43.66406" lon="-0.09679">
        <ele>116.80000305176</ele>
        <time>2020-07-06T11:50:09.000Z</time>
      </trkpt>
      <trkpt lat="43.66419" lon="-0.09681">
        <ele>117</ele>
        <time>2020-07-06T11:50:11.000Z</time>
      </trkpt>
      <trkpt lat="43.66424" lon="-0.09684">
        <ele>117</ele>
        <time>2020-07-06T11:50:12.000Z</time>
      </trkpt>
      <trkpt lat="43.66446" lon="-0.09701">
        <ele>116.59999847412</ele>
        <time>2020-07-06T11:50:16.000Z</time>
      </trkpt>
      <trkpt lat="43.6645" lon="-0.09708">
        <ele>116.59999847412</ele>
        <time>2020-07-06T11:50:17.000Z</time>
      </trkpt>
      <trkpt lat="43.66453" lon="-0.09716">
        <ele>116.59999847412</ele>
        <time>2020-07-06T11:50:18.000Z</time>
      </trkpt>
      <trkpt lat="43.66465" lon="-0.09747">
        <ele>116.59999847412</ele>
        <time>2020-07-06T11:50:22.000Z</time>
      </trkpt>
      <trkpt lat="43.66468" lon="-0.09755">
        <ele>116.59999847412</ele>
        <time>2020-07-06T11:50:23.000Z</time>
      </trkpt>
      <trkpt lat="43.66477" lon="-0.09768">
        <ele>116.19999694824</ele>
        <time>2020-07-06T11:50:25.000Z</time>
      </trkpt>
      <trkpt lat="43.66483" lon="-0.09775">
        <ele>116</ele>
        <time>2020-07-06T11:50:26.000Z</time>
      </trkpt>
      <trkpt lat="43.66489" lon="-0.09779">
        <ele>115.80000305176</ele>
        <time>2020-07-06T11:50:27.000Z</time>
      </trkpt>
      <trkpt lat="43.665" lon="-0.09782">
        <ele>115.80000305176</ele>
        <time>2020-07-06T11:50:29.000Z</time>
      </trkpt>
      <trkpt lat="43.66512" lon="-0.09787">
        <ele>115.80000305176</ele>
        <time>2020-07-06T11:50:31.000Z</time>
      </trkpt>
      <trkpt lat="43.66518" lon="-0.09791">
        <ele>115.80000305176</ele>
        <time>2020-07-06T11:50:32.000Z</time>
      </trkpt>
      <trkpt lat="43.66534" lon="-0.09804">
        <ele>115.59999847412</ele>
        <time>2020-07-06T11:50:35.000Z</time>
      </trkpt>
      <trkpt lat="43.66543" lon="-0.09809">
        <ele>115.80000305176</ele>
        <time>2020-07-06T11:50:37.000Z</time>
      </trkpt>
      <trkpt lat="43.66551" lon="-0.09818">
        <ele>116.19999694824</ele>
        <time>2020-07-06T11:50:39.000Z</time>
      </trkpt>
      <trkpt lat="43.66552" lon="-0.09826">
        <ele>116.19999694824</ele>
        <time>2020-07-06T11:50:40.000Z</time>
      </trkpt>
      <trkpt lat="43.66554" lon="-0.09834">
        <ele>116.19999694824</ele>
        <time>2020-07-06T11:50:41.000Z</time>
      </trkpt>
      <trkpt lat="43.6656" lon="-0.09848">
        <ele>116.19999694824</ele>
        <time>2020-07-06T11:50:43.000Z</time>
      </trkpt>
      <trkpt lat="43.66569" lon="-0.09859">
        <ele>116</ele>
        <time>2020-07-06T11:50:45.000Z</time>
      </trkpt>
      <trkpt lat="43.66578" lon="-0.09869">
        <ele>116.19999694824</ele>
        <time>2020-07-06T11:50:47.000Z</time>
      </trkpt>
      <trkpt lat="43.66588" lon="-0.09873">
        <ele>116.19999694824</ele>
        <time>2020-07-06T11:50:49.000Z</time>
      </trkpt>
      <trkpt lat="43.66599" lon="-0.09876">
        <ele>116.19999694824</ele>
        <time>2020-07-06T11:50:51.000Z</time>
      </trkpt>
      <trkpt lat="43.6661" lon="-0.09884">
        <ele>116</ele>
        <time>2020-07-06T11:50:53.000Z</time>
      </trkpt>
      <trkpt lat="43.66618" lon="-0.09897">
        <ele>116.19999694824</ele>
        <time>2020-07-06T11:50:55.000Z</time>
      </trkpt>
      <trkpt lat="43.66616" lon="-0.09912">
        <ele>116.19999694824</ele>
        <time>2020-07-06T11:50:57.000Z</time>
      </trkpt>
      <trkpt lat="43.66615" lon="-0.09918">
        <ele>116.19999694824</ele>
        <time>2020-07-06T11:50:58.000Z</time>
      </trkpt>
      <trkpt lat="43.66613" lon="-0.09929">
        <ele>116.19999694824</ele>
        <time>2020-07-06T11:50:59.000Z</time>
      </trkpt>
      <trkpt lat="43.66613" lon="-0.09955">
        <ele>115.40000152588</ele>
        <time>2020-07-06T11:51:02.000Z</time>
      </trkpt>
      <trkpt lat="43.66615" lon="-0.09961">
        <ele>115.40000152588</ele>
        <time>2020-07-06T11:51:03.000Z</time>
      </trkpt>
      <trkpt lat="43.6662" lon="-0.09966">
        <ele>115.59999847412</ele>
        <time>2020-07-06T11:51:04.000Z</time>
      </trkpt>
      <trkpt lat="43.66629" lon="-0.0997">
        <ele>115.59999847412</ele>
        <time>2020-07-06T11:51:06.000Z</time>
      </trkpt>
      <trkpt lat="43.66635" lon="-0.09979">
        <ele>115.19999694824</ele>
        <time>2020-07-06T11:51:08.000Z</time>
      </trkpt>
      <trkpt lat="43.66651" lon="-0.09998">
        <ele>115.80000305176</ele>
        <time>2020-07-06T11:51:13.000Z</time>
      </trkpt>
      <trkpt lat="43.66667" lon="-0.10014">
        <ele>116</ele>
        <time>2020-07-06T11:51:17.000Z</time>
      </trkpt>
      <trkpt lat="43.66673" lon="-0.10028">
        <ele>116</ele>
        <time>2020-07-06T11:51:19.000Z</time>
      </trkpt>
      <trkpt lat="43.66679" lon="-0.10042">
        <ele>116</ele>
        <time>2020-07-06T11:51:21.000Z</time>
      </trkpt>
      <trkpt lat="43.66682" lon="-0.10049">
        <ele>116</ele>
        <time>2020-07-06T11:51:22.000Z</time>
      </trkpt>
      <trkpt lat="43.66687" lon="-0.10054">
        <ele>116</ele>
        <time>2020-07-06T11:51:23.000Z</time>
      </trkpt>
      <trkpt lat="43.66703" lon="-0.10067">
        <ele>116</ele>
        <time>2020-07-06T11:51:26.000Z</time>
      </trkpt>
      <trkpt lat="43.66711" lon="-0.1008">
        <ele>116</ele>
        <time>2020-07-06T11:51:28.000Z</time>
      </trkpt>
      <trkpt lat="43.66717" lon="-0.10093">
        <ele>116</ele>
        <time>2020-07-06T11:51:30.000Z</time>
      </trkpt>
      <trkpt lat="43.66718" lon="-0.101">
        <ele>116</ele>
        <time>2020-07-06T11:51:31.000Z</time>
      </trkpt>
      <trkpt lat="43.6672" lon="-0.10114">
        <ele>115.40000152588</ele>
        <time>2020-07-06T11:51:33.000Z</time>
      </trkpt>
      <trkpt lat="43.66728" lon="-0.10132">
        <ele>115.59999847412</ele>
        <time>2020-07-06T11:51:36.000Z</time>
      </trkpt>
      <trkpt lat="43.6673" lon="-0.10137">
        <ele>115.40000152588</ele>
        <time>2020-07-06T11:51:37.000Z</time>
      </trkpt>
      <trkpt lat="43.6673" lon="-0.10144">
        <ele>115.59999847412</ele>
        <time>2020-07-06T11:51:38.000Z</time>
      </trkpt>
      <trkpt lat="43.66729" lon="-0.1016">
        <ele>115.59999847412</ele>
        <time>2020-07-06T11:51:40.000Z</time>
      </trkpt>
      <trkpt lat="43.66728" lon="-0.10194">
        <ele>115.80000305176</ele>
        <time>2020-07-06T11:51:44.000Z</time>
      </trkpt>
      <trkpt lat="43.66726" lon="-0.1021">
        <ele>115.80000305176</ele>
        <time>2020-07-06T11:51:46.000Z</time>
      </trkpt>
      <trkpt lat="43.66716" lon="-0.10256">
        <ele>115.59999847412</ele>
        <time>2020-07-06T11:51:52.000Z</time>
      </trkpt>
      <trkpt lat="43.66707" lon="-0.10286">
        <ele>115.40000152588</ele>
        <time>2020-07-06T11:51:56.000Z</time>
      </trkpt>
      <trkpt lat="43.66704" lon="-0.10309">
        <ele>115.40000152588</ele>
        <time>2020-07-06T11:51:59.000Z</time>
      </trkpt>
      <trkpt lat="43.66702" lon="-0.10316">
        <ele>115.40000152588</ele>
        <time>2020-07-06T11:52:00.000Z</time>
      </trkpt>
      <trkpt lat="43.6669" lon="-0.10344">
        <ele>115.80000305176</ele>
        <time>2020-07-06T11:52:04.000Z</time>
      </trkpt>
      <trkpt lat="43.66666" lon="-0.10376">
        <ele>115.59999847412</ele>
        <time>2020-07-06T11:52:10.000Z</time>
      </trkpt>
      <trkpt lat="43.66637" lon="-0.10412">
        <ele>115.59999847412</ele>
        <time>2020-07-06T11:52:17.000Z</time>
      </trkpt>
      <trkpt lat="43.66632" lon="-0.10416">
        <ele>115.80000305176</ele>
        <time>2020-07-06T11:52:18.000Z</time>
      </trkpt>
      <trkpt lat="43.66621" lon="-0.10419">
        <ele>115.40000152588</ele>
        <time>2020-07-06T11:52:20.000Z</time>
      </trkpt>
      <trkpt lat="43.66603" lon="-0.1042">
        <ele>115.40000152588</ele>
        <time>2020-07-06T11:52:23.000Z</time>
      </trkpt>
      <trkpt lat="43.66576" lon="-0.10417">
        <ele>115.40000152588</ele>
        <time>2020-07-06T11:52:28.000Z</time>
      </trkpt>
      <trkpt lat="43.66565" lon="-0.10417">
        <ele>115.59999847412</ele>
        <time>2020-07-06T11:52:30.000Z</time>
      </trkpt>
      <trkpt lat="43.66538" lon="-0.10428">
        <ele>116.19999694824</ele>
        <time>2020-07-06T11:52:35.000Z</time>
      </trkpt>
      <trkpt lat="43.66533" lon="-0.10431">
        <ele>116</ele>
        <time>2020-07-06T11:52:36.000Z</time>
      </trkpt>
      <trkpt lat="43.66514" lon="-0.10446">
        <ele>116</ele>
        <time>2020-07-06T11:52:40.000Z</time>
      </trkpt>
      <trkpt lat="43.66509" lon="-0.10449">
        <ele>116</ele>
        <time>2020-07-06T11:52:41.000Z</time>
      </trkpt>
      <trkpt lat="43.6649" lon="-0.10464">
        <ele>116.19999694824</ele>
        <time>2020-07-06T11:52:45.000Z</time>
      </trkpt>
      <trkpt lat="43.6648" lon="-0.10473">
        <ele>116.40000152588</ele>
        <time>2020-07-06T11:52:47.000Z</time>
      </trkpt>
      <trkpt lat="43.6647" lon="-0.10482">
        <ele>116.40000152588</ele>
        <time>2020-07-06T11:52:49.000Z</time>
      </trkpt>
      <trkpt lat="43.66456" lon="-0.10493">
        <ele>116.19999694824</ele>
        <time>2020-07-06T11:52:52.000Z</time>
      </trkpt>
      <trkpt lat="43.66451" lon="-0.10497">
        <ele>116</ele>
        <time>2020-07-06T11:52:53.000Z</time>
      </trkpt>
      <trkpt lat="43.66442" lon="-0.10504">
        <ele>116</ele>
        <time>2020-07-06T11:52:55.000Z</time>
      </trkpt>
      <trkpt lat="43.66431" lon="-0.10517">
        <ele>115.80000305176</ele>
        <time>2020-07-06T11:52:58.000Z</time>
      </trkpt>
      <trkpt lat="43.66427" lon="-0.10522">
        <ele>115.80000305176</ele>
        <time>2020-07-06T11:52:59.000Z</time>
      </trkpt>
      <trkpt lat="43.6641" lon="-0.10538">
        <ele>116.59999847412</ele>
        <time>2020-07-06T11:53:03.000Z</time>
      </trkpt>
      <trkpt lat="43.66393" lon="-0.10559">
        <ele>116.19999694824</ele>
        <time>2020-07-06T11:53:07.000Z</time>
      </trkpt>
      <trkpt lat="43.66388" lon="-0.10568">
        <ele>116.40000152588</ele>
        <time>2020-07-06T11:53:09.000Z</time>
      </trkpt>
      <trkpt lat="43.66391" lon="-0.10581">
        <ele>116</ele>
        <time>2020-07-06T11:53:11.000Z</time>
      </trkpt>
      <trkpt lat="43.66394" lon="-0.10587">
        <ele>115.80000305176</ele>
        <time>2020-07-06T11:53:12.000Z</time>
      </trkpt>
      <trkpt lat="43.66398" lon="-0.10593">
        <ele>115.80000305176</ele>
        <time>2020-07-06T11:53:13.000Z</time>
      </trkpt>
      <trkpt lat="43.66408" lon="-0.106">
        <ele>115.59999847412</ele>
        <time>2020-07-06T11:53:15.000Z</time>
      </trkpt>
      <trkpt lat="43.66413" lon="-0.10602">
        <ele>115.59999847412</ele>
        <time>2020-07-06T11:53:16.000Z</time>
      </trkpt>
      <trkpt lat="43.66422" lon="-0.10605">
        <ele>115.59999847412</ele>
        <time>2020-07-06T11:53:18.000Z</time>
      </trkpt>
      <trkpt lat="43.6643" lon="-0.10602">
        <ele>115.59999847412</ele>
        <time>2020-07-06T11:53:20.000Z</time>
      </trkpt>
      <trkpt lat="43.6643" lon="-0.106">
        <ele>115.80000305176</ele>
        <time>2020-07-06T11:53:23.000Z</time>
      </trkpt>
      <trkpt lat="43.66428" lon="-0.10603">
        <ele>116.59999847412</ele>
        <time>2020-07-06T11:53:29.000Z</time>
      </trkpt>
      <trkpt lat="43.66421" lon="-0.10614">
        <ele>116.80000305176</ele>
        <time>2020-07-06T11:53:33.000Z</time>
      </trkpt>
      <trkpt lat="43.66418" lon="-0.10618">
        <ele>116.80000305176</ele>
        <time>2020-07-06T11:53:34.000Z</time>
      </trkpt>
      <trkpt lat="43.66407" lon="-0.10638">
        <ele>116.59999847412</ele>
        <time>2020-07-06T11:53:38.000Z</time>
      </trkpt>
      <trkpt lat="43.66404" lon="-0.10643">
        <ele>116.80000305176</ele>
        <time>2020-07-06T11:53:39.000Z</time>
      </trkpt>
      <trkpt lat="43.66381" lon="-0.1067">
        <ele>115.80000305176</ele>
        <time>2020-07-06T11:53:45.000Z</time>
      </trkpt>
      <trkpt lat="43.66375" lon="-0.10687">
        <ele>115.59999847412</ele>
        <time>2020-07-06T11:53:48.000Z</time>
      </trkpt>
      <trkpt lat="43.6637" lon="-0.10696">
        <ele>115.80000305176</ele>
        <time>2020-07-06T11:53:50.000Z</time>
      </trkpt>
      <trkpt lat="43.66362" lon="-0.10703">
        <ele>116</ele>
        <time>2020-07-06T11:53:52.000Z</time>
      </trkpt>
      <trkpt lat="43.66353" lon="-0.10714">
        <ele>116.19999694824</ele>
        <time>2020-07-06T11:53:54.000Z</time>
      </trkpt>
      <trkpt lat="43.66348" lon="-0.10719">
        <ele>116.19999694824</ele>
        <time>2020-07-06T11:53:55.000Z</time>
      </trkpt>
      <trkpt lat="43.66343" lon="-0.10725">
        <ele>116.19999694824</ele>
        <time>2020-07-06T11:53:56.000Z</time>
      </trkpt>
      <trkpt lat="43.66336" lon="-0.10734">
        <ele>116.19999694824</ele>
        <time>2020-07-06T11:53:58.000Z</time>
      </trkpt>
      <trkpt lat="43.66332" lon="-0.1074">
        <ele>116.19999694824</ele>
        <time>2020-07-06T11:53:59.000Z</time>
      </trkpt>
      <trkpt lat="43.66321" lon="-0.10753">
        <ele>116</ele>
        <time>2020-07-06T11:54:01.000Z</time>
      </trkpt>
      <trkpt lat="43.66306" lon="-0.1077">
        <ele>115.80000305176</ele>
        <time>2020-07-06T11:54:04.000Z</time>
      </trkpt>
      <trkpt lat="43.66298" lon="-0.1078">
        <ele>115.80000305176</ele>
        <time>2020-07-06T11:54:06.000Z</time>
      </trkpt>
      <trkpt lat="43.66287" lon="-0.10794">
        <ele>115.59999847412</ele>
        <time>2020-07-06T11:54:09.000Z</time>
      </trkpt>
      <trkpt lat="43.66266" lon="-0.10821">
        <ele>115.59999847412</ele>
        <time>2020-07-06T11:54:13.000Z</time>
      </trkpt>
      <trkpt lat="43.66261" lon="-0.10827">
        <ele>115.59999847412</ele>
        <time>2020-07-06T11:54:14.000Z</time>
      </trkpt>
      <trkpt lat="43.66251" lon="-0.10833">
        <ele>115.59999847412</ele>
        <time>2020-07-06T11:54:16.000Z</time>
      </trkpt>
      <trkpt lat="43.66233" lon="-0.10839">
        <ele>115.59999847412</ele>
        <time>2020-07-06T11:54:19.000Z</time>
      </trkpt>
      <trkpt lat="43.66215" lon="-0.10844">
        <ele>115.40000152588</ele>
        <time>2020-07-06T11:54:22.000Z</time>
      </trkpt>
      <trkpt lat="43.66205" lon="-0.10851">
        <ele>115.59999847412</ele>
        <time>2020-07-06T11:54:24.000Z</time>
      </trkpt>
      <trkpt lat="43.66195" lon="-0.1086">
        <ele>115.59999847412</ele>
        <time>2020-07-06T11:54:26.000Z</time>
      </trkpt>
      <trkpt lat="43.66185" lon="-0.10869">
        <ele>115.59999847412</ele>
        <time>2020-07-06T11:54:28.000Z</time>
      </trkpt>
      <trkpt lat="43.66181" lon="-0.10874">
        <ele>115.59999847412</ele>
        <time>2020-07-06T11:54:29.000Z</time>
      </trkpt>
      <trkpt lat="43.6616" lon="-0.10909">
        <ele>115.19999694824</ele>
        <time>2020-07-06T11:54:35.000Z</time>
      </trkpt>
      <trkpt lat="43.6615" lon="-0.10925">
        <ele>115.19999694824</ele>
        <time>2020-07-06T11:54:38.000Z</time>
      </trkpt>
      <trkpt lat="43.66144" lon="-0.10937">
        <ele>115.19999694824</ele>
        <time>2020-07-06T11:54:40.000Z</time>
      </trkpt>
      <trkpt lat="43.6613" lon="-0.1095">
        <ele>115.19999694824</ele>
        <time>2020-07-06T11:54:44.000Z</time>
      </trkpt>
      <trkpt lat="43.66121" lon="-0.1095">
        <ele>115.19999694824</ele>
        <time>2020-07-06T11:54:46.000Z</time>
      </trkpt>
      <trkpt lat="43.66107" lon="-0.10948">
        <ele>114.80000305176</ele>
        <time>2020-07-06T11:54:49.000Z</time>
      </trkpt>
      <trkpt lat="43.66099" lon="-0.10947">
        <ele>115.19999694824</ele>
        <time>2020-07-06T11:54:51.000Z</time>
      </trkpt>
      <trkpt lat="43.66092" lon="-0.10951">
        <ele>115.19999694824</ele>
        <time>2020-07-06T11:54:53.000Z</time>
      </trkpt>
      <trkpt lat="43.66089" lon="-0.10953">
        <ele>115.19999694824</ele>
        <time>2020-07-06T11:54:54.000Z</time>
      </trkpt>
      <trkpt lat="43.66079" lon="-0.10954">
        <ele>115.40000152588</ele>
        <time>2020-07-06T11:54:57.000Z</time>
      </trkpt>
      <trkpt lat="43.66075" lon="-0.10955">
        <ele>115.80000305176</ele>
        <time>2020-07-06T11:54:58.000Z</time>
      </trkpt>
      <trkpt lat="43.66064" lon="-0.10958">
        <ele>115.80000305176</ele>
        <time>2020-07-06T11:55:01.000Z</time>
      </trkpt>
      <trkpt lat="43.66039" lon="-0.10964">
        <ele>115.80000305176</ele>
        <time>2020-07-06T11:55:07.000Z</time>
      </trkpt>
      <trkpt lat="43.66025" lon="-0.10968">
        <ele>115.80000305176</ele>
        <time>2020-07-06T11:55:11.000Z</time>
      </trkpt>
      <trkpt lat="43.66017" lon="-0.10987">
        <ele>115.80000305176</ele>
        <time>2020-07-06T11:55:15.000Z</time>
      </trkpt>
      <trkpt lat="43.66" lon="-0.11004">
        <ele>115.59999847412</ele>
        <time>2020-07-06T11:55:19.000Z</time>
      </trkpt>
      <trkpt lat="43.65974" lon="-0.11012">
        <ele>115.40000152588</ele>
        <time>2020-07-06T11:55:25.000Z</time>
      </trkpt>
      <trkpt lat="43.65972" lon="-0.11015">
        <ele>115.40000152588</ele>
        <time>2020-07-06T11:55:26.000Z</time>
      </trkpt>
      <trkpt lat="43.65971" lon="-0.11023">
        <ele>115.19999694824</ele>
        <time>2020-07-06T11:55:28.000Z</time>
      </trkpt>
      <trkpt lat="43.65976" lon="-0.11038">
        <ele>115.40000152588</ele>
        <time>2020-07-06T11:55:32.000Z</time>
      </trkpt>
      <trkpt lat="43.65981" lon="-0.11062">
        <ele>115.59999847412</ele>
        <time>2020-07-06T11:55:36.000Z</time>
      </trkpt>
      <trkpt lat="43.65983" lon="-0.11068">
        <ele>115.59999847412</ele>
        <time>2020-07-06T11:55:37.000Z</time>
      </trkpt>
      <trkpt lat="43.6599" lon="-0.11078">
        <ele>115.59999847412</ele>
        <time>2020-07-06T11:55:39.000Z</time>
      </trkpt>
      <trkpt lat="43.66001" lon="-0.11094">
        <ele>115.59999847412</ele>
        <time>2020-07-06T11:55:42.000Z</time>
      </trkpt>
      <trkpt lat="43.66013" lon="-0.1112">
        <ele>115.19999694824</ele>
        <time>2020-07-06T11:55:46.000Z</time>
      </trkpt>
      <trkpt lat="43.66015" lon="-0.11126">
        <ele>115</ele>
        <time>2020-07-06T11:55:47.000Z</time>
      </trkpt>
      <trkpt lat="43.66019" lon="-0.11131">
        <ele>115</ele>
        <time>2020-07-06T11:55:48.000Z</time>
      </trkpt>
      <trkpt lat="43.66028" lon="-0.11149">
        <ele>114.59999847412</ele>
        <time>2020-07-06T11:55:51.000Z</time>
      </trkpt>
      <trkpt lat="43.66042" lon="-0.11177">
        <ele>114.40000152588</ele>
        <time>2020-07-06T11:55:55.000Z</time>
      </trkpt>
      <trkpt lat="43.66048" lon="-0.11192">
        <ele>114.59999847412</ele>
        <time>2020-07-06T11:55:57.000Z</time>
      </trkpt>
      <trkpt lat="43.66054" lon="-0.11217">
        <ele>114.59999847412</ele>
        <time>2020-07-06T11:56:00.000Z</time>
      </trkpt>
      <trkpt lat="43.66058" lon="-0.11223">
        <ele>114.59999847412</ele>
        <time>2020-07-06T11:56:01.000Z</time>
      </trkpt>
      <trkpt lat="43.66077" lon="-0.11265">
        <ele>114.40000152588</ele>
        <time>2020-07-06T11:56:07.000Z</time>
      </trkpt>
      <trkpt lat="43.66081" lon="-0.11273">
        <ele>114.40000152588</ele>
        <time>2020-07-06T11:56:08.000Z</time>
      </trkpt>
      <trkpt lat="43.66087" lon="-0.11285">
        <ele>114.19999694824</ele>
        <time>2020-07-06T11:56:10.000Z</time>
      </trkpt>
      <trkpt lat="43.66089" lon="-0.11288">
        <ele>114.19999694824</ele>
        <time>2020-07-06T11:56:12.000Z</time>
      </trkpt>
      <trkpt lat="43.66091" lon="-0.11293">
        <ele>114.59999847412</ele>
        <time>2020-07-06T11:56:21.000Z</time>
      </trkpt>
      <trkpt lat="43.66093" lon="-0.11298">
        <ele>114.59999847412</ele>
        <time>2020-07-06T11:56:23.000Z</time>
      </trkpt>
      <trkpt lat="43.66093" lon="-0.11302">
        <ele>114.40000152588</ele>
        <time>2020-07-06T11:56:28.000Z</time>
      </trkpt>
      <trkpt lat="43.66096" lon="-0.11316">
        <ele>114.80000305176</ele>
        <time>2020-07-06T11:56:32.000Z</time>
      </trkpt>
      <trkpt lat="43.66095" lon="-0.11319">
        <ele>115</ele>
        <time>2020-07-06T11:56:33.000Z</time>
      </trkpt>
      <trkpt lat="43.66088" lon="-0.11327">
        <ele>115</ele>
        <time>2020-07-06T11:56:36.000Z</time>
      </trkpt>
      <trkpt lat="43.66079" lon="-0.11345">
        <ele>114.80000305176</ele>
        <time>2020-07-06T11:56:40.000Z</time>
      </trkpt>
      <trkpt lat="43.66077" lon="-0.11351">
        <ele>114.59999847412</ele>
        <time>2020-07-06T11:56:41.000Z</time>
      </trkpt>
      <trkpt lat="43.66073" lon="-0.1137">
        <ele>114.59999847412</ele>
        <time>2020-07-06T11:56:44.000Z</time>
      </trkpt>
      <trkpt lat="43.6607" lon="-0.1138">
        <ele>114.59999847412</ele>
        <time>2020-07-06T11:56:46.000Z</time>
      </trkpt>
      <trkpt lat="43.66067" lon="-0.11402">
        <ele>114.59999847412</ele>
        <time>2020-07-06T11:56:49.000Z</time>
      </trkpt>
      <trkpt lat="43.66067" lon="-0.1141">
        <ele>114.80000305176</ele>
        <time>2020-07-06T11:56:50.000Z</time>
      </trkpt>
      <trkpt lat="43.66069" lon="-0.11424">
        <ele>114.80000305176</ele>
        <time>2020-07-06T11:56:52.000Z</time>
      </trkpt>
      <trkpt lat="43.66069" lon="-0.11445">
        <ele>114.40000152588</ele>
        <time>2020-07-06T11:56:55.000Z</time>
      </trkpt>
      <trkpt lat="43.66069" lon="-0.11465">
        <ele>114.40000152588</ele>
        <time>2020-07-06T11:56:58.000Z</time>
      </trkpt>
      <trkpt lat="43.6607" lon="-0.11487">
        <ele>114.40000152588</ele>
        <time>2020-07-06T11:57:01.000Z</time>
      </trkpt>
      <trkpt lat="43.66075" lon="-0.11547">
        <ele>115</ele>
        <time>2020-07-06T11:57:09.000Z</time>
      </trkpt>
      <trkpt lat="43.66076" lon="-0.11577">
        <ele>114.40000152588</ele>
        <time>2020-07-06T11:57:13.000Z</time>
      </trkpt>
      <trkpt lat="43.66078" lon="-0.11592">
        <ele>114.19999694824</ele>
        <time>2020-07-06T11:57:15.000Z</time>
      </trkpt>
      <trkpt lat="43.66079" lon="-0.11599">
        <ele>114</ele>
        <time>2020-07-06T11:57:16.000Z</time>
      </trkpt>
      <trkpt lat="43.6608" lon="-0.11605">
        <ele>113.80000305176</ele>
        <time>2020-07-06T11:57:17.000Z</time>
      </trkpt>
      <trkpt lat="43.66083" lon="-0.11626">
        <ele>113.80000305176</ele>
        <time>2020-07-06T11:57:20.000Z</time>
      </trkpt>
      <trkpt lat="43.66082" lon="-0.11649">
        <ele>113.80000305176</ele>
        <time>2020-07-06T11:57:23.000Z</time>
      </trkpt>
      <trkpt lat="43.66079" lon="-0.11656">
        <ele>113.80000305176</ele>
        <time>2020-07-06T11:57:24.000Z</time>
      </trkpt>
      <trkpt lat="43.66066" lon="-0.11715">
        <ele>114.19999694824</ele>
        <time>2020-07-06T11:57:32.000Z</time>
      </trkpt>
      <trkpt lat="43.66065" lon="-0.11722">
        <ele>114.19999694824</ele>
        <time>2020-07-06T11:57:33.000Z</time>
      </trkpt>
      <trkpt lat="43.66062" lon="-0.11737">
        <ele>114</ele>
        <time>2020-07-06T11:57:35.000Z</time>
      </trkpt>
      <trkpt lat="43.66059" lon="-0.11751">
        <ele>114</ele>
        <time>2020-07-06T11:57:37.000Z</time>
      </trkpt>
      <trkpt lat="43.66058" lon="-0.11764">
        <ele>114</ele>
        <time>2020-07-06T11:57:39.000Z</time>
      </trkpt>
      <trkpt lat="43.66061" lon="-0.11773">
        <ele>114</ele>
        <time>2020-07-06T11:57:41.000Z</time>
      </trkpt>
      <trkpt lat="43.66064" lon="-0.11774">
        <ele>114</ele>
        <time>2020-07-06T11:57:42.000Z</time>
      </trkpt>
      <trkpt lat="43.6607" lon="-0.11774">
        <ele>114</ele>
        <time>2020-07-06T11:57:44.000Z</time>
      </trkpt>
      <trkpt lat="43.66089" lon="-0.11775">
        <ele>114.19999694824</ele>
        <time>2020-07-06T11:57:48.000Z</time>
      </trkpt>
      <trkpt lat="43.66132" lon="-0.11779">
        <ele>113.40000152588</ele>
        <time>2020-07-06T11:57:56.000Z</time>
      </trkpt>
      <trkpt lat="43.66147" lon="-0.11781">
        <ele>113.19999694824</ele>
        <time>2020-07-06T11:57:59.000Z</time>
      </trkpt>
      <trkpt lat="43.66163" lon="-0.11785">
        <ele>113.40000152588</ele>
        <time>2020-07-06T11:58:03.000Z</time>
      </trkpt>
      <trkpt lat="43.66166" lon="-0.11787">
        <ele>113.40000152588</ele>
        <time>2020-07-06T11:58:04.000Z</time>
      </trkpt>
      <trkpt lat="43.66166" lon="-0.11796">
        <ele>113.59999847412</ele>
        <time>2020-07-06T11:58:06.000Z</time>
      </trkpt>
      <trkpt lat="43.66165" lon="-0.11808">
        <ele>113.40000152588</ele>
        <time>2020-07-06T11:58:08.000Z</time>
      </trkpt>
      <trkpt lat="43.66163" lon="-0.11831">
        <ele>113.40000152588</ele>
        <time>2020-07-06T11:58:11.000Z</time>
      </trkpt>
      <trkpt lat="43.66159" lon="-0.11844">
        <ele>113.40000152588</ele>
        <time>2020-07-06T11:58:13.000Z</time>
      </trkpt>
      <trkpt lat="43.66154" lon="-0.11852">
        <ele>113.40000152588</ele>
        <time>2020-07-06T11:58:14.000Z</time>
      </trkpt>
      <trkpt lat="43.66142" lon="-0.11868">
        <ele>113.40000152588</ele>
        <time>2020-07-06T11:58:17.000Z</time>
      </trkpt>
      <trkpt lat="43.66136" lon="-0.11883">
        <ele>113.19999694824</ele>
        <time>2020-07-06T11:58:19.000Z</time>
      </trkpt>
      <trkpt lat="43.66137" lon="-0.11898">
        <ele>113.40000152588</ele>
        <time>2020-07-06T11:58:21.000Z</time>
      </trkpt>
      <trkpt lat="43.66139" lon="-0.11904">
        <ele>113.40000152588</ele>
        <time>2020-07-06T11:58:22.000Z</time>
      </trkpt>
      <trkpt lat="43.66167" lon="-0.11972">
        <ele>113.59999847412</ele>
        <time>2020-07-06T11:58:31.000Z</time>
      </trkpt>
      <trkpt lat="43.66179" lon="-0.11995">
        <ele>113.40000152588</ele>
        <time>2020-07-06T11:58:34.000Z</time>
      </trkpt>
      <trkpt lat="43.66187" lon="-0.12006">
        <ele>113.19999694824</ele>
        <time>2020-07-06T11:58:36.000Z</time>
      </trkpt>
      <trkpt lat="43.66219" lon="-0.12046">
        <ele>112.40000152588</ele>
        <time>2020-07-06T11:58:43.000Z</time>
      </trkpt>
      <trkpt lat="43.66224" lon="-0.12053">
        <ele>112.40000152588</ele>
        <time>2020-07-06T11:58:44.000Z</time>
      </trkpt>
      <trkpt lat="43.66225" lon="-0.1206">
        <ele>112.40000152588</ele>
        <time>2020-07-06T11:58:45.000Z</time>
      </trkpt>
      <trkpt lat="43.66224" lon="-0.12066">
        <ele>112.40000152588</ele>
        <time>2020-07-06T11:58:46.000Z</time>
      </trkpt>
      <trkpt lat="43.66222" lon="-0.12073">
        <ele>112.40000152588</ele>
        <time>2020-07-06T11:58:47.000Z</time>
      </trkpt>
      <trkpt lat="43.66211" lon="-0.12095">
        <ele>112.40000152588</ele>
        <time>2020-07-06T11:58:50.000Z</time>
      </trkpt>
      <trkpt lat="43.66178" lon="-0.12158">
        <ele>112.59999847412</ele>
        <time>2020-07-06T11:58:59.000Z</time>
      </trkpt>
      <trkpt lat="43.66154" lon="-0.12206">
        <ele>113.19999694824</ele>
        <time>2020-07-06T11:59:06.000Z</time>
      </trkpt>
      <trkpt lat="43.66126" lon="-0.12258">
        <ele>112.80000305176</ele>
        <time>2020-07-06T11:59:14.000Z</time>
      </trkpt>
      <trkpt lat="43.66115" lon="-0.12276">
        <ele>112.19999694824</ele>
        <time>2020-07-06T11:59:17.000Z</time>
      </trkpt>
      <trkpt lat="43.661" lon="-0.12301">
        <ele>112.59999847412</ele>
        <time>2020-07-06T11:59:21.000Z</time>
      </trkpt>
      <trkpt lat="43.66093" lon="-0.12315">
        <ele>112.80000305176</ele>
        <time>2020-07-06T11:59:23.000Z</time>
      </trkpt>
      <trkpt lat="43.66083" lon="-0.12325">
        <ele>112.80000305176</ele>
        <time>2020-07-06T11:59:25.000Z</time>
      </trkpt>
      <trkpt lat="43.66072" lon="-0.12332">
        <ele>112.80000305176</ele>
        <time>2020-07-06T11:59:27.000Z</time>
      </trkpt>
      <trkpt lat="43.66055" lon="-0.1234">
        <ele>113.19999694824</ele>
        <time>2020-07-06T11:59:30.000Z</time>
      </trkpt>
      <trkpt lat="43.66043" lon="-0.12344">
        <ele>113.19999694824</ele>
        <time>2020-07-06T11:59:32.000Z</time>
      </trkpt>
      <trkpt lat="43.66027" lon="-0.12352">
        <ele>113.19999694824</ele>
        <time>2020-07-06T11:59:35.000Z</time>
      </trkpt>
      <trkpt lat="43.65988" lon="-0.12366">
        <ele>113.19999694824</ele>
        <time>2020-07-06T11:59:42.000Z</time>
      </trkpt>
      <trkpt lat="43.65978" lon="-0.12371">
        <ele>112.80000305176</ele>
        <time>2020-07-06T11:59:44.000Z</time>
      </trkpt>
      <trkpt lat="43.65969" lon="-0.12381">
        <ele>112.80000305176</ele>
        <time>2020-07-06T11:59:46.000Z</time>
      </trkpt>
      <trkpt lat="43.65963" lon="-0.12404">
        <ele>112.59999847412</ele>
        <time>2020-07-06T11:59:49.000Z</time>
      </trkpt>
      <trkpt lat="43.65962" lon="-0.12412">
        <ele>112.59999847412</ele>
        <time>2020-07-06T11:59:50.000Z</time>
      </trkpt>
      <trkpt lat="43.65961" lon="-0.12429">
        <ele>112.59999847412</ele>
        <time>2020-07-06T11:59:52.000Z</time>
      </trkpt>
      <trkpt lat="43.65963" lon="-0.12446">
        <ele>112.59999847412</ele>
        <time>2020-07-06T11:59:54.000Z</time>
      </trkpt>
      <trkpt lat="43.65965" lon="-0.12454">
        <ele>112.59999847412</ele>
        <time>2020-07-06T11:59:55.000Z</time>
      </trkpt>
      <trkpt lat="43.65971" lon="-0.12469">
        <ele>112.59999847412</ele>
        <time>2020-07-06T11:59:57.000Z</time>
      </trkpt>
      <trkpt lat="43.6598" lon="-0.1248">
        <ele>112.40000152588</ele>
        <time>2020-07-06T11:59:59.000Z</time>
      </trkpt>
      <trkpt lat="43.65985" lon="-0.12482">
        <ele>112.40000152588</ele>
        <time>2020-07-06T12:00:00.000Z</time>
      </trkpt>
      <trkpt lat="43.65991" lon="-0.12483">
        <ele>112.59999847412</ele>
        <time>2020-07-06T12:00:01.000Z</time>
      </trkpt>
      <trkpt lat="43.66009" lon="-0.12487">
        <ele>112.59999847412</ele>
        <time>2020-07-06T12:00:04.000Z</time>
      </trkpt>
      <trkpt lat="43.66016" lon="-0.12498">
        <ele>112.80000305176</ele>
        <time>2020-07-06T12:00:06.000Z</time>
      </trkpt>
      <trkpt lat="43.66018" lon="-0.12514">
        <ele>113</ele>
        <time>2020-07-06T12:00:08.000Z</time>
      </trkpt>
      <trkpt lat="43.66017" lon="-0.12522">
        <ele>113</ele>
        <time>2020-07-06T12:00:09.000Z</time>
      </trkpt>
      <trkpt lat="43.66016" lon="-0.12571">
        <ele>112.80000305176</ele>
        <time>2020-07-06T12:00:15.000Z</time>
      </trkpt>
      <trkpt lat="43.66016" lon="-0.1258">
        <ele>112.59999847412</ele>
        <time>2020-07-06T12:00:16.000Z</time>
      </trkpt>
      <trkpt lat="43.66016" lon="-0.12594">
        <ele>112.40000152588</ele>
        <time>2020-07-06T12:00:18.000Z</time>
      </trkpt>
      <trkpt lat="43.66016" lon="-0.12608">
        <ele>112.40000152588</ele>
        <time>2020-07-06T12:00:20.000Z</time>
      </trkpt>
      <trkpt lat="43.66011" lon="-0.12617">
        <ele>112.40000152588</ele>
        <time>2020-07-06T12:00:22.000Z</time>
      </trkpt>
      <trkpt lat="43.66006" lon="-0.12619">
        <ele>112.40000152588</ele>
        <time>2020-07-06T12:00:23.000Z</time>
      </trkpt>
      <trkpt lat="43.65989" lon="-0.12623">
        <ele>112.59999847412</ele>
        <time>2020-07-06T12:00:26.000Z</time>
      </trkpt>
      <trkpt lat="43.65983" lon="-0.12624">
        <ele>112.59999847412</ele>
        <time>2020-07-06T12:00:27.000Z</time>
      </trkpt>
      <trkpt lat="43.65944" lon="-0.12619">
        <ele>113</ele>
        <time>2020-07-06T12:00:33.000Z</time>
      </trkpt>
      <trkpt lat="43.65898" lon="-0.12608">
        <ele>112.40000152588</ele>
        <time>2020-07-06T12:00:40.000Z</time>
      </trkpt>
      <trkpt lat="43.65887" lon="-0.12598">
        <ele>112.40000152588</ele>
        <time>2020-07-06T12:00:42.000Z</time>
      </trkpt>
      <trkpt lat="43.65884" lon="-0.12591">
        <ele>112.40000152588</ele>
        <time>2020-07-06T12:00:43.000Z</time>
      </trkpt>
      <trkpt lat="43.65882" lon="-0.12582">
        <ele>112.40000152588</ele>
        <time>2020-07-06T12:00:44.000Z</time>
      </trkpt>
      <trkpt lat="43.65878" lon="-0.12564">
        <ele>112.40000152588</ele>
        <time>2020-07-06T12:00:46.000Z</time>
      </trkpt>
      <trkpt lat="43.65875" lon="-0.12557">
        <ele>112.40000152588</ele>
        <time>2020-07-06T12:00:47.000Z</time>
      </trkpt>
      <trkpt lat="43.65869" lon="-0.12541">
        <ele>112.40000152588</ele>
        <time>2020-07-06T12:00:49.000Z</time>
      </trkpt>
      <trkpt lat="43.65865" lon="-0.12522">
        <ele>112.40000152588</ele>
        <time>2020-07-06T12:00:51.000Z</time>
      </trkpt>
      <trkpt lat="43.65864" lon="-0.12515">
        <ele>112.40000152588</ele>
        <time>2020-07-06T12:00:52.000Z</time>
      </trkpt>
      <trkpt lat="43.65856" lon="-0.12501">
        <ele>112.19999694824</ele>
        <time>2020-07-06T12:00:54.000Z</time>
      </trkpt>
      <trkpt lat="43.65828" lon="-0.12479">
        <ele>112.59999847412</ele>
        <time>2020-07-06T12:00:59.000Z</time>
      </trkpt>
      <trkpt lat="43.65799" lon="-0.12464">
        <ele>113</ele>
        <time>2020-07-06T12:01:04.000Z</time>
      </trkpt>
      <trkpt lat="43.65792" lon="-0.12464">
        <ele>113.19999694824</ele>
        <time>2020-07-06T12:01:05.000Z</time>
      </trkpt>
      <trkpt lat="43.65787" lon="-0.12465">
        <ele>113.19999694824</ele>
        <time>2020-07-06T12:01:06.000Z</time>
      </trkpt>
      <trkpt lat="43.65768" lon="-0.12475">
        <ele>113.19999694824</ele>
        <time>2020-07-06T12:01:09.000Z</time>
      </trkpt>
      <trkpt lat="43.6575" lon="-0.12485">
        <ele>113</ele>
        <time>2020-07-06T12:01:12.000Z</time>
      </trkpt>
      <trkpt lat="43.65724" lon="-0.12498">
        <ele>112.40000152588</ele>
        <time>2020-07-06T12:01:16.000Z</time>
      </trkpt>
      <trkpt lat="43.65706" lon="-0.12507">
        <ele>112.59999847412</ele>
        <time>2020-07-06T12:01:19.000Z</time>
      </trkpt>
      <trkpt lat="43.65686" lon="-0.1251">
        <ele>112.59999847412</ele>
        <time>2020-07-06T12:01:22.000Z</time>
      </trkpt>
      <trkpt lat="43.6568" lon="-0.12512">
        <ele>112.40000152588</ele>
        <time>2020-07-06T12:01:23.000Z</time>
      </trkpt>
      <trkpt lat="43.65657" lon="-0.12524">
        <ele>112.40000152588</ele>
        <time>2020-07-06T12:01:27.000Z</time>
      </trkpt>
      <trkpt lat="43.6564" lon="-0.12535">
        <ele>112</ele>
        <time>2020-07-06T12:01:30.000Z</time>
      </trkpt>
      <trkpt lat="43.65618" lon="-0.1255">
        <ele>112.19999694824</ele>
        <time>2020-07-06T12:01:34.000Z</time>
      </trkpt>
      <trkpt lat="43.65607" lon="-0.12555">
        <ele>112</ele>
        <time>2020-07-06T12:01:36.000Z</time>
      </trkpt>
      <trkpt lat="43.65596" lon="-0.1256">
        <ele>112.19999694824</ele>
        <time>2020-07-06T12:01:38.000Z</time>
      </trkpt>
      <trkpt lat="43.65587" lon="-0.12569">
        <ele>112.80000305176</ele>
        <time>2020-07-06T12:01:40.000Z</time>
      </trkpt>
      <trkpt lat="43.6558" lon="-0.12581">
        <ele>112.80000305176</ele>
        <time>2020-07-06T12:01:42.000Z</time>
      </trkpt>
      <trkpt lat="43.65572" lon="-0.12592">
        <ele>113</ele>
        <time>2020-07-06T12:01:44.000Z</time>
      </trkpt>
      <trkpt lat="43.65551" lon="-0.12626">
        <ele>113.19999694824</ele>
        <time>2020-07-06T12:01:49.000Z</time>
      </trkpt>
      <trkpt lat="43.65525" lon="-0.12674">
        <ele>113.40000152588</ele>
        <time>2020-07-06T12:01:56.000Z</time>
      </trkpt>
      <trkpt lat="43.65504" lon="-0.12713">
        <ele>113.40000152588</ele>
        <time>2020-07-06T12:02:02.000Z</time>
      </trkpt>
      <trkpt lat="43.65495" lon="-0.12736">
        <ele>113.40000152588</ele>
        <time>2020-07-06T12:02:05.000Z</time>
      </trkpt>
      <trkpt lat="43.65492" lon="-0.12752">
        <ele>113.19999694824</ele>
        <time>2020-07-06T12:02:07.000Z</time>
      </trkpt>
      <trkpt lat="43.65482" lon="-0.12812">
        <ele>112.19999694824</ele>
        <time>2020-07-06T12:02:14.000Z</time>
      </trkpt>
      <trkpt lat="43.65477" lon="-0.1287">
        <ele>112.40000152588</ele>
        <time>2020-07-06T12:02:21.000Z</time>
      </trkpt>
      <trkpt lat="43.65476" lon="-0.12887">
        <ele>112</ele>
        <time>2020-07-06T12:02:23.000Z</time>
      </trkpt>
      <trkpt lat="43.65471" lon="-0.12935">
        <ele>111.19999694824</ele>
        <time>2020-07-06T12:02:29.000Z</time>
      </trkpt>
      <trkpt lat="43.65466" lon="-0.12972">
        <ele>111</ele>
        <time>2020-07-06T12:02:34.000Z</time>
      </trkpt>
      <trkpt lat="43.65465" lon="-0.12978">
        <ele>111</ele>
        <time>2020-07-06T12:02:35.000Z</time>
      </trkpt>
      <trkpt lat="43.65463" lon="-0.12984">
        <ele>111</ele>
        <time>2020-07-06T12:02:36.000Z</time>
      </trkpt>
      <trkpt lat="43.6546" lon="-0.13002">
        <ele>111.19999694824</ele>
        <time>2020-07-06T12:02:40.000Z</time>
      </trkpt>
      <trkpt lat="43.65459" lon="-0.13007">
        <ele>111.59999847412</ele>
        <time>2020-07-06T12:02:44.000Z</time>
      </trkpt>
      <trkpt lat="43.6546" lon="-0.13009">
        <ele>111.80000305176</ele>
        <time>2020-07-06T12:02:50.000Z</time>
      </trkpt>
      <trkpt lat="43.6546" lon="-0.13011">
        <ele>111.80000305176</ele>
        <time>2020-07-06T12:02:51.000Z</time>
      </trkpt>
      <trkpt lat="43.65463" lon="-0.13025">
        <ele>111.40000152588</ele>
        <time>2020-07-06T12:02:58.000Z</time>
      </trkpt>
      <trkpt lat="43.65463" lon="-0.13025">
        <ele>111.80000305176</ele>
        <time>2020-07-06T12:03:05.000Z</time>
      </trkpt>
      <trkpt lat="43.65462" lon="-0.13029">
        <ele>111.80000305176</ele>
        <time>2020-07-06T12:03:09.000Z</time>
      </trkpt>
      <trkpt lat="43.65462" lon="-0.13031">
        <ele>111.80000305176</ele>
        <time>2020-07-06T12:03:11.000Z</time>
      </trkpt>
      <trkpt lat="43.65462" lon="-0.13031">
        <ele>111.80000305176</ele>
        <time>2020-07-06T12:03:19.000Z</time>
      </trkpt>
      <trkpt lat="43.65461" lon="-0.13032">
        <ele>111.59999847412</ele>
        <time>2020-07-06T12:03:22.000Z</time>
      </trkpt>
      <trkpt lat="43.65461" lon="-0.13038">
        <ele>111.40000152588</ele>
        <time>2020-07-06T12:03:24.000Z</time>
      </trkpt>
      <trkpt lat="43.65463" lon="-0.13068">
        <ele>111.19999694824</ele>
        <time>2020-07-06T12:03:30.000Z</time>
      </trkpt>
      <trkpt lat="43.65461" lon="-0.131">
        <ele>110.59999847412</ele>
        <time>2020-07-06T12:03:35.000Z</time>
      </trkpt>
      <trkpt lat="43.65461" lon="-0.13107">
        <ele>110.59999847412</ele>
        <time>2020-07-06T12:03:36.000Z</time>
      </trkpt>
      <trkpt lat="43.6546" lon="-0.13153">
        <ele>110.19999694824</ele>
        <time>2020-07-06T12:03:43.000Z</time>
      </trkpt>
      <trkpt lat="43.6546" lon="-0.13159">
        <ele>110</ele>
        <time>2020-07-06T12:03:44.000Z</time>
      </trkpt>
      <trkpt lat="43.65461" lon="-0.13211">
        <ele>110</ele>
        <time>2020-07-06T12:03:52.000Z</time>
      </trkpt>
      <trkpt lat="43.65462" lon="-0.13256">
        <ele>110</ele>
        <time>2020-07-06T12:03:59.000Z</time>
      </trkpt>
      <trkpt lat="43.65466" lon="-0.13315">
        <ele>110.40000152588</ele>
        <time>2020-07-06T12:04:08.000Z</time>
      </trkpt>
      <trkpt lat="43.65471" lon="-0.13363">
        <ele>110.40000152588</ele>
        <time>2020-07-06T12:04:16.000Z</time>
      </trkpt>
      <trkpt lat="43.65472" lon="-0.13411">
        <ele>110.59999847412</ele>
        <time>2020-07-06T12:04:24.000Z</time>
      </trkpt>
      <trkpt lat="43.65471" lon="-0.13439">
        <ele>111.19999694824</ele>
        <time>2020-07-06T12:04:29.000Z</time>
      </trkpt>
      <trkpt lat="43.65475" lon="-0.13447">
        <ele>111.19999694824</ele>
        <time>2020-07-06T12:04:31.000Z</time>
      </trkpt>
      <trkpt lat="43.6549" lon="-0.13452">
        <ele>111.19999694824</ele>
        <time>2020-07-06T12:04:35.000Z</time>
      </trkpt>
      <trkpt lat="43.65511" lon="-0.13452">
        <ele>111.19999694824</ele>
        <time>2020-07-06T12:04:41.000Z</time>
      </trkpt>
      <trkpt lat="43.65513" lon="-0.13451">
        <ele>111.19999694824</ele>
        <time>2020-07-06T12:04:45.000Z</time>
      </trkpt>
      <trkpt lat="43.6552" lon="-0.13447">
        <ele>111</ele>
        <time>2020-07-06T12:05:00.000Z</time>
      </trkpt>
      <trkpt lat="43.65535" lon="-0.13435">
        <ele>111</ele>
        <time>2020-07-06T12:05:07.000Z</time>
      </trkpt>
      <trkpt lat="43.65542" lon="-0.13434">
        <ele>110.59999847412</ele>
        <time>2020-07-06T12:05:10.000Z</time>
      </trkpt>
      <trkpt lat="43.65544" lon="-0.13435">
        <ele>110.40000152588</ele>
        <time>2020-07-06T12:05:11.000Z</time>
      </trkpt>
      <trkpt lat="43.65555" lon="-0.13444">
        <ele>110</ele>
        <time>2020-07-06T12:05:17.000Z</time>
      </trkpt>
      <trkpt lat="43.65555" lon="-0.13446">
        <ele>110</ele>
        <time>2020-07-06T12:05:18.000Z</time>
      </trkpt>
      <trkpt lat="43.65554" lon="-0.1345">
        <ele>110</ele>
        <time>2020-07-06T12:05:20.000Z</time>
      </trkpt>
      <trkpt lat="43.65549" lon="-0.13454">
        <ele>110</ele>
        <time>2020-07-06T12:05:22.000Z</time>
      </trkpt>
      <trkpt lat="43.6553" lon="-0.1346">
        <ele>110.19999694824</ele>
        <time>2020-07-06T12:05:28.000Z</time>
      </trkpt>
      <trkpt lat="43.65517" lon="-0.13472">
        <ele>110.40000152588</ele>
        <time>2020-07-06T12:05:32.000Z</time>
      </trkpt>
      <trkpt lat="43.65504" lon="-0.13496">
        <ele>110.59999847412</ele>
        <time>2020-07-06T12:05:37.000Z</time>
      </trkpt>
      <trkpt lat="43.65496" lon="-0.13512">
        <ele>110.59999847412</ele>
        <time>2020-07-06T12:05:40.000Z</time>
      </trkpt>
      <trkpt lat="43.65494" lon="-0.13524">
        <ele>110.80000305176</ele>
        <time>2020-07-06T12:05:42.000Z</time>
      </trkpt>
      <trkpt lat="43.65494" lon="-0.13532">
        <ele>110.80000305176</ele>
        <time>2020-07-06T12:05:43.000Z</time>
      </trkpt>
      <trkpt lat="43.65488" lon="-0.13585">
        <ele>110.80000305176</ele>
        <time>2020-07-06T12:05:51.000Z</time>
      </trkpt>
      <trkpt lat="43.65476" lon="-0.13624">
        <ele>111.19999694824</ele>
        <time>2020-07-06T12:05:57.000Z</time>
      </trkpt>
      <trkpt lat="43.65475" lon="-0.1363">
        <ele>111.40000152588</ele>
        <time>2020-07-06T12:05:58.000Z</time>
      </trkpt>
      <trkpt lat="43.65476" lon="-0.13643">
        <ele>111.40000152588</ele>
        <time>2020-07-06T12:06:00.000Z</time>
      </trkpt>
      <trkpt lat="43.65482" lon="-0.13691">
        <ele>110.80000305176</ele>
        <time>2020-07-06T12:06:07.000Z</time>
      </trkpt>
      <trkpt lat="43.65485" lon="-0.13726">
        <ele>109.80000305176</ele>
        <time>2020-07-06T12:06:12.000Z</time>
      </trkpt>
      <trkpt lat="43.65487" lon="-0.13739">
        <ele>109.80000305176</ele>
        <time>2020-07-06T12:06:14.000Z</time>
      </trkpt>
      <trkpt lat="43.65488" lon="-0.13746">
        <ele>110</ele>
        <time>2020-07-06T12:06:15.000Z</time>
      </trkpt>
      <trkpt lat="43.65488" lon="-0.13752">
        <ele>110</ele>
        <time>2020-07-06T12:06:16.000Z</time>
      </trkpt>
      <trkpt lat="43.65493" lon="-0.1379">
        <ele>110.19999694824</ele>
        <time>2020-07-06T12:06:22.000Z</time>
      </trkpt>
      <trkpt lat="43.65494" lon="-0.13802">
        <ele>110</ele>
        <time>2020-07-06T12:06:24.000Z</time>
      </trkpt>
      <trkpt lat="43.65496" lon="-0.13828">
        <ele>109.59999847412</ele>
        <time>2020-07-06T12:06:28.000Z</time>
      </trkpt>
      <trkpt lat="43.65505" lon="-0.13877">
        <ele>109.80000305176</ele>
        <time>2020-07-06T12:06:36.000Z</time>
      </trkpt>
      <trkpt lat="43.65509" lon="-0.13893">
        <ele>110</ele>
        <time>2020-07-06T12:06:39.000Z</time>
      </trkpt>
      <trkpt lat="43.65508" lon="-0.13903">
        <ele>110.19999694824</ele>
        <time>2020-07-06T12:06:41.000Z</time>
      </trkpt>
      <trkpt lat="43.65502" lon="-0.13925">
        <ele>110.59999847412</ele>
        <time>2020-07-06T12:06:45.000Z</time>
      </trkpt>
      <trkpt lat="43.65505" lon="-0.13968">
        <ele>110</ele>
        <time>2020-07-06T12:06:51.000Z</time>
      </trkpt>
      <trkpt lat="43.65509" lon="-0.14018">
        <ele>109.80000305176</ele>
        <time>2020-07-06T12:06:57.000Z</time>
      </trkpt>
      <trkpt lat="43.65512" lon="-0.14053">
        <ele>110</ele>
        <time>2020-07-06T12:07:01.000Z</time>
      </trkpt>
      <trkpt lat="43.6551" lon="-0.14074">
        <ele>110</ele>
        <time>2020-07-06T12:07:03.000Z</time>
      </trkpt>
      <trkpt lat="43.65501" lon="-0.14122">
        <ele>110</ele>
        <time>2020-07-06T12:07:09.000Z</time>
      </trkpt>
      <trkpt lat="43.65498" lon="-0.14137">
        <ele>110.19999694824</ele>
        <time>2020-07-06T12:07:11.000Z</time>
      </trkpt>
      <trkpt lat="43.65493" lon="-0.14169">
        <ele>110.40000152588</ele>
        <time>2020-07-06T12:07:15.000Z</time>
      </trkpt>
      <trkpt lat="43.65491" lon="-0.14185">
        <ele>110.40000152588</ele>
        <time>2020-07-06T12:07:17.000Z</time>
      </trkpt>
      <trkpt lat="43.65485" lon="-0.14207">
        <ele>110.19999694824</ele>
        <time>2020-07-06T12:07:20.000Z</time>
      </trkpt>
      <trkpt lat="43.65482" lon="-0.14214">
        <ele>110.19999694824</ele>
        <time>2020-07-06T12:07:21.000Z</time>
      </trkpt>
      <trkpt lat="43.65471" lon="-0.14234">
        <ele>109.59999847412</ele>
        <time>2020-07-06T12:07:24.000Z</time>
      </trkpt>
      <trkpt lat="43.65448" lon="-0.14269">
        <ele>109.40000152588</ele>
        <time>2020-07-06T12:07:30.000Z</time>
      </trkpt>
      <trkpt lat="43.65422" lon="-0.14319">
        <ele>109.80000305176</ele>
        <time>2020-07-06T12:07:37.000Z</time>
      </trkpt>
      <trkpt lat="43.65397" lon="-0.14367">
        <ele>110</ele>
        <time>2020-07-06T12:07:44.000Z</time>
      </trkpt>
      <trkpt lat="43.65389" lon="-0.14383">
        <ele>109.80000305176</ele>
        <time>2020-07-06T12:07:47.000Z</time>
      </trkpt>
      <trkpt lat="43.65383" lon="-0.14395">
        <ele>109.59999847412</ele>
        <time>2020-07-06T12:07:49.000Z</time>
      </trkpt>
      <trkpt lat="43.65376" lon="-0.14417">
        <ele>109.80000305176</ele>
        <time>2020-07-06T12:07:52.000Z</time>
      </trkpt>
      <trkpt lat="43.65374" lon="-0.14433">
        <ele>109.40000152588</ele>
        <time>2020-07-06T12:07:54.000Z</time>
      </trkpt>
      <trkpt lat="43.65377" lon="-0.14448">
        <ele>109.19999694824</ele>
        <time>2020-07-06T12:07:56.000Z</time>
      </trkpt>
      <trkpt lat="43.65381" lon="-0.14462">
        <ele>109.19999694824</ele>
        <time>2020-07-06T12:07:58.000Z</time>
      </trkpt>
      <trkpt lat="43.65384" lon="-0.14468">
        <ele>109.19999694824</ele>
        <time>2020-07-06T12:07:59.000Z</time>
      </trkpt>
      <trkpt lat="43.6539" lon="-0.1448">
        <ele>109</ele>
        <time>2020-07-06T12:08:01.000Z</time>
      </trkpt>
      <trkpt lat="43.65392" lon="-0.14487">
        <ele>109</ele>
        <time>2020-07-06T12:08:02.000Z</time>
      </trkpt>
      <trkpt lat="43.65403" lon="-0.14541">
        <ele>109</ele>
        <time>2020-07-06T12:08:09.000Z</time>
      </trkpt>
      <trkpt lat="43.65404" lon="-0.14546">
        <ele>109</ele>
        <time>2020-07-06T12:08:10.000Z</time>
      </trkpt>
      <trkpt lat="43.65404" lon="-0.1455">
        <ele>109.19999694824</ele>
        <time>2020-07-06T12:08:12.000Z</time>
      </trkpt>
      <trkpt lat="43.65404" lon="-0.1455">
        <ele>109.19999694824</ele>
        <time>2020-07-06T12:08:13.000Z</time>
      </trkpt>
      <trkpt lat="43.65402" lon="-0.1455">
        <ele>109.59999847412</ele>
        <time>2020-07-06T12:08:15.000Z</time>
      </trkpt>
      <trkpt lat="43.65401" lon="-0.14551">
        <ele>109.59999847412</ele>
        <time>2020-07-06T12:08:16.000Z</time>
      </trkpt>
      <trkpt lat="43.65401" lon="-0.14551">
        <ele>110</ele>
        <time>2020-07-06T12:08:22.000Z</time>
      </trkpt>
      <trkpt lat="43.65407" lon="-0.14552">
        <ele>109.80000305176</ele>
        <time>2020-07-06T12:09:06.000Z</time>
      </trkpt>
      <trkpt lat="43.65428" lon="-0.14558">
        <ele>109.80000305176</ele>
        <time>2020-07-06T12:09:12.000Z</time>
      </trkpt>
      <trkpt lat="43.65462" lon="-0.14567">
        <ele>109.59999847412</ele>
        <time>2020-07-06T12:09:19.000Z</time>
      </trkpt>
      <trkpt lat="43.65493" lon="-0.14571">
        <ele>109.19999694824</ele>
        <time>2020-07-06T12:09:25.000Z</time>
      </trkpt>
      <trkpt lat="43.65518" lon="-0.14572">
        <ele>109.19999694824</ele>
        <time>2020-07-06T12:09:30.000Z</time>
      </trkpt>
      <trkpt lat="43.65526" lon="-0.14577">
        <ele>109.19999694824</ele>
        <time>2020-07-06T12:09:32.000Z</time>
      </trkpt>
      <trkpt lat="43.65532" lon="-0.14589">
        <ele>109.19999694824</ele>
        <time>2020-07-06T12:09:34.000Z</time>
      </trkpt>
      <trkpt lat="43.65532" lon="-0.14596">
        <ele>109.19999694824</ele>
        <time>2020-07-06T12:09:35.000Z</time>
      </trkpt>
      <trkpt lat="43.65531" lon="-0.14602">
        <ele>109.19999694824</ele>
        <time>2020-07-06T12:09:36.000Z</time>
      </trkpt>
      <trkpt lat="43.65526" lon="-0.14613">
        <ele>109</ele>
        <time>2020-07-06T12:09:38.000Z</time>
      </trkpt>
      <trkpt lat="43.65524" lon="-0.14619">
        <ele>108.80000305176</ele>
        <time>2020-07-06T12:09:39.000Z</time>
      </trkpt>
      <trkpt lat="43.6552" lon="-0.14634">
        <ele>108.59999847412</ele>
        <time>2020-07-06T12:09:41.000Z</time>
      </trkpt>
      <trkpt lat="43.6552" lon="-0.14647">
        <ele>108.80000305176</ele>
        <time>2020-07-06T12:09:43.000Z</time>
      </trkpt>
      <trkpt lat="43.65523" lon="-0.14662">
        <ele>108.59999847412</ele>
        <time>2020-07-06T12:09:45.000Z</time>
      </trkpt>
      <trkpt lat="43.65527" lon="-0.14674">
        <ele>109</ele>
        <time>2020-07-06T12:09:47.000Z</time>
      </trkpt>
      <trkpt lat="43.65528" lon="-0.14679">
        <ele>109</ele>
        <time>2020-07-06T12:09:48.000Z</time>
      </trkpt>
      <trkpt lat="43.65529" lon="-0.14687">
        <ele>109.19999694824</ele>
        <time>2020-07-06T12:09:50.000Z</time>
      </trkpt>
      <trkpt lat="43.65528" lon="-0.14688">
        <ele>109.19999694824</ele>
        <time>2020-07-06T12:09:51.000Z</time>
      </trkpt>
      <trkpt lat="43.65526" lon="-0.1469">
        <ele>109.80000305176</ele>
        <time>2020-07-06T12:09:55.000Z</time>
      </trkpt>
      <trkpt lat="43.65526" lon="-0.1469">
        <ele>109.80000305176</ele>
        <time>2020-07-06T12:10:10.000Z</time>
      </trkpt>
      <trkpt lat="43.65527" lon="-0.1469">
        <ele>110</ele>
        <time>2020-07-06T12:10:48.000Z</time>
      </trkpt>
      <trkpt lat="43.65527" lon="-0.14692">
        <ele>110</ele>
        <time>2020-07-06T12:10:52.000Z</time>
      </trkpt>
      <trkpt lat="43.65528" lon="-0.14692">
        <ele>110</ele>
        <time>2020-07-06T12:11:51.000Z</time>
      </trkpt>
      <trkpt lat="43.65529" lon="-0.14692">
        <ele>110</ele>
        <time>2020-07-06T12:11:53.000Z</time>
      </trkpt>
      <trkpt lat="43.65531" lon="-0.14693">
        <ele>110</ele>
        <time>2020-07-06T12:11:58.000Z</time>
      </trkpt>
      <trkpt lat="43.65537" lon="-0.14708">
        <ele>109.80000305176</ele>
        <time>2020-07-06T12:12:04.000Z</time>
      </trkpt>
      <trkpt lat="43.65543" lon="-0.14725">
        <ele>109.80000305176</ele>
        <time>2020-07-06T12:12:09.000Z</time>
      </trkpt>
      <trkpt lat="43.65551" lon="-0.1475">
        <ele>109.80000305176</ele>
        <time>2020-07-06T12:12:14.000Z</time>
      </trkpt>
      <trkpt lat="43.65552" lon="-0.14754">
        <ele>110</ele>
        <time>2020-07-06T12:12:15.000Z</time>
      </trkpt>
      <trkpt lat="43.65562" lon="-0.14764">
        <ele>110.59999847412</ele>
        <time>2020-07-06T12:12:19.000Z</time>
      </trkpt>
      <trkpt lat="43.65567" lon="-0.14764">
        <ele>110.80000305176</ele>
        <time>2020-07-06T12:12:20.000Z</time>
      </trkpt>
      <trkpt lat="43.65575" lon="-0.14759">
        <ele>110.80000305176</ele>
        <time>2020-07-06T12:12:22.000Z</time>
      </trkpt>
      <trkpt lat="43.65588" lon="-0.1475">
        <ele>111</ele>
        <time>2020-07-06T12:12:25.000Z</time>
      </trkpt>
      <trkpt lat="43.65597" lon="-0.14749">
        <ele>111</ele>
        <time>2020-07-06T12:12:27.000Z</time>
      </trkpt>
      <trkpt lat="43.656" lon="-0.14757">
        <ele>110.80000305176</ele>
        <time>2020-07-06T12:12:29.000Z</time>
      </trkpt>
      <trkpt lat="43.65599" lon="-0.14762">
        <ele>110.80000305176</ele>
        <time>2020-07-06T12:12:30.000Z</time>
      </trkpt>
      <trkpt lat="43.65597" lon="-0.14768">
        <ele>110.80000305176</ele>
        <time>2020-07-06T12:12:34.000Z</time>
      </trkpt>
      <trkpt lat="43.65597" lon="-0.14768">
        <ele>110.80000305176</ele>
        <time>2020-07-06T12:12:50.000Z</time>
      </trkpt>
      <trkpt lat="43.65596" lon="-0.14771">
        <ele>110.80000305176</ele>
        <time>2020-07-06T12:12:51.000Z</time>
      </trkpt>
      <trkpt lat="43.65595" lon="-0.14792">
        <ele>110.59999847412</ele>
        <time>2020-07-06T12:12:56.000Z</time>
      </trkpt>
      <trkpt lat="43.65598" lon="-0.14826">
        <ele>110.80000305176</ele>
        <time>2020-07-06T12:13:01.000Z</time>
      </trkpt>
      <trkpt lat="43.656" lon="-0.1484">
        <ele>110.80000305176</ele>
        <time>2020-07-06T12:13:03.000Z</time>
      </trkpt>
      <trkpt lat="43.65607" lon="-0.14867">
        <ele>110.59999847412</ele>
        <time>2020-07-06T12:13:07.000Z</time>
      </trkpt>
      <trkpt lat="43.65623" lon="-0.14923">
        <ele>110</ele>
        <time>2020-07-06T12:13:15.000Z</time>
      </trkpt>
      <trkpt lat="43.65624" lon="-0.1493">
        <ele>110.19999694824</ele>
        <time>2020-07-06T12:13:16.000Z</time>
      </trkpt>
      <trkpt lat="43.65624" lon="-0.14954">
        <ele>110.19999694824</ele>
        <time>2020-07-06T12:13:19.000Z</time>
      </trkpt>
      <trkpt lat="43.65623" lon="-0.14971">
        <ele>110.19999694824</ele>
        <time>2020-07-06T12:13:21.000Z</time>
      </trkpt>
      <trkpt lat="43.65618" lon="-0.15004">
        <ele>110.19999694824</ele>
        <time>2020-07-06T12:13:25.000Z</time>
      </trkpt>
      <trkpt lat="43.65612" lon="-0.15043">
        <ele>110.19999694824</ele>
        <time>2020-07-06T12:13:30.000Z</time>
      </trkpt>
      <trkpt lat="43.6561" lon="-0.1505">
        <ele>110.40000152588</ele>
        <time>2020-07-06T12:13:31.000Z</time>
      </trkpt>
      <trkpt lat="43.65607" lon="-0.15058">
        <ele>110.40000152588</ele>
        <time>2020-07-06T12:13:32.000Z</time>
      </trkpt>
      <trkpt lat="43.65596" lon="-0.1508">
        <ele>110.59999847412</ele>
        <time>2020-07-06T12:13:35.000Z</time>
      </trkpt>
      <trkpt lat="43.65592" lon="-0.15086">
        <ele>110.59999847412</ele>
        <time>2020-07-06T12:13:36.000Z</time>
      </trkpt>
      <trkpt lat="43.65587" lon="-0.15091">
        <ele>110.59999847412</ele>
        <time>2020-07-06T12:13:37.000Z</time>
      </trkpt>
      <trkpt lat="43.6557" lon="-0.15102">
        <ele>110.80000305176</ele>
        <time>2020-07-06T12:13:40.000Z</time>
      </trkpt>
      <trkpt lat="43.6556" lon="-0.15106">
        <ele>110.80000305176</ele>
        <time>2020-07-06T12:13:42.000Z</time>
      </trkpt>
      <trkpt lat="43.65548" lon="-0.15106">
        <ele>110.80000305176</ele>
        <time>2020-07-06T12:13:44.000Z</time>
      </trkpt>
      <trkpt lat="43.65542" lon="-0.15107">
        <ele>110.80000305176</ele>
        <time>2020-07-06T12:13:45.000Z</time>
      </trkpt>
      <trkpt lat="43.65531" lon="-0.15112">
        <ele>110.80000305176</ele>
        <time>2020-07-06T12:13:47.000Z</time>
      </trkpt>
      <trkpt lat="43.65526" lon="-0.15121">
        <ele>110.80000305176</ele>
        <time>2020-07-06T12:13:49.000Z</time>
      </trkpt>
      <trkpt lat="43.65525" lon="-0.15126">
        <ele>110.80000305176</ele>
        <time>2020-07-06T12:13:50.000Z</time>
      </trkpt>
      <trkpt lat="43.65528" lon="-0.15157">
        <ele>110.40000152588</ele>
        <time>2020-07-06T12:13:54.000Z</time>
      </trkpt>
      <trkpt lat="43.65531" lon="-0.15173">
        <ele>110.19999694824</ele>
        <time>2020-07-06T12:13:56.000Z</time>
      </trkpt>
      <trkpt lat="43.65538" lon="-0.15198">
        <ele>110.19999694824</ele>
        <time>2020-07-06T12:13:59.000Z</time>
      </trkpt>
      <trkpt lat="43.65549" lon="-0.15238">
        <ele>110</ele>
        <time>2020-07-06T12:14:04.000Z</time>
      </trkpt>
      <trkpt lat="43.6555" lon="-0.15246">
        <ele>110</ele>
        <time>2020-07-06T12:14:05.000Z</time>
      </trkpt>
      <trkpt lat="43.65549" lon="-0.15264">
        <ele>109.80000305176</ele>
        <time>2020-07-06T12:14:07.000Z</time>
      </trkpt>
      <trkpt lat="43.65546" lon="-0.15281">
        <ele>109.80000305176</ele>
        <time>2020-07-06T12:14:09.000Z</time>
      </trkpt>
      <trkpt lat="43.65533" lon="-0.15311">
        <ele>110</ele>
        <time>2020-07-06T12:14:13.000Z</time>
      </trkpt>
      <trkpt lat="43.65531" lon="-0.15318">
        <ele>109.80000305176</ele>
        <time>2020-07-06T12:14:14.000Z</time>
      </trkpt>
      <trkpt lat="43.65531" lon="-0.15326">
        <ele>109.80000305176</ele>
        <time>2020-07-06T12:14:15.000Z</time>
      </trkpt>
      <trkpt lat="43.65537" lon="-0.15341">
        <ele>109.80000305176</ele>
        <time>2020-07-06T12:14:17.000Z</time>
      </trkpt>
      <trkpt lat="43.65565" lon="-0.1538">
        <ele>109.80000305176</ele>
        <time>2020-07-06T12:14:24.000Z</time>
      </trkpt>
      <trkpt lat="43.65569" lon="-0.15386">
        <ele>109.59999847412</ele>
        <time>2020-07-06T12:14:25.000Z</time>
      </trkpt>
      <trkpt lat="43.65573" lon="-0.15392">
        <ele>109.59999847412</ele>
        <time>2020-07-06T12:14:26.000Z</time>
      </trkpt>
      <trkpt lat="43.6559" lon="-0.15424">
        <ele>109.40000152588</ele>
        <time>2020-07-06T12:14:31.000Z</time>
      </trkpt>
      <trkpt lat="43.65596" lon="-0.15437">
        <ele>109</ele>
        <time>2020-07-06T12:14:33.000Z</time>
      </trkpt>
      <trkpt lat="43.65607" lon="-0.15474">
        <ele>109.40000152588</ele>
        <time>2020-07-06T12:14:38.000Z</time>
      </trkpt>
      <trkpt lat="43.65611" lon="-0.1549">
        <ele>109.19999694824</ele>
        <time>2020-07-06T12:14:40.000Z</time>
      </trkpt>
      <trkpt lat="43.65612" lon="-0.15506">
        <ele>109.80000305176</ele>
        <time>2020-07-06T12:14:42.000Z</time>
      </trkpt>
      <trkpt lat="43.65611" lon="-0.15514">
        <ele>109.80000305176</ele>
        <time>2020-07-06T12:14:43.000Z</time>
      </trkpt>
      <trkpt lat="43.65608" lon="-0.15553">
        <ele>109.19999694824</ele>
        <time>2020-07-06T12:14:49.000Z</time>
      </trkpt>
      <trkpt lat="43.65605" lon="-0.15593">
        <ele>109.19999694824</ele>
        <time>2020-07-06T12:14:53.000Z</time>
      </trkpt>
      <trkpt lat="43.65606" lon="-0.156">
        <ele>109.19999694824</ele>
        <time>2020-07-06T12:14:54.000Z</time>
      </trkpt>
      <trkpt lat="43.65607" lon="-0.15608">
        <ele>109.19999694824</ele>
        <time>2020-07-06T12:14:55.000Z</time>
      </trkpt>
      <trkpt lat="43.65616" lon="-0.15627">
        <ele>109.40000152588</ele>
        <time>2020-07-06T12:14:58.000Z</time>
      </trkpt>
      <trkpt lat="43.65626" lon="-0.15648">
        <ele>109.40000152588</ele>
        <time>2020-07-06T12:15:02.000Z</time>
      </trkpt>
      <trkpt lat="43.65629" lon="-0.15652">
        <ele>109.40000152588</ele>
        <time>2020-07-06T12:15:03.000Z</time>
      </trkpt>
      <trkpt lat="43.65645" lon="-0.15689">
        <ele>109.40000152588</ele>
        <time>2020-07-06T12:15:09.000Z</time>
      </trkpt>
      <trkpt lat="43.65658" lon="-0.15719">
        <ele>109.19999694824</ele>
        <time>2020-07-06T12:15:14.000Z</time>
      </trkpt>
      <trkpt lat="43.65678" lon="-0.15763">
        <ele>109</ele>
        <time>2020-07-06T12:15:21.000Z</time>
      </trkpt>
      <trkpt lat="43.65687" lon="-0.15782">
        <ele>108.59999847412</ele>
        <time>2020-07-06T12:15:24.000Z</time>
      </trkpt>
      <trkpt lat="43.65694" lon="-0.15793">
        <ele>108.59999847412</ele>
        <time>2020-07-06T12:15:26.000Z</time>
      </trkpt>
      <trkpt lat="43.657" lon="-0.15806">
        <ele>108.59999847412</ele>
        <time>2020-07-06T12:15:28.000Z</time>
      </trkpt>
      <trkpt lat="43.65705" lon="-0.15818">
        <ele>108.59999847412</ele>
        <time>2020-07-06T12:15:30.000Z</time>
      </trkpt>
      <trkpt lat="43.65714" lon="-0.15837">
        <ele>108.40000152588</ele>
        <time>2020-07-06T12:15:33.000Z</time>
      </trkpt>
      <trkpt lat="43.65728" lon="-0.15876">
        <ele>108.40000152588</ele>
        <time>2020-07-06T12:15:39.000Z</time>
      </trkpt>
      <trkpt lat="43.65746" lon="-0.15919">
        <ele>108.59999847412</ele>
        <time>2020-07-06T12:15:46.000Z</time>
      </trkpt>
      <trkpt lat="43.65756" lon="-0.15952">
        <ele>108.59999847412</ele>
        <time>2020-07-06T12:15:51.000Z</time>
      </trkpt>
      <trkpt lat="43.65761" lon="-0.15965">
        <ele>108.59999847412</ele>
        <time>2020-07-06T12:15:53.000Z</time>
      </trkpt>
      <trkpt lat="43.65775" lon="-0.16004">
        <ele>108.80000305176</ele>
        <time>2020-07-06T12:15:59.000Z</time>
      </trkpt>
      <trkpt lat="43.6579" lon="-0.16039">
        <ele>108.80000305176</ele>
        <time>2020-07-06T12:16:04.000Z</time>
      </trkpt>
      <trkpt lat="43.65793" lon="-0.16045">
        <ele>108.40000152588</ele>
        <time>2020-07-06T12:16:05.000Z</time>
      </trkpt>
      <trkpt lat="43.65796" lon="-0.16051">
        <ele>108</ele>
        <time>2020-07-06T12:16:06.000Z</time>
      </trkpt>
      <trkpt lat="43.65803" lon="-0.16059">
        <ele>107.80000305176</ele>
        <time>2020-07-06T12:16:08.000Z</time>
      </trkpt>
      <trkpt lat="43.65808" lon="-0.16062">
        <ele>107.80000305176</ele>
        <time>2020-07-06T12:16:09.000Z</time>
      </trkpt>
      <trkpt lat="43.65837" lon="-0.16071">
        <ele>108.80000305176</ele>
        <time>2020-07-06T12:16:15.000Z</time>
      </trkpt>
      <trkpt lat="43.65881" lon="-0.16086">
        <ele>109.19999694824</ele>
        <time>2020-07-06T12:16:23.000Z</time>
      </trkpt>
      <trkpt lat="43.65924" lon="-0.16107">
        <ele>109.19999694824</ele>
        <time>2020-07-06T12:16:31.000Z</time>
      </trkpt>
      <trkpt lat="43.65955" lon="-0.16124">
        <ele>109</ele>
        <time>2020-07-06T12:16:37.000Z</time>
      </trkpt>
      <trkpt lat="43.65964" lon="-0.16132">
        <ele>109</ele>
        <time>2020-07-06T12:16:39.000Z</time>
      </trkpt>
      <trkpt lat="43.65968" lon="-0.16136">
        <ele>109</ele>
        <time>2020-07-06T12:16:40.000Z</time>
      </trkpt>
      <trkpt lat="43.6598" lon="-0.16145">
        <ele>109</ele>
        <time>2020-07-06T12:16:43.000Z</time>
      </trkpt>
      <trkpt lat="43.65992" lon="-0.16159">
        <ele>109</ele>
        <time>2020-07-06T12:16:47.000Z</time>
      </trkpt>
      <trkpt lat="43.65995" lon="-0.16163">
        <ele>108.80000305176</ele>
        <time>2020-07-06T12:16:48.000Z</time>
      </trkpt>
      <trkpt lat="43.66004" lon="-0.16174">
        <ele>108.40000152588</ele>
        <time>2020-07-06T12:16:51.000Z</time>
      </trkpt>
      <trkpt lat="43.66007" lon="-0.16173">
        <ele>108.80000305176</ele>
        <time>2020-07-06T12:16:52.000Z</time>
      </trkpt>
      <trkpt lat="43.66025" lon="-0.1617">
        <ele>108.80000305176</ele>
        <time>2020-07-06T12:16:56.000Z</time>
      </trkpt>
      <trkpt lat="43.66044" lon="-0.16169">
        <ele>109</ele>
        <time>2020-07-06T12:17:00.000Z</time>
      </trkpt>
      <trkpt lat="43.66051" lon="-0.1617">
        <ele>109</ele>
        <time>2020-07-06T12:17:02.000Z</time>
      </trkpt>
      <trkpt lat="43.66063" lon="-0.16172">
        <ele>109.19999694824</ele>
        <time>2020-07-06T12:17:08.000Z</time>
      </trkpt>
      <trkpt lat="43.66066" lon="-0.16172">
        <ele>109.19999694824</ele>
        <time>2020-07-06T12:17:16.000Z</time>
      </trkpt>
      <trkpt lat="43.66068" lon="-0.16171">
        <ele>109.19999694824</ele>
        <time>2020-07-06T12:17:17.000Z</time>
      </trkpt>
      <trkpt lat="43.66078" lon="-0.16166">
        <ele>109.19999694824</ele>
        <time>2020-07-06T12:17:21.000Z</time>
      </trkpt>
      <trkpt lat="43.66083" lon="-0.16167">
        <ele>109.19999694824</ele>
        <time>2020-07-06T12:17:23.000Z</time>
      </trkpt>
      <trkpt lat="43.66103" lon="-0.16168">
        <ele>109</ele>
        <time>2020-07-06T12:17:28.000Z</time>
      </trkpt>
      <trkpt lat="43.66133" lon="-0.16175">
        <ele>109.19999694824</ele>
        <time>2020-07-06T12:17:35.000Z</time>
      </trkpt>
      <trkpt lat="43.66138" lon="-0.16177">
        <ele>109.19999694824</ele>
        <time>2020-07-06T12:17:36.000Z</time>
      </trkpt>
      <trkpt lat="43.6615" lon="-0.16186">
        <ele>109.40000152588</ele>
        <time>2020-07-06T12:17:39.000Z</time>
      </trkpt>
      <trkpt lat="43.66154" lon="-0.1619">
        <ele>109.40000152588</ele>
        <time>2020-07-06T12:17:40.000Z</time>
      </trkpt>
      <trkpt lat="43.66178" lon="-0.16221">
        <ele>108.59999847412</ele>
        <time>2020-07-06T12:17:47.000Z</time>
      </trkpt>
      <trkpt lat="43.66185" lon="-0.16223">
        <ele>108.59999847412</ele>
        <time>2020-07-06T12:17:49.000Z</time>
      </trkpt>
      <trkpt lat="43.66187" lon="-0.16222">
        <ele>108.59999847412</ele>
        <time>2020-07-06T12:17:50.000Z</time>
      </trkpt>
      <trkpt lat="43.66188" lon="-0.16218">
        <ele>108.80000305176</ele>
        <time>2020-07-06T12:17:53.000Z</time>
      </trkpt>
      <trkpt lat="43.66192" lon="-0.16199">
        <ele>108.80000305176</ele>
        <time>2020-07-06T12:17:58.000Z</time>
      </trkpt>
      <trkpt lat="43.66202" lon="-0.16174">
        <ele>109</ele>
        <time>2020-07-06T12:18:03.000Z</time>
      </trkpt>
      <trkpt lat="43.66214" lon="-0.16145">
        <ele>108.59999847412</ele>
        <time>2020-07-06T12:18:08.000Z</time>
      </trkpt>
      <trkpt lat="43.66219" lon="-0.16134">
        <ele>109</ele>
        <time>2020-07-06T12:18:10.000Z</time>
      </trkpt>
      <trkpt lat="43.66227" lon="-0.16133">
        <ele>109</ele>
        <time>2020-07-06T12:18:12.000Z</time>
      </trkpt>
      <trkpt lat="43.66229" lon="-0.16136">
        <ele>109</ele>
        <time>2020-07-06T12:18:13.000Z</time>
      </trkpt>
      <trkpt lat="43.66232" lon="-0.16144">
        <ele>109.19999694824</ele>
        <time>2020-07-06T12:18:15.000Z</time>
      </trkpt>
      <trkpt lat="43.66237" lon="-0.16155">
        <ele>109.40000152588</ele>
        <time>2020-07-06T12:18:17.000Z</time>
      </trkpt>
      <trkpt lat="43.66247" lon="-0.16173">
        <ele>109.40000152588</ele>
        <time>2020-07-06T12:18:20.000Z</time>
      </trkpt>
      <trkpt lat="43.6625" lon="-0.16178">
        <ele>109</ele>
        <time>2020-07-06T12:18:21.000Z</time>
      </trkpt>
      <trkpt lat="43.66262" lon="-0.16196">
        <ele>108.59999847412</ele>
        <time>2020-07-06T12:18:24.000Z</time>
      </trkpt>
      <trkpt lat="43.66269" lon="-0.16203">
        <ele>108.40000152588</ele>
        <time>2020-07-06T12:18:26.000Z</time>
      </trkpt>
      <trkpt lat="43.66278" lon="-0.16212">
        <ele>108.40000152588</ele>
        <time>2020-07-06T12:18:28.000Z</time>
      </trkpt>
      <trkpt lat="43.66284" lon="-0.16224">
        <ele>108</ele>
        <time>2020-07-06T12:18:30.000Z</time>
      </trkpt>
      <trkpt lat="43.6629" lon="-0.16235">
        <ele>107.80000305176</ele>
        <time>2020-07-06T12:18:32.000Z</time>
      </trkpt>
      <trkpt lat="43.66306" lon="-0.16274">
        <ele>107.19999694824</ele>
        <time>2020-07-06T12:18:38.000Z</time>
      </trkpt>
      <trkpt lat="43.66309" lon="-0.16282">
        <ele>106.80000305176</ele>
        <time>2020-07-06T12:18:39.000Z</time>
      </trkpt>
      <trkpt lat="43.66311" lon="-0.1629">
        <ele>106.80000305176</ele>
        <time>2020-07-06T12:18:40.000Z</time>
      </trkpt>
      <trkpt lat="43.66318" lon="-0.16322">
        <ele>106.40000152588</ele>
        <time>2020-07-06T12:18:44.000Z</time>
      </trkpt>
      <trkpt lat="43.66327" lon="-0.16401">
        <ele>105.59999847412</ele>
        <time>2020-07-06T12:18:53.000Z</time>
      </trkpt>
      <trkpt lat="43.66333" lon="-0.16456">
        <ele>105</ele>
        <time>2020-07-06T12:18:59.000Z</time>
      </trkpt>
      <trkpt lat="43.66339" lon="-0.16474">
        <ele>105.40000152588</ele>
        <time>2020-07-06T12:19:01.000Z</time>
      </trkpt>
      <trkpt lat="43.66362" lon="-0.16511">
        <ele>105</ele>
        <time>2020-07-06T12:19:06.000Z</time>
      </trkpt>
      <trkpt lat="43.66397" lon="-0.16567">
        <ele>105.19999694824</ele>
        <time>2020-07-06T12:19:14.000Z</time>
      </trkpt>
      <trkpt lat="43.66428" lon="-0.16628">
        <ele>105.40000152588</ele>
        <time>2020-07-06T12:19:22.000Z</time>
      </trkpt>
      <trkpt lat="43.66435" lon="-0.16645">
        <ele>105.40000152588</ele>
        <time>2020-07-06T12:19:24.000Z</time>
      </trkpt>
      <trkpt lat="43.66466" lon="-0.16714">
        <ele>105</ele>
        <time>2020-07-06T12:19:33.000Z</time>
      </trkpt>
      <trkpt lat="43.66474" lon="-0.16731">
        <ele>105</ele>
        <time>2020-07-06T12:19:35.000Z</time>
      </trkpt>
      <trkpt lat="43.665" lon="-0.16781">
        <ele>105.19999694824</ele>
        <time>2020-07-06T12:19:42.000Z</time>
      </trkpt>
      <trkpt lat="43.66505" lon="-0.16787">
        <ele>105.19999694824</ele>
        <time>2020-07-06T12:19:43.000Z</time>
      </trkpt>
      <trkpt lat="43.66528" lon="-0.16806">
        <ele>105.19999694824</ele>
        <time>2020-07-06T12:19:47.000Z</time>
      </trkpt>
      <trkpt lat="43.66547" lon="-0.16821">
        <ele>105.40000152588</ele>
        <time>2020-07-06T12:19:50.000Z</time>
      </trkpt>
      <trkpt lat="43.66556" lon="-0.16833">
        <ele>105.19999694824</ele>
        <time>2020-07-06T12:19:52.000Z</time>
      </trkpt>
      <trkpt lat="43.66562" lon="-0.16841">
        <ele>105.19999694824</ele>
        <time>2020-07-06T12:19:53.000Z</time>
      </trkpt>
      <trkpt lat="43.66596" lon="-0.16899">
        <ele>105</ele>
        <time>2020-07-06T12:20:01.000Z</time>
      </trkpt>
      <trkpt lat="43.666" lon="-0.16909">
        <ele>105</ele>
        <time>2020-07-06T12:20:02.000Z</time>
      </trkpt>
      <trkpt lat="43.66631" lon="-0.16973">
        <ele>105.40000152588</ele>
        <time>2020-07-06T12:20:10.000Z</time>
      </trkpt>
      <trkpt lat="43.66667" lon="-0.17036">
        <ele>105.19999694824</ele>
        <time>2020-07-06T12:20:18.000Z</time>
      </trkpt>
      <trkpt lat="43.66689" lon="-0.17075">
        <ele>105</ele>
        <time>2020-07-06T12:20:23.000Z</time>
      </trkpt>
      <trkpt lat="43.66701" lon="-0.17096">
        <ele>105</ele>
        <time>2020-07-06T12:20:26.000Z</time>
      </trkpt>
      <trkpt lat="43.66714" lon="-0.17107">
        <ele>105.19999694824</ele>
        <time>2020-07-06T12:20:28.000Z</time>
      </trkpt>
      <trkpt lat="43.66726" lon="-0.17112">
        <ele>105.19999694824</ele>
        <time>2020-07-06T12:20:30.000Z</time>
      </trkpt>
      <trkpt lat="43.66742" lon="-0.17114">
        <ele>105.19999694824</ele>
        <time>2020-07-06T12:20:32.000Z</time>
      </trkpt>
      <trkpt lat="43.66782" lon="-0.17124">
        <ele>105.40000152588</ele>
        <time>2020-07-06T12:20:38.000Z</time>
      </trkpt>
      <trkpt lat="43.66837" lon="-0.17143">
        <ele>105.59999847412</ele>
        <time>2020-07-06T12:20:46.000Z</time>
      </trkpt>
      <trkpt lat="43.66849" lon="-0.1715">
        <ele>105.59999847412</ele>
        <time>2020-07-06T12:20:48.000Z</time>
      </trkpt>
      <trkpt lat="43.66861" lon="-0.17163">
        <ele>105.59999847412</ele>
        <time>2020-07-06T12:20:50.000Z</time>
      </trkpt>
      <trkpt lat="43.66882" lon="-0.17202">
        <ele>105.19999694824</ele>
        <time>2020-07-06T12:20:55.000Z</time>
      </trkpt>
      <trkpt lat="43.66896" lon="-0.17236">
        <ele>105</ele>
        <time>2020-07-06T12:20:59.000Z</time>
      </trkpt>
      <trkpt lat="43.669" lon="-0.17253">
        <ele>105</ele>
        <time>2020-07-06T12:21:01.000Z</time>
      </trkpt>
      <trkpt lat="43.66904" lon="-0.17275">
        <ele>105.19999694824</ele>
        <time>2020-07-06T12:21:03.000Z</time>
      </trkpt>
      <trkpt lat="43.66904" lon="-0.17292">
        <ele>105</ele>
        <time>2020-07-06T12:21:05.000Z</time>
      </trkpt>
      <trkpt lat="43.66899" lon="-0.17334">
        <ele>105</ele>
        <time>2020-07-06T12:21:10.000Z</time>
      </trkpt>
      <trkpt lat="43.66897" lon="-0.17341">
        <ele>105</ele>
        <time>2020-07-06T12:21:11.000Z</time>
      </trkpt>
      <trkpt lat="43.66887" lon="-0.17371">
        <ele>105</ele>
        <time>2020-07-06T12:21:15.000Z</time>
      </trkpt>
      <trkpt lat="43.66888" lon="-0.17381">
        <ele>105</ele>
        <time>2020-07-06T12:21:16.000Z</time>
      </trkpt>
      <trkpt lat="43.66891" lon="-0.17393">
        <ele>105</ele>
        <time>2020-07-06T12:21:17.000Z</time>
      </trkpt>
      <trkpt lat="43.669" lon="-0.17409">
        <ele>105.19999694824</ele>
        <time>2020-07-06T12:21:19.000Z</time>
      </trkpt>
      <trkpt lat="43.66934" lon="-0.17469">
        <ele>105</ele>
        <time>2020-07-06T12:21:26.000Z</time>
      </trkpt>
      <trkpt lat="43.66955" lon="-0.17501">
        <ele>104.40000152588</ele>
        <time>2020-07-06T12:21:30.000Z</time>
      </trkpt>
      <trkpt lat="43.6696" lon="-0.17508">
        <ele>104.40000152588</ele>
        <time>2020-07-06T12:21:31.000Z</time>
      </trkpt>
      <trkpt lat="43.66999" lon="-0.17572">
        <ele>103.80000305176</ele>
        <time>2020-07-06T12:21:39.000Z</time>
      </trkpt>
      <trkpt lat="43.67004" lon="-0.1758">
        <ele>103.80000305176</ele>
        <time>2020-07-06T12:21:40.000Z</time>
      </trkpt>
      <trkpt lat="43.67034" lon="-0.17626">
        <ele>103.40000152588</ele>
        <time>2020-07-06T12:21:46.000Z</time>
      </trkpt>
      <trkpt lat="43.67045" lon="-0.17638">
        <ele>103.40000152588</ele>
        <time>2020-07-06T12:21:48.000Z</time>
      </trkpt>
      <trkpt lat="43.67084" lon="-0.17668">
        <ele>103.40000152588</ele>
        <time>2020-07-06T12:21:54.000Z</time>
      </trkpt>
      <trkpt lat="43.67132" lon="-0.17702">
        <ele>104.19999694824</ele>
        <time>2020-07-06T12:22:02.000Z</time>
      </trkpt>
      <trkpt lat="43.67144" lon="-0.17711">
        <ele>104.40000152588</ele>
        <time>2020-07-06T12:22:05.000Z</time>
      </trkpt>
      <trkpt lat="43.67193" lon="-0.17751">
        <ele>104.19999694824</ele>
        <time>2020-07-06T12:22:12.000Z</time>
      </trkpt>
      <trkpt lat="43.67204" lon="-0.17761">
        <ele>104.19999694824</ele>
        <time>2020-07-06T12:22:14.000Z</time>
      </trkpt>
      <trkpt lat="43.67242" lon="-0.17789">
        <ele>104.40000152588</ele>
        <time>2020-07-06T12:22:20.000Z</time>
      </trkpt>
      <trkpt lat="43.67249" lon="-0.17793">
        <ele>104.40000152588</ele>
        <time>2020-07-06T12:22:21.000Z</time>
      </trkpt>
      <trkpt lat="43.67296" lon="-0.17822">
        <ele>104.40000152588</ele>
        <time>2020-07-06T12:22:28.000Z</time>
      </trkpt>
      <trkpt lat="43.67304" lon="-0.17839">
        <ele>104.19999694824</ele>
        <time>2020-07-06T12:22:30.000Z</time>
      </trkpt>
      <trkpt lat="43.67303" lon="-0.17859">
        <ele>104.19999694824</ele>
        <time>2020-07-06T12:22:32.000Z</time>
      </trkpt>
      <trkpt lat="43.67301" lon="-0.17869">
        <ele>104.19999694824</ele>
        <time>2020-07-06T12:22:33.000Z</time>
      </trkpt>
      <trkpt lat="43.67281" lon="-0.1795">
        <ele>104.40000152588</ele>
        <time>2020-07-06T12:22:41.000Z</time>
      </trkpt>
      <trkpt lat="43.67279" lon="-0.1796">
        <ele>104.40000152588</ele>
        <time>2020-07-06T12:22:42.000Z</time>
      </trkpt>
      <trkpt lat="43.67265" lon="-0.18031">
        <ele>104.40000152588</ele>
        <time>2020-07-06T12:22:49.000Z</time>
      </trkpt>
      <trkpt lat="43.67263" lon="-0.18043">
        <ele>104.40000152588</ele>
        <time>2020-07-06T12:22:50.000Z</time>
      </trkpt>
      <trkpt lat="43.67265" lon="-0.18062">
        <ele>104.19999694824</ele>
        <time>2020-07-06T12:22:52.000Z</time>
      </trkpt>
      <trkpt lat="43.67273" lon="-0.18075">
        <ele>104</ele>
        <time>2020-07-06T12:22:54.000Z</time>
      </trkpt>
      <trkpt lat="43.67293" lon="-0.18079">
        <ele>103.80000305176</ele>
        <time>2020-07-06T12:22:57.000Z</time>
      </trkpt>
      <trkpt lat="43.67302" lon="-0.18087">
        <ele>103.80000305176</ele>
        <time>2020-07-06T12:22:59.000Z</time>
      </trkpt>
      <trkpt lat="43.67304" lon="-0.18094">
        <ele>103.80000305176</ele>
        <time>2020-07-06T12:23:00.000Z</time>
      </trkpt>
      <trkpt lat="43.67299" lon="-0.18136">
        <ele>104.19999694824</ele>
        <time>2020-07-06T12:23:05.000Z</time>
      </trkpt>
      <trkpt lat="43.67295" lon="-0.18159">
        <ele>104.40000152588</ele>
        <time>2020-07-06T12:23:08.000Z</time>
      </trkpt>
      <trkpt lat="43.67296" lon="-0.18176">
        <ele>104.59999847412</ele>
        <time>2020-07-06T12:23:10.000Z</time>
      </trkpt>
      <trkpt lat="43.67296" lon="-0.18185">
        <ele>104.59999847412</ele>
        <time>2020-07-06T12:23:11.000Z</time>
      </trkpt>
      <trkpt lat="43.67295" lon="-0.18204">
        <ele>104.59999847412</ele>
        <time>2020-07-06T12:23:13.000Z</time>
      </trkpt>
      <trkpt lat="43.67293" lon="-0.18213">
        <ele>104.59999847412</ele>
        <time>2020-07-06T12:23:14.000Z</time>
      </trkpt>
      <trkpt lat="43.67291" lon="-0.18222">
        <ele>104.59999847412</ele>
        <time>2020-07-06T12:23:15.000Z</time>
      </trkpt>
      <trkpt lat="43.67292" lon="-0.1824">
        <ele>104.40000152588</ele>
        <time>2020-07-06T12:23:17.000Z</time>
      </trkpt>
      <trkpt lat="43.673" lon="-0.18259">
        <ele>104.19999694824</ele>
        <time>2020-07-06T12:23:19.000Z</time>
      </trkpt>
      <trkpt lat="43.67306" lon="-0.18266">
        <ele>104.19999694824</ele>
        <time>2020-07-06T12:23:20.000Z</time>
      </trkpt>
      <trkpt lat="43.67318" lon="-0.18279">
        <ele>103.80000305176</ele>
        <time>2020-07-06T12:23:22.000Z</time>
      </trkpt>
      <trkpt lat="43.67333" lon="-0.18303">
        <ele>103.80000305176</ele>
        <time>2020-07-06T12:23:25.000Z</time>
      </trkpt>
      <trkpt lat="43.6734" lon="-0.18319">
        <ele>103.80000305176</ele>
        <time>2020-07-06T12:23:27.000Z</time>
      </trkpt>
      <trkpt lat="43.67346" lon="-0.18338">
        <ele>103.80000305176</ele>
        <time>2020-07-06T12:23:29.000Z</time>
      </trkpt>
      <trkpt lat="43.67351" lon="-0.18391">
        <ele>104</ele>
        <time>2020-07-06T12:23:34.000Z</time>
      </trkpt>
      <trkpt lat="43.67359" lon="-0.18461">
        <ele>104</ele>
        <time>2020-07-06T12:23:41.000Z</time>
      </trkpt>
      <trkpt lat="43.67363" lon="-0.1847">
        <ele>104</ele>
        <time>2020-07-06T12:23:42.000Z</time>
      </trkpt>
      <trkpt lat="43.67369" lon="-0.18478">
        <ele>104</ele>
        <time>2020-07-06T12:23:43.000Z</time>
      </trkpt>
      <trkpt lat="43.67375" lon="-0.18482">
        <ele>104</ele>
        <time>2020-07-06T12:23:44.000Z</time>
      </trkpt>
      <trkpt lat="43.67388" lon="-0.18482">
        <ele>103.80000305176</ele>
        <time>2020-07-06T12:23:46.000Z</time>
      </trkpt>
      <trkpt lat="43.67412" lon="-0.18478">
        <ele>103.59999847412</ele>
        <time>2020-07-06T12:23:49.000Z</time>
      </trkpt>
      <trkpt lat="43.67419" lon="-0.18479">
        <ele>103.40000152588</ele>
        <time>2020-07-06T12:23:50.000Z</time>
      </trkpt>
      <trkpt lat="43.67426" lon="-0.18481">
        <ele>103.40000152588</ele>
        <time>2020-07-06T12:23:51.000Z</time>
      </trkpt>
      <trkpt lat="43.67442" lon="-0.18491">
        <ele>103.19999694824</ele>
        <time>2020-07-06T12:23:53.000Z</time>
      </trkpt>
      <trkpt lat="43.67471" lon="-0.18511">
        <ele>102.80000305176</ele>
        <time>2020-07-06T12:23:57.000Z</time>
      </trkpt>
      <trkpt lat="43.67477" lon="-0.18512">
        <ele>102.80000305176</ele>
        <time>2020-07-06T12:23:58.000Z</time>
      </trkpt>
      <trkpt lat="43.67486" lon="-0.18511">
        <ele>102.80000305176</ele>
        <time>2020-07-06T12:23:59.000Z</time>
      </trkpt>
      <trkpt lat="43.675" lon="-0.18508">
        <ele>102.80000305176</ele>
        <time>2020-07-06T12:24:01.000Z</time>
      </trkpt>
      <trkpt lat="43.67518" lon="-0.18513">
        <ele>102.59999847412</ele>
        <time>2020-07-06T12:24:03.000Z</time>
      </trkpt>
      <trkpt lat="43.67525" lon="-0.18519">
        <ele>102.59999847412</ele>
        <time>2020-07-06T12:24:04.000Z</time>
      </trkpt>
      <trkpt lat="43.67562" lon="-0.18557">
        <ele>102.40000152588</ele>
        <time>2020-07-06T12:24:10.000Z</time>
      </trkpt>
      <trkpt lat="43.67568" lon="-0.18565">
        <ele>102.19999694824</ele>
        <time>2020-07-06T12:24:11.000Z</time>
      </trkpt>
      <trkpt lat="43.67594" lon="-0.18607">
        <ele>102.19999694824</ele>
        <time>2020-07-06T12:24:16.000Z</time>
      </trkpt>
      <trkpt lat="43.67609" lon="-0.18615">
        <ele>102.19999694824</ele>
        <time>2020-07-06T12:24:18.000Z</time>
      </trkpt>
      <trkpt lat="43.67615" lon="-0.18616">
        <ele>102</ele>
        <time>2020-07-06T12:24:19.000Z</time>
      </trkpt>
      <trkpt lat="43.67622" lon="-0.18617">
        <ele>102</ele>
        <time>2020-07-06T12:24:20.000Z</time>
      </trkpt>
      <trkpt lat="43.67636" lon="-0.18629">
        <ele>102</ele>
        <time>2020-07-06T12:24:22.000Z</time>
      </trkpt>
      <trkpt lat="43.67652" lon="-0.18666">
        <ele>102.19999694824</ele>
        <time>2020-07-06T12:24:26.000Z</time>
      </trkpt>
      <trkpt lat="43.67673" lon="-0.1871">
        <ele>102.19999694824</ele>
        <time>2020-07-06T12:24:31.000Z</time>
      </trkpt>
      <trkpt lat="43.67678" lon="-0.18717">
        <ele>102.19999694824</ele>
        <time>2020-07-06T12:24:32.000Z</time>
      </trkpt>
      <trkpt lat="43.67684" lon="-0.1872">
        <ele>102.40000152588</ele>
        <time>2020-07-06T12:24:33.000Z</time>
      </trkpt>
      <trkpt lat="43.677" lon="-0.18725">
        <ele>102.19999694824</ele>
        <time>2020-07-06T12:24:35.000Z</time>
      </trkpt>
      <trkpt lat="43.67708" lon="-0.18728">
        <ele>102.19999694824</ele>
        <time>2020-07-06T12:24:36.000Z</time>
      </trkpt>
      <trkpt lat="43.67719" lon="-0.18739">
        <ele>102.19999694824</ele>
        <time>2020-07-06T12:24:38.000Z</time>
      </trkpt>
      <trkpt lat="43.67743" lon="-0.18781">
        <ele>102.19999694824</ele>
        <time>2020-07-06T12:24:43.000Z</time>
      </trkpt>
      <trkpt lat="43.67781" lon="-0.1884">
        <ele>102.40000152588</ele>
        <time>2020-07-06T12:24:50.000Z</time>
      </trkpt>
      <trkpt lat="43.67785" lon="-0.18849">
        <ele>102.40000152588</ele>
        <time>2020-07-06T12:24:51.000Z</time>
      </trkpt>
      <trkpt lat="43.67806" lon="-0.1889">
        <ele>102.40000152588</ele>
        <time>2020-07-06T12:24:56.000Z</time>
      </trkpt>
      <trkpt lat="43.6781" lon="-0.18895">
        <ele>102.40000152588</ele>
        <time>2020-07-06T12:24:57.000Z</time>
      </trkpt>
      <trkpt lat="43.67816" lon="-0.18898">
        <ele>102.40000152588</ele>
        <time>2020-07-06T12:24:58.000Z</time>
      </trkpt>
      <trkpt lat="43.67823" lon="-0.18899">
        <ele>102.19999694824</ele>
        <time>2020-07-06T12:24:59.000Z</time>
      </trkpt>
      <trkpt lat="43.67859" lon="-0.18886">
        <ele>102.19999694824</ele>
        <time>2020-07-06T12:25:04.000Z</time>
      </trkpt>
      <trkpt lat="43.67915" lon="-0.18862">
        <ele>102</ele>
        <time>2020-07-06T12:25:12.000Z</time>
      </trkpt>
      <trkpt lat="43.67949" lon="-0.18848">
        <ele>101.59999847412</ele>
        <time>2020-07-06T12:25:17.000Z</time>
      </trkpt>
      <trkpt lat="43.67985" lon="-0.18834">
        <ele>101.80000305176</ele>
        <time>2020-07-06T12:25:23.000Z</time>
      </trkpt>
      <trkpt lat="43.67994" lon="-0.18832">
        <ele>102.19999694824</ele>
        <time>2020-07-06T12:25:26.000Z</time>
      </trkpt>
      <trkpt lat="43.67994" lon="-0.18831">
        <ele>102.59999847412</ele>
        <time>2020-07-06T12:25:27.000Z</time>
      </trkpt>
      <trkpt lat="43.67992" lon="-0.1883">
        <ele>103.19999694824</ele>
        <time>2020-07-06T12:25:29.000Z</time>
      </trkpt>
      <trkpt lat="43.67992" lon="-0.1883">
        <ele>103.80000305176</ele>
        <time>2020-07-06T12:25:31.000Z</time>
      </trkpt>
      <trkpt lat="43.67993" lon="-0.18829">
        <ele>104.19999694824</ele>
        <time>2020-07-06T12:25:36.000Z</time>
      </trkpt>
      <trkpt lat="43.67993" lon="-0.18829">
        <ele>104.40000152588</ele>
        <time>2020-07-06T12:25:38.000Z</time>
      </trkpt>
      <trkpt lat="43.67993" lon="-0.18829">
        <ele>104.19999694824</ele>
        <time>2020-07-06T12:25:57.000Z</time>
      </trkpt>
      <trkpt lat="43.67997" lon="-0.18831">
        <ele>104.19999694824</ele>
        <time>2020-07-06T12:26:00.000Z</time>
      </trkpt>
      <trkpt lat="43.68002" lon="-0.18844">
        <ele>104</ele>
        <time>2020-07-06T12:26:05.000Z</time>
      </trkpt>
      <trkpt lat="43.6801" lon="-0.18864">
        <ele>103.19999694824</ele>
        <time>2020-07-06T12:26:09.000Z</time>
      </trkpt>
      <trkpt lat="43.68012" lon="-0.1887">
        <ele>103</ele>
        <time>2020-07-06T12:26:10.000Z</time>
      </trkpt>
      <trkpt lat="43.68026" lon="-0.18917">
        <ele>102.80000305176</ele>
        <time>2020-07-06T12:26:17.000Z</time>
      </trkpt>
      <trkpt lat="43.68038" lon="-0.1897">
        <ele>103</ele>
        <time>2020-07-06T12:26:24.000Z</time>
      </trkpt>
      <trkpt lat="43.68047" lon="-0.19036">
        <ele>102.80000305176</ele>
        <time>2020-07-06T12:26:32.000Z</time>
      </trkpt>
      <trkpt lat="43.68052" lon="-0.19065">
        <ele>102.59999847412</ele>
        <time>2020-07-06T12:26:35.000Z</time>
      </trkpt>
      <trkpt lat="43.6806" lon="-0.1909">
        <ele>103</ele>
        <time>2020-07-06T12:26:38.000Z</time>
      </trkpt>
      <trkpt lat="43.6808" lon="-0.19157">
        <ele>103</ele>
        <time>2020-07-06T12:26:45.000Z</time>
      </trkpt>
      <trkpt lat="43.68086" lon="-0.19174">
        <ele>103</ele>
        <time>2020-07-06T12:26:47.000Z</time>
      </trkpt>
      <trkpt lat="43.68097" lon="-0.1919">
        <ele>102.80000305176</ele>
        <time>2020-07-06T12:26:49.000Z</time>
      </trkpt>
      <trkpt lat="43.6811" lon="-0.19195">
        <ele>102.59999847412</ele>
        <time>2020-07-06T12:26:51.000Z</time>
      </trkpt>
      <trkpt lat="43.68117" lon="-0.19196">
        <ele>102.59999847412</ele>
        <time>2020-07-06T12:26:52.000Z</time>
      </trkpt>
      <trkpt lat="43.68164" lon="-0.19198">
        <ele>102.19999694824</ele>
        <time>2020-07-06T12:26:58.000Z</time>
      </trkpt>
      <trkpt lat="43.68207" lon="-0.19215">
        <ele>102.19999694824</ele>
        <time>2020-07-06T12:27:04.000Z</time>
      </trkpt>
      <trkpt lat="43.68232" lon="-0.19232">
        <ele>102</ele>
        <time>2020-07-06T12:27:08.000Z</time>
      </trkpt>
      <trkpt lat="43.68266" lon="-0.19256">
        <ele>101.80000305176</ele>
        <time>2020-07-06T12:27:13.000Z</time>
      </trkpt>
      <trkpt lat="43.68282" lon="-0.19267">
        <ele>101.80000305176</ele>
        <time>2020-07-06T12:27:16.000Z</time>
      </trkpt>
      <trkpt lat="43.68288" lon="-0.19269">
        <ele>101.80000305176</ele>
        <time>2020-07-06T12:27:17.000Z</time>
      </trkpt>
      <trkpt lat="43.68293" lon="-0.19271">
        <ele>101.80000305176</ele>
        <time>2020-07-06T12:27:18.000Z</time>
      </trkpt>
      <trkpt lat="43.683" lon="-0.19272">
        <ele>102</ele>
        <time>2020-07-06T12:27:21.000Z</time>
      </trkpt>
      <trkpt lat="43.68308" lon="-0.1927">
        <ele>102.19999694824</ele>
        <time>2020-07-06T12:27:26.000Z</time>
      </trkpt>
      <trkpt lat="43.68309" lon="-0.1927">
        <ele>102.40000152588</ele>
        <time>2020-07-06T12:27:30.000Z</time>
      </trkpt>
      <trkpt lat="43.68315" lon="-0.19267">
        <ele>102.19999694824</ele>
        <time>2020-07-06T12:28:18.000Z</time>
      </trkpt>
      <trkpt lat="43.68326" lon="-0.19257">
        <ele>102.19999694824</ele>
        <time>2020-07-06T12:28:22.000Z</time>
      </trkpt>
      <trkpt lat="43.68339" lon="-0.19246">
        <ele>102</ele>
        <time>2020-07-06T12:28:25.000Z</time>
      </trkpt>
      <trkpt lat="43.68347" lon="-0.19239">
        <ele>102</ele>
        <time>2020-07-06T12:28:27.000Z</time>
      </trkpt>
      <trkpt lat="43.68386" lon="-0.19209">
        <ele>102</ele>
        <time>2020-07-06T12:28:35.000Z</time>
      </trkpt>
      <trkpt lat="43.68428" lon="-0.19176">
        <ele>102.19999694824</ele>
        <time>2020-07-06T12:28:43.000Z</time>
      </trkpt>
      <trkpt lat="43.68474" lon="-0.19141">
        <ele>102.59999847412</ele>
        <time>2020-07-06T12:28:51.000Z</time>
      </trkpt>
      <trkpt lat="43.68523" lon="-0.19103">
        <ele>103</ele>
        <time>2020-07-06T12:29:00.000Z</time>
      </trkpt>
      <trkpt lat="43.68541" lon="-0.1909">
        <ele>103.40000152588</ele>
        <time>2020-07-06T12:29:03.000Z</time>
      </trkpt>
      <trkpt lat="43.68562" lon="-0.19074">
        <ele>103.40000152588</ele>
        <time>2020-07-06T12:29:07.000Z</time>
      </trkpt>
      <trkpt lat="43.68583" lon="-0.19057">
        <ele>103.59999847412</ele>
        <time>2020-07-06T12:29:11.000Z</time>
      </trkpt>
      <trkpt lat="43.68606" lon="-0.1904">
        <ele>104.40000152588</ele>
        <time>2020-07-06T12:29:16.000Z</time>
      </trkpt>
      <trkpt lat="43.68611" lon="-0.19037">
        <ele>105.19999694824</ele>
        <time>2020-07-06T12:29:17.000Z</time>
      </trkpt>
      <trkpt lat="43.6862" lon="-0.19029">
        <ele>106</ele>
        <time>2020-07-06T12:29:19.000Z</time>
      </trkpt>
      <trkpt lat="43.6864" lon="-0.19015">
        <ele>107</ele>
        <time>2020-07-06T12:29:23.000Z</time>
      </trkpt>
      <trkpt lat="43.68655" lon="-0.19004">
        <ele>107.80000305176</ele>
        <time>2020-07-06T12:29:26.000Z</time>
      </trkpt>
      <trkpt lat="43.68696" lon="-0.18973">
        <ele>107.59999847412</ele>
        <time>2020-07-06T12:29:34.000Z</time>
      </trkpt>
      <trkpt lat="43.68744" lon="-0.18936">
        <ele>106.59999847412</ele>
        <time>2020-07-06T12:29:43.000Z</time>
      </trkpt>
      <trkpt lat="43.68751" lon="-0.1893">
        <ele>106.59999847412</ele>
        <time>2020-07-06T12:29:44.000Z</time>
      </trkpt>
      <trkpt lat="43.68801" lon="-0.18892">
        <ele>106.40000152588</ele>
        <time>2020-07-06T12:29:53.000Z</time>
      </trkpt>
      <trkpt lat="43.68824" lon="-0.18874">
        <ele>107</ele>
        <time>2020-07-06T12:29:58.000Z</time>
      </trkpt>
      <trkpt lat="43.68853" lon="-0.18851">
        <ele>107.19999694824</ele>
        <time>2020-07-06T12:30:04.000Z</time>
      </trkpt>
      <trkpt lat="43.68893" lon="-0.18823">
        <ele>108</ele>
        <time>2020-07-06T12:30:12.000Z</time>
      </trkpt>
      <trkpt lat="43.68898" lon="-0.18818">
        <ele>108</ele>
        <time>2020-07-06T12:30:13.000Z</time>
      </trkpt>
      <trkpt lat="43.68928" lon="-0.18793">
        <ele>108.19999694824</ele>
        <time>2020-07-06T12:30:20.000Z</time>
      </trkpt>
      <trkpt lat="43.68957" lon="-0.1877">
        <ele>108.40000152588</ele>
        <time>2020-07-06T12:30:27.000Z</time>
      </trkpt>
      <trkpt lat="43.69" lon="-0.18736">
        <ele>108.59999847412</ele>
        <time>2020-07-06T12:30:37.000Z</time>
      </trkpt>
      <trkpt lat="43.69009" lon="-0.18731">
        <ele>109.19999694824</ele>
        <time>2020-07-06T12:30:39.000Z</time>
      </trkpt>
      <trkpt lat="43.69013" lon="-0.18729">
        <ele>109.40000152588</ele>
        <time>2020-07-06T12:30:41.000Z</time>
      </trkpt>
      <trkpt lat="43.69014" lon="-0.18728">
        <ele>109.59999847412</ele>
        <time>2020-07-06T12:30:44.000Z</time>
      </trkpt>
      <trkpt lat="43.69014" lon="-0.18728">
        <ele>110</ele>
        <time>2020-07-06T12:31:30.000Z</time>
      </trkpt>
      <trkpt lat="43.69015" lon="-0.18727">
        <ele>110</ele>
        <time>2020-07-06T12:31:42.000Z</time>
      </trkpt>
      <trkpt lat="43.69019" lon="-0.18723">
        <ele>110</ele>
        <time>2020-07-06T12:31:44.000Z</time>
      </trkpt>
      <trkpt lat="43.69031" lon="-0.18713">
        <ele>109.80000305176</ele>
        <time>2020-07-06T12:31:48.000Z</time>
      </trkpt>
      <trkpt lat="43.69056" lon="-0.18693">
        <ele>109.40000152588</ele>
        <time>2020-07-06T12:31:53.000Z</time>
      </trkpt>
      <trkpt lat="43.69062" lon="-0.18689">
        <ele>109</ele>
        <time>2020-07-06T12:31:54.000Z</time>
      </trkpt>
      <trkpt lat="43.69093" lon="-0.18665">
        <ele>108.19999694824</ele>
        <time>2020-07-06T12:32:00.000Z</time>
      </trkpt>
      <trkpt lat="43.69142" lon="-0.18626">
        <ele>108.19999694824</ele>
        <time>2020-07-06T12:32:09.000Z</time>
      </trkpt>
      <trkpt lat="43.69147" lon="-0.18622">
        <ele>108.19999694824</ele>
        <time>2020-07-06T12:32:10.000Z</time>
      </trkpt>
      <trkpt lat="43.69188" lon="-0.18589">
        <ele>108.40000152588</ele>
        <time>2020-07-06T12:32:18.000Z</time>
      </trkpt>
      <trkpt lat="43.69205" lon="-0.18577">
        <ele>108.40000152588</ele>
        <time>2020-07-06T12:32:22.000Z</time>
      </trkpt>
      <trkpt lat="43.69208" lon="-0.18574">
        <ele>108.40000152588</ele>
        <time>2020-07-06T12:32:23.000Z</time>
      </trkpt>
      <trkpt lat="43.69212" lon="-0.18571">
        <ele>108.80000305176</ele>
        <time>2020-07-06T12:32:27.000Z</time>
      </trkpt>
      <trkpt lat="43.69214" lon="-0.18571">
        <ele>109</ele>
        <time>2020-07-06T12:32:30.000Z</time>
      </trkpt>
      <trkpt lat="43.69219" lon="-0.18569">
        <ele>109.40000152588</ele>
        <time>2020-07-06T12:32:33.000Z</time>
      </trkpt>
      <trkpt lat="43.69227" lon="-0.18567">
        <ele>109.40000152588</ele>
        <time>2020-07-06T12:32:37.000Z</time>
      </trkpt>
      <trkpt lat="43.69229" lon="-0.18566">
        <ele>109.80000305176</ele>
        <time>2020-07-06T12:32:41.000Z</time>
      </trkpt>
      <trkpt lat="43.6923" lon="-0.18566">
        <ele>110</ele>
        <time>2020-07-06T12:32:42.000Z</time>
      </trkpt>
      <trkpt lat="43.69232" lon="-0.18566">
        <ele>110.19999694824</ele>
        <time>2020-07-06T12:32:44.000Z</time>
      </trkpt>
      <trkpt lat="43.69235" lon="-0.18565">
        <ele>110.19999694824</ele>
        <time>2020-07-06T12:32:46.000Z</time>
      </trkpt>
      <trkpt lat="43.69236" lon="-0.18565">
        <ele>110</ele>
        <time>2020-07-06T12:32:47.000Z</time>
      </trkpt>
      <trkpt lat="43.69237" lon="-0.18565">
        <ele>110</ele>
        <time>2020-07-06T12:32:48.000Z</time>
      </trkpt>
      <trkpt lat="43.69239" lon="-0.18564">
        <ele>110.19999694824</ele>
        <time>2020-07-06T12:32:55.000Z</time>
      </trkpt>
      <trkpt lat="43.69239" lon="-0.18564">
        <ele>110.19999694824</ele>
        <time>2020-07-06T12:33:03.000Z</time>
      </trkpt>
      <trkpt lat="43.69239" lon="-0.18564">
        <ele>110.19999694824</ele>
        <time>2020-07-06T12:34:05.000Z</time>
      </trkpt>
      <trkpt lat="43.69239" lon="-0.18565">
        <ele>110.19999694824</ele>
        <time>2020-07-06T12:34:08.000Z</time>
      </trkpt>
      <trkpt lat="43.69239" lon="-0.18569">
        <ele>110.19999694824</ele>
        <time>2020-07-06T12:34:10.000Z</time>
      </trkpt>
      <trkpt lat="43.69242" lon="-0.18576">
        <ele>110</ele>
        <time>2020-07-06T12:34:12.000Z</time>
      </trkpt>
      <trkpt lat="43.69249" lon="-0.18594">
        <ele>109.80000305176</ele>
        <time>2020-07-06T12:34:16.000Z</time>
      </trkpt>
      <trkpt lat="43.69256" lon="-0.18618">
        <ele>109.19999694824</ele>
        <time>2020-07-06T12:34:20.000Z</time>
      </trkpt>
      <trkpt lat="43.69258" lon="-0.18625">
        <ele>109</ele>
        <time>2020-07-06T12:34:21.000Z</time>
      </trkpt>
      <trkpt lat="43.69275" lon="-0.1869">
        <ele>108.40000152588</ele>
        <time>2020-07-06T12:34:30.000Z</time>
      </trkpt>
      <trkpt lat="43.69278" lon="-0.18698">
        <ele>108.59999847412</ele>
        <time>2020-07-06T12:34:31.000Z</time>
      </trkpt>
      <trkpt lat="43.69287" lon="-0.18737">
        <ele>109</ele>
        <time>2020-07-06T12:34:36.000Z</time>
      </trkpt>
      <trkpt lat="43.69297" lon="-0.18775">
        <ele>109.19999694824</ele>
        <time>2020-07-06T12:34:41.000Z</time>
      </trkpt>
      <trkpt lat="43.69299" lon="-0.18783">
        <ele>109.19999694824</ele>
        <time>2020-07-06T12:34:42.000Z</time>
      </trkpt>
      <trkpt lat="43.69309" lon="-0.18822">
        <ele>109.19999694824</ele>
        <time>2020-07-06T12:34:47.000Z</time>
      </trkpt>
      <trkpt lat="43.69322" lon="-0.18867">
        <ele>109</ele>
        <time>2020-07-06T12:34:53.000Z</time>
      </trkpt>
      <trkpt lat="43.69328" lon="-0.18884">
        <ele>108.80000305176</ele>
        <time>2020-07-06T12:34:55.000Z</time>
      </trkpt>
      <trkpt lat="43.69329" lon="-0.18892">
        <ele>108.80000305176</ele>
        <time>2020-07-06T12:34:56.000Z</time>
      </trkpt>
      <trkpt lat="43.69331" lon="-0.18901">
        <ele>108.59999847412</ele>
        <time>2020-07-06T12:34:57.000Z</time>
      </trkpt>
      <trkpt lat="43.69338" lon="-0.18926">
        <ele>108.59999847412</ele>
        <time>2020-07-06T12:35:00.000Z</time>
      </trkpt>
      <trkpt lat="43.6934" lon="-0.18935">
        <ele>108.59999847412</ele>
        <time>2020-07-06T12:35:01.000Z</time>
      </trkpt>
      <trkpt lat="43.69342" lon="-0.18944">
        <ele>108.40000152588</ele>
        <time>2020-07-06T12:35:02.000Z</time>
      </trkpt>
      <trkpt lat="43.69347" lon="-0.1896">
        <ele>108.40000152588</ele>
        <time>2020-07-06T12:35:04.000Z</time>
      </trkpt>
      <trkpt lat="43.69351" lon="-0.18976">
        <ele>108.40000152588</ele>
        <time>2020-07-06T12:35:06.000Z</time>
      </trkpt>
      <trkpt lat="43.69358" lon="-0.19">
        <ele>108</ele>
        <time>2020-07-06T12:35:09.000Z</time>
      </trkpt>
      <trkpt lat="43.69364" lon="-0.19024">
        <ele>108.19999694824</ele>
        <time>2020-07-06T12:35:12.000Z</time>
      </trkpt>
      <trkpt lat="43.69381" lon="-0.19089">
        <ele>108.40000152588</ele>
        <time>2020-07-06T12:35:20.000Z</time>
      </trkpt>
      <trkpt lat="43.69396" lon="-0.19151">
        <ele>108.40000152588</ele>
        <time>2020-07-06T12:35:28.000Z</time>
      </trkpt>
      <trkpt lat="43.69415" lon="-0.19217">
        <ele>108.19999694824</ele>
        <time>2020-07-06T12:35:36.000Z</time>
      </trkpt>
      <trkpt lat="43.69431" lon="-0.19269">
        <ele>107.80000305176</ele>
        <time>2020-07-06T12:35:43.000Z</time>
      </trkpt>
      <trkpt lat="43.69437" lon="-0.19291">
        <ele>107.80000305176</ele>
        <time>2020-07-06T12:35:47.000Z</time>
      </trkpt>
      <trkpt lat="43.69447" lon="-0.19325">
        <ele>107.80000305176</ele>
        <time>2020-07-06T12:35:52.000Z</time>
      </trkpt>
      <trkpt lat="43.69463" lon="-0.19383">
        <ele>107.40000152588</ele>
        <time>2020-07-06T12:35:59.000Z</time>
      </trkpt>
      <trkpt lat="43.69471" lon="-0.1941">
        <ele>107</ele>
        <time>2020-07-06T12:36:02.000Z</time>
      </trkpt>
      <trkpt lat="43.69485" lon="-0.19458">
        <ele>107</ele>
        <time>2020-07-06T12:36:08.000Z</time>
      </trkpt>
      <trkpt lat="43.69502" lon="-0.19521">
        <ele>107.19999694824</ele>
        <time>2020-07-06T12:36:15.000Z</time>
      </trkpt>
      <trkpt lat="43.69524" lon="-0.196">
        <ele>106.59999847412</ele>
        <time>2020-07-06T12:36:24.000Z</time>
      </trkpt>
      <trkpt lat="43.69529" lon="-0.19618">
        <ele>106.59999847412</ele>
        <time>2020-07-06T12:36:26.000Z</time>
      </trkpt>
      <trkpt lat="43.6955" lon="-0.19691">
        <ele>106.80000305176</ele>
        <time>2020-07-06T12:36:34.000Z</time>
      </trkpt>
      <trkpt lat="43.6957" lon="-0.19762">
        <ele>107.40000152588</ele>
        <time>2020-07-06T12:36:42.000Z</time>
      </trkpt>
      <trkpt lat="43.69576" lon="-0.19782">
        <ele>107.19999694824</ele>
        <time>2020-07-06T12:36:44.000Z</time>
      </trkpt>
      <trkpt lat="43.69596" lon="-0.19854">
        <ele>107.19999694824</ele>
        <time>2020-07-06T12:36:52.000Z</time>
      </trkpt>
      <trkpt lat="43.69603" lon="-0.19881">
        <ele>107</ele>
        <time>2020-07-06T12:36:55.000Z</time>
      </trkpt>
      <trkpt lat="43.69606" lon="-0.1989">
        <ele>107</ele>
        <time>2020-07-06T12:36:56.000Z</time>
      </trkpt>
      <trkpt lat="43.69625" lon="-0.19962">
        <ele>106.80000305176</ele>
        <time>2020-07-06T12:37:04.000Z</time>
      </trkpt>
      <trkpt lat="43.69627" lon="-0.19969">
        <ele>106.80000305176</ele>
        <time>2020-07-06T12:37:05.000Z</time>
      </trkpt>
      <trkpt lat="43.69642" lon="-0.20034">
        <ele>106.59999847412</ele>
        <time>2020-07-06T12:37:12.000Z</time>
      </trkpt>
      <trkpt lat="43.69657" lon="-0.20095">
        <ele>106.40000152588</ele>
        <time>2020-07-06T12:37:19.000Z</time>
      </trkpt>
      <trkpt lat="43.69674" lon="-0.20167">
        <ele>106.40000152588</ele>
        <time>2020-07-06T12:37:27.000Z</time>
      </trkpt>
      <trkpt lat="43.69678" lon="-0.20185">
        <ele>106.40000152588</ele>
        <time>2020-07-06T12:37:29.000Z</time>
      </trkpt>
      <trkpt lat="43.69695" lon="-0.20261">
        <ele>106.40000152588</ele>
        <time>2020-07-06T12:37:38.000Z</time>
      </trkpt>
      <trkpt lat="43.69698" lon="-0.20278">
        <ele>106.40000152588</ele>
        <time>2020-07-06T12:37:40.000Z</time>
      </trkpt>
      <trkpt lat="43.69707" lon="-0.2031">
        <ele>106</ele>
        <time>2020-07-06T12:37:44.000Z</time>
      </trkpt>
      <trkpt lat="43.6972" lon="-0.20365">
        <ele>105.40000152588</ele>
        <time>2020-07-06T12:37:51.000Z</time>
      </trkpt>
      <trkpt lat="43.69717" lon="-0.20378">
        <ele>105.40000152588</ele>
        <time>2020-07-06T12:37:53.000Z</time>
      </trkpt>
      <trkpt lat="43.69697" lon="-0.20396">
        <ele>105.40000152588</ele>
        <time>2020-07-06T12:37:57.000Z</time>
      </trkpt>
      <trkpt lat="43.69663" lon="-0.20425">
        <ele>105.40000152588</ele>
        <time>2020-07-06T12:38:03.000Z</time>
      </trkpt>
      <trkpt lat="43.69638" lon="-0.20443">
        <ele>104.80000305176</ele>
        <time>2020-07-06T12:38:07.000Z</time>
      </trkpt>
      <trkpt lat="43.69603" lon="-0.20471">
        <ele>104.80000305176</ele>
        <time>2020-07-06T12:38:13.000Z</time>
      </trkpt>
      <trkpt lat="43.69556" lon="-0.20509">
        <ele>104.80000305176</ele>
        <time>2020-07-06T12:38:21.000Z</time>
      </trkpt>
      <trkpt lat="43.69551" lon="-0.20515">
        <ele>104.80000305176</ele>
        <time>2020-07-06T12:38:22.000Z</time>
      </trkpt>
      <trkpt lat="43.69547" lon="-0.20521">
        <ele>104.80000305176</ele>
        <time>2020-07-06T12:38:23.000Z</time>
      </trkpt>
      <trkpt lat="43.69546" lon="-0.20529">
        <ele>104.80000305176</ele>
        <time>2020-07-06T12:38:24.000Z</time>
      </trkpt>
      <trkpt lat="43.69547" lon="-0.20537">
        <ele>104.59999847412</ele>
        <time>2020-07-06T12:38:25.000Z</time>
      </trkpt>
      <trkpt lat="43.6955" lon="-0.20554">
        <ele>104.59999847412</ele>
        <time>2020-07-06T12:38:27.000Z</time>
      </trkpt>
      <trkpt lat="43.69547" lon="-0.20569">
        <ele>104.40000152588</ele>
        <time>2020-07-06T12:38:29.000Z</time>
      </trkpt>
      <trkpt lat="43.69539" lon="-0.2058">
        <ele>104.19999694824</ele>
        <time>2020-07-06T12:38:31.000Z</time>
      </trkpt>
      <trkpt lat="43.6953" lon="-0.20588">
        <ele>104.19999694824</ele>
        <time>2020-07-06T12:38:33.000Z</time>
      </trkpt>
      <trkpt lat="43.69514" lon="-0.20601">
        <ele>104.19999694824</ele>
        <time>2020-07-06T12:38:37.000Z</time>
      </trkpt>
      <trkpt lat="43.69512" lon="-0.20604">
        <ele>104.40000152588</ele>
        <time>2020-07-06T12:38:38.000Z</time>
      </trkpt>
      <trkpt lat="43.69496" lon="-0.20616">
        <ele>104.59999847412</ele>
        <time>2020-07-06T12:38:43.000Z</time>
      </trkpt>
      <trkpt lat="43.69478" lon="-0.20629">
        <ele>104.40000152588</ele>
        <time>2020-07-06T12:38:46.000Z</time>
      </trkpt>
      <trkpt lat="43.69454" lon="-0.20646">
        <ele>103.59999847412</ele>
        <time>2020-07-06T12:38:49.000Z</time>
      </trkpt>
      <trkpt lat="43.69446" lon="-0.20652">
        <ele>103.19999694824</ele>
        <time>2020-07-06T12:38:50.000Z</time>
      </trkpt>
      <trkpt lat="43.69438" lon="-0.20657">
        <ele>102.19999694824</ele>
        <time>2020-07-06T12:38:51.000Z</time>
      </trkpt>
      <trkpt lat="43.69422" lon="-0.20668">
        <ele>101</ele>
        <time>2020-07-06T12:38:53.000Z</time>
      </trkpt>
      <trkpt lat="43.69407" lon="-0.20679">
        <ele>99.800003051758</ele>
        <time>2020-07-06T12:38:55.000Z</time>
      </trkpt>
      <trkpt lat="43.69399" lon="-0.20684">
        <ele>99.400001525879</ele>
        <time>2020-07-06T12:38:56.000Z</time>
      </trkpt>
      <trkpt lat="43.69357" lon="-0.20712">
        <ele>99</ele>
        <time>2020-07-06T12:39:02.000Z</time>
      </trkpt>
      <trkpt lat="43.69352" lon="-0.20718">
        <ele>99</ele>
        <time>2020-07-06T12:39:03.000Z</time>
      </trkpt>
      <trkpt lat="43.6935" lon="-0.20723">
        <ele>99</ele>
        <time>2020-07-06T12:39:04.000Z</time>
      </trkpt>
      <trkpt lat="43.6935" lon="-0.20727">
        <ele>99</ele>
        <time>2020-07-06T12:39:05.000Z</time>
      </trkpt>
      <trkpt lat="43.69351" lon="-0.20731">
        <ele>99</ele>
        <time>2020-07-06T12:39:06.000Z</time>
      </trkpt>
      <trkpt lat="43.69359" lon="-0.20743">
        <ele>99.199996948242</ele>
        <time>2020-07-06T12:39:09.000Z</time>
      </trkpt>
      <trkpt lat="43.69367" lon="-0.20754">
        <ele>99.199996948242</ele>
        <time>2020-07-06T12:39:11.000Z</time>
      </trkpt>
      <trkpt lat="43.69376" lon="-0.20766">
        <ele>99.400001525879</ele>
        <time>2020-07-06T12:39:13.000Z</time>
      </trkpt>
      <trkpt lat="43.69414" lon="-0.20825">
        <ele>99.199996948242</ele>
        <time>2020-07-06T12:39:22.000Z</time>
      </trkpt>
      <trkpt lat="43.69417" lon="-0.20833">
        <ele>99</ele>
        <time>2020-07-06T12:39:23.000Z</time>
      </trkpt>
      <trkpt lat="43.6942" lon="-0.20841">
        <ele>98.800003051758</ele>
        <time>2020-07-06T12:39:24.000Z</time>
      </trkpt>
      <trkpt lat="43.69422" lon="-0.20847">
        <ele>98.800003051758</ele>
        <time>2020-07-06T12:39:25.000Z</time>
      </trkpt>
      <trkpt lat="43.69424" lon="-0.20857">
        <ele>98.599998474121</ele>
        <time>2020-07-06T12:39:26.000Z</time>
      </trkpt>
      <trkpt lat="43.69426" lon="-0.20866">
        <ele>98.599998474121</ele>
        <time>2020-07-06T12:39:27.000Z</time>
      </trkpt>
      <trkpt lat="43.69437" lon="-0.20906">
        <ele>98.599998474121</ele>
        <time>2020-07-06T12:39:32.000Z</time>
      </trkpt>
      <trkpt lat="43.69451" lon="-0.2097">
        <ele>99.199996948242</ele>
        <time>2020-07-06T12:39:40.000Z</time>
      </trkpt>
      <trkpt lat="43.69465" lon="-0.21034">
        <ele>99.199996948242</ele>
        <time>2020-07-06T12:39:48.000Z</time>
      </trkpt>
      <trkpt lat="43.69474" lon="-0.21078">
        <ele>99.199996948242</ele>
        <time>2020-07-06T12:39:54.000Z</time>
      </trkpt>
      <trkpt lat="43.69475" lon="-0.21084">
        <ele>99.199996948242</ele>
        <time>2020-07-06T12:39:55.000Z</time>
      </trkpt>
      <trkpt lat="43.6948" lon="-0.21112">
        <ele>99.199996948242</ele>
        <time>2020-07-06T12:39:59.000Z</time>
      </trkpt>
      <trkpt lat="43.69491" lon="-0.2118">
        <ele>98</ele>
        <time>2020-07-06T12:40:08.000Z</time>
      </trkpt>
      <trkpt lat="43.69494" lon="-0.21195">
        <ele>97.800003051758</ele>
        <time>2020-07-06T12:40:10.000Z</time>
      </trkpt>
      <trkpt lat="43.69505" lon="-0.21248">
        <ele>98</ele>
        <time>2020-07-06T12:40:17.000Z</time>
      </trkpt>
      <trkpt lat="43.69519" lon="-0.21318">
        <ele>98.199996948242</ele>
        <time>2020-07-06T12:40:26.000Z</time>
      </trkpt>
      <trkpt lat="43.69534" lon="-0.21387">
        <ele>98.199996948242</ele>
        <time>2020-07-06T12:40:35.000Z</time>
      </trkpt>
      <trkpt lat="43.69547" lon="-0.21449">
        <ele>97.800003051758</ele>
        <time>2020-07-06T12:40:43.000Z</time>
      </trkpt>
      <trkpt lat="43.69558" lon="-0.21492">
        <ele>98.400001525879</ele>
        <time>2020-07-06T12:40:49.000Z</time>
      </trkpt>
      <trkpt lat="43.69571" lon="-0.21557">
        <ele>98.199996948242</ele>
        <time>2020-07-06T12:40:57.000Z</time>
      </trkpt>
      <trkpt lat="43.69586" lon="-0.21629">
        <ele>98.199996948242</ele>
        <time>2020-07-06T12:41:06.000Z</time>
      </trkpt>
      <trkpt lat="43.69593" lon="-0.21661">
        <ele>98.199996948242</ele>
        <time>2020-07-06T12:41:10.000Z</time>
      </trkpt>
      <trkpt lat="43.69595" lon="-0.21668">
        <ele>98.199996948242</ele>
        <time>2020-07-06T12:41:11.000Z</time>
      </trkpt>
      <trkpt lat="43.69603" lon="-0.21708">
        <ele>98.599998474121</ele>
        <time>2020-07-06T12:41:16.000Z</time>
      </trkpt>
      <trkpt lat="43.6961" lon="-0.2174">
        <ele>98.800003051758</ele>
        <time>2020-07-06T12:41:20.000Z</time>
      </trkpt>
      <trkpt lat="43.69611" lon="-0.21748">
        <ele>99.199996948242</ele>
        <time>2020-07-06T12:41:21.000Z</time>
      </trkpt>
      <trkpt lat="43.69613" lon="-0.21756">
        <ele>99</ele>
        <time>2020-07-06T12:41:22.000Z</time>
      </trkpt>
      <trkpt lat="43.6962" lon="-0.21791">
        <ele>98.199996948242</ele>
        <time>2020-07-06T12:41:27.000Z</time>
      </trkpt>
      <trkpt lat="43.69621" lon="-0.21797">
        <ele>98.199996948242</ele>
        <time>2020-07-06T12:41:28.000Z</time>
      </trkpt>
      <trkpt lat="43.69626" lon="-0.21814">
        <ele>98</ele>
        <time>2020-07-06T12:41:31.000Z</time>
      </trkpt>
      <trkpt lat="43.6963" lon="-0.21835">
        <ele>98.199996948242</ele>
        <time>2020-07-06T12:41:34.000Z</time>
      </trkpt>
      <trkpt lat="43.69634" lon="-0.21857">
        <ele>98.800003051758</ele>
        <time>2020-07-06T12:41:37.000Z</time>
      </trkpt>
      <trkpt lat="43.69636" lon="-0.21865">
        <ele>98.800003051758</ele>
        <time>2020-07-06T12:41:38.000Z</time>
      </trkpt>
      <trkpt lat="43.69646" lon="-0.21912">
        <ele>98.599998474121</ele>
        <time>2020-07-06T12:41:44.000Z</time>
      </trkpt>
      <trkpt lat="43.69661" lon="-0.21984">
        <ele>98.199996948242</ele>
        <time>2020-07-06T12:41:53.000Z</time>
      </trkpt>
      <trkpt lat="43.69663" lon="-0.21991">
        <ele>98.199996948242</ele>
        <time>2020-07-06T12:41:54.000Z</time>
      </trkpt>
      <trkpt lat="43.69675" lon="-0.22051">
        <ele>98.400001525879</ele>
        <time>2020-07-06T12:42:02.000Z</time>
      </trkpt>
      <trkpt lat="43.69683" lon="-0.22091">
        <ele>98.599998474121</ele>
        <time>2020-07-06T12:42:08.000Z</time>
      </trkpt>
      <trkpt lat="43.69684" lon="-0.22097">
        <ele>98.599998474121</ele>
        <time>2020-07-06T12:42:09.000Z</time>
      </trkpt>
      <trkpt lat="43.69692" lon="-0.22133">
        <ele>98.599998474121</ele>
        <time>2020-07-06T12:42:15.000Z</time>
      </trkpt>
      <trkpt lat="43.69703" lon="-0.22186">
        <ele>98</ele>
        <time>2020-07-06T12:42:23.000Z</time>
      </trkpt>
      <trkpt lat="43.69716" lon="-0.22243">
        <ele>97.599998474121</ele>
        <time>2020-07-06T12:42:31.000Z</time>
      </trkpt>
      <trkpt lat="43.6973" lon="-0.22312">
        <ele>97.599998474121</ele>
        <time>2020-07-06T12:42:41.000Z</time>
      </trkpt>
      <trkpt lat="43.69739" lon="-0.22353">
        <ele>97.800003051758</ele>
        <time>2020-07-06T12:42:47.000Z</time>
      </trkpt>
      <trkpt lat="43.69744" lon="-0.22374">
        <ele>97.800003051758</ele>
        <time>2020-07-06T12:42:50.000Z</time>
      </trkpt>
      <trkpt lat="43.69757" lon="-0.22435">
        <ele>97.599998474121</ele>
        <time>2020-07-06T12:42:59.000Z</time>
      </trkpt>
      <trkpt lat="43.69771" lon="-0.22504">
        <ele>97.800003051758</ele>
        <time>2020-07-06T12:43:09.000Z</time>
      </trkpt>
      <trkpt lat="43.69783" lon="-0.22555">
        <ele>98</ele>
        <time>2020-07-06T12:43:17.000Z</time>
      </trkpt>
      <trkpt lat="43.69785" lon="-0.22561">
        <ele>98</ele>
        <time>2020-07-06T12:43:18.000Z</time>
      </trkpt>
      <trkpt lat="43.69787" lon="-0.22579">
        <ele>97.800003051758</ele>
        <time>2020-07-06T12:43:21.000Z</time>
      </trkpt>
      <trkpt lat="43.69793" lon="-0.22606">
        <ele>97.199996948242</ele>
        <time>2020-07-06T12:43:25.000Z</time>
      </trkpt>
      <trkpt lat="43.69797" lon="-0.22619">
        <ele>97.199996948242</ele>
        <time>2020-07-06T12:43:27.000Z</time>
      </trkpt>
      <trkpt lat="43.698" lon="-0.22642">
        <ele>97</ele>
        <time>2020-07-06T12:43:30.000Z</time>
      </trkpt>
      <trkpt lat="43.69805" lon="-0.22664">
        <ele>96.800003051758</ele>
        <time>2020-07-06T12:43:33.000Z</time>
      </trkpt>
      <trkpt lat="43.69823" lon="-0.22735">
        <ele>96.800003051758</ele>
        <time>2020-07-06T12:43:43.000Z</time>
      </trkpt>
      <trkpt lat="43.69834" lon="-0.22784">
        <ele>96.800003051758</ele>
        <time>2020-07-06T12:43:50.000Z</time>
      </trkpt>
      <trkpt lat="43.69846" lon="-0.22834">
        <ele>96.599998474121</ele>
        <time>2020-07-06T12:43:57.000Z</time>
      </trkpt>
      <trkpt lat="43.69858" lon="-0.22887">
        <ele>96.199996948242</ele>
        <time>2020-07-06T12:44:04.000Z</time>
      </trkpt>
      <trkpt lat="43.69874" lon="-0.22962">
        <ele>96.599998474121</ele>
        <time>2020-07-06T12:44:14.000Z</time>
      </trkpt>
      <trkpt lat="43.69877" lon="-0.22976">
        <ele>96.599998474121</ele>
        <time>2020-07-06T12:44:16.000Z</time>
      </trkpt>
      <trkpt lat="43.69887" lon="-0.2303">
        <ele>96</ele>
        <time>2020-07-06T12:44:23.000Z</time>
      </trkpt>
      <trkpt lat="43.69889" lon="-0.23037">
        <ele>96</ele>
        <time>2020-07-06T12:44:24.000Z</time>
      </trkpt>
      <trkpt lat="43.69899" lon="-0.2308">
        <ele>95</ele>
        <time>2020-07-06T12:44:30.000Z</time>
      </trkpt>
      <trkpt lat="43.69906" lon="-0.2311">
        <ele>95.400001525879</ele>
        <time>2020-07-06T12:44:34.000Z</time>
      </trkpt>
      <trkpt lat="43.69912" lon="-0.23131">
        <ele>95.599998474121</ele>
        <time>2020-07-06T12:44:37.000Z</time>
      </trkpt>
      <trkpt lat="43.6992" lon="-0.23167">
        <ele>95.800003051758</ele>
        <time>2020-07-06T12:44:42.000Z</time>
      </trkpt>
      <trkpt lat="43.69923" lon="-0.23181">
        <ele>96</ele>
        <time>2020-07-06T12:44:44.000Z</time>
      </trkpt>
      <trkpt lat="43.69935" lon="-0.23229">
        <ele>96.199996948242</ele>
        <time>2020-07-06T12:44:51.000Z</time>
      </trkpt>
      <trkpt lat="43.69935" lon="-0.23236">
        <ele>96.199996948242</ele>
        <time>2020-07-06T12:44:52.000Z</time>
      </trkpt>
      <trkpt lat="43.69938" lon="-0.23248">
        <ele>96.199996948242</ele>
        <time>2020-07-06T12:44:54.000Z</time>
      </trkpt>
      <trkpt lat="43.69944" lon="-0.23257">
        <ele>96</ele>
        <time>2020-07-06T12:44:56.000Z</time>
      </trkpt>
      <trkpt lat="43.69969" lon="-0.23279">
        <ele>96</ele>
        <time>2020-07-06T12:45:02.000Z</time>
      </trkpt>
      <trkpt lat="43.69983" lon="-0.23289">
        <ele>96.199996948242</ele>
        <time>2020-07-06T12:45:05.000Z</time>
      </trkpt>
      <trkpt lat="43.69986" lon="-0.23297">
        <ele>96.400001525879</ele>
        <time>2020-07-06T12:45:07.000Z</time>
      </trkpt>
      <trkpt lat="43.69979" lon="-0.23305">
        <ele>97</ele>
        <time>2020-07-06T12:45:10.000Z</time>
      </trkpt>
      <trkpt lat="43.69975" lon="-0.23307">
        <ele>97</ele>
        <time>2020-07-06T12:45:11.000Z</time>
      </trkpt>
      <trkpt lat="43.69956" lon="-0.23318">
        <ele>97.199996948242</ele>
        <time>2020-07-06T12:45:15.000Z</time>
      </trkpt>
      <trkpt lat="43.69921" lon="-0.23339">
        <ele>96.599998474121</ele>
        <time>2020-07-06T12:45:21.000Z</time>
      </trkpt>
      <trkpt lat="43.69893" lon="-0.23354">
        <ele>96</ele>
        <time>2020-07-06T12:45:25.000Z</time>
      </trkpt>
      <trkpt lat="43.69873" lon="-0.23364">
        <ele>96</ele>
        <time>2020-07-06T12:45:28.000Z</time>
      </trkpt>
      <trkpt lat="43.69815" lon="-0.2339">
        <ele>96.199996948242</ele>
        <time>2020-07-06T12:45:36.000Z</time>
      </trkpt>
      <trkpt lat="43.69801" lon="-0.23396">
        <ele>96.199996948242</ele>
        <time>2020-07-06T12:45:38.000Z</time>
      </trkpt>
      <trkpt lat="43.69794" lon="-0.23399">
        <ele>96</ele>
        <time>2020-07-06T12:45:39.000Z</time>
      </trkpt>
      <trkpt lat="43.69766" lon="-0.23413">
        <ele>96</ele>
        <time>2020-07-06T12:45:43.000Z</time>
      </trkpt>
      <trkpt lat="43.69717" lon="-0.23438">
        <ele>95.800003051758</ele>
        <time>2020-07-06T12:45:50.000Z</time>
      </trkpt>
      <trkpt lat="43.69666" lon="-0.23464">
        <ele>95.800003051758</ele>
        <time>2020-07-06T12:45:57.000Z</time>
      </trkpt>
      <trkpt lat="43.69643" lon="-0.23475">
        <ele>95.599998474121</ele>
        <time>2020-07-06T12:46:00.000Z</time>
      </trkpt>
      <trkpt lat="43.6959" lon="-0.23501">
        <ele>95.199996948242</ele>
        <time>2020-07-06T12:46:07.000Z</time>
      </trkpt>
      <trkpt lat="43.69575" lon="-0.23508">
        <ele>95</ele>
        <time>2020-07-06T12:46:09.000Z</time>
      </trkpt>
      <trkpt lat="43.69567" lon="-0.23512">
        <ele>95</ele>
        <time>2020-07-06T12:46:10.000Z</time>
      </trkpt>
      <trkpt lat="43.69514" lon="-0.23536">
        <ele>95</ele>
        <time>2020-07-06T12:46:17.000Z</time>
      </trkpt>
      <trkpt lat="43.69484" lon="-0.2355">
        <ele>95.199996948242</ele>
        <time>2020-07-06T12:46:21.000Z</time>
      </trkpt>
      <trkpt lat="43.69432" lon="-0.23575">
        <ele>95.800003051758</ele>
        <time>2020-07-06T12:46:28.000Z</time>
      </trkpt>
      <trkpt lat="43.69424" lon="-0.23579">
        <ele>96</ele>
        <time>2020-07-06T12:46:29.000Z</time>
      </trkpt>
      <trkpt lat="43.69409" lon="-0.23587">
        <ele>96.199996948242</ele>
        <time>2020-07-06T12:46:31.000Z</time>
      </trkpt>
      <trkpt lat="43.69359" lon="-0.23615">
        <ele>96.199996948242</ele>
        <time>2020-07-06T12:46:38.000Z</time>
      </trkpt>
      <trkpt lat="43.69352" lon="-0.23619">
        <ele>96.199996948242</ele>
        <time>2020-07-06T12:46:39.000Z</time>
      </trkpt>
      <trkpt lat="43.69337" lon="-0.23619">
        <ele>96</ele>
        <time>2020-07-06T12:46:41.000Z</time>
      </trkpt>
      <trkpt lat="43.6933" lon="-0.23615">
        <ele>95.800003051758</ele>
        <time>2020-07-06T12:46:42.000Z</time>
      </trkpt>
      <trkpt lat="43.69322" lon="-0.2361">
        <ele>95.800003051758</ele>
        <time>2020-07-06T12:46:43.000Z</time>
      </trkpt>
      <trkpt lat="43.69296" lon="-0.23584">
        <ele>96</ele>
        <time>2020-07-06T12:46:47.000Z</time>
      </trkpt>
      <trkpt lat="43.69245" lon="-0.23533">
        <ele>96.400001525879</ele>
        <time>2020-07-06T12:46:54.000Z</time>
      </trkpt>
      <trkpt lat="43.69232" lon="-0.23519">
        <ele>96.599998474121</ele>
        <time>2020-07-06T12:46:56.000Z</time>
      </trkpt>
      <trkpt lat="43.69188" lon="-0.23473">
        <ele>97</ele>
        <time>2020-07-06T12:47:02.000Z</time>
      </trkpt>
      <trkpt lat="43.69174" lon="-0.23458">
        <ele>97.199996948242</ele>
        <time>2020-07-06T12:47:04.000Z</time>
      </trkpt>
      <trkpt lat="43.6916" lon="-0.23443">
        <ele>97.199996948242</ele>
        <time>2020-07-06T12:47:06.000Z</time>
      </trkpt>
      <trkpt lat="43.6912" lon="-0.2339">
        <ele>96.800003051758</ele>
        <time>2020-07-06T12:47:12.000Z</time>
      </trkpt>
      <trkpt lat="43.69106" lon="-0.23374">
        <ele>96.599998474121</ele>
        <time>2020-07-06T12:47:14.000Z</time>
      </trkpt>
      <trkpt lat="43.69091" lon="-0.23363">
        <ele>96.400001525879</ele>
        <time>2020-07-06T12:47:16.000Z</time>
      </trkpt>
      <trkpt lat="43.69073" lon="-0.23359">
        <ele>96.199996948242</ele>
        <time>2020-07-06T12:47:18.000Z</time>
      </trkpt>
      <trkpt lat="43.69065" lon="-0.2336">
        <ele>96</ele>
        <time>2020-07-06T12:47:19.000Z</time>
      </trkpt>
      <trkpt lat="43.69044" lon="-0.23367">
        <ele>96</ele>
        <time>2020-07-06T12:47:22.000Z</time>
      </trkpt>
      <trkpt lat="43.69041" lon="-0.23368">
        <ele>96.199996948242</ele>
        <time>2020-07-06T12:47:23.000Z</time>
      </trkpt>
      <trkpt lat="43.69039" lon="-0.2337">
        <ele>96.199996948242</ele>
        <time>2020-07-06T12:47:24.000Z</time>
      </trkpt>
      <trkpt lat="43.6904" lon="-0.23372">
        <ele>96.199996948242</ele>
        <time>2020-07-06T12:47:25.000Z</time>
      </trkpt>
      <trkpt lat="43.69047" lon="-0.23367">
        <ele>96.400001525879</ele>
        <time>2020-07-06T12:47:29.000Z</time>
      </trkpt>
      <trkpt lat="43.69055" lon="-0.23361">
        <ele>96.400001525879</ele>
        <time>2020-07-06T12:47:32.000Z</time>
      </trkpt>
      <trkpt lat="43.69057" lon="-0.23358">
        <ele>96.400001525879</ele>
        <time>2020-07-06T12:47:33.000Z</time>
      </trkpt>
      <trkpt lat="43.69058" lon="-0.23355">
        <ele>96.400001525879</ele>
        <time>2020-07-06T12:47:34.000Z</time>
      </trkpt>
      <trkpt lat="43.69057" lon="-0.2335">
        <ele>96.400001525879</ele>
        <time>2020-07-06T12:47:36.000Z</time>
      </trkpt>
      <trkpt lat="43.69056" lon="-0.2335">
        <ele>96.599998474121</ele>
        <time>2020-07-06T12:47:40.000Z</time>
      </trkpt>
      <trkpt lat="43.69057" lon="-0.2335">
        <ele>96.800003051758</ele>
        <time>2020-07-06T12:48:09.000Z</time>
      </trkpt>
      <trkpt lat="43.69059" lon="-0.23353">
        <ele>96.800003051758</ele>
        <time>2020-07-06T12:48:11.000Z</time>
      </trkpt>
      <trkpt lat="43.69054" lon="-0.23366">
        <ele>96.800003051758</ele>
        <time>2020-07-06T12:48:16.000Z</time>
      </trkpt>
      <trkpt lat="43.69039" lon="-0.23372">
        <ele>96.599998474121</ele>
        <time>2020-07-06T12:48:20.000Z</time>
      </trkpt>
      <trkpt lat="43.69025" lon="-0.23377">
        <ele>96.400001525879</ele>
        <time>2020-07-06T12:48:23.000Z</time>
      </trkpt>
      <trkpt lat="43.69012" lon="-0.23383">
        <ele>96.400001525879</ele>
        <time>2020-07-06T12:48:26.000Z</time>
      </trkpt>
      <trkpt lat="43.68982" lon="-0.23402">
        <ele>96.400001525879</ele>
        <time>2020-07-06T12:48:32.000Z</time>
      </trkpt>
      <trkpt lat="43.68946" lon="-0.23431">
        <ele>96</ele>
        <time>2020-07-06T12:48:38.000Z</time>
      </trkpt>
      <trkpt lat="43.68894" lon="-0.23477">
        <ele>96.400001525879</ele>
        <time>2020-07-06T12:48:46.000Z</time>
      </trkpt>
      <trkpt lat="43.68887" lon="-0.23483">
        <ele>96.400001525879</ele>
        <time>2020-07-06T12:48:47.000Z</time>
      </trkpt>
      <trkpt lat="43.68835" lon="-0.23528">
        <ele>96.599998474121</ele>
        <time>2020-07-06T12:48:55.000Z</time>
      </trkpt>
      <trkpt lat="43.68823" lon="-0.23539">
        <ele>96.599998474121</ele>
        <time>2020-07-06T12:48:57.000Z</time>
      </trkpt>
      <trkpt lat="43.68797" lon="-0.23561">
        <ele>96.599998474121</ele>
        <time>2020-07-06T12:49:01.000Z</time>
      </trkpt>
      <trkpt lat="43.68772" lon="-0.23585">
        <ele>96.400001525879</ele>
        <time>2020-07-06T12:49:05.000Z</time>
      </trkpt>
      <trkpt lat="43.68766" lon="-0.23592">
        <ele>96.199996948242</ele>
        <time>2020-07-06T12:49:06.000Z</time>
      </trkpt>
      <trkpt lat="43.68762" lon="-0.23601">
        <ele>96.199996948242</ele>
        <time>2020-07-06T12:49:07.000Z</time>
      </trkpt>
      <trkpt lat="43.68758" lon="-0.23618">
        <ele>96.400001525879</ele>
        <time>2020-07-06T12:49:09.000Z</time>
      </trkpt>
      <trkpt lat="43.68757" lon="-0.23678">
        <ele>96.199996948242</ele>
        <time>2020-07-06T12:49:15.000Z</time>
      </trkpt>
      <trkpt lat="43.68755" lon="-0.23748">
        <ele>97.199996948242</ele>
        <time>2020-07-06T12:49:22.000Z</time>
      </trkpt>
      <trkpt lat="43.68755" lon="-0.2377">
        <ele>97.199996948242</ele>
        <time>2020-07-06T12:49:24.000Z</time>
      </trkpt>
      <trkpt lat="43.68753" lon="-0.23821">
        <ele>98</ele>
        <time>2020-07-06T12:49:29.000Z</time>
      </trkpt>
      <trkpt lat="43.68751" lon="-0.2386">
        <ele>98</ele>
        <time>2020-07-06T12:49:33.000Z</time>
      </trkpt>
      <trkpt lat="43.68751" lon="-0.23877">
        <ele>98</ele>
        <time>2020-07-06T12:49:35.000Z</time>
      </trkpt>
      <trkpt lat="43.68751" lon="-0.23918">
        <ele>97.800003051758</ele>
        <time>2020-07-06T12:49:40.000Z</time>
      </trkpt>
      <trkpt lat="43.68752" lon="-0.23936">
        <ele>97.599998474121</ele>
        <time>2020-07-06T12:49:42.000Z</time>
      </trkpt>
      <trkpt lat="43.68751" lon="-0.23957">
        <ele>97.400001525879</ele>
        <time>2020-07-06T12:49:44.000Z</time>
      </trkpt>
      <trkpt lat="43.6875" lon="-0.23982">
        <ele>97.400001525879</ele>
        <time>2020-07-06T12:49:47.000Z</time>
      </trkpt>
      <trkpt lat="43.68749" lon="-0.23994">
        <ele>97.400001525879</ele>
        <time>2020-07-06T12:49:48.000Z</time>
      </trkpt>
      <trkpt lat="43.68748" lon="-0.24034">
        <ele>97.400001525879</ele>
        <time>2020-07-06T12:49:52.000Z</time>
      </trkpt>
      <trkpt lat="43.68748" lon="-0.24057">
        <ele>97.400001525879</ele>
        <time>2020-07-06T12:49:54.000Z</time>
      </trkpt>
      <trkpt lat="43.68746" lon="-0.24134">
        <ele>97.400001525879</ele>
        <time>2020-07-06T12:50:01.000Z</time>
      </trkpt>
      <trkpt lat="43.68746" lon="-0.24142">
        <ele>97.400001525879</ele>
        <time>2020-07-06T12:50:02.000Z</time>
      </trkpt>
      <trkpt lat="43.68745" lon="-0.24165">
        <ele>97.400001525879</ele>
        <time>2020-07-06T12:50:04.000Z</time>
      </trkpt>
      <trkpt lat="43.68745" lon="-0.24182">
        <ele>97.400001525879</ele>
        <time>2020-07-06T12:50:06.000Z</time>
      </trkpt>
      <trkpt lat="43.68746" lon="-0.24231">
        <ele>97.199996948242</ele>
        <time>2020-07-06T12:50:10.000Z</time>
      </trkpt>
      <trkpt lat="43.68745" lon="-0.24295">
        <ele>97</ele>
        <time>2020-07-06T12:50:15.000Z</time>
      </trkpt>
      <trkpt lat="43.68746" lon="-0.24347">
        <ele>97.599998474121</ele>
        <time>2020-07-06T12:50:21.000Z</time>
      </trkpt>
      <trkpt lat="43.68742" lon="-0.24358">
        <ele>97.800003051758</ele>
        <time>2020-07-06T12:50:23.000Z</time>
      </trkpt>
      <trkpt lat="43.68738" lon="-0.24362">
        <ele>97.800003051758</ele>
        <time>2020-07-06T12:50:24.000Z</time>
      </trkpt>
      <trkpt lat="43.68734" lon="-0.24364">
        <ele>98</ele>
        <time>2020-07-06T12:50:25.000Z</time>
      </trkpt>
      <trkpt lat="43.68726" lon="-0.24368">
        <ele>98.199996948242</ele>
        <time>2020-07-06T12:50:27.000Z</time>
      </trkpt>
      <trkpt lat="43.68722" lon="-0.24371">
        <ele>98.199996948242</ele>
        <time>2020-07-06T12:50:28.000Z</time>
      </trkpt>
      <trkpt lat="43.68717" lon="-0.24374">
        <ele>98.199996948242</ele>
        <time>2020-07-06T12:50:29.000Z</time>
      </trkpt>
      <trkpt lat="43.68691" lon="-0.24388">
        <ele>98.599998474121</ele>
        <time>2020-07-06T12:50:34.000Z</time>
      </trkpt>
      <trkpt lat="43.68648" lon="-0.2441">
        <ele>98.400001525879</ele>
        <time>2020-07-06T12:50:41.000Z</time>
      </trkpt>
      <trkpt lat="43.686" lon="-0.24434">
        <ele>98.400001525879</ele>
        <time>2020-07-06T12:50:49.000Z</time>
      </trkpt>
      <trkpt lat="43.68557" lon="-0.2446">
        <ele>97.400001525879</ele>
        <time>2020-07-06T12:50:57.000Z</time>
      </trkpt>
      <trkpt lat="43.68528" lon="-0.24476">
        <ele>97.400001525879</ele>
        <time>2020-07-06T12:51:02.000Z</time>
      </trkpt>
      <trkpt lat="43.68523" lon="-0.24481">
        <ele>97.199996948242</ele>
        <time>2020-07-06T12:51:03.000Z</time>
      </trkpt>
      <trkpt lat="43.6852" lon="-0.24487">
        <ele>97</ele>
        <time>2020-07-06T12:51:04.000Z</time>
      </trkpt>
      <trkpt lat="43.6852" lon="-0.24497">
        <ele>97</ele>
        <time>2020-07-06T12:51:05.000Z</time>
      </trkpt>
      <trkpt lat="43.68523" lon="-0.24503">
        <ele>96.800003051758</ele>
        <time>2020-07-06T12:51:06.000Z</time>
      </trkpt>
      <trkpt lat="43.68528" lon="-0.24509">
        <ele>96.599998474121</ele>
        <time>2020-07-06T12:51:07.000Z</time>
      </trkpt>
      <trkpt lat="43.68557" lon="-0.24539">
        <ele>96</ele>
        <time>2020-07-06T12:51:12.000Z</time>
      </trkpt>
      <trkpt lat="43.68563" lon="-0.24544">
        <ele>96</ele>
        <time>2020-07-06T12:51:13.000Z</time>
      </trkpt>
      <trkpt lat="43.68607" lon="-0.24581">
        <ele>96</ele>
        <time>2020-07-06T12:51:20.000Z</time>
      </trkpt>
      <trkpt lat="43.68655" lon="-0.24622">
        <ele>96</ele>
        <time>2020-07-06T12:51:28.000Z</time>
      </trkpt>
      <trkpt lat="43.68703" lon="-0.24662">
        <ele>95.800003051758</ele>
        <time>2020-07-06T12:51:36.000Z</time>
      </trkpt>
      <trkpt lat="43.68721" lon="-0.24677">
        <ele>96</ele>
        <time>2020-07-06T12:51:39.000Z</time>
      </trkpt>
      <trkpt lat="43.68762" lon="-0.24713">
        <ele>96</ele>
        <time>2020-07-06T12:51:46.000Z</time>
      </trkpt>
      <trkpt lat="43.68812" lon="-0.24756">
        <ele>96.599998474121</ele>
        <time>2020-07-06T12:51:55.000Z</time>
      </trkpt>
      <trkpt lat="43.68821" lon="-0.24763">
        <ele>96.599998474121</ele>
        <time>2020-07-06T12:51:57.000Z</time>
      </trkpt>
      <trkpt lat="43.68824" lon="-0.24765">
        <ele>96.800003051758</ele>
        <time>2020-07-06T12:51:58.000Z</time>
      </trkpt>
      <trkpt lat="43.68826" lon="-0.24766">
        <ele>96.800003051758</ele>
        <time>2020-07-06T12:51:59.000Z</time>
      </trkpt>
      <trkpt lat="43.68827" lon="-0.24766">
        <ele>97</ele>
        <time>2020-07-06T12:52:02.000Z</time>
      </trkpt>
      <trkpt lat="43.68831" lon="-0.2477">
        <ele>96.800003051758</ele>
        <time>2020-07-06T12:52:25.000Z</time>
      </trkpt>
      <trkpt lat="43.68832" lon="-0.2477">
        <ele>96.800003051758</ele>
        <time>2020-07-06T12:52:29.000Z</time>
      </trkpt>
      <trkpt lat="43.68832" lon="-0.24771">
        <ele>96.800003051758</ele>
        <time>2020-07-06T12:52:32.000Z</time>
      </trkpt>
      <trkpt lat="43.68836" lon="-0.24775">
        <ele>96.800003051758</ele>
        <time>2020-07-06T12:52:34.000Z</time>
      </trkpt>
      <trkpt lat="43.68854" lon="-0.24791">
        <ele>96.800003051758</ele>
        <time>2020-07-06T12:52:39.000Z</time>
      </trkpt>
      <trkpt lat="43.68883" lon="-0.24816">
        <ele>96.599998474121</ele>
        <time>2020-07-06T12:52:48.000Z</time>
      </trkpt>
      <trkpt lat="43.68909" lon="-0.24837">
        <ele>96.800003051758</ele>
        <time>2020-07-06T12:52:55.000Z</time>
      </trkpt>
      <trkpt lat="43.6892" lon="-0.24849">
        <ele>97</ele>
        <time>2020-07-06T12:52:58.000Z</time>
      </trkpt>
      <trkpt lat="43.68938" lon="-0.24865">
        <ele>97</ele>
        <time>2020-07-06T12:53:02.000Z</time>
      </trkpt>
      <trkpt lat="43.68947" lon="-0.24873">
        <ele>97</ele>
        <time>2020-07-06T12:53:04.000Z</time>
      </trkpt>
      <trkpt lat="43.68963" lon="-0.24888">
        <ele>97.199996948242</ele>
        <time>2020-07-06T12:53:07.000Z</time>
      </trkpt>
      <trkpt lat="43.69005" lon="-0.24921">
        <ele>97.199996948242</ele>
        <time>2020-07-06T12:53:14.000Z</time>
      </trkpt>
      <trkpt lat="43.69046" lon="-0.24955">
        <ele>96.800003051758</ele>
        <time>2020-07-06T12:53:21.000Z</time>
      </trkpt>
      <trkpt lat="43.69086" lon="-0.24985">
        <ele>96.800003051758</ele>
        <time>2020-07-06T12:53:28.000Z</time>
      </trkpt>
      <trkpt lat="43.69111" lon="-0.25007">
        <ele>97.199996948242</ele>
        <time>2020-07-06T12:53:33.000Z</time>
      </trkpt>
      <trkpt lat="43.69116" lon="-0.25012">
        <ele>97.400001525879</ele>
        <time>2020-07-06T12:53:34.000Z</time>
      </trkpt>
      <trkpt lat="43.69153" lon="-0.25042">
        <ele>97</ele>
        <time>2020-07-06T12:53:41.000Z</time>
      </trkpt>
      <trkpt lat="43.69198" lon="-0.2508">
        <ele>96.400001525879</ele>
        <time>2020-07-06T12:53:49.000Z</time>
      </trkpt>
      <trkpt lat="43.69241" lon="-0.25113">
        <ele>96.599998474121</ele>
        <time>2020-07-06T12:53:56.000Z</time>
      </trkpt>
      <trkpt lat="43.69277" lon="-0.25142">
        <ele>97</ele>
        <time>2020-07-06T12:54:02.000Z</time>
      </trkpt>
      <trkpt lat="43.69324" lon="-0.2518">
        <ele>97</ele>
        <time>2020-07-06T12:54:10.000Z</time>
      </trkpt>
      <trkpt lat="43.69335" lon="-0.2519">
        <ele>96.800003051758</ele>
        <time>2020-07-06T12:54:12.000Z</time>
      </trkpt>
      <trkpt lat="43.69381" lon="-0.25228">
        <ele>96.400001525879</ele>
        <time>2020-07-06T12:54:20.000Z</time>
      </trkpt>
      <trkpt lat="43.69426" lon="-0.25264">
        <ele>96.400001525879</ele>
        <time>2020-07-06T12:54:28.000Z</time>
      </trkpt>
      <trkpt lat="43.69458" lon="-0.25291">
        <ele>96.599998474121</ele>
        <time>2020-07-06T12:54:34.000Z</time>
      </trkpt>
      <trkpt lat="43.69487" lon="-0.25317">
        <ele>96.199996948242</ele>
        <time>2020-07-06T12:54:40.000Z</time>
      </trkpt>
      <trkpt lat="43.69495" lon="-0.25323">
        <ele>96.199996948242</ele>
        <time>2020-07-06T12:54:42.000Z</time>
      </trkpt>
      <trkpt lat="43.69502" lon="-0.25322">
        <ele>96.400001525879</ele>
        <time>2020-07-06T12:54:44.000Z</time>
      </trkpt>
      <trkpt lat="43.69505" lon="-0.25319">
        <ele>96.400001525879</ele>
        <time>2020-07-06T12:54:46.000Z</time>
      </trkpt>
      <trkpt lat="43.69506" lon="-0.25314">
        <ele>96.400001525879</ele>
        <time>2020-07-06T12:54:48.000Z</time>
      </trkpt>
      <trkpt lat="43.69504" lon="-0.2531">
        <ele>96.400001525879</ele>
        <time>2020-07-06T12:54:50.000Z</time>
      </trkpt>
      <trkpt lat="43.695" lon="-0.25306">
        <ele>96.400001525879</ele>
        <time>2020-07-06T12:54:52.000Z</time>
      </trkpt>
      <trkpt lat="43.69488" lon="-0.25294">
        <ele>96.400001525879</ele>
        <time>2020-07-06T12:54:56.000Z</time>
      </trkpt>
      <trkpt lat="43.69486" lon="-0.25283">
        <ele>96.199996948242</ele>
        <time>2020-07-06T12:54:58.000Z</time>
      </trkpt>
      <trkpt lat="43.69488" lon="-0.25272">
        <ele>95.800003051758</ele>
        <time>2020-07-06T12:55:00.000Z</time>
      </trkpt>
      <trkpt lat="43.69493" lon="-0.25263">
        <ele>95.599998474121</ele>
        <time>2020-07-06T12:55:02.000Z</time>
      </trkpt>
      <trkpt lat="43.695" lon="-0.25252">
        <ele>95.400001525879</ele>
        <time>2020-07-06T12:55:05.000Z</time>
      </trkpt>
      <trkpt lat="43.69513" lon="-0.25231">
        <ele>95</ele>
        <time>2020-07-06T12:55:12.000Z</time>
      </trkpt>
      <trkpt lat="43.69528" lon="-0.25204">
        <ele>95</ele>
        <time>2020-07-06T12:55:20.000Z</time>
      </trkpt>
      <trkpt lat="43.69531" lon="-0.25178">
        <ele>95</ele>
        <time>2020-07-06T12:55:25.000Z</time>
      </trkpt>
      <trkpt lat="43.69526" lon="-0.25151">
        <ele>95</ele>
        <time>2020-07-06T12:55:30.000Z</time>
      </trkpt>
      <trkpt lat="43.69523" lon="-0.25138">
        <ele>94.800003051758</ele>
        <time>2020-07-06T12:55:34.000Z</time>
      </trkpt>
      <trkpt lat="43.69522" lon="-0.25139">
        <ele>94.599998474121</ele>
        <time>2020-07-06T12:55:37.000Z</time>
      </trkpt>
      <trkpt lat="43.69523" lon="-0.25142">
        <ele>94.800003051758</ele>
        <time>2020-07-06T12:55:38.000Z</time>
      </trkpt>
      <trkpt lat="43.69526" lon="-0.25152">
        <ele>94.599998474121</ele>
        <time>2020-07-06T12:55:41.000Z</time>
      </trkpt>
      <trkpt lat="43.69531" lon="-0.25178">
        <ele>94.599998474121</ele>
        <time>2020-07-06T12:55:46.000Z</time>
      </trkpt>
      <trkpt lat="43.69531" lon="-0.25185">
        <ele>94.199996948242</ele>
        <time>2020-07-06T12:55:47.000Z</time>
      </trkpt>
      <trkpt lat="43.69529" lon="-0.25198">
        <ele>94.199996948242</ele>
        <time>2020-07-06T12:55:49.000Z</time>
      </trkpt>
      <trkpt lat="43.69526" lon="-0.25204">
        <ele>94</ele>
        <time>2020-07-06T12:55:50.000Z</time>
      </trkpt>
      <trkpt lat="43.69511" lon="-0.25232">
        <ele>94.199996948242</ele>
        <time>2020-07-06T12:55:55.000Z</time>
      </trkpt>
      <trkpt lat="43.69497" lon="-0.25254">
        <ele>94.199996948242</ele>
        <time>2020-07-06T12:55:59.000Z</time>
      </trkpt>
      <trkpt lat="43.69491" lon="-0.25265">
        <ele>94.199996948242</ele>
        <time>2020-07-06T12:56:01.000Z</time>
      </trkpt>
      <trkpt lat="43.69489" lon="-0.25271">
        <ele>94.199996948242</ele>
        <time>2020-07-06T12:56:02.000Z</time>
      </trkpt>
      <trkpt lat="43.69487" lon="-0.25277">
        <ele>94.199996948242</ele>
        <time>2020-07-06T12:56:03.000Z</time>
      </trkpt>
      <trkpt lat="43.69488" lon="-0.25291">
        <ele>94</ele>
        <time>2020-07-06T12:56:05.000Z</time>
      </trkpt>
      <trkpt lat="43.6949" lon="-0.25297">
        <ele>94</ele>
        <time>2020-07-06T12:56:06.000Z</time>
      </trkpt>
      <trkpt lat="43.69494" lon="-0.25301">
        <ele>94</ele>
        <time>2020-07-06T12:56:07.000Z</time>
      </trkpt>
      <trkpt lat="43.695" lon="-0.25308">
        <ele>94.199996948242</ele>
        <time>2020-07-06T12:56:09.000Z</time>
      </trkpt>
      <trkpt lat="43.69506" lon="-0.25312">
        <ele>94.800003051758</ele>
        <time>2020-07-06T12:56:11.000Z</time>
      </trkpt>
      <trkpt lat="43.69509" lon="-0.2531">
        <ele>95</ele>
        <time>2020-07-06T12:56:12.000Z</time>
      </trkpt>
      <trkpt lat="43.69514" lon="-0.25301">
        <ele>95.199996948242</ele>
        <time>2020-07-06T12:56:14.000Z</time>
      </trkpt>
      <trkpt lat="43.69516" lon="-0.25295">
        <ele>95.199996948242</ele>
        <time>2020-07-06T12:56:15.000Z</time>
      </trkpt>
      <trkpt lat="43.69531" lon="-0.25259">
        <ele>95.199996948242</ele>
        <time>2020-07-06T12:56:21.000Z</time>
      </trkpt>
      <trkpt lat="43.69537" lon="-0.25247">
        <ele>95.599998474121</ele>
        <time>2020-07-06T12:56:23.000Z</time>
      </trkpt>
      <trkpt lat="43.69552" lon="-0.25209">
        <ele>95.599998474121</ele>
        <time>2020-07-06T12:56:29.000Z</time>
      </trkpt>
      <trkpt lat="43.69556" lon="-0.25197">
        <ele>95.599998474121</ele>
        <time>2020-07-06T12:56:31.000Z</time>
      </trkpt>
      <trkpt lat="43.69567" lon="-0.25167">
        <ele>95.800003051758</ele>
        <time>2020-07-06T12:56:36.000Z</time>
      </trkpt>
      <trkpt lat="43.69577" lon="-0.25136">
        <ele>95.800003051758</ele>
        <time>2020-07-06T12:56:42.000Z</time>
      </trkpt>
      <trkpt lat="43.6958" lon="-0.25108">
        <ele>95.400001525879</ele>
        <time>2020-07-06T12:56:48.000Z</time>
      </trkpt>
      <trkpt lat="43.69583" lon="-0.251">
        <ele>95.199996948242</ele>
        <time>2020-07-06T12:56:51.000Z</time>
      </trkpt>
      <trkpt lat="43.69586" lon="-0.25099">
        <ele>95.199996948242</ele>
        <time>2020-07-06T12:56:52.000Z</time>
      </trkpt>
      <trkpt lat="43.696" lon="-0.25081">
        <ele>95</ele>
        <time>2020-07-06T12:56:58.000Z</time>
      </trkpt>
      <trkpt lat="43.69611" lon="-0.25053">
        <ele>95.199996948242</ele>
        <time>2020-07-06T12:57:04.000Z</time>
      </trkpt>
      <trkpt lat="43.69624" lon="-0.25017">
        <ele>96.400001525879</ele>
        <time>2020-07-06T12:57:11.000Z</time>
      </trkpt>
      <trkpt lat="43.69638" lon="-0.24975">
        <ele>96.199996948242</ele>
        <time>2020-07-06T12:57:18.000Z</time>
      </trkpt>
      <trkpt lat="43.69646" lon="-0.24958">
        <ele>95.800003051758</ele>
        <time>2020-07-06T12:57:21.000Z</time>
      </trkpt>
      <trkpt lat="43.69653" lon="-0.24936">
        <ele>95.599998474121</ele>
        <time>2020-07-06T12:57:24.000Z</time>
      </trkpt>
      <trkpt lat="43.69662" lon="-0.24911">
        <ele>95.599998474121</ele>
        <time>2020-07-06T12:57:29.000Z</time>
      </trkpt>
      <trkpt lat="43.6967" lon="-0.24881">
        <ele>96.400001525879</ele>
        <time>2020-07-06T12:57:35.000Z</time>
      </trkpt>
      <trkpt lat="43.69673" lon="-0.24874">
        <ele>96.199996948242</ele>
        <time>2020-07-06T12:57:39.000Z</time>
      </trkpt>
      <trkpt lat="43.69672" lon="-0.24879">
        <ele>96</ele>
        <time>2020-07-06T12:57:51.000Z</time>
      </trkpt>
      <trkpt lat="43.69667" lon="-0.24889">
        <ele>96</ele>
        <time>2020-07-06T12:57:56.000Z</time>
      </trkpt>
      <trkpt lat="43.69663" lon="-0.24904">
        <ele>96.199996948242</ele>
        <time>2020-07-06T12:58:02.000Z</time>
      </trkpt>
      <trkpt lat="43.69652" lon="-0.24931">
        <ele>95.400001525879</ele>
        <time>2020-07-06T12:58:10.000Z</time>
      </trkpt>
      <trkpt lat="43.69645" lon="-0.24955">
        <ele>95.400001525879</ele>
        <time>2020-07-06T12:58:17.000Z</time>
      </trkpt>
      <trkpt lat="43.69633" lon="-0.24985">
        <ele>95.599998474121</ele>
        <time>2020-07-06T12:58:22.000Z</time>
      </trkpt>
      <trkpt lat="43.69627" lon="-0.25004">
        <ele>95.800003051758</ele>
        <time>2020-07-06T12:58:26.000Z</time>
      </trkpt>
      <trkpt lat="43.69609" lon="-0.25051">
        <ele>96.199996948242</ele>
        <time>2020-07-06T12:58:35.000Z</time>
      </trkpt>
      <trkpt lat="43.69608" lon="-0.25057">
        <ele>96</ele>
        <time>2020-07-06T12:58:36.000Z</time>
      </trkpt>
      <trkpt lat="43.69598" lon="-0.25074">
        <ele>96</ele>
        <time>2020-07-06T12:58:39.000Z</time>
      </trkpt>
      <trkpt lat="43.69589" lon="-0.25082">
        <ele>95.599998474121</ele>
        <time>2020-07-06T12:58:41.000Z</time>
      </trkpt>
      <trkpt lat="43.69586" lon="-0.25087">
        <ele>95.199996948242</ele>
        <time>2020-07-06T12:58:43.000Z</time>
      </trkpt>
      <trkpt lat="43.69582" lon="-0.251">
        <ele>95</ele>
        <time>2020-07-06T12:58:44.000Z</time>
      </trkpt>
      <trkpt lat="43.69582" lon="-0.25118">
        <ele>94.800003051758</ele>
        <time>2020-07-06T12:58:47.000Z</time>
      </trkpt>
      <trkpt lat="43.69581" lon="-0.25134">
        <ele>94.800003051758</ele>
        <time>2020-07-06T12:58:50.000Z</time>
      </trkpt>
      <trkpt lat="43.69577" lon="-0.25149">
        <ele>94.800003051758</ele>
        <time>2020-07-06T12:58:53.000Z</time>
      </trkpt>
      <trkpt lat="43.69563" lon="-0.25187">
        <ele>95.199996948242</ele>
        <time>2020-07-06T12:59:00.000Z</time>
      </trkpt>
      <trkpt lat="43.69555" lon="-0.25213">
        <ele>95.599998474121</ele>
        <time>2020-07-06T12:59:06.000Z</time>
      </trkpt>
      <trkpt lat="43.69545" lon="-0.25237">
        <ele>95.599998474121</ele>
        <time>2020-07-06T12:59:09.000Z</time>
      </trkpt>
      <trkpt lat="43.6954" lon="-0.2525">
        <ele>95.199996948242</ele>
        <time>2020-07-06T12:59:11.000Z</time>
      </trkpt>
      <trkpt lat="43.69538" lon="-0.25256">
        <ele>95.199996948242</ele>
        <time>2020-07-06T12:59:12.000Z</time>
      </trkpt>
      <trkpt lat="43.69527" lon="-0.25283">
        <ele>94.800003051758</ele>
        <time>2020-07-06T12:59:16.000Z</time>
      </trkpt>
      <trkpt lat="43.69524" lon="-0.25296">
        <ele>94.800003051758</ele>
        <time>2020-07-06T12:59:18.000Z</time>
      </trkpt>
      <trkpt lat="43.69517" lon="-0.25314">
        <ele>95</ele>
        <time>2020-07-06T12:59:21.000Z</time>
      </trkpt>
      <trkpt lat="43.69519" lon="-0.25331">
        <ele>95</ele>
        <time>2020-07-06T12:59:24.000Z</time>
      </trkpt>
      <trkpt lat="43.6954" lon="-0.25355">
        <ele>95.800003051758</ele>
        <time>2020-07-06T12:59:30.000Z</time>
      </trkpt>
      <trkpt lat="43.69558" lon="-0.25372">
        <ele>95.800003051758</ele>
        <time>2020-07-06T12:59:34.000Z</time>
      </trkpt>
      <trkpt lat="43.69564" lon="-0.25376">
        <ele>95.599998474121</ele>
        <time>2020-07-06T12:59:35.000Z</time>
      </trkpt>
      <trkpt lat="43.69582" lon="-0.25392">
        <ele>95.400001525879</ele>
        <time>2020-07-06T12:59:39.000Z</time>
      </trkpt>
      <trkpt lat="43.69597" lon="-0.25401">
        <ele>95.199996948242</ele>
        <time>2020-07-06T12:59:42.000Z</time>
      </trkpt>
      <trkpt lat="43.69619" lon="-0.2541">
        <ele>95</ele>
        <time>2020-07-06T12:59:46.000Z</time>
      </trkpt>
      <trkpt lat="43.69624" lon="-0.25415">
        <ele>95</ele>
        <time>2020-07-06T12:59:47.000Z</time>
      </trkpt>
      <trkpt lat="43.69628" lon="-0.25421">
        <ele>95</ele>
        <time>2020-07-06T12:59:48.000Z</time>
      </trkpt>
      <trkpt lat="43.6964" lon="-0.25439">
        <ele>94.400001525879</ele>
        <time>2020-07-06T12:59:51.000Z</time>
      </trkpt>
      <trkpt lat="43.69649" lon="-0.2545">
        <ele>94.400001525879</ele>
        <time>2020-07-06T12:59:53.000Z</time>
      </trkpt>
      <trkpt lat="43.69664" lon="-0.25463">
        <ele>94.400001525879</ele>
        <time>2020-07-06T12:59:56.000Z</time>
      </trkpt>
      <trkpt lat="43.69715" lon="-0.25506">
        <ele>94.800003051758</ele>
        <time>2020-07-06T13:00:06.000Z</time>
      </trkpt>
      <trkpt lat="43.6972" lon="-0.2551">
        <ele>94.800003051758</ele>
        <time>2020-07-06T13:00:07.000Z</time>
      </trkpt>
      <trkpt lat="43.6976" lon="-0.25542">
        <ele>94.599998474121</ele>
        <time>2020-07-06T13:00:15.000Z</time>
      </trkpt>
      <trkpt lat="43.69764" lon="-0.25546">
        <ele>94.599998474121</ele>
        <time>2020-07-06T13:00:16.000Z</time>
      </trkpt>
      <trkpt lat="43.69773" lon="-0.25544">
        <ele>94.599998474121</ele>
        <time>2020-07-06T13:00:18.000Z</time>
      </trkpt>
      <trkpt lat="43.69783" lon="-0.25516">
        <ele>94.800003051758</ele>
        <time>2020-07-06T13:00:22.000Z</time>
      </trkpt>
      <trkpt lat="43.69795" lon="-0.25485">
        <ele>94.199996948242</ele>
        <time>2020-07-06T13:00:26.000Z</time>
      </trkpt>
      <trkpt lat="43.69799" lon="-0.25479">
        <ele>94</ele>
        <time>2020-07-06T13:00:27.000Z</time>
      </trkpt>
      <trkpt lat="43.69802" lon="-0.25476">
        <ele>93.800003051758</ele>
        <time>2020-07-06T13:00:28.000Z</time>
      </trkpt>
      <trkpt lat="43.69804" lon="-0.25472">
        <ele>93.400001525879</ele>
        <time>2020-07-06T13:00:30.000Z</time>
      </trkpt>
      <trkpt lat="43.69803" lon="-0.25473">
        <ele>93.400001525879</ele>
        <time>2020-07-06T13:00:31.000Z</time>
      </trkpt>
      <trkpt lat="43.69802" lon="-0.25476">
        <ele>93.400001525879</ele>
        <time>2020-07-06T13:00:32.000Z</time>
      </trkpt>
      <trkpt lat="43.69792" lon="-0.25504">
        <ele>93.199996948242</ele>
        <time>2020-07-06T13:00:37.000Z</time>
      </trkpt>
      <trkpt lat="43.69778" lon="-0.25537">
        <ele>93.199996948242</ele>
        <time>2020-07-06T13:00:42.000Z</time>
      </trkpt>
      <trkpt lat="43.69776" lon="-0.2554">
        <ele>93.199996948242</ele>
        <time>2020-07-06T13:00:43.000Z</time>
      </trkpt>
      <trkpt lat="43.69774" lon="-0.25548">
        <ele>93.199996948242</ele>
        <time>2020-07-06T13:00:45.000Z</time>
      </trkpt>
      <trkpt lat="43.69774" lon="-0.25552">
        <ele>93.400001525879</ele>
        <time>2020-07-06T13:00:46.000Z</time>
      </trkpt>
      <trkpt lat="43.69782" lon="-0.25562">
        <ele>94.400001525879</ele>
        <time>2020-07-06T13:00:49.000Z</time>
      </trkpt>
      <trkpt lat="43.69785" lon="-0.25565">
        <ele>94.599998474121</ele>
        <time>2020-07-06T13:00:50.000Z</time>
      </trkpt>
      <trkpt lat="43.69805" lon="-0.2558">
        <ele>95.199996948242</ele>
        <time>2020-07-06T13:00:55.000Z</time>
      </trkpt>
      <trkpt lat="43.69813" lon="-0.25585">
        <ele>95.199996948242</ele>
        <time>2020-07-06T13:00:57.000Z</time>
      </trkpt>
      <trkpt lat="43.69815" lon="-0.25584">
        <ele>95.199996948242</ele>
        <time>2020-07-06T13:00:58.000Z</time>
      </trkpt>
      <trkpt lat="43.69822" lon="-0.25569">
        <ele>95</ele>
        <time>2020-07-06T13:01:02.000Z</time>
      </trkpt>
      <trkpt lat="43.69838" lon="-0.25534">
        <ele>94.199996948242</ele>
        <time>2020-07-06T13:01:08.000Z</time>
      </trkpt>
      <trkpt lat="43.69858" lon="-0.25483">
        <ele>93.199996948242</ele>
        <time>2020-07-06T13:01:15.000Z</time>
      </trkpt>
      <trkpt lat="43.6986" lon="-0.25474">
        <ele>93.199996948242</ele>
        <time>2020-07-06T13:01:16.000Z</time>
      </trkpt>
      <trkpt lat="43.69863" lon="-0.25442">
        <ele>92.599998474121</ele>
        <time>2020-07-06T13:01:20.000Z</time>
      </trkpt>
      <trkpt lat="43.69863" lon="-0.25426">
        <ele>92.400001525879</ele>
        <time>2020-07-06T13:01:22.000Z</time>
      </trkpt>
      <trkpt lat="43.69865" lon="-0.25386">
        <ele>92.400001525879</ele>
        <time>2020-07-06T13:01:27.000Z</time>
      </trkpt>
      <trkpt lat="43.69869" lon="-0.25352">
        <ele>92.599998474121</ele>
        <time>2020-07-06T13:01:31.000Z</time>
      </trkpt>
      <trkpt lat="43.69873" lon="-0.25337">
        <ele>92.599998474121</ele>
        <time>2020-07-06T13:01:33.000Z</time>
      </trkpt>
      <trkpt lat="43.69881" lon="-0.25326">
        <ele>92.599998474121</ele>
        <time>2020-07-06T13:01:35.000Z</time>
      </trkpt>
      <trkpt lat="43.69892" lon="-0.25315">
        <ele>92.599998474121</ele>
        <time>2020-07-06T13:01:37.000Z</time>
      </trkpt>
      <trkpt lat="43.69928" lon="-0.25283">
        <ele>92.800003051758</ele>
        <time>2020-07-06T13:01:45.000Z</time>
      </trkpt>
      <trkpt lat="43.69937" lon="-0.25275">
        <ele>93</ele>
        <time>2020-07-06T13:01:47.000Z</time>
      </trkpt>
      <trkpt lat="43.69947" lon="-0.25268">
        <ele>93.199996948242</ele>
        <time>2020-07-06T13:01:49.000Z</time>
      </trkpt>
      <trkpt lat="43.69952" lon="-0.25267">
        <ele>93.400001525879</ele>
        <time>2020-07-06T13:01:50.000Z</time>
      </trkpt>
      <trkpt lat="43.69956" lon="-0.25267">
        <ele>93.400001525879</ele>
        <time>2020-07-06T13:01:51.000Z</time>
      </trkpt>
      <trkpt lat="43.69963" lon="-0.25269">
        <ele>93.400001525879</ele>
        <time>2020-07-06T13:01:53.000Z</time>
      </trkpt>
      <trkpt lat="43.69962" lon="-0.25265">
        <ele>93.400001525879</ele>
        <time>2020-07-06T13:01:55.000Z</time>
      </trkpt>
      <trkpt lat="43.69956" lon="-0.25246">
        <ele>93.400001525879</ele>
        <time>2020-07-06T13:02:00.000Z</time>
      </trkpt>
      <trkpt lat="43.69955" lon="-0.2524">
        <ele>93.400001525879</ele>
        <time>2020-07-06T13:02:01.000Z</time>
      </trkpt>
      <trkpt lat="43.69958" lon="-0.25229">
        <ele>93.400001525879</ele>
        <time>2020-07-06T13:02:03.000Z</time>
      </trkpt>
      <trkpt lat="43.69967" lon="-0.25225">
        <ele>93.599998474121</ele>
        <time>2020-07-06T13:02:05.000Z</time>
      </trkpt>
      <trkpt lat="43.69971" lon="-0.25227">
        <ele>93.400001525879</ele>
        <time>2020-07-06T13:02:06.000Z</time>
      </trkpt>
      <trkpt lat="43.69976" lon="-0.25229">
        <ele>93.400001525879</ele>
        <time>2020-07-06T13:02:07.000Z</time>
      </trkpt>
      <trkpt lat="43.69996" lon="-0.2524">
        <ele>93.599998474121</ele>
        <time>2020-07-06T13:02:11.000Z</time>
      </trkpt>
      <trkpt lat="43.70005" lon="-0.25244">
        <ele>93.599998474121</ele>
        <time>2020-07-06T13:02:13.000Z</time>
      </trkpt>
      <trkpt lat="43.70037" lon="-0.25255">
        <ele>94.199996948242</ele>
        <time>2020-07-06T13:02:19.000Z</time>
      </trkpt>
      <trkpt lat="43.7006" lon="-0.25263">
        <ele>94.199996948242</ele>
        <time>2020-07-06T13:02:23.000Z</time>
      </trkpt>
      <trkpt lat="43.7007" lon="-0.25269">
        <ele>94.400001525879</ele>
        <time>2020-07-06T13:02:25.000Z</time>
      </trkpt>
      <trkpt lat="43.70075" lon="-0.25274">
        <ele>94.400001525879</ele>
        <time>2020-07-06T13:02:26.000Z</time>
      </trkpt>
      <trkpt lat="43.70079" lon="-0.25279">
        <ele>94.400001525879</ele>
        <time>2020-07-06T13:02:27.000Z</time>
      </trkpt>
      <trkpt lat="43.70089" lon="-0.25298">
        <ele>94.400001525879</ele>
        <time>2020-07-06T13:02:30.000Z</time>
      </trkpt>
      <trkpt lat="43.70106" lon="-0.25348">
        <ele>94.400001525879</ele>
        <time>2020-07-06T13:02:37.000Z</time>
      </trkpt>
      <trkpt lat="43.70115" lon="-0.25355">
        <ele>94.400001525879</ele>
        <time>2020-07-06T13:02:39.000Z</time>
      </trkpt>
      <trkpt lat="43.7012" lon="-0.25356">
        <ele>94.400001525879</ele>
        <time>2020-07-06T13:02:40.000Z</time>
      </trkpt>
      <trkpt lat="43.70131" lon="-0.25354">
        <ele>94.400001525879</ele>
        <time>2020-07-06T13:02:42.000Z</time>
      </trkpt>
      <trkpt lat="43.70162" lon="-0.25347">
        <ele>94.400001525879</ele>
        <time>2020-07-06T13:02:48.000Z</time>
      </trkpt>
      <trkpt lat="43.70184" lon="-0.25346">
        <ele>94.199996948242</ele>
        <time>2020-07-06T13:02:52.000Z</time>
      </trkpt>
      <trkpt lat="43.70194" lon="-0.25351">
        <ele>94.199996948242</ele>
        <time>2020-07-06T13:02:54.000Z</time>
      </trkpt>
      <trkpt lat="43.70202" lon="-0.25361">
        <ele>94</ele>
        <time>2020-07-06T13:02:56.000Z</time>
      </trkpt>
      <trkpt lat="43.70205" lon="-0.25368">
        <ele>94</ele>
        <time>2020-07-06T13:02:57.000Z</time>
      </trkpt>
      <trkpt lat="43.70226" lon="-0.25423">
        <ele>93.599998474121</ele>
        <time>2020-07-06T13:03:05.000Z</time>
      </trkpt>
      <trkpt lat="43.70241" lon="-0.25474">
        <ele>94</ele>
        <time>2020-07-06T13:03:12.000Z</time>
      </trkpt>
      <trkpt lat="43.7025" lon="-0.25528">
        <ele>94.400001525879</ele>
        <time>2020-07-06T13:03:19.000Z</time>
      </trkpt>
      <trkpt lat="43.70251" lon="-0.25536">
        <ele>94.400001525879</ele>
        <time>2020-07-06T13:03:20.000Z</time>
      </trkpt>
      <trkpt lat="43.70252" lon="-0.25552">
        <ele>94.400001525879</ele>
        <time>2020-07-06T13:03:22.000Z</time>
      </trkpt>
      <trkpt lat="43.70258" lon="-0.25573">
        <ele>94.400001525879</ele>
        <time>2020-07-06T13:03:25.000Z</time>
      </trkpt>
      <trkpt lat="43.70259" lon="-0.25578">
        <ele>94.400001525879</ele>
        <time>2020-07-06T13:03:26.000Z</time>
      </trkpt>
      <trkpt lat="43.70263" lon="-0.25578">
        <ele>94.400001525879</ele>
        <time>2020-07-06T13:03:28.000Z</time>
      </trkpt>
      <trkpt lat="43.70265" lon="-0.25564">
        <ele>94.599998474121</ele>
        <time>2020-07-06T13:03:33.000Z</time>
      </trkpt>
      <trkpt lat="43.70266" lon="-0.25562">
        <ele>94.599998474121</ele>
        <time>2020-07-06T13:03:37.000Z</time>
      </trkpt>
      <trkpt lat="43.70267" lon="-0.25564">
        <ele>94.800003051758</ele>
        <time>2020-07-06T13:03:40.000Z</time>
      </trkpt>
      <trkpt lat="43.70265" lon="-0.25565">
        <ele>94.800003051758</ele>
        <time>2020-07-06T13:03:42.000Z</time>
      </trkpt>
      <trkpt lat="43.70264" lon="-0.25565">
        <ele>94.800003051758</ele>
        <time>2020-07-06T13:03:48.000Z</time>
      </trkpt>
      <trkpt lat="43.70266" lon="-0.25562">
        <ele>94.800003051758</ele>
        <time>2020-07-06T13:03:49.000Z</time>
      </trkpt>
      <trkpt lat="43.70276" lon="-0.25552">
        <ele>94.800003051758</ele>
        <time>2020-07-06T13:03:52.000Z</time>
      </trkpt>
      <trkpt lat="43.70281" lon="-0.25548">
        <ele>94.599998474121</ele>
        <time>2020-07-06T13:03:53.000Z</time>
      </trkpt>
      <trkpt lat="43.70316" lon="-0.25526">
        <ele>93.599998474121</ele>
        <time>2020-07-06T13:04:00.000Z</time>
      </trkpt>
      <trkpt lat="43.70321" lon="-0.25524">
        <ele>93.599998474121</ele>
        <time>2020-07-06T13:04:01.000Z</time>
      </trkpt>
      <trkpt lat="43.70331" lon="-0.25523">
        <ele>93.400001525879</ele>
        <time>2020-07-06T13:04:04.000Z</time>
      </trkpt>
      <trkpt lat="43.70333" lon="-0.25529">
        <ele>93.400001525879</ele>
        <time>2020-07-06T13:04:07.000Z</time>
      </trkpt>
      <trkpt lat="43.70322" lon="-0.25539">
        <ele>93.400001525879</ele>
        <time>2020-07-06T13:04:11.000Z</time>
      </trkpt>
      <trkpt lat="43.70318" lon="-0.25539">
        <ele>93.199996948242</ele>
        <time>2020-07-06T13:04:12.000Z</time>
      </trkpt>
      <trkpt lat="43.70313" lon="-0.25539">
        <ele>93.199996948242</ele>
        <time>2020-07-06T13:04:13.000Z</time>
      </trkpt>
      <trkpt lat="43.70295" lon="-0.25541">
        <ele>93</ele>
        <time>2020-07-06T13:04:16.000Z</time>
      </trkpt>
      <trkpt lat="43.70289" lon="-0.25543">
        <ele>93</ele>
        <time>2020-07-06T13:04:17.000Z</time>
      </trkpt>
      <trkpt lat="43.70283" lon="-0.25545">
        <ele>93.199996948242</ele>
        <time>2020-07-06T13:04:18.000Z</time>
      </trkpt>
      <trkpt lat="43.70273" lon="-0.25552">
        <ele>93.400001525879</ele>
        <time>2020-07-06T13:04:20.000Z</time>
      </trkpt>
      <trkpt lat="43.70269" lon="-0.25557">
        <ele>93.400001525879</ele>
        <time>2020-07-06T13:04:21.000Z</time>
      </trkpt>
      <trkpt lat="43.70267" lon="-0.25564">
        <ele>93.599998474121</ele>
        <time>2020-07-06T13:04:22.000Z</time>
      </trkpt>
      <trkpt lat="43.70264" lon="-0.25577">
        <ele>94</ele>
        <time>2020-07-06T13:04:24.000Z</time>
      </trkpt>
      <trkpt lat="43.70263" lon="-0.25585">
        <ele>94.199996948242</ele>
        <time>2020-07-06T13:04:25.000Z</time>
      </trkpt>
      <trkpt lat="43.70263" lon="-0.25592">
        <ele>94.199996948242</ele>
        <time>2020-07-06T13:04:26.000Z</time>
      </trkpt>
      <trkpt lat="43.70263" lon="-0.25648">
        <ele>94.199996948242</ele>
        <time>2020-07-06T13:04:33.000Z</time>
      </trkpt>
      <trkpt lat="43.70261" lon="-0.25707">
        <ele>94.199996948242</ele>
        <time>2020-07-06T13:04:40.000Z</time>
      </trkpt>
      <trkpt lat="43.70256" lon="-0.25784">
        <ele>94</ele>
        <time>2020-07-06T13:04:50.000Z</time>
      </trkpt>
      <trkpt lat="43.70255" lon="-0.25801">
        <ele>94.199996948242</ele>
        <time>2020-07-06T13:04:54.000Z</time>
      </trkpt>
      <trkpt lat="43.70259" lon="-0.25809">
        <ele>94.199996948242</ele>
        <time>2020-07-06T13:04:58.000Z</time>
      </trkpt>
      <trkpt lat="43.7026" lon="-0.2583">
        <ele>94.199996948242</ele>
        <time>2020-07-06T13:05:03.000Z</time>
      </trkpt>
      <trkpt lat="43.70265" lon="-0.25849">
        <ele>93.599998474121</ele>
        <time>2020-07-06T13:05:07.000Z</time>
      </trkpt>
      <trkpt lat="43.70266" lon="-0.25862">
        <ele>93.199996948242</ele>
        <time>2020-07-06T13:05:09.000Z</time>
      </trkpt>
      <trkpt lat="43.70268" lon="-0.25869">
        <ele>93.199996948242</ele>
        <time>2020-07-06T13:05:10.000Z</time>
      </trkpt>
      <trkpt lat="43.70268" lon="-0.25876">
        <ele>93</ele>
        <time>2020-07-06T13:05:11.000Z</time>
      </trkpt>
      <trkpt lat="43.70269" lon="-0.25883">
        <ele>92.800003051758</ele>
        <time>2020-07-06T13:05:12.000Z</time>
      </trkpt>
      <trkpt lat="43.7027" lon="-0.25912">
        <ele>92.599998474121</ele>
        <time>2020-07-06T13:05:16.000Z</time>
      </trkpt>
      <trkpt lat="43.70276" lon="-0.25945">
        <ele>92.400001525879</ele>
        <time>2020-07-06T13:05:21.000Z</time>
      </trkpt>
      <trkpt lat="43.70294" lon="-0.25965">
        <ele>92.599998474121</ele>
        <time>2020-07-06T13:05:26.000Z</time>
      </trkpt>
      <trkpt lat="43.70308" lon="-0.25979">
        <ele>93</ele>
        <time>2020-07-06T13:05:31.000Z</time>
      </trkpt>
      <trkpt lat="43.70308" lon="-0.25979">
        <ele>93</ele>
        <time>2020-07-06T13:05:34.000Z</time>
      </trkpt>
      <trkpt lat="43.70308" lon="-0.25979">
        <ele>93.199996948242</ele>
        <time>2020-07-06T13:05:57.000Z</time>
      </trkpt>
      <trkpt lat="43.70302" lon="-0.25983">
        <ele>93</ele>
        <time>2020-07-06T13:06:00.000Z</time>
      </trkpt>
      <trkpt lat="43.70292" lon="-0.25991">
        <ele>92.800003051758</ele>
        <time>2020-07-06T13:06:05.000Z</time>
      </trkpt>
      <trkpt lat="43.70288" lon="-0.25996">
        <ele>92.599998474121</ele>
        <time>2020-07-06T13:06:09.000Z</time>
      </trkpt>
      <trkpt lat="43.70287" lon="-0.26002">
        <ele>92.599998474121</ele>
        <time>2020-07-06T13:06:11.000Z</time>
      </trkpt>
      <trkpt lat="43.70289" lon="-0.26029">
        <ele>92.599998474121</ele>
        <time>2020-07-06T13:06:16.000Z</time>
      </trkpt>
      <trkpt lat="43.70292" lon="-0.26063">
        <ele>92.400001525879</ele>
        <time>2020-07-06T13:06:22.000Z</time>
      </trkpt>
      <trkpt lat="43.70299" lon="-0.2612">
        <ele>92.599998474121</ele>
        <time>2020-07-06T13:06:32.000Z</time>
      </trkpt>
      <trkpt lat="43.70301" lon="-0.26148">
        <ele>92.800003051758</ele>
        <time>2020-07-06T13:06:37.000Z</time>
      </trkpt>
      <trkpt lat="43.70299" lon="-0.26152">
        <ele>92.800003051758</ele>
        <time>2020-07-06T13:06:38.000Z</time>
      </trkpt>
      <trkpt lat="43.70298" lon="-0.26157">
        <ele>93.199996948242</ele>
        <time>2020-07-06T13:06:40.000Z</time>
      </trkpt>
      <trkpt lat="43.70297" lon="-0.26157">
        <ele>93.199996948242</ele>
        <time>2020-07-06T13:06:41.000Z</time>
      </trkpt>
      <trkpt lat="43.70289" lon="-0.26163">
        <ele>93.400001525879</ele>
        <time>2020-07-06T13:06:44.000Z</time>
      </trkpt>
      <trkpt lat="43.70287" lon="-0.26165">
        <ele>93.400001525879</ele>
        <time>2020-07-06T13:06:46.000Z</time>
      </trkpt>
      <trkpt lat="43.70286" lon="-0.26168">
        <ele>93.599998474121</ele>
        <time>2020-07-06T13:06:48.000Z</time>
      </trkpt>
    </trkseg>
  </trk>
</gpx>